<?xml version="1.0" encoding="UTF-8" standalone="no" ?>
<gpx xmlns="http://www.topografix.com/GPX/1/1" xmlns:xsi="http://www.w3.org/2001/XMLSchema-instance" xsi:schemaLocation="http://www.topografix.com/GPX/1/1 http://www.topografix.com/GPX/1/1/gpx.xsd" version="1.1" creator="VisuGPX - https://www.visugpx.com">
  <metadata>
    <name>Turquie: itinéraire prévisionnel</name>
  </metadata>
  <trk>
    <name><![CDATA[3_De Avanos à Yalova]]></name>
    <extensions>
      <line xmlns="http://www.topografix.com/GPX/gpx_style/0/2">
        <color>FF0000</color>
        <width>4</width>
      </line>
    </extensions>
    <trkseg>
      <trkpt lat="38.71723" lon="34.8482">
        <ele>926.034697</ele>
        <time>2021-11-15T11:53:25.844Z</time>
      </trkpt>
      <trkpt lat="38.71724" lon="34.84823">
        <ele>926.034697</ele>
        <time>2021-11-15T11:53:27.737Z</time>
      </trkpt>
      <trkpt lat="38.71744" lon="34.84863">
        <ele>926.034697</ele>
        <time>2021-11-15T11:53:53.577Z</time>
      </trkpt>
      <trkpt lat="38.71725" lon="34.84873">
        <ele>926.034697</ele>
        <time>2021-11-15T11:54:07.266Z</time>
      </trkpt>
      <trkpt lat="38.71713" lon="34.84836">
        <ele>926.040635</ele>
        <time>2021-11-15T11:54:29.215Z</time>
      </trkpt>
      <trkpt lat="38.7171" lon="34.84822">
        <ele>926.093383</ele>
        <time>2021-11-15T11:54:37.025Z</time>
      </trkpt>
      <trkpt lat="38.71709" lon="34.84818">
        <ele>926.107402</ele>
        <time>2021-11-15T11:54:39.055Z</time>
      </trkpt>
      <trkpt lat="38.71709" lon="34.84815">
        <ele>926.11798</ele>
        <time>2021-11-15T11:54:40.634Z</time>
      </trkpt>
      <trkpt lat="38.71707" lon="34.84812">
        <ele>926.133681</ele>
        <time>2021-11-15T11:54:42.915Z</time>
      </trkpt>
      <trkpt lat="38.71697" lon="34.84794">
        <ele>926.215079</ele>
        <time>2021-11-15T11:54:54.891Z</time>
      </trkpt>
      <trkpt lat="38.71671" lon="34.84737">
        <ele>926.459566</ele>
        <time>2021-11-15T11:55:30.916Z</time>
      </trkpt>
      <trkpt lat="38.71654" lon="34.8472">
        <ele>926.557815</ele>
        <time>2021-11-15T11:55:45.412Z</time>
      </trkpt>
      <trkpt lat="38.71649" lon="34.84723">
        <ele>926.58479</ele>
        <time>2021-11-15T11:55:49.359Z</time>
      </trkpt>
      <trkpt lat="38.71625" lon="34.84733">
        <ele>926.704009</ele>
        <time>2021-11-15T11:56:06.908Z</time>
      </trkpt>
      <trkpt lat="38.71612" lon="34.8474">
        <ele>926.772007</ele>
        <time>2021-11-15T11:56:16.951Z</time>
      </trkpt>
      <trkpt lat="38.71601" lon="34.84745">
        <ele>926.825605</ele>
        <time>2021-11-15T11:56:24.798Z</time>
      </trkpt>
      <trkpt lat="38.71559" lon="34.84756">
        <ele>927.195302</ele>
        <time>2021-11-15T11:56:35.169Z</time>
      </trkpt>
      <trkpt lat="38.71557" lon="34.84748">
        <ele>927.266824</ele>
        <time>2021-11-15T11:56:36.877Z</time>
      </trkpt>
      <trkpt lat="38.71541" lon="34.84661">
        <ele>927.993593</ele>
        <time>2021-11-15T11:56:55.677Z</time>
      </trkpt>
      <trkpt lat="38.71522" lon="34.84572">
        <ele>928.739482</ele>
        <time>2021-11-15T11:57:16.424Z</time>
      </trkpt>
      <trkpt lat="38.71484" lon="34.84583">
        <ele>929.389418</ele>
        <time>2021-11-15T11:57:27.711Z</time>
      </trkpt>
      <trkpt lat="38.71415" lon="34.84606">
        <ele>930.613773</ele>
        <time>2021-11-15T11:57:49.370Z</time>
      </trkpt>
      <trkpt lat="38.71384" lon="34.84617">
        <ele>931.173507</ele>
        <time>2021-11-15T11:57:59.428Z</time>
      </trkpt>
      <trkpt lat="38.71349" lon="34.84631">
        <ele>931.795956</ele>
        <time>2021-11-15T11:58:10.511Z</time>
      </trkpt>
      <trkpt lat="38.71329" lon="34.84636">
        <ele>932.065176</ele>
        <time>2021-11-15T11:58:16.612Z</time>
      </trkpt>
      <trkpt lat="38.71252" lon="34.8463">
        <ele>933.040168</ele>
        <time>2021-11-15T11:58:38.688Z</time>
      </trkpt>
      <trkpt lat="38.71218" lon="34.8463">
        <ele>933.468047</ele>
        <time>2021-11-15T11:58:48.108Z</time>
      </trkpt>
      <trkpt lat="38.71207" lon="34.84629">
        <ele>933.614041</ele>
        <time>2021-11-15T11:58:51.195Z</time>
      </trkpt>
      <trkpt lat="38.71176" lon="34.84611">
        <ele>934.036609</ele>
        <time>2021-11-15T11:59:00.196Z</time>
      </trkpt>
      <trkpt lat="38.7117" lon="34.84606">
        <ele>934.131562</ele>
        <time>2021-11-15T11:59:02.321Z</time>
      </trkpt>
      <trkpt lat="38.71164" lon="34.84614">
        <ele>934.223167</ele>
        <time>2021-11-15T11:59:04.511Z</time>
      </trkpt>
      <trkpt lat="38.71144" lon="34.84599">
        <ele>934.479721</ele>
        <time>2021-11-15T11:59:10.924Z</time>
      </trkpt>
      <trkpt lat="38.71117" lon="34.84572">
        <ele>934.856419</ele>
        <time>2021-11-15T11:59:20.379Z</time>
      </trkpt>
      <trkpt lat="38.71075" lon="34.84496">
        <ele>935.641213</ele>
        <time>2021-11-15T11:59:40.516Z</time>
      </trkpt>
      <trkpt lat="38.71028" lon="34.84511">
        <ele>936.141636</ele>
        <time>2021-11-15T11:59:54.083Z</time>
      </trkpt>
      <trkpt lat="38.70975" lon="34.84521">
        <ele>936.570282</ele>
        <time>2021-11-15T12:00:08.058Z</time>
      </trkpt>
      <trkpt lat="38.70916" lon="34.84541">
        <ele>937.064093</ele>
        <time>2021-11-15T12:00:23.908Z</time>
      </trkpt>
      <trkpt lat="38.70895" lon="34.84486">
        <ele>937.446426</ele>
        <time>2021-11-15T12:00:35.908Z</time>
      </trkpt>
      <trkpt lat="38.70891" lon="34.84474">
        <ele>937.531646</ele>
        <time>2021-11-15T12:00:38.508Z</time>
      </trkpt>
      <trkpt lat="38.70889" lon="34.84466">
        <ele>937.590235</ele>
        <time>2021-11-15T12:00:40.160Z</time>
      </trkpt>
      <trkpt lat="38.70874" lon="34.84427">
        <ele>937.899754</ele>
        <time>2021-11-15T12:00:48.789Z</time>
      </trkpt>
      <trkpt lat="38.70825" lon="34.84455">
        <ele>938.38464</ele>
        <time>2021-11-15T12:01:02.849Z</time>
      </trkpt>
      <trkpt lat="38.70806" lon="34.84463">
        <ele>938.563655</ele>
        <time>2021-11-15T12:01:08.188Z</time>
      </trkpt>
      <trkpt lat="38.70784" lon="34.84409">
        <ele>938.990002</ele>
        <time>2021-11-15T12:01:21.055Z</time>
      </trkpt>
      <trkpt lat="38.70764" lon="34.84407">
        <ele>939.168319</ele>
        <time>2021-11-15T12:01:29.206Z</time>
      </trkpt>
      <trkpt lat="38.70757" lon="34.84402">
        <ele>939.252985</ele>
        <time>2021-11-15T12:01:31.530Z</time>
      </trkpt>
      <trkpt lat="38.70711" lon="34.84401">
        <ele>939.738061</ele>
        <time>2021-11-15T12:01:44.481Z</time>
      </trkpt>
      <trkpt lat="38.70716" lon="34.84342">
        <ele>940.222963</ele>
        <time>2021-11-15T12:01:57.191Z</time>
      </trkpt>
      <trkpt lat="38.70658" lon="34.84342">
        <ele>940.824337</ele>
        <time>2021-11-15T12:02:12.602Z</time>
      </trkpt>
      <trkpt lat="38.70598" lon="34.84348">
        <ele>941.447158</ele>
        <time>2021-11-15T12:02:28.932Z</time>
      </trkpt>
      <trkpt lat="38.70599" lon="34.84336">
        <ele>941.542323</ele>
        <time>2021-11-15T12:02:31.264Z</time>
      </trkpt>
      <trkpt lat="38.70542" lon="34.84333">
        <ele>942.114758</ele>
        <time>2021-11-15T12:02:46.118Z</time>
      </trkpt>
      <trkpt lat="38.70487" lon="34.84332">
        <ele>942.674769</ele>
        <time>2021-11-15T12:03:01.262Z</time>
      </trkpt>
      <trkpt lat="38.70489" lon="34.84269">
        <ele>943.478997</ele>
        <time>2021-11-15T12:03:15.085Z</time>
      </trkpt>
      <trkpt lat="38.70488" lon="34.84258">
        <ele>943.637189</ele>
        <time>2021-11-15T12:03:17.700Z</time>
      </trkpt>
      <trkpt lat="38.70454" lon="34.84258">
        <ele>944.302115</ele>
        <time>2021-11-15T12:03:27.761Z</time>
      </trkpt>
      <trkpt lat="38.70413" lon="34.84254">
        <ele>945.122536</ele>
        <time>2021-11-15T12:03:40.509Z</time>
      </trkpt>
      <trkpt lat="38.70395" lon="34.8425">
        <ele>945.481952</ele>
        <time>2021-11-15T12:03:45.960Z</time>
      </trkpt>
      <trkpt lat="38.70391" lon="34.84249">
        <ele>945.544296</ele>
        <time>2021-11-15T12:03:46.819Z</time>
      </trkpt>
      <trkpt lat="38.70372" lon="34.84248">
        <ele>945.934639</ele>
        <time>2021-11-15T12:03:53.347Z</time>
      </trkpt>
      <trkpt lat="38.70368" lon="34.84271">
        <ele>946.293408</ele>
        <time>2021-11-15T12:03:58.668Z</time>
      </trkpt>
      <trkpt lat="38.70353" lon="34.8427">
        <ele>946.645013</ele>
        <time>2021-11-15T12:04:04.296Z</time>
      </trkpt>
      <trkpt lat="38.7024" lon="34.84259">
        <ele>949.349095</ele>
        <time>2021-11-15T12:04:41.824Z</time>
      </trkpt>
      <trkpt lat="38.70191" lon="34.84255">
        <ele>950.520834</ele>
        <time>2021-11-15T12:04:57.639Z</time>
      </trkpt>
      <trkpt lat="38.70143" lon="34.84251">
        <ele>951.498918</ele>
        <time>2021-11-15T12:05:12.900Z</time>
      </trkpt>
      <trkpt lat="38.70134" lon="34.8425">
        <ele>951.662264</ele>
        <time>2021-11-15T12:05:15.463Z</time>
      </trkpt>
      <trkpt lat="38.70108" lon="34.84248">
        <ele>952.164122</ele>
        <time>2021-11-15T12:05:23.756Z</time>
      </trkpt>
      <trkpt lat="38.69349" lon="34.84181">
        <ele>967.063415</ele>
        <time>2021-11-15T12:09:18.295Z</time>
      </trkpt>
      <trkpt lat="38.68546" lon="34.84048">
        <ele>985.573957</ele>
        <time>2021-11-15T12:13:40.903Z</time>
      </trkpt>
      <trkpt lat="38.68229" lon="34.83998">
        <ele>992.552262</ele>
        <time>2021-11-15T12:15:23.264Z</time>
      </trkpt>
      <trkpt lat="38.68187" lon="34.83991">
        <ele>993.438742</ele>
        <time>2021-11-15T12:15:36.092Z</time>
      </trkpt>
      <trkpt lat="38.68159" lon="34.83983">
        <ele>994.016581</ele>
        <time>2021-11-15T12:15:44.626Z</time>
      </trkpt>
      <trkpt lat="38.68138" lon="34.83976">
        <ele>994.464291</ele>
        <time>2021-11-15T12:15:51.032Z</time>
      </trkpt>
      <trkpt lat="38.68096" lon="34.83962">
        <ele>995.343861</ele>
        <time>2021-11-15T12:16:04.120Z</time>
      </trkpt>
      <trkpt lat="38.67811" lon="34.83907">
        <ele>1002.830836</ele>
        <time>2021-11-15T12:17:40.908Z</time>
      </trkpt>
      <trkpt lat="38.67742" lon="34.83899">
        <ele>1005.022744</ele>
        <time>2021-11-15T12:18:06.014Z</time>
      </trkpt>
      <trkpt lat="38.67455" lon="34.83927">
        <ele>1014.778882</ele>
        <time>2021-11-15T12:19:53.388Z</time>
      </trkpt>
      <trkpt lat="38.67386" lon="34.83922">
        <ele>1016.958952</ele>
        <time>2021-11-15T12:20:18.413Z</time>
      </trkpt>
      <trkpt lat="38.67357" lon="34.83917">
        <ele>1017.885018</ele>
        <time>2021-11-15T12:20:28.996Z</time>
      </trkpt>
      <trkpt lat="38.67354" lon="34.83916">
        <ele>1017.975522</ele>
        <time>2021-11-15T12:20:29.930Z</time>
      </trkpt>
      <trkpt lat="38.6733" lon="34.83908">
        <ele>1018.754889</ele>
        <time>2021-11-15T12:20:38.825Z</time>
      </trkpt>
      <trkpt lat="38.6716" lon="34.83826">
        <ele>1022.555081</ele>
        <time>2021-11-15T12:21:36.606Z</time>
      </trkpt>
      <trkpt lat="38.67117" lon="34.83797">
        <ele>1022.807825</ele>
        <time>2021-11-15T12:21:49.370Z</time>
      </trkpt>
      <trkpt lat="38.67105" lon="34.83788">
        <ele>1022.870148</ele>
        <time>2021-11-15T12:21:52.790Z</time>
      </trkpt>
      <trkpt lat="38.67076" lon="34.83762">
        <ele>1023.033678</ele>
        <time>2021-11-15T12:22:01.356Z</time>
      </trkpt>
      <trkpt lat="38.67053" lon="34.83744">
        <ele>1023.158093</ele>
        <time>2021-11-15T12:22:07.531Z</time>
      </trkpt>
      <trkpt lat="38.67013" lon="34.83695">
        <ele>1023.410436</ele>
        <time>2021-11-15T12:22:19.853Z</time>
      </trkpt>
      <trkpt lat="38.66945" lon="34.83629">
        <ele>1024.415692</ele>
        <time>2021-11-15T12:22:40.776Z</time>
      </trkpt>
      <trkpt lat="38.66921" lon="34.83597">
        <ele>1024.838822</ele>
        <time>2021-11-15T12:22:50.631Z</time>
      </trkpt>
      <trkpt lat="38.66919" lon="34.83596">
        <ele>1024.859015</ele>
        <time>2021-11-15T12:22:51.193Z</time>
      </trkpt>
      <trkpt lat="38.66757" lon="34.83472">
        <ele>1029.114133</ele>
        <time>2021-11-15T12:23:53.411Z</time>
      </trkpt>
      <trkpt lat="38.66605" lon="34.83345">
        <ele>1035.035955</ele>
        <time>2021-11-15T12:25:00.579Z</time>
      </trkpt>
      <trkpt lat="38.66565" lon="34.83314">
        <ele>1036.679034</ele>
        <time>2021-11-15T12:25:18.121Z</time>
      </trkpt>
      <trkpt lat="38.665" lon="34.83283">
        <ele>1039.263622</ele>
        <time>2021-11-15T12:25:44.780Z</time>
      </trkpt>
      <trkpt lat="38.66404" lon="34.8326">
        <ele>1042.895027</ele>
        <time>2021-11-15T12:26:21.971Z</time>
      </trkpt>
      <trkpt lat="38.66394" lon="34.83258">
        <ele>1043.25112</ele>
        <time>2021-11-15T12:26:26.056Z</time>
      </trkpt>
      <trkpt lat="38.66321" lon="34.83246">
        <ele>1045.878495</ele>
        <time>2021-11-15T12:26:53.953Z</time>
      </trkpt>
      <trkpt lat="38.66211" lon="34.83273">
        <ele>1049.838787</ele>
        <time>2021-11-15T12:27:35.626Z</time>
      </trkpt>
      <trkpt lat="38.66157" lon="34.83302">
        <ele>1051.401052</ele>
        <time>2021-11-15T12:27:55.931Z</time>
      </trkpt>
      <trkpt lat="38.65816" lon="34.83425">
        <ele>1059.704554</ele>
        <time>2021-11-15T12:29:52.985Z</time>
      </trkpt>
      <trkpt lat="38.65662" lon="34.83536">
        <ele>1061.598769</ele>
        <time>2021-11-15T12:30:38.948Z</time>
      </trkpt>
      <trkpt lat="38.65551" lon="34.83604">
        <ele>1062.299557</ele>
        <time>2021-11-15T12:31:09.630Z</time>
      </trkpt>
      <trkpt lat="38.6549" lon="34.83634">
        <ele>1063.067198</ele>
        <time>2021-11-15T12:31:26.729Z</time>
      </trkpt>
      <trkpt lat="38.65439" lon="34.83651">
        <ele>1063.737486</ele>
        <time>2021-11-15T12:31:41.703Z</time>
      </trkpt>
      <trkpt lat="38.65376" lon="34.83659">
        <ele>1064.522343</ele>
        <time>2021-11-15T12:32:00.046Z</time>
      </trkpt>
      <trkpt lat="38.65275" lon="34.83656">
        <ele>1066.841405</ele>
        <time>2021-11-15T12:32:32.381Z</time>
      </trkpt>
      <trkpt lat="38.6524" lon="34.83648">
        <ele>1067.691026</ele>
        <time>2021-11-15T12:32:44.462Z</time>
      </trkpt>
      <trkpt lat="38.65206" lon="34.83636">
        <ele>1068.509715</ele>
        <time>2021-11-15T12:32:56.228Z</time>
      </trkpt>
      <trkpt lat="38.65166" lon="34.83625">
        <ele>1069.598288</ele>
        <time>2021-11-15T12:33:10.594Z</time>
      </trkpt>
      <trkpt lat="38.65038" lon="34.8355">
        <ele>1073.402018</ele>
        <time>2021-11-15T12:33:58.530Z</time>
      </trkpt>
      <trkpt lat="38.65008" lon="34.83529">
        <ele>1074.296958</ele>
        <time>2021-11-15T12:34:10.068Z</time>
      </trkpt>
      <trkpt lat="38.65039" lon="34.83548">
        <ele>1075.169375</ele>
        <time>2021-11-15T12:34:21.213Z</time>
      </trkpt>
      <trkpt lat="38.6492" lon="34.83469">
        <ele>1078.603294</ele>
        <time>2021-11-15T12:35:04.463Z</time>
      </trkpt>
      <trkpt lat="38.64922" lon="34.83453">
        <ele>1078.972929</ele>
        <time>2021-11-15T12:35:08.136Z</time>
      </trkpt>
      <trkpt lat="38.64915" lon="34.8345">
        <ele>1079.184308</ele>
        <time>2021-11-15T12:35:10.953Z</time>
      </trkpt>
      <trkpt lat="38.64858" lon="34.83413">
        <ele>1081.113143</ele>
        <time>2021-11-15T12:35:32.837Z</time>
      </trkpt>
      <trkpt lat="38.64817" lon="34.83393">
        <ele>1082.433438</ele>
        <time>2021-11-15T12:35:48.509Z</time>
      </trkpt>
      <trkpt lat="38.64827" lon="34.83352">
        <ele>1083.43011</ele>
        <time>2021-11-15T12:36:00.363Z</time>
      </trkpt>
      <trkpt lat="38.64837" lon="34.83296">
        <ele>1085.294945</ele>
        <time>2021-11-15T12:36:17.914Z</time>
      </trkpt>
      <trkpt lat="38.64851" lon="34.83249">
        <ele>1087.004195</ele>
        <time>2021-11-15T12:36:33.722Z</time>
      </trkpt>
      <trkpt lat="38.64851" lon="34.83225">
        <ele>1087.815165</ele>
        <time>2021-11-15T12:36:41.249Z</time>
      </trkpt>
      <trkpt lat="38.64832" lon="34.83209">
        <ele>1088.803272</ele>
        <time>2021-11-15T12:36:50.627Z</time>
      </trkpt>
      <trkpt lat="38.64817" lon="34.83201">
        <ele>1089.483642</ele>
        <time>2021-11-15T12:36:57.394Z</time>
      </trkpt>
      <trkpt lat="38.6482" lon="34.83169">
        <ele>1090.57648</ele>
        <time>2021-11-15T12:37:08.183Z</time>
      </trkpt>
      <trkpt lat="38.64814" lon="34.83134">
        <ele>1091.803504</ele>
        <time>2021-11-15T12:37:20.208Z</time>
      </trkpt>
      <trkpt lat="38.64803" lon="34.83133">
        <ele>1092.313806</ele>
        <time>2021-11-15T12:37:24.620Z</time>
      </trkpt>
      <trkpt lat="38.64769" lon="34.83129">
        <ele>1093.952972</ele>
        <time>2021-11-15T12:37:39.188Z</time>
      </trkpt>
      <trkpt lat="38.64767" lon="34.83089">
        <ele>1095.419148</ele>
        <time>2021-11-15T12:37:51.977Z</time>
      </trkpt>
      <trkpt lat="38.64766" lon="34.8307">
        <ele>1096.119093</ele>
        <time>2021-11-15T12:37:58.555Z</time>
      </trkpt>
      <trkpt lat="38.6476" lon="34.83049">
        <ele>1096.93309</ele>
        <time>2021-11-15T12:38:06.169Z</time>
      </trkpt>
      <trkpt lat="38.64747" lon="34.83022">
        <ele>1098.098737</ele>
        <time>2021-11-15T12:38:16.754Z</time>
      </trkpt>
      <trkpt lat="38.64734" lon="34.82999">
        <ele>1099.163502</ele>
        <time>2021-11-15T12:38:26.246Z</time>
      </trkpt>
      <trkpt lat="38.6473" lon="34.82992">
        <ele>1099.475186</ele>
        <time>2021-11-15T12:38:29.043Z</time>
      </trkpt>
      <trkpt lat="38.64719" lon="34.82973">
        <ele>1100.223287</ele>
        <time>2021-11-15T12:38:36.401Z</time>
      </trkpt>
      <trkpt lat="38.64696" lon="34.82937">
        <ele>1101.619374</ele>
        <time>2021-11-15T12:38:51.493Z</time>
      </trkpt>
      <trkpt lat="38.64623" lon="34.8286">
        <ele>1105.195891</ele>
        <time>2021-11-15T12:39:26.146Z</time>
      </trkpt>
      <trkpt lat="38.64611" lon="34.82849">
        <ele>1105.770679</ele>
        <time>2021-11-15T12:39:31.543Z</time>
      </trkpt>
      <trkpt lat="38.64603" lon="34.82837">
        <ele>1106.216854</ele>
        <time>2021-11-15T12:39:36.025Z</time>
      </trkpt>
      <trkpt lat="38.64596" lon="34.82828">
        <ele>1106.597484</ele>
        <time>2021-11-15T12:39:39.960Z</time>
      </trkpt>
      <trkpt lat="38.64565" lon="34.82819">
        <ele>1107.911571</ele>
        <time>2021-11-15T12:39:52.388Z</time>
      </trkpt>
      <trkpt lat="38.64552" lon="34.82812">
        <ele>1108.488092</ele>
        <time>2021-11-15T12:39:57.829Z</time>
      </trkpt>
      <trkpt lat="38.6451" lon="34.82789">
        <ele>1110.359155</ele>
        <time>2021-11-15T12:40:15.033Z</time>
      </trkpt>
      <trkpt lat="38.64595" lon="34.82608">
        <ele>1118.897902</ele>
        <time>2021-11-15T12:41:21.127Z</time>
      </trkpt>
      <trkpt lat="38.646" lon="34.82594">
        <ele>1119.681908</ele>
        <time>2021-11-15T12:41:27.732Z</time>
      </trkpt>
      <trkpt lat="38.64623" lon="34.82494">
        <ele>1124.925327</ele>
        <time>2021-11-15T12:42:10.065Z</time>
      </trkpt>
      <trkpt lat="38.64629" lon="34.82464">
        <ele>1126.868925</ele>
        <time>2021-11-15T12:42:23.641Z</time>
      </trkpt>
      <trkpt lat="38.6464" lon="34.82428">
        <ele>1129.746578</ele>
        <time>2021-11-15T12:42:40.846Z</time>
      </trkpt>
      <trkpt lat="38.64696" lon="34.82318">
        <ele>1139.431119</ele>
        <time>2021-11-15T12:43:43.380Z</time>
      </trkpt>
      <trkpt lat="38.64707" lon="34.82287">
        <ele>1141.960082</ele>
        <time>2021-11-15T12:44:01.030Z</time>
      </trkpt>
      <trkpt lat="38.64707" lon="34.82238">
        <ele>1145.783467</ele>
        <time>2021-11-15T12:44:25.356Z</time>
      </trkpt>
      <trkpt lat="38.64687" lon="34.82154">
        <ele>1152.813052</ele>
        <time>2021-11-15T12:45:08.588Z</time>
      </trkpt>
      <trkpt lat="38.64659" lon="34.82069">
        <ele>1160.063256</ele>
        <time>2021-11-15T12:45:55.091Z</time>
      </trkpt>
      <trkpt lat="38.64623" lon="34.81997">
        <ele>1165.562454</ele>
        <time>2021-11-15T12:46:34.896Z</time>
      </trkpt>
      <trkpt lat="38.64604" lon="34.81974">
        <ele>1167.588888</ele>
        <time>2021-11-15T12:46:49.429Z</time>
      </trkpt>
      <trkpt lat="38.6456" lon="34.81944">
        <ele>1171.457755</ele>
        <time>2021-11-15T12:47:13.885Z</time>
      </trkpt>
      <trkpt lat="38.645" lon="34.81906">
        <ele>1176.192754</ele>
        <time>2021-11-15T12:47:46.959Z</time>
      </trkpt>
      <trkpt lat="38.64408" lon="34.81861">
        <ele>1181.346197</ele>
        <time>2021-11-15T12:48:29.441Z</time>
      </trkpt>
      <trkpt lat="38.6439" lon="34.81853">
        <ele>1182.340142</ele>
        <time>2021-11-15T12:48:37.040Z</time>
      </trkpt>
      <trkpt lat="38.64388" lon="34.81853">
        <ele>1182.444902</ele>
        <time>2021-11-15T12:48:38.592Z</time>
      </trkpt>
      <trkpt lat="38.64265" lon="34.81803">
        <ele>1188.352817</ele>
        <time>2021-11-15T12:49:28.503Z</time>
      </trkpt>
      <trkpt lat="38.64174" lon="34.81745">
        <ele>1192.593822</ele>
        <time>2021-11-15T12:50:09.862Z</time>
      </trkpt>
      <trkpt lat="38.64113" lon="34.81693">
        <ele>1194.867844</ele>
        <time>2021-11-15T12:50:36.059Z</time>
      </trkpt>
      <trkpt lat="38.64047" lon="34.81637">
        <ele>1197.279305</ele>
        <time>2021-11-15T12:50:59.938Z</time>
      </trkpt>
      <trkpt lat="38.63998" lon="34.81585">
        <ele>1199.963603</ele>
        <time>2021-11-15T12:51:22.935Z</time>
      </trkpt>
      <trkpt lat="38.63949" lon="34.81539">
        <ele>1202.722085</ele>
        <time>2021-11-15T12:51:45.617Z</time>
      </trkpt>
      <trkpt lat="38.63931" lon="34.81508">
        <ele>1204.094925</ele>
        <time>2021-11-15T12:51:58.778Z</time>
      </trkpt>
      <trkpt lat="38.63908" lon="34.81483">
        <ele>1205.483654</ele>
        <time>2021-11-15T12:52:12.316Z</time>
      </trkpt>
      <trkpt lat="38.63847" lon="34.81442">
        <ele>1210.584611</ele>
        <time>2021-11-15T12:52:47.824Z</time>
      </trkpt>
      <trkpt lat="38.63819" lon="34.81422">
        <ele>1213.115292</ele>
        <time>2021-11-15T12:53:06.726Z</time>
      </trkpt>
      <trkpt lat="38.63775" lon="34.81392">
        <ele>1217.078981</ele>
        <time>2021-11-15T12:53:35.437Z</time>
      </trkpt>
      <trkpt lat="38.63702" lon="34.81327">
        <ele>1224.005819</ele>
        <time>2021-11-15T12:54:23.000Z</time>
      </trkpt>
      <trkpt lat="38.63685" lon="34.81316">
        <ele>1225.517837</ele>
        <time>2021-11-15T12:54:33.633Z</time>
      </trkpt>
      <trkpt lat="38.63644" lon="34.81303">
        <ele>1228.767468</ele>
        <time>2021-11-15T12:54:55.822Z</time>
      </trkpt>
      <trkpt lat="38.63609" lon="34.81293">
        <ele>1231.522249</ele>
        <time>2021-11-15T12:55:14.490Z</time>
      </trkpt>
      <trkpt lat="38.63597" lon="34.81284">
        <ele>1232.644505</ele>
        <time>2021-11-15T12:55:21.964Z</time>
      </trkpt>
      <trkpt lat="38.63587" lon="34.81269">
        <ele>1233.814965</ele>
        <time>2021-11-15T12:55:29.913Z</time>
      </trkpt>
      <trkpt lat="38.63557" lon="34.81218">
        <ele>1237.286028</ele>
        <time>2021-11-15T12:55:55.965Z</time>
      </trkpt>
      <trkpt lat="38.63471" lon="34.8109">
        <ele>1246.462634</ele>
        <time>2021-11-15T12:57:04.034Z</time>
      </trkpt>
      <trkpt lat="38.6345" lon="34.81053">
        <ele>1247.810943</ele>
        <time>2021-11-15T12:57:18.927Z</time>
      </trkpt>
      <trkpt lat="38.63438" lon="34.81017">
        <ele>1248.812169</ele>
        <time>2021-11-15T12:57:29.786Z</time>
      </trkpt>
      <trkpt lat="38.63427" lon="34.80973">
        <ele>1250.01762</ele>
        <time>2021-11-15T12:57:41.934Z</time>
      </trkpt>
      <trkpt lat="38.63425" lon="34.80929">
        <ele>1251.179656</ele>
        <time>2021-11-15T12:57:53.178Z</time>
      </trkpt>
      <trkpt lat="38.63426" lon="34.8088">
        <ele>1252.449555</ele>
        <time>2021-11-15T12:58:05.076Z</time>
      </trkpt>
      <trkpt lat="38.6343" lon="34.8082">
        <ele>1253.807165</ele>
        <time>2021-11-15T12:58:18.433Z</time>
      </trkpt>
      <trkpt lat="38.63431" lon="34.80818">
        <ele>1253.849022</ele>
        <time>2021-11-15T12:58:18.698Z</time>
      </trkpt>
      <trkpt lat="38.63438" lon="34.80784">
        <ele>1254.610116</ele>
        <time>2021-11-15T12:58:26.824Z</time>
      </trkpt>
      <trkpt lat="38.63509" lon="34.80663">
        <ele>1258.252834</ele>
        <time>2021-11-15T12:59:06.172Z</time>
      </trkpt>
      <trkpt lat="38.63511" lon="34.80641">
        <ele>1259.625982</ele>
        <time>2021-11-15T12:59:14.013Z</time>
      </trkpt>
      <trkpt lat="38.6351" lon="34.80618">
        <ele>1261.071839</ele>
        <time>2021-11-15T12:59:22.166Z</time>
      </trkpt>
      <trkpt lat="38.63498" lon="34.80565">
        <ele>1264.532542</ele>
        <time>2021-11-15T12:59:45.806Z</time>
      </trkpt>
      <trkpt lat="38.63454" lon="34.80509">
        <ele>1269.481082</ele>
        <time>2021-11-15T13:00:20.298Z</time>
      </trkpt>
      <trkpt lat="38.63433" lon="34.80485">
        <ele>1271.736998</ele>
        <time>2021-11-15T13:00:40.811Z</time>
      </trkpt>
      <trkpt lat="38.63395" lon="34.80448">
        <ele>1276.848391</ele>
        <time>2021-11-15T13:01:11.736Z</time>
      </trkpt>
      <trkpt lat="38.63388" lon="34.80454">
        <ele>1277.753961</ele>
        <time>2021-11-15T13:01:19.082Z</time>
      </trkpt>
      <trkpt lat="38.6334" lon="34.8046">
        <ele>1283.1288</ele>
        <time>2021-11-15T13:01:53.072Z</time>
      </trkpt>
      <trkpt lat="38.63323" lon="34.80474">
        <ele>1285.423079</ele>
        <time>2021-11-15T13:02:05.247Z</time>
      </trkpt>
      <trkpt lat="38.63316" lon="34.80494">
        <ele>1287.372664</ele>
        <time>2021-11-15T13:02:20.223Z</time>
      </trkpt>
      <trkpt lat="38.63317" lon="34.80507">
        <ele>1288.4615</ele>
        <time>2021-11-15T13:02:26.264Z</time>
      </trkpt>
      <trkpt lat="38.63334" lon="34.80546">
        <ele>1292.288215</ele>
        <time>2021-11-15T13:02:50.004Z</time>
      </trkpt>
      <trkpt lat="38.63335" lon="34.8056">
        <ele>1293.015197</ele>
        <time>2021-11-15T13:02:55.998Z</time>
      </trkpt>
      <trkpt lat="38.63334" lon="34.80574">
        <ele>1293.765052</ele>
        <time>2021-11-15T13:03:04.469Z</time>
      </trkpt>
      <trkpt lat="38.63342" lon="34.80582">
        <ele>1294.431937</ele>
        <time>2021-11-15T13:03:09.904Z</time>
      </trkpt>
      <trkpt lat="38.63347" lon="34.80593">
        <ele>1295.123446</ele>
        <time>2021-11-15T13:03:13.685Z</time>
      </trkpt>
      <trkpt lat="38.63341" lon="34.80612">
        <ele>1296.237418</ele>
        <time>2021-11-15T13:03:24.007Z</time>
      </trkpt>
      <trkpt lat="38.63319" lon="34.80641">
        <ele>1298.371644</ele>
        <time>2021-11-15T13:03:39.002Z</time>
      </trkpt>
      <trkpt lat="38.63315" lon="34.80647">
        <ele>1298.831842</ele>
        <time>2021-11-15T13:03:43.818Z</time>
      </trkpt>
      <trkpt lat="38.63313" lon="34.8064">
        <ele>1299.228345</ele>
        <time>2021-11-15T13:03:46.804Z</time>
      </trkpt>
      <trkpt lat="38.63307" lon="34.80637">
        <ele>1299.661229</ele>
        <time>2021-11-15T13:03:49.785Z</time>
      </trkpt>
      <trkpt lat="38.63302" lon="34.8064">
        <ele>1300.028898</ele>
        <time>2021-11-15T13:03:50.915Z</time>
      </trkpt>
      <trkpt lat="38.63294" lon="34.80674">
        <ele>1301.948703</ele>
        <time>2021-11-15T13:04:02.626Z</time>
      </trkpt>
      <trkpt lat="38.63286" lon="34.80684">
        <ele>1302.733074</ele>
        <time>2021-11-15T13:04:06.249Z</time>
      </trkpt>
      <trkpt lat="38.63257" lon="34.807">
        <ele>1304.694462</ele>
        <time>2021-11-15T13:04:19.371Z</time>
      </trkpt>
      <trkpt lat="38.63235" lon="34.80708">
        <ele>1305.539589</ele>
        <time>2021-11-15T13:04:28.650Z</time>
      </trkpt>
      <trkpt lat="38.63215" lon="34.80721">
        <ele>1306.402998</ele>
        <time>2021-11-15T13:04:36.876Z</time>
      </trkpt>
      <trkpt lat="38.63176" lon="34.80738">
        <ele>1307.981248</ele>
        <time>2021-11-15T13:04:51.834Z</time>
      </trkpt>
      <trkpt lat="38.63164" lon="34.80735">
        <ele>1308.436507</ele>
        <time>2021-11-15T13:04:55.341Z</time>
      </trkpt>
      <trkpt lat="38.6315" lon="34.80729">
        <ele>1308.979947</ele>
        <time>2021-11-15T13:05:00.086Z</time>
      </trkpt>
      <trkpt lat="38.63138" lon="34.80723">
        <ele>1309.487291</ele>
        <time>2021-11-15T13:05:03.888Z</time>
      </trkpt>
      <trkpt lat="38.63124" lon="34.80719">
        <ele>1310.007329</ele>
        <time>2021-11-15T13:05:08.384Z</time>
      </trkpt>
      <trkpt lat="38.63104" lon="34.80705">
        <ele>1310.899987</ele>
        <time>2021-11-15T13:05:17.474Z</time>
      </trkpt>
      <trkpt lat="38.63073" lon="34.80696">
        <ele>1313.021326</ele>
        <time>2021-11-15T13:05:30.464Z</time>
      </trkpt>
      <trkpt lat="38.63018" lon="34.80696">
        <ele>1317.290256</ele>
        <time>2021-11-15T13:05:58.923Z</time>
      </trkpt>
      <trkpt lat="38.62998" lon="34.80671">
        <ele>1319.423453</ele>
        <time>2021-11-15T13:06:17.203Z</time>
      </trkpt>
      <trkpt lat="38.62985" lon="34.80654">
        <ele>1320.879974</ele>
        <time>2021-11-15T13:06:25.786Z</time>
      </trkpt>
      <trkpt lat="38.62984" lon="34.80648">
        <ele>1321.271813</ele>
        <time>2021-11-15T13:06:29.511Z</time>
      </trkpt>
      <trkpt lat="38.62982" lon="34.80633">
        <ele>1322.184836</ele>
        <time>2021-11-15T13:06:37.901Z</time>
      </trkpt>
      <trkpt lat="38.62974" lon="34.80606">
        <ele>1323.933002</ele>
        <time>2021-11-15T13:06:49.439Z</time>
      </trkpt>
      <trkpt lat="38.62973" lon="34.80596">
        <ele>1324.531615</ele>
        <time>2021-11-15T13:06:56.550Z</time>
      </trkpt>
      <trkpt lat="38.62967" lon="34.80589">
        <ele>1325.195353</ele>
        <time>2021-11-15T13:07:00.958Z</time>
      </trkpt>
      <trkpt lat="38.62959" lon="34.80575">
        <ele>1326.037817</ele>
        <time>2021-11-15T13:07:06.867Z</time>
      </trkpt>
      <trkpt lat="38.62958" lon="34.80571">
        <ele>1326.268272</ele>
        <time>2021-11-15T13:07:09.161Z</time>
      </trkpt>
      <trkpt lat="38.62954" lon="34.80557">
        <ele>1326.989733</ele>
        <time>2021-11-15T13:07:18.569Z</time>
      </trkpt>
      <trkpt lat="38.62958" lon="34.80538">
        <ele>1327.979184</ele>
        <time>2021-11-15T13:07:24.846Z</time>
      </trkpt>
      <trkpt lat="38.62961" lon="34.8053">
        <ele>1328.448707</ele>
        <time>2021-11-15T13:07:28.970Z</time>
      </trkpt>
      <trkpt lat="38.62965" lon="34.80524">
        <ele>1328.846139</ele>
        <time>2021-11-15T13:07:33.056Z</time>
      </trkpt>
      <trkpt lat="38.62945" lon="34.80514">
        <ele>1330.185223</ele>
        <time>2021-11-15T13:07:44.845Z</time>
      </trkpt>
      <trkpt lat="38.62922" lon="34.80486">
        <ele>1332.245254</ele>
        <time>2021-11-15T13:08:03.347Z</time>
      </trkpt>
      <trkpt lat="38.62913" lon="34.80477">
        <ele>1332.971336</ele>
        <time>2021-11-15T13:08:07.475Z</time>
      </trkpt>
      <trkpt lat="38.62908" lon="34.80463">
        <ele>1333.768866</ele>
        <time>2021-11-15T13:08:14.620Z</time>
      </trkpt>
      <trkpt lat="38.62906" lon="34.80455">
        <ele>1334.209688</ele>
        <time>2021-11-15T13:08:17.980Z</time>
      </trkpt>
      <trkpt lat="38.62905" lon="34.8043">
        <ele>1335.460344</ele>
        <time>2021-11-15T13:08:24.518Z</time>
      </trkpt>
      <trkpt lat="38.62906" lon="34.80418">
        <ele>1336.084052</ele>
        <time>2021-11-15T13:08:28.789Z</time>
      </trkpt>
      <trkpt lat="38.62885" lon="34.80406">
        <ele>1336.730698</ele>
        <time>2021-11-15T13:08:35.228Z</time>
      </trkpt>
      <trkpt lat="38.6286" lon="34.80383">
        <ele>1336.372072</ele>
        <time>2021-11-15T13:08:42.658Z</time>
      </trkpt>
      <trkpt lat="38.62823" lon="34.80363">
        <ele>1335.9085</ele>
        <time>2021-11-15T13:08:50.305Z</time>
      </trkpt>
      <trkpt lat="38.6279" lon="34.80364">
        <ele>1335.523687</ele>
        <time>2021-11-15T13:08:56.102Z</time>
      </trkpt>
      <trkpt lat="38.62758" lon="34.80342">
        <ele>1335.095943</ele>
        <time>2021-11-15T13:09:02.095Z</time>
      </trkpt>
      <trkpt lat="38.62748" lon="34.80329">
        <ele>1334.929295</ele>
        <time>2021-11-15T13:09:04.394Z</time>
      </trkpt>
      <trkpt lat="38.62717" lon="34.80287">
        <ele>1334.035436</ele>
        <time>2021-11-15T13:09:11.905Z</time>
      </trkpt>
      <trkpt lat="38.62698" lon="34.80267">
        <ele>1333.453289</ele>
        <time>2021-11-15T13:09:16.033Z</time>
      </trkpt>
      <trkpt lat="38.62684" lon="34.80247">
        <ele>1332.940674</ele>
        <time>2021-11-15T13:09:19.676Z</time>
      </trkpt>
      <trkpt lat="38.626" lon="34.80128">
        <ele>1330.264594</ele>
        <time>2021-11-15T13:09:41.231Z</time>
      </trkpt>
      <trkpt lat="38.62589" lon="34.80111">
        <ele>1330.08358</ele>
        <time>2021-11-15T13:09:44.384Z</time>
      </trkpt>
      <trkpt lat="38.62585" lon="34.80105">
        <ele>1330.021341</ele>
        <time>2021-11-15T13:09:45.512Z</time>
      </trkpt>
      <trkpt lat="38.6255" lon="34.80068">
        <ele>1329.552389</ele>
        <time>2021-11-15T13:09:54.062Z</time>
      </trkpt>
      <trkpt lat="38.6251" lon="34.80025">
        <ele>1329.012827</ele>
        <time>2021-11-15T13:10:04.309Z</time>
      </trkpt>
      <trkpt lat="38.62475" lon="34.79982">
        <ele>1328.752073</ele>
        <time>2021-11-15T13:10:14.684Z</time>
      </trkpt>
      <trkpt lat="38.62429" lon="34.79925">
        <ele>1329.447942</ele>
        <time>2021-11-15T13:10:30.651Z</time>
      </trkpt>
      <trkpt lat="38.62419" lon="34.79912">
        <ele>1329.606397</ele>
        <time>2021-11-15T13:10:34.547Z</time>
      </trkpt>
      <trkpt lat="38.62387" lon="34.79873">
        <ele>1330.089225</ele>
        <time>2021-11-15T13:10:46.969Z</time>
      </trkpt>
      <trkpt lat="38.62364" lon="34.79845">
        <ele>1330.426361</ele>
        <time>2021-11-15T13:10:56.017Z</time>
      </trkpt>
      <trkpt lat="38.62352" lon="34.79824">
        <ele>1330.743782</ele>
        <time>2021-11-15T13:11:02.307Z</time>
      </trkpt>
      <trkpt lat="38.62304" lon="34.7973">
        <ele>1333.089495</ele>
        <time>2021-11-15T13:11:29.951Z</time>
      </trkpt>
      <trkpt lat="38.62296" lon="34.79708">
        <ele>1333.609726</ele>
        <time>2021-11-15T13:11:37.091Z</time>
      </trkpt>
      <trkpt lat="38.62263" lon="34.79622">
        <ele>1335.586319</ele>
        <time>2021-11-15T13:12:02.861Z</time>
      </trkpt>
      <trkpt lat="38.6224" lon="34.7956">
        <ele>1336.825087</ele>
        <time>2021-11-15T13:12:22.029Z</time>
      </trkpt>
      <trkpt lat="38.62237" lon="34.79554">
        <ele>1336.940988</ele>
        <time>2021-11-15T13:12:24.391Z</time>
      </trkpt>
      <trkpt lat="38.62182" lon="34.79449">
        <ele>1339.219512</ele>
        <time>2021-11-15T13:12:54.907Z</time>
      </trkpt>
      <trkpt lat="38.62166" lon="34.79425">
        <ele>1339.46201</ele>
        <time>2021-11-15T13:13:01.859Z</time>
      </trkpt>
      <trkpt lat="38.62155" lon="34.79413">
        <ele>1339.340576</ele>
        <time>2021-11-15T13:13:05.109Z</time>
      </trkpt>
      <trkpt lat="38.62031" lon="34.79272">
        <ele>1337.784899</ele>
        <time>2021-11-15T13:13:36.029Z</time>
      </trkpt>
      <trkpt lat="38.61969" lon="34.79202">
        <ele>1335.796639</ele>
        <time>2021-11-15T13:13:50.186Z</time>
      </trkpt>
      <trkpt lat="38.61819" lon="34.79039">
        <ele>1330.392248</ele>
        <time>2021-11-15T13:14:23.049Z</time>
      </trkpt>
      <trkpt lat="38.61754" lon="34.78909">
        <ele>1326.723859</ele>
        <time>2021-11-15T13:14:42.514Z</time>
      </trkpt>
      <trkpt lat="38.61732" lon="34.78886">
        <ele>1325.869434</ele>
        <time>2021-11-15T13:14:47.083Z</time>
      </trkpt>
      <trkpt lat="38.61707" lon="34.7887">
        <ele>1325.033067</ele>
        <time>2021-11-15T13:14:51.558Z</time>
      </trkpt>
      <trkpt lat="38.61676" lon="34.78849">
        <ele>1323.953902</ele>
        <time>2021-11-15T13:14:57.420Z</time>
      </trkpt>
      <trkpt lat="38.61622" lon="34.7881">
        <ele>1322.308026</ele>
        <time>2021-11-15T13:15:08.091Z</time>
      </trkpt>
      <trkpt lat="38.61497" lon="34.78661">
        <ele>1318.87723</ele>
        <time>2021-11-15T13:15:38.333Z</time>
      </trkpt>
      <trkpt lat="38.6145" lon="34.7861">
        <ele>1317.777445</ele>
        <time>2021-11-15T13:15:49.061Z</time>
      </trkpt>
      <trkpt lat="38.61396" lon="34.78562">
        <ele>1316.581502</ele>
        <time>2021-11-15T13:16:00.941Z</time>
      </trkpt>
      <trkpt lat="38.61352" lon="34.78531">
        <ele>1315.814553</ele>
        <time>2021-11-15T13:16:09.932Z</time>
      </trkpt>
      <trkpt lat="38.61202" lon="34.78457">
        <ele>1314.416071</ele>
        <time>2021-11-15T13:16:41.000Z</time>
      </trkpt>
      <trkpt lat="38.61175" lon="34.78441">
        <ele>1314.787955</ele>
        <time>2021-11-15T13:16:47.964Z</time>
      </trkpt>
      <trkpt lat="38.61114" lon="34.78404">
        <ele>1315.973374</ele>
        <time>2021-11-15T13:17:05.702Z</time>
      </trkpt>
      <trkpt lat="38.60683" lon="34.78175">
        <ele>1329.464535</ele>
        <time>2021-11-15T13:19:47.340Z</time>
      </trkpt>
      <trkpt lat="38.60573" lon="34.78108">
        <ele>1334.136535</ele>
        <time>2021-11-15T13:20:33.623Z</time>
      </trkpt>
      <trkpt lat="38.60377" lon="34.77969">
        <ele>1343.298187</ele>
        <time>2021-11-15T13:22:00.725Z</time>
      </trkpt>
      <trkpt lat="38.60202" lon="34.77898">
        <ele>1351.060562</ele>
        <time>2021-11-15T13:23:11.820Z</time>
      </trkpt>
      <trkpt lat="38.60034" lon="34.77822">
        <ele>1359.59783</ele>
        <time>2021-11-15T13:24:25.125Z</time>
      </trkpt>
      <trkpt lat="38.59786" lon="34.77684">
        <ele>1375.832464</ele>
        <time>2021-11-15T13:26:29.536Z</time>
      </trkpt>
      <trkpt lat="38.59741" lon="34.77659">
        <ele>1379.0078</ele>
        <time>2021-11-15T13:26:54.285Z</time>
      </trkpt>
      <trkpt lat="38.59636" lon="34.77598">
        <ele>1385.580815</ele>
        <time>2021-11-15T13:27:53.011Z</time>
      </trkpt>
      <trkpt lat="38.59547" lon="34.77546">
        <ele>1390.79559</ele>
        <time>2021-11-15T13:28:33.058Z</time>
      </trkpt>
      <trkpt lat="38.59518" lon="34.77537">
        <ele>1390.755942</ele>
        <time>2021-11-15T13:28:42.817Z</time>
      </trkpt>
      <trkpt lat="38.59505" lon="34.77537">
        <ele>1390.729022</ele>
        <time>2021-11-15T13:28:46.154Z</time>
      </trkpt>
      <trkpt lat="38.59336" lon="34.77527">
        <ele>1390.051779</ele>
        <time>2021-11-15T13:29:17.299Z</time>
      </trkpt>
      <trkpt lat="38.59288" lon="34.77517">
        <ele>1389.452164</ele>
        <time>2021-11-15T13:29:25.586Z</time>
      </trkpt>
      <trkpt lat="38.59237" lon="34.775">
        <ele>1388.81617</ele>
        <time>2021-11-15T13:29:35.157Z</time>
      </trkpt>
      <trkpt lat="38.59228" lon="34.77495">
        <ele>1388.69583</ele>
        <time>2021-11-15T13:29:36.861Z</time>
      </trkpt>
      <trkpt lat="38.59095" lon="34.77429">
        <ele>1390.295121</ele>
        <time>2021-11-15T13:30:12.884Z</time>
      </trkpt>
      <trkpt lat="38.58924" lon="34.77345">
        <ele>1396.610346</ele>
        <time>2021-11-15T13:31:22.194Z</time>
      </trkpt>
      <trkpt lat="38.58833" lon="34.773">
        <ele>1401.184069</ele>
        <time>2021-11-15T13:32:04.491Z</time>
      </trkpt>
      <trkpt lat="38.58608" lon="34.77211">
        <ele>1413.357001</ele>
        <time>2021-11-15T13:33:48.929Z</time>
      </trkpt>
      <trkpt lat="38.58254" lon="34.77112">
        <ele>1427.794112</ele>
        <time>2021-11-15T13:36:05.103Z</time>
      </trkpt>
      <trkpt lat="38.58134" lon="34.77064">
        <ele>1431.992321</ele>
        <time>2021-11-15T13:36:50.474Z</time>
      </trkpt>
      <trkpt lat="38.57921" lon="34.76923">
        <ele>1436.307604</ele>
        <time>2021-11-15T13:38:06.165Z</time>
      </trkpt>
      <trkpt lat="38.57826" lon="34.76875">
        <ele>1436.33477</ele>
        <time>2021-11-15T13:38:26.177Z</time>
      </trkpt>
      <trkpt lat="38.57738" lon="34.76846">
        <ele>1433.202306</ele>
        <time>2021-11-15T13:38:40.896Z</time>
      </trkpt>
      <trkpt lat="38.57627" lon="34.76835">
        <ele>1428.929028</ele>
        <time>2021-11-15T13:38:58.083Z</time>
      </trkpt>
      <trkpt lat="38.57096" lon="34.76833">
        <ele>1405.250233</ele>
        <time>2021-11-15T13:40:19.451Z</time>
      </trkpt>
      <trkpt lat="38.56927" lon="34.76794">
        <ele>1399.391583</ele>
        <time>2021-11-15T13:40:47.487Z</time>
      </trkpt>
      <trkpt lat="38.56506" lon="34.76512">
        <ele>1384.241921</ele>
        <time>2021-11-15T13:42:05.156Z</time>
      </trkpt>
      <trkpt lat="38.56162" lon="34.76374">
        <ele>1372.850814</ele>
        <time>2021-11-15T13:43:03.552Z</time>
      </trkpt>
      <trkpt lat="38.56044" lon="34.76329">
        <ele>1370.437628</ele>
        <time>2021-11-15T13:43:25.463Z</time>
      </trkpt>
      <trkpt lat="38.55982" lon="34.76305">
        <ele>1369.517692</ele>
        <time>2021-11-15T13:43:37.765Z</time>
      </trkpt>
      <trkpt lat="38.5595" lon="34.76293">
        <ele>1369.043414</ele>
        <time>2021-11-15T13:43:44.249Z</time>
      </trkpt>
      <trkpt lat="38.55931" lon="34.76286">
        <ele>1368.844164</ele>
        <time>2021-11-15T13:43:48.123Z</time>
      </trkpt>
      <trkpt lat="38.55818" lon="34.76251">
        <ele>1367.798794</ele>
        <time>2021-11-15T13:44:11.201Z</time>
      </trkpt>
      <trkpt lat="38.55764" lon="34.76253">
        <ele>1367.298673</ele>
        <time>2021-11-15T13:44:21.325Z</time>
      </trkpt>
      <trkpt lat="38.55647" lon="34.76278">
        <ele>1365.889854</ele>
        <time>2021-11-15T13:44:44.270Z</time>
      </trkpt>
      <trkpt lat="38.55536" lon="34.76298">
        <ele>1364.175687</ele>
        <time>2021-11-15T13:45:04.856Z</time>
      </trkpt>
      <trkpt lat="38.55469" lon="34.76306">
        <ele>1362.918819</ele>
        <time>2021-11-15T13:45:16.802Z</time>
      </trkpt>
      <trkpt lat="38.55418" lon="34.76301">
        <ele>1361.958803</ele>
        <time>2021-11-15T13:45:25.777Z</time>
      </trkpt>
      <trkpt lat="38.55387" lon="34.76305">
        <ele>1361.416396</ele>
        <time>2021-11-15T13:45:31.044Z</time>
      </trkpt>
      <trkpt lat="38.55339" lon="34.76323">
        <ele>1360.512948</ele>
        <time>2021-11-15T13:45:39.773Z</time>
      </trkpt>
      <trkpt lat="38.5514" lon="34.76488">
        <ele>1356.92444</ele>
        <time>2021-11-15T13:46:23.359Z</time>
      </trkpt>
      <trkpt lat="38.551" lon="34.76513">
        <ele>1356.336068</ele>
        <time>2021-11-15T13:46:32.254Z</time>
      </trkpt>
      <trkpt lat="38.5509" lon="34.76516">
        <ele>1356.256086</ele>
        <time>2021-11-15T13:46:34.185Z</time>
      </trkpt>
      <trkpt lat="38.55074" lon="34.7652">
        <ele>1356.127648</ele>
        <time>2021-11-15T13:46:37.382Z</time>
      </trkpt>
      <trkpt lat="38.54994" lon="34.76498">
        <ele>1355.480367</ele>
        <time>2021-11-15T13:46:53.157Z</time>
      </trkpt>
      <trkpt lat="38.54964" lon="34.7648">
        <ele>1355.217976</ele>
        <time>2021-11-15T13:46:59.827Z</time>
      </trkpt>
      <trkpt lat="38.54955" lon="34.76475">
        <ele>1355.142892</ele>
        <time>2021-11-15T13:47:01.665Z</time>
      </trkpt>
      <trkpt lat="38.54983" lon="34.76417">
        <ele>1354.996073</ele>
        <time>2021-11-15T13:47:12.549Z</time>
      </trkpt>
      <trkpt lat="38.54992" lon="34.76388">
        <ele>1355.084421</ele>
        <time>2021-11-15T13:47:17.785Z</time>
      </trkpt>
      <trkpt lat="38.5499" lon="34.7634">
        <ele>1355.219126</ele>
        <time>2021-11-15T13:47:26.055Z</time>
      </trkpt>
      <trkpt lat="38.54979" lon="34.76288">
        <ele>1355.369357</ele>
        <time>2021-11-15T13:47:35.818Z</time>
      </trkpt>
      <trkpt lat="38.54919" lon="34.76164">
        <ele>1356.970275</ele>
        <time>2021-11-15T13:48:07.859Z</time>
      </trkpt>
      <trkpt lat="38.54761" lon="34.75944">
        <ele>1363.023458</ele>
        <time>2021-11-15T13:49:25.668Z</time>
      </trkpt>
      <trkpt lat="38.54631" lon="34.7578">
        <ele>1368.253543</ele>
        <time>2021-11-15T13:50:28.911Z</time>
      </trkpt>
      <trkpt lat="38.54482" lon="34.75563">
        <ele>1373.753194</ele>
        <time>2021-11-15T13:51:41.464Z</time>
      </trkpt>
      <trkpt lat="38.54391" lon="34.75368">
        <ele>1375.733903</ele>
        <time>2021-11-15T13:52:29.711Z</time>
      </trkpt>
      <trkpt lat="38.5432" lon="34.75197">
        <ele>1374.935208</ele>
        <time>2021-11-15T13:53:00.222Z</time>
      </trkpt>
      <trkpt lat="38.54308" lon="34.75169">
        <ele>1374.753136</ele>
        <time>2021-11-15T13:53:04.850Z</time>
      </trkpt>
      <trkpt lat="38.54291" lon="34.75154">
        <ele>1374.605535</ele>
        <time>2021-11-15T13:53:08.508Z</time>
      </trkpt>
      <trkpt lat="38.54277" lon="34.75159">
        <ele>1374.475168</ele>
        <time>2021-11-15T13:53:11.310Z</time>
      </trkpt>
      <trkpt lat="38.5419" lon="34.75188">
        <ele>1373.676138</ele>
        <time>2021-11-15T13:53:27.950Z</time>
      </trkpt>
      <trkpt lat="38.54129" lon="34.75219">
        <ele>1373.09403</ele>
        <time>2021-11-15T13:53:40.967Z</time>
      </trkpt>
      <trkpt lat="38.53862" lon="34.75388">
        <ele>1374.599093</ele>
        <time>2021-11-15T13:54:54.686Z</time>
      </trkpt>
      <trkpt lat="38.53781" lon="34.75421">
        <ele>1375.137395</ele>
        <time>2021-11-15T13:55:16.551Z</time>
      </trkpt>
      <trkpt lat="38.5367" lon="34.75447">
        <ele>1375.488515</ele>
        <time>2021-11-15T13:55:43.627Z</time>
      </trkpt>
      <trkpt lat="38.53265" lon="34.75419">
        <ele>1375.248573</ele>
        <time>2021-11-15T13:57:10.591Z</time>
      </trkpt>
      <trkpt lat="38.53128" lon="34.75392">
        <ele>1376.875149</ele>
        <time>2021-11-15T13:57:47.754Z</time>
      </trkpt>
      <trkpt lat="38.52793" lon="34.75283">
        <ele>1382.469941</ele>
        <time>2021-11-15T13:59:31.825Z</time>
      </trkpt>
      <trkpt lat="38.52403" lon="34.75284">
        <ele>1384.406466</ele>
        <time>2021-11-15T14:01:01.349Z</time>
      </trkpt>
      <trkpt lat="38.52127" lon="34.75223">
        <ele>1387.82553</ele>
        <time>2021-11-15T14:02:19.669Z</time>
      </trkpt>
      <trkpt lat="38.51763" lon="34.75072">
        <ele>1392.895262</ele>
        <time>2021-11-15T14:04:03.672Z</time>
      </trkpt>
      <trkpt lat="38.51475" lon="34.74986">
        <ele>1397.85001</ele>
        <time>2021-11-15T14:05:29.440Z</time>
      </trkpt>
      <trkpt lat="38.51404" lon="34.74978">
        <ele>1399.332755</ele>
        <time>2021-11-15T14:05:51.059Z</time>
      </trkpt>
      <trkpt lat="38.50941" lon="34.74999">
        <ele>1409.485212</ele>
        <time>2021-11-15T14:08:15.696Z</time>
      </trkpt>
      <trkpt lat="38.5087" lon="34.75012">
        <ele>1410.856503</ele>
        <time>2021-11-15T14:08:37.502Z</time>
      </trkpt>
      <trkpt lat="38.50821" lon="34.75029">
        <ele>1411.803409</ele>
        <time>2021-11-15T14:08:52.297Z</time>
      </trkpt>
      <trkpt lat="38.50497" lon="34.75233">
        <ele>1417.776684</ele>
        <time>2021-11-15T14:10:36.647Z</time>
      </trkpt>
      <trkpt lat="38.50441" lon="34.75261">
        <ele>1418.657884</ele>
        <time>2021-11-15T14:10:53.141Z</time>
      </trkpt>
      <trkpt lat="38.50409" lon="34.75267">
        <ele>1419.104028</ele>
        <time>2021-11-15T14:11:02.239Z</time>
      </trkpt>
      <trkpt lat="38.50343" lon="34.75266">
        <ele>1419.979047</ele>
        <time>2021-11-15T14:11:20.119Z</time>
      </trkpt>
      <trkpt lat="38.50266" lon="34.75277">
        <ele>1421.084589</ele>
        <time>2021-11-15T14:11:41.632Z</time>
      </trkpt>
      <trkpt lat="38.4971" lon="34.75413">
        <ele>1430.14759</ele>
        <time>2021-11-15T14:14:25.314Z</time>
      </trkpt>
      <trkpt lat="38.49638" lon="34.75423">
        <ele>1430.992813</ele>
        <time>2021-11-15T14:14:44.741Z</time>
      </trkpt>
      <trkpt lat="38.49595" lon="34.75423">
        <ele>1431.50611</ele>
        <time>2021-11-15T14:14:56.156Z</time>
      </trkpt>
      <trkpt lat="38.49079" lon="34.75309">
        <ele>1433.902484</ele>
        <time>2021-11-15T14:17:02.262Z</time>
      </trkpt>
      <trkpt lat="38.49004" lon="34.75305">
        <ele>1433.761765</ele>
        <time>2021-11-15T14:17:18.712Z</time>
      </trkpt>
      <trkpt lat="38.48747" lon="34.75313">
        <ele>1431.835764</ele>
        <time>2021-11-15T14:18:09.428Z</time>
      </trkpt>
      <trkpt lat="38.48736" lon="34.75314">
        <ele>1431.731455</ele>
        <time>2021-11-15T14:18:11.419Z</time>
      </trkpt>
      <trkpt lat="38.48671" lon="34.7531">
        <ele>1431.08003</ele>
        <time>2021-11-15T14:18:23.805Z</time>
      </trkpt>
      <trkpt lat="38.48622" lon="34.75308">
        <ele>1430.542254</ele>
        <time>2021-11-15T14:18:32.952Z</time>
      </trkpt>
      <trkpt lat="38.48438" lon="34.75285">
        <ele>1429.136903</ele>
        <time>2021-11-15T14:19:08.615Z</time>
      </trkpt>
      <trkpt lat="38.48385" lon="34.75288">
        <ele>1429.019487</ele>
        <time>2021-11-15T14:19:20.083Z</time>
      </trkpt>
      <trkpt lat="38.48018" lon="34.75337">
        <ele>1430.978534</ele>
        <time>2021-11-15T14:20:51.845Z</time>
      </trkpt>
      <trkpt lat="38.47947" lon="34.75329">
        <ele>1431.479934</ele>
        <time>2021-11-15T14:21:09.913Z</time>
      </trkpt>
      <trkpt lat="38.47903" lon="34.75325">
        <ele>1431.790884</ele>
        <time>2021-11-15T14:21:21.131Z</time>
      </trkpt>
      <trkpt lat="38.47628" lon="34.75259">
        <ele>1433.388423</ele>
        <time>2021-11-15T14:22:30.114Z</time>
      </trkpt>
      <trkpt lat="38.47455" lon="34.75228">
        <ele>1433.127572</ele>
        <time>2021-11-15T14:23:08.198Z</time>
      </trkpt>
      <trkpt lat="38.47388" lon="34.75224">
        <ele>1432.507312</ele>
        <time>2021-11-15T14:23:21.503Z</time>
      </trkpt>
      <trkpt lat="38.47219" lon="34.75221">
        <ele>1430.287427</ele>
        <time>2021-11-15T14:23:52.644Z</time>
      </trkpt>
      <trkpt lat="38.47148" lon="34.75219">
        <ele>1429.057021</ele>
        <time>2021-11-15T14:24:05.466Z</time>
      </trkpt>
      <trkpt lat="38.47074" lon="34.75216">
        <ele>1427.783938</ele>
        <time>2021-11-15T14:24:18.640Z</time>
      </trkpt>
      <trkpt lat="38.47068" lon="34.75216">
        <ele>1427.690529</ele>
        <time>2021-11-15T14:24:19.697Z</time>
      </trkpt>
      <trkpt lat="38.46997" lon="34.75208">
        <ele>1426.584092</ele>
        <time>2021-11-15T14:24:32.351Z</time>
      </trkpt>
      <trkpt lat="38.46907" lon="34.75193">
        <ele>1425.173366</ele>
        <time>2021-11-15T14:24:49.160Z</time>
      </trkpt>
      <trkpt lat="38.46543" lon="34.75134">
        <ele>1420.969737</ele>
        <time>2021-11-15T14:25:59.114Z</time>
      </trkpt>
      <trkpt lat="38.46352" lon="34.75107">
        <ele>1418.695011</ele>
        <time>2021-11-15T14:26:35.274Z</time>
      </trkpt>
      <trkpt lat="38.4634" lon="34.75105">
        <ele>1418.616343</ele>
        <time>2021-11-15T14:26:37.397Z</time>
      </trkpt>
      <trkpt lat="38.46247" lon="34.75086">
        <ele>1417.975701</ele>
        <time>2021-11-15T14:26:55.719Z</time>
      </trkpt>
      <trkpt lat="38.46201" lon="34.75075">
        <ele>1417.651769</ele>
        <time>2021-11-15T14:27:05.282Z</time>
      </trkpt>
      <trkpt lat="38.46199" lon="34.75082">
        <ele>1417.612261</ele>
        <time>2021-11-15T14:27:06.805Z</time>
      </trkpt>
      <trkpt lat="38.46195" lon="34.75109">
        <ele>1417.639625</ele>
        <time>2021-11-15T14:27:12.129Z</time>
      </trkpt>
      <trkpt lat="38.46184" lon="34.75109">
        <ele>1417.713029</ele>
        <time>2021-11-15T14:27:14.474Z</time>
      </trkpt>
      <trkpt lat="38.46185" lon="34.75101">
        <ele>1417.757303</ele>
        <time>2021-11-15T14:27:16.320Z</time>
      </trkpt>
      <trkpt lat="38.46162" lon="34.75088">
        <ele>1417.933031</ele>
        <time>2021-11-15T14:27:23.143Z</time>
      </trkpt>
      <trkpt lat="38.46142" lon="34.75125">
        <ele>1418.172738</ele>
        <time>2021-11-15T14:27:32.603Z</time>
      </trkpt>
      <trkpt lat="38.4612" lon="34.75165">
        <ele>1418.43205</ele>
        <time>2021-11-15T14:27:42.538Z</time>
      </trkpt>
      <trkpt lat="38.46108" lon="34.75184">
        <ele>1418.562392</ele>
        <time>2021-11-15T14:27:47.841Z</time>
      </trkpt>
      <trkpt lat="38.46086" lon="34.75205">
        <ele>1418.748748</ele>
        <time>2021-11-15T14:27:54.054Z</time>
      </trkpt>
      <trkpt lat="38.46082" lon="34.75215">
        <ele>1418.79428</ele>
        <time>2021-11-15T14:27:57.178Z</time>
      </trkpt>
      <trkpt lat="38.46075" lon="34.7521">
        <ele>1418.823579</ele>
        <time>2021-11-15T14:27:58.741Z</time>
      </trkpt>
      <trkpt lat="38.46067" lon="34.75203">
        <ele>1418.862207</ele>
        <time>2021-11-15T14:28:00.791Z</time>
      </trkpt>
      <trkpt lat="38.46056" lon="34.75193">
        <ele>1418.915284</ele>
        <time>2021-11-15T14:28:06.045Z</time>
      </trkpt>
      <trkpt lat="38.4602" lon="34.75182">
        <ele>1419.055679</ele>
        <time>2021-11-15T14:28:17.100Z</time>
      </trkpt>
      <trkpt lat="38.46007" lon="34.75178">
        <ele>1419.107924</ele>
        <time>2021-11-15T14:28:20.632Z</time>
      </trkpt>
      <trkpt lat="38.46002" lon="34.7515">
        <ele>1419.195718</ele>
        <time>2021-11-15T14:28:26.917Z</time>
      </trkpt>
      <trkpt lat="38.45997" lon="34.75123">
        <ele>1419.281082</ele>
        <time>2021-11-15T14:28:31.610Z</time>
      </trkpt>
      <trkpt lat="38.45991" lon="34.75142">
        <ele>1419.343584</ele>
        <time>2021-11-15T14:28:36.420Z</time>
      </trkpt>
      <trkpt lat="38.45986" lon="34.75162">
        <ele>1419.406856</ele>
        <time>2021-11-15T14:28:39.266Z</time>
      </trkpt>
      <trkpt lat="38.4598" lon="34.75195">
        <ele>1419.321056</ele>
        <time>2021-11-15T14:28:44.904Z</time>
      </trkpt>
      <trkpt lat="38.45976" lon="34.752">
        <ele>1419.238755</ele>
        <time>2021-11-15T14:28:45.753Z</time>
      </trkpt>
      <trkpt lat="38.45973" lon="34.75202">
        <ele>1419.176314</ele>
        <time>2021-11-15T14:28:46.416Z</time>
      </trkpt>
      <trkpt lat="38.45965" lon="34.75203">
        <ele>1419.055445</ele>
        <time>2021-11-15T14:28:48.058Z</time>
      </trkpt>
      <trkpt lat="38.45934" lon="34.752">
        <ele>1418.552451</ele>
        <time>2021-11-15T14:28:53.781Z</time>
      </trkpt>
      <trkpt lat="38.4591" lon="34.75197">
        <ele>1418.1662</ele>
        <time>2021-11-15T14:28:58.581Z</time>
      </trkpt>
      <trkpt lat="38.45882" lon="34.75182">
        <ele>1417.672226</ele>
        <time>2021-11-15T14:29:04.888Z</time>
      </trkpt>
      <trkpt lat="38.45873" lon="34.75172">
        <ele>1417.486454</ele>
        <time>2021-11-15T14:29:06.858Z</time>
      </trkpt>
      <trkpt lat="38.45866" lon="34.75166">
        <ele>1417.347131</ele>
        <time>2021-11-15T14:29:08.679Z</time>
      </trkpt>
      <trkpt lat="38.45869" lon="34.75125">
        <ele>1416.831049</ele>
        <time>2021-11-15T14:29:14.589Z</time>
      </trkpt>
      <trkpt lat="38.4587" lon="34.75117">
        <ele>1416.729734</ele>
        <time>2021-11-15T14:29:15.815Z</time>
      </trkpt>
      <trkpt lat="38.45874" lon="34.75038">
        <ele>1415.816765</ele>
        <time>2021-11-15T14:29:26.717Z</time>
      </trkpt>
      <trkpt lat="38.45874" lon="34.75031">
        <ele>1415.738813</ele>
        <time>2021-11-15T14:29:27.759Z</time>
      </trkpt>
      <trkpt lat="38.45789" lon="34.7503">
        <ele>1414.495191</ele>
        <time>2021-11-15T14:29:43.743Z</time>
      </trkpt>
      <trkpt lat="38.45769" lon="34.7503">
        <ele>1414.217231</ele>
        <time>2021-11-15T14:29:47.566Z</time>
      </trkpt>
      <trkpt lat="38.45693" lon="34.75029">
        <ele>1413.97388</ele>
        <time>2021-11-15T14:30:04.092Z</time>
      </trkpt>
      <trkpt lat="38.45589" lon="34.7503">
        <ele>1413.965068</ele>
        <time>2021-11-15T14:30:27.918Z</time>
      </trkpt>
      <trkpt lat="38.45547" lon="34.7503">
        <ele>1414.027276</ele>
        <time>2021-11-15T14:30:37.749Z</time>
      </trkpt>
      <trkpt lat="38.45526" lon="34.75024">
        <ele>1414.078842</ele>
        <time>2021-11-15T14:30:42.757Z</time>
      </trkpt>
      <trkpt lat="38.45514" lon="34.75019">
        <ele>1414.108325</ele>
        <time>2021-11-15T14:30:45.701Z</time>
      </trkpt>
      <trkpt lat="38.45507" lon="34.75016">
        <ele>1414.124837</ele>
        <time>2021-11-15T14:30:47.340Z</time>
      </trkpt>
      <trkpt lat="38.45299" lon="34.74889">
        <ele>1414.463039</ele>
        <time>2021-11-15T14:31:40.350Z</time>
      </trkpt>
      <trkpt lat="38.45188" lon="34.74839">
        <ele>1414.575142</ele>
        <time>2021-11-15T14:32:05.879Z</time>
      </trkpt>
      <trkpt lat="38.44321" lon="34.74458">
        <ele>1415.816477</ele>
        <time>2021-11-15T14:35:35.850Z</time>
      </trkpt>
      <trkpt lat="38.43578" lon="34.74164">
        <ele>1416.645874</ele>
        <time>2021-11-15T14:38:30.115Z</time>
      </trkpt>
      <trkpt lat="38.4319" lon="34.74024">
        <ele>1420.902814</ele>
        <time>2021-11-15T14:40:18.629Z</time>
      </trkpt>
      <trkpt lat="38.42802" lon="34.73872">
        <ele>1423.017829</ele>
        <time>2021-11-15T14:42:01.836Z</time>
      </trkpt>
      <trkpt lat="38.41853" lon="34.73611">
        <ele>1406.198861</ele>
        <time>2021-11-15T14:44:55.508Z</time>
      </trkpt>
      <trkpt lat="38.41765" lon="34.73593">
        <ele>1404.056063</ele>
        <time>2021-11-15T14:45:10.016Z</time>
      </trkpt>
      <trkpt lat="38.41616" lon="34.73594">
        <ele>1400.123912</ele>
        <time>2021-11-15T14:45:34.709Z</time>
      </trkpt>
      <trkpt lat="38.40073" lon="34.73764">
        <ele>1391.378431</ele>
        <time>2021-11-15T14:50:52.572Z</time>
      </trkpt>
      <trkpt lat="38.39968" lon="34.73771">
        <ele>1390.293915</ele>
        <time>2021-11-15T14:51:12.485Z</time>
      </trkpt>
      <trkpt lat="38.39764" lon="34.73762">
        <ele>1386.689645</ele>
        <time>2021-11-15T14:51:49.087Z</time>
      </trkpt>
      <trkpt lat="38.39656" lon="34.7375">
        <ele>1384.366104</ele>
        <time>2021-11-15T14:52:07.932Z</time>
      </trkpt>
      <trkpt lat="38.39509" lon="34.73723">
        <ele>1380.741496</ele>
        <time>2021-11-15T14:52:32.937Z</time>
      </trkpt>
      <trkpt lat="38.39459" lon="34.73713">
        <ele>1379.468335</ele>
        <time>2021-11-15T14:52:41.579Z</time>
      </trkpt>
      <trkpt lat="38.39375" lon="34.73702">
        <ele>1377.604831</ele>
        <time>2021-11-15T14:52:56.158Z</time>
      </trkpt>
      <trkpt lat="38.39331" lon="34.73697">
        <ele>1376.640863</ele>
        <time>2021-11-15T14:53:03.734Z</time>
      </trkpt>
      <trkpt lat="38.38775" lon="34.73604">
        <ele>1365.481179</ele>
        <time>2021-11-15T14:54:42.702Z</time>
      </trkpt>
      <trkpt lat="38.38779" lon="34.73549">
        <ele>1364.644789</ele>
        <time>2021-11-15T14:54:50.673Z</time>
      </trkpt>
      <trkpt lat="38.38722" lon="34.73549">
        <ele>1363.574862</ele>
        <time>2021-11-15T14:55:01.248Z</time>
      </trkpt>
      <trkpt lat="38.38644" lon="34.73546">
        <ele>1362.119948</ele>
        <time>2021-11-15T14:55:15.826Z</time>
      </trkpt>
      <trkpt lat="38.38545" lon="34.73545">
        <ele>1360.536172</ele>
        <time>2021-11-15T14:55:34.372Z</time>
      </trkpt>
      <trkpt lat="38.38489" lon="34.73551">
        <ele>1359.708496</ele>
        <time>2021-11-15T14:55:45.272Z</time>
      </trkpt>
      <trkpt lat="38.38464" lon="34.73552">
        <ele>1359.345178</ele>
        <time>2021-11-15T14:55:50.123Z</time>
      </trkpt>
      <trkpt lat="38.38354" lon="34.73537">
        <ele>1358.145261</ele>
        <time>2021-11-15T14:56:11.334Z</time>
      </trkpt>
      <trkpt lat="38.38235" lon="34.73515">
        <ele>1357.161033</ele>
        <time>2021-11-15T14:56:35.064Z</time>
      </trkpt>
      <trkpt lat="38.38165" lon="34.7351">
        <ele>1356.96031</ele>
        <time>2021-11-15T14:56:49.614Z</time>
      </trkpt>
      <trkpt lat="38.38088" lon="34.73502">
        <ele>1356.738499</ele>
        <time>2021-11-15T14:57:06.545Z</time>
      </trkpt>
      <trkpt lat="38.3807" lon="34.73499">
        <ele>1356.707991</ele>
        <time>2021-11-15T14:57:10.704Z</time>
      </trkpt>
      <trkpt lat="38.37995" lon="34.73483">
        <ele>1356.837926</ele>
        <time>2021-11-15T14:57:28.044Z</time>
      </trkpt>
      <trkpt lat="38.37985" lon="34.73479">
        <ele>1356.855612</ele>
        <time>2021-11-15T14:57:30.463Z</time>
      </trkpt>
      <trkpt lat="38.3791" lon="34.7345">
        <ele>1356.990495</ele>
        <time>2021-11-15T14:57:48.938Z</time>
      </trkpt>
      <trkpt lat="38.37811" lon="34.73403">
        <ele>1356.920728</ele>
        <time>2021-11-15T14:58:13.109Z</time>
      </trkpt>
      <trkpt lat="38.37759" lon="34.7338">
        <ele>1356.870716</ele>
        <time>2021-11-15T14:58:24.949Z</time>
      </trkpt>
      <trkpt lat="38.37744" lon="34.73367">
        <ele>1356.854339</ele>
        <time>2021-11-15T14:58:28.556Z</time>
      </trkpt>
      <trkpt lat="38.37729" lon="34.73353">
        <ele>1356.760107</ele>
        <time>2021-11-15T14:58:32.484Z</time>
      </trkpt>
      <trkpt lat="38.37707" lon="34.73341">
        <ele>1356.502399</ele>
        <time>2021-11-15T14:58:37.116Z</time>
      </trkpt>
      <trkpt lat="38.37699" lon="34.73341">
        <ele>1356.41526</ele>
        <time>2021-11-15T14:58:38.733Z</time>
      </trkpt>
      <trkpt lat="38.37681" lon="34.73341">
        <ele>1356.220293</ele>
        <time>2021-11-15T14:58:42.218Z</time>
      </trkpt>
      <trkpt lat="38.37661" lon="34.73341">
        <ele>1355.998092</ele>
        <time>2021-11-15T14:58:46.124Z</time>
      </trkpt>
      <trkpt lat="38.37621" lon="34.73345">
        <ele>1355.565489</ele>
        <time>2021-11-15T14:58:53.644Z</time>
      </trkpt>
      <trkpt lat="38.37611" lon="34.73346">
        <ele>1355.456235</ele>
        <time>2021-11-15T14:58:55.513Z</time>
      </trkpt>
      <trkpt lat="38.37606" lon="34.73347">
        <ele>1355.396111</ele>
        <time>2021-11-15T14:58:56.465Z</time>
      </trkpt>
      <trkpt lat="38.37582" lon="34.7335">
        <ele>1355.135942</ele>
        <time>2021-11-15T14:59:00.928Z</time>
      </trkpt>
      <trkpt lat="38.37555" lon="34.73349">
        <ele>1354.844494</ele>
        <time>2021-11-15T14:59:05.781Z</time>
      </trkpt>
      <trkpt lat="38.37551" lon="34.73349">
        <ele>1354.796039</ele>
        <time>2021-11-15T14:59:06.596Z</time>
      </trkpt>
      <trkpt lat="38.37545" lon="34.73348">
        <ele>1354.72781</ele>
        <time>2021-11-15T14:59:07.766Z</time>
      </trkpt>
      <trkpt lat="38.37505" lon="34.73346">
        <ele>1354.29416</ele>
        <time>2021-11-15T14:59:15.085Z</time>
      </trkpt>
      <trkpt lat="38.37478" lon="34.73346">
        <ele>1353.998302</ele>
        <time>2021-11-15T14:59:20.162Z</time>
      </trkpt>
      <trkpt lat="38.37448" lon="34.73348">
        <ele>1353.665324</ele>
        <time>2021-11-15T14:59:25.842Z</time>
      </trkpt>
      <trkpt lat="38.37438" lon="34.73352">
        <ele>1353.547678</ele>
        <time>2021-11-15T14:59:27.932Z</time>
      </trkpt>
      <trkpt lat="38.37419" lon="34.73363">
        <ele>1353.320863</ele>
        <time>2021-11-15T14:59:31.860Z</time>
      </trkpt>
      <trkpt lat="38.37418" lon="34.73371">
        <ele>1353.245556</ele>
        <time>2021-11-15T14:59:33.233Z</time>
      </trkpt>
      <trkpt lat="38.37418" lon="34.73382">
        <ele>1353.157592</ele>
        <time>2021-11-15T14:59:34.879Z</time>
      </trkpt>
      <trkpt lat="38.37416" lon="34.73402">
        <ele>1352.976553</ele>
        <time>2021-11-15T14:59:38.346Z</time>
      </trkpt>
      <trkpt lat="38.37414" lon="34.73446">
        <ele>1352.816054</ele>
        <time>2021-11-15T14:59:45.797Z</time>
      </trkpt>
      <trkpt lat="38.37411" lon="34.73477">
        <ele>1352.737623</ele>
        <time>2021-11-15T14:59:51.128Z</time>
      </trkpt>
      <trkpt lat="38.37355" lon="34.73464">
        <ele>1352.552649</ele>
        <time>2021-11-15T15:00:30.855Z</time>
      </trkpt>
      <trkpt lat="38.37352" lon="34.73472">
        <ele>1352.531486</ele>
        <time>2021-11-15T15:00:35.448Z</time>
      </trkpt>
      <trkpt lat="38.37355" lon="34.73464">
        <ele>1352.510322</ele>
        <time>2021-11-15T15:00:40.042Z</time>
      </trkpt>
      <trkpt lat="38.37411" lon="34.73477">
        <ele>1352.32532</ele>
        <time>2021-11-15T15:01:19.769Z</time>
      </trkpt>
      <trkpt lat="38.37414" lon="34.73446">
        <ele>1352.179813</ele>
        <time>2021-11-15T15:01:25.019Z</time>
      </trkpt>
      <trkpt lat="38.37416" lon="34.73402">
        <ele>1351.972736</ele>
        <time>2021-11-15T15:01:32.384Z</time>
      </trkpt>
      <trkpt lat="38.37418" lon="34.73382">
        <ele>1351.873921</ele>
        <time>2021-11-15T15:01:35.860Z</time>
      </trkpt>
      <trkpt lat="38.37418" lon="34.73371">
        <ele>1351.825909</ele>
        <time>2021-11-15T15:01:37.536Z</time>
      </trkpt>
      <trkpt lat="38.37402" lon="34.73365">
        <ele>1351.728693</ele>
        <time>2021-11-15T15:01:40.892Z</time>
      </trkpt>
      <trkpt lat="38.37376" lon="34.73346">
        <ele>1351.547563</ele>
        <time>2021-11-15T15:01:47.244Z</time>
      </trkpt>
      <trkpt lat="38.37356" lon="34.7332">
        <ele>1351.374278</ele>
        <time>2021-11-15T15:01:53.216Z</time>
      </trkpt>
      <trkpt lat="38.37347" lon="34.73283">
        <ele>1351.177547</ele>
        <time>2021-11-15T15:01:59.324Z</time>
      </trkpt>
      <trkpt lat="38.3734" lon="34.73261">
        <ele>1351.029876</ele>
        <time>2021-11-15T15:02:03.147Z</time>
      </trkpt>
      <trkpt lat="38.37289" lon="34.73246">
        <ele>1350.614655</ele>
        <time>2021-11-15T15:02:13.803Z</time>
      </trkpt>
      <trkpt lat="38.37291" lon="34.73223">
        <ele>1350.472409</ele>
        <time>2021-11-15T15:02:17.545Z</time>
      </trkpt>
      <trkpt lat="38.373" lon="34.73207">
        <ele>1350.347877</ele>
        <time>2021-11-15T15:02:20.876Z</time>
      </trkpt>
      <trkpt lat="38.37308" lon="34.73192">
        <ele>1350.236877</ele>
        <time>2021-11-15T15:02:23.751Z</time>
      </trkpt>
      <trkpt lat="38.37309" lon="34.7317">
        <ele>1350.10421</ele>
        <time>2021-11-15T15:02:27.283Z</time>
      </trkpt>
      <trkpt lat="38.37304" lon="34.73122">
        <ele>1349.804398</ele>
        <time>2021-11-15T15:02:35.224Z</time>
      </trkpt>
      <trkpt lat="38.37302" lon="34.73081">
        <ele>1349.53838</ele>
        <time>2021-11-15T15:02:41.935Z</time>
      </trkpt>
      <trkpt lat="38.37309" lon="34.73043">
        <ele>1349.282176</ele>
        <time>2021-11-15T15:02:48.439Z</time>
      </trkpt>
      <trkpt lat="38.37318" lon="34.73038">
        <ele>1349.201231</ele>
        <time>2021-11-15T15:02:50.494Z</time>
      </trkpt>
      <trkpt lat="38.37298" lon="34.72985">
        <ele>1348.823451</ele>
        <time>2021-11-15T15:02:59.449Z</time>
      </trkpt>
      <trkpt lat="38.37278" lon="34.72939">
        <ele>1348.483015</ele>
        <time>2021-11-15T15:03:07.511Z</time>
      </trkpt>
      <trkpt lat="38.37256" lon="34.72889">
        <ele>1348.085142</ele>
        <time>2021-11-15T15:03:16.259Z</time>
      </trkpt>
      <trkpt lat="38.37239" lon="34.72831">
        <ele>1347.64266</ele>
        <time>2021-11-15T15:03:25.552Z</time>
      </trkpt>
      <trkpt lat="38.37221" lon="34.72748">
        <ele>1347.016078</ele>
        <time>2021-11-15T15:03:38.815Z</time>
      </trkpt>
      <trkpt lat="38.37194" lon="34.72576">
        <ele>1345.696348</ele>
        <time>2021-11-15T15:04:05.647Z</time>
      </trkpt>
      <trkpt lat="38.37187" lon="34.72535">
        <ele>1345.372679</ele>
        <time>2021-11-15T15:04:12.137Z</time>
      </trkpt>
      <trkpt lat="38.37168" lon="34.7241">
        <ele>1344.275564</ele>
        <time>2021-11-15T15:04:30.870Z</time>
      </trkpt>
      <trkpt lat="38.3716" lon="34.72338">
        <ele>1343.576707</ele>
        <time>2021-11-15T15:04:41.634Z</time>
      </trkpt>
      <trkpt lat="38.37158" lon="34.72321">
        <ele>1343.417335</ele>
        <time>2021-11-15T15:04:44.051Z</time>
      </trkpt>
      <trkpt lat="38.37154" lon="34.72246">
        <ele>1342.723535</ele>
        <time>2021-11-15T15:04:55.184Z</time>
      </trkpt>
      <trkpt lat="38.37152" lon="34.72221">
        <ele>1342.577272</ele>
        <time>2021-11-15T15:04:58.874Z</time>
      </trkpt>
      <trkpt lat="38.37144" lon="34.71439">
        <ele>1337.878058</ele>
        <time>2021-11-15T15:07:01.544Z</time>
      </trkpt>
      <trkpt lat="38.37147" lon="34.7139">
        <ele>1337.521459</ele>
        <time>2021-11-15T15:07:08.853Z</time>
      </trkpt>
      <trkpt lat="38.37172" lon="34.71216">
        <ele>1335.950045</ele>
        <time>2021-11-15T15:07:34.799Z</time>
      </trkpt>
      <trkpt lat="38.37175" lon="34.71162">
        <ele>1335.434753</ele>
        <time>2021-11-15T15:07:42.616Z</time>
      </trkpt>
      <trkpt lat="38.37165" lon="34.70903">
        <ele>1333.402526</ele>
        <time>2021-11-15T15:08:22.052Z</time>
      </trkpt>
      <trkpt lat="38.37158" lon="34.70784">
        <ele>1332.624382</ele>
        <time>2021-11-15T15:08:40.811Z</time>
      </trkpt>
      <trkpt lat="38.3715" lon="34.70722">
        <ele>1332.227418</ele>
        <time>2021-11-15T15:08:50.604Z</time>
      </trkpt>
      <trkpt lat="38.37136" lon="34.70645">
        <ele>1331.707085</ele>
        <time>2021-11-15T15:09:02.691Z</time>
      </trkpt>
      <trkpt lat="38.37121" lon="34.7059">
        <ele>1331.137098</ele>
        <time>2021-11-15T15:09:11.371Z</time>
      </trkpt>
      <trkpt lat="38.37048" lon="34.7039">
        <ele>1328.941547</ele>
        <time>2021-11-15T15:09:43.530Z</time>
      </trkpt>
      <trkpt lat="38.37001" lon="34.70238">
        <ele>1327.281235</ele>
        <time>2021-11-15T15:10:07.479Z</time>
      </trkpt>
      <trkpt lat="38.36924" lon="34.69912">
        <ele>1324.478534</ele>
        <time>2021-11-15T15:10:58.935Z</time>
      </trkpt>
      <trkpt lat="38.3691" lon="34.69849">
        <ele>1323.944652</ele>
        <time>2021-11-15T15:11:08.767Z</time>
      </trkpt>
      <trkpt lat="38.36885" lon="34.69525">
        <ele>1321.19412</ele>
        <time>2021-11-15T15:11:57.403Z</time>
      </trkpt>
      <trkpt lat="38.36871" lon="34.69428">
        <ele>1320.522933</ele>
        <time>2021-11-15T15:12:12.308Z</time>
      </trkpt>
      <trkpt lat="38.36614" lon="34.68486">
        <ele>1314.928435</ele>
        <time>2021-11-15T15:14:48.535Z</time>
      </trkpt>
      <trkpt lat="38.36422" lon="34.67611">
        <ele>1312.83863</ele>
        <time>2021-11-15T15:17:20.428Z</time>
      </trkpt>
      <trkpt lat="38.36409" lon="34.67548">
        <ele>1312.54396</ele>
        <time>2021-11-15T15:17:30.613Z</time>
      </trkpt>
      <trkpt lat="38.36388" lon="34.67456">
        <ele>1311.997577</ele>
        <time>2021-11-15T15:17:45.311Z</time>
      </trkpt>
      <trkpt lat="38.36204" lon="34.66619">
        <ele>1307.120153</ele>
        <time>2021-11-15T15:20:01.049Z</time>
      </trkpt>
      <trkpt lat="38.36153" lon="34.66433">
        <ele>1306.294339</ele>
        <time>2021-11-15T15:20:32.972Z</time>
      </trkpt>
      <trkpt lat="38.36131" lon="34.66358">
        <ele>1306.003391</ele>
        <time>2021-11-15T15:20:46.018Z</time>
      </trkpt>
      <trkpt lat="38.361" lon="34.66254">
        <ele>1305.601988</ele>
        <time>2021-11-15T15:21:04.064Z</time>
      </trkpt>
      <trkpt lat="38.36029" lon="34.66051">
        <ele>1304.855981</ele>
        <time>2021-11-15T15:21:40.012Z</time>
      </trkpt>
      <trkpt lat="38.36006" lon="34.65963">
        <ele>1304.742239</ele>
        <time>2021-11-15T15:21:55.407Z</time>
      </trkpt>
      <trkpt lat="38.35988" lon="34.659">
        <ele>1304.659731</ele>
        <time>2021-11-15T15:22:06.803Z</time>
      </trkpt>
      <trkpt lat="38.35948" lon="34.65728">
        <ele>1304.623776</ele>
        <time>2021-11-15T15:22:38.745Z</time>
      </trkpt>
      <trkpt lat="38.35931" lon="34.65649">
        <ele>1304.650906</ele>
        <time>2021-11-15T15:22:53.224Z</time>
      </trkpt>
      <trkpt lat="38.35925" lon="34.65621">
        <ele>1304.660426</ele>
        <time>2021-11-15T15:22:58.382Z</time>
      </trkpt>
      <trkpt lat="38.3591" lon="34.65536">
        <ele>1304.368626</ele>
        <time>2021-11-15T15:23:13.194Z</time>
      </trkpt>
      <trkpt lat="38.35866" lon="34.65302">
        <ele>1303.49665</ele>
        <time>2021-11-15T15:23:51.168Z</time>
      </trkpt>
      <trkpt lat="38.35827" lon="34.651">
        <ele>1302.951773</ele>
        <time>2021-11-15T15:24:24.848Z</time>
      </trkpt>
      <trkpt lat="38.35803" lon="34.64972">
        <ele>1302.918199</ele>
        <time>2021-11-15T15:24:48.470Z</time>
      </trkpt>
      <trkpt lat="38.35784" lon="34.64886">
        <ele>1302.980446</ele>
        <time>2021-11-15T15:25:05.045Z</time>
      </trkpt>
      <trkpt lat="38.35753" lon="34.6478">
        <ele>1303.093368</ele>
        <time>2021-11-15T15:25:25.522Z</time>
      </trkpt>
      <trkpt lat="38.35712" lon="34.64666">
        <ele>1302.896527</ele>
        <time>2021-11-15T15:25:46.446Z</time>
      </trkpt>
      <trkpt lat="38.35677" lon="34.64573">
        <ele>1302.569177</ele>
        <time>2021-11-15T15:26:03.206Z</time>
      </trkpt>
      <trkpt lat="38.35671" lon="34.64558">
        <ele>1302.518807</ele>
        <time>2021-11-15T15:26:05.755Z</time>
      </trkpt>
      <trkpt lat="38.35669" lon="34.64549">
        <ele>1302.489576</ele>
        <time>2021-11-15T15:26:07.236Z</time>
      </trkpt>
      <trkpt lat="38.35665" lon="34.64535">
        <ele>1302.440373</ele>
        <time>2021-11-15T15:26:09.761Z</time>
      </trkpt>
      <trkpt lat="38.35657" lon="34.64491">
        <ele>1302.306359</ele>
        <time>2021-11-15T15:26:16.912Z</time>
      </trkpt>
      <trkpt lat="38.3565" lon="34.64391">
        <ele>1302.005684</ele>
        <time>2021-11-15T15:26:33.163Z</time>
      </trkpt>
      <trkpt lat="38.35622" lon="34.64018">
        <ele>1301.102141</ele>
        <time>2021-11-15T15:27:35.898Z</time>
      </trkpt>
      <trkpt lat="38.35604" lon="34.63837">
        <ele>1300.472154</ele>
        <time>2021-11-15T15:28:05.426Z</time>
      </trkpt>
      <trkpt lat="38.35541" lon="34.63485">
        <ele>1299.026019</ele>
        <time>2021-11-15T15:29:02.700Z</time>
      </trkpt>
      <trkpt lat="38.35443" lon="34.63041">
        <ele>1298.512293</ele>
        <time>2021-11-15T15:30:21.892Z</time>
      </trkpt>
      <trkpt lat="38.35386" lon="34.62819">
        <ele>1298.274868</ele>
        <time>2021-11-15T15:31:02.246Z</time>
      </trkpt>
      <trkpt lat="38.3538" lon="34.62794">
        <ele>1298.240662</ele>
        <time>2021-11-15T15:31:06.768Z</time>
      </trkpt>
      <trkpt lat="38.35365" lon="34.6274">
        <ele>1298.166462</ele>
        <time>2021-11-15T15:31:16.211Z</time>
      </trkpt>
      <trkpt lat="38.35263" lon="34.62351">
        <ele>1297.027083</ele>
        <time>2021-11-15T15:32:23.350Z</time>
      </trkpt>
      <trkpt lat="38.35192" lon="34.62114">
        <ele>1296.807572</ele>
        <time>2021-11-15T15:33:07.022Z</time>
      </trkpt>
      <trkpt lat="38.34932" lon="34.61452">
        <ele>1296.584028</ele>
        <time>2021-11-15T15:35:15.292Z</time>
      </trkpt>
      <trkpt lat="38.3484" lon="34.61218">
        <ele>1296.603743</ele>
        <time>2021-11-15T15:36:00.240Z</time>
      </trkpt>
      <trkpt lat="38.34756" lon="34.61007">
        <ele>1297.168582</ele>
        <time>2021-11-15T15:36:44.555Z</time>
      </trkpt>
      <trkpt lat="38.34429" lon="34.60177">
        <ele>1299.850397</ele>
        <time>2021-11-15T15:39:37.643Z</time>
      </trkpt>
      <trkpt lat="38.34369" lon="34.59987">
        <ele>1300.32835</ele>
        <time>2021-11-15T15:40:15.043Z</time>
      </trkpt>
      <trkpt lat="38.34343" lon="34.5987">
        <ele>1300.620724</ele>
        <time>2021-11-15T15:40:37.365Z</time>
      </trkpt>
      <trkpt lat="38.34322" lon="34.5976">
        <ele>1300.952705</ele>
        <time>2021-11-15T15:40:58.231Z</time>
      </trkpt>
      <trkpt lat="38.34303" lon="34.59617">
        <ele>1301.452354</ele>
        <time>2021-11-15T15:41:25.752Z</time>
      </trkpt>
      <trkpt lat="38.34232" lon="34.58659">
        <ele>1305.804887</ele>
        <time>2021-11-15T15:44:31.453Z</time>
      </trkpt>
      <trkpt lat="38.34233" lon="34.58475">
        <ele>1306.242993</ele>
        <time>2021-11-15T15:45:04.930Z</time>
      </trkpt>
      <trkpt lat="38.34244" lon="34.58361">
        <ele>1306.603972</ele>
        <time>2021-11-15T15:45:25.559Z</time>
      </trkpt>
      <trkpt lat="38.34247" lon="34.58333">
        <ele>1306.700915</ele>
        <time>2021-11-15T15:45:30.894Z</time>
      </trkpt>
      <trkpt lat="38.34252" lon="34.58239">
        <ele>1307.018028</ele>
        <time>2021-11-15T15:45:48.877Z</time>
      </trkpt>
      <trkpt lat="38.3424" lon="34.5815">
        <ele>1307.694768</ele>
        <time>2021-11-15T15:46:06.909Z</time>
      </trkpt>
      <trkpt lat="38.34224" lon="34.58081">
        <ele>1308.313261</ele>
        <time>2021-11-15T15:46:22.230Z</time>
      </trkpt>
      <trkpt lat="38.34147" lon="34.57847">
        <ele>1310.55791</ele>
        <time>2021-11-15T15:47:16.681Z</time>
      </trkpt>
      <trkpt lat="38.34083" lon="34.57679">
        <ele>1312.265746</ele>
        <time>2021-11-15T15:47:54.602Z</time>
      </trkpt>
      <trkpt lat="38.34051" lon="34.57585">
        <ele>1313.205079</ele>
        <time>2021-11-15T15:48:16.155Z</time>
      </trkpt>
      <trkpt lat="38.33952" lon="34.57278">
        <ele>1318.576677</ele>
        <time>2021-11-15T15:49:36.631Z</time>
      </trkpt>
      <trkpt lat="38.33922" lon="34.57184">
        <ele>1320.271384</ele>
        <time>2021-11-15T15:50:01.514Z</time>
      </trkpt>
      <trkpt lat="38.33893" lon="34.57102">
        <ele>1321.421642</ele>
        <time>2021-11-15T15:50:22.438Z</time>
      </trkpt>
      <trkpt lat="38.33867" lon="34.5702">
        <ele>1322.417092</ele>
        <time>2021-11-15T15:50:41.809Z</time>
      </trkpt>
      <trkpt lat="38.33775" lon="34.56732">
        <ele>1325.128828</ele>
        <time>2021-11-15T15:51:45.744Z</time>
      </trkpt>
      <trkpt lat="38.33763" lon="34.56707">
        <ele>1325.395885</ele>
        <time>2021-11-15T15:51:52.184Z</time>
      </trkpt>
      <trkpt lat="38.33758" lon="34.56689">
        <ele>1325.564438</ele>
        <time>2021-11-15T15:51:55.982Z</time>
      </trkpt>
      <trkpt lat="38.33732" lon="34.56607">
        <ele>1326.335033</ele>
        <time>2021-11-15T15:52:14.203Z</time>
      </trkpt>
      <trkpt lat="38.3343" lon="34.55613">
        <ele>1336.188586</ele>
        <time>2021-11-15T15:55:59.391Z</time>
      </trkpt>
      <trkpt lat="38.33394" lon="34.55466">
        <ele>1337.805999</ele>
        <time>2021-11-15T15:56:32.795Z</time>
      </trkpt>
      <trkpt lat="38.33382" lon="34.55378">
        <ele>1338.918589</ele>
        <time>2021-11-15T15:56:53.061Z</time>
      </trkpt>
      <trkpt lat="38.33378" lon="34.55324">
        <ele>1339.61758</ele>
        <time>2021-11-15T15:57:05.548Z</time>
      </trkpt>
      <trkpt lat="38.33375" lon="34.55268">
        <ele>1340.337623</ele>
        <time>2021-11-15T15:57:18.487Z</time>
      </trkpt>
      <trkpt lat="38.33351" lon="34.53135">
        <ele>1365.852648</ele>
        <time>2021-11-15T16:05:12.572Z</time>
      </trkpt>
      <trkpt lat="38.33362" lon="34.5295">
        <ele>1367.872229</ele>
        <time>2021-11-15T16:05:52.954Z</time>
      </trkpt>
      <trkpt lat="38.33389" lon="34.52756">
        <ele>1369.901379</ele>
        <time>2021-11-15T16:06:35.519Z</time>
      </trkpt>
      <trkpt lat="38.33423" lon="34.52545">
        <ele>1371.93995</ele>
        <time>2021-11-15T16:07:21.634Z</time>
      </trkpt>
      <trkpt lat="38.33425" lon="34.52532">
        <ele>1372.061188</ele>
        <time>2021-11-15T16:07:24.421Z</time>
      </trkpt>
      <trkpt lat="38.335" lon="34.52063">
        <ele>1375.482647</ele>
        <time>2021-11-15T16:09:00.977Z</time>
      </trkpt>
      <trkpt lat="38.33536" lon="34.51835">
        <ele>1377.250473</ele>
        <time>2021-11-15T16:09:47.864Z</time>
      </trkpt>
      <trkpt lat="38.33539" lon="34.51818">
        <ele>1377.386909</ele>
        <time>2021-11-15T16:09:51.606Z</time>
      </trkpt>
      <trkpt lat="38.3357" lon="34.5163">
        <ele>1379.9478</ele>
        <time>2021-11-15T16:10:35.616Z</time>
      </trkpt>
      <trkpt lat="38.33577" lon="34.5159">
        <ele>1380.49983</ele>
        <time>2021-11-15T16:10:45.322Z</time>
      </trkpt>
      <trkpt lat="38.33609" lon="34.51426">
        <ele>1383.024708</ele>
        <time>2021-11-15T16:11:25.369Z</time>
      </trkpt>
      <trkpt lat="38.33676" lon="34.511">
        <ele>1387.803478</ele>
        <time>2021-11-15T16:12:42.947Z</time>
      </trkpt>
      <trkpt lat="38.33747" lon="34.5069">
        <ele>1393.791448</ele>
        <time>2021-11-15T16:14:19.847Z</time>
      </trkpt>
      <trkpt lat="38.33764" lon="34.50556">
        <ele>1396.165676</ele>
        <time>2021-11-15T16:14:52.693Z</time>
      </trkpt>
      <trkpt lat="38.33769" lon="34.50533">
        <ele>1396.575303</ele>
        <time>2021-11-15T16:14:58.631Z</time>
      </trkpt>
      <trkpt lat="38.33806" lon="34.50303">
        <ele>1400.909556</ele>
        <time>2021-11-15T16:15:57.504Z</time>
      </trkpt>
      <trkpt lat="38.33832" lon="34.50204">
        <ele>1402.804126</ele>
        <time>2021-11-15T16:16:23.679Z</time>
      </trkpt>
      <trkpt lat="38.33815" lon="34.50188">
        <ele>1403.254394</ele>
        <time>2021-11-15T16:16:30.342Z</time>
      </trkpt>
      <trkpt lat="38.33837" lon="34.50045">
        <ele>1405.731831</ele>
        <time>2021-11-15T16:17:06.561Z</time>
      </trkpt>
      <trkpt lat="38.33865" lon="34.49849">
        <ele>1408.23764</ele>
        <time>2021-11-15T16:17:53.067Z</time>
      </trkpt>
      <trkpt lat="38.33895" lon="34.49702">
        <ele>1409.773147</ele>
        <time>2021-11-15T16:18:26.340Z</time>
      </trkpt>
      <trkpt lat="38.33926" lon="34.49639">
        <ele>1410.469827</ele>
        <time>2021-11-15T16:18:42.666Z</time>
      </trkpt>
      <trkpt lat="38.3396" lon="34.49597">
        <ele>1411.008104</ele>
        <time>2021-11-15T16:18:55.653Z</time>
      </trkpt>
      <trkpt lat="38.34028" lon="34.49525">
        <ele>1411.856317</ele>
        <time>2021-11-15T16:19:19.701Z</time>
      </trkpt>
      <trkpt lat="38.34017" lon="34.49511">
        <ele>1411.997981</ele>
        <time>2021-11-15T16:19:23.730Z</time>
      </trkpt>
      <trkpt lat="38.34076" lon="34.49491">
        <ele>1412.585554</ele>
        <time>2021-11-15T16:19:40.325Z</time>
      </trkpt>
      <trkpt lat="38.34256" lon="34.49359">
        <ele>1413.159522</ele>
        <time>2021-11-15T16:20:30.911Z</time>
      </trkpt>
      <trkpt lat="38.34267" lon="34.49352">
        <ele>1412.98787</ele>
        <time>2021-11-15T16:20:33.699Z</time>
      </trkpt>
      <trkpt lat="38.34677" lon="34.49051">
        <ele>1405.018204</ele>
        <time>2021-11-15T16:21:59.388Z</time>
      </trkpt>
      <trkpt lat="38.34764" lon="34.49021">
        <ele>1400.920554</ele>
        <time>2021-11-15T16:22:13.232Z</time>
      </trkpt>
      <trkpt lat="38.34833" lon="34.48981">
        <ele>1396.630282</ele>
        <time>2021-11-15T16:22:24.296Z</time>
      </trkpt>
      <trkpt lat="38.34919" lon="34.48913">
        <ele>1391.112434</ele>
        <time>2021-11-15T16:22:38.856Z</time>
      </trkpt>
      <trkpt lat="38.34979" lon="34.48847">
        <ele>1386.926449</ele>
        <time>2021-11-15T16:22:50.588Z</time>
      </trkpt>
      <trkpt lat="38.3502" lon="34.48782">
        <ele>1384.097144</ele>
        <time>2021-11-15T16:23:00.847Z</time>
      </trkpt>
      <trkpt lat="38.35198" lon="34.48385">
        <ele>1376.652741</ele>
        <time>2021-11-15T16:24:05.419Z</time>
      </trkpt>
      <trkpt lat="38.35254" lon="34.4829">
        <ele>1373.419606</ele>
        <time>2021-11-15T16:24:20.705Z</time>
      </trkpt>
      <trkpt lat="38.35298" lon="34.48248">
        <ele>1371.51448</ele>
        <time>2021-11-15T16:24:29.225Z</time>
      </trkpt>
      <trkpt lat="38.35418" lon="34.48182">
        <ele>1364.518751</ele>
        <time>2021-11-15T16:24:48.585Z</time>
      </trkpt>
      <trkpt lat="38.35497" lon="34.48112">
        <ele>1359.289166</ele>
        <time>2021-11-15T16:25:02.784Z</time>
      </trkpt>
      <trkpt lat="38.35542" lon="34.48043">
        <ele>1355.682147</ele>
        <time>2021-11-15T16:25:13.294Z</time>
      </trkpt>
      <trkpt lat="38.35568" lon="34.47991">
        <ele>1353.21752</ele>
        <time>2021-11-15T16:25:20.590Z</time>
      </trkpt>
      <trkpt lat="38.35882" lon="34.47153">
        <ele>1326.058384</ele>
        <time>2021-11-15T16:27:16.417Z</time>
      </trkpt>
      <trkpt lat="38.35959" lon="34.46946">
        <ele>1321.347367</ele>
        <time>2021-11-15T16:27:46.325Z</time>
      </trkpt>
      <trkpt lat="38.36069" lon="34.4664">
        <ele>1319.087456</ele>
        <time>2021-11-15T16:28:37.566Z</time>
      </trkpt>
      <trkpt lat="38.36127" lon="34.46486">
        <ele>1319.762733</ele>
        <time>2021-11-15T16:29:11.290Z</time>
      </trkpt>
      <trkpt lat="38.36156" lon="34.4639">
        <ele>1321.529405</ele>
        <time>2021-11-15T16:29:36.039Z</time>
      </trkpt>
      <trkpt lat="38.3617" lon="34.46312">
        <ele>1322.892149</ele>
        <time>2021-11-15T16:29:56.924Z</time>
      </trkpt>
      <trkpt lat="38.36174" lon="34.46256">
        <ele>1324.021572</ele>
        <time>2021-11-15T16:30:12.374Z</time>
      </trkpt>
      <trkpt lat="38.36163" lon="34.46151">
        <ele>1326.294912</ele>
        <time>2021-11-15T16:30:41.417Z</time>
      </trkpt>
      <trkpt lat="38.36091" lon="34.45662">
        <ele>1333.89915</ele>
        <time>2021-11-15T16:32:41.645Z</time>
      </trkpt>
      <trkpt lat="38.36109" lon="34.45537">
        <ele>1332.560112</ele>
        <time>2021-11-15T16:33:00.726Z</time>
      </trkpt>
      <trkpt lat="38.36155" lon="34.45422">
        <ele>1329.618411</ele>
        <time>2021-11-15T16:33:16.874Z</time>
      </trkpt>
      <trkpt lat="38.36362" lon="34.45143">
        <ele>1312.780507</ele>
        <time>2021-11-15T16:34:01.374Z</time>
      </trkpt>
      <trkpt lat="38.36422" lon="34.4503">
        <ele>1306.326017</ele>
        <time>2021-11-15T16:34:16.830Z</time>
      </trkpt>
      <trkpt lat="38.36435" lon="34.44967">
        <ele>1303.351952</ele>
        <time>2021-11-15T16:34:24.276Z</time>
      </trkpt>
      <trkpt lat="38.36455" lon="34.44869">
        <ele>1298.75034</ele>
        <time>2021-11-15T16:34:35.971Z</time>
      </trkpt>
      <trkpt lat="38.36508" lon="34.44715">
        <ele>1292.578875</ele>
        <time>2021-11-15T16:34:56.269Z</time>
      </trkpt>
      <trkpt lat="38.36676" lon="34.44492">
        <ele>1282.555936</ele>
        <time>2021-11-15T16:35:34.235Z</time>
      </trkpt>
      <trkpt lat="38.36966" lon="34.44148">
        <ele>1269.049317</ele>
        <time>2021-11-15T16:36:37.952Z</time>
      </trkpt>
      <trkpt lat="38.37038" lon="34.44063">
        <ele>1266.028124</ele>
        <time>2021-11-15T16:36:54.181Z</time>
      </trkpt>
      <trkpt lat="38.37127" lon="34.43958">
        <ele>1262.498781</ele>
        <time>2021-11-15T16:37:14.228Z</time>
      </trkpt>
      <trkpt lat="38.37239" lon="34.43821">
        <ele>1258.015086</ele>
        <time>2021-11-15T16:37:40.104Z</time>
      </trkpt>
      <trkpt lat="38.37419" lon="34.43571">
        <ele>1250.215956</ele>
        <time>2021-11-15T16:38:23.870Z</time>
      </trkpt>
      <trkpt lat="38.37698" lon="34.43144">
        <ele>1239.504912</ele>
        <time>2021-11-15T16:39:37.931Z</time>
      </trkpt>
      <trkpt lat="38.37887" lon="34.4287">
        <ele>1234.697338</ele>
        <time>2021-11-15T16:40:30.241Z</time>
      </trkpt>
      <trkpt lat="38.37915" lon="34.4284">
        <ele>1234.12086</ele>
        <time>2021-11-15T16:40:36.928Z</time>
      </trkpt>
      <trkpt lat="38.37922" lon="34.42833">
        <ele>1233.986139</ele>
        <time>2021-11-15T16:40:38.407Z</time>
      </trkpt>
      <trkpt lat="38.37962" lon="34.42806">
        <ele>1233.141519</ele>
        <time>2021-11-15T16:40:46.625Z</time>
      </trkpt>
      <trkpt lat="38.38004" lon="34.42416">
        <ele>1227.539238</ele>
        <time>2021-11-15T16:41:41.009Z</time>
      </trkpt>
      <trkpt lat="38.38046" lon="34.41971">
        <ele>1225.234402</ele>
        <time>2021-11-15T16:42:52.707Z</time>
      </trkpt>
      <trkpt lat="38.3817" lon="34.40697">
        <ele>1217.183877</ele>
        <time>2021-11-15T16:46:12.047Z</time>
      </trkpt>
      <trkpt lat="38.38288" lon="34.39579">
        <ele>1205.918289</ele>
        <time>2021-11-15T16:48:57.787Z</time>
      </trkpt>
      <trkpt lat="38.38362" lon="34.38902">
        <ele>1197.477573</ele>
        <time>2021-11-15T16:50:34.299Z</time>
      </trkpt>
      <trkpt lat="38.38625" lon="34.36315">
        <ele>1175.135083</ele>
        <time>2021-11-15T16:57:05.871Z</time>
      </trkpt>
      <trkpt lat="38.38639" lon="34.36253">
        <ele>1174.606782</ele>
        <time>2021-11-15T16:57:15.643Z</time>
      </trkpt>
      <trkpt lat="38.38669" lon="34.36166">
        <ele>1173.837328</ele>
        <time>2021-11-15T16:57:29.978Z</time>
      </trkpt>
      <trkpt lat="38.38675" lon="34.36146">
        <ele>1173.659303</ele>
        <time>2021-11-15T16:57:33.316Z</time>
      </trkpt>
      <trkpt lat="38.38703" lon="34.36063">
        <ele>1172.930143</ele>
        <time>2021-11-15T16:57:46.788Z</time>
      </trkpt>
      <trkpt lat="38.38791" lon="34.35674">
        <ele>1168.998745</ele>
        <time>2021-11-15T16:58:46.374Z</time>
      </trkpt>
      <trkpt lat="38.38799" lon="34.35489">
        <ele>1167.296239</ele>
        <time>2021-11-15T16:59:14.188Z</time>
      </trkpt>
      <trkpt lat="38.3881" lon="34.35429">
        <ele>1166.749066</ele>
        <time>2021-11-15T16:59:23.231Z</time>
      </trkpt>
      <trkpt lat="38.38824" lon="34.35383">
        <ele>1166.315553</ele>
        <time>2021-11-15T16:59:30.480Z</time>
      </trkpt>
      <trkpt lat="38.38868" lon="34.35236">
        <ele>1165.137644</ele>
        <time>2021-11-15T16:59:53.670Z</time>
      </trkpt>
      <trkpt lat="38.38881" lon="34.35194">
        <ele>1164.802879</ele>
        <time>2021-11-15T17:00:00.782Z</time>
      </trkpt>
      <trkpt lat="38.389" lon="34.35152">
        <ele>1164.841352</ele>
        <time>2021-11-15T17:00:09.018Z</time>
      </trkpt>
      <trkpt lat="38.38907" lon="34.35132">
        <ele>1164.988404</ele>
        <time>2021-11-15T17:00:13.034Z</time>
      </trkpt>
      <trkpt lat="38.38914" lon="34.35084">
        <ele>1165.305657</ele>
        <time>2021-11-15T17:00:22.709Z</time>
      </trkpt>
      <trkpt lat="38.38927" lon="34.35079">
        <ele>1165.414425</ele>
        <time>2021-11-15T17:00:26.211Z</time>
      </trkpt>
      <trkpt lat="38.38968" lon="34.3501">
        <ele>1165.982978</ele>
        <time>2021-11-15T17:00:45.796Z</time>
      </trkpt>
      <trkpt lat="38.39002" lon="34.34947">
        <ele>1166.562665</ele>
        <time>2021-11-15T17:01:03.722Z</time>
      </trkpt>
      <trkpt lat="38.39011" lon="34.34916">
        <ele>1166.826567</ele>
        <time>2021-11-15T17:01:11.176Z</time>
      </trkpt>
      <trkpt lat="38.39018" lon="34.34829">
        <ele>1167.538177</ele>
        <time>2021-11-15T17:01:29.845Z</time>
      </trkpt>
      <trkpt lat="38.39025" lon="34.3476">
        <ele>1168.055076</ele>
        <time>2021-11-15T17:01:43.327Z</time>
      </trkpt>
      <trkpt lat="38.39032" lon="34.34669">
        <ele>1168.365618</ele>
        <time>2021-11-15T17:02:00.973Z</time>
      </trkpt>
      <trkpt lat="38.39029" lon="34.34654">
        <ele>1168.416365</ele>
        <time>2021-11-15T17:02:04.054Z</time>
      </trkpt>
      <trkpt lat="38.39028" lon="34.34632">
        <ele>1168.49092</ele>
        <time>2021-11-15T17:02:08.002Z</time>
      </trkpt>
      <trkpt lat="38.39028" lon="34.3462">
        <ele>1168.531309</ele>
        <time>2021-11-15T17:02:10.291Z</time>
      </trkpt>
      <trkpt lat="38.39033" lon="34.34584">
        <ele>1168.65452</ele>
        <time>2021-11-15T17:02:17.240Z</time>
      </trkpt>
      <trkpt lat="38.39036" lon="34.34565">
        <ele>1168.717543</ele>
        <time>2021-11-15T17:02:21.134Z</time>
      </trkpt>
      <trkpt lat="38.39043" lon="34.34533">
        <ele>1168.871981</ele>
        <time>2021-11-15T17:02:27.943Z</time>
      </trkpt>
      <trkpt lat="38.39051" lon="34.34516">
        <ele>1168.99774</ele>
        <time>2021-11-15T17:02:31.997Z</time>
      </trkpt>
      <trkpt lat="38.39124" lon="34.34428">
        <ele>1169.851002</ele>
        <time>2021-11-15T17:02:59.298Z</time>
      </trkpt>
      <trkpt lat="38.39163" lon="34.34392">
        <ele>1170.256404</ele>
        <time>2021-11-15T17:03:12.122Z</time>
      </trkpt>
      <trkpt lat="38.39239" lon="34.34343">
        <ele>1170.577161</ele>
        <time>2021-11-15T17:03:34.322Z</time>
      </trkpt>
      <trkpt lat="38.39225" lon="34.34275">
        <ele>1170.759673</ele>
        <time>2021-11-15T17:03:47.508Z</time>
      </trkpt>
      <trkpt lat="38.39207" lon="34.34187">
        <ele>1170.955008</ele>
        <time>2021-11-15T17:04:03.678Z</time>
      </trkpt>
      <trkpt lat="38.39206" lon="34.34174">
        <ele>1170.971571</ele>
        <time>2021-11-15T17:04:05.930Z</time>
      </trkpt>
      <trkpt lat="38.39206" lon="34.34165">
        <ele>1170.98403</ele>
        <time>2021-11-15T17:04:07.691Z</time>
      </trkpt>
      <trkpt lat="38.39206" lon="34.3416">
        <ele>1170.990389</ele>
        <time>2021-11-15T17:04:08.458Z</time>
      </trkpt>
      <trkpt lat="38.39208" lon="34.34147">
        <ele>1171.007776</ele>
        <time>2021-11-15T17:04:10.820Z</time>
      </trkpt>
      <trkpt lat="38.39218" lon="34.341">
        <ele>1171.070311</ele>
        <time>2021-11-15T17:04:19.370Z</time>
      </trkpt>
      <trkpt lat="38.39237" lon="34.34002">
        <ele>1171.201947</ele>
        <time>2021-11-15T17:04:38.633Z</time>
      </trkpt>
      <trkpt lat="38.39254" lon="34.33914">
        <ele>1172.225895</ele>
        <time>2021-11-15T17:04:57.611Z</time>
      </trkpt>
      <trkpt lat="38.39259" lon="34.33881">
        <ele>1172.639753</ele>
        <time>2021-11-15T17:05:05.383Z</time>
      </trkpt>
      <trkpt lat="38.39274" lon="34.33884">
        <ele>1172.877589</ele>
        <time>2021-11-15T17:05:09.952Z</time>
      </trkpt>
      <trkpt lat="38.3931" lon="34.33886">
        <ele>1173.447276</ele>
        <time>2021-11-15T17:05:21.505Z</time>
      </trkpt>
      <trkpt lat="38.39319" lon="34.33836">
        <ele>1174.075084</ele>
        <time>2021-11-15T17:05:34.579Z</time>
      </trkpt>
      <trkpt lat="38.39331" lon="34.33798">
        <ele>1174.622256</ele>
        <time>2021-11-15T17:05:45.330Z</time>
      </trkpt>
      <trkpt lat="38.39357" lon="34.33743">
        <ele>1175.473489</ele>
        <time>2021-11-15T17:06:01.641Z</time>
      </trkpt>
      <trkpt lat="38.39362" lon="34.33721">
        <ele>1175.77388</ele>
        <time>2021-11-15T17:06:07.107Z</time>
      </trkpt>
      <trkpt lat="38.39378" lon="34.33684">
        <ele>1176.337971</ele>
        <time>2021-11-15T17:06:16.980Z</time>
      </trkpt>
      <trkpt lat="38.39386" lon="34.33662">
        <ele>1176.655989</ele>
        <time>2021-11-15T17:06:22.235Z</time>
      </trkpt>
      <trkpt lat="38.3939" lon="34.33645">
        <ele>1176.887353</ele>
        <time>2021-11-15T17:06:25.870Z</time>
      </trkpt>
      <trkpt lat="38.394" lon="34.33642">
        <ele>1177.06172</ele>
        <time>2021-11-15T17:06:28.565Z</time>
      </trkpt>
      <trkpt lat="38.39408" lon="34.33638">
        <ele>1176.997587</ele>
        <time>2021-11-15T17:06:30.634Z</time>
      </trkpt>
      <trkpt lat="38.39422" lon="34.33621">
        <ele>1176.842982</ele>
        <time>2021-11-15T17:06:35.519Z</time>
      </trkpt>
      <trkpt lat="38.3942" lon="34.33567">
        <ele>1176.512905</ele>
        <time>2021-11-15T17:06:44.910Z</time>
      </trkpt>
      <trkpt lat="38.39447" lon="34.33568">
        <ele>1176.305356</ele>
        <time>2021-11-15T17:06:50.292Z</time>
      </trkpt>
      <trkpt lat="38.39478" lon="34.33566">
        <ele>1176.063303</ele>
        <time>2021-11-15T17:06:56.445Z</time>
      </trkpt>
      <trkpt lat="38.39474" lon="34.33461">
        <ele>1175.094394</ele>
        <time>2021-11-15T17:07:11.103Z</time>
      </trkpt>
      <trkpt lat="38.39471" lon="34.33405">
        <ele>1174.293972</ele>
        <time>2021-11-15T17:07:18.735Z</time>
      </trkpt>
      <trkpt lat="38.3947" lon="34.33333">
        <ele>1173.264556</ele>
        <time>2021-11-15T17:07:28.580Z</time>
      </trkpt>
      <trkpt lat="38.39469" lon="34.33224">
        <ele>1172.061733</ele>
        <time>2021-11-15T17:07:44.222Z</time>
      </trkpt>
      <trkpt lat="38.39468" lon="34.33175">
        <ele>1171.745594</ele>
        <time>2021-11-15T17:07:51.680Z</time>
      </trkpt>
      <trkpt lat="38.39466" lon="34.3306">
        <ele>1171.006453</ele>
        <time>2021-11-15T17:08:10.093Z</time>
      </trkpt>
      <trkpt lat="38.39466" lon="34.33037">
        <ele>1170.881627</ele>
        <time>2021-11-15T17:08:14.005Z</time>
      </trkpt>
      <trkpt lat="38.39465" lon="34.32928">
        <ele>1170.728836</ele>
        <time>2021-11-15T17:08:32.774Z</time>
      </trkpt>
      <trkpt lat="38.39464" lon="34.3287">
        <ele>1170.64731</ele>
        <time>2021-11-15T17:08:42.587Z</time>
      </trkpt>
      <trkpt lat="38.39463" lon="34.32822">
        <ele>1170.579139</ele>
        <time>2021-11-15T17:08:50.863Z</time>
      </trkpt>
      <trkpt lat="38.39462" lon="34.32733">
        <ele>1170.216274</ele>
        <time>2021-11-15T17:09:05.649Z</time>
      </trkpt>
      <trkpt lat="38.39461" lon="34.32641">
        <ele>1169.810748</ele>
        <time>2021-11-15T17:09:20.220Z</time>
      </trkpt>
      <trkpt lat="38.39461" lon="34.32533">
        <ele>1169.235088</ele>
        <time>2021-11-15T17:09:36.496Z</time>
      </trkpt>
      <trkpt lat="38.39462" lon="34.32349">
        <ele>1168.049929</ele>
        <time>2021-11-15T17:10:05.077Z</time>
      </trkpt>
      <trkpt lat="38.39448" lon="34.32061">
        <ele>1166.221227</ele>
        <time>2021-11-15T17:10:50.854Z</time>
      </trkpt>
      <trkpt lat="38.39343" lon="34.31449">
        <ele>1159.525814</ele>
        <time>2021-11-15T17:12:21.310Z</time>
      </trkpt>
      <trkpt lat="38.39302" lon="34.3126">
        <ele>1156.829745</ele>
        <time>2021-11-15T17:12:49.023Z</time>
      </trkpt>
      <trkpt lat="38.39261" lon="34.31125">
        <ele>1154.639842</ele>
        <time>2021-11-15T17:13:08.924Z</time>
      </trkpt>
      <trkpt lat="38.39182" lon="34.30825">
        <ele>1149.905337</ele>
        <time>2021-11-15T17:13:52.547Z</time>
      </trkpt>
      <trkpt lat="38.39165" lon="34.30709">
        <ele>1148.866786</ele>
        <time>2021-11-15T17:14:10.222Z</time>
      </trkpt>
      <trkpt lat="38.3915" lon="34.30535">
        <ele>1147.527167</ele>
        <time>2021-11-15T17:14:37.968Z</time>
      </trkpt>
      <trkpt lat="38.39134" lon="34.30427">
        <ele>1146.340921</ele>
        <time>2021-11-15T17:14:54.321Z</time>
      </trkpt>
      <trkpt lat="38.39052" lon="34.30092">
        <ele>1141.692899</ele>
        <time>2021-11-15T17:15:42.629Z</time>
      </trkpt>
      <trkpt lat="38.38927" lon="34.2963">
        <ele>1139.154017</ele>
        <time>2021-11-15T17:17:00.999Z</time>
      </trkpt>
      <trkpt lat="38.38898" lon="34.29539">
        <ele>1138.680726</ele>
        <time>2021-11-15T17:17:16.777Z</time>
      </trkpt>
      <trkpt lat="38.38853" lon="34.29467">
        <ele>1138.141228</ele>
        <time>2021-11-15T17:17:31.054Z</time>
      </trkpt>
      <trkpt lat="38.38717" lon="34.29299">
        <ele>1136.057477</ele>
        <time>2021-11-15T17:18:07.031Z</time>
      </trkpt>
      <trkpt lat="38.38653" lon="34.29181">
        <ele>1134.862564</ele>
        <time>2021-11-15T17:18:28.372Z</time>
      </trkpt>
      <trkpt lat="38.38549" lon="34.28956">
        <ele>1133.081396</ele>
        <time>2021-11-15T17:19:08.275Z</time>
      </trkpt>
      <trkpt lat="38.38496" lon="34.28913">
        <ele>1133.229627</ele>
        <time>2021-11-15T17:19:21.512Z</time>
      </trkpt>
      <trkpt lat="38.38472" lon="34.28885">
        <ele>1133.394188</ele>
        <time>2021-11-15T17:19:28.787Z</time>
      </trkpt>
      <trkpt lat="38.38446" lon="34.28872">
        <ele>1133.538367</ele>
        <time>2021-11-15T17:19:35.610Z</time>
      </trkpt>
      <trkpt lat="38.38419" lon="34.28867">
        <ele>1133.673377</ele>
        <time>2021-11-15T17:19:42.370Z</time>
      </trkpt>
      <trkpt lat="38.38323" lon="34.28805">
        <ele>1135.773529</ele>
        <time>2021-11-15T17:20:14.657Z</time>
      </trkpt>
      <trkpt lat="38.38289" lon="34.28795">
        <ele>1136.769649</ele>
        <time>2021-11-15T17:20:27.345Z</time>
      </trkpt>
      <trkpt lat="38.38269" lon="34.28789">
        <ele>1137.364908</ele>
        <time>2021-11-15T17:20:35.282Z</time>
      </trkpt>
      <trkpt lat="38.38244" lon="34.28793">
        <ele>1138.061718</ele>
        <time>2021-11-15T17:20:44.024Z</time>
      </trkpt>
      <trkpt lat="38.38234" lon="34.28792">
        <ele>1138.366592</ele>
        <time>2021-11-15T17:20:48.255Z</time>
      </trkpt>
      <trkpt lat="38.3822" lon="34.28791">
        <ele>1138.754756</ele>
        <time>2021-11-15T17:20:53.460Z</time>
      </trkpt>
      <trkpt lat="38.38191" lon="34.28761">
        <ele>1140.119097</ele>
        <time>2021-11-15T17:21:08.164Z</time>
      </trkpt>
      <trkpt lat="38.38168" lon="34.28746">
        <ele>1141.172029</ele>
        <time>2021-11-15T17:21:18.705Z</time>
      </trkpt>
      <trkpt lat="38.38158" lon="34.28746">
        <ele>1141.555222</ele>
        <time>2021-11-15T17:21:22.248Z</time>
      </trkpt>
      <trkpt lat="38.38111" lon="34.28708">
        <ele>1143.779494</ele>
        <time>2021-11-15T17:21:44.159Z</time>
      </trkpt>
      <trkpt lat="38.38097" lon="34.28682">
        <ele>1144.755209</ele>
        <time>2021-11-15T17:21:54.306Z</time>
      </trkpt>
      <trkpt lat="38.38069" lon="34.28664">
        <ele>1146.006119</ele>
        <time>2021-11-15T17:22:06.775Z</time>
      </trkpt>
      <trkpt lat="38.38046" lon="34.28649">
        <ele>1147.006512</ele>
        <time>2021-11-15T17:22:16.346Z</time>
      </trkpt>
      <trkpt lat="38.38017" lon="34.2862">
        <ele>1148.433313</ele>
        <time>2021-11-15T17:22:29.617Z</time>
      </trkpt>
      <trkpt lat="38.3801" lon="34.28608">
        <ele>1148.908305</ele>
        <time>2021-11-15T17:22:34.179Z</time>
      </trkpt>
      <trkpt lat="38.37986" lon="34.28588">
        <ele>1149.995704</ele>
        <time>2021-11-15T17:22:45.422Z</time>
      </trkpt>
      <trkpt lat="38.37972" lon="34.28565">
        <ele>1150.866908</ele>
        <time>2021-11-15T17:22:54.094Z</time>
      </trkpt>
      <trkpt lat="38.37954" lon="34.28547">
        <ele>1151.768567</ele>
        <time>2021-11-15T17:23:02.755Z</time>
      </trkpt>
      <trkpt lat="38.37936" lon="34.28521">
        <ele>1152.819218</ele>
        <time>2021-11-15T17:23:13.444Z</time>
      </trkpt>
      <trkpt lat="38.37934" lon="34.28508">
        <ele>1153.254124</ele>
        <time>2021-11-15T17:23:17.178Z</time>
      </trkpt>
      <trkpt lat="38.37926" lon="34.28498">
        <ele>1153.855453</ele>
        <time>2021-11-15T17:23:21.922Z</time>
      </trkpt>
      <trkpt lat="38.37904" lon="34.28482">
        <ele>1155.16317</ele>
        <time>2021-11-15T17:23:31.999Z</time>
      </trkpt>
      <trkpt lat="38.379" lon="34.28479">
        <ele>1155.431693</ele>
        <time>2021-11-15T17:23:34.232Z</time>
      </trkpt>
      <trkpt lat="38.37882" lon="34.28467">
        <ele>1156.502044</ele>
        <time>2021-11-15T17:23:43.445Z</time>
      </trkpt>
      <trkpt lat="38.37782" lon="34.2842">
        <ele>1162.178955</ele>
        <time>2021-11-15T17:24:32.858Z</time>
      </trkpt>
      <trkpt lat="38.37758" lon="34.2841">
        <ele>1163.333066</ele>
        <time>2021-11-15T17:24:44.683Z</time>
      </trkpt>
      <trkpt lat="38.37719" lon="34.28412">
        <ele>1164.886227</ele>
        <time>2021-11-15T17:25:02.236Z</time>
      </trkpt>
      <trkpt lat="38.3769" lon="34.28403">
        <ele>1166.092864</ele>
        <time>2021-11-15T17:25:14.659Z</time>
      </trkpt>
      <trkpt lat="38.37604" lon="34.28379">
        <ele>1169.633397</ele>
        <time>2021-11-15T17:25:46.530Z</time>
      </trkpt>
      <trkpt lat="38.37584" lon="34.28377">
        <ele>1170.054849</ele>
        <time>2021-11-15T17:25:52.701Z</time>
      </trkpt>
      <trkpt lat="38.37538" lon="34.28371">
        <ele>1170.319887</ele>
        <time>2021-11-15T17:26:04.338Z</time>
      </trkpt>
      <trkpt lat="38.37517" lon="34.28361">
        <ele>1170.45257</ele>
        <time>2021-11-15T17:26:09.768Z</time>
      </trkpt>
      <trkpt lat="38.37498" lon="34.28342">
        <ele>1170.592356</ele>
        <time>2021-11-15T17:26:15.206Z</time>
      </trkpt>
      <trkpt lat="38.37491" lon="34.28334">
        <ele>1170.645821</ele>
        <time>2021-11-15T17:26:17.320Z</time>
      </trkpt>
      <trkpt lat="38.37473" lon="34.28309">
        <ele>1170.796952</ele>
        <time>2021-11-15T17:26:22.984Z</time>
      </trkpt>
      <trkpt lat="38.37396" lon="34.28164">
        <ele>1171.18558</ele>
        <time>2021-11-15T17:26:52.160Z</time>
      </trkpt>
      <trkpt lat="38.37343" lon="34.28047">
        <ele>1171.585792</ele>
        <time>2021-11-15T17:27:18.104Z</time>
      </trkpt>
      <trkpt lat="38.3731" lon="34.27964">
        <ele>1172.43273</ele>
        <time>2021-11-15T17:27:37.993Z</time>
      </trkpt>
      <trkpt lat="38.37253" lon="34.27818">
        <ele>1173.721684</ele>
        <time>2021-11-15T17:28:13.410Z</time>
      </trkpt>
      <trkpt lat="38.37235" lon="34.27754">
        <ele>1174.108118</ele>
        <time>2021-11-15T17:28:27.400Z</time>
      </trkpt>
      <trkpt lat="38.37137" lon="34.27396">
        <ele>1174.780816</ele>
        <time>2021-11-15T17:29:35.223Z</time>
      </trkpt>
      <trkpt lat="38.37094" lon="34.27281">
        <ele>1174.417716</ele>
        <time>2021-11-15T17:29:56.272Z</time>
      </trkpt>
      <trkpt lat="38.36975" lon="34.26966">
        <ele>1172.84902</ele>
        <time>2021-11-15T17:30:50.898Z</time>
      </trkpt>
      <trkpt lat="38.36863" lon="34.26739">
        <ele>1172.243508</ele>
        <time>2021-11-15T17:31:36.693Z</time>
      </trkpt>
      <trkpt lat="38.36749" lon="34.26492">
        <ele>1171.044676</ele>
        <time>2021-11-15T17:32:23.058Z</time>
      </trkpt>
      <trkpt lat="38.36555" lon="34.26148">
        <ele>1167.181832</ele>
        <time>2021-11-15T17:33:25.202Z</time>
      </trkpt>
      <trkpt lat="38.36504" lon="34.26037">
        <ele>1166.153231</ele>
        <time>2021-11-15T17:33:44.663Z</time>
      </trkpt>
      <trkpt lat="38.36455" lon="34.2591">
        <ele>1165.574894</ele>
        <time>2021-11-15T17:34:07.307Z</time>
      </trkpt>
      <trkpt lat="38.36404" lon="34.25729">
        <ele>1165.3443</ele>
        <time>2021-11-15T17:34:39.752Z</time>
      </trkpt>
      <trkpt lat="38.3623" lon="34.25243">
        <ele>1166.680281</ele>
        <time>2021-11-15T17:36:18.540Z</time>
      </trkpt>
      <trkpt lat="38.36157" lon="34.25108">
        <ele>1167.743687</ele>
        <time>2021-11-15T17:36:51.862Z</time>
      </trkpt>
      <trkpt lat="38.3612" lon="34.25019">
        <ele>1168.437453</ele>
        <time>2021-11-15T17:37:12.604Z</time>
      </trkpt>
      <trkpt lat="38.36102" lon="34.24968">
        <ele>1168.717325</ele>
        <time>2021-11-15T17:37:23.853Z</time>
      </trkpt>
      <trkpt lat="38.36018" lon="34.24625">
        <ele>1169.84506</ele>
        <time>2021-11-15T17:38:32.112Z</time>
      </trkpt>
      <trkpt lat="38.35984" lon="34.24555">
        <ele>1169.12254</ele>
        <time>2021-11-15T17:38:45.165Z</time>
      </trkpt>
      <trkpt lat="38.35922" lon="34.24449">
        <ele>1166.99819</ele>
        <time>2021-11-15T17:39:03.364Z</time>
      </trkpt>
      <trkpt lat="38.35902" lon="34.24407">
        <ele>1166.199509</ele>
        <time>2021-11-15T17:39:09.626Z</time>
      </trkpt>
      <trkpt lat="38.35882" lon="34.24349">
        <ele>1164.271034</ele>
        <time>2021-11-15T17:39:17.356Z</time>
      </trkpt>
      <trkpt lat="38.35867" lon="34.24283">
        <ele>1162.136722</ele>
        <time>2021-11-15T17:39:25.769Z</time>
      </trkpt>
      <trkpt lat="38.35796" lon="34.24101">
        <ele>1156.540333</ele>
        <time>2021-11-15T17:39:50.744Z</time>
      </trkpt>
      <trkpt lat="38.35776" lon="34.23993">
        <ele>1153.814843</ele>
        <time>2021-11-15T17:40:05.407Z</time>
      </trkpt>
      <trkpt lat="38.35779" lon="34.23922">
        <ele>1152.523078</ele>
        <time>2021-11-15T17:40:15.470Z</time>
      </trkpt>
      <trkpt lat="38.35783" lon="34.23895">
        <ele>1152.069656</ele>
        <time>2021-11-15T17:40:19.245Z</time>
      </trkpt>
      <trkpt lat="38.35815" lon="34.23807">
        <ele>1150.431851</ele>
        <time>2021-11-15T17:40:32.711Z</time>
      </trkpt>
      <trkpt lat="38.35823" lon="34.23768">
        <ele>1149.762388</ele>
        <time>2021-11-15T17:40:38.112Z</time>
      </trkpt>
      <trkpt lat="38.35823" lon="34.23764">
        <ele>1149.7003</ele>
        <time>2021-11-15T17:40:38.613Z</time>
      </trkpt>
      <trkpt lat="38.35824" lon="34.23752">
        <ele>1149.393013</ele>
        <time>2021-11-15T17:40:40.241Z</time>
      </trkpt>
      <trkpt lat="38.35789" lon="34.23748">
        <ele>1148.211017</ele>
        <time>2021-11-15T17:40:46.468Z</time>
      </trkpt>
      <trkpt lat="38.35776" lon="34.23738">
        <ele>1147.678841</ele>
        <time>2021-11-15T17:40:49.182Z</time>
      </trkpt>
      <trkpt lat="38.35752" lon="34.23703">
        <ele>1146.455707</ele>
        <time>2021-11-15T17:40:55.245Z</time>
      </trkpt>
      <trkpt lat="38.35738" lon="34.23646">
        <ele>1144.876671</ele>
        <time>2021-11-15T17:41:02.965Z</time>
      </trkpt>
      <trkpt lat="38.35738" lon="34.23628">
        <ele>1144.392333</ele>
        <time>2021-11-15T17:41:05.389Z</time>
      </trkpt>
      <trkpt lat="38.35725" lon="34.23602">
        <ele>1143.571459</ele>
        <time>2021-11-15T17:41:09.265Z</time>
      </trkpt>
      <trkpt lat="38.35725" lon="34.23578">
        <ele>1142.783843</ele>
        <time>2021-11-15T17:41:12.530Z</time>
      </trkpt>
      <trkpt lat="38.35726" lon="34.23557">
        <ele>1142.069137</ele>
        <time>2021-11-15T17:41:15.200Z</time>
      </trkpt>
      <trkpt lat="38.35706" lon="34.23578">
        <ele>1140.980976</ele>
        <time>2021-11-15T17:41:19.495Z</time>
      </trkpt>
      <trkpt lat="38.35693" lon="34.23582">
        <ele>1140.385519</ele>
        <time>2021-11-15T17:41:21.758Z</time>
      </trkpt>
      <trkpt lat="38.35677" lon="34.23579">
        <ele>1139.739317</ele>
        <time>2021-11-15T17:41:24.411Z</time>
      </trkpt>
      <trkpt lat="38.35634" lon="34.23519">
        <ele>1137.037619</ele>
        <time>2021-11-15T17:41:34.692Z</time>
      </trkpt>
      <trkpt lat="38.35626" lon="34.23527">
        <ele>1136.579608</ele>
        <time>2021-11-15T17:41:36.528Z</time>
      </trkpt>
      <trkpt lat="38.35594" lon="34.23486">
        <ele>1134.228258</ele>
        <time>2021-11-15T17:41:43.593Z</time>
      </trkpt>
      <trkpt lat="38.35551" lon="34.23423">
        <ele>1130.491769</ele>
        <time>2021-11-15T17:41:54.063Z</time>
      </trkpt>
      <trkpt lat="38.35542" lon="34.23411">
        <ele>1129.756658</ele>
        <time>2021-11-15T17:41:56.013Z</time>
      </trkpt>
      <trkpt lat="38.35502" lon="34.23355">
        <ele>1126.391689</ele>
        <time>2021-11-15T17:42:05.107Z</time>
      </trkpt>
      <trkpt lat="38.35476" lon="34.23314">
        <ele>1123.945916</ele>
        <time>2021-11-15T17:42:11.320Z</time>
      </trkpt>
      <trkpt lat="38.35457" lon="34.23279">
        <ele>1121.9396</ele>
        <time>2021-11-15T17:42:16.331Z</time>
      </trkpt>
      <trkpt lat="38.3544" lon="34.2325">
        <ele>1120.220853</ele>
        <time>2021-11-15T17:42:20.580Z</time>
      </trkpt>
      <trkpt lat="38.35439" lon="34.2324">
        <ele>1119.728558</ele>
        <time>2021-11-15T17:42:21.861Z</time>
      </trkpt>
      <trkpt lat="38.35444" lon="34.23228">
        <ele>1119.078233</ele>
        <time>2021-11-15T17:42:23.493Z</time>
      </trkpt>
      <trkpt lat="38.35447" lon="34.2321">
        <ele>1118.231046</ele>
        <time>2021-11-15T17:42:25.647Z</time>
      </trkpt>
      <trkpt lat="38.35442" lon="34.23173">
        <ele>1116.420327</ele>
        <time>2021-11-15T17:42:30.334Z</time>
      </trkpt>
      <trkpt lat="38.35444" lon="34.23138">
        <ele>1114.835374</ele>
        <time>2021-11-15T17:42:34.675Z</time>
      </trkpt>
      <trkpt lat="38.35446" lon="34.23119">
        <ele>1114.377365</ele>
        <time>2021-11-15T17:42:36.963Z</time>
      </trkpt>
      <trkpt lat="38.3545" lon="34.23102">
        <ele>1113.92195</ele>
        <time>2021-11-15T17:42:39.300Z</time>
      </trkpt>
      <trkpt lat="38.3546" lon="34.23081">
        <ele>1113.317341</ele>
        <time>2021-11-15T17:42:42.379Z</time>
      </trkpt>
      <trkpt lat="38.3546" lon="34.23056">
        <ele>1112.686571</ele>
        <time>2021-11-15T17:42:45.558Z</time>
      </trkpt>
      <trkpt lat="38.35472" lon="34.22969">
        <ele>1110.507853</ele>
        <time>2021-11-15T17:42:57.039Z</time>
      </trkpt>
      <trkpt lat="38.35477" lon="34.22934">
        <ele>1109.614048</ele>
        <time>2021-11-15T17:43:02.072Z</time>
      </trkpt>
      <trkpt lat="38.35475" lon="34.22921">
        <ele>1109.291114</ele>
        <time>2021-11-15T17:43:03.946Z</time>
      </trkpt>
      <trkpt lat="38.35495" lon="34.22844">
        <ele>1108.640652</ele>
        <time>2021-11-15T17:43:15.971Z</time>
      </trkpt>
      <trkpt lat="38.35544" lon="34.22706">
        <ele>1107.502916</ele>
        <time>2021-11-15T17:43:39.936Z</time>
      </trkpt>
      <trkpt lat="38.35723" lon="34.22257">
        <ele>1105.127873</ele>
        <time>2021-11-15T17:44:59.377Z</time>
      </trkpt>
      <trkpt lat="38.35748" lon="34.22211">
        <ele>1105.074057</ele>
        <time>2021-11-15T17:45:08.619Z</time>
      </trkpt>
      <trkpt lat="38.35791" lon="34.22157">
        <ele>1104.999714</ele>
        <time>2021-11-15T17:45:21.844Z</time>
      </trkpt>
      <trkpt lat="38.35936" lon="34.22009">
        <ele>1105.458814</ele>
        <time>2021-11-15T17:46:05.660Z</time>
      </trkpt>
      <trkpt lat="38.35997" lon="34.21946">
        <ele>1105.740859</ele>
        <time>2021-11-15T17:46:24.672Z</time>
      </trkpt>
      <trkpt lat="38.36078" lon="34.21864">
        <ele>1106.125072</ele>
        <time>2021-11-15T17:46:49.263Z</time>
      </trkpt>
      <trkpt lat="38.36113" lon="34.21827">
        <ele>1106.297127</ele>
        <time>2021-11-15T17:46:59.852Z</time>
      </trkpt>
      <trkpt lat="38.36177" lon="34.2176">
        <ele>1106.642158</ele>
        <time>2021-11-15T17:47:19.386Z</time>
      </trkpt>
      <trkpt lat="38.36228" lon="34.21708">
        <ele>1106.911242</ele>
        <time>2021-11-15T17:47:34.617Z</time>
      </trkpt>
      <trkpt lat="38.36254" lon="34.21694">
        <ele>1107.196946</ele>
        <time>2021-11-15T17:47:41.387Z</time>
      </trkpt>
      <trkpt lat="38.36311" lon="34.21686">
        <ele>1108.341749</ele>
        <time>2021-11-15T17:47:57.158Z</time>
      </trkpt>
      <trkpt lat="38.36402" lon="34.21688">
        <ele>1110.183089</ele>
        <time>2021-11-15T17:48:24.816Z</time>
      </trkpt>
      <trkpt lat="38.36401" lon="34.21669">
        <ele>1110.485269</ele>
        <time>2021-11-15T17:48:30.683Z</time>
      </trkpt>
      <trkpt lat="38.36378" lon="34.21566">
        <ele>1113.298668</ele>
        <time>2021-11-15T17:49:03.776Z</time>
      </trkpt>
      <trkpt lat="38.36357" lon="34.2151">
        <ele>1114.981309</ele>
        <time>2021-11-15T17:49:22.517Z</time>
      </trkpt>
      <trkpt lat="38.36325" lon="34.21463">
        <ele>1116.679027</ele>
        <time>2021-11-15T17:49:40.643Z</time>
      </trkpt>
      <trkpt lat="38.36342" lon="34.21451">
        <ele>1117.211544</ele>
        <time>2021-11-15T17:49:46.948Z</time>
      </trkpt>
      <trkpt lat="38.36366" lon="34.21443">
        <ele>1117.81205</ele>
        <time>2021-11-15T17:49:55.066Z</time>
      </trkpt>
      <trkpt lat="38.36407" lon="34.21429">
        <ele>1118.856035</ele>
        <time>2021-11-15T17:50:08.306Z</time>
      </trkpt>
      <trkpt lat="38.36439" lon="34.21419">
        <ele>1119.667338</ele>
        <time>2021-11-15T17:50:18.802Z</time>
      </trkpt>
      <trkpt lat="38.36476" lon="34.21422">
        <ele>1120.575727</ele>
        <time>2021-11-15T17:50:30.969Z</time>
      </trkpt>
      <trkpt lat="38.36487" lon="34.21419">
        <ele>1120.838869</ele>
        <time>2021-11-15T17:50:34.030Z</time>
      </trkpt>
      <trkpt lat="38.36555" lon="34.21377">
        <ele>1123.980088</ele>
        <time>2021-11-15T17:51:00.220Z</time>
      </trkpt>
      <trkpt lat="38.3656" lon="34.21358">
        <ele>1124.673561</ele>
        <time>2021-11-15T17:51:06.291Z</time>
      </trkpt>
      <trkpt lat="38.36538" lon="34.21318">
        <ele>1126.443373</ele>
        <time>2021-11-15T17:51:22.329Z</time>
      </trkpt>
      <trkpt lat="38.36518" lon="34.21274">
        <ele>1128.249756</ele>
        <time>2021-11-15T17:51:40.023Z</time>
      </trkpt>
      <trkpt lat="38.36502" lon="34.21217">
        <ele>1130.879314</ele>
        <time>2021-11-15T17:52:02.868Z</time>
      </trkpt>
      <trkpt lat="38.36475" lon="34.21177">
        <ele>1133.645803</ele>
        <time>2021-11-15T17:52:24.954Z</time>
      </trkpt>
      <trkpt lat="38.36437" lon="34.21138">
        <ele>1136.938453</ele>
        <time>2021-11-15T17:52:49.922Z</time>
      </trkpt>
      <trkpt lat="38.36405" lon="34.21082">
        <ele>1140.562783</ele>
        <time>2021-11-15T17:53:15.284Z</time>
      </trkpt>
      <trkpt lat="38.36392" lon="34.21065">
        <ele>1141.750468</ele>
        <time>2021-11-15T17:53:24.637Z</time>
      </trkpt>
      <trkpt lat="38.36364" lon="34.21032">
        <ele>1143.941603</ele>
        <time>2021-11-15T17:53:42.499Z</time>
      </trkpt>
      <trkpt lat="38.36315" lon="34.20966">
        <ele>1147.98985</ele>
        <time>2021-11-15T17:54:14.736Z</time>
      </trkpt>
      <trkpt lat="38.36305" lon="34.20935">
        <ele>1149.486403</ele>
        <time>2021-11-15T17:54:26.528Z</time>
      </trkpt>
      <trkpt lat="38.36271" lon="34.20863">
        <ele>1153.03727</ele>
        <time>2021-11-15T17:54:54.560Z</time>
      </trkpt>
      <trkpt lat="38.3626" lon="34.2075">
        <ele>1157.382349</ele>
        <time>2021-11-15T17:55:32.551Z</time>
      </trkpt>
      <trkpt lat="38.36259" lon="34.20608">
        <ele>1162.270382</ele>
        <time>2021-11-15T17:56:17.526Z</time>
      </trkpt>
      <trkpt lat="38.36253" lon="34.20491">
        <ele>1165.661017</ele>
        <time>2021-11-15T17:56:51.215Z</time>
      </trkpt>
      <trkpt lat="38.36256" lon="34.2043">
        <ele>1167.393874</ele>
        <time>2021-11-15T17:57:07.569Z</time>
      </trkpt>
      <trkpt lat="38.36274" lon="34.20299">
        <ele>1170.855605</ele>
        <time>2021-11-15T17:57:42.110Z</time>
      </trkpt>
      <trkpt lat="38.36284" lon="34.20222">
        <ele>1172.876232</ele>
        <time>2021-11-15T17:58:05.574Z</time>
      </trkpt>
      <trkpt lat="38.36295" lon="34.20136">
        <ele>1175.939234</ele>
        <time>2021-11-15T17:58:32.165Z</time>
      </trkpt>
      <trkpt lat="38.36298" lon="34.20099">
        <ele>1177.323151</ele>
        <time>2021-11-15T17:58:43.759Z</time>
      </trkpt>
      <trkpt lat="38.36303" lon="34.20089">
        <ele>1177.73465</ele>
        <time>2021-11-15T17:58:48.331Z</time>
      </trkpt>
      <trkpt lat="38.36362" lon="34.19957">
        <ele>1182.874556</ele>
        <time>2021-11-15T17:59:39.107Z</time>
      </trkpt>
      <trkpt lat="38.36384" lon="34.19892">
        <ele>1184.870803</ele>
        <time>2021-11-15T18:00:00.516Z</time>
      </trkpt>
      <trkpt lat="38.36393" lon="34.19843">
        <ele>1186.296156</ele>
        <time>2021-11-15T18:00:14.008Z</time>
      </trkpt>
      <trkpt lat="38.36414" lon="34.19761">
        <ele>1188.127778</ele>
        <time>2021-11-15T18:00:35.455Z</time>
      </trkpt>
      <trkpt lat="38.36429" lon="34.19679">
        <ele>1188.705435</ele>
        <time>2021-11-15T18:00:53.962Z</time>
      </trkpt>
      <trkpt lat="38.36439" lon="34.19624">
        <ele>1189.095389</ele>
        <time>2021-11-15T18:01:04.448Z</time>
      </trkpt>
      <trkpt lat="38.36446" lon="34.19575">
        <ele>1189.444036</ele>
        <time>2021-11-15T18:01:13.280Z</time>
      </trkpt>
      <trkpt lat="38.36497" lon="34.19252">
        <ele>1187.706169</ele>
        <time>2021-11-15T18:02:05.212Z</time>
      </trkpt>
      <trkpt lat="38.36507" lon="34.19197">
        <ele>1187.184884</ele>
        <time>2021-11-15T18:02:13.373Z</time>
      </trkpt>
      <trkpt lat="38.36508" lon="34.19184">
        <ele>1187.064758</ele>
        <time>2021-11-15T18:02:15.241Z</time>
      </trkpt>
      <trkpt lat="38.36494" lon="34.19151">
        <ele>1186.719876</ele>
        <time>2021-11-15T18:02:20.863Z</time>
      </trkpt>
      <trkpt lat="38.36491" lon="34.19102">
        <ele>1186.37082</ele>
        <time>2021-11-15T18:02:28.268Z</time>
      </trkpt>
      <trkpt lat="38.36494" lon="34.19019">
        <ele>1186.157801</ele>
        <time>2021-11-15T18:02:41.136Z</time>
      </trkpt>
      <trkpt lat="38.36496" lon="34.18973">
        <ele>1186.036477</ele>
        <time>2021-11-15T18:02:49.026Z</time>
      </trkpt>
      <trkpt lat="38.36521" lon="34.1891">
        <ele>1185.855342</ele>
        <time>2021-11-15T18:03:02.548Z</time>
      </trkpt>
      <trkpt lat="38.36515" lon="34.18843">
        <ele>1186.734257</ele>
        <time>2021-11-15T18:03:16.837Z</time>
      </trkpt>
      <trkpt lat="38.36491" lon="34.18603">
        <ele>1191.144175</ele>
        <time>2021-11-15T18:04:19.651Z</time>
      </trkpt>
      <trkpt lat="38.36458" lon="34.18279">
        <ele>1197.143941</ele>
        <time>2021-11-15T18:05:42.575Z</time>
      </trkpt>
      <trkpt lat="38.36448" lon="34.18066">
        <ele>1199.250128</ele>
        <time>2021-11-15T18:06:27.420Z</time>
      </trkpt>
      <trkpt lat="38.36452" lon="34.1797">
        <ele>1199.807583</ele>
        <time>2021-11-15T18:06:45.644Z</time>
      </trkpt>
      <trkpt lat="38.36467" lon="34.17738">
        <ele>1199.454651</ele>
        <time>2021-11-15T18:07:25.529Z</time>
      </trkpt>
      <trkpt lat="38.3651" lon="34.1721">
        <ele>1194.770151</ele>
        <time>2021-11-15T18:08:42.833Z</time>
      </trkpt>
      <trkpt lat="38.36525" lon="34.17106">
        <ele>1194.409994</ele>
        <time>2021-11-15T18:09:01.205Z</time>
      </trkpt>
      <trkpt lat="38.36546" lon="34.16987">
        <ele>1194.486821</ele>
        <time>2021-11-15T18:09:24.404Z</time>
      </trkpt>
      <trkpt lat="38.36698" lon="34.16383">
        <ele>1195.35029</ele>
        <time>2021-11-15T18:11:19.813Z</time>
      </trkpt>
      <trkpt lat="38.36739" lon="34.16231">
        <ele>1194.20297</ele>
        <time>2021-11-15T18:11:44.123Z</time>
      </trkpt>
      <trkpt lat="38.36778" lon="34.16115">
        <ele>1192.557041</ele>
        <time>2021-11-15T18:12:01.942Z</time>
      </trkpt>
      <trkpt lat="38.36813" lon="34.16034">
        <ele>1191.151722</ele>
        <time>2021-11-15T18:12:14.586Z</time>
      </trkpt>
      <trkpt lat="38.36989" lon="34.15673">
        <ele>1183.277229</ele>
        <time>2021-11-15T18:13:12.045Z</time>
      </trkpt>
      <trkpt lat="38.37162" lon="34.15263">
        <ele>1172.894553</ele>
        <time>2021-11-15T18:14:11.779Z</time>
      </trkpt>
      <trkpt lat="38.3722" lon="34.1516">
        <ele>1170.902326</ele>
        <time>2021-11-15T18:14:29.471Z</time>
      </trkpt>
      <trkpt lat="38.37404" lon="34.14872">
        <ele>1168.25814</ele>
        <time>2021-11-15T18:15:27.553Z</time>
      </trkpt>
      <trkpt lat="38.37462" lon="34.14758">
        <ele>1166.820324</ele>
        <time>2021-11-15T18:15:48.421Z</time>
      </trkpt>
      <trkpt lat="38.375" lon="34.14662">
        <ele>1165.520705</ele>
        <time>2021-11-15T18:16:03.647Z</time>
      </trkpt>
      <trkpt lat="38.37658" lon="34.1415">
        <ele>1152.194216</ele>
        <time>2021-11-15T18:17:14.005Z</time>
      </trkpt>
      <trkpt lat="38.37776" lon="34.13766">
        <ele>1141.754951</ele>
        <time>2021-11-15T18:18:06.118Z</time>
      </trkpt>
      <trkpt lat="38.37856" lon="34.13497">
        <ele>1138.550616</ele>
        <time>2021-11-15T18:18:47.145Z</time>
      </trkpt>
      <trkpt lat="38.37905" lon="34.13338">
        <ele>1138.585539</ele>
        <time>2021-11-15T18:19:19.469Z</time>
      </trkpt>
      <trkpt lat="38.37932" lon="34.13273">
        <ele>1139.377134</ele>
        <time>2021-11-15T18:19:35.662Z</time>
      </trkpt>
      <trkpt lat="38.37957" lon="34.13214">
        <ele>1140.096889</ele>
        <time>2021-11-15T18:19:50.802Z</time>
      </trkpt>
      <trkpt lat="38.37963" lon="34.13201">
        <ele>1140.255411</ele>
        <time>2021-11-15T18:19:54.090Z</time>
      </trkpt>
      <trkpt lat="38.38034" lon="34.13073">
        <ele>1141.665295</ele>
        <time>2021-11-15T18:20:29.250Z</time>
      </trkpt>
      <trkpt lat="38.38107" lon="34.12974">
        <ele>1142.770833</ele>
        <time>2021-11-15T18:20:56.004Z</time>
      </trkpt>
      <trkpt lat="38.38139" lon="34.12938">
        <ele>1143.164278</ele>
        <time>2021-11-15T18:21:05.381Z</time>
      </trkpt>
      <trkpt lat="38.38166" lon="34.12908">
        <ele>1143.486819</ele>
        <time>2021-11-15T18:21:13.521Z</time>
      </trkpt>
      <trkpt lat="38.38205" lon="34.12886">
        <ele>1143.878462</ele>
        <time>2021-11-15T18:21:24.814Z</time>
      </trkpt>
      <trkpt lat="38.38243" lon="34.1286">
        <ele>1144.273331</ele>
        <time>2021-11-15T18:21:37.967Z</time>
      </trkpt>
      <trkpt lat="38.3825" lon="34.12855">
        <ele>1144.395021</ele>
        <time>2021-11-15T18:21:39.875Z</time>
      </trkpt>
      <trkpt lat="38.38269" lon="34.12842">
        <ele>1144.818738</ele>
        <time>2021-11-15T18:21:47.139Z</time>
      </trkpt>
      <trkpt lat="38.38266" lon="34.1283">
        <ele>1145.016353</ele>
        <time>2021-11-15T18:21:50.137Z</time>
      </trkpt>
      <trkpt lat="38.38263" lon="34.12824">
        <ele>1145.124937</ele>
        <time>2021-11-15T18:21:51.327Z</time>
      </trkpt>
      <trkpt lat="38.38258" lon="34.12814">
        <ele>1145.307689</ele>
        <time>2021-11-15T18:21:53.959Z</time>
      </trkpt>
      <trkpt lat="38.38248" lon="34.12799">
        <ele>1145.616212</ele>
        <time>2021-11-15T18:21:59.675Z</time>
      </trkpt>
      <trkpt lat="38.38235" lon="34.1278">
        <ele>1145.997856</ele>
        <time>2021-11-15T18:22:04.408Z</time>
      </trkpt>
      <trkpt lat="38.38214" lon="34.12749">
        <ele>1146.619783</ele>
        <time>2021-11-15T18:22:14.195Z</time>
      </trkpt>
      <trkpt lat="38.38207" lon="34.12733">
        <ele>1146.901142</ele>
        <time>2021-11-15T18:22:19.297Z</time>
      </trkpt>
      <trkpt lat="38.38198" lon="34.12697">
        <ele>1147.492153</ele>
        <time>2021-11-15T18:22:27.968Z</time>
      </trkpt>
      <trkpt lat="38.38198" lon="34.12686">
        <ele>1147.654991</ele>
        <time>2021-11-15T18:22:31.337Z</time>
      </trkpt>
      <trkpt lat="38.38206" lon="34.12614">
        <ele>1147.97972</ele>
        <time>2021-11-15T18:22:48.434Z</time>
      </trkpt>
      <trkpt lat="38.38222" lon="34.12414">
        <ele>1148.552061</ele>
        <time>2021-11-15T18:23:21.359Z</time>
      </trkpt>
      <trkpt lat="38.38223" lon="34.12399">
        <ele>1148.626755</ele>
        <time>2021-11-15T18:23:23.447Z</time>
      </trkpt>
      <trkpt lat="38.38228" lon="34.12348">
        <ele>1148.89031</ele>
        <time>2021-11-15T18:23:31.533Z</time>
      </trkpt>
      <trkpt lat="38.38246" lon="34.12259">
        <ele>1149.358748</ele>
        <time>2021-11-15T18:23:49.862Z</time>
      </trkpt>
      <trkpt lat="38.38266" lon="34.12193">
        <ele>1150.746785</ele>
        <time>2021-11-15T18:24:07.521Z</time>
      </trkpt>
      <trkpt lat="38.3829" lon="34.12111">
        <ele>1153.893551</ele>
        <time>2021-11-15T18:24:33.825Z</time>
      </trkpt>
      <trkpt lat="38.38302" lon="34.12004">
        <ele>1157.82058</ele>
        <time>2021-11-15T18:25:13.950Z</time>
      </trkpt>
      <trkpt lat="38.383" lon="34.11941">
        <ele>1160.110587</ele>
        <time>2021-11-15T18:25:37.052Z</time>
      </trkpt>
      <trkpt lat="38.38292" lon="34.11898">
        <ele>1161.665083</ele>
        <time>2021-11-15T18:25:51.617Z</time>
      </trkpt>
      <trkpt lat="38.38289" lon="34.11879">
        <ele>1162.370117</ele>
        <time>2021-11-15T18:25:59.127Z</time>
      </trkpt>
      <trkpt lat="38.38277" lon="34.11816">
        <ele>1164.722469</ele>
        <time>2021-11-15T18:26:17.908Z</time>
      </trkpt>
      <trkpt lat="38.38263" lon="34.11695">
        <ele>1166.086904</ele>
        <time>2021-11-15T18:26:49.365Z</time>
      </trkpt>
      <trkpt lat="38.38276" lon="34.11506">
        <ele>1164.232407</ele>
        <time>2021-11-15T18:27:17.053Z</time>
      </trkpt>
      <trkpt lat="38.38254" lon="34.11302">
        <ele>1155.290195</ele>
        <time>2021-11-15T18:27:40.574Z</time>
      </trkpt>
      <trkpt lat="38.38243" lon="34.11234">
        <ele>1151.030629</ele>
        <time>2021-11-15T18:27:48.093Z</time>
      </trkpt>
      <trkpt lat="38.38241" lon="34.1121">
        <ele>1149.541281</ele>
        <time>2021-11-15T18:27:50.684Z</time>
      </trkpt>
      <trkpt lat="38.38262" lon="34.10876">
        <ele>1129.771915</ele>
        <time>2021-11-15T18:28:27.695Z</time>
      </trkpt>
      <trkpt lat="38.38266" lon="34.10679">
        <ele>1123.235289</ele>
        <time>2021-11-15T18:28:51.447Z</time>
      </trkpt>
      <trkpt lat="38.38306" lon="34.10453">
        <ele>1119.487327</ele>
        <time>2021-11-15T18:29:24.931Z</time>
      </trkpt>
      <trkpt lat="38.3832" lon="34.10326">
        <ele>1116.806846</ele>
        <time>2021-11-15T18:29:43.666Z</time>
      </trkpt>
      <trkpt lat="38.38318" lon="34.10204">
        <ele>1113.76173</ele>
        <time>2021-11-15T18:29:59.135Z</time>
      </trkpt>
      <trkpt lat="38.38326" lon="34.09821">
        <ele>1093.885602</ele>
        <time>2021-11-15T18:30:42.200Z</time>
      </trkpt>
      <trkpt lat="38.383" lon="34.09747">
        <ele>1089.340661</ele>
        <time>2021-11-15T18:30:51.273Z</time>
      </trkpt>
      <trkpt lat="38.38244" lon="34.09662">
        <ele>1081.482293</ele>
        <time>2021-11-15T18:31:03.534Z</time>
      </trkpt>
      <trkpt lat="38.38193" lon="34.09561">
        <ele>1072.72363</ele>
        <time>2021-11-15T18:31:16.395Z</time>
      </trkpt>
      <trkpt lat="38.38137" lon="34.0931">
        <ele>1047.46224</ele>
        <time>2021-11-15T18:31:43.298Z</time>
      </trkpt>
      <trkpt lat="38.38132" lon="34.09195">
        <ele>1038.879069</ele>
        <time>2021-11-15T18:31:55.448Z</time>
      </trkpt>
      <trkpt lat="38.38132" lon="34.09184">
        <ele>1038.078884</ele>
        <time>2021-11-15T18:31:56.615Z</time>
      </trkpt>
      <trkpt lat="38.3813" lon="34.09138">
        <ele>1034.594927</ele>
        <time>2021-11-15T18:32:01.744Z</time>
      </trkpt>
      <trkpt lat="38.38121" lon="34.09063">
        <ele>1030.61222</ele>
        <time>2021-11-15T18:32:10.324Z</time>
      </trkpt>
      <trkpt lat="38.38107" lon="34.08981">
        <ele>1028.069247</ele>
        <time>2021-11-15T18:32:21.050Z</time>
      </trkpt>
      <trkpt lat="38.38073" lon="34.08853">
        <ele>1024.29578</ele>
        <time>2021-11-15T18:32:38.675Z</time>
      </trkpt>
      <trkpt lat="38.38018" lon="34.08695">
        <ele>1021.042205</ele>
        <time>2021-11-15T18:33:01.287Z</time>
      </trkpt>
      <trkpt lat="38.38006" lon="34.08645">
        <ele>1020.587513</ele>
        <time>2021-11-15T18:33:08.923Z</time>
      </trkpt>
      <trkpt lat="38.37994" lon="34.08539">
        <ele>1021.038041</ele>
        <time>2021-11-15T18:33:27.788Z</time>
      </trkpt>
      <trkpt lat="38.37982" lon="34.08237">
        <ele>1024.05325</ele>
        <time>2021-11-15T18:34:39.314Z</time>
      </trkpt>
      <trkpt lat="38.38007" lon="34.08021">
        <ele>1024.204338</ele>
        <time>2021-11-15T18:35:18.475Z</time>
      </trkpt>
      <trkpt lat="38.38022" lon="34.07954">
        <ele>1023.636736</ele>
        <time>2021-11-15T18:35:28.433Z</time>
      </trkpt>
      <trkpt lat="38.38039" lon="34.07906">
        <ele>1022.782904</ele>
        <time>2021-11-15T18:35:35.581Z</time>
      </trkpt>
      <trkpt lat="38.3806" lon="34.0787">
        <ele>1022.042331</ele>
        <time>2021-11-15T18:35:41.669Z</time>
      </trkpt>
      <trkpt lat="38.38144" lon="34.07755">
        <ele>1019.559688</ele>
        <time>2021-11-15T18:36:02.561Z</time>
      </trkpt>
      <trkpt lat="38.38163" lon="34.07712">
        <ele>1018.824094</ele>
        <time>2021-11-15T18:36:09.348Z</time>
      </trkpt>
      <trkpt lat="38.38183" lon="34.0763">
        <ele>1017.531055</ele>
        <time>2021-11-15T18:36:21.558Z</time>
      </trkpt>
      <trkpt lat="38.3818" lon="34.0753">
        <ele>1016.329164</ele>
        <time>2021-11-15T18:36:36.068Z</time>
      </trkpt>
      <trkpt lat="38.38183" lon="34.07412">
        <ele>1015.096395</ele>
        <time>2021-11-15T18:36:53.502Z</time>
      </trkpt>
      <trkpt lat="38.38168" lon="34.07172">
        <ele>1012.79444</ele>
        <time>2021-11-15T18:37:28.640Z</time>
      </trkpt>
      <trkpt lat="38.38169" lon="34.07123">
        <ele>1012.471409</ele>
        <time>2021-11-15T18:37:36.073Z</time>
      </trkpt>
      <trkpt lat="38.38177" lon="34.0707">
        <ele>1012.574592</ele>
        <time>2021-11-15T18:37:44.656Z</time>
      </trkpt>
      <trkpt lat="38.38191" lon="34.07008">
        <ele>1012.69702</ele>
        <time>2021-11-15T18:37:55.944Z</time>
      </trkpt>
      <trkpt lat="38.38218" lon="34.06905">
        <ele>1013.025606</ele>
        <time>2021-11-15T18:38:17.703Z</time>
      </trkpt>
      <trkpt lat="38.38301" lon="34.06667">
        <ele>1016.968826</ele>
        <time>2021-11-15T18:39:20.495Z</time>
      </trkpt>
      <trkpt lat="38.38343" lon="34.0652">
        <ele>1019.506771</ele>
        <time>2021-11-15T18:39:56.858Z</time>
      </trkpt>
      <trkpt lat="38.38367" lon="34.06459">
        <ele>1020.561779</ele>
        <time>2021-11-15T18:40:14.634Z</time>
      </trkpt>
      <trkpt lat="38.38377" lon="34.06416">
        <ele>1021.22187</ele>
        <time>2021-11-15T18:40:25.575Z</time>
      </trkpt>
      <trkpt lat="38.3838" lon="34.0639">
        <ele>1021.608779</ele>
        <time>2021-11-15T18:40:30.739Z</time>
      </trkpt>
      <trkpt lat="38.38381" lon="34.06377">
        <ele>1021.800418</ele>
        <time>2021-11-15T18:40:35.098Z</time>
      </trkpt>
      <trkpt lat="38.38384" lon="34.06318">
        <ele>1022.684063</ele>
        <time>2021-11-15T18:40:48.734Z</time>
      </trkpt>
      <trkpt lat="38.38378" lon="34.06211">
        <ele>1023.417892</ele>
        <time>2021-11-15T18:41:11.274Z</time>
      </trkpt>
      <trkpt lat="38.38366" lon="34.06165">
        <ele>1023.417583</ele>
        <time>2021-11-15T18:41:21.183Z</time>
      </trkpt>
      <trkpt lat="38.38325" lon="34.06073">
        <ele>1023.416913</ele>
        <time>2021-11-15T18:41:37.477Z</time>
      </trkpt>
      <trkpt lat="38.38278" lon="34.05981">
        <ele>1022.635941</ele>
        <time>2021-11-15T18:41:53.534Z</time>
      </trkpt>
      <trkpt lat="38.38169" lon="34.05769">
        <ele>1020.956885</ele>
        <time>2021-11-15T18:42:31.999Z</time>
      </trkpt>
      <trkpt lat="38.38101" lon="34.05669">
        <ele>1020.169999</ele>
        <time>2021-11-15T18:42:53.916Z</time>
      </trkpt>
      <trkpt lat="38.38063" lon="34.05599">
        <ele>1018.842372</ele>
        <time>2021-11-15T18:43:10.304Z</time>
      </trkpt>
      <trkpt lat="38.38043" lon="34.05562">
        <ele>1018.138803</ele>
        <time>2021-11-15T18:43:16.616Z</time>
      </trkpt>
      <trkpt lat="38.38021" lon="34.05471">
        <ele>1016.122991</ele>
        <time>2021-11-15T18:43:28.302Z</time>
      </trkpt>
      <trkpt lat="38.38007" lon="34.05423">
        <ele>1013.331798</ele>
        <time>2021-11-15T18:43:34.204Z</time>
      </trkpt>
      <trkpt lat="38.38004" lon="34.0542">
        <ele>1013.094897</ele>
        <time>2021-11-15T18:43:34.982Z</time>
      </trkpt>
      <trkpt lat="38.38042" lon="34.05438">
        <ele>1010.331675</ele>
        <time>2021-11-15T18:43:45.469Z</time>
      </trkpt>
      <trkpt lat="38.38062" lon="34.05429">
        <ele>1008.88937</ele>
        <time>2021-11-15T18:43:51.070Z</time>
      </trkpt>
      <trkpt lat="38.38079" lon="34.05409">
        <ele>1007.313921</ele>
        <time>2021-11-15T18:43:56.889Z</time>
      </trkpt>
      <trkpt lat="38.38088" lon="34.05392">
        <ele>1006.162507</ele>
        <time>2021-11-15T18:44:01.195Z</time>
      </trkpt>
      <trkpt lat="38.38093" lon="34.05383">
        <ele>1005.618173</ele>
        <time>2021-11-15T18:44:03.029Z</time>
      </trkpt>
      <trkpt lat="38.38104" lon="34.05365">
        <ele>1004.451247</ele>
        <time>2021-11-15T18:44:07.971Z</time>
      </trkpt>
      <trkpt lat="38.38123" lon="34.05344">
        <ele>1003.50027</ele>
        <time>2021-11-15T18:44:14.052Z</time>
      </trkpt>
      <trkpt lat="38.38236" lon="34.05253">
        <ele>998.305599</ele>
        <time>2021-11-15T18:44:52.119Z</time>
      </trkpt>
      <trkpt lat="38.38358" lon="34.05139">
        <ele>1000.533522</ele>
        <time>2021-11-15T18:46:01.258Z</time>
      </trkpt>
      <trkpt lat="38.384" lon="34.05166">
        <ele>1001.57368</ele>
        <time>2021-11-15T18:46:26.408Z</time>
      </trkpt>
      <trkpt lat="38.38431" lon="34.05173">
        <ele>1002.47584</ele>
        <time>2021-11-15T18:46:42.846Z</time>
      </trkpt>
      <trkpt lat="38.38455" lon="34.05189">
        <ele>1003.271703</ele>
        <time>2021-11-15T18:46:57.309Z</time>
      </trkpt>
      <trkpt lat="38.38467" lon="34.05181">
        <ele>1003.645177</ele>
        <time>2021-11-15T18:47:04.653Z</time>
      </trkpt>
      <trkpt lat="38.38448" lon="34.05138">
        <ele>1004.761618</ele>
        <time>2021-11-15T18:47:18.833Z</time>
      </trkpt>
      <trkpt lat="38.38444" lon="34.05007">
        <ele>1006.428356</ele>
        <time>2021-11-15T18:47:48.284Z</time>
      </trkpt>
      <trkpt lat="38.38448" lon="34.04994">
        <ele>1006.3129</ele>
        <time>2021-11-15T18:47:51.692Z</time>
      </trkpt>
      <trkpt lat="38.38466" lon="34.04927">
        <ele>1005.732693</ele>
        <time>2021-11-15T18:48:02.286Z</time>
      </trkpt>
      <trkpt lat="38.38476" lon="34.0487">
        <ele>1005.254212</ele>
        <time>2021-11-15T18:48:10.244Z</time>
      </trkpt>
      <trkpt lat="38.38522" lon="34.0479">
        <ele>1003.777865</ele>
        <time>2021-11-15T18:48:22.874Z</time>
      </trkpt>
      <trkpt lat="38.38527" lon="34.04757">
        <ele>1003.094283</ele>
        <time>2021-11-15T18:48:27.164Z</time>
      </trkpt>
      <trkpt lat="38.38522" lon="34.04736">
        <ele>1002.649778</ele>
        <time>2021-11-15T18:48:30.049Z</time>
      </trkpt>
      <trkpt lat="38.38503" lon="34.0471">
        <ele>1001.931951</ele>
        <time>2021-11-15T18:48:34.724Z</time>
      </trkpt>
      <trkpt lat="38.38477" lon="34.04689">
        <ele>1001.141436</ele>
        <time>2021-11-15T18:48:39.966Z</time>
      </trkpt>
      <trkpt lat="38.38395" lon="34.0464">
        <ele>999.678576</ele>
        <time>2021-11-15T18:48:56.333Z</time>
      </trkpt>
      <trkpt lat="38.38379" lon="34.04628">
        <ele>999.492609</ele>
        <time>2021-11-15T18:48:59.742Z</time>
      </trkpt>
      <trkpt lat="38.38372" lon="34.04616">
        <ele>999.376389</ele>
        <time>2021-11-15T18:49:01.963Z</time>
      </trkpt>
      <trkpt lat="38.38366" lon="34.04579">
        <ele>999.072591</ele>
        <time>2021-11-15T18:49:07.861Z</time>
      </trkpt>
      <trkpt lat="38.3837" lon="34.04524">
        <ele>998.637114</ele>
        <time>2021-11-15T18:49:16.723Z</time>
      </trkpt>
      <trkpt lat="38.38359" lon="34.04444">
        <ele>998.501788</ele>
        <time>2021-11-15T18:49:31.086Z</time>
      </trkpt>
      <trkpt lat="38.38368" lon="34.0439">
        <ele>998.572252</ele>
        <time>2021-11-15T18:49:41.080Z</time>
      </trkpt>
      <trkpt lat="38.38374" lon="34.04324">
        <ele>998.657651</ele>
        <time>2021-11-15T18:49:53.184Z</time>
      </trkpt>
      <trkpt lat="38.38375" lon="34.0431">
        <ele>998.675512</ele>
        <time>2021-11-15T18:49:55.817Z</time>
      </trkpt>
      <trkpt lat="38.38382" lon="34.04289">
        <ele>998.705124</ele>
        <time>2021-11-15T18:49:59.909Z</time>
      </trkpt>
      <trkpt lat="38.38403" lon="34.04251">
        <ele>998.74717</ele>
        <time>2021-11-15T18:50:08.369Z</time>
      </trkpt>
      <trkpt lat="38.38403" lon="34.04239">
        <ele>998.756391</ele>
        <time>2021-11-15T18:50:10.716Z</time>
      </trkpt>
      <trkpt lat="38.3838" lon="34.04203">
        <ele>998.789629</ele>
        <time>2021-11-15T18:50:19.084Z</time>
      </trkpt>
      <trkpt lat="38.38372" lon="34.04182">
        <ele>998.806378</ele>
        <time>2021-11-15T18:50:23.225Z</time>
      </trkpt>
      <trkpt lat="38.3837" lon="34.04178">
        <ele>998.809848</ele>
        <time>2021-11-15T18:50:24.093Z</time>
      </trkpt>
      <trkpt lat="38.38361" lon="34.04144">
        <ele>998.835722</ele>
        <time>2021-11-15T18:50:30.343Z</time>
      </trkpt>
      <trkpt lat="38.3834" lon="34.04059">
        <ele>999.133177</ele>
        <time>2021-11-15T18:50:44.339Z</time>
      </trkpt>
      <trkpt lat="38.38339" lon="34.04055">
        <ele>999.218585</ele>
        <time>2021-11-15T18:50:45.059Z</time>
      </trkpt>
      <trkpt lat="38.38328" lon="34.03963">
        <ele>1001.016238</ele>
        <time>2021-11-15T18:51:05.974Z</time>
      </trkpt>
      <trkpt lat="38.38316" lon="34.03964">
        <ele>1001.329314</ele>
        <time>2021-11-15T18:51:10.310Z</time>
      </trkpt>
      <trkpt lat="38.38305" lon="34.03958">
        <ele>1001.623749</ele>
        <time>2021-11-15T18:51:14.978Z</time>
      </trkpt>
      <trkpt lat="38.38301" lon="34.03955">
        <ele>1001.739097</ele>
        <time>2021-11-15T18:51:16.764Z</time>
      </trkpt>
      <trkpt lat="38.3829" lon="34.03953">
        <ele>1002.008287</ele>
        <time>2021-11-15T18:51:21.896Z</time>
      </trkpt>
      <trkpt lat="38.38291" lon="34.0385">
        <ele>1003.762354</ele>
        <time>2021-11-15T18:51:53.812Z</time>
      </trkpt>
      <trkpt lat="38.38294" lon="34.03803">
        <ele>1004.352122</ele>
        <time>2021-11-15T18:52:07.677Z</time>
      </trkpt>
      <trkpt lat="38.38299" lon="34.0379">
        <ele>1004.538295</ele>
        <time>2021-11-15T18:52:11.414Z</time>
      </trkpt>
      <trkpt lat="38.38308" lon="34.03773">
        <ele>1004.789791</ele>
        <time>2021-11-15T18:52:17.934Z</time>
      </trkpt>
      <trkpt lat="38.38267" lon="34.03611">
        <ele>1004.728818</ele>
        <time>2021-11-15T18:52:45.579Z</time>
      </trkpt>
      <trkpt lat="38.3825" lon="34.03542">
        <ele>1002.957653</ele>
        <time>2021-11-15T18:52:54.170Z</time>
      </trkpt>
      <trkpt lat="38.38244" lon="34.03515">
        <ele>1002.263521</ele>
        <time>2021-11-15T18:52:57.521Z</time>
      </trkpt>
      <trkpt lat="38.38237" lon="34.03473">
        <ele>1001.190524</ele>
        <time>2021-11-15T18:53:02.777Z</time>
      </trkpt>
      <trkpt lat="38.38237" lon="34.03454">
        <ele>1000.733123</ele>
        <time>2021-11-15T18:53:05.024Z</time>
      </trkpt>
      <trkpt lat="38.38243" lon="34.03418">
        <ele>1000.257052</ele>
        <time>2021-11-15T18:53:09.716Z</time>
      </trkpt>
      <trkpt lat="38.38254" lon="34.03393">
        <ele>999.993302</ele>
        <time>2021-11-15T18:53:13.383Z</time>
      </trkpt>
      <trkpt lat="38.38281" lon="34.03353">
        <ele>999.510865</ele>
        <time>2021-11-15T18:53:20.766Z</time>
      </trkpt>
      <trkpt lat="38.38295" lon="34.03335">
        <ele>999.279193</ele>
        <time>2021-11-15T18:53:24.588Z</time>
      </trkpt>
      <trkpt lat="38.38301" lon="34.03336">
        <ele>999.210252</ele>
        <time>2021-11-15T18:53:25.931Z</time>
      </trkpt>
      <trkpt lat="38.38307" lon="34.03342">
        <ele>999.124987</ele>
        <time>2021-11-15T18:53:27.652Z</time>
      </trkpt>
      <trkpt lat="38.38317" lon="34.03335">
        <ele>998.992679</ele>
        <time>2021-11-15T18:53:30.395Z</time>
      </trkpt>
      <trkpt lat="38.38329" lon="34.03329">
        <ele>998.842406</ele>
        <time>2021-11-15T18:53:33.342Z</time>
      </trkpt>
      <trkpt lat="38.38483" lon="34.03181">
        <ele>999.970507</ele>
        <time>2021-11-15T18:54:25.623Z</time>
      </trkpt>
      <trkpt lat="38.38498" lon="34.03167">
        <ele>1000.159111</ele>
        <time>2021-11-15T18:54:30.263Z</time>
      </trkpt>
      <trkpt lat="38.38538" lon="34.0313">
        <ele>1000.211368</ele>
        <time>2021-11-15T18:54:41.847Z</time>
      </trkpt>
      <trkpt lat="38.3857" lon="34.03101">
        <ele>1000.21905</ele>
        <time>2021-11-15T18:54:50.854Z</time>
      </trkpt>
      <trkpt lat="38.38597" lon="34.03086">
        <ele>1000.224894</ele>
        <time>2021-11-15T18:54:57.660Z</time>
      </trkpt>
      <trkpt lat="38.38666" lon="34.03057">
        <ele>1000.186473</ele>
        <time>2021-11-15T18:55:12.785Z</time>
      </trkpt>
      <trkpt lat="38.38781" lon="34.03009">
        <ele>999.151487</ele>
        <time>2021-11-15T18:55:36.417Z</time>
      </trkpt>
      <trkpt lat="38.38779" lon="34.03001">
        <ele>999.098492</ele>
        <time>2021-11-15T18:55:37.586Z</time>
      </trkpt>
      <trkpt lat="38.38777" lon="34.02989">
        <ele>999.019127</ele>
        <time>2021-11-15T18:55:39.346Z</time>
      </trkpt>
      <trkpt lat="38.38776" lon="34.02983">
        <ele>998.978656</ele>
        <time>2021-11-15T18:55:40.239Z</time>
      </trkpt>
      <trkpt lat="38.38786" lon="34.02971">
        <ele>998.864438</ele>
        <time>2021-11-15T18:55:43.203Z</time>
      </trkpt>
      <trkpt lat="38.38791" lon="34.02965">
        <ele>998.803379</ele>
        <time>2021-11-15T18:55:44.658Z</time>
      </trkpt>
      <trkpt lat="38.38841" lon="34.02909">
        <ele>998.203577</ele>
        <time>2021-11-15T18:55:58.201Z</time>
      </trkpt>
      <trkpt lat="38.38853" lon="34.02895">
        <ele>998.061468</ele>
        <time>2021-11-15T18:56:01.160Z</time>
      </trkpt>
      <trkpt lat="38.38868" lon="34.02879">
        <ele>997.878182</ele>
        <time>2021-11-15T18:56:05.408Z</time>
      </trkpt>
      <trkpt lat="38.38877" lon="34.0287">
        <ele>997.775834</ele>
        <time>2021-11-15T18:56:07.530Z</time>
      </trkpt>
      <trkpt lat="38.38964" lon="34.02744">
        <ele>996.572137</ele>
        <time>2021-11-15T18:56:35.281Z</time>
      </trkpt>
      <trkpt lat="38.39006" lon="34.0269">
        <ele>996.013857</ele>
        <time>2021-11-15T18:56:47.710Z</time>
      </trkpt>
      <trkpt lat="38.3903" lon="34.02657">
        <ele>995.682289</ele>
        <time>2021-11-15T18:56:54.705Z</time>
      </trkpt>
      <trkpt lat="38.39038" lon="34.02647">
        <ele>995.577954</ele>
        <time>2021-11-15T18:56:56.823Z</time>
      </trkpt>
      <trkpt lat="38.3908" lon="34.02585">
        <ele>994.758646</ele>
        <time>2021-11-15T18:57:09.322Z</time>
      </trkpt>
      <trkpt lat="38.39086" lon="34.02577">
        <ele>994.636996</ele>
        <time>2021-11-15T18:57:10.904Z</time>
      </trkpt>
      <trkpt lat="38.39104" lon="34.02553">
        <ele>994.272796</ele>
        <time>2021-11-15T18:57:15.897Z</time>
      </trkpt>
      <trkpt lat="38.39123" lon="34.02523">
        <ele>993.836046</ele>
        <time>2021-11-15T18:57:21.749Z</time>
      </trkpt>
      <trkpt lat="38.3916" lon="34.02458">
        <ele>992.933175</ele>
        <time>2021-11-15T18:57:33.694Z</time>
      </trkpt>
      <trkpt lat="38.3921" lon="34.02388">
        <ele>992.679626</ele>
        <time>2021-11-15T18:57:48.874Z</time>
      </trkpt>
      <trkpt lat="38.39213" lon="34.02373">
        <ele>992.653166</ele>
        <time>2021-11-15T18:57:51.676Z</time>
      </trkpt>
      <trkpt lat="38.39213" lon="34.02298">
        <ele>992.525821</ele>
        <time>2021-11-15T18:58:05.120Z</time>
      </trkpt>
      <trkpt lat="38.39236" lon="34.02297">
        <ele>992.47513</ele>
        <time>2021-11-15T18:58:11.193Z</time>
      </trkpt>
      <trkpt lat="38.39269" lon="34.02284">
        <ele>992.570136</ele>
        <time>2021-11-15T18:58:20.121Z</time>
      </trkpt>
      <trkpt lat="38.39281" lon="34.02273">
        <ele>992.700726</ele>
        <time>2021-11-15T18:58:23.611Z</time>
      </trkpt>
      <trkpt lat="38.39316" lon="34.02203">
        <ele>993.301865</ele>
        <time>2021-11-15T18:58:40.981Z</time>
      </trkpt>
      <trkpt lat="38.39335" lon="34.02186">
        <ele>993.512112</ele>
        <time>2021-11-15T18:58:47.476Z</time>
      </trkpt>
      <trkpt lat="38.39354" lon="34.02171">
        <ele>993.72024</ele>
        <time>2021-11-15T18:58:54.019Z</time>
      </trkpt>
      <trkpt lat="38.39361" lon="34.02165">
        <ele>993.800618</ele>
        <time>2021-11-15T18:58:56.339Z</time>
      </trkpt>
      <trkpt lat="38.3937" lon="34.02155">
        <ele>993.907501</ele>
        <time>2021-11-15T18:58:59.494Z</time>
      </trkpt>
      <trkpt lat="38.39388" lon="34.02139">
        <ele>994.105944</ele>
        <time>2021-11-15T18:59:05.412Z</time>
      </trkpt>
      <trkpt lat="38.39458" lon="34.02084">
        <ele>994.65784</ele>
        <time>2021-11-15T18:59:26.645Z</time>
      </trkpt>
      <trkpt lat="38.39524" lon="34.0203">
        <ele>995.193167</ele>
        <time>2021-11-15T18:59:45.987Z</time>
      </trkpt>
      <trkpt lat="38.39577" lon="34.01987">
        <ele>995.344735</ele>
        <time>2021-11-15T19:00:00.107Z</time>
      </trkpt>
      <trkpt lat="38.39589" lon="34.01978">
        <ele>995.356021</ele>
        <time>2021-11-15T19:00:03.017Z</time>
      </trkpt>
      <trkpt lat="38.39616" lon="34.01955">
        <ele>995.383486</ele>
        <time>2021-11-15T19:00:10.137Z</time>
      </trkpt>
      <trkpt lat="38.39639" lon="34.01936">
        <ele>995.407237</ele>
        <time>2021-11-15T19:00:16.451Z</time>
      </trkpt>
      <trkpt lat="38.39678" lon="34.01904">
        <ele>995.446703</ele>
        <time>2021-11-15T19:00:26.987Z</time>
      </trkpt>
      <trkpt lat="38.39708" lon="34.01879">
        <ele>995.459616</ele>
        <time>2021-11-15T19:00:34.974Z</time>
      </trkpt>
      <trkpt lat="38.39739" lon="34.01852">
        <ele>995.46242</ele>
        <time>2021-11-15T19:00:43.538Z</time>
      </trkpt>
      <trkpt lat="38.39759" lon="34.01835">
        <ele>995.464211</ele>
        <time>2021-11-15T19:00:49.156Z</time>
      </trkpt>
      <trkpt lat="38.39784" lon="34.01802">
        <ele>995.466885</ele>
        <time>2021-11-15T19:00:57.239Z</time>
      </trkpt>
      <trkpt lat="38.39787" lon="34.01798">
        <ele>995.467223</ele>
        <time>2021-11-15T19:00:58.355Z</time>
      </trkpt>
      <trkpt lat="38.39841" lon="34.01688">
        <ele>995.143012</ele>
        <time>2021-11-15T19:01:19.999Z</time>
      </trkpt>
      <trkpt lat="38.39847" lon="34.01679">
        <ele>995.080001</ele>
        <time>2021-11-15T19:01:21.866Z</time>
      </trkpt>
      <trkpt lat="38.39916" lon="34.01549">
        <ele>994.200129</ele>
        <time>2021-11-15T19:01:45.935Z</time>
      </trkpt>
      <trkpt lat="38.39924" lon="34.01532">
        <ele>994.06806</ele>
        <time>2021-11-15T19:01:48.812Z</time>
      </trkpt>
      <trkpt lat="38.39989" lon="34.01399">
        <ele>992.957777</ele>
        <time>2021-11-15T19:02:12.769Z</time>
      </trkpt>
      <trkpt lat="38.40008" lon="34.0136">
        <ele>992.63477</ele>
        <time>2021-11-15T19:02:19.992Z</time>
      </trkpt>
      <trkpt lat="38.40052" lon="34.01273">
        <ele>991.787144</ele>
        <time>2021-11-15T19:02:35.889Z</time>
      </trkpt>
      <trkpt lat="38.40071" lon="34.01241">
        <ele>991.448513</ele>
        <time>2021-11-15T19:02:42.059Z</time>
      </trkpt>
      <trkpt lat="38.40073" lon="34.01239">
        <ele>991.416954</ele>
        <time>2021-11-15T19:02:42.567Z</time>
      </trkpt>
      <trkpt lat="38.40128" lon="34.0107">
        <ele>989.722349</ele>
        <time>2021-11-15T19:03:10.418Z</time>
      </trkpt>
      <trkpt lat="38.40181" lon="34.00905">
        <ele>987.945842</ele>
        <time>2021-11-15T19:03:37.837Z</time>
      </trkpt>
      <trkpt lat="38.40241" lon="34.00738">
        <ele>986.248761</ele>
        <time>2021-11-15T19:04:06.299Z</time>
      </trkpt>
      <trkpt lat="38.40237" lon="34.00736">
        <ele>986.195913</ele>
        <time>2021-11-15T19:04:07.106Z</time>
      </trkpt>
      <trkpt lat="38.40195" lon="34.00707">
        <ele>985.850201</ele>
        <time>2021-11-15T19:04:16.529Z</time>
      </trkpt>
      <trkpt lat="38.40189" lon="34.00703">
        <ele>985.807153</ele>
        <time>2021-11-15T19:04:17.665Z</time>
      </trkpt>
      <trkpt lat="38.4015" lon="34.00677">
        <ele>985.490993</ele>
        <time>2021-11-15T19:04:26.483Z</time>
      </trkpt>
      <trkpt lat="38.40089" lon="34.00635">
        <ele>984.992037</ele>
        <time>2021-11-15T19:04:40.518Z</time>
      </trkpt>
      <trkpt lat="38.40097" lon="34.00621">
        <ele>984.900022</ele>
        <time>2021-11-15T19:04:43.359Z</time>
      </trkpt>
      <trkpt lat="38.40114" lon="34.00594">
        <ele>984.830599</ele>
        <time>2021-11-15T19:04:48.931Z</time>
      </trkpt>
      <trkpt lat="38.40126" lon="34.00574">
        <ele>984.778492</ele>
        <time>2021-11-15T19:04:53.295Z</time>
      </trkpt>
      <trkpt lat="38.40305" lon="34.00262">
        <ele>984.065087</ele>
        <time>2021-11-15T19:05:58.591Z</time>
      </trkpt>
      <trkpt lat="38.40347" lon="34.00194">
        <ele>983.708784</ele>
        <time>2021-11-15T19:06:12.733Z</time>
      </trkpt>
      <trkpt lat="38.40375" lon="34.00149">
        <ele>983.452088</ele>
        <time>2021-11-15T19:06:21.701Z</time>
      </trkpt>
      <trkpt lat="38.404" lon="34.00102">
        <ele>983.193594</ele>
        <time>2021-11-15T19:06:30.640Z</time>
      </trkpt>
      <trkpt lat="38.40412" lon="34.00072">
        <ele>983.041999</ele>
        <time>2021-11-15T19:06:35.878Z</time>
      </trkpt>
      <trkpt lat="38.40439" lon="34">
        <ele>982.838931</ele>
        <time>2021-11-15T19:06:48.424Z</time>
      </trkpt>
      <trkpt lat="38.40483" lon="33.99882">
        <ele>982.530597</ele>
        <time>2021-11-15T19:07:09.829Z</time>
      </trkpt>
      <trkpt lat="38.40498" lon="33.99855">
        <ele>982.512768</ele>
        <time>2021-11-15T19:07:15.998Z</time>
      </trkpt>
      <trkpt lat="38.40566" lon="33.99779">
        <ele>983.170079</ele>
        <time>2021-11-15T19:07:38.583Z</time>
      </trkpt>
      <trkpt lat="38.40583" lon="33.99765">
        <ele>983.312773</ele>
        <time>2021-11-15T19:07:43.907Z</time>
      </trkpt>
      <trkpt lat="38.40589" lon="33.99766">
        <ele>983.354108</ele>
        <time>2021-11-15T19:07:45.396Z</time>
      </trkpt>
      <trkpt lat="38.40599" lon="33.99757">
        <ele>983.444861</ele>
        <time>2021-11-15T19:07:48.469Z</time>
      </trkpt>
      <trkpt lat="38.40601" lon="33.99749">
        <ele>983.490884</ele>
        <time>2021-11-15T19:07:50.300Z</time>
      </trkpt>
      <trkpt lat="38.40647" lon="33.99696">
        <ele>983.958051</ele>
        <time>2021-11-15T19:08:06.554Z</time>
      </trkpt>
      <trkpt lat="38.40652" lon="33.99691">
        <ele>984.005751</ele>
        <time>2021-11-15T19:08:08.229Z</time>
      </trkpt>
      <trkpt lat="38.40721" lon="33.99612">
        <ele>984.746592</ele>
        <time>2021-11-15T19:08:32.193Z</time>
      </trkpt>
      <trkpt lat="38.40796" lon="33.99526">
        <ele>985.743095</ele>
        <time>2021-11-15T19:08:56.590Z</time>
      </trkpt>
      <trkpt lat="38.40807" lon="33.99512">
        <ele>985.932066</ele>
        <time>2021-11-15T19:09:00.442Z</time>
      </trkpt>
      <trkpt lat="38.40856" lon="33.99444">
        <ele>986.834394</ele>
        <time>2021-11-15T19:09:20.674Z</time>
      </trkpt>
      <trkpt lat="38.40867" lon="33.99428">
        <ele>987.037726</ele>
        <time>2021-11-15T19:09:25.527Z</time>
      </trkpt>
      <trkpt lat="38.40893" lon="33.99388">
        <ele>987.589676</ele>
        <time>2021-11-15T19:09:37.673Z</time>
      </trkpt>
      <trkpt lat="38.40908" lon="33.99357">
        <ele>988.089013</ele>
        <time>2021-11-15T19:09:46.157Z</time>
      </trkpt>
      <trkpt lat="38.40965" lon="33.99365">
        <ele>989.076822</ele>
        <time>2021-11-15T19:10:03.655Z</time>
      </trkpt>
      <trkpt lat="38.40974" lon="33.99364">
        <ele>989.242184</ele>
        <time>2021-11-15T19:10:06.699Z</time>
      </trkpt>
      <trkpt lat="38.40985" lon="33.99304">
        <ele>990.088781</ele>
        <time>2021-11-15T19:10:21.159Z</time>
      </trkpt>
      <trkpt lat="38.41007" lon="33.99217">
        <ele>990.700045</ele>
        <time>2021-11-15T19:10:40.782Z</time>
      </trkpt>
      <trkpt lat="38.41036" lon="33.99166">
        <ele>990.853237</ele>
        <time>2021-11-15T19:10:52.435Z</time>
      </trkpt>
      <trkpt lat="38.41039" lon="33.9916">
        <ele>990.869219</ele>
        <time>2021-11-15T19:10:53.679Z</time>
      </trkpt>
      <trkpt lat="38.41044" lon="33.99148">
        <ele>990.905314</ele>
        <time>2021-11-15T19:10:56.160Z</time>
      </trkpt>
      <trkpt lat="38.41147" lon="33.98965">
        <ele>990.762379</ele>
        <time>2021-11-15T19:11:32.885Z</time>
      </trkpt>
      <trkpt lat="38.41238" lon="33.98804">
        <ele>990.554738</ele>
        <time>2021-11-15T19:12:05.930Z</time>
      </trkpt>
      <trkpt lat="38.41259" lon="33.98749">
        <ele>990.579787</ele>
        <time>2021-11-15T19:12:17.003Z</time>
      </trkpt>
      <trkpt lat="38.41303" lon="33.98636">
        <ele>990.637151</ele>
        <time>2021-11-15T19:12:40.567Z</time>
      </trkpt>
      <trkpt lat="38.41334" lon="33.98558">
        <ele>990.680197</ele>
        <time>2021-11-15T19:12:56.512Z</time>
      </trkpt>
      <trkpt lat="38.41364" lon="33.98483">
        <ele>990.688615</ele>
        <time>2021-11-15T19:13:10.865Z</time>
      </trkpt>
      <trkpt lat="38.41405" lon="33.9838">
        <ele>989.78162</ele>
        <time>2021-11-15T19:13:28.432Z</time>
      </trkpt>
      <trkpt lat="38.41429" lon="33.98324">
        <ele>989.280321</ele>
        <time>2021-11-15T19:13:37.732Z</time>
      </trkpt>
      <trkpt lat="38.41481" lon="33.98192">
        <ele>988.467488</ele>
        <time>2021-11-15T19:13:59.738Z</time>
      </trkpt>
      <trkpt lat="38.41482" lon="33.98189">
        <ele>988.453099</ele>
        <time>2021-11-15T19:14:00.290Z</time>
      </trkpt>
      <trkpt lat="38.41565" lon="33.9797">
        <ele>988.078963</ele>
        <time>2021-11-15T19:14:41.785Z</time>
      </trkpt>
      <trkpt lat="38.41642" lon="33.9777">
        <ele>988.528929</ele>
        <time>2021-11-15T19:15:24.041Z</time>
      </trkpt>
      <trkpt lat="38.41668" lon="33.97723">
        <ele>988.672388</ele>
        <time>2021-11-15T19:15:34.266Z</time>
      </trkpt>
      <trkpt lat="38.41688" lon="33.97703">
        <ele>988.757468</ele>
        <time>2021-11-15T19:15:40.442Z</time>
      </trkpt>
      <trkpt lat="38.41746" lon="33.97654">
        <ele>988.922496</ele>
        <time>2021-11-15T19:15:56.172Z</time>
      </trkpt>
      <trkpt lat="38.41781" lon="33.97639">
        <ele>988.998502</ele>
        <time>2021-11-15T19:16:04.770Z</time>
      </trkpt>
      <trkpt lat="38.41786" lon="33.97634">
        <ele>989.011287</ele>
        <time>2021-11-15T19:16:06.040Z</time>
      </trkpt>
      <trkpt lat="38.41797" lon="33.97628">
        <ele>989.035649</ele>
        <time>2021-11-15T19:16:08.799Z</time>
      </trkpt>
      <trkpt lat="38.4183" lon="33.97611">
        <ele>989.108485</ele>
        <time>2021-11-15T19:16:17.079Z</time>
      </trkpt>
      <trkpt lat="38.41865" lon="33.97595">
        <ele>989.184446</ele>
        <time>2021-11-15T19:16:25.730Z</time>
      </trkpt>
      <trkpt lat="38.41917" lon="33.97566">
        <ele>989.280992</ele>
        <time>2021-11-15T19:16:38.950Z</time>
      </trkpt>
      <trkpt lat="38.41979" lon="33.97533">
        <ele>989.391281</ele>
        <time>2021-11-15T19:16:54.498Z</time>
      </trkpt>
      <trkpt lat="38.4199" lon="33.97525">
        <ele>989.4125</ele>
        <time>2021-11-15T19:16:57.477Z</time>
      </trkpt>
      <trkpt lat="38.42012" lon="33.9751">
        <ele>989.453735</ele>
        <time>2021-11-15T19:17:03.105Z</time>
      </trkpt>
      <trkpt lat="38.42036" lon="33.97484">
        <ele>989.485624</ele>
        <time>2021-11-15T19:17:09.976Z</time>
      </trkpt>
      <trkpt lat="38.42056" lon="33.97433">
        <ele>989.464066</ele>
        <time>2021-11-15T19:17:19.860Z</time>
      </trkpt>
      <trkpt lat="38.42062" lon="33.97415">
        <ele>989.456786</ele>
        <time>2021-11-15T19:17:23.161Z</time>
      </trkpt>
      <trkpt lat="38.4208" lon="33.97361">
        <ele>989.434629</ele>
        <time>2021-11-15T19:17:33.281Z</time>
      </trkpt>
      <trkpt lat="38.42126" lon="33.97226">
        <ele>989.401407</ele>
        <time>2021-11-15T19:17:58.962Z</time>
      </trkpt>
      <trkpt lat="38.42131" lon="33.97211">
        <ele>989.400767</ele>
        <time>2021-11-15T19:18:01.844Z</time>
      </trkpt>
      <trkpt lat="38.42156" lon="33.97137">
        <ele>989.397593</ele>
        <time>2021-11-15T19:18:15.815Z</time>
      </trkpt>
      <trkpt lat="38.42159" lon="33.9713">
        <ele>989.397272</ele>
        <time>2021-11-15T19:18:17.261Z</time>
      </trkpt>
      <trkpt lat="38.42175" lon="33.97086">
        <ele>989.395334</ele>
        <time>2021-11-15T19:18:25.686Z</time>
      </trkpt>
      <trkpt lat="38.42191" lon="33.97056">
        <ele>989.335398</ele>
        <time>2021-11-15T19:18:31.799Z</time>
      </trkpt>
      <trkpt lat="38.4221" lon="33.97038">
        <ele>989.260428</ele>
        <time>2021-11-15T19:18:37.072Z</time>
      </trkpt>
      <trkpt lat="38.42242" lon="33.97018">
        <ele>989.151098</ele>
        <time>2021-11-15T19:18:44.563Z</time>
      </trkpt>
      <trkpt lat="38.42371" lon="33.96965">
        <ele>988.731397</ele>
        <time>2021-11-15T19:19:12.634Z</time>
      </trkpt>
      <trkpt lat="38.4239" lon="33.96946">
        <ele>988.655947</ele>
        <time>2021-11-15T19:19:17.642Z</time>
      </trkpt>
      <trkpt lat="38.424" lon="33.96929">
        <ele>988.605308</ele>
        <time>2021-11-15T19:19:21.002Z</time>
      </trkpt>
      <trkpt lat="38.42401" lon="33.96909">
        <ele>988.556995</ele>
        <time>2021-11-15T19:19:24.200Z</time>
      </trkpt>
      <trkpt lat="38.42397" lon="33.9689">
        <ele>988.508057</ele>
        <time>2021-11-15T19:19:27.393Z</time>
      </trkpt>
      <trkpt lat="38.4234" lon="33.96817">
        <ele>988.292592</ele>
        <time>2021-11-15T19:19:45.028Z</time>
      </trkpt>
      <trkpt lat="38.42323" lon="33.96796">
        <ele>988.333672</ele>
        <time>2021-11-15T19:19:50.375Z</time>
      </trkpt>
      <trkpt lat="38.42317" lon="33.96759">
        <ele>988.385467</ele>
        <time>2021-11-15T19:19:57.137Z</time>
      </trkpt>
      <trkpt lat="38.42321" lon="33.96739">
        <ele>988.41384</ele>
        <time>2021-11-15T19:20:00.646Z</time>
      </trkpt>
      <trkpt lat="38.42328" lon="33.96726">
        <ele>988.436302</ele>
        <time>2021-11-15T19:20:03.792Z</time>
      </trkpt>
      <trkpt lat="38.42367" lon="33.96683">
        <ele>988.525975</ele>
        <time>2021-11-15T19:20:15.461Z</time>
      </trkpt>
      <trkpt lat="38.42368" lon="33.96682">
        <ele>988.529058</ele>
        <time>2021-11-15T19:20:15.831Z</time>
      </trkpt>
      <trkpt lat="38.42389" lon="33.96661">
        <ele>988.576201</ele>
        <time>2021-11-15T19:20:22.119Z</time>
      </trkpt>
      <trkpt lat="38.42427" lon="33.96621">
        <ele>988.669799</ele>
        <time>2021-11-15T19:20:33.510Z</time>
      </trkpt>
      <trkpt lat="38.42429" lon="33.96618">
        <ele>988.675836</ele>
        <time>2021-11-15T19:20:34.235Z</time>
      </trkpt>
      <trkpt lat="38.42473" lon="33.96576">
        <ele>988.782989</ele>
        <time>2021-11-15T19:20:47.315Z</time>
      </trkpt>
      <trkpt lat="38.42492" lon="33.96566">
        <ele>988.822095</ele>
        <time>2021-11-15T19:20:51.857Z</time>
      </trkpt>
      <trkpt lat="38.42514" lon="33.96561">
        <ele>988.865907</ele>
        <time>2021-11-15T19:20:56.893Z</time>
      </trkpt>
      <trkpt lat="38.42519" lon="33.96561">
        <ele>988.875848</ele>
        <time>2021-11-15T19:20:57.988Z</time>
      </trkpt>
      <trkpt lat="38.42525" lon="33.96562">
        <ele>988.887742</ele>
        <time>2021-11-15T19:20:59.410Z</time>
      </trkpt>
      <trkpt lat="38.42556" lon="33.96566">
        <ele>988.947591</ele>
        <time>2021-11-15T19:21:06.353Z</time>
      </trkpt>
      <trkpt lat="38.42579" lon="33.96561">
        <ele>988.977244</ele>
        <time>2021-11-15T19:21:11.848Z</time>
      </trkpt>
      <trkpt lat="38.42599" lon="33.96547">
        <ele>989.005056</ele>
        <time>2021-11-15T19:21:16.971Z</time>
      </trkpt>
      <trkpt lat="38.4261" lon="33.96534">
        <ele>989.023463</ele>
        <time>2021-11-15T19:21:20.375Z</time>
      </trkpt>
      <trkpt lat="38.42637" lon="33.96478">
        <ele>989.087248</ele>
        <time>2021-11-15T19:21:32.220Z</time>
      </trkpt>
      <trkpt lat="38.42642" lon="33.96471">
        <ele>989.096809</ele>
        <time>2021-11-15T19:21:34.053Z</time>
      </trkpt>
      <trkpt lat="38.42649" lon="33.96462">
        <ele>989.108218</ele>
        <time>2021-11-15T19:21:36.189Z</time>
      </trkpt>
      <trkpt lat="38.42684" lon="33.96436">
        <ele>989.159253</ele>
        <time>2021-11-15T19:21:45.436Z</time>
      </trkpt>
      <trkpt lat="38.42732" lon="33.96419">
        <ele>989.054743</ele>
        <time>2021-11-15T19:21:56.541Z</time>
      </trkpt>
      <trkpt lat="38.42742" lon="33.96415">
        <ele>989.028366</ele>
        <time>2021-11-15T19:21:58.702Z</time>
      </trkpt>
      <trkpt lat="38.42746" lon="33.96413">
        <ele>989.015569</ele>
        <time>2021-11-15T19:21:59.738Z</time>
      </trkpt>
      <trkpt lat="38.42753" lon="33.96411">
        <ele>988.995491</ele>
        <time>2021-11-15T19:22:01.216Z</time>
      </trkpt>
      <trkpt lat="38.42829" lon="33.96387">
        <ele>988.780663</ele>
        <time>2021-11-15T19:22:17.558Z</time>
      </trkpt>
      <trkpt lat="38.42867" lon="33.96366">
        <ele>988.659804</ele>
        <time>2021-11-15T19:22:26.158Z</time>
      </trkpt>
      <trkpt lat="38.42889" lon="33.9635">
        <ele>988.539604</ele>
        <time>2021-11-15T19:22:31.287Z</time>
      </trkpt>
      <trkpt lat="38.42904" lon="33.96333">
        <ele>988.444476</ele>
        <time>2021-11-15T19:22:35.380Z</time>
      </trkpt>
      <trkpt lat="38.4291" lon="33.96322">
        <ele>988.394393</ele>
        <time>2021-11-15T19:22:37.454Z</time>
      </trkpt>
      <trkpt lat="38.42915" lon="33.963">
        <ele>988.306628</ele>
        <time>2021-11-15T19:22:41.237Z</time>
      </trkpt>
      <trkpt lat="38.42924" lon="33.9615">
        <ele>987.794349</ele>
        <time>2021-11-15T19:23:05.428Z</time>
      </trkpt>
      <trkpt lat="38.4293" lon="33.96129">
        <ele>987.769533</ele>
        <time>2021-11-15T19:23:09.106Z</time>
      </trkpt>
      <trkpt lat="38.42947" lon="33.96093">
        <ele>987.723071</ele>
        <time>2021-11-15T19:23:16.180Z</time>
      </trkpt>
      <trkpt lat="38.42989" lon="33.96047">
        <ele>987.642862</ele>
        <time>2021-11-15T19:23:28.526Z</time>
      </trkpt>
      <trkpt lat="38.43009" lon="33.96026">
        <ele>987.606601</ele>
        <time>2021-11-15T19:23:34.148Z</time>
      </trkpt>
      <trkpt lat="38.43069" lon="33.9596">
        <ele>987.616548</ele>
        <time>2021-11-15T19:23:51.977Z</time>
      </trkpt>
      <trkpt lat="38.43235" lon="33.95781">
        <ele>987.892507</ele>
        <time>2021-11-15T19:24:41.586Z</time>
      </trkpt>
      <trkpt lat="38.43249" lon="33.95767">
        <ele>987.915449</ele>
        <time>2021-11-15T19:24:45.733Z</time>
      </trkpt>
      <trkpt lat="38.43345" lon="33.95666">
        <ele>987.947774</ele>
        <time>2021-11-15T19:25:14.082Z</time>
      </trkpt>
      <trkpt lat="38.43369" lon="33.95639">
        <ele>987.899794</ele>
        <time>2021-11-15T19:25:21.196Z</time>
      </trkpt>
      <trkpt lat="38.43432" lon="33.95569">
        <ele>987.77484</ele>
        <time>2021-11-15T19:25:38.809Z</time>
      </trkpt>
      <trkpt lat="38.43473" lon="33.95523">
        <ele>987.563644</ele>
        <time>2021-11-15T19:25:49.949Z</time>
      </trkpt>
      <trkpt lat="38.43548" lon="33.95447">
        <ele>987.069663</ele>
        <time>2021-11-15T19:26:09.501Z</time>
      </trkpt>
      <trkpt lat="38.43559" lon="33.95407">
        <ele>986.896481</ele>
        <time>2021-11-15T19:26:16.533Z</time>
      </trkpt>
      <trkpt lat="38.43562" lon="33.95403">
        <ele>986.873815</ele>
        <time>2021-11-15T19:26:17.317Z</time>
      </trkpt>
      <trkpt lat="38.43566" lon="33.95398">
        <ele>986.845391</ele>
        <time>2021-11-15T19:26:18.614Z</time>
      </trkpt>
      <trkpt lat="38.43585" lon="33.95388">
        <ele>986.793717</ele>
        <time>2021-11-15T19:26:22.856Z</time>
      </trkpt>
      <trkpt lat="38.43621" lon="33.95348">
        <ele>986.708582</ele>
        <time>2021-11-15T19:26:32.697Z</time>
      </trkpt>
      <trkpt lat="38.4373" lon="33.95132">
        <ele>986.449442</ele>
        <time>2021-11-15T19:27:17.186Z</time>
      </trkpt>
      <trkpt lat="38.43745" lon="33.95114">
        <ele>986.437659</ele>
        <time>2021-11-15T19:27:21.578Z</time>
      </trkpt>
      <trkpt lat="38.43782" lon="33.95094">
        <ele>986.413638</ele>
        <time>2021-11-15T19:27:30.468Z</time>
      </trkpt>
      <trkpt lat="38.4381" lon="33.9509">
        <ele>986.39671</ele>
        <time>2021-11-15T19:27:36.681Z</time>
      </trkpt>
      <trkpt lat="38.43848" lon="33.95084">
        <ele>986.336081</ele>
        <time>2021-11-15T19:27:45.055Z</time>
      </trkpt>
      <trkpt lat="38.43868" lon="33.95076">
        <ele>986.299449</ele>
        <time>2021-11-15T19:27:49.499Z</time>
      </trkpt>
      <trkpt lat="38.43902" lon="33.95043">
        <ele>986.222958</ele>
        <time>2021-11-15T19:27:58.737Z</time>
      </trkpt>
      <trkpt lat="38.44068" lon="33.94728">
        <ele>985.540681</ele>
        <time>2021-11-15T19:29:02.096Z</time>
      </trkpt>
      <trkpt lat="38.44079" lon="33.9472">
        <ele>985.518214</ele>
        <time>2021-11-15T19:29:04.900Z</time>
      </trkpt>
      <trkpt lat="38.44084" lon="33.9471">
        <ele>985.501399</ele>
        <time>2021-11-15T19:29:06.891Z</time>
      </trkpt>
      <trkpt lat="38.44095" lon="33.94683">
        <ele>985.458967</ele>
        <time>2021-11-15T19:29:12.029Z</time>
      </trkpt>
      <trkpt lat="38.44227" lon="33.94549">
        <ele>985.177253</ele>
        <time>2021-11-15T19:29:48.517Z</time>
      </trkpt>
      <trkpt lat="38.44243" lon="33.94506">
        <ele>985.12104</ele>
        <time>2021-11-15T19:29:56.725Z</time>
      </trkpt>
      <trkpt lat="38.44256" lon="33.94421">
        <ele>985.019563</ele>
        <time>2021-11-15T19:30:11.526Z</time>
      </trkpt>
      <trkpt lat="38.44269" lon="33.94383">
        <ele>984.935465</ele>
        <time>2021-11-15T19:30:18.501Z</time>
      </trkpt>
      <trkpt lat="38.44284" lon="33.94362">
        <ele>984.870678</ele>
        <time>2021-11-15T19:30:23.328Z</time>
      </trkpt>
      <trkpt lat="38.44462" lon="33.94175">
        <ele>984.015218</ele>
        <time>2021-11-15T19:31:11.491Z</time>
      </trkpt>
      <trkpt lat="38.4449" lon="33.94124">
        <ele>983.783162</ele>
        <time>2021-11-15T19:31:21.205Z</time>
      </trkpt>
      <trkpt lat="38.44535" lon="33.93999">
        <ele>983.50717</ele>
        <time>2021-11-15T19:31:43.260Z</time>
      </trkpt>
      <trkpt lat="38.44612" lon="33.93901">
        <ele>983.346103</ele>
        <time>2021-11-15T19:32:07.852Z</time>
      </trkpt>
      <trkpt lat="38.44655" lon="33.93851">
        <ele>983.410943</ele>
        <time>2021-11-15T19:32:21.532Z</time>
      </trkpt>
      <trkpt lat="38.44671" lon="33.93839">
        <ele>983.432419</ele>
        <time>2021-11-15T19:32:25.889Z</time>
      </trkpt>
      <trkpt lat="38.44713" lon="33.93811">
        <ele>983.485166</ele>
        <time>2021-11-15T19:32:36.648Z</time>
      </trkpt>
      <trkpt lat="38.44734" lon="33.93797">
        <ele>983.510958</ele>
        <time>2021-11-15T19:32:41.625Z</time>
      </trkpt>
      <trkpt lat="38.44788" lon="33.93758">
        <ele>983.763946</ele>
        <time>2021-11-15T19:32:55.523Z</time>
      </trkpt>
      <trkpt lat="38.44803" lon="33.93738">
        <ele>983.905713</ele>
        <time>2021-11-15T19:33:00.227Z</time>
      </trkpt>
      <trkpt lat="38.44838" lon="33.93662">
        <ele>984.362629</ele>
        <time>2021-11-15T19:33:17.726Z</time>
      </trkpt>
      <trkpt lat="38.44843" lon="33.93655">
        <ele>984.410688</ele>
        <time>2021-11-15T19:33:19.076Z</time>
      </trkpt>
      <trkpt lat="38.4485" lon="33.93647">
        <ele>984.473141</ele>
        <time>2021-11-15T19:33:22.253Z</time>
      </trkpt>
      <trkpt lat="38.4489" lon="33.93624">
        <ele>984.784863</ele>
        <time>2021-11-15T19:33:34.328Z</time>
      </trkpt>
      <trkpt lat="38.4491" lon="33.93622">
        <ele>984.99618</ele>
        <time>2021-11-15T19:33:39.148Z</time>
      </trkpt>
      <trkpt lat="38.44946" lon="33.93625">
        <ele>985.385392</ele>
        <time>2021-11-15T19:33:49.668Z</time>
      </trkpt>
      <trkpt lat="38.44965" lon="33.93626">
        <ele>985.586949</ele>
        <time>2021-11-15T19:33:55.940Z</time>
      </trkpt>
      <trkpt lat="38.45148" lon="33.93638">
        <ele>986.467178</ele>
        <time>2021-11-15T19:34:41.435Z</time>
      </trkpt>
      <trkpt lat="38.45154" lon="33.93635">
        <ele>986.451496</ele>
        <time>2021-11-15T19:34:42.959Z</time>
      </trkpt>
      <trkpt lat="38.45158" lon="33.93633">
        <ele>986.442757</ele>
        <time>2021-11-15T19:34:43.532Z</time>
      </trkpt>
      <trkpt lat="38.45171" lon="33.93593">
        <ele>986.365098</ele>
        <time>2021-11-15T19:34:50.489Z</time>
      </trkpt>
      <trkpt lat="38.45222" lon="33.93543">
        <ele>986.018462</ele>
        <time>2021-11-15T19:35:03.326Z</time>
      </trkpt>
      <trkpt lat="38.45242" lon="33.93523">
        <ele>985.57166</ele>
        <time>2021-11-15T19:35:07.906Z</time>
      </trkpt>
      <trkpt lat="38.45271" lon="33.93497">
        <ele>984.945109</ele>
        <time>2021-11-15T19:35:14.540Z</time>
      </trkpt>
      <trkpt lat="38.45328" lon="33.93448">
        <ele>983.714399</ele>
        <time>2021-11-15T19:35:27.474Z</time>
      </trkpt>
      <trkpt lat="38.45363" lon="33.93418">
        <ele>982.907718</ele>
        <time>2021-11-15T19:35:35.055Z</time>
      </trkpt>
      <trkpt lat="38.45303" lon="33.93313">
        <ele>979.834774</ele>
        <time>2021-11-15T19:35:52.749Z</time>
      </trkpt>
      <trkpt lat="38.45253" lon="33.93223">
        <ele>977.339912</ele>
        <time>2021-11-15T19:36:07.284Z</time>
      </trkpt>
      <trkpt lat="38.45291" lon="33.93188">
        <ele>976.388124</ele>
        <time>2021-11-15T19:36:15.436Z</time>
      </trkpt>
      <trkpt lat="38.45324" lon="33.93156">
        <ele>975.53756</ele>
        <time>2021-11-15T19:36:23.049Z</time>
      </trkpt>
      <trkpt lat="38.45358" lon="33.93123">
        <ele>974.668224</ele>
        <time>2021-11-15T19:36:31.286Z</time>
      </trkpt>
      <trkpt lat="38.45389" lon="33.93061">
        <ele>973.791311</ele>
        <time>2021-11-15T19:36:43.525Z</time>
      </trkpt>
      <trkpt lat="38.45402" lon="33.93036">
        <ele>973.634488</ele>
        <time>2021-11-15T19:36:48.141Z</time>
      </trkpt>
      <trkpt lat="38.45454" lon="33.92973">
        <ele>973.145286</ele>
        <time>2021-11-15T19:37:03.108Z</time>
      </trkpt>
      <trkpt lat="38.45464" lon="33.92963">
        <ele>973.060396</ele>
        <time>2021-11-15T19:37:05.927Z</time>
      </trkpt>
      <trkpt lat="38.45457" lon="33.92952">
        <ele>972.988183</ele>
        <time>2021-11-15T19:37:08.051Z</time>
      </trkpt>
      <trkpt lat="38.45569" lon="33.92829">
        <ele>972.652234</ele>
        <time>2021-11-15T19:37:40.059Z</time>
      </trkpt>
      <trkpt lat="38.45617" lon="33.9277">
        <ele>972.611579</ele>
        <time>2021-11-15T19:37:56.269Z</time>
      </trkpt>
      <trkpt lat="38.4567" lon="33.92704">
        <ele>972.961853</ele>
        <time>2021-11-15T19:38:16.539Z</time>
      </trkpt>
      <trkpt lat="38.45783" lon="33.9258">
        <ele>973.0041</ele>
        <time>2021-11-15T19:38:53.570Z</time>
      </trkpt>
      <trkpt lat="38.45779" lon="33.92571">
        <ele>972.890558</ele>
        <time>2021-11-15T19:38:55.148Z</time>
      </trkpt>
      <trkpt lat="38.45755" lon="33.9253">
        <ele>972.343668</ele>
        <time>2021-11-15T19:39:03.026Z</time>
      </trkpt>
      <trkpt lat="38.45683" lon="33.92407">
        <ele>970.622787</ele>
        <time>2021-11-15T19:39:24.627Z</time>
      </trkpt>
      <trkpt lat="38.45653" lon="33.92359">
        <ele>969.798263</ele>
        <time>2021-11-15T19:39:33.285Z</time>
      </trkpt>
      <trkpt lat="38.45607" lon="33.92297">
        <ele>968.65752</ele>
        <time>2021-11-15T19:39:45.709Z</time>
      </trkpt>
      <trkpt lat="38.4594" lon="33.91906">
        <ele>966.366736</ele>
        <time>2021-11-15T19:41:21.135Z</time>
      </trkpt>
      <trkpt lat="38.46045" lon="33.91784">
        <ele>965.340838</ele>
        <time>2021-11-15T19:41:49.058Z</time>
      </trkpt>
      <trkpt lat="38.46104" lon="33.91706">
        <ele>964.559522</ele>
        <time>2021-11-15T19:42:05.096Z</time>
      </trkpt>
      <trkpt lat="38.4611" lon="33.91699">
        <ele>964.485829</ele>
        <time>2021-11-15T19:42:06.633Z</time>
      </trkpt>
      <trkpt lat="38.46167" lon="33.91624">
        <ele>963.878606</ele>
        <time>2021-11-15T19:42:22.630Z</time>
      </trkpt>
      <trkpt lat="38.47066" lon="33.90446">
        <ele>968.059154</ele>
        <time>2021-11-15T19:47:26.846Z</time>
      </trkpt>
      <trkpt lat="38.4715" lon="33.90337">
        <ele>968.621494</ele>
        <time>2021-11-15T19:47:56.028Z</time>
      </trkpt>
      <trkpt lat="38.47212" lon="33.90255">
        <ele>968.959725</ele>
        <time>2021-11-15T19:48:17.810Z</time>
      </trkpt>
      <trkpt lat="38.47399" lon="33.9001">
        <ele>969.652234</ele>
        <time>2021-11-15T19:49:19.957Z</time>
      </trkpt>
      <trkpt lat="38.47504" lon="33.89879">
        <ele>969.781937</ele>
        <time>2021-11-15T19:49:52.582Z</time>
      </trkpt>
      <trkpt lat="38.47512" lon="33.89869">
        <ele>969.789707</ele>
        <time>2021-11-15T19:49:55.165Z</time>
      </trkpt>
      <trkpt lat="38.47546" lon="33.8983">
        <ele>969.820642</ele>
        <time>2021-11-15T19:50:05.615Z</time>
      </trkpt>
      <trkpt lat="38.47557" lon="33.89814">
        <ele>969.820706</ele>
        <time>2021-11-15T19:50:09.394Z</time>
      </trkpt>
      <trkpt lat="38.47639" lon="33.89693">
        <ele>969.821181</ele>
        <time>2021-11-15T19:50:37.647Z</time>
      </trkpt>
      <trkpt lat="38.47661" lon="33.89661">
        <ele>969.82131</ele>
        <time>2021-11-15T19:50:45.025Z</time>
      </trkpt>
      <trkpt lat="38.47788" lon="33.89495">
        <ele>969.17267</ele>
        <time>2021-11-15T19:51:22.724Z</time>
      </trkpt>
      <trkpt lat="38.4808" lon="33.89119">
        <ele>968.468265</ele>
        <time>2021-11-15T19:52:52.950Z</time>
      </trkpt>
      <trkpt lat="38.48101" lon="33.8909">
        <ele>968.360051</ele>
        <time>2021-11-15T19:52:59.291Z</time>
      </trkpt>
      <trkpt lat="38.48121" lon="33.89063">
        <ele>968.257949</ele>
        <time>2021-11-15T19:53:05.281Z</time>
      </trkpt>
      <trkpt lat="38.48192" lon="33.88969">
        <ele>967.87347</ele>
        <time>2021-11-15T19:53:26.243Z</time>
      </trkpt>
      <trkpt lat="38.48547" lon="33.88498">
        <ele>965.760477</ele>
        <time>2021-11-15T19:55:12.904Z</time>
      </trkpt>
      <trkpt lat="38.48796" lon="33.88186">
        <ele>963.98324</ele>
        <time>2021-11-15T19:56:24.242Z</time>
      </trkpt>
      <trkpt lat="38.49109" lon="33.87839">
        <ele>963.437365</ele>
        <time>2021-11-15T19:57:53.431Z</time>
      </trkpt>
      <trkpt lat="38.495" lon="33.87417">
        <ele>965.693373</ele>
        <time>2021-11-15T19:59:57.569Z</time>
      </trkpt>
      <trkpt lat="38.49657" lon="33.87252">
        <ele>966.608631</ele>
        <time>2021-11-15T20:00:46.879Z</time>
      </trkpt>
      <trkpt lat="38.49673" lon="33.87233">
        <ele>966.674537</ele>
        <time>2021-11-15T20:00:51.873Z</time>
      </trkpt>
      <trkpt lat="38.49789" lon="33.87097">
        <ele>967.136667</ele>
        <time>2021-11-15T20:01:28.288Z</time>
      </trkpt>
      <trkpt lat="38.50357" lon="33.8648">
        <ele>968.962818</ele>
        <time>2021-11-15T20:04:21.905Z</time>
      </trkpt>
      <trkpt lat="38.50527" lon="33.86296">
        <ele>969.050683</ele>
        <time>2021-11-15T20:05:11.251Z</time>
      </trkpt>
      <trkpt lat="38.50629" lon="33.86186">
        <ele>969.09185</ele>
        <time>2021-11-15T20:05:41.210Z</time>
      </trkpt>
      <trkpt lat="38.50769" lon="33.86033">
        <ele>969.084879</ele>
        <time>2021-11-15T20:06:22.775Z</time>
      </trkpt>
      <trkpt lat="38.51725" lon="33.84991">
        <ele>967.623998</ele>
        <time>2021-11-15T20:10:56.647Z</time>
      </trkpt>
      <trkpt lat="38.51825" lon="33.84882">
        <ele>967.034929</ele>
        <time>2021-11-15T20:11:23.747Z</time>
      </trkpt>
      <trkpt lat="38.51933" lon="33.84763">
        <ele>965.772224</ele>
        <time>2021-11-15T20:11:51.422Z</time>
      </trkpt>
      <trkpt lat="38.52161" lon="33.84513">
        <ele>963.086253</ele>
        <time>2021-11-15T20:12:49.301Z</time>
      </trkpt>
      <trkpt lat="38.52368" lon="33.84292">
        <ele>962.148855</ele>
        <time>2021-11-15T20:13:47.648Z</time>
      </trkpt>
      <trkpt lat="38.52463" lon="33.84195">
        <ele>961.310241</ele>
        <time>2021-11-15T20:14:12.234Z</time>
      </trkpt>
      <trkpt lat="38.52484" lon="33.84174">
        <ele>961.127897</ele>
        <time>2021-11-15T20:14:17.311Z</time>
      </trkpt>
      <trkpt lat="38.52583" lon="33.8406">
        <ele>959.686993</ele>
        <time>2021-11-15T20:14:42.200Z</time>
      </trkpt>
      <trkpt lat="38.53154" lon="33.83431">
        <ele>953.466279</ele>
        <time>2021-11-15T20:17:10.065Z</time>
      </trkpt>
      <trkpt lat="38.53265" lon="33.83309">
        <ele>953.730351</ele>
        <time>2021-11-15T20:17:44.544Z</time>
      </trkpt>
      <trkpt lat="38.5338" lon="33.83183">
        <ele>954.699161</ele>
        <time>2021-11-15T20:18:22.676Z</time>
      </trkpt>
      <trkpt lat="38.53739" lon="33.82911">
        <ele>957.856486</ele>
        <time>2021-11-15T20:20:11.207Z</time>
      </trkpt>
      <trkpt lat="38.54357" lon="33.82449">
        <ele>951.575428</ele>
        <time>2021-11-15T20:22:29.705Z</time>
      </trkpt>
      <trkpt lat="38.54381" lon="33.82444">
        <ele>951.334911</ele>
        <time>2021-11-15T20:22:36.033Z</time>
      </trkpt>
      <trkpt lat="38.54455" lon="33.82389">
        <ele>950.547735</ele>
        <time>2021-11-15T20:22:58.589Z</time>
      </trkpt>
      <trkpt lat="38.54481" lon="33.82355">
        <ele>950.210924</ele>
        <time>2021-11-15T20:23:08.408Z</time>
      </trkpt>
      <trkpt lat="38.55473" lon="33.81601">
        <ele>941.797001</ele>
        <time>2021-11-15T20:26:57.749Z</time>
      </trkpt>
      <trkpt lat="38.56466" lon="33.80853">
        <ele>947.007736</ele>
        <time>2021-11-15T20:31:32.943Z</time>
      </trkpt>
      <trkpt lat="38.57007" lon="33.80436">
        <ele>955.485592</ele>
        <time>2021-11-15T20:34:30.458Z</time>
      </trkpt>
      <trkpt lat="38.57034" lon="33.80416">
        <ele>955.929715</ele>
        <time>2021-11-15T20:34:39.092Z</time>
      </trkpt>
      <trkpt lat="38.57179" lon="33.80314">
        <ele>958.256192</ele>
        <time>2021-11-15T20:35:25.543Z</time>
      </trkpt>
      <trkpt lat="38.57236" lon="33.80274">
        <ele>958.780091</ele>
        <time>2021-11-15T20:35:42.995Z</time>
      </trkpt>
      <trkpt lat="38.57256" lon="33.80256">
        <ele>958.980288</ele>
        <time>2021-11-15T20:35:49.480Z</time>
      </trkpt>
      <trkpt lat="38.57284" lon="33.8023">
        <ele>959.256724</ele>
        <time>2021-11-15T20:35:58.110Z</time>
      </trkpt>
      <trkpt lat="38.57363" lon="33.80158">
        <ele>959.433503</ele>
        <time>2021-11-15T20:36:20.797Z</time>
      </trkpt>
      <trkpt lat="38.57428" lon="33.80096">
        <ele>959.116805</ele>
        <time>2021-11-15T20:36:37.296Z</time>
      </trkpt>
      <trkpt lat="38.58237" lon="33.79304">
        <ele>950.037814</ele>
        <time>2021-11-15T20:39:55.328Z</time>
      </trkpt>
      <trkpt lat="38.58242" lon="33.79299">
        <ele>949.99205</ele>
        <time>2021-11-15T20:39:56.518Z</time>
      </trkpt>
      <trkpt lat="38.58252" lon="33.7929">
        <ele>949.902334</ele>
        <time>2021-11-15T20:39:58.897Z</time>
      </trkpt>
      <trkpt lat="38.58972" lon="33.78562">
        <ele>943.190062</ele>
        <time>2021-11-15T20:43:02.295Z</time>
      </trkpt>
      <trkpt lat="38.6016" lon="33.77381">
        <ele>932.119455</ele>
        <time>2021-11-15T20:48:02.033Z</time>
      </trkpt>
      <trkpt lat="38.60464" lon="33.7707">
        <ele>928.132952</ele>
        <time>2021-11-15T20:49:16.629Z</time>
      </trkpt>
      <trkpt lat="38.61503" lon="33.76037">
        <ele>915.875576</ele>
        <time>2021-11-15T20:53:31.885Z</time>
      </trkpt>
      <trkpt lat="38.61646" lon="33.7591">
        <ele>915.423671</ele>
        <time>2021-11-15T20:54:09.548Z</time>
      </trkpt>
      <trkpt lat="38.61685" lon="33.75876">
        <ele>915.448686</ele>
        <time>2021-11-15T20:54:20.426Z</time>
      </trkpt>
      <trkpt lat="38.61702" lon="33.75856">
        <ele>915.460831</ele>
        <time>2021-11-15T20:54:25.807Z</time>
      </trkpt>
      <trkpt lat="38.61744" lon="33.7581">
        <ele>915.545267</ele>
        <time>2021-11-15T20:54:38.600Z</time>
      </trkpt>
      <trkpt lat="38.61851" lon="33.75691">
        <ele>916.026755</ele>
        <time>2021-11-15T20:55:12.032Z</time>
      </trkpt>
      <trkpt lat="38.64052" lon="33.73496">
        <ele>927.92231</ele>
        <time>2021-11-15T21:06:20.047Z</time>
      </trkpt>
      <trkpt lat="38.64216" lon="33.7333">
        <ele>928.478703</ele>
        <time>2021-11-15T21:07:10.880Z</time>
      </trkpt>
      <trkpt lat="38.64226" lon="33.7332">
        <ele>928.487461</ele>
        <time>2021-11-15T21:07:13.757Z</time>
      </trkpt>
      <trkpt lat="38.65129" lon="33.72404">
        <ele>922.634455</ele>
        <time>2021-11-15T21:11:08.219Z</time>
      </trkpt>
      <trkpt lat="38.6589" lon="33.71801">
        <ele>922.3438</ele>
        <time>2021-11-15T21:14:25.847Z</time>
      </trkpt>
      <trkpt lat="38.66243" lon="33.71521">
        <ele>925.923597</ele>
        <time>2021-11-15T21:16:14.265Z</time>
      </trkpt>
      <trkpt lat="38.6627" lon="33.71499">
        <ele>926.143011</ele>
        <time>2021-11-15T21:16:22.243Z</time>
      </trkpt>
      <trkpt lat="38.6628" lon="33.71492">
        <ele>926.218639</ele>
        <time>2021-11-15T21:16:24.984Z</time>
      </trkpt>
      <trkpt lat="38.66285" lon="33.71487">
        <ele>926.262634</ele>
        <time>2021-11-15T21:16:26.529Z</time>
      </trkpt>
      <trkpt lat="38.66314" lon="33.71464">
        <ele>926.493818</ele>
        <time>2021-11-15T21:16:34.819Z</time>
      </trkpt>
      <trkpt lat="38.67124" lon="33.70788">
        <ele>930.611773</ele>
        <time>2021-11-15T21:20:26.347Z</time>
      </trkpt>
      <trkpt lat="38.6749" lon="33.70496">
        <ele>931.429047</ele>
        <time>2021-11-15T21:22:05.449Z</time>
      </trkpt>
      <trkpt lat="38.69177" lon="33.69139">
        <ele>931.817536</ele>
        <time>2021-11-15T21:29:30.352Z</time>
      </trkpt>
      <trkpt lat="38.70051" lon="33.6842">
        <ele>928.529513</ele>
        <time>2021-11-15T21:33:06.721Z</time>
      </trkpt>
      <trkpt lat="38.70271" lon="33.68252">
        <ele>931.223892</ele>
        <time>2021-11-15T21:34:16.691Z</time>
      </trkpt>
      <trkpt lat="38.70511" lon="33.68111">
        <ele>935.21225</ele>
        <time>2021-11-15T21:35:35.687Z</time>
      </trkpt>
      <trkpt lat="38.73858" lon="33.66603">
        <ele>950.374209</ele>
        <time>2021-11-15T21:49:42.159Z</time>
      </trkpt>
      <trkpt lat="38.73982" lon="33.66559">
        <ele>950.251728</ele>
        <time>2021-11-15T21:50:10.374Z</time>
      </trkpt>
      <trkpt lat="38.74001" lon="33.66548">
        <ele>950.231397</ele>
        <time>2021-11-15T21:50:14.788Z</time>
      </trkpt>
      <trkpt lat="38.74107" lon="33.66493">
        <ele>949.762009</ele>
        <time>2021-11-15T21:50:38.491Z</time>
      </trkpt>
      <trkpt lat="38.74157" lon="33.66472">
        <ele>949.497215</ele>
        <time>2021-11-15T21:50:49.313Z</time>
      </trkpt>
      <trkpt lat="38.74236" lon="33.66437">
        <ele>948.836974</ele>
        <time>2021-11-15T21:51:06.187Z</time>
      </trkpt>
      <trkpt lat="38.76527" lon="33.6541">
        <ele>923.651295</ele>
        <time>2021-11-15T21:58:52.560Z</time>
      </trkpt>
      <trkpt lat="38.76743" lon="33.65309">
        <ele>920.664648</ele>
        <time>2021-11-15T21:59:34.991Z</time>
      </trkpt>
      <trkpt lat="38.7692" lon="33.65182">
        <ele>919.536195</ele>
        <time>2021-11-15T22:00:14.964Z</time>
      </trkpt>
      <trkpt lat="38.77554" lon="33.64517">
        <ele>926.170315</ele>
        <time>2021-11-15T22:03:47.210Z</time>
      </trkpt>
      <trkpt lat="38.78401" lon="33.6363">
        <ele>929.516592</ele>
        <time>2021-11-15T22:08:04.940Z</time>
      </trkpt>
      <trkpt lat="38.79278" lon="33.6271">
        <ele>915.963923</ele>
        <time>2021-11-15T22:11:37.041Z</time>
      </trkpt>
      <trkpt lat="38.81152" lon="33.60754">
        <ele>921.414771</ele>
        <time>2021-11-15T22:20:55.074Z</time>
      </trkpt>
      <trkpt lat="38.81395" lon="33.6057">
        <ele>925.110612</ele>
        <time>2021-11-15T22:22:18.154Z</time>
      </trkpt>
      <trkpt lat="38.81928" lon="33.60218">
        <ele>923.224983</ele>
        <time>2021-11-15T22:24:21.324Z</time>
      </trkpt>
      <trkpt lat="38.83346" lon="33.59303">
        <ele>924.230861</ele>
        <time>2021-11-15T22:30:19.921Z</time>
      </trkpt>
      <trkpt lat="38.83489" lon="33.59222">
        <ele>924.421294</ele>
        <time>2021-11-15T22:30:55.830Z</time>
      </trkpt>
      <trkpt lat="38.83667" lon="33.59144">
        <ele>924.246124</ele>
        <time>2021-11-15T22:31:37.346Z</time>
      </trkpt>
      <trkpt lat="38.83893" lon="33.59086">
        <ele>923.158326</ele>
        <time>2021-11-15T22:32:24.519Z</time>
      </trkpt>
      <trkpt lat="38.84015" lon="33.5907">
        <ele>922.50102</ele>
        <time>2021-11-15T22:32:49.243Z</time>
      </trkpt>
      <trkpt lat="38.85138" lon="33.58983">
        <ele>918.758995</ele>
        <time>2021-11-15T22:36:45.177Z</time>
      </trkpt>
      <trkpt lat="38.86423" lon="33.58885">
        <ele>920.682727</ele>
        <time>2021-11-15T22:41:41.254Z</time>
      </trkpt>
      <trkpt lat="38.86424" lon="33.58866">
        <ele>920.677651</ele>
        <time>2021-11-15T22:41:44.552Z</time>
      </trkpt>
      <trkpt lat="38.85139" lon="33.58962">
        <ele>918.12958</ele>
        <time>2021-11-15T22:46:20.149Z</time>
      </trkpt>
      <trkpt lat="38.84247" lon="33.5903">
        <ele>919.528611</ele>
        <time>2021-11-15T22:49:43.811Z</time>
      </trkpt>
      <trkpt lat="38.83934" lon="33.59062">
        <ele>922.224532</ele>
        <time>2021-11-15T22:51:05.967Z</time>
      </trkpt>
      <trkpt lat="38.83838" lon="33.59079">
        <ele>923.080005</ele>
        <time>2021-11-15T22:51:30.964Z</time>
      </trkpt>
      <trkpt lat="38.83636" lon="33.59138">
        <ele>923.928237</ele>
        <time>2021-11-15T22:52:20.990Z</time>
      </trkpt>
      <trkpt lat="38.83376" lon="33.59258">
        <ele>923.955528</ele>
        <time>2021-11-15T22:53:21.343Z</time>
      </trkpt>
      <trkpt lat="38.81391" lon="33.60548">
        <ele>924.840974</ele>
        <time>2021-11-15T23:01:42.318Z</time>
      </trkpt>
      <trkpt lat="38.81143" lon="33.60738">
        <ele>920.541879</ele>
        <time>2021-11-15T23:02:33.422Z</time>
      </trkpt>
      <trkpt lat="38.771" lon="33.64967">
        <ele>914.173048</ele>
        <time>2021-11-15T23:21:30.103Z</time>
      </trkpt>
      <trkpt lat="38.76901" lon="33.65157">
        <ele>916.440073</ele>
        <time>2021-11-15T23:22:35.840Z</time>
      </trkpt>
      <trkpt lat="38.76755" lon="33.65265">
        <ele>918.935356</ele>
        <time>2021-11-15T23:23:23.364Z</time>
      </trkpt>
      <trkpt lat="38.76735" lon="33.6528">
        <ele>919.334354</ele>
        <time>2021-11-15T23:23:30.176Z</time>
      </trkpt>
      <trkpt lat="38.76525" lon="33.65392">
        <ele>923.293568</ele>
        <time>2021-11-15T23:24:36.699Z</time>
      </trkpt>
      <trkpt lat="38.759" lon="33.65671">
        <ele>935.154358</ele>
        <time>2021-11-15T23:27:52.962Z</time>
      </trkpt>
      <trkpt lat="38.74104" lon="33.66475">
        <ele>948.842549</ele>
        <time>2021-11-15T23:35:49.458Z</time>
      </trkpt>
      <trkpt lat="38.73987" lon="33.66518">
        <ele>949.408362</ele>
        <time>2021-11-15T23:36:19.303Z</time>
      </trkpt>
      <trkpt lat="38.73978" lon="33.66521">
        <ele>949.433636</ele>
        <time>2021-11-15T23:36:21.549Z</time>
      </trkpt>
      <trkpt lat="38.73973" lon="33.66533">
        <ele>949.461363</ele>
        <time>2021-11-15T23:36:24.035Z</time>
      </trkpt>
      <trkpt lat="38.73974" lon="33.66545">
        <ele>949.486517</ele>
        <time>2021-11-15T23:36:26.027Z</time>
      </trkpt>
      <trkpt lat="38.73982" lon="33.66559">
        <ele>949.52225</ele>
        <time>2021-11-15T23:36:29.259Z</time>
      </trkpt>
      <trkpt lat="38.74001" lon="33.66548">
        <ele>949.579773</ele>
        <time>2021-11-15T23:36:33.951Z</time>
      </trkpt>
      <trkpt lat="38.74107" lon="33.66493">
        <ele>949.524405</ele>
        <time>2021-11-15T23:36:59.540Z</time>
      </trkpt>
      <trkpt lat="38.74157" lon="33.66472">
        <ele>949.329374</ele>
        <time>2021-11-15T23:37:10.519Z</time>
      </trkpt>
      <trkpt lat="38.74236" lon="33.66437">
        <ele>948.935239</ele>
        <time>2021-11-15T23:37:27.393Z</time>
      </trkpt>
      <trkpt lat="38.76527" lon="33.6541">
        <ele>923.625331</ele>
        <time>2021-11-15T23:45:13.766Z</time>
      </trkpt>
      <trkpt lat="38.76743" lon="33.65309">
        <ele>920.708996</ele>
        <time>2021-11-15T23:45:56.197Z</time>
      </trkpt>
      <trkpt lat="38.7692" lon="33.65182">
        <ele>919.315242</ele>
        <time>2021-11-15T23:46:36.170Z</time>
      </trkpt>
      <trkpt lat="38.77554" lon="33.64517">
        <ele>926.141105</ele>
        <time>2021-11-15T23:50:08.416Z</time>
      </trkpt>
      <trkpt lat="38.78401" lon="33.6363">
        <ele>929.3914</ele>
        <time>2021-11-15T23:54:26.146Z</time>
      </trkpt>
      <trkpt lat="38.79278" lon="33.6271">
        <ele>915.933666</ele>
        <time>2021-11-15T23:57:58.247Z</time>
      </trkpt>
      <trkpt lat="38.81152" lon="33.60754">
        <ele>921.365063</ele>
        <time>2021-11-16T00:07:16.280Z</time>
      </trkpt>
      <trkpt lat="38.81395" lon="33.6057">
        <ele>925.137939</ele>
        <time>2021-11-16T00:08:39.360Z</time>
      </trkpt>
      <trkpt lat="38.81928" lon="33.60218">
        <ele>923.07941</ele>
        <time>2021-11-16T00:10:42.530Z</time>
      </trkpt>
      <trkpt lat="38.83346" lon="33.59303">
        <ele>924.223159</ele>
        <time>2021-11-16T00:16:41.127Z</time>
      </trkpt>
      <trkpt lat="38.83489" lon="33.59222">
        <ele>924.435468</ele>
        <time>2021-11-16T00:17:17.036Z</time>
      </trkpt>
      <trkpt lat="38.83667" lon="33.59144">
        <ele>924.2867</ele>
        <time>2021-11-16T00:17:58.552Z</time>
      </trkpt>
      <trkpt lat="38.83893" lon="33.59086">
        <ele>923.171271</ele>
        <time>2021-11-16T00:18:45.725Z</time>
      </trkpt>
      <trkpt lat="38.84015" lon="33.5907">
        <ele>922.474317</ele>
        <time>2021-11-16T00:19:10.449Z</time>
      </trkpt>
      <trkpt lat="38.85138" lon="33.58983">
        <ele>918.633072</ele>
        <time>2021-11-16T00:23:06.382Z</time>
      </trkpt>
      <trkpt lat="38.86423" lon="33.58885">
        <ele>920.815829</ele>
        <time>2021-11-16T00:28:03.163Z</time>
      </trkpt>
      <trkpt lat="38.89105" lon="33.58692">
        <ele>918.691464</ele>
        <time>2021-11-16T00:37:50.977Z</time>
      </trkpt>
      <trkpt lat="38.89265" lon="33.58673">
        <ele>918.90756</ele>
        <time>2021-11-16T00:38:27.660Z</time>
      </trkpt>
      <trkpt lat="38.89368" lon="33.58653">
        <ele>919.308467</ele>
        <time>2021-11-16T00:38:52.574Z</time>
      </trkpt>
      <trkpt lat="38.89444" lon="33.58632">
        <ele>919.639797</ele>
        <time>2021-11-16T00:39:11.774Z</time>
      </trkpt>
      <trkpt lat="38.89689" lon="33.58537">
        <ele>920.515683</ele>
        <time>2021-11-16T00:40:13.034Z</time>
      </trkpt>
      <trkpt lat="38.89851" lon="33.58442">
        <ele>920.370065</ele>
        <time>2021-11-16T00:40:51.099Z</time>
      </trkpt>
      <trkpt lat="38.89968" lon="33.58353">
        <ele>920.147579</ele>
        <time>2021-11-16T00:41:20.132Z</time>
      </trkpt>
      <trkpt lat="38.90047" lon="33.58286">
        <ele>920.078376</ele>
        <time>2021-11-16T00:41:41.130Z</time>
      </trkpt>
      <trkpt lat="38.9013" lon="33.58201">
        <ele>920.249026</ele>
        <time>2021-11-16T00:42:05.439Z</time>
      </trkpt>
      <trkpt lat="38.90213" lon="33.58116">
        <ele>920.479119</ele>
        <time>2021-11-16T00:42:30.286Z</time>
      </trkpt>
      <trkpt lat="38.91009" lon="33.57134">
        <ele>922.800379</ele>
        <time>2021-11-16T00:46:44.880Z</time>
      </trkpt>
      <trkpt lat="38.9109" lon="33.57034">
        <ele>923.043067</ele>
        <time>2021-11-16T00:47:10.516Z</time>
      </trkpt>
      <trkpt lat="38.91619" lon="33.56376">
        <ele>925.332008</ele>
        <time>2021-11-16T00:50:03.605Z</time>
      </trkpt>
      <trkpt lat="38.9171" lon="33.56281">
        <ele>925.809194</ele>
        <time>2021-11-16T00:50:31.668Z</time>
      </trkpt>
      <trkpt lat="38.91849" lon="33.5608">
        <ele>926.736606</ele>
        <time>2021-11-16T00:51:21.677Z</time>
      </trkpt>
      <trkpt lat="38.92225" lon="33.55628">
        <ele>928.86319</ele>
        <time>2021-11-16T00:53:27.128Z</time>
      </trkpt>
      <trkpt lat="38.92229" lon="33.55625">
        <ele>928.864335</ele>
        <time>2021-11-16T00:53:28.163Z</time>
      </trkpt>
      <trkpt lat="38.92233" lon="33.55621">
        <ele>928.865453</ele>
        <time>2021-11-16T00:53:29.158Z</time>
      </trkpt>
      <trkpt lat="38.92236" lon="33.55616">
        <ele>928.866586</ele>
        <time>2021-11-16T00:53:30.151Z</time>
      </trkpt>
      <trkpt lat="38.92237" lon="33.5561">
        <ele>928.867725</ele>
        <time>2021-11-16T00:53:31.135Z</time>
      </trkpt>
      <trkpt lat="38.92236" lon="33.55604">
        <ele>928.868867</ele>
        <time>2021-11-16T00:53:32.061Z</time>
      </trkpt>
      <trkpt lat="38.9223" lon="33.55594">
        <ele>928.87112</ele>
        <time>2021-11-16T00:53:33.956Z</time>
      </trkpt>
      <trkpt lat="38.92221" lon="33.5559">
        <ele>928.873357</ele>
        <time>2021-11-16T00:53:35.862Z</time>
      </trkpt>
      <trkpt lat="38.92216" lon="33.55591">
        <ele>928.87451</ele>
        <time>2021-11-16T00:53:36.799Z</time>
      </trkpt>
      <trkpt lat="38.92212" lon="33.55595">
        <ele>928.875686</ele>
        <time>2021-11-16T00:53:37.788Z</time>
      </trkpt>
      <trkpt lat="38.92151" lon="33.55525">
        <ele>928.587894</ele>
        <time>2021-11-16T00:53:54.493Z</time>
      </trkpt>
      <trkpt lat="38.92143" lon="33.55491">
        <ele>928.457413</ele>
        <time>2021-11-16T00:54:00.217Z</time>
      </trkpt>
      <trkpt lat="38.92135" lon="33.55446">
        <ele>928.287084</ele>
        <time>2021-11-16T00:54:07.789Z</time>
      </trkpt>
      <trkpt lat="38.92093" lon="33.55301">
        <ele>928.489176</ele>
        <time>2021-11-16T00:54:36.627Z</time>
      </trkpt>
      <trkpt lat="38.92184" lon="33.55266">
        <ele>929.142671</ele>
        <time>2021-11-16T00:55:02.640Z</time>
      </trkpt>
      <trkpt lat="38.92178" lon="33.5526">
        <ele>929.194463</ele>
        <time>2021-11-16T00:55:04.765Z</time>
      </trkpt>
      <trkpt lat="38.92191" lon="33.55138">
        <ele>929.501017</ele>
        <time>2021-11-16T00:55:29.710Z</time>
      </trkpt>
      <trkpt lat="38.922" lon="33.5506">
        <ele>929.664874</ele>
        <time>2021-11-16T00:55:43.917Z</time>
      </trkpt>
      <trkpt lat="38.92212" lon="33.54984">
        <ele>929.697268</ele>
        <time>2021-11-16T00:55:56.981Z</time>
      </trkpt>
      <trkpt lat="38.92238" lon="33.54835">
        <ele>929.421173</ele>
        <time>2021-11-16T00:56:23.203Z</time>
      </trkpt>
      <trkpt lat="38.92273" lon="33.5473">
        <ele>929.42076</ele>
        <time>2021-11-16T00:56:43.721Z</time>
      </trkpt>
      <trkpt lat="38.92306" lon="33.54623">
        <ele>929.555815</ele>
        <time>2021-11-16T00:57:05.531Z</time>
      </trkpt>
      <trkpt lat="38.92317" lon="33.54594">
        <ele>929.593397</ele>
        <time>2021-11-16T00:57:11.570Z</time>
      </trkpt>
      <trkpt lat="38.92348" lon="33.54513">
        <ele>929.780904</ele>
        <time>2021-11-16T00:57:28.191Z</time>
      </trkpt>
      <trkpt lat="38.92363" lon="33.5448">
        <ele>929.865781</ele>
        <time>2021-11-16T00:57:34.977Z</time>
      </trkpt>
      <trkpt lat="38.92375" lon="33.54447">
        <ele>929.948766</ele>
        <time>2021-11-16T00:57:41.647Z</time>
      </trkpt>
      <trkpt lat="38.92394" lon="33.54394">
        <ele>930.080776</ele>
        <time>2021-11-16T00:57:52.993Z</time>
      </trkpt>
      <trkpt lat="38.92408" lon="33.54356">
        <ele>930.242475</ele>
        <time>2021-11-16T00:58:01.497Z</time>
      </trkpt>
      <trkpt lat="38.92412" lon="33.54345">
        <ele>930.314444</ele>
        <time>2021-11-16T00:58:04.117Z</time>
      </trkpt>
      <trkpt lat="38.92433" lon="33.54286">
        <ele>930.698706</ele>
        <time>2021-11-16T00:58:17.581Z</time>
      </trkpt>
      <trkpt lat="38.92452" lon="33.54234">
        <ele>931.033281</ele>
        <time>2021-11-16T00:58:29.324Z</time>
      </trkpt>
      <trkpt lat="38.92473" lon="33.54176">
        <ele>931.410838</ele>
        <time>2021-11-16T00:58:42.597Z</time>
      </trkpt>
      <trkpt lat="38.92476" lon="33.54177">
        <ele>931.437213</ele>
        <time>2021-11-16T00:58:43.448Z</time>
      </trkpt>
      <trkpt lat="38.9258" lon="33.53964">
        <ele>932.416609</ele>
        <time>2021-11-16T00:59:32.866Z</time>
      </trkpt>
      <trkpt lat="38.92533" lon="33.53921">
        <ele>932.567391</ele>
        <time>2021-11-16T00:59:46.540Z</time>
      </trkpt>
      <trkpt lat="38.92447" lon="33.53851">
        <ele>932.835166</ele>
        <time>2021-11-16T01:00:10.983Z</time>
      </trkpt>
      <trkpt lat="38.92458" lon="33.53828">
        <ele>932.893807</ele>
        <time>2021-11-16T01:00:16.000Z</time>
      </trkpt>
      <trkpt lat="38.92491" lon="33.53793">
        <ele>933.016069</ele>
        <time>2021-11-16T01:00:26.208Z</time>
      </trkpt>
      <trkpt lat="38.9251" lon="33.5378">
        <ele>933.077009</ele>
        <time>2021-11-16T01:00:31.178Z</time>
      </trkpt>
      <trkpt lat="38.92506" lon="33.53771">
        <ele>933.101093</ele>
        <time>2021-11-16T01:00:33.236Z</time>
      </trkpt>
      <trkpt lat="38.92556" lon="33.53664">
        <ele>933.377865</ele>
        <time>2021-11-16T01:00:56.786Z</time>
      </trkpt>
      <trkpt lat="38.92587" lon="33.53612">
        <ele>933.541859</ele>
        <time>2021-11-16T01:01:08.924Z</time>
      </trkpt>
      <trkpt lat="38.92561" lon="33.53585">
        <ele>933.649814</ele>
        <time>2021-11-16T01:01:17.157Z</time>
      </trkpt>
      <trkpt lat="38.92607" lon="33.53497">
        <ele>933.912253</ele>
        <time>2021-11-16T01:01:37.294Z</time>
      </trkpt>
      <trkpt lat="38.92625" lon="33.53507">
        <ele>933.986434</ele>
        <time>2021-11-16T01:01:41.784Z</time>
      </trkpt>
      <trkpt lat="38.92677" lon="33.5342">
        <ele>934.451498</ele>
        <time>2021-11-16T01:02:03.495Z</time>
      </trkpt>
      <trkpt lat="38.927" lon="33.53385">
        <ele>934.64317</ele>
        <time>2021-11-16T01:02:12.432Z</time>
      </trkpt>
      <trkpt lat="38.92755" lon="33.53293">
        <ele>935.089404</ele>
        <time>2021-11-16T01:02:35.739Z</time>
      </trkpt>
      <trkpt lat="38.92771" lon="33.53259">
        <ele>935.22003</ele>
        <time>2021-11-16T01:02:43.403Z</time>
      </trkpt>
      <trkpt lat="38.92815" lon="33.53103">
        <ele>935.735673</ele>
        <time>2021-11-16T01:03:15.384Z</time>
      </trkpt>
      <trkpt lat="38.92837" lon="33.53011">
        <ele>935.907027</ele>
        <time>2021-11-16T01:03:33.092Z</time>
      </trkpt>
      <trkpt lat="38.92844" lon="33.52983">
        <ele>935.959032</ele>
        <time>2021-11-16T01:03:38.474Z</time>
      </trkpt>
      <trkpt lat="38.92854" lon="33.52942">
        <ele>936.036801</ele>
        <time>2021-11-16T01:03:46.618Z</time>
      </trkpt>
      <trkpt lat="38.92864" lon="33.52927">
        <ele>936.072689</ele>
        <time>2021-11-16T01:03:50.423Z</time>
      </trkpt>
      <trkpt lat="38.92892" lon="33.52889">
        <ele>936.190457</ele>
        <time>2021-11-16T01:04:00.278Z</time>
      </trkpt>
      <trkpt lat="38.92936" lon="33.52843">
        <ele>936.380908</ele>
        <time>2021-11-16T01:04:14.087Z</time>
      </trkpt>
      <trkpt lat="38.92953" lon="33.5283">
        <ele>936.446534</ele>
        <time>2021-11-16T01:04:18.798Z</time>
      </trkpt>
      <trkpt lat="38.93121" lon="33.52681">
        <ele>937.21692</ele>
        <time>2021-11-16T01:05:09.305Z</time>
      </trkpt>
      <trkpt lat="38.93252" lon="33.52562">
        <ele>937.846</ele>
        <time>2021-11-16T01:05:49.495Z</time>
      </trkpt>
      <trkpt lat="38.93386" lon="33.52446">
        <ele>938.183489</ele>
        <time>2021-11-16T01:06:28.615Z</time>
      </trkpt>
      <trkpt lat="38.93441" lon="33.52405">
        <ele>938.225527</ele>
        <time>2021-11-16T01:06:43.037Z</time>
      </trkpt>
      <trkpt lat="38.93437" lon="33.52398">
        <ele>938.229694</ele>
        <time>2021-11-16T01:06:44.398Z</time>
      </trkpt>
      <trkpt lat="38.93489" lon="33.5237">
        <ele>938.209711</ele>
        <time>2021-11-16T01:06:56.828Z</time>
      </trkpt>
      <trkpt lat="38.93506" lon="33.52364">
        <ele>938.191105</ele>
        <time>2021-11-16T01:07:00.916Z</time>
      </trkpt>
      <trkpt lat="38.93544" lon="33.52342">
        <ele>938.148693</ele>
        <time>2021-11-16T01:07:10.460Z</time>
      </trkpt>
      <trkpt lat="38.93554" lon="33.52339">
        <ele>938.13878</ele>
        <time>2021-11-16T01:07:12.801Z</time>
      </trkpt>
      <trkpt lat="38.93596" lon="33.52326">
        <ele>938.094505</ele>
        <time>2021-11-16T01:07:23.365Z</time>
      </trkpt>
      <trkpt lat="38.93659" lon="33.5232">
        <ele>937.952501</ele>
        <time>2021-11-16T01:07:37.298Z</time>
      </trkpt>
      <trkpt lat="38.9367" lon="33.52322">
        <ele>937.91009</ele>
        <time>2021-11-16T01:07:39.843Z</time>
      </trkpt>
      <trkpt lat="38.93676" lon="33.52364">
        <ele>937.789312</ele>
        <time>2021-11-16T01:07:47.162Z</time>
      </trkpt>
      <trkpt lat="38.93686" lon="33.52385">
        <ele>937.722178</ele>
        <time>2021-11-16T01:07:51.439Z</time>
      </trkpt>
      <trkpt lat="38.93691" lon="33.52303">
        <ele>937.492586</ele>
        <time>2021-11-16T01:08:04.678Z</time>
      </trkpt>
      <trkpt lat="38.93692" lon="33.52288">
        <ele>937.44967</ele>
        <time>2021-11-16T01:08:07.123Z</time>
      </trkpt>
      <trkpt lat="38.93714" lon="33.52086">
        <ele>936.320792</ele>
        <time>2021-11-16T01:08:38.255Z</time>
      </trkpt>
      <trkpt lat="38.94807" lon="33.45886">
        <ele>912.828016</ele>
        <time>2021-11-16T01:25:37.196Z</time>
      </trkpt>
      <trkpt lat="38.95038" lon="33.44571">
        <ele>911.871313</ele>
        <time>2021-11-16T01:29:27.805Z</time>
      </trkpt>
      <trkpt lat="38.95173" lon="33.43807">
        <ele>911.059563</ele>
        <time>2021-11-16T01:31:39.920Z</time>
      </trkpt>
      <trkpt lat="38.95312" lon="33.4297">
        <ele>910.905568</ele>
        <time>2021-11-16T01:34:07.326Z</time>
      </trkpt>
      <trkpt lat="38.95249" lon="33.42676">
        <ele>910.817211</ele>
        <time>2021-11-16T01:35:00.107Z</time>
      </trkpt>
      <trkpt lat="38.95245" lon="33.42662">
        <ele>910.807565</ele>
        <time>2021-11-16T01:35:02.650Z</time>
      </trkpt>
      <trkpt lat="38.95254" lon="33.42619">
        <ele>910.778379</ele>
        <time>2021-11-16T01:35:10.211Z</time>
      </trkpt>
      <trkpt lat="38.95512" lon="33.41957">
        <ele>908.702728</ele>
        <time>2021-11-16T01:37:11.256Z</time>
      </trkpt>
      <trkpt lat="38.9553" lon="33.41865">
        <ele>907.912165</ele>
        <time>2021-11-16T01:37:25.294Z</time>
      </trkpt>
      <trkpt lat="38.95558" lon="33.41717">
        <ele>906.711831</ele>
        <time>2021-11-16T01:37:48.597Z</time>
      </trkpt>
      <trkpt lat="38.95616" lon="33.4139">
        <ele>905.375906</ele>
        <time>2021-11-16T01:38:44.300Z</time>
      </trkpt>
      <trkpt lat="38.95626" lon="33.41343">
        <ele>905.256661</ele>
        <time>2021-11-16T01:38:52.880Z</time>
      </trkpt>
      <trkpt lat="38.95893" lon="33.39853">
        <ele>905.004953</ele>
        <time>2021-11-16T01:43:27.819Z</time>
      </trkpt>
      <trkpt lat="38.96099" lon="33.38748">
        <ele>905.000024</ele>
        <time>2021-11-16T01:46:52.503Z</time>
      </trkpt>
      <trkpt lat="38.96561" lon="33.36269">
        <ele>905.010161</ele>
        <time>2021-11-16T01:54:31.847Z</time>
      </trkpt>
      <trkpt lat="38.96585" lon="33.3618">
        <ele>905.024752</ele>
        <time>2021-11-16T01:54:48.672Z</time>
      </trkpt>
      <trkpt lat="38.96652" lon="33.35986">
        <ele>905.195431</ele>
        <time>2021-11-16T01:55:27.473Z</time>
      </trkpt>
      <trkpt lat="38.97004" lon="33.34869">
        <ele>907.70625</ele>
        <time>2021-11-16T01:59:14.599Z</time>
      </trkpt>
      <trkpt lat="38.97218" lon="33.3423">
        <ele>909.416267</ele>
        <time>2021-11-16T02:01:26.669Z</time>
      </trkpt>
      <trkpt lat="38.97305" lon="33.33948">
        <ele>911.065627</ele>
        <time>2021-11-16T02:02:27.196Z</time>
      </trkpt>
      <trkpt lat="38.97411" lon="33.33697">
        <ele>914.642189</ele>
        <time>2021-11-16T02:03:31.964Z</time>
      </trkpt>
      <trkpt lat="38.97574" lon="33.3329">
        <ele>924.3018</ele>
        <time>2021-11-16T02:05:33.568Z</time>
      </trkpt>
      <trkpt lat="38.97606" lon="33.33232">
        <ele>926.151748</ele>
        <time>2021-11-16T02:05:54.408Z</time>
      </trkpt>
      <trkpt lat="38.97654" lon="33.33182">
        <ele>928.238849</ele>
        <time>2021-11-16T02:06:18.486Z</time>
      </trkpt>
      <trkpt lat="38.97741" lon="33.33115">
        <ele>931.174674</ele>
        <time>2021-11-16T02:06:56.294Z</time>
      </trkpt>
      <trkpt lat="38.97754" lon="33.33101">
        <ele>931.672416</ele>
        <time>2021-11-16T02:07:02.506Z</time>
      </trkpt>
      <trkpt lat="38.9788" lon="33.32779">
        <ele>936.622248</ele>
        <time>2021-11-16T02:08:25.557Z</time>
      </trkpt>
      <trkpt lat="38.97946" lon="33.32655">
        <ele>937.390694</ele>
        <time>2021-11-16T02:08:53.825Z</time>
      </trkpt>
      <trkpt lat="38.9812" lon="33.32255">
        <ele>939.030925</ele>
        <time>2021-11-16T02:10:23.627Z</time>
      </trkpt>
      <trkpt lat="38.98152" lon="33.322">
        <ele>938.977972</ele>
        <time>2021-11-16T02:10:36.363Z</time>
      </trkpt>
      <trkpt lat="38.9816" lon="33.32177">
        <ele>938.850951</ele>
        <time>2021-11-16T02:10:40.807Z</time>
      </trkpt>
      <trkpt lat="38.98154" lon="33.32089">
        <ele>938.401915</ele>
        <time>2021-11-16T02:10:55.689Z</time>
      </trkpt>
      <trkpt lat="38.98157" lon="33.32057">
        <ele>938.238168</ele>
        <time>2021-11-16T02:11:00.865Z</time>
      </trkpt>
      <trkpt lat="38.98291" lon="33.31791">
        <ele>934.532979</ele>
        <time>2021-11-16T02:11:47.680Z</time>
      </trkpt>
      <trkpt lat="38.98311" lon="33.31744">
        <ele>933.670618</ele>
        <time>2021-11-16T02:11:55.357Z</time>
      </trkpt>
      <trkpt lat="38.98332" lon="33.31676">
        <ele>932.514303</ele>
        <time>2021-11-16T02:12:05.575Z</time>
      </trkpt>
      <trkpt lat="38.98355" lon="33.31638">
        <ele>931.740016</ele>
        <time>2021-11-16T02:12:12.408Z</time>
      </trkpt>
      <trkpt lat="38.9842" lon="33.31554">
        <ele>930.27816</ele>
        <time>2021-11-16T02:12:29.304Z</time>
      </trkpt>
      <trkpt lat="38.98434" lon="33.31523">
        <ele>929.8704</ele>
        <time>2021-11-16T02:12:34.574Z</time>
      </trkpt>
      <trkpt lat="38.98457" lon="33.31443">
        <ele>928.897416</ele>
        <time>2021-11-16T02:12:47.772Z</time>
      </trkpt>
      <trkpt lat="38.98468" lon="33.3143">
        <ele>928.717375</ele>
        <time>2021-11-16T02:12:50.978Z</time>
      </trkpt>
      <trkpt lat="38.98514" lon="33.3141">
        <ele>928.76653</ele>
        <time>2021-11-16T02:13:01.508Z</time>
      </trkpt>
      <trkpt lat="38.98555" lon="33.31374">
        <ele>928.817338</ele>
        <time>2021-11-16T02:13:13.226Z</time>
      </trkpt>
      <trkpt lat="38.98614" lon="33.31309">
        <ele>928.896608</ele>
        <time>2021-11-16T02:13:32.928Z</time>
      </trkpt>
      <trkpt lat="38.9869" lon="33.31117">
        <ele>930.364725</ele>
        <time>2021-11-16T02:14:17.678Z</time>
      </trkpt>
      <trkpt lat="38.987" lon="33.31026">
        <ele>931.061283</ele>
        <time>2021-11-16T02:14:37.345Z</time>
      </trkpt>
      <trkpt lat="38.98692" lon="33.30878">
        <ele>932.199525</ele>
        <time>2021-11-16T02:15:08.816Z</time>
      </trkpt>
      <trkpt lat="38.98737" lon="33.30797">
        <ele>932.61558</ele>
        <time>2021-11-16T02:15:29.057Z</time>
      </trkpt>
      <trkpt lat="38.98787" lon="33.30775">
        <ele>932.8744</ele>
        <time>2021-11-16T02:15:42.120Z</time>
      </trkpt>
      <trkpt lat="38.98814" lon="33.30746">
        <ele>933.050808</ele>
        <time>2021-11-16T02:15:50.759Z</time>
      </trkpt>
      <trkpt lat="38.98866" lon="33.30681">
        <ele>933.183655</ele>
        <time>2021-11-16T02:16:07.705Z</time>
      </trkpt>
      <trkpt lat="38.98945" lon="33.30555">
        <ele>933.256395</ele>
        <time>2021-11-16T02:16:36.810Z</time>
      </trkpt>
      <trkpt lat="38.99001" lon="33.30477">
        <ele>933.477156</ele>
        <time>2021-11-16T02:16:56.556Z</time>
      </trkpt>
      <trkpt lat="38.99063" lon="33.30413">
        <ele>933.696184</ele>
        <time>2021-11-16T02:17:16.055Z</time>
      </trkpt>
      <trkpt lat="38.99115" lon="33.30374">
        <ele>934.027135</ele>
        <time>2021-11-16T02:17:31.261Z</time>
      </trkpt>
      <trkpt lat="38.99144" lon="33.30339">
        <ele>934.298826</ele>
        <time>2021-11-16T02:17:41.387Z</time>
      </trkpt>
      <trkpt lat="38.99176" lon="33.30286">
        <ele>934.654449</ele>
        <time>2021-11-16T02:17:54.853Z</time>
      </trkpt>
      <trkpt lat="38.99349" lon="33.30167">
        <ele>936.402487</ele>
        <time>2021-11-16T02:18:47.705Z</time>
      </trkpt>
      <trkpt lat="38.99875" lon="33.29693">
        <ele>942.168186</ele>
        <time>2021-11-16T02:21:41.603Z</time>
      </trkpt>
      <trkpt lat="38.99941" lon="33.29637">
        <ele>942.457232</ele>
        <time>2021-11-16T02:22:00.279Z</time>
      </trkpt>
      <trkpt lat="39.0008" lon="33.29516">
        <ele>942.272195</ele>
        <time>2021-11-16T02:22:37.148Z</time>
      </trkpt>
      <trkpt lat="39.00181" lon="33.29411">
        <ele>942.062538</ele>
        <time>2021-11-16T02:23:06.767Z</time>
      </trkpt>
      <trkpt lat="39.00201" lon="33.29385">
        <ele>942.023526</ele>
        <time>2021-11-16T02:23:13.529Z</time>
      </trkpt>
      <trkpt lat="39.00228" lon="33.29348">
        <ele>941.97024</ele>
        <time>2021-11-16T02:23:22.609Z</time>
      </trkpt>
      <trkpt lat="39.00443" lon="33.29143">
        <ele>941.018016</ele>
        <time>2021-11-16T02:24:20.457Z</time>
      </trkpt>
      <trkpt lat="39.005" lon="33.29095">
        <ele>940.841284</ele>
        <time>2021-11-16T02:24:35.183Z</time>
      </trkpt>
      <trkpt lat="39.00529" lon="33.29087">
        <ele>940.761977</ele>
        <time>2021-11-16T02:24:42.130Z</time>
      </trkpt>
      <trkpt lat="39.00603" lon="33.29092">
        <ele>941.006984</ele>
        <time>2021-11-16T02:24:59.869Z</time>
      </trkpt>
      <trkpt lat="39.00653" lon="33.29112">
        <ele>941.283107</ele>
        <time>2021-11-16T02:25:12.910Z</time>
      </trkpt>
      <trkpt lat="39.00671" lon="33.29125">
        <ele>941.394187</ele>
        <time>2021-11-16T02:25:18.393Z</time>
      </trkpt>
      <trkpt lat="39.0092" lon="33.28653">
        <ele>945.159492</ele>
        <time>2021-11-16T02:27:13.094Z</time>
      </trkpt>
      <trkpt lat="39.01125" lon="33.28256">
        <ele>948.221408</ele>
        <time>2021-11-16T02:28:47.085Z</time>
      </trkpt>
      <trkpt lat="39.01435" lon="33.2768">
        <ele>954.174156</ele>
        <time>2021-11-16T02:31:11.370Z</time>
      </trkpt>
      <trkpt lat="39.01478" lon="33.27483">
        <ele>956.958934</ele>
        <time>2021-11-16T02:31:57.808Z</time>
      </trkpt>
      <trkpt lat="39.01771" lon="33.25908">
        <ele>990.2437</ele>
        <time>2021-11-16T02:38:51.442Z</time>
      </trkpt>
      <trkpt lat="39.01809" lon="33.25731">
        <ele>994.465423</ele>
        <time>2021-11-16T02:39:41.570Z</time>
      </trkpt>
      <trkpt lat="39.01833" lon="33.25657">
        <ele>995.390832</ele>
        <time>2021-11-16T02:40:02.010Z</time>
      </trkpt>
      <trkpt lat="39.02062" lon="33.25162">
        <ele>999.908091</ele>
        <time>2021-11-16T02:41:56.906Z</time>
      </trkpt>
      <trkpt lat="39.02376" lon="33.24622">
        <ele>1001.665909</ele>
        <time>2021-11-16T02:43:59.979Z</time>
      </trkpt>
      <trkpt lat="39.02462" lon="33.24481">
        <ele>1001.055944</ele>
        <time>2021-11-16T02:44:30.874Z</time>
      </trkpt>
      <trkpt lat="39.02534" lon="33.24373">
        <ele>999.872662</ele>
        <time>2021-11-16T02:44:51.348Z</time>
      </trkpt>
      <trkpt lat="39.02618" lon="33.24262">
        <ele>996.989718</ele>
        <time>2021-11-16T02:45:11.502Z</time>
      </trkpt>
      <trkpt lat="39.02668" lon="33.24222">
        <ele>995.60816</ele>
        <time>2021-11-16T02:45:21.553Z</time>
      </trkpt>
      <trkpt lat="39.02706" lon="33.24198">
        <ele>994.731913</ele>
        <time>2021-11-16T02:45:28.805Z</time>
      </trkpt>
      <trkpt lat="39.0315" lon="33.23971">
        <ele>985.252548</ele>
        <time>2021-11-16T02:46:52.881Z</time>
      </trkpt>
      <trkpt lat="39.03322" lon="33.23882">
        <ele>983.519183</ele>
        <time>2021-11-16T02:47:28.845Z</time>
      </trkpt>
      <trkpt lat="39.03344" lon="33.23872">
        <ele>983.802743</ele>
        <time>2021-11-16T02:47:34.178Z</time>
      </trkpt>
      <trkpt lat="39.03356" lon="33.23869">
        <ele>983.960115</ele>
        <time>2021-11-16T02:47:37.051Z</time>
      </trkpt>
      <trkpt lat="39.03369" lon="33.23869">
        <ele>984.131942</ele>
        <time>2021-11-16T02:47:40.176Z</time>
      </trkpt>
      <trkpt lat="39.03375" lon="33.2385">
        <ele>984.33214</ele>
        <time>2021-11-16T02:47:44.234Z</time>
      </trkpt>
      <trkpt lat="39.03388" lon="33.23775">
        <ele>985.107738</ele>
        <time>2021-11-16T02:48:00.929Z</time>
      </trkpt>
      <trkpt lat="39.03378" lon="33.23712">
        <ele>985.750992</ele>
        <time>2021-11-16T02:48:17.318Z</time>
      </trkpt>
      <trkpt lat="39.03386" lon="33.23639">
        <ele>987.206532</ele>
        <time>2021-11-16T02:48:35.709Z</time>
      </trkpt>
      <trkpt lat="39.03391" lon="33.23626">
        <ele>987.511294</ele>
        <time>2021-11-16T02:48:39.863Z</time>
      </trkpt>
      <trkpt lat="39.03412" lon="33.23596">
        <ele>988.374453</ele>
        <time>2021-11-16T02:48:50.262Z</time>
      </trkpt>
      <trkpt lat="39.03418" lon="33.23587">
        <ele>988.613303</ele>
        <time>2021-11-16T02:48:53.177Z</time>
      </trkpt>
      <trkpt lat="39.03418" lon="33.2358">
        <ele>988.759122</ele>
        <time>2021-11-16T02:48:55.063Z</time>
      </trkpt>
      <trkpt lat="39.03417" lon="33.23575">
        <ele>988.884343</ele>
        <time>2021-11-16T02:48:56.567Z</time>
      </trkpt>
      <trkpt lat="39.03408" lon="33.23566">
        <ele>989.198447</ele>
        <time>2021-11-16T02:49:00.093Z</time>
      </trkpt>
      <trkpt lat="39.03399" lon="33.23559">
        <ele>989.480099</ele>
        <time>2021-11-16T02:49:03.973Z</time>
      </trkpt>
      <trkpt lat="39.03371" lon="33.23537">
        <ele>990.362537</ele>
        <time>2021-11-16T02:49:14.706Z</time>
      </trkpt>
      <trkpt lat="39.03355" lon="33.23524">
        <ele>990.84696</ele>
        <time>2021-11-16T02:49:20.915Z</time>
      </trkpt>
      <trkpt lat="39.03342" lon="33.23511">
        <ele>991.22974</ele>
        <time>2021-11-16T02:49:26.608Z</time>
      </trkpt>
      <trkpt lat="39.03316" lon="33.23475">
        <ele>992.115713</ele>
        <time>2021-11-16T02:49:39.157Z</time>
      </trkpt>
      <trkpt lat="39.03278" lon="33.23429">
        <ele>993.313384</ele>
        <time>2021-11-16T02:49:55.517Z</time>
      </trkpt>
      <trkpt lat="39.03192" lon="33.23316">
        <ele>996.030855</ele>
        <time>2021-11-16T02:50:32.650Z</time>
      </trkpt>
      <trkpt lat="39.03172" lon="33.23282">
        <ele>996.723673</ele>
        <time>2021-11-16T02:50:42.639Z</time>
      </trkpt>
      <trkpt lat="39.03156" lon="33.23246">
        <ele>997.386039</ele>
        <time>2021-11-16T02:50:52.318Z</time>
      </trkpt>
      <trkpt lat="39.03139" lon="33.23208">
        <ele>998.105805</ele>
        <time>2021-11-16T02:51:02.930Z</time>
      </trkpt>
      <trkpt lat="39.03135" lon="33.23199">
        <ele>998.271799</ele>
        <time>2021-11-16T02:51:05.415Z</time>
      </trkpt>
      <trkpt lat="39.03091" lon="33.23091">
        <ele>1000.489382</ele>
        <time>2021-11-16T02:51:35.226Z</time>
      </trkpt>
      <trkpt lat="39.0305" lon="33.22977">
        <ele>1002.816836</ele>
        <time>2021-11-16T02:52:06.675Z</time>
      </trkpt>
      <trkpt lat="39.03014" lon="33.22876">
        <ele>1004.405258</ele>
        <time>2021-11-16T02:52:33.638Z</time>
      </trkpt>
      <trkpt lat="39.02919" lon="33.22621">
        <ele>1007.127111</ele>
        <time>2021-11-16T02:53:35.017Z</time>
      </trkpt>
      <trkpt lat="39.02897" lon="33.22546">
        <ele>1007.474829</ele>
        <time>2021-11-16T02:53:48.644Z</time>
      </trkpt>
      <trkpt lat="39.02878" lon="33.22476">
        <ele>1006.071853</ele>
        <time>2021-11-16T02:53:59.689Z</time>
      </trkpt>
      <trkpt lat="39.02597" lon="33.21432">
        <ele>985.193552</ele>
        <time>2021-11-16T02:56:24.272Z</time>
      </trkpt>
      <trkpt lat="39.02071" lon="33.19513">
        <ele>966.460105</ele>
        <time>2021-11-16T03:01:24.058Z</time>
      </trkpt>
      <trkpt lat="39.01935" lon="33.19012">
        <ele>963.264844</ele>
        <time>2021-11-16T03:02:47.288Z</time>
      </trkpt>
      <trkpt lat="39.01841" lon="33.18666">
        <ele>958.553996</ele>
        <time>2021-11-16T03:03:37.040Z</time>
      </trkpt>
      <trkpt lat="39.01351" lon="33.16892">
        <ele>960.77478</ele>
        <time>2021-11-16T03:09:14.843Z</time>
      </trkpt>
      <trkpt lat="39.01235" lon="33.16454">
        <ele>959.948278</ele>
        <time>2021-11-16T03:10:32.157Z</time>
      </trkpt>
      <trkpt lat="39.01197" lon="33.16309">
        <ele>958.293841</ele>
        <time>2021-11-16T03:10:55.747Z</time>
      </trkpt>
      <trkpt lat="39.01157" lon="33.16093">
        <ele>953.9489</ele>
        <time>2021-11-16T03:11:24.565Z</time>
      </trkpt>
      <trkpt lat="39.01146" lon="33.16022">
        <ele>952.097555</ele>
        <time>2021-11-16T03:11:33.386Z</time>
      </trkpt>
      <trkpt lat="39.0114" lon="33.15995">
        <ele>951.367447</ele>
        <time>2021-11-16T03:11:36.835Z</time>
      </trkpt>
      <trkpt lat="39.01125" lon="33.15948">
        <ele>950.250367</ele>
        <time>2021-11-16T03:11:43.136Z</time>
      </trkpt>
      <trkpt lat="39.01094" lon="33.1589">
        <ele>948.76695</ele>
        <time>2021-11-16T03:11:51.883Z</time>
      </trkpt>
      <trkpt lat="39.01" lon="33.15744">
        <ele>945.986809</ele>
        <time>2021-11-16T03:12:18.002Z</time>
      </trkpt>
      <trkpt lat="39.00979" lon="33.15706">
        <ele>945.816772</ele>
        <time>2021-11-16T03:12:25.572Z</time>
      </trkpt>
      <trkpt lat="39.00978" lon="33.1567">
        <ele>945.683318</ele>
        <time>2021-11-16T03:12:31.688Z</time>
      </trkpt>
      <trkpt lat="39.00977" lon="33.15631">
        <ele>945.540636</ele>
        <time>2021-11-16T03:12:38.616Z</time>
      </trkpt>
      <trkpt lat="39.00977" lon="33.15613">
        <ele>945.473692</ele>
        <time>2021-11-16T03:12:41.974Z</time>
      </trkpt>
      <trkpt lat="39.00979" lon="33.15483">
        <ele>946.40287</ele>
        <time>2021-11-16T03:13:08.835Z</time>
      </trkpt>
      <trkpt lat="39.00982" lon="33.15461">
        <ele>946.608217</ele>
        <time>2021-11-16T03:13:13.763Z</time>
      </trkpt>
      <trkpt lat="39.00987" lon="33.15426">
        <ele>946.932173</ele>
        <time>2021-11-16T03:13:21.372Z</time>
      </trkpt>
      <trkpt lat="39.00987" lon="33.15404">
        <ele>947.129565</ele>
        <time>2021-11-16T03:13:26.060Z</time>
      </trkpt>
      <trkpt lat="39.00986" lon="33.15364">
        <ele>947.498965</ele>
        <time>2021-11-16T03:13:34.711Z</time>
      </trkpt>
      <trkpt lat="39.00994" lon="33.15348">
        <ele>947.681676</ele>
        <time>2021-11-16T03:13:38.924Z</time>
      </trkpt>
      <trkpt lat="39.01003" lon="33.15329">
        <ele>947.891732</ele>
        <time>2021-11-16T03:13:43.576Z</time>
      </trkpt>
      <trkpt lat="39.01021" lon="33.15308">
        <ele>948.196753</ele>
        <time>2021-11-16T03:13:50.530Z</time>
      </trkpt>
      <trkpt lat="39.01051" lon="33.15266">
        <ele>948.739013</ele>
        <time>2021-11-16T03:14:02.629Z</time>
      </trkpt>
      <trkpt lat="39.01063" lon="33.15258">
        <ele>948.900875</ele>
        <time>2021-11-16T03:14:06.279Z</time>
      </trkpt>
      <trkpt lat="39.01067" lon="33.15255">
        <ele>948.964108</ele>
        <time>2021-11-16T03:14:07.763Z</time>
      </trkpt>
      <trkpt lat="39.01157" lon="33.15123">
        <ele>950.462197</ele>
        <time>2021-11-16T03:14:43.296Z</time>
      </trkpt>
      <trkpt lat="39.01178" lon="33.15093">
        <ele>950.77767</ele>
        <time>2021-11-16T03:14:51.582Z</time>
      </trkpt>
      <trkpt lat="39.01227" lon="33.15025">
        <ele>951.500229</ele>
        <time>2021-11-16T03:15:10.378Z</time>
      </trkpt>
      <trkpt lat="39.01304" lon="33.14918">
        <ele>952.557925</ele>
        <time>2021-11-16T03:15:40.036Z</time>
      </trkpt>
      <trkpt lat="39.01556" lon="33.14595">
        <ele>956.142564</ele>
        <time>2021-11-16T03:17:11.745Z</time>
      </trkpt>
      <trkpt lat="39.03509" lon="33.12419">
        <ele>1003.643898</ele>
        <time>2021-11-16T03:30:00.871Z</time>
      </trkpt>
      <trkpt lat="39.03558" lon="33.12381">
        <ele>1003.03993</ele>
        <time>2021-11-16T03:30:12.447Z</time>
      </trkpt>
      <trkpt lat="39.03616" lon="33.1235">
        <ele>1002.135678</ele>
        <time>2021-11-16T03:30:23.816Z</time>
      </trkpt>
      <trkpt lat="39.03706" lon="33.12318">
        <ele>1000.502731</ele>
        <time>2021-11-16T03:30:39.544Z</time>
      </trkpt>
      <trkpt lat="39.03786" lon="33.1227">
        <ele>998.274352</ele>
        <time>2021-11-16T03:30:54.179Z</time>
      </trkpt>
      <trkpt lat="39.03836" lon="33.12231">
        <ele>996.802166</ele>
        <time>2021-11-16T03:31:04.092Z</time>
      </trkpt>
      <trkpt lat="39.03899" lon="33.12202">
        <ele>996.014089</ele>
        <time>2021-11-16T03:31:16.122Z</time>
      </trkpt>
      <trkpt lat="39.03924" lon="33.12181">
        <ele>995.721287</ele>
        <time>2021-11-16T03:31:21.732Z</time>
      </trkpt>
      <trkpt lat="39.03956" lon="33.12133">
        <ele>995.230274</ele>
        <time>2021-11-16T03:31:31.665Z</time>
      </trkpt>
      <trkpt lat="39.04006" lon="33.12031">
        <ele>995.102522</ele>
        <time>2021-11-16T03:31:52.660Z</time>
      </trkpt>
      <trkpt lat="39.04023" lon="33.12007">
        <ele>995.240649</ele>
        <time>2021-11-16T03:31:58.835Z</time>
      </trkpt>
      <trkpt lat="39.04326" lon="33.11806">
        <ele>997.710599</ele>
        <time>2021-11-16T03:33:26.442Z</time>
      </trkpt>
      <trkpt lat="39.0483" lon="33.11428">
        <ele>1001.433857</ele>
        <time>2021-11-16T03:35:48.374Z</time>
      </trkpt>
      <trkpt lat="39.05304" lon="33.11123">
        <ele>1009.477983</ele>
        <time>2021-11-16T03:38:18.487Z</time>
      </trkpt>
      <trkpt lat="39.05703" lon="33.10801">
        <ele>1020.903734</ele>
        <time>2021-11-16T03:40:51.456Z</time>
      </trkpt>
      <trkpt lat="39.06012" lon="33.10575">
        <ele>1027.282409</ele>
        <time>2021-11-16T03:42:38.362Z</time>
      </trkpt>
      <trkpt lat="39.06086" lon="33.10527">
        <ele>1026.906153</ele>
        <time>2021-11-16T03:42:56.928Z</time>
      </trkpt>
      <trkpt lat="39.06666" lon="33.10249">
        <ele>1015.790044</ele>
        <time>2021-11-16T03:44:46.080Z</time>
      </trkpt>
      <trkpt lat="39.06774" lon="33.10188">
        <ele>1012.961014</ele>
        <time>2021-11-16T03:45:06.160Z</time>
      </trkpt>
      <trkpt lat="39.07111" lon="33.09946">
        <ele>1003.712613</ele>
        <time>2021-11-16T03:46:11.966Z</time>
      </trkpt>
      <trkpt lat="39.07347" lon="33.09788">
        <ele>998.76537</ele>
        <time>2021-11-16T03:46:59.188Z</time>
      </trkpt>
      <trkpt lat="39.07447" lon="33.09701">
        <ele>996.881586</ele>
        <time>2021-11-16T03:47:21.515Z</time>
      </trkpt>
      <trkpt lat="39.08091" lon="33.09077">
        <ele>987.981869</ele>
        <time>2021-11-16T03:49:53.678Z</time>
      </trkpt>
      <trkpt lat="39.08341" lon="33.08826">
        <ele>989.418546</ele>
        <time>2021-11-16T03:51:11.376Z</time>
      </trkpt>
      <trkpt lat="39.08395" lon="33.08766">
        <ele>990.47363</ele>
        <time>2021-11-16T03:51:32.207Z</time>
      </trkpt>
      <trkpt lat="39.08405" lon="33.08756">
        <ele>990.657951</ele>
        <time>2021-11-16T03:51:35.964Z</time>
      </trkpt>
      <trkpt lat="39.08521" lon="33.08627">
        <ele>992.525021</ele>
        <time>2021-11-16T03:52:21.080Z</time>
      </trkpt>
      <trkpt lat="39.0853" lon="33.08626">
        <ele>992.61387</ele>
        <time>2021-11-16T03:52:23.352Z</time>
      </trkpt>
      <trkpt lat="39.08576" lon="33.08601">
        <ele>993.138995</ele>
        <time>2021-11-16T03:52:35.823Z</time>
      </trkpt>
      <trkpt lat="39.08657" lon="33.08565">
        <ele>992.951755</ele>
        <time>2021-11-16T03:52:54.129Z</time>
      </trkpt>
      <trkpt lat="39.08649" lon="33.08531">
        <ele>992.722871</ele>
        <time>2021-11-16T03:52:59.758Z</time>
      </trkpt>
      <trkpt lat="39.08634" lon="33.08505">
        <ele>992.516331</ele>
        <time>2021-11-16T03:53:04.695Z</time>
      </trkpt>
      <trkpt lat="39.08692" lon="33.08468">
        <ele>991.982321</ele>
        <time>2021-11-16T03:53:17.292Z</time>
      </trkpt>
      <trkpt lat="39.0872" lon="33.08424">
        <ele>991.684717</ele>
        <time>2021-11-16T03:53:25.867Z</time>
      </trkpt>
      <trkpt lat="39.08738" lon="33.08394">
        <ele>991.490882</ele>
        <time>2021-11-16T03:53:31.634Z</time>
      </trkpt>
      <trkpt lat="39.08756" lon="33.08357">
        <ele>991.268231</ele>
        <time>2021-11-16T03:53:38.339Z</time>
      </trkpt>
      <trkpt lat="39.0877" lon="33.08347">
        <ele>991.160803</ele>
        <time>2021-11-16T03:53:41.793Z</time>
      </trkpt>
      <trkpt lat="39.08775" lon="33.08344">
        <ele>991.120685</ele>
        <time>2021-11-16T03:53:43.121Z</time>
      </trkpt>
      <trkpt lat="39.08775" lon="33.08337">
        <ele>991.088619</ele>
        <time>2021-11-16T03:53:44.155Z</time>
      </trkpt>
      <trkpt lat="39.08754" lon="33.08239">
        <ele>991.034529</ele>
        <time>2021-11-16T03:54:03.503Z</time>
      </trkpt>
      <trkpt lat="39.08762" lon="33.08184">
        <ele>991.450238</ele>
        <time>2021-11-16T03:54:15.081Z</time>
      </trkpt>
      <trkpt lat="39.08784" lon="33.08109">
        <ele>992.044826</ele>
        <time>2021-11-16T03:54:32.430Z</time>
      </trkpt>
      <trkpt lat="39.08793" lon="33.0808">
        <ele>992.270075</ele>
        <time>2021-11-16T03:54:39.035Z</time>
      </trkpt>
      <trkpt lat="39.08809" lon="33.08043">
        <ele>992.629281</ele>
        <time>2021-11-16T03:54:48.636Z</time>
      </trkpt>
      <trkpt lat="39.08832" lon="33.07997">
        <ele>993.166334</ele>
        <time>2021-11-16T03:55:01.176Z</time>
      </trkpt>
      <trkpt lat="39.08839" lon="33.07979">
        <ele>993.368876</ele>
        <time>2021-11-16T03:55:05.864Z</time>
      </trkpt>
      <trkpt lat="39.08843" lon="33.0793">
        <ele>993.858428</ele>
        <time>2021-11-16T03:55:16.825Z</time>
      </trkpt>
      <trkpt lat="39.08848" lon="33.07899">
        <ele>994.170617</ele>
        <time>2021-11-16T03:55:23.571Z</time>
      </trkpt>
      <trkpt lat="39.08862" lon="33.07847">
        <ele>994.711059</ele>
        <time>2021-11-16T03:55:35.065Z</time>
      </trkpt>
      <trkpt lat="39.08864" lon="33.07805">
        <ele>994.987692</ele>
        <time>2021-11-16T03:55:43.808Z</time>
      </trkpt>
      <trkpt lat="39.08924" lon="33.07766">
        <ele>995.513223</ele>
        <time>2021-11-16T03:56:01.936Z</time>
      </trkpt>
      <trkpt lat="39.08923" lon="33.07737">
        <ele>995.688675</ele>
        <time>2021-11-16T03:56:07.730Z</time>
      </trkpt>
      <trkpt lat="39.08966" lon="33.07693">
        <ele>996.119847</ele>
        <time>2021-11-16T03:56:21.916Z</time>
      </trkpt>
      <trkpt lat="39.09008" lon="33.07625">
        <ele>996.472742</ele>
        <time>2021-11-16T03:56:38.429Z</time>
      </trkpt>
      <trkpt lat="39.09068" lon="33.07527">
        <ele>996.955292</ele>
        <time>2021-11-16T03:57:02.649Z</time>
      </trkpt>
      <trkpt lat="39.09144" lon="33.07406">
        <ele>997.391726</ele>
        <time>2021-11-16T03:57:33.932Z</time>
      </trkpt>
      <trkpt lat="39.09171" lon="33.07351">
        <ele>997.561168</ele>
        <time>2021-11-16T03:57:46.609Z</time>
      </trkpt>
      <trkpt lat="39.09184" lon="33.07332">
        <ele>997.624313</ele>
        <time>2021-11-16T03:57:50.980Z</time>
      </trkpt>
      <trkpt lat="39.09195" lon="33.07319">
        <ele>997.630827</ele>
        <time>2021-11-16T03:57:54.093Z</time>
      </trkpt>
      <trkpt lat="39.09226" lon="33.0722">
        <ele>996.936867</ele>
        <time>2021-11-16T03:58:10.250Z</time>
      </trkpt>
      <trkpt lat="39.09236" lon="33.07187">
        <ele>996.708773</ele>
        <time>2021-11-16T03:58:15.380Z</time>
      </trkpt>
      <trkpt lat="39.09258" lon="33.07117">
        <ele>996.21932</ele>
        <time>2021-11-16T03:58:26.561Z</time>
      </trkpt>
      <trkpt lat="39.09265" lon="33.07094">
        <ele>996.139506</ele>
        <time>2021-11-16T03:58:30.395Z</time>
      </trkpt>
      <trkpt lat="39.09266" lon="33.0709">
        <ele>996.134132</ele>
        <time>2021-11-16T03:58:31.052Z</time>
      </trkpt>
      <trkpt lat="39.09283" lon="33.07046">
        <ele>996.074785</ele>
        <time>2021-11-16T03:58:38.759Z</time>
      </trkpt>
      <trkpt lat="39.09293" lon="33.07017">
        <ele>996.036229</ele>
        <time>2021-11-16T03:58:43.817Z</time>
      </trkpt>
      <trkpt lat="39.09313" lon="33.06982">
        <ele>995.984322</ele>
        <time>2021-11-16T03:58:51.071Z</time>
      </trkpt>
      <trkpt lat="39.0934" lon="33.06927">
        <ele>995.90457</ele>
        <time>2021-11-16T03:59:03.719Z</time>
      </trkpt>
      <trkpt lat="39.09346" lon="33.06915">
        <ele>995.887591</ele>
        <time>2021-11-16T03:59:06.444Z</time>
      </trkpt>
      <trkpt lat="39.09359" lon="33.06888">
        <ele>995.853063</ele>
        <time>2021-11-16T03:59:12.416Z</time>
      </trkpt>
      <trkpt lat="39.09389" lon="33.06828">
        <ele>995.77601</ele>
        <time>2021-11-16T03:59:25.136Z</time>
      </trkpt>
      <trkpt lat="39.094" lon="33.06798">
        <ele>995.740267</ele>
        <time>2021-11-16T03:59:31.061Z</time>
      </trkpt>
      <trkpt lat="39.09445" lon="33.06671">
        <ele>995.487187</ele>
        <time>2021-11-16T03:59:52.842Z</time>
      </trkpt>
      <trkpt lat="39.09446" lon="33.06666">
        <ele>995.467885</ele>
        <time>2021-11-16T03:59:53.421Z</time>
      </trkpt>
      <trkpt lat="39.09477" lon="33.06579">
        <ele>995.084352</ele>
        <time>2021-11-16T04:00:08.665Z</time>
      </trkpt>
      <trkpt lat="39.0952" lon="33.06457">
        <ele>994.816917</ele>
        <time>2021-11-16T04:00:30.255Z</time>
      </trkpt>
      <trkpt lat="39.09551" lon="33.06369">
        <ele>995.090617</ele>
        <time>2021-11-16T04:00:48.417Z</time>
      </trkpt>
      <trkpt lat="39.09585" lon="33.06274">
        <ele>995.416208</ele>
        <time>2021-11-16T04:01:08.566Z</time>
      </trkpt>
      <trkpt lat="39.09602" lon="33.06226">
        <ele>995.760691</ele>
        <time>2021-11-16T04:01:18.589Z</time>
      </trkpt>
      <trkpt lat="39.09638" lon="33.0612">
        <ele>996.514313</ele>
        <time>2021-11-16T04:01:42.010Z</time>
      </trkpt>
      <trkpt lat="39.09692" lon="33.05961">
        <ele>997.782635</ele>
        <time>2021-11-16T04:02:16.861Z</time>
      </trkpt>
      <trkpt lat="39.09728" lon="33.05855">
        <ele>998.669837</ele>
        <time>2021-11-16T04:02:40.266Z</time>
      </trkpt>
      <trkpt lat="39.09749" lon="33.05794">
        <ele>999.347781</ele>
        <time>2021-11-16T04:02:54.523Z</time>
      </trkpt>
      <trkpt lat="39.09763" lon="33.05751">
        <ele>999.817135</ele>
        <time>2021-11-16T04:03:04.484Z</time>
      </trkpt>
      <trkpt lat="39.09799" lon="33.05651">
        <ele>1000.937578</ele>
        <time>2021-11-16T04:03:29.106Z</time>
      </trkpt>
      <trkpt lat="39.0984" lon="33.05536">
        <ele>1001.564683</ele>
        <time>2021-11-16T04:03:54.619Z</time>
      </trkpt>
      <trkpt lat="39.09856" lon="33.05491">
        <ele>1001.79549</ele>
        <time>2021-11-16T04:04:03.622Z</time>
      </trkpt>
      <trkpt lat="39.09894" lon="33.05392">
        <ele>1001.97362</ele>
        <time>2021-11-16T04:04:22.444Z</time>
      </trkpt>
      <trkpt lat="39.09929" lon="33.05299">
        <ele>1001.741969</ele>
        <time>2021-11-16T04:04:38.925Z</time>
      </trkpt>
      <trkpt lat="39.09947" lon="33.05252">
        <ele>1001.62578</ele>
        <time>2021-11-16T04:04:47.455Z</time>
      </trkpt>
      <trkpt lat="39.09972" lon="33.05184">
        <ele>1001.59958</ele>
        <time>2021-11-16T04:05:00.403Z</time>
      </trkpt>
      <trkpt lat="39.09997" lon="33.05117">
        <ele>1001.650511</ele>
        <time>2021-11-16T04:05:13.204Z</time>
      </trkpt>
      <trkpt lat="39.10015" lon="33.05068">
        <ele>1001.68727</ele>
        <time>2021-11-16T04:05:22.534Z</time>
      </trkpt>
      <trkpt lat="39.10026" lon="33.05037">
        <ele>1001.711037</ele>
        <time>2021-11-16T04:05:28.802Z</time>
      </trkpt>
      <trkpt lat="39.1004" lon="33.04998">
        <ele>1001.774257</ele>
        <time>2021-11-16T04:05:36.723Z</time>
      </trkpt>
      <trkpt lat="39.10072" lon="33.04912">
        <ele>1001.987015</ele>
        <time>2021-11-16T04:05:54.768Z</time>
      </trkpt>
      <trkpt lat="39.10078" lon="33.04897">
        <ele>1002.022823</ele>
        <time>2021-11-16T04:05:57.781Z</time>
      </trkpt>
      <trkpt lat="39.10105" lon="33.04826">
        <ele>1002.2003</ele>
        <time>2021-11-16T04:06:11.885Z</time>
      </trkpt>
      <trkpt lat="39.10124" lon="33.04777">
        <ele>1002.118531</ele>
        <time>2021-11-16T04:06:21.276Z</time>
      </trkpt>
      <trkpt lat="39.1014" lon="33.0474">
        <ele>1001.980105</ele>
        <time>2021-11-16T04:06:28.363Z</time>
      </trkpt>
      <trkpt lat="39.10161" lon="33.04694">
        <ele>1001.803349</ele>
        <time>2021-11-16T04:06:37.299Z</time>
      </trkpt>
      <trkpt lat="39.1017" lon="33.04675">
        <ele>1001.731676</ele>
        <time>2021-11-16T04:06:40.723Z</time>
      </trkpt>
      <trkpt lat="39.10245" lon="33.04523">
        <ele>1000.97741</ele>
        <time>2021-11-16T04:07:08.096Z</time>
      </trkpt>
      <trkpt lat="39.1025" lon="33.04497">
        <ele>1000.846144</ele>
        <time>2021-11-16T04:07:12.226Z</time>
      </trkpt>
      <trkpt lat="39.10259" lon="33.04479">
        <ele>1000.741681</ele>
        <time>2021-11-16T04:07:15.505Z</time>
      </trkpt>
      <trkpt lat="39.10423" lon="33.0416">
        <ele>1000.16849</ele>
        <time>2021-11-16T04:08:18.688Z</time>
      </trkpt>
      <trkpt lat="39.10941" lon="33.03101">
        <ele>1005.328479</ele>
        <time>2021-11-16T04:12:17.505Z</time>
      </trkpt>
      <trkpt lat="39.1123" lon="33.02516">
        <ele>1007.740234</ele>
        <time>2021-11-16T04:14:25.902Z</time>
      </trkpt>
      <trkpt lat="39.11244" lon="33.02488">
        <ele>1007.875435</ele>
        <time>2021-11-16T04:14:32.480Z</time>
      </trkpt>
      <trkpt lat="39.11265" lon="33.0245">
        <ele>1008.077862</ele>
        <time>2021-11-16T04:14:41.673Z</time>
      </trkpt>
      <trkpt lat="39.11291" lon="33.02402">
        <ele>1008.392638</ele>
        <time>2021-11-16T04:14:53.154Z</time>
      </trkpt>
      <trkpt lat="39.11396" lon="33.02249">
        <ele>1009.518004</ele>
        <time>2021-11-16T04:15:32.752Z</time>
      </trkpt>
      <trkpt lat="39.11421" lon="33.02212">
        <ele>1009.818886</ele>
        <time>2021-11-16T04:15:42.138Z</time>
      </trkpt>
      <trkpt lat="39.11472" lon="33.02141">
        <ele>1010.410805</ele>
        <time>2021-11-16T04:16:01.120Z</time>
      </trkpt>
      <trkpt lat="39.11478" lon="33.02131">
        <ele>1010.487498</ele>
        <time>2021-11-16T04:16:03.706Z</time>
      </trkpt>
      <trkpt lat="39.11491" lon="33.02106">
        <ele>1010.673907</ele>
        <time>2021-11-16T04:16:09.842Z</time>
      </trkpt>
      <trkpt lat="39.11496" lon="33.02091">
        <ele>1010.785665</ele>
        <time>2021-11-16T04:16:13.116Z</time>
      </trkpt>
      <trkpt lat="39.11498" lon="33.02084">
        <ele>1010.841016</ele>
        <time>2021-11-16T04:16:14.582Z</time>
      </trkpt>
      <trkpt lat="39.11501" lon="33.02073">
        <ele>1010.925366</ele>
        <time>2021-11-16T04:16:17.116Z</time>
      </trkpt>
      <trkpt lat="39.11501" lon="33.02037">
        <ele>1011.188879</ele>
        <time>2021-11-16T04:16:24.356Z</time>
      </trkpt>
      <trkpt lat="39.11496" lon="33.01943">
        <ele>1011.868787</ele>
        <time>2021-11-16T04:16:43.255Z</time>
      </trkpt>
      <trkpt lat="39.11493" lon="33.01891">
        <ele>1012.249665</ele>
        <time>2021-11-16T04:16:53.947Z</time>
      </trkpt>
      <trkpt lat="39.11493" lon="33.01879">
        <ele>1012.33532</ele>
        <time>2021-11-16T04:16:56.358Z</time>
      </trkpt>
      <trkpt lat="39.11489" lon="33.01834">
        <ele>1012.413151</ele>
        <time>2021-11-16T04:17:05.435Z</time>
      </trkpt>
      <trkpt lat="39.11483" lon="33.0176">
        <ele>1012.491741</ele>
        <time>2021-11-16T04:17:19.540Z</time>
      </trkpt>
      <trkpt lat="39.11464" lon="33.01666">
        <ele>1012.593914</ele>
        <time>2021-11-16T04:17:35.248Z</time>
      </trkpt>
      <trkpt lat="39.11458" lon="33.01632">
        <ele>1012.557606</ele>
        <time>2021-11-16T04:17:40.948Z</time>
      </trkpt>
      <trkpt lat="39.11454" lon="33.01597">
        <ele>1012.416413</ele>
        <time>2021-11-16T04:17:46.537Z</time>
      </trkpt>
      <trkpt lat="39.11454" lon="33.01577">
        <ele>1012.334222</ele>
        <time>2021-11-16T04:17:49.656Z</time>
      </trkpt>
      <trkpt lat="39.11455" lon="33.01557">
        <ele>1012.255089</ele>
        <time>2021-11-16T04:17:52.775Z</time>
      </trkpt>
      <trkpt lat="39.11461" lon="33.01545">
        <ele>1012.197941</ele>
        <time>2021-11-16T04:17:55.094Z</time>
      </trkpt>
      <trkpt lat="39.11467" lon="33.01534">
        <ele>1012.145537</ele>
        <time>2021-11-16T04:17:57.083Z</time>
      </trkpt>
      <trkpt lat="39.11525" lon="33.01498">
        <ele>1011.814272</ele>
        <time>2021-11-16T04:18:10.149Z</time>
      </trkpt>
      <trkpt lat="39.11565" lon="33.01458">
        <ele>1011.852214</ele>
        <time>2021-11-16T04:18:20.520Z</time>
      </trkpt>
      <trkpt lat="39.11574" lon="33.01449">
        <ele>1011.922466</ele>
        <time>2021-11-16T04:18:22.948Z</time>
      </trkpt>
      <trkpt lat="39.11587" lon="33.01438">
        <ele>1012.017927</ele>
        <time>2021-11-16T04:18:26.503Z</time>
      </trkpt>
      <trkpt lat="39.1162" lon="33.01427">
        <ele>1012.225179</ele>
        <time>2021-11-16T04:18:34.772Z</time>
      </trkpt>
      <trkpt lat="39.11828" lon="33.01334">
        <ele>1014.313797</ele>
        <time>2021-11-16T04:19:34.407Z</time>
      </trkpt>
      <trkpt lat="39.11887" lon="33.01285">
        <ele>1015.127969</ele>
        <time>2021-11-16T04:19:53.545Z</time>
      </trkpt>
      <trkpt lat="39.12031" lon="33.01061">
        <ele>1017.502507</ele>
        <time>2021-11-16T04:20:53.051Z</time>
      </trkpt>
      <trkpt lat="39.12081" lon="33.00991">
        <ele>1018.25814</ele>
        <time>2021-11-16T04:21:12.466Z</time>
      </trkpt>
      <trkpt lat="39.12256" lon="33.00793">
        <ele>1020.380706</ele>
        <time>2021-11-16T04:22:13.040Z</time>
      </trkpt>
      <trkpt lat="39.12445" lon="33.00597">
        <ele>1021.801408</ele>
        <time>2021-11-16T04:23:12.002Z</time>
      </trkpt>
      <trkpt lat="39.12512" lon="33.00529">
        <ele>1022.339117</ele>
        <time>2021-11-16T04:23:33.130Z</time>
      </trkpt>
      <trkpt lat="39.1258" lon="33.00474">
        <ele>1023.080119</ele>
        <time>2021-11-16T04:23:53.596Z</time>
      </trkpt>
      <trkpt lat="39.13215" lon="33.00029">
        <ele>1030.403879</ele>
        <time>2021-11-16T04:27:04.926Z</time>
      </trkpt>
      <trkpt lat="39.13628" lon="32.99819">
        <ele>1033.769413</ele>
        <time>2021-11-16T04:28:55.995Z</time>
      </trkpt>
      <trkpt lat="39.13893" lon="32.99672">
        <ele>1036.474318</ele>
        <time>2021-11-16T04:30:10.635Z</time>
      </trkpt>
      <trkpt lat="39.1401" lon="32.99587">
        <ele>1038.108459</ele>
        <time>2021-11-16T04:30:47.336Z</time>
      </trkpt>
      <trkpt lat="39.14317" lon="32.99333">
        <ele>1044.003106</ele>
        <time>2021-11-16T04:32:31.661Z</time>
      </trkpt>
      <trkpt lat="39.1436" lon="32.99271">
        <ele>1045.320169</ele>
        <time>2021-11-16T04:32:51.766Z</time>
      </trkpt>
      <trkpt lat="39.14385" lon="32.99195">
        <ele>1046.612182</ele>
        <time>2021-11-16T04:33:11.619Z</time>
      </trkpt>
      <trkpt lat="39.14399" lon="32.99115">
        <ele>1047.86095</ele>
        <time>2021-11-16T04:33:31.520Z</time>
      </trkpt>
      <trkpt lat="39.14414" lon="32.98945">
        <ele>1050.437518</ele>
        <time>2021-11-16T04:34:10.956Z</time>
      </trkpt>
      <trkpt lat="39.14417" lon="32.98883">
        <ele>1051.07701</ele>
        <time>2021-11-16T04:34:24.575Z</time>
      </trkpt>
      <trkpt lat="39.14431" lon="32.98842">
        <ele>1051.547985</ele>
        <time>2021-11-16T04:34:34.403Z</time>
      </trkpt>
      <trkpt lat="39.14595" lon="32.98549">
        <ele>1054.849149</ele>
        <time>2021-11-16T04:35:48.751Z</time>
      </trkpt>
      <trkpt lat="39.14975" lon="32.97869">
        <ele>1063.583564</ele>
        <time>2021-11-16T04:38:46.443Z</time>
      </trkpt>
      <trkpt lat="39.15934" lon="32.96154">
        <ele>1102.375108</ele>
        <time>2021-11-16T04:47:29.312Z</time>
      </trkpt>
      <trkpt lat="39.16331" lon="32.95242">
        <ele>1117.022655</ele>
        <time>2021-11-16T04:51:28.563Z</time>
      </trkpt>
      <trkpt lat="39.16497" lon="32.94795">
        <ele>1121.498846</ele>
        <time>2021-11-16T04:53:10.937Z</time>
      </trkpt>
      <trkpt lat="39.16711" lon="32.94231">
        <ele>1126.987374</ele>
        <time>2021-11-16T04:55:20.323Z</time>
      </trkpt>
      <trkpt lat="39.1673" lon="32.9421">
        <ele>1127.392505</ele>
        <time>2021-11-16T04:55:27.415Z</time>
      </trkpt>
      <trkpt lat="39.16982" lon="32.93849">
        <ele>1133.877729</ele>
        <time>2021-11-16T04:57:18.041Z</time>
      </trkpt>
      <trkpt lat="39.17032" lon="32.93794">
        <ele>1135.03128</ele>
        <time>2021-11-16T04:57:37.323Z</time>
      </trkpt>
      <trkpt lat="39.17111" lon="32.93721">
        <ele>1136.649049</ele>
        <time>2021-11-16T04:58:05.257Z</time>
      </trkpt>
      <trkpt lat="39.17227" lon="32.93626">
        <ele>1138.80058</ele>
        <time>2021-11-16T04:58:44.049Z</time>
      </trkpt>
      <trkpt lat="39.17264" lon="32.93603">
        <ele>1139.645685</ele>
        <time>2021-11-16T04:58:56.223Z</time>
      </trkpt>
      <trkpt lat="39.17307" lon="32.93595">
        <ele>1140.522707</ele>
        <time>2021-11-16T04:59:09.144Z</time>
      </trkpt>
      <trkpt lat="39.17332" lon="32.93592">
        <ele>1141.026271</ele>
        <time>2021-11-16T04:59:16.765Z</time>
      </trkpt>
      <trkpt lat="39.17523" lon="32.93573">
        <ele>1145.239604</ele>
        <time>2021-11-16T05:00:17.435Z</time>
      </trkpt>
      <trkpt lat="39.17566" lon="32.93564">
        <ele>1146.240159</ele>
        <time>2021-11-16T05:00:31.100Z</time>
      </trkpt>
      <trkpt lat="39.17685" lon="32.93518">
        <ele>1149.023392</ele>
        <time>2021-11-16T05:01:09.249Z</time>
      </trkpt>
      <trkpt lat="39.17762" lon="32.93481">
        <ele>1150.950288</ele>
        <time>2021-11-16T05:01:34.859Z</time>
      </trkpt>
      <trkpt lat="39.17806" lon="32.9345">
        <ele>1152.476946</ele>
        <time>2021-11-16T05:01:51.078Z</time>
      </trkpt>
      <trkpt lat="39.18177" lon="32.9311">
        <ele>1166.713782</ele>
        <time>2021-11-16T05:04:30.690Z</time>
      </trkpt>
      <trkpt lat="39.18547" lon="32.92786">
        <ele>1182.417325</ele>
        <time>2021-11-16T05:07:13.591Z</time>
      </trkpt>
      <trkpt lat="39.18717" lon="32.92606">
        <ele>1190.622973</ele>
        <time>2021-11-16T05:08:32.186Z</time>
      </trkpt>
      <trkpt lat="39.19045" lon="32.92285">
        <ele>1210.7585</ele>
        <time>2021-11-16T05:11:26.003Z</time>
      </trkpt>
      <trkpt lat="39.19136" lon="32.92182">
        <ele>1217.83271</ele>
        <time>2021-11-16T05:12:21.588Z</time>
      </trkpt>
      <trkpt lat="39.19232" lon="32.9206">
        <ele>1225.466489</ele>
        <time>2021-11-16T05:13:25.507Z</time>
      </trkpt>
      <trkpt lat="39.19259" lon="32.92019">
        <ele>1227.617542</ele>
        <time>2021-11-16T05:13:43.770Z</time>
      </trkpt>
      <trkpt lat="39.19298" lon="32.91959">
        <ele>1230.765401</ele>
        <time>2021-11-16T05:14:09.116Z</time>
      </trkpt>
      <trkpt lat="39.1936" lon="32.91898">
        <ele>1233.468154</ele>
        <time>2021-11-16T05:14:38.120Z</time>
      </trkpt>
      <trkpt lat="39.19406" lon="32.91864">
        <ele>1234.889022</ele>
        <time>2021-11-16T05:14:55.747Z</time>
      </trkpt>
      <trkpt lat="39.19412" lon="32.9186">
        <ele>1235.075315</ele>
        <time>2021-11-16T05:14:58.060Z</time>
      </trkpt>
      <trkpt lat="39.19505" lon="32.91814">
        <ele>1237.274958</ele>
        <time>2021-11-16T05:15:26.484Z</time>
      </trkpt>
      <trkpt lat="39.1957" lon="32.91772">
        <ele>1238.166787</ele>
        <time>2021-11-16T05:15:46.475Z</time>
      </trkpt>
      <trkpt lat="39.19689" lon="32.91648">
        <ele>1239.580056</ele>
        <time>2021-11-16T05:16:26.034Z</time>
      </trkpt>
      <trkpt lat="39.19775" lon="32.9159">
        <ele>1240.206476</ele>
        <time>2021-11-16T05:16:49.611Z</time>
      </trkpt>
      <trkpt lat="39.19808" lon="32.91578">
        <ele>1240.211581</ele>
        <time>2021-11-16T05:16:57.823Z</time>
      </trkpt>
      <trkpt lat="39.1996" lon="32.91565">
        <ele>1240.095318</ele>
        <time>2021-11-16T05:17:31.239Z</time>
      </trkpt>
      <trkpt lat="39.20034" lon="32.91539">
        <ele>1239.356383</ele>
        <time>2021-11-16T05:17:46.416Z</time>
      </trkpt>
      <trkpt lat="39.20062" lon="32.91518">
        <ele>1239.05294</ele>
        <time>2021-11-16T05:17:52.476Z</time>
      </trkpt>
      <trkpt lat="39.20141" lon="32.91441">
        <ele>1238.135612</ele>
        <time>2021-11-16T05:18:11.013Z</time>
      </trkpt>
      <trkpt lat="39.20198" lon="32.91376">
        <ele>1237.472799</ele>
        <time>2021-11-16T05:18:25.301Z</time>
      </trkpt>
      <trkpt lat="39.20227" lon="32.91328">
        <ele>1237.064603</ele>
        <time>2021-11-16T05:18:34.729Z</time>
      </trkpt>
      <trkpt lat="39.20254" lon="32.91266">
        <ele>1237.145501</ele>
        <time>2021-11-16T05:18:46.565Z</time>
      </trkpt>
      <trkpt lat="39.20392" lon="32.90713">
        <ele>1242.003891</ele>
        <time>2021-11-16T05:20:47.496Z</time>
      </trkpt>
      <trkpt lat="39.20513" lon="32.90261">
        <ele>1247.850827</ele>
        <time>2021-11-16T05:22:34.329Z</time>
      </trkpt>
      <trkpt lat="39.2054" lon="32.90174">
        <ele>1249.034969</ele>
        <time>2021-11-16T05:22:54.695Z</time>
      </trkpt>
      <trkpt lat="39.20597" lon="32.90024">
        <ele>1251.203595</ele>
        <time>2021-11-16T05:23:31.736Z</time>
      </trkpt>
      <trkpt lat="39.20765" lon="32.89656">
        <ele>1258.421457</ele>
        <time>2021-11-16T05:25:13.894Z</time>
      </trkpt>
      <trkpt lat="39.20891" lon="32.89378">
        <ele>1265.305301</ele>
        <time>2021-11-16T05:26:36.964Z</time>
      </trkpt>
      <trkpt lat="39.21018" lon="32.89097">
        <ele>1273.917899</ele>
        <time>2021-11-16T05:28:11.403Z</time>
      </trkpt>
      <trkpt lat="39.21169" lon="32.88768">
        <ele>1279.818108</ele>
        <time>2021-11-16T05:29:44.312Z</time>
      </trkpt>
      <trkpt lat="39.21217" lon="32.88711">
        <ele>1278.371121</ele>
        <time>2021-11-16T05:29:55.898Z</time>
      </trkpt>
      <trkpt lat="39.21254" lon="32.8863">
        <ele>1276.72855</ele>
        <time>2021-11-16T05:30:07.581Z</time>
      </trkpt>
      <trkpt lat="39.21321" lon="32.88553">
        <ele>1273.014299</ele>
        <time>2021-11-16T05:30:20.956Z</time>
      </trkpt>
      <trkpt lat="39.21351" lon="32.88507">
        <ele>1270.846094</ele>
        <time>2021-11-16T05:30:27.970Z</time>
      </trkpt>
      <trkpt lat="39.21381" lon="32.88451">
        <ele>1268.399381</ele>
        <time>2021-11-16T05:30:36.080Z</time>
      </trkpt>
      <trkpt lat="39.21393" lon="32.88413">
        <ele>1267.358721</ele>
        <time>2021-11-16T05:30:41.029Z</time>
      </trkpt>
      <trkpt lat="39.21475" lon="32.88151">
        <ele>1261.549615</ele>
        <time>2021-11-16T05:31:18.467Z</time>
      </trkpt>
      <trkpt lat="39.21483" lon="32.88112">
        <ele>1260.81198</ele>
        <time>2021-11-16T05:31:23.982Z</time>
      </trkpt>
      <trkpt lat="39.21487" lon="32.88091">
        <ele>1260.421363</ele>
        <time>2021-11-16T05:31:26.814Z</time>
      </trkpt>
      <trkpt lat="39.21488" lon="32.87958">
        <ele>1257.910818</ele>
        <time>2021-11-16T05:31:44.417Z</time>
      </trkpt>
      <trkpt lat="39.21649" lon="32.8749">
        <ele>1246.989432</ele>
        <time>2021-11-16T05:32:51.000Z</time>
      </trkpt>
      <trkpt lat="39.21696" lon="32.87309">
        <ele>1241.97656</ele>
        <time>2021-11-16T05:33:14.858Z</time>
      </trkpt>
      <trkpt lat="39.21704" lon="32.87255">
        <ele>1240.208343</ele>
        <time>2021-11-16T05:33:21.569Z</time>
      </trkpt>
      <trkpt lat="39.21706" lon="32.87219">
        <ele>1239.041061</ele>
        <time>2021-11-16T05:33:25.884Z</time>
      </trkpt>
      <trkpt lat="39.21706" lon="32.87089">
        <ele>1234.833181</ele>
        <time>2021-11-16T05:33:41.196Z</time>
      </trkpt>
      <trkpt lat="39.21699" lon="32.8698">
        <ele>1231.162639</ele>
        <time>2021-11-16T05:33:54.337Z</time>
      </trkpt>
      <trkpt lat="39.21705" lon="32.86933">
        <ele>1229.58405</ele>
        <time>2021-11-16T05:34:00.092Z</time>
      </trkpt>
      <trkpt lat="39.21733" lon="32.86792">
        <ele>1224.661784</ele>
        <time>2021-11-16T05:34:17.749Z</time>
      </trkpt>
      <trkpt lat="39.21795" lon="32.86601">
        <ele>1217.179355</ele>
        <time>2021-11-16T05:34:42.274Z</time>
      </trkpt>
      <trkpt lat="39.21818" lon="32.86417">
        <ele>1210.319093</ele>
        <time>2021-11-16T05:35:03.847Z</time>
      </trkpt>
      <trkpt lat="39.21815" lon="32.86335">
        <ele>1208.08179</ele>
        <time>2021-11-16T05:35:13.728Z</time>
      </trkpt>
      <trkpt lat="39.21804" lon="32.86289">
        <ele>1206.770033</ele>
        <time>2021-11-16T05:35:19.786Z</time>
      </trkpt>
      <trkpt lat="39.21753" lon="32.85966">
        <ele>1201.219343</ele>
        <time>2021-11-16T05:36:06.443Z</time>
      </trkpt>
      <trkpt lat="39.21755" lon="32.85899">
        <ele>1199.463661</ele>
        <time>2021-11-16T05:36:15.336Z</time>
      </trkpt>
      <trkpt lat="39.21774" lon="32.85825">
        <ele>1197.442364</ele>
        <time>2021-11-16T05:36:24.962Z</time>
      </trkpt>
      <trkpt lat="39.2178" lon="32.85772">
        <ele>1196.041736</ele>
        <time>2021-11-16T05:36:31.331Z</time>
      </trkpt>
      <trkpt lat="39.21778" lon="32.85701">
        <ele>1192.588838</ele>
        <time>2021-11-16T05:36:39.423Z</time>
      </trkpt>
      <trkpt lat="39.21766" lon="32.85533">
        <ele>1184.307053</ele>
        <time>2021-11-16T05:36:58.148Z</time>
      </trkpt>
      <trkpt lat="39.21748" lon="32.8537">
        <ele>1176.129431</ele>
        <time>2021-11-16T05:37:16.416Z</time>
      </trkpt>
      <trkpt lat="39.21743" lon="32.85287">
        <ele>1172.452632</ele>
        <time>2021-11-16T05:37:26.092Z</time>
      </trkpt>
      <trkpt lat="39.21736" lon="32.85253">
        <ele>1171.446986</ele>
        <time>2021-11-16T05:37:30.264Z</time>
      </trkpt>
      <trkpt lat="39.21724" lon="32.85214">
        <ele>1170.2312</ele>
        <time>2021-11-16T05:37:35.498Z</time>
      </trkpt>
      <trkpt lat="39.21728" lon="32.85126">
        <ele>1167.714494</ele>
        <time>2021-11-16T05:37:46.726Z</time>
      </trkpt>
      <trkpt lat="39.21724" lon="32.85101">
        <ele>1166.994734</ele>
        <time>2021-11-16T05:37:49.967Z</time>
      </trkpt>
      <trkpt lat="39.21704" lon="32.85071">
        <ele>1165.899516</ele>
        <time>2021-11-16T05:37:55.051Z</time>
      </trkpt>
      <trkpt lat="39.217" lon="32.85054">
        <ele>1165.433369</ele>
        <time>2021-11-16T05:37:57.371Z</time>
      </trkpt>
      <trkpt lat="39.21692" lon="32.8499">
        <ele>1163.717385</ele>
        <time>2021-11-16T05:38:05.797Z</time>
      </trkpt>
      <trkpt lat="39.21717" lon="32.84848">
        <ele>1159.797252</ele>
        <time>2021-11-16T05:38:23.741Z</time>
      </trkpt>
      <trkpt lat="39.21729" lon="32.84679">
        <ele>1154.583986</ele>
        <time>2021-11-16T05:38:44.004Z</time>
      </trkpt>
      <trkpt lat="39.2173" lon="32.84543">
        <ele>1151.03938</ele>
        <time>2021-11-16T05:39:01.057Z</time>
      </trkpt>
      <trkpt lat="39.21747" lon="32.84354">
        <ele>1147.063843</ele>
        <time>2021-11-16T05:39:25.679Z</time>
      </trkpt>
      <trkpt lat="39.21744" lon="32.84292">
        <ele>1146.255261</ele>
        <time>2021-11-16T05:39:34.076Z</time>
      </trkpt>
      <trkpt lat="39.21734" lon="32.84226">
        <ele>1145.375665</ele>
        <time>2021-11-16T05:39:43.537Z</time>
      </trkpt>
      <trkpt lat="39.21674" lon="32.83884">
        <ele>1143.723245</ele>
        <time>2021-11-16T05:40:39.705Z</time>
      </trkpt>
      <trkpt lat="39.2166" lon="32.83832">
        <ele>1143.683153</ele>
        <time>2021-11-16T05:40:49.243Z</time>
      </trkpt>
      <trkpt lat="39.21597" lon="32.8373">
        <ele>1143.592486</ele>
        <time>2021-11-16T05:41:11.982Z</time>
      </trkpt>
      <trkpt lat="39.21559" lon="32.83682">
        <ele>1143.562781</ele>
        <time>2021-11-16T05:41:23.843Z</time>
      </trkpt>
      <trkpt lat="39.21517" lon="32.83616">
        <ele>1143.5258</ele>
        <time>2021-11-16T05:41:38.305Z</time>
      </trkpt>
      <trkpt lat="39.21448" lon="32.83526">
        <ele>1143.448355</ele>
        <time>2021-11-16T05:41:59.487Z</time>
      </trkpt>
      <trkpt lat="39.21341" lon="32.83408">
        <ele>1143.312644</ele>
        <time>2021-11-16T05:42:30.563Z</time>
      </trkpt>
      <trkpt lat="39.21322" lon="32.83368">
        <ele>1143.289057</ele>
        <time>2021-11-16T05:42:38.722Z</time>
      </trkpt>
      <trkpt lat="39.21243" lon="32.83242">
        <ele>1143.20751</ele>
        <time>2021-11-16T05:43:06.673Z</time>
      </trkpt>
      <trkpt lat="39.21165" lon="32.83151">
        <ele>1142.404075</ele>
        <time>2021-11-16T05:43:28.469Z</time>
      </trkpt>
      <trkpt lat="39.21011" lon="32.82867">
        <ele>1138.862386</ele>
        <time>2021-11-16T05:44:18.055Z</time>
      </trkpt>
      <trkpt lat="39.2095" lon="32.82668">
        <ele>1135.224821</ele>
        <time>2021-11-16T05:44:46.503Z</time>
      </trkpt>
      <trkpt lat="39.20838" lon="32.82416">
        <ele>1130.295592</ele>
        <time>2021-11-16T05:45:25.454Z</time>
      </trkpt>
      <trkpt lat="39.20749" lon="32.82277">
        <ele>1127.462285</ele>
        <time>2021-11-16T05:45:50.254Z</time>
      </trkpt>
      <trkpt lat="39.20668" lon="32.82133">
        <ele>1124.315176</ele>
        <time>2021-11-16T05:46:14.330Z</time>
      </trkpt>
      <trkpt lat="39.20509" lon="32.81811">
        <ele>1116.135312</ele>
        <time>2021-11-16T05:47:03.453Z</time>
      </trkpt>
      <trkpt lat="39.20431" lon="32.81682">
        <ele>1112.62834</ele>
        <time>2021-11-16T05:47:24.268Z</time>
      </trkpt>
      <trkpt lat="39.20387" lon="32.81592">
        <ele>1111.06769</ele>
        <time>2021-11-16T05:47:38.388Z</time>
      </trkpt>
      <trkpt lat="39.20205" lon="32.81282">
        <ele>1107.911305</ele>
        <time>2021-11-16T05:48:36.990Z</time>
      </trkpt>
      <trkpt lat="39.20139" lon="32.81182">
        <ele>1107.609425</ele>
        <time>2021-11-16T05:48:59.514Z</time>
      </trkpt>
      <trkpt lat="39.19989" lon="32.80928">
        <ele>1107.22236</ele>
        <time>2021-11-16T05:49:54.649Z</time>
      </trkpt>
      <trkpt lat="39.19765" lon="32.80542">
        <ele>1104.524386</ele>
        <time>2021-11-16T05:51:08.271Z</time>
      </trkpt>
      <trkpt lat="39.19618" lon="32.80249">
        <ele>1102.456602</ele>
        <time>2021-11-16T05:52:02.211Z</time>
      </trkpt>
      <trkpt lat="39.19614" lon="32.80233">
        <ele>1102.354669</ele>
        <time>2021-11-16T05:52:04.788Z</time>
      </trkpt>
      <trkpt lat="39.19637" lon="32.80182">
        <ele>1101.987247</ele>
        <time>2021-11-16T05:52:13.686Z</time>
      </trkpt>
      <trkpt lat="39.19726" lon="32.79946">
        <ele>1100.325111</ele>
        <time>2021-11-16T05:52:53.551Z</time>
      </trkpt>
      <trkpt lat="39.19738" lon="32.79886">
        <ele>1100.031369</ele>
        <time>2021-11-16T05:53:03.102Z</time>
      </trkpt>
      <trkpt lat="39.19802" lon="32.79434">
        <ele>1098.105048</ele>
        <time>2021-11-16T05:54:16.469Z</time>
      </trkpt>
      <trkpt lat="39.19822" lon="32.7921">
        <ele>1096.915293</ele>
        <time>2021-11-16T05:54:51.359Z</time>
      </trkpt>
      <trkpt lat="39.19905" lon="32.78844">
        <ele>1094.368589</ele>
        <time>2021-11-16T05:55:49.436Z</time>
      </trkpt>
      <trkpt lat="39.19929" lon="32.78762">
        <ele>1093.838817</ele>
        <time>2021-11-16T05:56:02.135Z</time>
      </trkpt>
      <trkpt lat="39.19984" lon="32.78612">
        <ele>1093.340544</ele>
        <time>2021-11-16T05:56:27.933Z</time>
      </trkpt>
      <trkpt lat="39.20157" lon="32.78025">
        <ele>1097.517763</ele>
        <time>2021-11-16T05:58:35.396Z</time>
      </trkpt>
      <trkpt lat="39.20218" lon="32.77753">
        <ele>1099.322052</ele>
        <time>2021-11-16T05:59:33.292Z</time>
      </trkpt>
      <trkpt lat="39.20228" lon="32.77635">
        <ele>1098.82005</ele>
        <time>2021-11-16T05:59:52.997Z</time>
      </trkpt>
      <trkpt lat="39.20229" lon="32.77416">
        <ele>1096.589715</ele>
        <time>2021-11-16T06:00:23.651Z</time>
      </trkpt>
      <trkpt lat="39.20267" lon="32.77015">
        <ele>1090.30335</ele>
        <time>2021-11-16T06:01:18.272Z</time>
      </trkpt>
      <trkpt lat="39.20325" lon="32.76718">
        <ele>1085.634292</ele>
        <time>2021-11-16T06:02:00.574Z</time>
      </trkpt>
      <trkpt lat="39.20338" lon="32.76534">
        <ele>1082.317197</ele>
        <time>2021-11-16T06:02:25.387Z</time>
      </trkpt>
      <trkpt lat="39.20328" lon="32.76017">
        <ele>1071.734375</ele>
        <time>2021-11-16T06:03:32.541Z</time>
      </trkpt>
      <trkpt lat="39.20267" lon="32.75752">
        <ele>1065.897263</ele>
        <time>2021-11-16T06:04:08.112Z</time>
      </trkpt>
      <trkpt lat="39.20232" lon="32.7554">
        <ele>1062.207084</ele>
        <time>2021-11-16T06:04:37.072Z</time>
      </trkpt>
      <trkpt lat="39.20228" lon="32.75462">
        <ele>1061.190882</ele>
        <time>2021-11-16T06:04:48.140Z</time>
      </trkpt>
      <trkpt lat="39.20236" lon="32.75373">
        <ele>1060.630488</ele>
        <time>2021-11-16T06:05:01.451Z</time>
      </trkpt>
      <trkpt lat="39.20272" lon="32.75248">
        <ele>1059.935553</ele>
        <time>2021-11-16T06:05:23.052Z</time>
      </trkpt>
      <trkpt lat="39.20275" lon="32.75197">
        <ele>1060.063633</ele>
        <time>2021-11-16T06:05:31.748Z</time>
      </trkpt>
      <trkpt lat="39.2027" lon="32.75127">
        <ele>1060.241539</ele>
        <time>2021-11-16T06:05:44.607Z</time>
      </trkpt>
      <trkpt lat="39.20303" lon="32.75044">
        <ele>1060.47736</ele>
        <time>2021-11-16T06:06:03.174Z</time>
      </trkpt>
      <trkpt lat="39.20327" lon="32.74969">
        <ele>1060.798773</ele>
        <time>2021-11-16T06:06:18.586Z</time>
      </trkpt>
      <trkpt lat="39.2034" lon="32.74963">
        <ele>1060.872735</ele>
        <time>2021-11-16T06:06:22.262Z</time>
      </trkpt>
      <trkpt lat="39.2035" lon="32.74901">
        <ele>1061.126272</ele>
        <time>2021-11-16T06:06:34.031Z</time>
      </trkpt>
      <trkpt lat="39.20352" lon="32.74822">
        <ele>1061.41775</ele>
        <time>2021-11-16T06:06:48.493Z</time>
      </trkpt>
      <trkpt lat="39.20368" lon="32.74706">
        <ele>1061.474935</ele>
        <time>2021-11-16T06:07:08.781Z</time>
      </trkpt>
      <trkpt lat="39.20403" lon="32.74612">
        <ele>1061.525889</ele>
        <time>2021-11-16T06:07:26.610Z</time>
      </trkpt>
      <trkpt lat="39.20412" lon="32.74564">
        <ele>1061.647707</ele>
        <time>2021-11-16T06:07:35.410Z</time>
      </trkpt>
      <trkpt lat="39.20414" lon="32.74488">
        <ele>1061.844782</ele>
        <time>2021-11-16T06:07:49.353Z</time>
      </trkpt>
      <trkpt lat="39.20423" lon="32.74435">
        <ele>1061.982811</ele>
        <time>2021-11-16T06:07:59.265Z</time>
      </trkpt>
      <trkpt lat="39.2044" lon="32.74369">
        <ele>1062.173783</ele>
        <time>2021-11-16T06:08:12.398Z</time>
      </trkpt>
      <trkpt lat="39.20448" lon="32.74315">
        <ele>1062.361649</ele>
        <time>2021-11-16T06:08:22.802Z</time>
      </trkpt>
      <trkpt lat="39.20544" lon="32.74336">
        <ele>1062.785523</ele>
        <time>2021-11-16T06:08:45.916Z</time>
      </trkpt>
      <trkpt lat="39.20645" lon="32.74359">
        <ele>1063.240171</ele>
        <time>2021-11-16T06:09:10.618Z</time>
      </trkpt>
      <trkpt lat="39.20869" lon="32.74401">
        <ele>1064.190445</ele>
        <time>2021-11-16T06:10:05.112Z</time>
      </trkpt>
      <trkpt lat="39.20913" lon="32.74409">
        <ele>1064.36567</ele>
        <time>2021-11-16T06:10:15.425Z</time>
      </trkpt>
      <trkpt lat="39.21371" lon="32.74464">
        <ele>1065.67301</ele>
        <time>2021-11-16T06:12:01.775Z</time>
      </trkpt>
      <trkpt lat="39.21683" lon="32.74511">
        <ele>1068.014973</ele>
        <time>2021-11-16T06:13:22.102Z</time>
      </trkpt>
      <trkpt lat="39.21854" lon="32.74526">
        <ele>1069.43028</ele>
        <time>2021-11-16T06:14:06.256Z</time>
      </trkpt>
      <trkpt lat="39.22027" lon="32.7453">
        <ele>1070.558448</ele>
        <time>2021-11-16T06:14:49.366Z</time>
      </trkpt>
      <trkpt lat="39.22082" lon="32.74528">
        <ele>1070.708164</ele>
        <time>2021-11-16T06:15:02.315Z</time>
      </trkpt>
      <trkpt lat="39.22157" lon="32.74526">
        <ele>1070.915022</ele>
        <time>2021-11-16T06:15:19.640Z</time>
      </trkpt>
      <trkpt lat="39.22169" lon="32.74525">
        <ele>1070.94771</ele>
        <time>2021-11-16T06:15:22.285Z</time>
      </trkpt>
      <trkpt lat="39.22256" lon="32.74513">
        <ele>1071.012232</ele>
        <time>2021-11-16T06:15:41.912Z</time>
      </trkpt>
      <trkpt lat="39.2232" lon="32.74505">
        <ele>1071.035944</ele>
        <time>2021-11-16T06:15:56.151Z</time>
      </trkpt>
      <trkpt lat="39.22338" lon="32.745">
        <ele>1071.042758</ele>
        <time>2021-11-16T06:16:00.160Z</time>
      </trkpt>
      <trkpt lat="39.22358" lon="32.74496">
        <ele>1071.050165</ele>
        <time>2021-11-16T06:16:04.728Z</time>
      </trkpt>
      <trkpt lat="39.22858" lon="32.74331">
        <ele>1071.982454</ele>
        <time>2021-11-16T06:18:03.599Z</time>
      </trkpt>
      <trkpt lat="39.22986" lon="32.74295">
        <ele>1072.23953</ele>
        <time>2021-11-16T06:18:32.314Z</time>
      </trkpt>
      <trkpt lat="39.23109" lon="32.74273">
        <ele>1073.166921</ele>
        <time>2021-11-16T06:19:02.597Z</time>
      </trkpt>
      <trkpt lat="39.23284" lon="32.74255">
        <ele>1076.323608</ele>
        <time>2021-11-16T06:19:55.447Z</time>
      </trkpt>
      <trkpt lat="39.23344" lon="32.74253">
        <ele>1077.751436</ele>
        <time>2021-11-16T06:20:15.060Z</time>
      </trkpt>
      <trkpt lat="39.2351" lon="32.74259">
        <ele>1081.221348</ele>
        <time>2021-11-16T06:21:08.482Z</time>
      </trkpt>
      <trkpt lat="39.23754" lon="32.74281">
        <ele>1084.682866</ele>
        <time>2021-11-16T06:22:14.872Z</time>
      </trkpt>
      <trkpt lat="39.23975" lon="32.74307">
        <ele>1087.884034</ele>
        <time>2021-11-16T06:23:13.828Z</time>
      </trkpt>
      <trkpt lat="39.23985" lon="32.74306">
        <ele>1088.239323</ele>
        <time>2021-11-16T06:23:16.942Z</time>
      </trkpt>
      <trkpt lat="39.23992" lon="32.74303">
        <ele>1088.495821</ele>
        <time>2021-11-16T06:23:19.238Z</time>
      </trkpt>
      <trkpt lat="39.23998" lon="32.74296">
        <ele>1088.757802</ele>
        <time>2021-11-16T06:23:22.811Z</time>
      </trkpt>
      <trkpt lat="39.24014" lon="32.74183">
        <ele>1091.768792</ele>
        <time>2021-11-16T06:23:55.173Z</time>
      </trkpt>
      <trkpt lat="39.24053" lon="32.7372">
        <ele>1107.649609</ele>
        <time>2021-11-16T06:26:22.726Z</time>
      </trkpt>
      <trkpt lat="39.24118" lon="32.73192">
        <ele>1124.174324</ele>
        <time>2021-11-16T06:29:01.110Z</time>
      </trkpt>
      <trkpt lat="39.24139" lon="32.72953">
        <ele>1129.432963</ele>
        <time>2021-11-16T06:30:02.993Z</time>
      </trkpt>
      <trkpt lat="39.24168" lon="32.72254">
        <ele>1141.07782</ele>
        <time>2021-11-16T06:32:50.582Z</time>
      </trkpt>
      <trkpt lat="39.2418" lon="32.72096">
        <ele>1142.762406</ele>
        <time>2021-11-16T06:33:25.321Z</time>
      </trkpt>
      <trkpt lat="39.24211" lon="32.7188">
        <ele>1143.328187</ele>
        <time>2021-11-16T06:34:06.442Z</time>
      </trkpt>
      <trkpt lat="39.2425" lon="32.71679">
        <ele>1141.513162</ele>
        <time>2021-11-16T06:34:36.757Z</time>
      </trkpt>
      <trkpt lat="39.2427" lon="32.71508">
        <ele>1138.774428</ele>
        <time>2021-11-16T06:34:59.521Z</time>
      </trkpt>
      <trkpt lat="39.24304" lon="32.71396">
        <ele>1136.457093</ele>
        <time>2021-11-16T06:35:15.269Z</time>
      </trkpt>
      <trkpt lat="39.24394" lon="32.71166">
        <ele>1132.240105</ele>
        <time>2021-11-16T06:35:50.205Z</time>
      </trkpt>
      <trkpt lat="39.24511" lon="32.70846">
        <ele>1128.45639</ele>
        <time>2021-11-16T06:36:40.262Z</time>
      </trkpt>
      <trkpt lat="39.24559" lon="32.70732">
        <ele>1127.574924</ele>
        <time>2021-11-16T06:37:00.659Z</time>
      </trkpt>
      <trkpt lat="39.24611" lon="32.70627">
        <ele>1127.581628</ele>
        <time>2021-11-16T06:37:22.328Z</time>
      </trkpt>
      <trkpt lat="39.24679" lon="32.70498">
        <ele>1127.793412</ele>
        <time>2021-11-16T06:37:50.568Z</time>
      </trkpt>
      <trkpt lat="39.24748" lon="32.70384">
        <ele>1128.253827</ele>
        <time>2021-11-16T06:38:17.283Z</time>
      </trkpt>
      <trkpt lat="39.24931" lon="32.70159">
        <ele>1129.850324</ele>
        <time>2021-11-16T06:39:19.370Z</time>
      </trkpt>
      <trkpt lat="39.24985" lon="32.70067">
        <ele>1130.616989</ele>
        <time>2021-11-16T06:39:42.531Z</time>
      </trkpt>
      <trkpt lat="39.25336" lon="32.69323">
        <ele>1138.111274</ele>
        <time>2021-11-16T06:42:42.786Z</time>
      </trkpt>
      <trkpt lat="39.25455" lon="32.69117">
        <ele>1140.293518</ele>
        <time>2021-11-16T06:43:36.587Z</time>
      </trkpt>
      <trkpt lat="39.25663" lon="32.68778">
        <ele>1143.346416</ele>
        <time>2021-11-16T06:45:02.949Z</time>
      </trkpt>
      <trkpt lat="39.25811" lon="32.68593">
        <ele>1145.070058</ele>
        <time>2021-11-16T06:45:55.171Z</time>
      </trkpt>
      <trkpt lat="39.25857" lon="32.6855">
        <ele>1145.546002</ele>
        <time>2021-11-16T06:46:09.723Z</time>
      </trkpt>
      <trkpt lat="39.25948" lon="32.68485">
        <ele>1146.720307</ele>
        <time>2021-11-16T06:46:37.160Z</time>
      </trkpt>
      <trkpt lat="39.26156" lon="32.68371">
        <ele>1149.464062</ele>
        <time>2021-11-16T06:47:38.957Z</time>
      </trkpt>
      <trkpt lat="39.26323" lon="32.68332">
        <ele>1151.515969</ele>
        <time>2021-11-16T06:48:24.971Z</time>
      </trkpt>
      <trkpt lat="39.26573" lon="32.68293">
        <ele>1154.669336</ele>
        <time>2021-11-16T06:49:33.307Z</time>
      </trkpt>
      <trkpt lat="39.26648" lon="32.68287">
        <ele>1155.71187</ele>
        <time>2021-11-16T06:49:54.278Z</time>
      </trkpt>
      <trkpt lat="39.26708" lon="32.68293">
        <ele>1156.533933</ele>
        <time>2021-11-16T06:50:10.995Z</time>
      </trkpt>
      <trkpt lat="39.26875" lon="32.68263">
        <ele>1159.079706</ele>
        <time>2021-11-16T06:50:58.572Z</time>
      </trkpt>
      <trkpt lat="39.27044" lon="32.68255">
        <ele>1162.007811</ele>
        <time>2021-11-16T06:51:47.666Z</time>
      </trkpt>
      <trkpt lat="39.2706" lon="32.68252">
        <ele>1162.291355</ele>
        <time>2021-11-16T06:51:52.547Z</time>
      </trkpt>
      <trkpt lat="39.27091" lon="32.6824">
        <ele>1162.914947</ele>
        <time>2021-11-16T06:52:02.250Z</time>
      </trkpt>
      <trkpt lat="39.27195" lon="32.68171">
        <ele>1165.501592</ele>
        <time>2021-11-16T06:52:38.280Z</time>
      </trkpt>
      <trkpt lat="39.27257" lon="32.68119">
        <ele>1167.085446</ele>
        <time>2021-11-16T06:53:02.153Z</time>
      </trkpt>
      <trkpt lat="39.27278" lon="32.68114">
        <ele>1167.498755</ele>
        <time>2021-11-16T06:53:08.920Z</time>
      </trkpt>
      <trkpt lat="39.27327" lon="32.6812">
        <ele>1168.445588</ele>
        <time>2021-11-16T06:53:24.041Z</time>
      </trkpt>
      <trkpt lat="39.27342" lon="32.68115">
        <ele>1168.748193</ele>
        <time>2021-11-16T06:53:28.499Z</time>
      </trkpt>
      <trkpt lat="39.2735" lon="32.68104">
        <ele>1168.971657</ele>
        <time>2021-11-16T06:53:32.490Z</time>
      </trkpt>
      <trkpt lat="39.27351" lon="32.68051">
        <ele>1169.769449</ele>
        <time>2021-11-16T06:53:44.678Z</time>
      </trkpt>
      <trkpt lat="39.27361" lon="32.6803">
        <ele>1170.14605</ele>
        <time>2021-11-16T06:53:49.524Z</time>
      </trkpt>
      <trkpt lat="39.27393" lon="32.67994">
        <ele>1170.243649</ele>
        <time>2021-11-16T06:54:00.832Z</time>
      </trkpt>
      <trkpt lat="39.27432" lon="32.67962">
        <ele>1170.343138</ele>
        <time>2021-11-16T06:54:11.840Z</time>
      </trkpt>
      <trkpt lat="39.27446" lon="32.67943">
        <ele>1170.387233</ele>
        <time>2021-11-16T06:54:16.012Z</time>
      </trkpt>
      <trkpt lat="39.27451" lon="32.67933">
        <ele>1170.405704</ele>
        <time>2021-11-16T06:54:18.025Z</time>
      </trkpt>
      <trkpt lat="39.27452" lon="32.6792">
        <ele>1170.42846</ele>
        <time>2021-11-16T06:54:20.103Z</time>
      </trkpt>
      <trkpt lat="39.27449" lon="32.67842">
        <ele>1170.557236</ele>
        <time>2021-11-16T06:54:32.675Z</time>
      </trkpt>
      <trkpt lat="39.27443" lon="32.67769">
        <ele>1170.669123</ele>
        <time>2021-11-16T06:54:44.187Z</time>
      </trkpt>
      <trkpt lat="39.27437" lon="32.67544">
        <ele>1171.983929</ele>
        <time>2021-11-16T06:55:26.824Z</time>
      </trkpt>
      <trkpt lat="39.27428" lon="32.67461">
        <ele>1173.174659</ele>
        <time>2021-11-16T06:55:46.488Z</time>
      </trkpt>
      <trkpt lat="39.27364" lon="32.67126">
        <ele>1180.580285</ele>
        <time>2021-11-16T06:57:18.174Z</time>
      </trkpt>
      <trkpt lat="39.2736" lon="32.67079">
        <ele>1181.714851</ele>
        <time>2021-11-16T06:57:30.883Z</time>
      </trkpt>
      <trkpt lat="39.27351" lon="32.66975">
        <ele>1184.273071</ele>
        <time>2021-11-16T06:57:59.397Z</time>
      </trkpt>
      <trkpt lat="39.27348" lon="32.66913">
        <ele>1185.803212</ele>
        <time>2021-11-16T06:58:16.241Z</time>
      </trkpt>
      <trkpt lat="39.27353" lon="32.66778">
        <ele>1189.150297</ele>
        <time>2021-11-16T06:58:52.359Z</time>
      </trkpt>
      <trkpt lat="39.27371" lon="32.6671">
        <ele>1190.93493</ele>
        <time>2021-11-16T06:59:12.016Z</time>
      </trkpt>
      <trkpt lat="39.27397" lon="32.66646">
        <ele>1193.332674</ele>
        <time>2021-11-16T06:59:32.890Z</time>
      </trkpt>
      <trkpt lat="39.27433" lon="32.66579">
        <ele>1196.033833</ele>
        <time>2021-11-16T06:59:57.363Z</time>
      </trkpt>
      <trkpt lat="39.27646" lon="32.66255">
        <ele>1212.509371</ele>
        <time>2021-11-16T07:02:17.424Z</time>
      </trkpt>
      <trkpt lat="39.27871" lon="32.65928">
        <ele>1231.708941</ele>
        <time>2021-11-16T07:04:48.388Z</time>
      </trkpt>
      <trkpt lat="39.28514" lon="32.64971">
        <ele>1291.760328</ele>
        <time>2021-11-16T07:12:38.507Z</time>
      </trkpt>
      <trkpt lat="39.28539" lon="32.64924">
        <ele>1293.051012</ele>
        <time>2021-11-16T07:12:51.401Z</time>
      </trkpt>
      <trkpt lat="39.28738" lon="32.64341">
        <ele>1279.775321</ele>
        <time>2021-11-16T07:14:12.456Z</time>
      </trkpt>
      <trkpt lat="39.28807" lon="32.64118">
        <ele>1274.061929</ele>
        <time>2021-11-16T07:14:42.604Z</time>
      </trkpt>
      <trkpt lat="39.28998" lon="32.63557">
        <ele>1264.293959</ele>
        <time>2021-11-16T07:16:06.217Z</time>
      </trkpt>
      <trkpt lat="39.29044" lon="32.63438">
        <ele>1262.193581</ele>
        <time>2021-11-16T07:16:24.593Z</time>
      </trkpt>
      <trkpt lat="39.29101" lon="32.63254">
        <ele>1258.069084</ele>
        <time>2021-11-16T07:16:50.463Z</time>
      </trkpt>
      <trkpt lat="39.29114" lon="32.63196">
        <ele>1256.070628</ele>
        <time>2021-11-16T07:16:57.988Z</time>
      </trkpt>
      <trkpt lat="39.29116" lon="32.63132">
        <ele>1253.537657</ele>
        <time>2021-11-16T07:17:05.620Z</time>
      </trkpt>
      <trkpt lat="39.29015" lon="32.62642">
        <ele>1233.042539</ele>
        <time>2021-11-16T07:18:03.919Z</time>
      </trkpt>
      <trkpt lat="39.2899" lon="32.62535">
        <ele>1228.440099</ele>
        <time>2021-11-16T07:18:16.934Z</time>
      </trkpt>
      <trkpt lat="39.28898" lon="32.6221">
        <ele>1215.324476</ele>
        <time>2021-11-16T07:18:57.541Z</time>
      </trkpt>
      <trkpt lat="39.28887" lon="32.62144">
        <ele>1212.741586</ele>
        <time>2021-11-16T07:19:05.523Z</time>
      </trkpt>
      <trkpt lat="39.28884" lon="32.62046">
        <ele>1208.861481</ele>
        <time>2021-11-16T07:19:16.878Z</time>
      </trkpt>
      <trkpt lat="39.28898" lon="32.61688">
        <ele>1194.060677</ele>
        <time>2021-11-16T07:19:58.412Z</time>
      </trkpt>
      <trkpt lat="39.28909" lon="32.61602">
        <ele>1190.383411</ele>
        <time>2021-11-16T07:20:08.474Z</time>
      </trkpt>
      <trkpt lat="39.28934" lon="32.61526">
        <ele>1186.890018</ele>
        <time>2021-11-16T07:20:17.935Z</time>
      </trkpt>
      <trkpt lat="39.2896" lon="32.61486">
        <ele>1184.689904</ele>
        <time>2021-11-16T07:20:23.894Z</time>
      </trkpt>
      <trkpt lat="39.29043" lon="32.61403">
        <ele>1179.039328</ele>
        <time>2021-11-16T07:20:39.518Z</time>
      </trkpt>
      <trkpt lat="39.29478" lon="32.6102">
        <ele>1151.757171</ele>
        <time>2021-11-16T07:21:58.321Z</time>
      </trkpt>
      <trkpt lat="39.29544" lon="32.60948">
        <ele>1148.011977</ele>
        <time>2021-11-16T07:22:11.789Z</time>
      </trkpt>
      <trkpt lat="39.29582" lon="32.60885">
        <ele>1146.065353</ele>
        <time>2021-11-16T07:22:21.815Z</time>
      </trkpt>
      <trkpt lat="39.29613" lon="32.60823">
        <ele>1145.33624</ele>
        <time>2021-11-16T07:22:31.417Z</time>
      </trkpt>
      <trkpt lat="39.30091" lon="32.59591">
        <ele>1130.760725</ele>
        <time>2021-11-16T07:25:54.925Z</time>
      </trkpt>
      <trkpt lat="39.30094" lon="32.59567">
        <ele>1130.199115</ele>
        <time>2021-11-16T07:25:57.964Z</time>
      </trkpt>
      <trkpt lat="39.30092" lon="32.59513">
        <ele>1128.915169</ele>
        <time>2021-11-16T07:26:04.715Z</time>
      </trkpt>
      <trkpt lat="39.30083" lon="32.5946">
        <ele>1127.648665</ele>
        <time>2021-11-16T07:26:11.149Z</time>
      </trkpt>
      <trkpt lat="39.30023" lon="32.59241">
        <ele>1117.773275</ele>
        <time>2021-11-16T07:26:37.626Z</time>
      </trkpt>
      <trkpt lat="39.29993" lon="32.59108">
        <ele>1112.638635</ele>
        <time>2021-11-16T07:26:53.564Z</time>
      </trkpt>
      <trkpt lat="39.29992" lon="32.59075">
        <ele>1111.427394</ele>
        <time>2021-11-16T07:26:57.566Z</time>
      </trkpt>
      <trkpt lat="39.29997" lon="32.59056">
        <ele>1110.720239</ele>
        <time>2021-11-16T07:26:59.834Z</time>
      </trkpt>
      <trkpt lat="39.30003" lon="32.59042">
        <ele>1110.121756</ele>
        <time>2021-11-16T07:27:01.888Z</time>
      </trkpt>
      <trkpt lat="39.30019" lon="32.59017">
        <ele>1108.956167</ele>
        <time>2021-11-16T07:27:05.754Z</time>
      </trkpt>
      <trkpt lat="39.30358" lon="32.58626">
        <ele>1097.983806</ele>
        <time>2021-11-16T07:28:23.579Z</time>
      </trkpt>
      <trkpt lat="39.30442" lon="32.58553">
        <ele>1095.963174</ele>
        <time>2021-11-16T07:28:41.726Z</time>
      </trkpt>
      <trkpt lat="39.30515" lon="32.58505">
        <ele>1094.694031</ele>
        <time>2021-11-16T07:28:56.684Z</time>
      </trkpt>
      <trkpt lat="39.31084" lon="32.5814">
        <ele>1086.087924</ele>
        <time>2021-11-16T07:30:53.870Z</time>
      </trkpt>
      <trkpt lat="39.31687" lon="32.57753">
        <ele>1090.801361</ele>
        <time>2021-11-16T07:33:42.585Z</time>
      </trkpt>
      <trkpt lat="39.31728" lon="32.57737">
        <ele>1091.333072</ele>
        <time>2021-11-16T07:33:55.475Z</time>
      </trkpt>
      <trkpt lat="39.31776" lon="32.57734">
        <ele>1092.451029</ele>
        <time>2021-11-16T07:34:10.848Z</time>
      </trkpt>
      <trkpt lat="39.31939" lon="32.57749">
        <ele>1095.724299</ele>
        <time>2021-11-16T07:35:03.237Z</time>
      </trkpt>
      <trkpt lat="39.31977" lon="32.57732">
        <ele>1096.172117</ele>
        <time>2021-11-16T07:35:15.033Z</time>
      </trkpt>
      <trkpt lat="39.32045" lon="32.5768">
        <ele>1097.037194</ele>
        <time>2021-11-16T07:35:34.953Z</time>
      </trkpt>
      <trkpt lat="39.32098" lon="32.57667">
        <ele>1096.711849</ele>
        <time>2021-11-16T07:35:46.225Z</time>
      </trkpt>
      <trkpt lat="39.32139" lon="32.57673">
        <ele>1095.9723</ele>
        <time>2021-11-16T07:35:53.977Z</time>
      </trkpt>
      <trkpt lat="39.32326" lon="32.57732">
        <ele>1091.965711</ele>
        <time>2021-11-16T07:36:26.277Z</time>
      </trkpt>
      <trkpt lat="39.32366" lon="32.57734">
        <ele>1090.958881</ele>
        <time>2021-11-16T07:36:33.044Z</time>
      </trkpt>
      <trkpt lat="39.33106" lon="32.57546">
        <ele>1075.898695</ele>
        <time>2021-11-16T07:38:45.335Z</time>
      </trkpt>
      <trkpt lat="39.33164" lon="32.57542">
        <ele>1075.705247</ele>
        <time>2021-11-16T07:38:57.322Z</time>
      </trkpt>
      <trkpt lat="39.33216" lon="32.5755">
        <ele>1075.913321</ele>
        <time>2021-11-16T07:39:09.458Z</time>
      </trkpt>
      <trkpt lat="39.33303" lon="32.57581">
        <ele>1076.281796</ele>
        <time>2021-11-16T07:39:33.103Z</time>
      </trkpt>
      <trkpt lat="39.33813" lon="32.57835">
        <ele>1085.507323</ele>
        <time>2021-11-16T07:42:13.893Z</time>
      </trkpt>
      <trkpt lat="39.34168" lon="32.58017">
        <ele>1087.105185</ele>
        <time>2021-11-16T07:43:42.532Z</time>
      </trkpt>
      <trkpt lat="39.35108" lon="32.58483">
        <ele>1094.842047</ele>
        <time>2021-11-16T07:47:58.239Z</time>
      </trkpt>
      <trkpt lat="39.35173" lon="32.58529">
        <ele>1095.179955</ele>
        <time>2021-11-16T07:48:17.397Z</time>
      </trkpt>
      <trkpt lat="39.35289" lon="32.58637">
        <ele>1095.259274</ele>
        <time>2021-11-16T07:48:48.605Z</time>
      </trkpt>
      <trkpt lat="39.35354" lon="32.58698">
        <ele>1095.19467</ele>
        <time>2021-11-16T07:49:05.130Z</time>
      </trkpt>
      <trkpt lat="39.35653" lon="32.58966">
        <ele>1096.074526</ele>
        <time>2021-11-16T07:50:28.633Z</time>
      </trkpt>
      <trkpt lat="39.35721" lon="32.59023">
        <ele>1096.712301</ele>
        <time>2021-11-16T07:50:50.277Z</time>
      </trkpt>
      <trkpt lat="39.35764" lon="32.59046">
        <ele>1097.301613</ele>
        <time>2021-11-16T07:51:03.236Z</time>
      </trkpt>
      <trkpt lat="39.36351" lon="32.59149">
        <ele>1106.611259</ele>
        <time>2021-11-16T07:53:54.514Z</time>
      </trkpt>
      <trkpt lat="39.36528" lon="32.59187">
        <ele>1108.242284</ele>
        <time>2021-11-16T07:54:39.821Z</time>
      </trkpt>
      <trkpt lat="39.3658" lon="32.59192">
        <ele>1108.550804</ele>
        <time>2021-11-16T07:54:52.177Z</time>
      </trkpt>
      <trkpt lat="39.36656" lon="32.5919">
        <ele>1109.160285</ele>
        <time>2021-11-16T07:55:10.450Z</time>
      </trkpt>
      <trkpt lat="39.36698" lon="32.59187">
        <ele>1109.668731</ele>
        <time>2021-11-16T07:55:20.983Z</time>
      </trkpt>
      <trkpt lat="39.36735" lon="32.59184">
        <ele>1110.117844</ele>
        <time>2021-11-16T07:55:30.608Z</time>
      </trkpt>
      <trkpt lat="39.37107" lon="32.59169">
        <ele>1117.193126</ele>
        <time>2021-11-16T07:57:21.972Z</time>
      </trkpt>
      <trkpt lat="39.37285" lon="32.59162">
        <ele>1121.905453</ele>
        <time>2021-11-16T07:58:23.449Z</time>
      </trkpt>
      <trkpt lat="39.37329" lon="32.59171">
        <ele>1123.164765</ele>
        <time>2021-11-16T07:58:38.371Z</time>
      </trkpt>
      <trkpt lat="39.37374" lon="32.59191">
        <ele>1124.168883</ele>
        <time>2021-11-16T07:58:53.497Z</time>
      </trkpt>
      <trkpt lat="39.37494" lon="32.59259">
        <ele>1126.394295</ele>
        <time>2021-11-16T07:59:30.174Z</time>
      </trkpt>
      <trkpt lat="39.37606" lon="32.59316">
        <ele>1128.73264</ele>
        <time>2021-11-16T08:00:04.428Z</time>
      </trkpt>
      <trkpt lat="39.37622" lon="32.59324">
        <ele>1129.065703</ele>
        <time>2021-11-16T08:00:09.791Z</time>
      </trkpt>
      <trkpt lat="39.38076" lon="32.59563">
        <ele>1139.761634</ele>
        <time>2021-11-16T08:02:49.332Z</time>
      </trkpt>
      <trkpt lat="39.38126" lon="32.59579">
        <ele>1139.962478</ele>
        <time>2021-11-16T08:03:00.408Z</time>
      </trkpt>
      <trkpt lat="39.38174" lon="32.59584">
        <ele>1140.146951</ele>
        <time>2021-11-16T08:03:09.396Z</time>
      </trkpt>
      <trkpt lat="39.3835" lon="32.59563">
        <ele>1137.466721</ele>
        <time>2021-11-16T08:03:40.338Z</time>
      </trkpt>
      <trkpt lat="39.38464" lon="32.59576">
        <ele>1138.15174</ele>
        <time>2021-11-16T08:04:05.499Z</time>
      </trkpt>
      <trkpt lat="39.38925" lon="32.59646">
        <ele>1147.719206</ele>
        <time>2021-11-16T08:06:34.963Z</time>
      </trkpt>
      <trkpt lat="39.39145" lon="32.59688">
        <ele>1149.150287</ele>
        <time>2021-11-16T08:07:27.023Z</time>
      </trkpt>
      <trkpt lat="39.39312" lon="32.5971">
        <ele>1149.964251</ele>
        <time>2021-11-16T08:08:07.244Z</time>
      </trkpt>
      <trkpt lat="39.39446" lon="32.59747">
        <ele>1150.860686</ele>
        <time>2021-11-16T08:08:42.249Z</time>
      </trkpt>
      <trkpt lat="39.39515" lon="32.59759">
        <ele>1151.112056</ele>
        <time>2021-11-16T08:08:59.202Z</time>
      </trkpt>
      <trkpt lat="39.39564" lon="32.59758">
        <ele>1151.284154</ele>
        <time>2021-11-16T08:09:10.291Z</time>
      </trkpt>
      <trkpt lat="39.39633" lon="32.59746">
        <ele>1151.601402</ele>
        <time>2021-11-16T08:09:25.999Z</time>
      </trkpt>
      <trkpt lat="39.39745" lon="32.59711">
        <ele>1152.390262</ele>
        <time>2021-11-16T08:09:53.871Z</time>
      </trkpt>
      <trkpt lat="39.39812" lon="32.59712">
        <ele>1153.185258</ele>
        <time>2021-11-16T08:10:12.592Z</time>
      </trkpt>
      <trkpt lat="39.3987" lon="32.59739">
        <ele>1154.475651</ele>
        <time>2021-11-16T08:10:30.662Z</time>
      </trkpt>
      <trkpt lat="39.40255" lon="32.60011">
        <ele>1164.155138</ele>
        <time>2021-11-16T08:12:48.263Z</time>
      </trkpt>
      <trkpt lat="39.40345" lon="32.60107">
        <ele>1167.457774</ele>
        <time>2021-11-16T08:13:27.291Z</time>
      </trkpt>
      <trkpt lat="39.4043" lon="32.60176">
        <ele>1170.181639</ele>
        <time>2021-11-16T08:14:01.933Z</time>
      </trkpt>
      <trkpt lat="39.40489" lon="32.60237">
        <ele>1171.753246</ele>
        <time>2021-11-16T08:14:28.042Z</time>
      </trkpt>
      <trkpt lat="39.40534" lon="32.60363">
        <ele>1173.438367</ele>
        <time>2021-11-16T08:14:56.697Z</time>
      </trkpt>
      <trkpt lat="39.40569" lon="32.60393">
        <ele>1173.340269</ele>
        <time>2021-11-16T08:15:06.105Z</time>
      </trkpt>
      <trkpt lat="39.40595" lon="32.60362">
        <ele>1173.258593</ele>
        <time>2021-11-16T08:15:13.420Z</time>
      </trkpt>
      <trkpt lat="39.40641" lon="32.60307">
        <ele>1173.114171</ele>
        <time>2021-11-16T08:15:25.621Z</time>
      </trkpt>
      <trkpt lat="39.40719" lon="32.60214">
        <ele>1173.026953</ele>
        <time>2021-11-16T08:15:46.589Z</time>
      </trkpt>
      <trkpt lat="39.40743" lon="32.60191">
        <ele>1173.010585</ele>
        <time>2021-11-16T08:15:53.611Z</time>
      </trkpt>
      <trkpt lat="39.4078" lon="32.60145">
        <ele>1172.982911</ele>
        <time>2021-11-16T08:16:06.633Z</time>
      </trkpt>
      <trkpt lat="39.40894" lon="32.60005">
        <ele>1174.699305</ele>
        <time>2021-11-16T08:16:48.530Z</time>
      </trkpt>
      <trkpt lat="39.40932" lon="32.59969">
        <ele>1175.326339</ele>
        <time>2021-11-16T08:17:01.605Z</time>
      </trkpt>
      <trkpt lat="39.41018" lon="32.59909">
        <ele>1176.911353</ele>
        <time>2021-11-16T08:17:29.467Z</time>
      </trkpt>
      <trkpt lat="39.41115" lon="32.59853">
        <ele>1178.711437</ele>
        <time>2021-11-16T08:18:00.919Z</time>
      </trkpt>
      <trkpt lat="39.41353" lon="32.5976">
        <ele>1183.170541</ele>
        <time>2021-11-16T08:19:13.923Z</time>
      </trkpt>
      <trkpt lat="39.41484" lon="32.59704">
        <ele>1185.645799</ele>
        <time>2021-11-16T08:19:54.415Z</time>
      </trkpt>
      <trkpt lat="39.41606" lon="32.59655">
        <ele>1187.772967</ele>
        <time>2021-11-16T08:20:33.206Z</time>
      </trkpt>
      <trkpt lat="39.41717" lon="32.59607">
        <ele>1188.411864</ele>
        <time>2021-11-16T08:21:02.394Z</time>
      </trkpt>
      <trkpt lat="39.41748" lon="32.59585">
        <ele>1188.605403</ele>
        <time>2021-11-16T08:21:09.838Z</time>
      </trkpt>
      <trkpt lat="39.41803" lon="32.59551">
        <ele>1188.718129</ele>
        <time>2021-11-16T08:21:21.947Z</time>
      </trkpt>
      <trkpt lat="39.41843" lon="32.59517">
        <ele>1188.758914</ele>
        <time>2021-11-16T08:21:31.881Z</time>
      </trkpt>
      <trkpt lat="39.41893" lon="32.59465">
        <ele>1188.812973</ele>
        <time>2021-11-16T08:21:46.113Z</time>
      </trkpt>
      <trkpt lat="39.41912" lon="32.59445">
        <ele>1188.96554</ele>
        <time>2021-11-16T08:21:52.708Z</time>
      </trkpt>
      <trkpt lat="39.41979" lon="32.59365">
        <ele>1191.710042</ele>
        <time>2021-11-16T08:22:21.459Z</time>
      </trkpt>
      <trkpt lat="39.42045" lon="32.5926">
        <ele>1195.024852</ele>
        <time>2021-11-16T08:23:02.907Z</time>
      </trkpt>
      <trkpt lat="39.42076" lon="32.59188">
        <ele>1197.53666</ele>
        <time>2021-11-16T08:23:28.393Z</time>
      </trkpt>
      <trkpt lat="39.42205" lon="32.58874">
        <ele>1207.517062</ele>
        <time>2021-11-16T08:25:08.221Z</time>
      </trkpt>
      <trkpt lat="39.42376" lon="32.58381">
        <ele>1220.955786</ele>
        <time>2021-11-16T08:27:33.661Z</time>
      </trkpt>
      <trkpt lat="39.42463" lon="32.58104">
        <ele>1228.436636</ele>
        <time>2021-11-16T08:28:57.911Z</time>
      </trkpt>
      <trkpt lat="39.42538" lon="32.5778">
        <ele>1234.954814</ele>
        <time>2021-11-16T08:30:19.823Z</time>
      </trkpt>
      <trkpt lat="39.42554" lon="32.57686">
        <ele>1237.002096</ele>
        <time>2021-11-16T08:30:43.185Z</time>
      </trkpt>
      <trkpt lat="39.42561" lon="32.57581">
        <ele>1239.252948</ele>
        <time>2021-11-16T08:31:10.441Z</time>
      </trkpt>
      <trkpt lat="39.42583" lon="32.56494">
        <ele>1272.657559</ele>
        <time>2021-11-16T08:36:30.287Z</time>
      </trkpt>
      <trkpt lat="39.42601" lon="32.56348">
        <ele>1278.527824</ele>
        <time>2021-11-16T08:37:18.914Z</time>
      </trkpt>
      <trkpt lat="39.4274" lon="32.55673">
        <ele>1313.991264</ele>
        <time>2021-11-16T08:41:40.584Z</time>
      </trkpt>
      <trkpt lat="39.42776" lon="32.55495">
        <ele>1325.331772</ele>
        <time>2021-11-16T08:43:01.209Z</time>
      </trkpt>
      <trkpt lat="39.4278" lon="32.55477">
        <ele>1326.317472</ele>
        <time>2021-11-16T08:43:09.869Z</time>
      </trkpt>
      <trkpt lat="39.42944" lon="32.54689">
        <ele>1368.442326</ele>
        <time>2021-11-16T08:48:27.502Z</time>
      </trkpt>
      <trkpt lat="39.42955" lon="32.54635">
        <ele>1370.363486</ele>
        <time>2021-11-16T08:48:40.986Z</time>
      </trkpt>
      <trkpt lat="39.42978" lon="32.54568">
        <ele>1370.803017</ele>
        <time>2021-11-16T08:48:54.456Z</time>
      </trkpt>
      <trkpt lat="39.4301" lon="32.54443">
        <ele>1367.670467</ele>
        <time>2021-11-16T08:49:10.940Z</time>
      </trkpt>
      <trkpt lat="39.43026" lon="32.54357">
        <ele>1365.137832</ele>
        <time>2021-11-16T08:49:21.079Z</time>
      </trkpt>
      <trkpt lat="39.43032" lon="32.54337">
        <ele>1364.231177</ele>
        <time>2021-11-16T08:49:23.459Z</time>
      </trkpt>
      <trkpt lat="39.43034" lon="32.54331">
        <ele>1363.953314</ele>
        <time>2021-11-16T08:49:24.222Z</time>
      </trkpt>
      <trkpt lat="39.43035" lon="32.54325">
        <ele>1363.6947</ele>
        <time>2021-11-16T08:49:24.948Z</time>
      </trkpt>
      <trkpt lat="39.43044" lon="32.54286">
        <ele>1361.957453</ele>
        <time>2021-11-16T08:49:29.625Z</time>
      </trkpt>
      <trkpt lat="39.43065" lon="32.54161">
        <ele>1356.505557</ele>
        <time>2021-11-16T08:49:44.133Z</time>
      </trkpt>
      <trkpt lat="39.43069" lon="32.54081">
        <ele>1354.240535</ele>
        <time>2021-11-16T08:49:53.730Z</time>
      </trkpt>
      <trkpt lat="39.43072" lon="32.54051">
        <ele>1353.44158</ele>
        <time>2021-11-16T08:49:57.397Z</time>
      </trkpt>
      <trkpt lat="39.43077" lon="32.54013">
        <ele>1352.423677</ele>
        <time>2021-11-16T08:50:02.222Z</time>
      </trkpt>
      <trkpt lat="39.4308" lon="32.53938">
        <ele>1350.412307</ele>
        <time>2021-11-16T08:50:12.092Z</time>
      </trkpt>
      <trkpt lat="39.43075" lon="32.53833">
        <ele>1349.111375</ele>
        <time>2021-11-16T08:50:26.650Z</time>
      </trkpt>
      <trkpt lat="39.43024" lon="32.53599">
        <ele>1345.882048</ele>
        <time>2021-11-16T08:51:03.574Z</time>
      </trkpt>
      <trkpt lat="39.43013" lon="32.53512">
        <ele>1344.247513</ele>
        <time>2021-11-16T08:51:15.226Z</time>
      </trkpt>
      <trkpt lat="39.4295" lon="32.52768">
        <ele>1316.084592</ele>
        <time>2021-11-16T08:52:42.409Z</time>
      </trkpt>
      <trkpt lat="39.42937" lon="32.52539">
        <ele>1307.135581</ele>
        <time>2021-11-16T08:53:09.002Z</time>
      </trkpt>
      <trkpt lat="39.42932" lon="32.52429">
        <ele>1303.369085</ele>
        <time>2021-11-16T08:53:22.115Z</time>
      </trkpt>
      <trkpt lat="39.42933" lon="32.52388">
        <ele>1301.988781</ele>
        <time>2021-11-16T08:53:26.977Z</time>
      </trkpt>
      <trkpt lat="39.42932" lon="32.52296">
        <ele>1299.02088</ele>
        <time>2021-11-16T08:53:38.111Z</time>
      </trkpt>
      <trkpt lat="39.42946" lon="32.52236">
        <ele>1297.726326</ele>
        <time>2021-11-16T08:53:45.622Z</time>
      </trkpt>
      <trkpt lat="39.42973" lon="32.52188">
        <ele>1296.483834</ele>
        <time>2021-11-16T08:53:53.272Z</time>
      </trkpt>
      <trkpt lat="39.43013" lon="32.52152">
        <ele>1295.185803</ele>
        <time>2021-11-16T08:54:01.722Z</time>
      </trkpt>
      <trkpt lat="39.4303" lon="32.52142">
        <ele>1294.681929</ele>
        <time>2021-11-16T08:54:05.104Z</time>
      </trkpt>
      <trkpt lat="39.43034" lon="32.52145">
        <ele>1294.571633</ele>
        <time>2021-11-16T08:54:05.960Z</time>
      </trkpt>
      <trkpt lat="39.43038" lon="32.52146">
        <ele>1294.46055</ele>
        <time>2021-11-16T08:54:06.883Z</time>
      </trkpt>
      <trkpt lat="39.43042" lon="32.52146">
        <ele>1294.452248</ele>
        <time>2021-11-16T08:54:07.652Z</time>
      </trkpt>
      <trkpt lat="39.43046" lon="32.52145">
        <ele>1294.481184</ele>
        <time>2021-11-16T08:54:08.534Z</time>
      </trkpt>
      <trkpt lat="39.43053" lon="32.52138">
        <ele>1294.538478</ele>
        <time>2021-11-16T08:54:10.230Z</time>
      </trkpt>
      <trkpt lat="39.43055" lon="32.52133">
        <ele>1294.567725</ele>
        <time>2021-11-16T08:54:11.098Z</time>
      </trkpt>
      <trkpt lat="39.43057" lon="32.52126">
        <ele>1294.603446</ele>
        <time>2021-11-16T08:54:12.294Z</time>
      </trkpt>
      <trkpt lat="39.43049" lon="32.52107">
        <ele>1294.706675</ele>
        <time>2021-11-16T08:54:15.919Z</time>
      </trkpt>
      <trkpt lat="39.43044" lon="32.52104">
        <ele>1294.742642</ele>
        <time>2021-11-16T08:54:17.094Z</time>
      </trkpt>
      <trkpt lat="39.43039" lon="32.52088">
        <ele>1294.827771</ele>
        <time>2021-11-16T08:54:20.437Z</time>
      </trkpt>
      <trkpt lat="39.4304" lon="32.5207">
        <ele>1294.916709</ele>
        <time>2021-11-16T08:54:23.847Z</time>
      </trkpt>
      <trkpt lat="39.43072" lon="32.5201">
        <ele>1295.27954</ele>
        <time>2021-11-16T08:54:38.721Z</time>
      </trkpt>
      <trkpt lat="39.43078" lon="32.51999">
        <ele>1295.342417</ele>
        <time>2021-11-16T08:54:41.674Z</time>
      </trkpt>
      <trkpt lat="39.43106" lon="32.51949">
        <ele>1295.70736</ele>
        <time>2021-11-16T08:54:56.327Z</time>
      </trkpt>
      <trkpt lat="39.43115" lon="32.51936">
        <ele>1295.867482</ele>
        <time>2021-11-16T08:55:01.023Z</time>
      </trkpt>
      <trkpt lat="39.43216" lon="32.51768">
        <ele>1297.551067</ele>
        <time>2021-11-16T08:55:46.036Z</time>
      </trkpt>
      <trkpt lat="39.43263" lon="32.51705">
        <ele>1296.469844</ele>
        <time>2021-11-16T08:55:58.446Z</time>
      </trkpt>
      <trkpt lat="39.43278" lon="32.51687">
        <ele>1296.134451</ele>
        <time>2021-11-16T08:56:02.088Z</time>
      </trkpt>
      <trkpt lat="39.43304" lon="32.51658">
        <ele>1295.583906</ele>
        <time>2021-11-16T08:56:07.980Z</time>
      </trkpt>
      <trkpt lat="39.43315" lon="32.51645">
        <ele>1295.340635</ele>
        <time>2021-11-16T08:56:10.559Z</time>
      </trkpt>
      <trkpt lat="39.43344" lon="32.51614">
        <ele>1294.687258</ele>
        <time>2021-11-16T08:56:16.763Z</time>
      </trkpt>
      <trkpt lat="39.43876" lon="32.51071">
        <ele>1273.958107</ele>
        <time>2021-11-16T08:58:08.326Z</time>
      </trkpt>
      <trkpt lat="39.4398" lon="32.50957">
        <ele>1268.553909</ele>
        <time>2021-11-16T08:58:29.697Z</time>
      </trkpt>
      <trkpt lat="39.44015" lon="32.50909">
        <ele>1266.373</ele>
        <time>2021-11-16T08:58:37.607Z</time>
      </trkpt>
      <trkpt lat="39.44026" lon="32.50893">
        <ele>1265.675474</ele>
        <time>2021-11-16T08:58:40.046Z</time>
      </trkpt>
      <trkpt lat="39.44048" lon="32.50863">
        <ele>1264.121504</ele>
        <time>2021-11-16T08:58:44.914Z</time>
      </trkpt>
      <trkpt lat="39.44107" lon="32.50774">
        <ele>1259.327794</ele>
        <time>2021-11-16T08:58:58.588Z</time>
      </trkpt>
      <trkpt lat="39.44112" lon="32.50766">
        <ele>1258.908656</ele>
        <time>2021-11-16T08:58:59.669Z</time>
      </trkpt>
      <trkpt lat="39.44135" lon="32.50731">
        <ele>1257.008001</ele>
        <time>2021-11-16T08:59:04.971Z</time>
      </trkpt>
      <trkpt lat="39.44167" lon="32.50681">
        <ele>1254.246542</ele>
        <time>2021-11-16T08:59:12.529Z</time>
      </trkpt>
      <trkpt lat="39.44183" lon="32.50659">
        <ele>1252.919384</ele>
        <time>2021-11-16T08:59:15.837Z</time>
      </trkpt>
      <trkpt lat="39.44192" lon="32.50641">
        <ele>1251.948912</ele>
        <time>2021-11-16T08:59:18.406Z</time>
      </trkpt>
      <trkpt lat="39.44195" lon="32.50618">
        <ele>1250.928426</ele>
        <time>2021-11-16T08:59:20.891Z</time>
      </trkpt>
      <trkpt lat="39.44207" lon="32.50591">
        <ele>1249.553475</ele>
        <time>2021-11-16T08:59:24.462Z</time>
      </trkpt>
      <trkpt lat="39.44261" lon="32.50485">
        <ele>1244.131566</ele>
        <time>2021-11-16T08:59:39.053Z</time>
      </trkpt>
      <trkpt lat="39.44251" lon="32.50466">
        <ele>1243.294027</ele>
        <time>2021-11-16T08:59:41.749Z</time>
      </trkpt>
      <trkpt lat="39.44075" lon="32.50278">
        <ele>1232.702584</ele>
        <time>2021-11-16T09:00:17.203Z</time>
      </trkpt>
      <trkpt lat="39.44035" lon="32.50221">
        <ele>1229.965772</ele>
        <time>2021-11-16T09:00:26.344Z</time>
      </trkpt>
      <trkpt lat="39.43943" lon="32.50071">
        <ele>1221.464977</ele>
        <time>2021-11-16T09:00:48.198Z</time>
      </trkpt>
      <trkpt lat="39.43913" lon="32.50007">
        <ele>1217.9586</ele>
        <time>2021-11-16T09:00:56.490Z</time>
      </trkpt>
      <trkpt lat="39.43896" lon="32.49952">
        <ele>1214.443939</ele>
        <time>2021-11-16T09:01:03.036Z</time>
      </trkpt>
      <trkpt lat="39.43883" lon="32.49886">
        <ele>1210.293763</ele>
        <time>2021-11-16T09:01:10.464Z</time>
      </trkpt>
      <trkpt lat="39.43879" lon="32.49828">
        <ele>1206.726604</ele>
        <time>2021-11-16T09:01:16.814Z</time>
      </trkpt>
      <trkpt lat="39.43887" lon="32.49577">
        <ele>1189.886297</ele>
        <time>2021-11-16T09:01:43.618Z</time>
      </trkpt>
      <trkpt lat="39.43881" lon="32.49534">
        <ele>1186.887544</ele>
        <time>2021-11-16T09:01:48.240Z</time>
      </trkpt>
      <trkpt lat="39.4387" lon="32.49469">
        <ele>1182.156501</ele>
        <time>2021-11-16T09:01:55.354Z</time>
      </trkpt>
      <trkpt lat="39.43861" lon="32.49426">
        <ele>1179.037364</ele>
        <time>2021-11-16T09:02:00.038Z</time>
      </trkpt>
      <trkpt lat="39.43832" lon="32.49338">
        <ele>1172.290362</ele>
        <time>2021-11-16T09:02:10.154Z</time>
      </trkpt>
      <trkpt lat="39.43781" lon="32.49227">
        <ele>1162.856742</ele>
        <time>2021-11-16T09:02:24.003Z</time>
      </trkpt>
      <trkpt lat="39.43574" lon="32.48884">
        <ele>1130.153862</ele>
        <time>2021-11-16T09:03:09.747Z</time>
      </trkpt>
      <trkpt lat="39.43535" lon="32.48806">
        <ele>1123.316742</ele>
        <time>2021-11-16T09:03:19.521Z</time>
      </trkpt>
      <trkpt lat="39.43521" lon="32.48747">
        <ele>1118.805153</ele>
        <time>2021-11-16T09:03:26.092Z</time>
      </trkpt>
      <trkpt lat="39.43523" lon="32.48669">
        <ele>1114.789005</ele>
        <time>2021-11-16T09:03:34.541Z</time>
      </trkpt>
      <trkpt lat="39.43552" lon="32.48588">
        <ele>1110.205104</ele>
        <time>2021-11-16T09:03:44.533Z</time>
      </trkpt>
      <trkpt lat="39.43574" lon="32.48547">
        <ele>1107.619546</ele>
        <time>2021-11-16T09:03:50.348Z</time>
      </trkpt>
      <trkpt lat="39.43592" lon="32.48524">
        <ele>1106.220906</ele>
        <time>2021-11-16T09:03:54.229Z</time>
      </trkpt>
      <trkpt lat="39.43642" lon="32.48496">
        <ele>1103.698313</ele>
        <time>2021-11-16T09:04:02.729Z</time>
      </trkpt>
      <trkpt lat="39.43806" lon="32.48463">
        <ele>1095.482774</ele>
        <time>2021-11-16T09:04:28.118Z</time>
      </trkpt>
      <trkpt lat="39.4385" lon="32.48439">
        <ele>1092.812292</ele>
        <time>2021-11-16T09:04:35.092Z</time>
      </trkpt>
      <trkpt lat="39.4388" lon="32.48406">
        <ele>1090.611467</ele>
        <time>2021-11-16T09:04:40.804Z</time>
      </trkpt>
      <trkpt lat="39.43904" lon="32.48375">
        <ele>1088.674272</ele>
        <time>2021-11-16T09:04:45.785Z</time>
      </trkpt>
      <trkpt lat="39.44019" lon="32.4815">
        <ele>1077.10807</ele>
        <time>2021-11-16T09:05:16.334Z</time>
      </trkpt>
      <trkpt lat="39.4406" lon="32.48085">
        <ele>1074.952379</ele>
        <time>2021-11-16T09:05:26.614Z</time>
      </trkpt>
      <trkpt lat="39.44107" lon="32.48022">
        <ele>1072.68481</ele>
        <time>2021-11-16T09:05:38.200Z</time>
      </trkpt>
      <trkpt lat="39.44153" lon="32.4798">
        <ele>1071.354023</ele>
        <time>2021-11-16T09:05:48.521Z</time>
      </trkpt>
      <trkpt lat="39.4419" lon="32.47961">
        <ele>1070.674774</ele>
        <time>2021-11-16T09:05:55.996Z</time>
      </trkpt>
      <trkpt lat="39.44237" lon="32.47946">
        <ele>1069.85718</ele>
        <time>2021-11-16T09:06:04.866Z</time>
      </trkpt>
      <trkpt lat="39.4432" lon="32.47933">
        <ele>1068.182379</ele>
        <time>2021-11-16T09:06:19.800Z</time>
      </trkpt>
      <trkpt lat="39.44509" lon="32.47912">
        <ele>1062.830211</ele>
        <time>2021-11-16T09:06:51.212Z</time>
      </trkpt>
      <trkpt lat="39.44601" lon="32.47896">
        <ele>1059.631756</ele>
        <time>2021-11-16T09:07:06.079Z</time>
      </trkpt>
      <trkpt lat="39.4469" lon="32.47871">
        <ele>1056.645717</ele>
        <time>2021-11-16T09:07:20.604Z</time>
      </trkpt>
      <trkpt lat="39.44772" lon="32.47831">
        <ele>1053.948522</ele>
        <time>2021-11-16T09:07:34.864Z</time>
      </trkpt>
      <trkpt lat="39.44832" lon="32.47794">
        <ele>1052.049213</ele>
        <time>2021-11-16T09:07:46.080Z</time>
      </trkpt>
      <trkpt lat="39.44991" lon="32.47683">
        <ele>1048.490793</ele>
        <time>2021-11-16T09:08:18.152Z</time>
      </trkpt>
      <trkpt lat="39.45043" lon="32.47659">
        <ele>1047.549343</ele>
        <time>2021-11-16T09:08:28.241Z</time>
      </trkpt>
      <trkpt lat="39.45068" lon="32.47647">
        <ele>1047.099672</ele>
        <time>2021-11-16T09:08:33.027Z</time>
      </trkpt>
      <trkpt lat="39.4515" lon="32.47622">
        <ele>1045.667674</ele>
        <time>2021-11-16T09:08:48.253Z</time>
      </trkpt>
      <trkpt lat="39.45646" lon="32.47506">
        <ele>1036.467142</ele>
        <time>2021-11-16T09:10:18.325Z</time>
      </trkpt>
      <trkpt lat="39.46012" lon="32.47399">
        <ele>1028.468221</ele>
        <time>2021-11-16T09:11:23.320Z</time>
      </trkpt>
      <trkpt lat="39.46703" lon="32.47133">
        <ele>1014.301513</ele>
        <time>2021-11-16T09:13:30.587Z</time>
      </trkpt>
      <trkpt lat="39.46816" lon="32.4707">
        <ele>1011.883476</ele>
        <time>2021-11-16T09:13:52.325Z</time>
      </trkpt>
      <trkpt lat="39.46889" lon="32.47011">
        <ele>1010.20098</ele>
        <time>2021-11-16T09:14:07.430Z</time>
      </trkpt>
      <trkpt lat="39.46923" lon="32.46976">
        <ele>1009.382629</ele>
        <time>2021-11-16T09:14:15.102Z</time>
      </trkpt>
      <trkpt lat="39.46985" lon="32.46894">
        <ele>1007.728821</ele>
        <time>2021-11-16T09:14:30.778Z</time>
      </trkpt>
      <trkpt lat="39.47022" lon="32.46831">
        <ele>1006.699355</ele>
        <time>2021-11-16T09:14:41.785Z</time>
      </trkpt>
      <trkpt lat="39.47049" lon="32.46782">
        <ele>1006.057587</ele>
        <time>2021-11-16T09:14:50.373Z</time>
      </trkpt>
      <trkpt lat="39.47119" lon="32.46597">
        <ele>1004.003518</ele>
        <time>2021-11-16T09:15:20.280Z</time>
      </trkpt>
      <trkpt lat="39.47222" lon="32.46313">
        <ele>1001.502495</ele>
        <time>2021-11-16T09:16:06.941Z</time>
      </trkpt>
      <trkpt lat="39.47376" lon="32.45943">
        <ele>998.182125</ele>
        <time>2021-11-16T09:17:09.820Z</time>
      </trkpt>
      <trkpt lat="39.47455" lon="32.45814">
        <ele>996.727956</ele>
        <time>2021-11-16T09:17:33.722Z</time>
      </trkpt>
      <trkpt lat="39.47556" lon="32.45705">
        <ele>995.220303</ele>
        <time>2021-11-16T09:17:58.309Z</time>
      </trkpt>
      <trkpt lat="39.47845" lon="32.45536">
        <ele>992.260807</ele>
        <time>2021-11-16T09:19:00.570Z</time>
      </trkpt>
      <trkpt lat="39.49119" lon="32.44822">
        <ele>975.748706</ele>
        <time>2021-11-16T09:23:23.578Z</time>
      </trkpt>
      <trkpt lat="39.4916" lon="32.44798">
        <ele>974.982968</ele>
        <time>2021-11-16T09:23:31.551Z</time>
      </trkpt>
      <trkpt lat="39.49207" lon="32.44761">
        <ele>974.040677</ele>
        <time>2021-11-16T09:23:41.295Z</time>
      </trkpt>
      <trkpt lat="39.49225" lon="32.44742">
        <ele>973.588692</ele>
        <time>2021-11-16T09:23:45.240Z</time>
      </trkpt>
      <trkpt lat="39.49278" lon="32.44688">
        <ele>971.680397</ele>
        <time>2021-11-16T09:23:56.711Z</time>
      </trkpt>
      <trkpt lat="39.49327" lon="32.44616">
        <ele>969.580658</ele>
        <time>2021-11-16T09:24:08.920Z</time>
      </trkpt>
      <trkpt lat="39.49381" lon="32.44501">
        <ele>966.287078</ele>
        <time>2021-11-16T09:24:25.698Z</time>
      </trkpt>
      <trkpt lat="39.4941" lon="32.44406">
        <ele>963.647171</ele>
        <time>2021-11-16T09:24:38.347Z</time>
      </trkpt>
      <trkpt lat="39.49428" lon="32.44286">
        <ele>961.309296</ele>
        <time>2021-11-16T09:24:53.790Z</time>
      </trkpt>
      <trkpt lat="39.49427" lon="32.4414">
        <ele>958.970589</ele>
        <time>2021-11-16T09:25:13.752Z</time>
      </trkpt>
      <trkpt lat="39.49392" lon="32.4396">
        <ele>960.219845</ele>
        <time>2021-11-16T09:25:47.768Z</time>
      </trkpt>
      <trkpt lat="39.49175" lon="32.43045">
        <ele>984.569705</ele>
        <time>2021-11-16T09:30:14.482Z</time>
      </trkpt>
      <trkpt lat="39.48944" lon="32.42073">
        <ele>1010.159923</ele>
        <time>2021-11-16T09:34:55.061Z</time>
      </trkpt>
      <trkpt lat="39.48834" lon="32.41695">
        <ele>1013.890198</ele>
        <time>2021-11-16T09:36:18.691Z</time>
      </trkpt>
      <trkpt lat="39.48732" lon="32.41383">
        <ele>1012.942001</ele>
        <time>2021-11-16T09:37:05.202Z</time>
      </trkpt>
      <trkpt lat="39.48418" lon="32.40491">
        <ele>1029.690389</ele>
        <time>2021-11-16T09:41:15.396Z</time>
      </trkpt>
      <trkpt lat="39.47742" lon="32.38568">
        <ele>1055.060588</ele>
        <time>2021-11-16T09:48:56.325Z</time>
      </trkpt>
      <trkpt lat="39.47676" lon="32.38357">
        <ele>1058.297833</ele>
        <time>2021-11-16T09:49:50.814Z</time>
      </trkpt>
      <trkpt lat="39.47618" lon="32.381">
        <ele>1060.989113</ele>
        <time>2021-11-16T09:50:48.295Z</time>
      </trkpt>
      <trkpt lat="39.47577" lon="32.37819">
        <ele>1060.616403</ele>
        <time>2021-11-16T09:51:36.274Z</time>
      </trkpt>
      <trkpt lat="39.47562" lon="32.37466">
        <ele>1055.386986</ele>
        <time>2021-11-16T09:52:23.187Z</time>
      </trkpt>
      <trkpt lat="39.47575" lon="32.37187">
        <ele>1052.450342</ele>
        <time>2021-11-16T09:53:04.003Z</time>
      </trkpt>
      <trkpt lat="39.47596" lon="32.36992">
        <ele>1050.741225</ele>
        <time>2021-11-16T09:53:33.928Z</time>
      </trkpt>
      <trkpt lat="39.47781" lon="32.35689">
        <ele>1033.373104</ele>
        <time>2021-11-16T09:56:39.031Z</time>
      </trkpt>
      <trkpt lat="39.47923" lon="32.34573">
        <ele>1007.057547</ele>
        <time>2021-11-16T09:59:01.612Z</time>
      </trkpt>
      <trkpt lat="39.47928" lon="32.34531">
        <ele>1006.398183</ele>
        <time>2021-11-16T09:59:07.284Z</time>
      </trkpt>
      <trkpt lat="39.47941" lon="32.34271">
        <ele>1002.895597</ele>
        <time>2021-11-16T09:59:43.819Z</time>
      </trkpt>
      <trkpt lat="39.47952" lon="32.33597">
        <ele>996.713968</ele>
        <time>2021-11-16T10:01:21.276Z</time>
      </trkpt>
      <trkpt lat="39.47971" lon="32.33432">
        <ele>996.635563</ele>
        <time>2021-11-16T10:01:51.310Z</time>
      </trkpt>
      <trkpt lat="39.47992" lon="32.33313">
        <ele>997.906848</ele>
        <time>2021-11-16T10:02:17.495Z</time>
      </trkpt>
      <trkpt lat="39.48018" lon="32.33204">
        <ele>999.13617</ele>
        <time>2021-11-16T10:02:43.551Z</time>
      </trkpt>
      <trkpt lat="39.48273" lon="32.32258">
        <ele>1011.483822</ele>
        <time>2021-11-16T10:06:24.726Z</time>
      </trkpt>
      <trkpt lat="39.48356" lon="32.32032">
        <ele>1014.804339</ele>
        <time>2021-11-16T10:07:19.484Z</time>
      </trkpt>
      <trkpt lat="39.48424" lon="32.31895">
        <ele>1017.527103</ele>
        <time>2021-11-16T10:07:58.228Z</time>
      </trkpt>
      <trkpt lat="39.48521" lon="32.31733">
        <ele>1022.307506</ele>
        <time>2021-11-16T10:08:52.119Z</time>
      </trkpt>
      <trkpt lat="39.48664" lon="32.31542">
        <ele>1031.696571</ele>
        <time>2021-11-16T10:10:15.663Z</time>
      </trkpt>
      <trkpt lat="39.48705" lon="32.31486">
        <ele>1034.929561</ele>
        <time>2021-11-16T10:10:42.779Z</time>
      </trkpt>
      <trkpt lat="39.48753" lon="32.31415">
        <ele>1038.846812</ele>
        <time>2021-11-16T10:11:15.540Z</time>
      </trkpt>
      <trkpt lat="39.48783" lon="32.31351">
        <ele>1041.613434</ele>
        <time>2021-11-16T10:11:41.416Z</time>
      </trkpt>
      <trkpt lat="39.48817" lon="32.31257">
        <ele>1045.22102</ele>
        <time>2021-11-16T10:12:12.796Z</time>
      </trkpt>
      <trkpt lat="39.48845" lon="32.31171">
        <ele>1048.436675</ele>
        <time>2021-11-16T10:12:39.898Z</time>
      </trkpt>
      <trkpt lat="39.4886" lon="32.31073">
        <ele>1051.796218</ele>
        <time>2021-11-16T10:13:09.557Z</time>
      </trkpt>
      <trkpt lat="39.48863" lon="32.30975">
        <ele>1055.08989</ele>
        <time>2021-11-16T10:13:40.122Z</time>
      </trkpt>
      <trkpt lat="39.48857" lon="32.30802">
        <ele>1061.465457</ele>
        <time>2021-11-16T10:14:37.202Z</time>
      </trkpt>
      <trkpt lat="39.48867" lon="32.307">
        <ele>1064.682336</ele>
        <time>2021-11-16T10:15:09.861Z</time>
      </trkpt>
      <trkpt lat="39.48902" lon="32.30583">
        <ele>1066.637125</ele>
        <time>2021-11-16T10:15:44.180Z</time>
      </trkpt>
      <trkpt lat="39.48965" lon="32.3046">
        <ele>1066.094002</ele>
        <time>2021-11-16T10:16:06.414Z</time>
      </trkpt>
      <trkpt lat="39.49014" lon="32.30408">
        <ele>1063.97985</ele>
        <time>2021-11-16T10:16:16.425Z</time>
      </trkpt>
      <trkpt lat="39.4908" lon="32.30355">
        <ele>1061.077073</ele>
        <time>2021-11-16T10:16:28.134Z</time>
      </trkpt>
      <trkpt lat="39.49194" lon="32.30233">
        <ele>1053.086193</ele>
        <time>2021-11-16T10:16:49.934Z</time>
      </trkpt>
      <trkpt lat="39.49494" lon="32.29927">
        <ele>1035.116073</ele>
        <time>2021-11-16T10:17:48.317Z</time>
      </trkpt>
      <trkpt lat="39.49594" lon="32.29831">
        <ele>1029.855167</ele>
        <time>2021-11-16T10:18:07.657Z</time>
      </trkpt>
      <trkpt lat="39.4979" lon="32.29657">
        <ele>1019.794229</ele>
        <time>2021-11-16T10:18:44.790Z</time>
      </trkpt>
      <trkpt lat="39.49869" lon="32.29548">
        <ele>1014.113383</ele>
        <time>2021-11-16T10:19:02.290Z</time>
      </trkpt>
      <trkpt lat="39.49907" lon="32.29496">
        <ele>1011.40271</ele>
        <time>2021-11-16T10:19:10.548Z</time>
      </trkpt>
      <trkpt lat="39.49942" lon="32.29459">
        <ele>1009.017118</ele>
        <time>2021-11-16T10:19:17.314Z</time>
      </trkpt>
      <trkpt lat="39.50209" lon="32.29277">
        <ele>993.265764</ele>
        <time>2021-11-16T10:20:02.394Z</time>
      </trkpt>
      <trkpt lat="39.50241" lon="32.29258">
        <ele>991.899526</ele>
        <time>2021-11-16T10:20:07.731Z</time>
      </trkpt>
      <trkpt lat="39.50353" lon="32.2919">
        <ele>988.40391</ele>
        <time>2021-11-16T10:20:27.964Z</time>
      </trkpt>
      <trkpt lat="39.50347" lon="32.29148">
        <ele>987.468794</ele>
        <time>2021-11-16T10:20:34.135Z</time>
      </trkpt>
      <trkpt lat="39.50347" lon="32.29119">
        <ele>987.39768</ele>
        <time>2021-11-16T10:20:38.698Z</time>
      </trkpt>
      <trkpt lat="39.50392" lon="32.28911">
        <ele>987.717241</ele>
        <time>2021-11-16T10:21:20.729Z</time>
      </trkpt>
      <trkpt lat="39.504" lon="32.2884">
        <ele>987.11805</ele>
        <time>2021-11-16T10:21:32.809Z</time>
      </trkpt>
      <trkpt lat="39.50407" lon="32.28803">
        <ele>986.798939</ele>
        <time>2021-11-16T10:21:38.727Z</time>
      </trkpt>
      <trkpt lat="39.50405" lon="32.28732">
        <ele>986.213006</ele>
        <time>2021-11-16T10:21:48.631Z</time>
      </trkpt>
      <trkpt lat="39.50408" lon="32.28696">
        <ele>985.907676</ele>
        <time>2021-11-16T10:21:53.559Z</time>
      </trkpt>
      <trkpt lat="39.50417" lon="32.28663">
        <ele>985.183452</ele>
        <time>2021-11-16T10:21:58.011Z</time>
      </trkpt>
      <trkpt lat="39.50453" lon="32.2861">
        <ele>983.366199</ele>
        <time>2021-11-16T10:22:06.854Z</time>
      </trkpt>
      <trkpt lat="39.50464" lon="32.28566">
        <ele>982.180478</ele>
        <time>2021-11-16T10:22:12.523Z</time>
      </trkpt>
      <trkpt lat="39.50464" lon="32.28528">
        <ele>981.201768</ele>
        <time>2021-11-16T10:22:17.241Z</time>
      </trkpt>
      <trkpt lat="39.50453" lon="32.28496">
        <ele>980.312852</ele>
        <time>2021-11-16T10:22:21.493Z</time>
      </trkpt>
      <trkpt lat="39.50434" lon="32.28473">
        <ele>979.375732</ele>
        <time>2021-11-16T10:22:25.644Z</time>
      </trkpt>
      <trkpt lat="39.50362" lon="32.28434">
        <ele>976.358103</ele>
        <time>2021-11-16T10:22:38.046Z</time>
      </trkpt>
      <trkpt lat="39.50286" lon="32.28345">
        <ele>972.310476</ele>
        <time>2021-11-16T10:22:54.124Z</time>
      </trkpt>
      <trkpt lat="39.50222" lon="32.28295">
        <ele>968.932901</ele>
        <time>2021-11-16T10:23:05.511Z</time>
      </trkpt>
      <trkpt lat="39.50182" lon="32.28237">
        <ele>966.194037</ele>
        <time>2021-11-16T10:23:14.741Z</time>
      </trkpt>
      <trkpt lat="39.50147" lon="32.28204">
        <ele>964.245388</ele>
        <time>2021-11-16T10:23:21.436Z</time>
      </trkpt>
      <trkpt lat="39.50096" lon="32.28133">
        <ele>961.129353</ele>
        <time>2021-11-16T10:23:32.828Z</time>
      </trkpt>
      <trkpt lat="39.49978" lon="32.28015">
        <ele>956.106696</ele>
        <time>2021-11-16T10:23:56.479Z</time>
      </trkpt>
      <trkpt lat="39.49959" lon="32.28">
        <ele>955.654339</ele>
        <time>2021-11-16T10:24:00.235Z</time>
      </trkpt>
      <trkpt lat="39.49925" lon="32.27995">
        <ele>954.965441</ele>
        <time>2021-11-16T10:24:06.275Z</time>
      </trkpt>
      <trkpt lat="39.49814" lon="32.27919">
        <ele>954.282156</ele>
        <time>2021-11-16T10:24:32.264Z</time>
      </trkpt>
      <trkpt lat="39.49784" lon="32.27913">
        <ele>954.631941</ele>
        <time>2021-11-16T10:24:40.618Z</time>
      </trkpt>
      <trkpt lat="39.49752" lon="32.27861">
        <ele>955.240062</ele>
        <time>2021-11-16T10:24:56.092Z</time>
      </trkpt>
      <trkpt lat="39.49694" lon="32.27824">
        <ele>956.333834</ele>
        <time>2021-11-16T10:25:16.449Z</time>
      </trkpt>
      <trkpt lat="39.49643" lon="32.27812">
        <ele>957.68945</ele>
        <time>2021-11-16T10:25:33.659Z</time>
      </trkpt>
      <trkpt lat="39.49619" lon="32.27792">
        <ele>958.43731</ele>
        <time>2021-11-16T10:25:43.182Z</time>
      </trkpt>
      <trkpt lat="39.49579" lon="32.27772">
        <ele>959.555193</ele>
        <time>2021-11-16T10:25:57.438Z</time>
      </trkpt>
      <trkpt lat="39.49538" lon="32.27739">
        <ele>960.704132</ele>
        <time>2021-11-16T10:26:13.146Z</time>
      </trkpt>
      <trkpt lat="39.49499" lon="32.27692">
        <ele>961.775456</ele>
        <time>2021-11-16T10:26:30.290Z</time>
      </trkpt>
      <trkpt lat="39.494" lon="32.27615">
        <ele>964.018286</ele>
        <time>2021-11-16T10:27:04.567Z</time>
      </trkpt>
      <trkpt lat="39.49359" lon="32.27536">
        <ele>964.155648</ele>
        <time>2021-11-16T10:27:23.564Z</time>
      </trkpt>
      <trkpt lat="39.49268" lon="32.27405">
        <ele>963.789973</ele>
        <time>2021-11-16T10:27:51.569Z</time>
      </trkpt>
      <trkpt lat="39.49209" lon="32.27299">
        <ele>962.168919</ele>
        <time>2021-11-16T10:28:09.698Z</time>
      </trkpt>
      <trkpt lat="39.49075" lon="32.27097">
        <ele>957.463958</ele>
        <time>2021-11-16T10:28:44.803Z</time>
      </trkpt>
      <trkpt lat="39.49042" lon="32.27018">
        <ele>955.862986</ele>
        <time>2021-11-16T10:28:56.328Z</time>
      </trkpt>
      <trkpt lat="39.49047" lon="32.26841">
        <ele>952.858442</ele>
        <time>2021-11-16T10:29:19.958Z</time>
      </trkpt>
      <trkpt lat="39.49018" lon="32.26802">
        <ele>952.583244</ele>
        <time>2021-11-16T10:29:27.760Z</time>
      </trkpt>
      <trkpt lat="39.48983" lon="32.2678">
        <ele>952.331338</ele>
        <time>2021-11-16T10:29:35.277Z</time>
      </trkpt>
      <trkpt lat="39.48957" lon="32.26748">
        <ele>952.095515</ele>
        <time>2021-11-16T10:29:42.747Z</time>
      </trkpt>
      <trkpt lat="39.48927" lon="32.26729">
        <ele>951.873583</ele>
        <time>2021-11-16T10:29:50.229Z</time>
      </trkpt>
      <trkpt lat="39.48907" lon="32.26701">
        <ele>951.791611</ele>
        <time>2021-11-16T10:29:57.126Z</time>
      </trkpt>
      <trkpt lat="39.48886" lon="32.26621">
        <ele>952.470321</ele>
        <time>2021-11-16T10:30:13.673Z</time>
      </trkpt>
      <trkpt lat="39.4888" lon="32.2657">
        <ele>952.885056</ele>
        <time>2021-11-16T10:30:24.319Z</time>
      </trkpt>
      <trkpt lat="39.48785" lon="32.26274">
        <ele>956.232142</ele>
        <time>2021-11-16T10:31:33.926Z</time>
      </trkpt>
      <trkpt lat="39.48788" lon="32.26216">
        <ele>956.803425</ele>
        <time>2021-11-16T10:31:46.757Z</time>
      </trkpt>
      <trkpt lat="39.48768" lon="32.2615">
        <ele>957.507018</ele>
        <time>2021-11-16T10:32:02.440Z</time>
      </trkpt>
      <trkpt lat="39.48734" lon="32.26111">
        <ele>958.094121</ele>
        <time>2021-11-16T10:32:15.062Z</time>
      </trkpt>
      <trkpt lat="39.48687" lon="32.26022">
        <ele>958.29372</ele>
        <time>2021-11-16T10:32:35.791Z</time>
      </trkpt>
      <trkpt lat="39.48661" lon="32.25929">
        <ele>957.877336</ele>
        <time>2021-11-16T10:32:51.505Z</time>
      </trkpt>
      <trkpt lat="39.48668" lon="32.25826">
        <ele>956.912301</ele>
        <time>2021-11-16T10:33:05.949Z</time>
      </trkpt>
      <trkpt lat="39.48656" lon="32.25752">
        <ele>955.30323</ele>
        <time>2021-11-16T10:33:15.744Z</time>
      </trkpt>
      <trkpt lat="39.48656" lon="32.25678">
        <ele>953.709851</ele>
        <time>2021-11-16T10:33:25.173Z</time>
      </trkpt>
      <trkpt lat="39.4864" lon="32.25574">
        <ele>951.193218</ele>
        <time>2021-11-16T10:33:38.327Z</time>
      </trkpt>
      <trkpt lat="39.48653" lon="32.25524">
        <ele>949.802812</ele>
        <time>2021-11-16T10:33:44.868Z</time>
      </trkpt>
      <trkpt lat="39.48651" lon="32.25445">
        <ele>947.729308</ele>
        <time>2021-11-16T10:33:54.643Z</time>
      </trkpt>
      <trkpt lat="39.48666" lon="32.2538">
        <ele>946.008916</ele>
        <time>2021-11-16T10:34:03.067Z</time>
      </trkpt>
      <trkpt lat="39.4867" lon="32.25269">
        <ele>943.430488</ele>
        <time>2021-11-16T10:34:17.005Z</time>
      </trkpt>
      <trkpt lat="39.48692" lon="32.2519">
        <ele>941.459498</ele>
        <time>2021-11-16T10:34:27.853Z</time>
      </trkpt>
      <trkpt lat="39.4866" lon="32.2508">
        <ele>939.214582</ele>
        <time>2021-11-16T10:34:43.257Z</time>
      </trkpt>
      <trkpt lat="39.48664" lon="32.2499">
        <ele>937.54154</ele>
        <time>2021-11-16T10:34:55.430Z</time>
      </trkpt>
      <trkpt lat="39.48691" lon="32.24723">
        <ele>932.86656</ele>
        <time>2021-11-16T10:35:31.125Z</time>
      </trkpt>
      <trkpt lat="39.48706" lon="32.24667">
        <ele>932.079732</ele>
        <time>2021-11-16T10:35:39.205Z</time>
      </trkpt>
      <trkpt lat="39.48712" lon="32.24565">
        <ele>930.790826</ele>
        <time>2021-11-16T10:35:53.623Z</time>
      </trkpt>
      <trkpt lat="39.48704" lon="32.24526">
        <ele>930.281331</ele>
        <time>2021-11-16T10:35:59.381Z</time>
      </trkpt>
      <trkpt lat="39.48699" lon="32.24473">
        <ele>929.554487</ele>
        <time>2021-11-16T10:36:07.511Z</time>
      </trkpt>
      <trkpt lat="39.48699" lon="32.24455">
        <ele>929.273694</ele>
        <time>2021-11-16T10:36:10.337Z</time>
      </trkpt>
      <trkpt lat="39.487" lon="32.24431">
        <ele>928.890314</ele>
        <time>2021-11-16T10:36:13.916Z</time>
      </trkpt>
      <trkpt lat="39.4871" lon="32.24387">
        <ele>928.144301</ele>
        <time>2021-11-16T10:36:20.841Z</time>
      </trkpt>
      <trkpt lat="39.4872" lon="32.2434">
        <ele>927.379455</ele>
        <time>2021-11-16T10:36:27.632Z</time>
      </trkpt>
      <trkpt lat="39.48739" lon="32.24269">
        <ele>926.156465</ele>
        <time>2021-11-16T10:36:37.915Z</time>
      </trkpt>
      <trkpt lat="39.48755" lon="32.24254">
        <ele>925.462825</ele>
        <time>2021-11-16T10:36:41.162Z</time>
      </trkpt>
      <trkpt lat="39.48769" lon="32.24231">
        <ele>924.561962</ele>
        <time>2021-11-16T10:36:45.176Z</time>
      </trkpt>
      <trkpt lat="39.48791" lon="32.24183">
        <ele>922.877473</ele>
        <time>2021-11-16T10:36:52.232Z</time>
      </trkpt>
      <trkpt lat="39.48794" lon="32.24176">
        <ele>922.63851</ele>
        <time>2021-11-16T10:36:53.155Z</time>
      </trkpt>
      <trkpt lat="39.48852" lon="32.24033">
        <ele>917.56496</ele>
        <time>2021-11-16T10:37:13.495Z</time>
      </trkpt>
      <trkpt lat="39.48857" lon="32.2402">
        <ele>917.087381</ele>
        <time>2021-11-16T10:37:15.203Z</time>
      </trkpt>
      <trkpt lat="39.48916" lon="32.23872">
        <ele>911.511693</ele>
        <time>2021-11-16T10:37:36.226Z</time>
      </trkpt>
      <trkpt lat="39.48933" lon="32.23853">
        <ele>910.620256</ele>
        <time>2021-11-16T10:37:39.559Z</time>
      </trkpt>
      <trkpt lat="39.49135" lon="32.2353">
        <ele>898.344312</ele>
        <time>2021-11-16T10:38:30.453Z</time>
      </trkpt>
      <trkpt lat="39.49303" lon="32.23281">
        <ele>888.637975</ele>
        <time>2021-11-16T10:39:10.586Z</time>
      </trkpt>
      <trkpt lat="39.4959" lon="32.22825">
        <ele>873.224394</ele>
        <time>2021-11-16T10:40:23.833Z</time>
      </trkpt>
      <trkpt lat="39.49893" lon="32.22344">
        <ele>861.910695</ele>
        <time>2021-11-16T10:41:45.301Z</time>
      </trkpt>
      <trkpt lat="39.50448" lon="32.21487">
        <ele>850.589048</ele>
        <time>2021-11-16T10:44:27.174Z</time>
      </trkpt>
      <trkpt lat="39.50562" lon="32.21311">
        <ele>850.55732</ele>
        <time>2021-11-16T10:45:06.464Z</time>
      </trkpt>
      <trkpt lat="39.50687" lon="32.21132">
        <ele>852.628799</ele>
        <time>2021-11-16T10:45:58.141Z</time>
      </trkpt>
      <trkpt lat="39.50739" lon="32.21034">
        <ele>853.949437</ele>
        <time>2021-11-16T10:46:24.650Z</time>
      </trkpt>
      <trkpt lat="39.50958" lon="32.20702">
        <ele>857.637708</ele>
        <time>2021-11-16T10:47:54.962Z</time>
      </trkpt>
      <trkpt lat="39.51038" lon="32.20594">
        <ele>858.053884</ele>
        <time>2021-11-16T10:48:22.964Z</time>
      </trkpt>
      <trkpt lat="39.51066" lon="32.20567">
        <ele>857.981281</ele>
        <time>2021-11-16T10:48:30.624Z</time>
      </trkpt>
      <trkpt lat="39.51105" lon="32.20552">
        <ele>857.895822</ele>
        <time>2021-11-16T10:48:39.243Z</time>
      </trkpt>
      <trkpt lat="39.51514" lon="32.204">
        <ele>854.640795</ele>
        <time>2021-11-16T10:50:01.134Z</time>
      </trkpt>
      <trkpt lat="39.51794" lon="32.20297">
        <ele>858.012443</ele>
        <time>2021-11-16T10:51:19.605Z</time>
      </trkpt>
      <trkpt lat="39.52818" lon="32.1992">
        <ele>886.847291</ele>
        <time>2021-11-16T10:57:12.355Z</time>
      </trkpt>
      <trkpt lat="39.52911" lon="32.19865">
        <ele>890.509815</ele>
        <time>2021-11-16T10:57:50.251Z</time>
      </trkpt>
      <trkpt lat="39.52997" lon="32.19829">
        <ele>894.422416</ele>
        <time>2021-11-16T10:58:25.825Z</time>
      </trkpt>
      <trkpt lat="39.53087" lon="32.19815">
        <ele>898.724449</ele>
        <time>2021-11-16T10:59:03.665Z</time>
      </trkpt>
      <trkpt lat="39.53415" lon="32.19807">
        <ele>916.103057</ele>
        <time>2021-11-16T11:01:27.790Z</time>
      </trkpt>
      <trkpt lat="39.53492" lon="32.19784">
        <ele>919.261125</ele>
        <time>2021-11-16T11:02:01.155Z</time>
      </trkpt>
      <trkpt lat="39.53516" lon="32.19767">
        <ele>920.337083</ele>
        <time>2021-11-16T11:02:11.572Z</time>
      </trkpt>
      <trkpt lat="39.5354" lon="32.19738">
        <ele>921.633985</ele>
        <time>2021-11-16T11:02:23.340Z</time>
      </trkpt>
      <trkpt lat="39.53571" lon="32.19688">
        <ele>923.047024</ele>
        <time>2021-11-16T11:02:39.615Z</time>
      </trkpt>
      <trkpt lat="39.53587" lon="32.19651">
        <ele>923.176008</ele>
        <time>2021-11-16T11:02:49.211Z</time>
      </trkpt>
      <trkpt lat="39.53651" lon="32.19321">
        <ele>922.577896</ele>
        <time>2021-11-16T11:03:43.506Z</time>
      </trkpt>
      <trkpt lat="39.53723" lon="32.19055">
        <ele>919.0137</ele>
        <time>2021-11-16T11:04:22.418Z</time>
      </trkpt>
      <trkpt lat="39.53739" lon="32.19014">
        <ele>918.227769</ele>
        <time>2021-11-16T11:04:28.437Z</time>
      </trkpt>
      <trkpt lat="39.53761" lon="32.18979">
        <ele>917.396716</ele>
        <time>2021-11-16T11:04:34.286Z</time>
      </trkpt>
      <trkpt lat="39.5388" lon="32.18823">
        <ele>914.040474</ele>
        <time>2021-11-16T11:05:03.145Z</time>
      </trkpt>
      <trkpt lat="39.53884" lon="32.18818">
        <ele>913.990155</ele>
        <time>2021-11-16T11:05:04.047Z</time>
      </trkpt>
      <trkpt lat="39.53937" lon="32.18762">
        <ele>913.332866</ele>
        <time>2021-11-16T11:05:17.080Z</time>
      </trkpt>
      <trkpt lat="39.54054" lon="32.18662">
        <ele>913.454234</ele>
        <time>2021-11-16T11:05:51.670Z</time>
      </trkpt>
      <trkpt lat="39.54072" lon="32.18637">
        <ele>913.668451</ele>
        <time>2021-11-16T11:05:58.870Z</time>
      </trkpt>
      <trkpt lat="39.54085" lon="32.18604">
        <ele>913.903733</ele>
        <time>2021-11-16T11:06:06.630Z</time>
      </trkpt>
      <trkpt lat="39.54096" lon="32.18565">
        <ele>914.165146</ele>
        <time>2021-11-16T11:06:15.138Z</time>
      </trkpt>
      <trkpt lat="39.54127" lon="32.18464">
        <ele>914.214262</ele>
        <time>2021-11-16T11:06:35.870Z</time>
      </trkpt>
      <trkpt lat="39.54152" lon="32.18388">
        <ele>914.180554</ele>
        <time>2021-11-16T11:06:50.015Z</time>
      </trkpt>
      <trkpt lat="39.54194" lon="32.18288">
        <ele>913.509142</ele>
        <time>2021-11-16T11:07:06.452Z</time>
      </trkpt>
      <trkpt lat="39.54268" lon="32.1815">
        <ele>911.621479</ele>
        <time>2021-11-16T11:07:29.947Z</time>
      </trkpt>
      <trkpt lat="39.54464" lon="32.17869">
        <ele>908.535559</ele>
        <time>2021-11-16T11:08:25.257Z</time>
      </trkpt>
      <trkpt lat="39.54623" lon="32.17641">
        <ele>907.651935</ele>
        <time>2021-11-16T11:09:16.681Z</time>
      </trkpt>
      <trkpt lat="39.54687" lon="32.17556">
        <ele>906.827369</ele>
        <time>2021-11-16T11:09:35.814Z</time>
      </trkpt>
      <trkpt lat="39.54756" lon="32.1749">
        <ele>905.941424</ele>
        <time>2021-11-16T11:09:52.061Z</time>
      </trkpt>
      <trkpt lat="39.5515" lon="32.17194">
        <ele>894.099386</ele>
        <time>2021-11-16T11:11:09.412Z</time>
      </trkpt>
      <trkpt lat="39.55235" lon="32.1712">
        <ele>890.343813</ele>
        <time>2021-11-16T11:11:25.290Z</time>
      </trkpt>
      <trkpt lat="39.5524" lon="32.17116">
        <ele>890.086232</ele>
        <time>2021-11-16T11:11:26.048Z</time>
      </trkpt>
      <trkpt lat="39.55274" lon="32.17089">
        <ele>888.04433</ele>
        <time>2021-11-16T11:11:32.098Z</time>
      </trkpt>
      <trkpt lat="39.55313" lon="32.17058">
        <ele>885.706434</ele>
        <time>2021-11-16T11:11:39.007Z</time>
      </trkpt>
      <trkpt lat="39.55391" lon="32.16997">
        <ele>881.109295</ele>
        <time>2021-11-16T11:11:52.599Z</time>
      </trkpt>
      <trkpt lat="39.55482" lon="32.16916">
        <ele>876.421554</ele>
        <time>2021-11-16T11:12:09.517Z</time>
      </trkpt>
      <trkpt lat="39.55607" lon="32.16786">
        <ele>870.945233</ele>
        <time>2021-11-16T11:12:35.265Z</time>
      </trkpt>
      <trkpt lat="39.56201" lon="32.16112">
        <ele>854.157217</ele>
        <time>2021-11-16T11:14:53.124Z</time>
      </trkpt>
      <trkpt lat="39.56388" lon="32.15926">
        <ele>851.187027</ele>
        <time>2021-11-16T11:15:37.878Z</time>
      </trkpt>
      <trkpt lat="39.56557" lon="32.1576">
        <ele>848.994982</ele>
        <time>2021-11-16T11:16:18.898Z</time>
      </trkpt>
      <trkpt lat="39.56692" lon="32.15634">
        <ele>847.310356</ele>
        <time>2021-11-16T11:16:50.483Z</time>
      </trkpt>
      <trkpt lat="39.56827" lon="32.15546">
        <ele>846.199697</ele>
        <time>2021-11-16T11:17:20.427Z</time>
      </trkpt>
      <trkpt lat="39.56923" lon="32.15522">
        <ele>845.981807</ele>
        <time>2021-11-16T11:17:41.676Z</time>
      </trkpt>
      <trkpt lat="39.57005" lon="32.15525">
        <ele>845.854536</ele>
        <time>2021-11-16T11:17:59.927Z</time>
      </trkpt>
      <trkpt lat="39.57038" lon="32.15536">
        <ele>845.842815</ele>
        <time>2021-11-16T11:18:07.538Z</time>
      </trkpt>
      <trkpt lat="39.57081" lon="32.15496">
        <ele>845.824565</ele>
        <time>2021-11-16T11:18:19.891Z</time>
      </trkpt>
      <trkpt lat="39.57109" lon="32.15469">
        <ele>845.812472</ele>
        <time>2021-11-16T11:18:28.033Z</time>
      </trkpt>
      <trkpt lat="39.57222" lon="32.1532">
        <ele>845.353732</ele>
        <time>2021-11-16T11:19:03.854Z</time>
      </trkpt>
      <trkpt lat="39.57293" lon="32.15081">
        <ele>844.532526</ele>
        <time>2021-11-16T11:19:43.988Z</time>
      </trkpt>
      <trkpt lat="39.573" lon="32.15037">
        <ele>844.41409</ele>
        <time>2021-11-16T11:19:51.667Z</time>
      </trkpt>
      <trkpt lat="39.57302" lon="32.1502">
        <ele>844.456801</ele>
        <time>2021-11-16T11:19:54.418Z</time>
      </trkpt>
      <trkpt lat="39.57319" lon="32.14876">
        <ele>844.820312</ele>
        <time>2021-11-16T11:20:20.618Z</time>
      </trkpt>
      <trkpt lat="39.57321" lon="32.1486">
        <ele>844.860456</ele>
        <time>2021-11-16T11:20:23.788Z</time>
      </trkpt>
      <trkpt lat="39.5733" lon="32.14827">
        <ele>844.946557</ele>
        <time>2021-11-16T11:20:30.218Z</time>
      </trkpt>
      <trkpt lat="39.57337" lon="32.1481">
        <ele>844.994486</ele>
        <time>2021-11-16T11:20:34.198Z</time>
      </trkpt>
      <trkpt lat="39.57354" lon="32.14769">
        <ele>845.108512</ele>
        <time>2021-11-16T11:20:43.553Z</time>
      </trkpt>
      <trkpt lat="39.57363" lon="32.14748">
        <ele>845.167117</ele>
        <time>2021-11-16T11:20:48.058Z</time>
      </trkpt>
      <trkpt lat="39.57366" lon="32.14735">
        <ele>845.200294</ele>
        <time>2021-11-16T11:20:50.748Z</time>
      </trkpt>
      <trkpt lat="39.57414" lon="32.14738">
        <ele>845.353596</ele>
        <time>2021-11-16T11:21:02.530Z</time>
      </trkpt>
      <trkpt lat="39.57417" lon="32.14734">
        <ele>845.366104</ele>
        <time>2021-11-16T11:21:03.486Z</time>
      </trkpt>
      <trkpt lat="39.57449" lon="32.14675">
        <ele>845.542</ele>
        <time>2021-11-16T11:21:16.325Z</time>
      </trkpt>
      <trkpt lat="39.57449" lon="32.14675">
        <ele>845.542</ele>
        <time>2021-11-16T11:21:16.382Z</time>
      </trkpt>
      <trkpt lat="39.57449" lon="32.14675">
        <ele>845.542</ele>
        <time>2021-11-16T11:21:16.388Z</time>
      </trkpt>
      <trkpt lat="39.57417" lon="32.14734">
        <ele>845.391037</ele>
        <time>2021-11-16T11:21:28.875Z</time>
      </trkpt>
      <trkpt lat="39.57414" lon="32.14738">
        <ele>845.379456</ele>
        <time>2021-11-16T11:21:29.720Z</time>
      </trkpt>
      <trkpt lat="39.57366" lon="32.14735">
        <ele>845.237508</ele>
        <time>2021-11-16T11:21:40.519Z</time>
      </trkpt>
      <trkpt lat="39.57363" lon="32.14748">
        <ele>845.206789</ele>
        <time>2021-11-16T11:21:42.745Z</time>
      </trkpt>
      <trkpt lat="39.57358" lon="32.14722">
        <ele>845.146627</ele>
        <time>2021-11-16T11:21:46.831Z</time>
      </trkpt>
      <trkpt lat="39.57281" lon="32.146">
        <ele>845.205412</ele>
        <time>2021-11-16T11:22:12.463Z</time>
      </trkpt>
      <trkpt lat="39.57272" lon="32.14581">
        <ele>845.24463</ele>
        <time>2021-11-16T11:22:16.144Z</time>
      </trkpt>
      <trkpt lat="39.5727" lon="32.14565">
        <ele>845.273748</ele>
        <time>2021-11-16T11:22:18.951Z</time>
      </trkpt>
      <trkpt lat="39.57253" lon="32.1457">
        <ele>845.313599</ele>
        <time>2021-11-16T11:22:22.931Z</time>
      </trkpt>
      <trkpt lat="39.571" lon="32.14622">
        <ele>847.17221</ele>
        <time>2021-11-16T11:23:05.401Z</time>
      </trkpt>
      <trkpt lat="39.57094" lon="32.14624">
        <ele>847.270037</ele>
        <time>2021-11-16T11:23:07.283Z</time>
      </trkpt>
      <trkpt lat="39.56993" lon="32.14644">
        <ele>849.191973</ele>
        <time>2021-11-16T11:23:40.051Z</time>
      </trkpt>
      <trkpt lat="39.56941" lon="32.14659">
        <ele>850.421015</ele>
        <time>2021-11-16T11:23:57.287Z</time>
      </trkpt>
      <trkpt lat="39.56941" lon="32.1465">
        <ele>850.589518</ele>
        <time>2021-11-16T11:23:59.829Z</time>
      </trkpt>
      <trkpt lat="39.56854" lon="32.1467">
        <ele>852.618087</ele>
        <time>2021-11-16T11:24:28.836Z</time>
      </trkpt>
      <trkpt lat="39.56805" lon="32.14673">
        <ele>853.174642</ele>
        <time>2021-11-16T11:24:42.418Z</time>
      </trkpt>
      <trkpt lat="39.56799" lon="32.14673">
        <ele>853.245299</ele>
        <time>2021-11-16T11:24:44.106Z</time>
      </trkpt>
      <trkpt lat="39.56797" lon="32.1465">
        <ele>853.445391</ele>
        <time>2021-11-16T11:24:48.943Z</time>
      </trkpt>
      <trkpt lat="39.56746" lon="32.14642">
        <ele>854.03392</ele>
        <time>2021-11-16T11:25:01.881Z</time>
      </trkpt>
      <trkpt lat="39.56641" lon="32.14619">
        <ele>855.534784</ele>
        <time>2021-11-16T11:25:31.251Z</time>
      </trkpt>
      <trkpt lat="39.56643" lon="32.14606">
        <ele>855.703581</ele>
        <time>2021-11-16T11:25:34.125Z</time>
      </trkpt>
      <trkpt lat="39.56521" lon="32.14584">
        <ele>857.810095</ele>
        <time>2021-11-16T11:26:11.802Z</time>
      </trkpt>
      <trkpt lat="39.5644" lon="32.14563">
        <ele>859.760936</ele>
        <time>2021-11-16T11:26:40.101Z</time>
      </trkpt>
      <trkpt lat="39.5644" lon="32.14552">
        <ele>859.956319</ele>
        <time>2021-11-16T11:26:42.843Z</time>
      </trkpt>
      <trkpt lat="39.56436" lon="32.14528">
        <ele>860.409677</ele>
        <time>2021-11-16T11:26:48.920Z</time>
      </trkpt>
      <trkpt lat="39.5642" lon="32.14532">
        <ele>860.793714</ele>
        <time>2021-11-16T11:26:54.447Z</time>
      </trkpt>
      <trkpt lat="39.56341" lon="32.14519">
        <ele>862.581934</ele>
        <time>2021-11-16T11:27:19.327Z</time>
      </trkpt>
      <trkpt lat="39.56291" lon="32.1451">
        <ele>863.637608</ele>
        <time>2021-11-16T11:27:34.976Z</time>
      </trkpt>
      <trkpt lat="39.56188" lon="32.14492">
        <ele>865.769035</ele>
        <time>2021-11-16T11:28:07.930Z</time>
      </trkpt>
      <trkpt lat="39.56128" lon="32.1448">
        <ele>866.851396</ele>
        <time>2021-11-16T11:28:27.120Z</time>
      </trkpt>
      <trkpt lat="39.56016" lon="32.1446">
        <ele>868.832213</ele>
        <time>2021-11-16T11:29:00.898Z</time>
      </trkpt>
      <trkpt lat="39.55955" lon="32.14449">
        <ele>869.340172</ele>
        <time>2021-11-16T11:29:17.642Z</time>
      </trkpt>
      <trkpt lat="39.55879" lon="32.14433">
        <ele>869.983064</ele>
        <time>2021-11-16T11:29:37.576Z</time>
      </trkpt>
      <trkpt lat="39.55824" lon="32.14421">
        <ele>870.512224</ele>
        <time>2021-11-16T11:29:51.078Z</time>
      </trkpt>
      <trkpt lat="39.55804" lon="32.14398">
        <ele>870.876794</ele>
        <time>2021-11-16T11:29:58.298Z</time>
      </trkpt>
      <trkpt lat="39.55763" lon="32.14393">
        <ele>871.429203</ele>
        <time>2021-11-16T11:30:09.585Z</time>
      </trkpt>
      <trkpt lat="39.55678" lon="32.14384">
        <ele>872.583582</ele>
        <time>2021-11-16T11:30:35.118Z</time>
      </trkpt>
      <trkpt lat="39.55655" lon="32.14368">
        <ele>872.946826</ele>
        <time>2021-11-16T11:30:43.584Z</time>
      </trkpt>
      <trkpt lat="39.55617" lon="32.14363">
        <ele>873.506288</ele>
        <time>2021-11-16T11:30:55.577Z</time>
      </trkpt>
      <trkpt lat="39.555" lon="32.14346">
        <ele>875.257372</ele>
        <time>2021-11-16T11:31:30.974Z</time>
      </trkpt>
      <trkpt lat="39.55499" lon="32.14373">
        <ele>875.339699</ele>
        <time>2021-11-16T11:31:36.392Z</time>
      </trkpt>
      <trkpt lat="39.55233" lon="32.1432">
        <ele>873.647388</ele>
        <time>2021-11-16T11:32:31.421Z</time>
      </trkpt>
      <trkpt lat="39.55108" lon="32.14299">
        <ele>872.874334</ele>
        <time>2021-11-16T11:32:57.522Z</time>
      </trkpt>
      <trkpt lat="39.54865" lon="32.14259">
        <ele>873.274865</ele>
        <time>2021-11-16T11:33:53.389Z</time>
      </trkpt>
      <trkpt lat="39.5473" lon="32.1424">
        <ele>875.75097</ele>
        <time>2021-11-16T11:34:35.518Z</time>
      </trkpt>
      <trkpt lat="39.54622" lon="32.14218">
        <ele>878.984212</ele>
        <time>2021-11-16T11:35:16.292Z</time>
      </trkpt>
      <trkpt lat="39.54594" lon="32.14213">
        <ele>879.847072</ele>
        <time>2021-11-16T11:35:27.383Z</time>
      </trkpt>
      <trkpt lat="39.5449" lon="32.14196">
        <ele>883.050478</ele>
        <time>2021-11-16T11:36:07.486Z</time>
      </trkpt>
      <trkpt lat="39.54284" lon="32.14164">
        <ele>885.433938</ele>
        <time>2021-11-16T11:37:06.753Z</time>
      </trkpt>
      <trkpt lat="39.54285" lon="32.1418">
        <ele>885.500982</ele>
        <time>2021-11-16T11:37:09.342Z</time>
      </trkpt>
      <trkpt lat="39.54278" lon="32.14179">
        <ele>885.542668</ele>
        <time>2021-11-16T11:37:10.694Z</time>
      </trkpt>
      <trkpt lat="39.53563" lon="32.1402">
        <ele>857.861033</ele>
        <time>2021-11-16T11:39:04.257Z</time>
      </trkpt>
      <trkpt lat="39.5331" lon="32.13963">
        <ele>852.39277</ele>
        <time>2021-11-16T11:39:49.287Z</time>
      </trkpt>
      <trkpt lat="39.53135" lon="32.13924">
        <ele>849.127405</ele>
        <time>2021-11-16T11:40:22.262Z</time>
      </trkpt>
      <trkpt lat="39.5297" lon="32.13887">
        <ele>844.945616</ele>
        <time>2021-11-16T11:40:50.728Z</time>
      </trkpt>
      <trkpt lat="39.52704" lon="32.13828">
        <ele>835.810031</ele>
        <time>2021-11-16T11:41:33.578Z</time>
      </trkpt>
      <trkpt lat="39.52202" lon="32.13724">
        <ele>823.226314</ele>
        <time>2021-11-16T11:43:00.159Z</time>
      </trkpt>
      <trkpt lat="39.5141" lon="32.1353">
        <ele>807.851921</ele>
        <time>2021-11-16T11:45:23.169Z</time>
      </trkpt>
      <trkpt lat="39.5134" lon="32.13503">
        <ele>806.589114</ele>
        <time>2021-11-16T11:45:36.171Z</time>
      </trkpt>
      <trkpt lat="39.5133" lon="32.13497">
        <ele>806.395296</ele>
        <time>2021-11-16T11:45:38.163Z</time>
      </trkpt>
      <trkpt lat="39.51275" lon="32.13466">
        <ele>805.350383</ele>
        <time>2021-11-16T11:45:49.035Z</time>
      </trkpt>
      <trkpt lat="39.50181" lon="32.12723">
        <ele>787.085404</ele>
        <time>2021-11-16T11:49:35.631Z</time>
      </trkpt>
      <trkpt lat="39.50099" lon="32.12675">
        <ele>786.515983</ele>
        <time>2021-11-16T11:49:53.869Z</time>
      </trkpt>
      <trkpt lat="39.5" lon="32.12629">
        <ele>786.190989</ele>
        <time>2021-11-16T11:50:16.877Z</time>
      </trkpt>
      <trkpt lat="39.49922" lon="32.12605">
        <ele>786.014023</ele>
        <time>2021-11-16T11:50:34.957Z</time>
      </trkpt>
      <trkpt lat="39.49826" lon="32.1258">
        <ele>785.817813</ele>
        <time>2021-11-16T11:50:55.963Z</time>
      </trkpt>
      <trkpt lat="39.4969" lon="32.12545">
        <ele>784.741921</ele>
        <time>2021-11-16T11:51:23.451Z</time>
      </trkpt>
      <trkpt lat="39.493" lon="32.12448">
        <ele>780.715659</ele>
        <time>2021-11-16T11:52:38.987Z</time>
      </trkpt>
      <trkpt lat="39.48918" lon="32.12356">
        <ele>779.059091</ele>
        <time>2021-11-16T11:54:00.137Z</time>
      </trkpt>
      <trkpt lat="39.48765" lon="32.12321">
        <ele>778.873812</ele>
        <time>2021-11-16T11:54:33.925Z</time>
      </trkpt>
      <trkpt lat="39.48432" lon="32.12242">
        <ele>780.091225</ele>
        <time>2021-11-16T11:55:54.784Z</time>
      </trkpt>
      <trkpt lat="39.48373" lon="32.12228">
        <ele>780.240038</ele>
        <time>2021-11-16T11:56:08.978Z</time>
      </trkpt>
      <trkpt lat="39.48346" lon="32.122">
        <ele>780.2427</ele>
        <time>2021-11-16T11:56:17.021Z</time>
      </trkpt>
      <trkpt lat="39.48335" lon="32.12172">
        <ele>780.244571</ele>
        <time>2021-11-16T11:56:22.608Z</time>
      </trkpt>
      <trkpt lat="39.48321" lon="32.12116">
        <ele>780.248054</ele>
        <time>2021-11-16T11:56:32.699Z</time>
      </trkpt>
      <trkpt lat="39.48275" lon="32.1195">
        <ele>779.745234</ele>
        <time>2021-11-16T11:57:00.827Z</time>
      </trkpt>
      <trkpt lat="39.47839" lon="32.1049">
        <ele>772.235524</ele>
        <time>2021-11-16T12:01:05.245Z</time>
      </trkpt>
      <trkpt lat="39.47812" lon="32.10418">
        <ele>771.603451</ele>
        <time>2021-11-16T12:01:17.264Z</time>
      </trkpt>
      <trkpt lat="39.47757" lon="32.10311">
        <ele>770.564047</ele>
        <time>2021-11-16T12:01:35.789Z</time>
      </trkpt>
      <trkpt lat="39.47706" lon="32.10222">
        <ele>769.476689</ele>
        <time>2021-11-16T12:01:51.663Z</time>
      </trkpt>
      <trkpt lat="39.47654" lon="32.10155">
        <ele>768.538137</ele>
        <time>2021-11-16T12:02:05.482Z</time>
      </trkpt>
      <trkpt lat="39.46368" lon="32.08772">
        <ele>755.336687</ele>
        <time>2021-11-16T12:07:35.817Z</time>
      </trkpt>
      <trkpt lat="39.46336" lon="32.0873">
        <ele>755.107324</ele>
        <time>2021-11-16T12:07:44.875Z</time>
      </trkpt>
      <trkpt lat="39.46317" lon="32.0868">
        <ele>754.885643</ele>
        <time>2021-11-16T12:07:53.877Z</time>
      </trkpt>
      <trkpt lat="39.46291" lon="32.08575">
        <ele>754.813844</ele>
        <time>2021-11-16T12:08:12.211Z</time>
      </trkpt>
      <trkpt lat="39.46172" lon="32.08013">
        <ele>756.477366</ele>
        <time>2021-11-16T12:10:00.767Z</time>
      </trkpt>
      <trkpt lat="39.46159" lon="32.07918">
        <ele>756.53463</ele>
        <time>2021-11-16T12:10:17.487Z</time>
      </trkpt>
      <trkpt lat="39.46151" lon="32.07809">
        <ele>756.18816</ele>
        <time>2021-11-16T12:10:35.197Z</time>
      </trkpt>
      <trkpt lat="39.46096" lon="32.07133">
        <ele>752.689943</ele>
        <time>2021-11-16T12:12:20.069Z</time>
      </trkpt>
      <trkpt lat="39.46089" lon="32.07051">
        <ele>752.230845</ele>
        <time>2021-11-16T12:12:33.125Z</time>
      </trkpt>
      <trkpt lat="39.46078" lon="32.06987">
        <ele>751.653669</ele>
        <time>2021-11-16T12:12:43.218Z</time>
      </trkpt>
      <trkpt lat="39.459" lon="32.06355">
        <ele>744.002298</ele>
        <time>2021-11-16T12:14:18.010Z</time>
      </trkpt>
      <trkpt lat="39.45887" lon="32.06291">
        <ele>743.392786</ele>
        <time>2021-11-16T12:14:27.595Z</time>
      </trkpt>
      <trkpt lat="39.45885" lon="32.06214">
        <ele>742.681639</ele>
        <time>2021-11-16T12:14:38.901Z</time>
      </trkpt>
      <trkpt lat="39.45891" lon="32.06162">
        <ele>742.197688</ele>
        <time>2021-11-16T12:14:46.680Z</time>
      </trkpt>
      <trkpt lat="39.4606" lon="32.05621">
        <ele>737.112115</ele>
        <time>2021-11-16T12:16:12.551Z</time>
      </trkpt>
      <trkpt lat="39.46086" lon="32.05525">
        <ele>736.240405</ele>
        <time>2021-11-16T12:16:27.439Z</time>
      </trkpt>
      <trkpt lat="39.4617" lon="32.04979">
        <ele>731.839133</ele>
        <time>2021-11-16T12:17:50.145Z</time>
      </trkpt>
      <trkpt lat="39.46193" lon="32.04875">
        <ele>731.079105</ele>
        <time>2021-11-16T12:18:06.173Z</time>
      </trkpt>
      <trkpt lat="39.46206" lon="32.04824">
        <ele>730.7015</ele>
        <time>2021-11-16T12:18:14.345Z</time>
      </trkpt>
      <trkpt lat="39.46266" lon="32.04644">
        <ele>729.773333</ele>
        <time>2021-11-16T12:18:45.385Z</time>
      </trkpt>
      <trkpt lat="39.46496" lon="32.04005">
        <ele>726.583389</ele>
        <time>2021-11-16T12:20:35.219Z</time>
      </trkpt>
      <trkpt lat="39.46518" lon="32.03931">
        <ele>726.481221</ele>
        <time>2021-11-16T12:20:48.475Z</time>
      </trkpt>
      <trkpt lat="39.46528" lon="32.03845">
        <ele>726.752618</ele>
        <time>2021-11-16T12:21:03.588Z</time>
      </trkpt>
      <trkpt lat="39.46533" lon="32.03188">
        <ele>729.575602</ele>
        <time>2021-11-16T12:23:07.735Z</time>
      </trkpt>
      <trkpt lat="39.46538" lon="32.03167">
        <ele>729.776906</ele>
        <time>2021-11-16T12:23:12.384Z</time>
      </trkpt>
      <trkpt lat="39.46553" lon="32.03137">
        <ele>730.106925</ele>
        <time>2021-11-16T12:23:20.066Z</time>
      </trkpt>
      <trkpt lat="39.46634" lon="32.03073">
        <ele>731.283554</ele>
        <time>2021-11-16T12:23:47.205Z</time>
      </trkpt>
      <trkpt lat="39.46648" lon="32.03055">
        <ele>731.566146</ele>
        <time>2021-11-16T12:23:52.927Z</time>
      </trkpt>
      <trkpt lat="39.46659" lon="32.03032">
        <ele>731.871748</ele>
        <time>2021-11-16T12:23:59.082Z</time>
      </trkpt>
      <trkpt lat="39.46668" lon="32.02986">
        <ele>732.390963</ele>
        <time>2021-11-16T12:24:09.417Z</time>
      </trkpt>
      <trkpt lat="39.46667" lon="32.02947">
        <ele>732.824087</ele>
        <time>2021-11-16T12:24:17.924Z</time>
      </trkpt>
      <trkpt lat="39.46629" lon="32.02751">
        <ele>734.713834</ele>
        <time>2021-11-16T12:24:59.891Z</time>
      </trkpt>
      <trkpt lat="39.4662" lon="32.02636">
        <ele>735.599595</ele>
        <time>2021-11-16T12:25:23.820Z</time>
      </trkpt>
      <trkpt lat="39.4662" lon="32.02602">
        <ele>735.648363</ele>
        <time>2021-11-16T12:25:30.245Z</time>
      </trkpt>
      <trkpt lat="39.46621" lon="32.02522">
        <ele>735.767054</ele>
        <time>2021-11-16T12:25:44.673Z</time>
      </trkpt>
      <trkpt lat="39.46621" lon="32.02512">
        <ele>735.780615</ele>
        <time>2021-11-16T12:25:46.164Z</time>
      </trkpt>
      <trkpt lat="39.46626" lon="32.02429">
        <ele>735.903295</ele>
        <time>2021-11-16T12:26:00.339Z</time>
      </trkpt>
      <trkpt lat="39.46628" lon="32.02325">
        <ele>735.615305</ele>
        <time>2021-11-16T12:26:16.686Z</time>
      </trkpt>
      <trkpt lat="39.46628" lon="32.0225">
        <ele>735.355222</ele>
        <time>2021-11-16T12:26:28.287Z</time>
      </trkpt>
      <trkpt lat="39.46626" lon="32.02212">
        <ele>735.227623</ele>
        <time>2021-11-16T12:26:34.181Z</time>
      </trkpt>
      <trkpt lat="39.46625" lon="32.0218">
        <ele>735.137093</ele>
        <time>2021-11-16T12:26:39.532Z</time>
      </trkpt>
      <trkpt lat="39.46617" lon="32.02153">
        <ele>735.274313</ele>
        <time>2021-11-16T12:26:44.501Z</time>
      </trkpt>
      <trkpt lat="39.46603" lon="32.0211">
        <ele>735.499575</ele>
        <time>2021-11-16T12:26:53.026Z</time>
      </trkpt>
      <trkpt lat="39.46565" lon="32.02053">
        <ele>735.859524</ele>
        <time>2021-11-16T12:27:07.124Z</time>
      </trkpt>
      <trkpt lat="39.4655" lon="32.0203">
        <ele>736.003755</ele>
        <time>2021-11-16T12:27:13.079Z</time>
      </trkpt>
      <trkpt lat="39.46455" lon="32.01913">
        <ele>738.227252</ele>
        <time>2021-11-16T12:27:50.288Z</time>
      </trkpt>
      <trkpt lat="39.46343" lon="32.01775">
        <ele>741.791509</ele>
        <time>2021-11-16T12:28:42.251Z</time>
      </trkpt>
      <trkpt lat="39.46293" lon="32.01732">
        <ele>743.329111</ele>
        <time>2021-11-16T12:29:02.961Z</time>
      </trkpt>
      <trkpt lat="39.46272" lon="32.01725">
        <ele>743.893801</ele>
        <time>2021-11-16T12:29:10.052Z</time>
      </trkpt>
      <trkpt lat="39.4622" lon="32.01715">
        <ele>744.660855</ele>
        <time>2021-11-16T12:29:26.080Z</time>
      </trkpt>
      <trkpt lat="39.4569" lon="32.01735">
        <ele>743.63349</ele>
        <time>2021-11-16T12:31:19.009Z</time>
      </trkpt>
      <trkpt lat="39.45629" lon="32.01729">
        <ele>742.431642</ele>
        <time>2021-11-16T12:31:29.950Z</time>
      </trkpt>
      <trkpt lat="39.45555" lon="32.01697">
        <ele>740.923053</ele>
        <time>2021-11-16T12:31:43.223Z</time>
      </trkpt>
      <trkpt lat="39.4539" lon="32.01578">
        <ele>736.434744</ele>
        <time>2021-11-16T12:32:15.201Z</time>
      </trkpt>
      <trkpt lat="39.45305" lon="32.01536">
        <ele>734.631374</ele>
        <time>2021-11-16T12:32:31.066Z</time>
      </trkpt>
      <trkpt lat="39.45012" lon="32.01472">
        <ele>729.442898</ele>
        <time>2021-11-16T12:33:24.766Z</time>
      </trkpt>
      <trkpt lat="39.44939" lon="32.01442">
        <ele>727.98986</ele>
        <time>2021-11-16T12:33:38.424Z</time>
      </trkpt>
      <trkpt lat="39.44918" lon="32.01427">
        <ele>727.528482</ele>
        <time>2021-11-16T12:33:42.723Z</time>
      </trkpt>
      <trkpt lat="39.44879" lon="32.01381">
        <ele>726.518945</ele>
        <time>2021-11-16T12:33:52.065Z</time>
      </trkpt>
      <trkpt lat="39.44447" lon="32.00745">
        <ele>713.009732</ele>
        <time>2021-11-16T12:35:45.758Z</time>
      </trkpt>
      <trkpt lat="39.44408" lon="32.00693">
        <ele>712.093269</ele>
        <time>2021-11-16T12:35:56.358Z</time>
      </trkpt>
      <trkpt lat="39.4436" lon="32.00655">
        <ele>711.54486</ele>
        <time>2021-11-16T12:36:07.199Z</time>
      </trkpt>
      <trkpt lat="39.43962" lon="32.00438">
        <ele>710.072865</ele>
        <time>2021-11-16T12:37:38.310Z</time>
      </trkpt>
      <trkpt lat="39.43899" lon="32.00418">
        <ele>709.97258</ele>
        <time>2021-11-16T12:37:52.627Z</time>
      </trkpt>
      <trkpt lat="39.43494" lon="32.00352">
        <ele>710.225781</ele>
        <time>2021-11-16T12:39:26.187Z</time>
      </trkpt>
      <trkpt lat="39.42721" lon="32.00244">
        <ele>705.062469</ele>
        <time>2021-11-16T12:42:01.145Z</time>
      </trkpt>
      <trkpt lat="39.4263" lon="32.00227">
        <ele>704.572984</ele>
        <time>2021-11-16T12:42:20.066Z</time>
      </trkpt>
      <trkpt lat="39.42503" lon="32.00211">
        <ele>704.458837</ele>
        <time>2021-11-16T12:42:47.730Z</time>
      </trkpt>
      <trkpt lat="39.42432" lon="32.00184">
        <ele>704.530184</ele>
        <time>2021-11-16T12:43:04.796Z</time>
      </trkpt>
      <trkpt lat="39.42389" lon="32.0018">
        <ele>704.713638</ele>
        <time>2021-11-16T12:43:14.990Z</time>
      </trkpt>
      <trkpt lat="39.4238" lon="32.00165">
        <ele>704.775428</ele>
        <time>2021-11-16T12:43:18.605Z</time>
      </trkpt>
      <trkpt lat="39.42375" lon="32.0013">
        <ele>704.890315</ele>
        <time>2021-11-16T12:43:25.212Z</time>
      </trkpt>
      <trkpt lat="39.42373" lon="32.00113">
        <ele>704.947052</ele>
        <time>2021-11-16T12:43:28.698Z</time>
      </trkpt>
      <trkpt lat="39.42364" lon="32.00098">
        <ele>705.007411</ele>
        <time>2021-11-16T12:43:32.025Z</time>
      </trkpt>
      <trkpt lat="39.42337" lon="32.0009">
        <ele>705.127842</ele>
        <time>2021-11-16T12:43:39.102Z</time>
      </trkpt>
      <trkpt lat="39.42319" lon="32.00076">
        <ele>705.236353</ele>
        <time>2021-11-16T12:43:44.118Z</time>
      </trkpt>
      <trkpt lat="39.42071" lon="31.99774">
        <ele>707.509832</ele>
        <time>2021-11-16T12:45:09.303Z</time>
      </trkpt>
      <trkpt lat="39.41658" lon="31.99261">
        <ele>709.683708</ele>
        <time>2021-11-16T12:47:24.944Z</time>
      </trkpt>
      <trkpt lat="39.41581" lon="31.99154">
        <ele>709.966736</ele>
        <time>2021-11-16T12:47:52.315Z</time>
      </trkpt>
      <trkpt lat="39.414" lon="31.986">
        <ele>708.774859</ele>
        <time>2021-11-16T12:49:32.334Z</time>
      </trkpt>
      <trkpt lat="39.41365" lon="31.98485">
        <ele>707.809815</ele>
        <time>2021-11-16T12:49:49.652Z</time>
      </trkpt>
      <trkpt lat="39.41258" lon="31.98135">
        <ele>704.757892</ele>
        <time>2021-11-16T12:50:44.724Z</time>
      </trkpt>
      <trkpt lat="39.41252" lon="31.98099">
        <ele>704.542481</ele>
        <time>2021-11-16T12:50:50.667Z</time>
      </trkpt>
      <trkpt lat="39.41252" lon="31.9804">
        <ele>704.197385</ele>
        <time>2021-11-16T12:51:00.210Z</time>
      </trkpt>
      <trkpt lat="39.41263" lon="31.97997">
        <ele>704.015787</ele>
        <time>2021-11-16T12:51:07.593Z</time>
      </trkpt>
      <trkpt lat="39.41295" lon="31.97945">
        <ele>703.895812</ele>
        <time>2021-11-16T12:51:18.541Z</time>
      </trkpt>
      <trkpt lat="39.41461" lon="31.97796">
        <ele>703.646383</ele>
        <time>2021-11-16T12:52:02.056Z</time>
      </trkpt>
      <trkpt lat="39.41498" lon="31.97751">
        <ele>703.654077</ele>
        <time>2021-11-16T12:52:13.543Z</time>
      </trkpt>
      <trkpt lat="39.41518" lon="31.97704">
        <ele>703.669109</ele>
        <time>2021-11-16T12:52:23.123Z</time>
      </trkpt>
      <trkpt lat="39.41523" lon="31.9767">
        <ele>703.804099</ele>
        <time>2021-11-16T12:52:29.421Z</time>
      </trkpt>
      <trkpt lat="39.4151" lon="31.97507">
        <ele>704.443224</ele>
        <time>2021-11-16T12:53:00.338Z</time>
      </trkpt>
      <trkpt lat="39.41515" lon="31.97459">
        <ele>704.660383</ele>
        <time>2021-11-16T12:53:09.657Z</time>
      </trkpt>
      <trkpt lat="39.41572" lon="31.97059">
        <ele>706.762932</ele>
        <time>2021-11-16T12:54:29.036Z</time>
      </trkpt>
      <trkpt lat="39.41648" lon="31.96525">
        <ele>707.553075</ele>
        <time>2021-11-16T12:56:03.355Z</time>
      </trkpt>
      <trkpt lat="39.41647" lon="31.9643">
        <ele>708.111718</ele>
        <time>2021-11-16T12:56:21.659Z</time>
      </trkpt>
      <trkpt lat="39.41635" lon="31.96387">
        <ele>708.380545</ele>
        <time>2021-11-16T12:56:30.856Z</time>
      </trkpt>
      <trkpt lat="39.41451" lon="31.95941">
        <ele>713.221223</ele>
        <time>2021-11-16T12:58:18.636Z</time>
      </trkpt>
      <trkpt lat="39.41399" lon="31.95837">
        <ele>714.148051</ele>
        <time>2021-11-16T12:58:43.837Z</time>
      </trkpt>
      <trkpt lat="39.40956" lon="31.95054">
        <ele>720.953492</ele>
        <time>2021-11-16T13:01:57.222Z</time>
      </trkpt>
      <trkpt lat="39.4092" lon="31.94969">
        <ele>721.565904</ele>
        <time>2021-11-16T13:02:16.587Z</time>
      </trkpt>
      <trkpt lat="39.40907" lon="31.94923">
        <ele>721.76235</ele>
        <time>2021-11-16T13:02:26.162Z</time>
      </trkpt>
      <trkpt lat="39.40897" lon="31.94862">
        <ele>722.012448</ele>
        <time>2021-11-16T13:02:38.140Z</time>
      </trkpt>
      <trkpt lat="39.40805" lon="31.94142">
        <ele>724.153098</ele>
        <time>2021-11-16T13:04:50.228Z</time>
      </trkpt>
      <trkpt lat="39.408" lon="31.94101">
        <ele>724.316475</ele>
        <time>2021-11-16T13:04:58.426Z</time>
      </trkpt>
      <trkpt lat="39.40794" lon="31.94028">
        <ele>724.67419</ele>
        <time>2021-11-16T13:05:12.955Z</time>
      </trkpt>
      <trkpt lat="39.40793" lon="31.93996">
        <ele>724.859496</ele>
        <time>2021-11-16T13:05:19.436Z</time>
      </trkpt>
      <trkpt lat="39.40783" lon="31.93975">
        <ele>725.00698</ele>
        <time>2021-11-16T13:05:24.558Z</time>
      </trkpt>
      <trkpt lat="39.40747" lon="31.93872">
        <ele>725.665728</ele>
        <time>2021-11-16T13:05:47.533Z</time>
      </trkpt>
      <trkpt lat="39.40702" lon="31.93753">
        <ele>726.145178</ele>
        <time>2021-11-16T13:06:12.857Z</time>
      </trkpt>
      <trkpt lat="39.40706" lon="31.93723">
        <ele>726.236241</ele>
        <time>2021-11-16T13:06:18.648Z</time>
      </trkpt>
      <trkpt lat="39.40708" lon="31.93704">
        <ele>726.294126</ele>
        <time>2021-11-16T13:06:22.223Z</time>
      </trkpt>
      <trkpt lat="39.40711" lon="31.93681">
        <ele>726.363623</ele>
        <time>2021-11-16T13:06:26.701Z</time>
      </trkpt>
      <trkpt lat="39.40747" lon="31.9348">
        <ele>726.949831</ele>
        <time>2021-11-16T13:07:05.792Z</time>
      </trkpt>
      <trkpt lat="39.40761" lon="31.93451">
        <ele>727.044293</ele>
        <time>2021-11-16T13:07:12.236Z</time>
      </trkpt>
      <trkpt lat="39.40772" lon="31.9344">
        <ele>727.093814</ele>
        <time>2021-11-16T13:07:15.595Z</time>
      </trkpt>
      <trkpt lat="39.40769" lon="31.93365">
        <ele>727.408422</ele>
        <time>2021-11-16T13:07:29.483Z</time>
      </trkpt>
      <trkpt lat="39.40767" lon="31.93316">
        <ele>727.655429</ele>
        <time>2021-11-16T13:07:38.597Z</time>
      </trkpt>
      <trkpt lat="39.40766" lon="31.93218">
        <ele>728.155523</ele>
        <time>2021-11-16T13:07:57.721Z</time>
      </trkpt>
      <trkpt lat="39.40766" lon="31.93209">
        <ele>728.202328</ele>
        <time>2021-11-16T13:07:59.479Z</time>
      </trkpt>
      <trkpt lat="39.40766" lon="31.93203">
        <ele>728.230307</ele>
        <time>2021-11-16T13:08:00.583Z</time>
      </trkpt>
      <trkpt lat="39.40903" lon="31.89842">
        <ele>755.599317</ele>
        <time>2021-11-16T13:19:30.108Z</time>
      </trkpt>
      <trkpt lat="39.40896" lon="31.89717">
        <ele>756.188778</ele>
        <time>2021-11-16T13:19:53.070Z</time>
      </trkpt>
      <trkpt lat="39.40799" lon="31.89164">
        <ele>757.230795</ele>
        <time>2021-11-16T13:21:34.110Z</time>
      </trkpt>
      <trkpt lat="39.40793" lon="31.89095">
        <ele>757.370125</ele>
        <time>2021-11-16T13:21:46.770Z</time>
      </trkpt>
      <trkpt lat="39.40793" lon="31.89039">
        <ele>757.482495</ele>
        <time>2021-11-16T13:21:56.953Z</time>
      </trkpt>
      <trkpt lat="39.40826" lon="31.88604">
        <ele>758.493786</ele>
        <time>2021-11-16T13:23:15.590Z</time>
      </trkpt>
      <trkpt lat="39.40845" lon="31.88453">
        <ele>759.016987</ele>
        <time>2021-11-16T13:23:44.398Z</time>
      </trkpt>
      <trkpt lat="39.40871" lon="31.88375">
        <ele>759.353608</ele>
        <time>2021-11-16T13:24:00.569Z</time>
      </trkpt>
      <trkpt lat="39.4117" lon="31.87594">
        <ele>762.460507</ele>
        <time>2021-11-16T13:26:41.943Z</time>
      </trkpt>
      <trkpt lat="39.41208" lon="31.87506">
        <ele>762.933964</ele>
        <time>2021-11-16T13:27:01.614Z</time>
      </trkpt>
      <trkpt lat="39.41233" lon="31.87465">
        <ele>763.229607</ele>
        <time>2021-11-16T13:27:11.955Z</time>
      </trkpt>
      <trkpt lat="39.41279" lon="31.87411">
        <ele>763.715208</ele>
        <time>2021-11-16T13:27:27.932Z</time>
      </trkpt>
      <trkpt lat="39.41325" lon="31.8738">
        <ele>764.120739</ele>
        <time>2021-11-16T13:27:41.226Z</time>
      </trkpt>
      <trkpt lat="39.4177" lon="31.87144">
        <ele>766.94457</ele>
        <time>2021-11-16T13:29:39.559Z</time>
      </trkpt>
      <trkpt lat="39.41852" lon="31.8708">
        <ele>767.345833</ele>
        <time>2021-11-16T13:30:01.855Z</time>
      </trkpt>
      <trkpt lat="39.41871" lon="31.87048">
        <ele>767.564968</ele>
        <time>2021-11-16T13:30:09.258Z</time>
      </trkpt>
      <trkpt lat="39.4189" lon="31.87004">
        <ele>767.838657</ele>
        <time>2021-11-16T13:30:18.645Z</time>
      </trkpt>
      <trkpt lat="39.41899" lon="31.86968">
        <ele>768.044101</ele>
        <time>2021-11-16T13:30:25.861Z</time>
      </trkpt>
      <trkpt lat="39.41904" lon="31.86911">
        <ele>768.355574</ele>
        <time>2021-11-16T13:30:37.043Z</time>
      </trkpt>
      <trkpt lat="39.41915" lon="31.86638">
        <ele>770.810821</ele>
        <time>2021-11-16T13:31:34.985Z</time>
      </trkpt>
      <trkpt lat="39.41918" lon="31.8655">
        <ele>771.610203</ele>
        <time>2021-11-16T13:31:53.655Z</time>
      </trkpt>
      <trkpt lat="39.41934" lon="31.8642">
        <ele>772.804468</ele>
        <time>2021-11-16T13:32:20.956Z</time>
      </trkpt>
      <trkpt lat="39.41975" lon="31.8628">
        <ele>773.811797</ele>
        <time>2021-11-16T13:32:50.784Z</time>
      </trkpt>
      <trkpt lat="39.42011" lon="31.86209">
        <ele>774.353703</ele>
        <time>2021-11-16T13:33:07.297Z</time>
      </trkpt>
      <trkpt lat="39.42121" lon="31.86094">
        <ele>775.401229</ele>
        <time>2021-11-16T13:33:42.335Z</time>
      </trkpt>
      <trkpt lat="39.42142" lon="31.86065">
        <ele>775.625957</ele>
        <time>2021-11-16T13:33:50.089Z</time>
      </trkpt>
      <trkpt lat="39.42155" lon="31.86037">
        <ele>775.827979</ele>
        <time>2021-11-16T13:33:56.557Z</time>
      </trkpt>
      <trkpt lat="39.42174" lon="31.85972">
        <ele>776.455875</ele>
        <time>2021-11-16T13:34:10.603Z</time>
      </trkpt>
      <trkpt lat="39.42233" lon="31.8557">
        <ele>780.116688</ele>
        <time>2021-11-16T13:35:37.235Z</time>
      </trkpt>
      <trkpt lat="39.42246" lon="31.85509">
        <ele>780.189441</ele>
        <time>2021-11-16T13:35:49.414Z</time>
      </trkpt>
      <trkpt lat="39.42389" lon="31.84982">
        <ele>780.779288</ele>
        <time>2021-11-16T13:37:24.899Z</time>
      </trkpt>
      <trkpt lat="39.42396" lon="31.84929">
        <ele>780.82496</ele>
        <time>2021-11-16T13:37:34.636Z</time>
      </trkpt>
      <trkpt lat="39.42398" lon="31.84867">
        <ele>781.30458</ele>
        <time>2021-11-16T13:37:46.343Z</time>
      </trkpt>
      <trkpt lat="39.42391" lon="31.84805">
        <ele>781.824744</ele>
        <time>2021-11-16T13:37:58.670Z</time>
      </trkpt>
      <trkpt lat="39.42244" lon="31.84248">
        <ele>788.618605</ele>
        <time>2021-11-16T13:40:08.284Z</time>
      </trkpt>
      <trkpt lat="39.4224" lon="31.84191">
        <ele>789.476865</ele>
        <time>2021-11-16T13:40:21.721Z</time>
      </trkpt>
      <trkpt lat="39.42243" lon="31.84134">
        <ele>790.333586</ele>
        <time>2021-11-16T13:40:35.148Z</time>
      </trkpt>
      <trkpt lat="39.4226" lon="31.8401">
        <ele>792.170144</ele>
        <time>2021-11-16T13:41:04.831Z</time>
      </trkpt>
      <trkpt lat="39.42293" lon="31.83845">
        <ele>794.220122</ele>
        <time>2021-11-16T13:41:43.105Z</time>
      </trkpt>
      <trkpt lat="39.42336" lon="31.83644">
        <ele>795.693575</ele>
        <time>2021-11-16T13:42:24.889Z</time>
      </trkpt>
      <trkpt lat="39.42514" lon="31.83021">
        <ele>797.152306</ele>
        <time>2021-11-16T13:44:23.237Z</time>
      </trkpt>
      <trkpt lat="39.42587" lon="31.82765">
        <ele>797.892691</ele>
        <time>2021-11-16T13:45:12.951Z</time>
      </trkpt>
      <trkpt lat="39.42616" lon="31.82677">
        <ele>798.248297</ele>
        <time>2021-11-16T13:45:30.820Z</time>
      </trkpt>
      <trkpt lat="39.42799" lon="31.82299">
        <ele>800.602605</ele>
        <time>2021-11-16T13:46:56.740Z</time>
      </trkpt>
      <trkpt lat="39.42864" lon="31.82145">
        <ele>802.025203</ele>
        <time>2021-11-16T13:47:32.725Z</time>
      </trkpt>
      <trkpt lat="39.43318" lon="31.80945">
        <ele>815.37367</ele>
        <time>2021-11-16T13:52:17.480Z</time>
      </trkpt>
      <trkpt lat="39.43391" lon="31.80753">
        <ele>816.67966</ele>
        <time>2021-11-16T13:52:58.216Z</time>
      </trkpt>
      <trkpt lat="39.43417" lon="31.80683">
        <ele>817.029777</ele>
        <time>2021-11-16T13:53:12.636Z</time>
      </trkpt>
      <trkpt lat="39.43493" lon="31.80482">
        <ele>818.272848</ele>
        <time>2021-11-16T13:53:55.550Z</time>
      </trkpt>
      <trkpt lat="39.43574" lon="31.80269">
        <ele>820.27553</ele>
        <time>2021-11-16T13:54:44.166Z</time>
      </trkpt>
      <trkpt lat="39.43586" lon="31.80167">
        <ele>821.50111</ele>
        <time>2021-11-16T13:55:06.783Z</time>
      </trkpt>
      <trkpt lat="39.43581" lon="31.80104">
        <ele>822.419858</ele>
        <time>2021-11-16T13:55:21.237Z</time>
      </trkpt>
      <trkpt lat="39.43561" lon="31.80018">
        <ele>823.722785</ele>
        <time>2021-11-16T13:55:42.445Z</time>
      </trkpt>
      <trkpt lat="39.43473" lon="31.79728">
        <ele>828.902769</ele>
        <time>2021-11-16T13:56:57.702Z</time>
      </trkpt>
      <trkpt lat="39.43445" lon="31.79594">
        <ele>830.895414</ele>
        <time>2021-11-16T13:57:29.502Z</time>
      </trkpt>
      <trkpt lat="39.43439" lon="31.79511">
        <ele>831.928955</ele>
        <time>2021-11-16T13:57:47.759Z</time>
      </trkpt>
      <trkpt lat="39.43462" lon="31.79295">
        <ele>834.138125</ele>
        <time>2021-11-16T13:58:33.719Z</time>
      </trkpt>
      <trkpt lat="39.43484" lon="31.7915">
        <ele>835.472405</ele>
        <time>2021-11-16T13:59:04.113Z</time>
      </trkpt>
      <trkpt lat="39.43529" lon="31.79001">
        <ele>837.197243</ele>
        <time>2021-11-16T13:59:37.702Z</time>
      </trkpt>
      <trkpt lat="39.4384" lon="31.78284">
        <ele>846.826107</ele>
        <time>2021-11-16T14:02:39.315Z</time>
      </trkpt>
      <trkpt lat="39.43857" lon="31.78205">
        <ele>847.173989</ele>
        <time>2021-11-16T14:02:55.539Z</time>
      </trkpt>
      <trkpt lat="39.43859" lon="31.78142">
        <ele>847.384696</ele>
        <time>2021-11-16T14:03:07.227Z</time>
      </trkpt>
      <trkpt lat="39.43848" lon="31.78058">
        <ele>847.669409</ele>
        <time>2021-11-16T14:03:21.921Z</time>
      </trkpt>
      <trkpt lat="39.43778" lon="31.77794">
        <ele>847.2857</ele>
        <time>2021-11-16T14:04:07.301Z</time>
      </trkpt>
      <trkpt lat="39.43764" lon="31.77703">
        <ele>847.455865</ele>
        <time>2021-11-16T14:04:23.302Z</time>
      </trkpt>
      <trkpt lat="39.43763" lon="31.77585">
        <ele>847.800567</ele>
        <time>2021-11-16T14:04:45.563Z</time>
      </trkpt>
      <trkpt lat="39.4377" lon="31.77502">
        <ele>848.822565</ele>
        <time>2021-11-16T14:05:02.506Z</time>
      </trkpt>
      <trkpt lat="39.44017" lon="31.76636">
        <ele>860.504806</ele>
        <time>2021-11-16T14:08:29.613Z</time>
      </trkpt>
      <trkpt lat="39.44056" lon="31.76516">
        <ele>862.361185</ele>
        <time>2021-11-16T14:08:59.922Z</time>
      </trkpt>
      <trkpt lat="39.44312" lon="31.759">
        <ele>871.869692</ele>
        <time>2021-11-16T14:11:39.129Z</time>
      </trkpt>
      <trkpt lat="39.44335" lon="31.75825">
        <ele>872.513964</ele>
        <time>2021-11-16T14:11:55.230Z</time>
      </trkpt>
      <trkpt lat="39.44351" lon="31.75759">
        <ele>872.993295</ele>
        <time>2021-11-16T14:12:08.711Z</time>
      </trkpt>
      <trkpt lat="39.44362" lon="31.75674">
        <ele>873.590488</ele>
        <time>2021-11-16T14:12:25.133Z</time>
      </trkpt>
      <trkpt lat="39.44376" lon="31.75186">
        <ele>877.564323</ele>
        <time>2021-11-16T14:14:04.684Z</time>
      </trkpt>
      <trkpt lat="39.44391" lon="31.74846">
        <ele>882.047875</ele>
        <time>2021-11-16T14:15:20.740Z</time>
      </trkpt>
      <trkpt lat="39.44405" lon="31.7476">
        <ele>883.366718</ele>
        <time>2021-11-16T14:15:41.679Z</time>
      </trkpt>
      <trkpt lat="39.44426" lon="31.74691">
        <ele>884.541452</ele>
        <time>2021-11-16T14:15:59.538Z</time>
      </trkpt>
      <trkpt lat="39.44456" lon="31.74624">
        <ele>885.803401</ele>
        <time>2021-11-16T14:16:18.335Z</time>
      </trkpt>
      <trkpt lat="39.44558" lon="31.74439">
        <ele>889.192592</ele>
        <time>2021-11-16T14:17:11.324Z</time>
      </trkpt>
      <trkpt lat="39.44574" lon="31.74396">
        <ele>889.844994</ele>
        <time>2021-11-16T14:17:21.913Z</time>
      </trkpt>
      <trkpt lat="39.44645" lon="31.74103">
        <ele>893.645106</ele>
        <time>2021-11-16T14:18:28.763Z</time>
      </trkpt>
      <trkpt lat="39.44709" lon="31.73786">
        <ele>899.074595</ele>
        <time>2021-11-16T14:19:45.788Z</time>
      </trkpt>
      <trkpt lat="39.44746" lon="31.73657">
        <ele>901.798699</ele>
        <time>2021-11-16T14:20:21.480Z</time>
      </trkpt>
      <trkpt lat="39.44781" lon="31.7358">
        <ele>904.028391</ele>
        <time>2021-11-16T14:20:45.685Z</time>
      </trkpt>
      <trkpt lat="39.44819" lon="31.7351">
        <ele>906.163667</ele>
        <time>2021-11-16T14:21:09.210Z</time>
      </trkpt>
      <trkpt lat="39.44868" lon="31.73438">
        <ele>908.426834</ele>
        <time>2021-11-16T14:21:35.462Z</time>
      </trkpt>
      <trkpt lat="39.44918" lon="31.73335">
        <ele>911.115944</ele>
        <time>2021-11-16T14:22:07.427Z</time>
      </trkpt>
      <trkpt lat="39.44924" lon="31.733">
        <ele>911.908385</ele>
        <time>2021-11-16T14:22:16.489Z</time>
      </trkpt>
      <trkpt lat="39.44896" lon="31.732">
        <ele>913.607684</ele>
        <time>2021-11-16T14:22:42.235Z</time>
      </trkpt>
      <trkpt lat="39.44891" lon="31.73166">
        <ele>914.080344</ele>
        <time>2021-11-16T14:22:50.141Z</time>
      </trkpt>
      <trkpt lat="39.44891" lon="31.73136">
        <ele>914.490033</ele>
        <time>2021-11-16T14:22:56.775Z</time>
      </trkpt>
      <trkpt lat="39.44906" lon="31.73077">
        <ele>915.338301</ele>
        <time>2021-11-16T14:23:10.126Z</time>
      </trkpt>
      <trkpt lat="39.44977" lon="31.72859">
        <ele>917.985169</ele>
        <time>2021-11-16T14:23:59.787Z</time>
      </trkpt>
      <trkpt lat="39.45148" lon="31.72339">
        <ele>927.748789</ele>
        <time>2021-11-16T14:26:14.730Z</time>
      </trkpt>
      <trkpt lat="39.45182" lon="31.72265">
        <ele>929.800858</ele>
        <time>2021-11-16T14:26:37.942Z</time>
      </trkpt>
      <trkpt lat="39.45529" lon="31.71631">
        <ele>952.654533</ele>
        <time>2021-11-16T14:30:25.694Z</time>
      </trkpt>
      <trkpt lat="39.45819" lon="31.70948">
        <ele>971.074578</ele>
        <time>2021-11-16T14:33:50.278Z</time>
      </trkpt>
      <trkpt lat="39.45851" lon="31.70825">
        <ele>974.842714</ele>
        <time>2021-11-16T14:34:29.250Z</time>
      </trkpt>
      <trkpt lat="39.45862" lon="31.70747">
        <ele>977.327663</ele>
        <time>2021-11-16T14:34:53.846Z</time>
      </trkpt>
      <trkpt lat="39.45885" lon="31.7027">
        <ele>992.307501</ele>
        <time>2021-11-16T14:37:15.395Z</time>
      </trkpt>
      <trkpt lat="39.45897" lon="31.70155">
        <ele>995.896888</ele>
        <time>2021-11-16T14:37:50.723Z</time>
      </trkpt>
      <trkpt lat="39.45907" lon="31.70112">
        <ele>997.259402</ele>
        <time>2021-11-16T14:38:03.640Z</time>
      </trkpt>
      <trkpt lat="39.4592" lon="31.70084">
        <ele>997.869303</ele>
        <time>2021-11-16T14:38:12.729Z</time>
      </trkpt>
      <trkpt lat="39.45928" lon="31.70068">
        <ele>998.224074</ele>
        <time>2021-11-16T14:38:18.324Z</time>
      </trkpt>
      <trkpt lat="39.46061" lon="31.69855">
        <ele>1002.064937</ele>
        <time>2021-11-16T14:39:21.752Z</time>
      </trkpt>
      <trkpt lat="39.46143" lon="31.697">
        <ele>1003.201568</ele>
        <time>2021-11-16T14:39:52.695Z</time>
      </trkpt>
      <trkpt lat="39.46164" lon="31.69633">
        <ele>1003.792261</ele>
        <time>2021-11-16T14:40:05.399Z</time>
      </trkpt>
      <trkpt lat="39.46298" lon="31.69059">
        <ele>1013.208459</ele>
        <time>2021-11-16T14:42:31.303Z</time>
      </trkpt>
      <trkpt lat="39.46343" lon="31.68949">
        <ele>1014.391153</ele>
        <time>2021-11-16T14:42:59.272Z</time>
      </trkpt>
      <trkpt lat="39.47378" lon="31.67276">
        <ele>1018.450134</ele>
        <time>2021-11-16T14:49:20.274Z</time>
      </trkpt>
      <trkpt lat="39.4751" lon="31.67106">
        <ele>1019.359011</ele>
        <time>2021-11-16T14:50:06.188Z</time>
      </trkpt>
      <trkpt lat="39.47813" lon="31.66756">
        <ele>1020.132033</ele>
        <time>2021-11-16T14:51:39.297Z</time>
      </trkpt>
      <trkpt lat="39.47852" lon="31.66718">
        <ele>1020.118581</ele>
        <time>2021-11-16T14:51:50.082Z</time>
      </trkpt>
      <trkpt lat="39.481" lon="31.66518">
        <ele>1020.003256</ele>
        <time>2021-11-16T14:52:54.210Z</time>
      </trkpt>
      <trkpt lat="39.48311" lon="31.6636">
        <ele>1020.883354</ele>
        <time>2021-11-16T14:53:51.537Z</time>
      </trkpt>
      <trkpt lat="39.48342" lon="31.66324">
        <ele>1021.129434</ele>
        <time>2021-11-16T14:54:01.915Z</time>
      </trkpt>
      <trkpt lat="39.48362" lon="31.66287">
        <ele>1021.335521</ele>
        <time>2021-11-16T14:54:10.671Z</time>
      </trkpt>
      <trkpt lat="39.48385" lon="31.66204">
        <ele>1021.763789</ele>
        <time>2021-11-16T14:54:27.939Z</time>
      </trkpt>
      <trkpt lat="39.485" lon="31.65675">
        <ele>1024.309557</ele>
        <time>2021-11-16T14:56:13.545Z</time>
      </trkpt>
      <trkpt lat="39.48531" lon="31.65564">
        <ele>1024.538076</ele>
        <time>2021-11-16T14:56:34.280Z</time>
      </trkpt>
      <trkpt lat="39.48556" lon="31.65514">
        <ele>1024.136073</ele>
        <time>2021-11-16T14:56:43.935Z</time>
      </trkpt>
      <trkpt lat="39.48597" lon="31.65477">
        <ele>1023.699231</ele>
        <time>2021-11-16T14:56:53.912Z</time>
      </trkpt>
      <trkpt lat="39.48638" lon="31.65453">
        <ele>1023.305882</ele>
        <time>2021-11-16T14:57:02.552Z</time>
      </trkpt>
      <trkpt lat="39.48808" lon="31.65406">
        <ele>1020.08772</ele>
        <time>2021-11-16T14:57:33.366Z</time>
      </trkpt>
      <trkpt lat="39.48828" lon="31.65391">
        <ele>1019.61115</ele>
        <time>2021-11-16T14:57:37.263Z</time>
      </trkpt>
      <trkpt lat="39.48846" lon="31.65359">
        <ele>1018.845221</ele>
        <time>2021-11-16T14:57:42.379Z</time>
      </trkpt>
      <trkpt lat="39.48858" lon="31.65318">
        <ele>1017.873441</ele>
        <time>2021-11-16T14:57:47.995Z</time>
      </trkpt>
      <trkpt lat="39.48882" lon="31.6519">
        <ele>1014.954225</ele>
        <time>2021-11-16T14:58:04.642Z</time>
      </trkpt>
      <trkpt lat="39.48921" lon="31.65077">
        <ele>1013.178086</ele>
        <time>2021-11-16T14:58:20.540Z</time>
      </trkpt>
      <trkpt lat="39.48958" lon="31.65017">
        <ele>1012.319877</ele>
        <time>2021-11-16T14:58:31.453Z</time>
      </trkpt>
      <trkpt lat="39.48998" lon="31.64985">
        <ele>1011.639217</ele>
        <time>2021-11-16T14:58:41.293Z</time>
      </trkpt>
      <trkpt lat="39.48998" lon="31.64985">
        <ele>1011.639217</ele>
        <time>2021-11-16T14:58:41.359Z</time>
      </trkpt>
      <trkpt lat="39.48998" lon="31.64985">
        <ele>1011.639217</ele>
        <time>2021-11-16T14:58:41.961Z</time>
      </trkpt>
      <trkpt lat="39.49033" lon="31.64972">
        <ele>1012.444167</ele>
        <time>2021-11-16T14:58:51.259Z</time>
      </trkpt>
      <trkpt lat="39.49069" lon="31.64976">
        <ele>1013.4859</ele>
        <time>2021-11-16T14:59:02.026Z</time>
      </trkpt>
      <trkpt lat="39.49104" lon="31.64997">
        <ele>1014.59792</ele>
        <time>2021-11-16T14:59:15.086Z</time>
      </trkpt>
      <trkpt lat="39.49148" lon="31.65038">
        <ele>1016.160436</ele>
        <time>2021-11-16T14:59:36.361Z</time>
      </trkpt>
      <trkpt lat="39.49176" lon="31.65056">
        <ele>1017.322094</ele>
        <time>2021-11-16T14:59:49.704Z</time>
      </trkpt>
      <trkpt lat="39.49206" lon="31.65062">
        <ele>1018.913074</ele>
        <time>2021-11-16T15:00:02.976Z</time>
      </trkpt>
      <trkpt lat="39.49245" lon="31.65054">
        <ele>1020.982597</ele>
        <time>2021-11-16T15:00:20.565Z</time>
      </trkpt>
      <trkpt lat="39.49275" lon="31.65035">
        <ele>1022.73271</ele>
        <time>2021-11-16T15:00:35.542Z</time>
      </trkpt>
      <trkpt lat="39.49289" lon="31.65007">
        <ele>1024.082148</ele>
        <time>2021-11-16T15:00:47.065Z</time>
      </trkpt>
      <trkpt lat="39.49296" lon="31.64963">
        <ele>1025.899221</ele>
        <time>2021-11-16T15:01:02.317Z</time>
      </trkpt>
      <trkpt lat="39.49288" lon="31.64668">
        <ele>1035.51801</ele>
        <time>2021-11-16T15:02:32.437Z</time>
      </trkpt>
      <trkpt lat="39.49274" lon="31.6458">
        <ele>1037.818223</ele>
        <time>2021-11-16T15:02:56.834Z</time>
      </trkpt>
      <trkpt lat="39.49256" lon="31.64529">
        <ele>1039.253918</ele>
        <time>2021-11-16T15:03:11.520Z</time>
      </trkpt>
      <trkpt lat="39.49212" lon="31.64437">
        <ele>1041.240358</ele>
        <time>2021-11-16T15:03:38.384Z</time>
      </trkpt>
      <trkpt lat="39.49194" lon="31.64373">
        <ele>1042.285743</ele>
        <time>2021-11-16T15:03:54.367Z</time>
      </trkpt>
      <trkpt lat="39.4919" lon="31.64316">
        <ele>1043.164116</ele>
        <time>2021-11-16T15:04:07.240Z</time>
      </trkpt>
      <trkpt lat="39.49192" lon="31.64274">
        <ele>1043.724007</ele>
        <time>2021-11-16T15:04:16.457Z</time>
      </trkpt>
      <trkpt lat="39.49344" lon="31.63712">
        <ele>1048.025259</ele>
        <time>2021-11-16T15:06:15.469Z</time>
      </trkpt>
      <trkpt lat="39.49373" lon="31.63621">
        <ele>1048.670358</ele>
        <time>2021-11-16T15:06:34.226Z</time>
      </trkpt>
      <trkpt lat="39.49573" lon="31.63147">
        <ele>1054.113586</ele>
        <time>2021-11-16T15:08:23.013Z</time>
      </trkpt>
      <trkpt lat="39.49623" lon="31.63004">
        <ele>1058.215023</ele>
        <time>2021-11-16T15:09:09.433Z</time>
      </trkpt>
      <trkpt lat="39.49699" lon="31.62742">
        <ele>1072.290248</ele>
        <time>2021-11-16T15:10:58.967Z</time>
      </trkpt>
      <trkpt lat="39.49708" lon="31.62686">
        <ele>1074.826959</ele>
        <time>2021-11-16T15:11:21.559Z</time>
      </trkpt>
      <trkpt lat="39.49711" lon="31.62604">
        <ele>1078.467477</ele>
        <time>2021-11-16T15:11:50.251Z</time>
      </trkpt>
      <trkpt lat="39.49707" lon="31.62524">
        <ele>1080.503692</ele>
        <time>2021-11-16T15:12:14.102Z</time>
      </trkpt>
      <trkpt lat="39.49665" lon="31.62207">
        <ele>1078.21267</ele>
        <time>2021-11-16T15:13:03.552Z</time>
      </trkpt>
      <trkpt lat="39.49654" lon="31.62135">
        <ele>1076.520894</ele>
        <time>2021-11-16T15:13:12.138Z</time>
      </trkpt>
      <trkpt lat="39.49621" lon="31.62027">
        <ele>1071.140523</ele>
        <time>2021-11-16T15:13:25.170Z</time>
      </trkpt>
      <trkpt lat="39.49616" lon="31.61998">
        <ele>1069.473669</ele>
        <time>2021-11-16T15:13:28.409Z</time>
      </trkpt>
      <trkpt lat="39.49616" lon="31.61966">
        <ele>1067.678641</ele>
        <time>2021-11-16T15:13:31.881Z</time>
      </trkpt>
      <trkpt lat="39.49637" lon="31.61896">
        <ele>1063.465723</ele>
        <time>2021-11-16T15:13:39.991Z</time>
      </trkpt>
      <trkpt lat="39.49638" lon="31.61865">
        <ele>1061.677184</ele>
        <time>2021-11-16T15:13:43.346Z</time>
      </trkpt>
      <trkpt lat="39.4963" lon="31.61838">
        <ele>1059.970815</ele>
        <time>2021-11-16T15:13:46.479Z</time>
      </trkpt>
      <trkpt lat="39.49583" lon="31.61733">
        <ele>1052.809095</ele>
        <time>2021-11-16T15:13:59.698Z</time>
      </trkpt>
      <trkpt lat="39.49583" lon="31.617">
        <ele>1050.86211</ele>
        <time>2021-11-16T15:14:03.304Z</time>
      </trkpt>
      <trkpt lat="39.49593" lon="31.61662">
        <ele>1048.537517</ele>
        <time>2021-11-16T15:14:07.698Z</time>
      </trkpt>
      <trkpt lat="39.49647" lon="31.61575">
        <ele>1042.661914</ele>
        <time>2021-11-16T15:14:20.034Z</time>
      </trkpt>
      <trkpt lat="39.49652" lon="31.61518">
        <ele>1039.643002</ele>
        <time>2021-11-16T15:14:26.453Z</time>
      </trkpt>
      <trkpt lat="39.49641" lon="31.6149">
        <ele>1037.989553</ele>
        <time>2021-11-16T15:14:29.971Z</time>
      </trkpt>
      <trkpt lat="39.49627" lon="31.6147">
        <ele>1036.571603</ele>
        <time>2021-11-16T15:14:32.994Z</time>
      </trkpt>
      <trkpt lat="39.49541" lon="31.61401">
        <ele>1029.986225</ele>
        <time>2021-11-16T15:14:47.595Z</time>
      </trkpt>
      <trkpt lat="39.49533" lon="31.61385">
        <ele>1029.028385</ele>
        <time>2021-11-16T15:14:49.715Z</time>
      </trkpt>
      <trkpt lat="39.49526" lon="31.61341">
        <ele>1026.771304</ele>
        <time>2021-11-16T15:14:54.722Z</time>
      </trkpt>
      <trkpt lat="39.49533" lon="31.61313">
        <ele>1025.292582</ele>
        <time>2021-11-16T15:14:58.013Z</time>
      </trkpt>
      <trkpt lat="39.49584" lon="31.61227">
        <ele>1020.848589</ele>
        <time>2021-11-16T15:15:10.252Z</time>
      </trkpt>
      <trkpt lat="39.4959" lon="31.61204">
        <ele>1019.870055</ele>
        <time>2021-11-16T15:15:13.047Z</time>
      </trkpt>
      <trkpt lat="39.4959" lon="31.61178">
        <ele>1018.822146</ele>
        <time>2021-11-16T15:15:16.055Z</time>
      </trkpt>
      <trkpt lat="39.49581" lon="31.61159">
        <ele>1017.923601</ele>
        <time>2021-11-16T15:15:18.683Z</time>
      </trkpt>
      <trkpt lat="39.49566" lon="31.61144">
        <ele>1016.934012</ele>
        <time>2021-11-16T15:15:21.589Z</time>
      </trkpt>
      <trkpt lat="39.49506" lon="31.61118">
        <ele>1014.3896</ele>
        <time>2021-11-16T15:15:31.677Z</time>
      </trkpt>
      <trkpt lat="39.49489" lon="31.61101">
        <ele>1013.71618</ele>
        <time>2021-11-16T15:15:35.251Z</time>
      </trkpt>
      <trkpt lat="39.4948" lon="31.61078">
        <ele>1013.092092</ele>
        <time>2021-11-16T15:15:38.566Z</time>
      </trkpt>
      <trkpt lat="39.4948" lon="31.61056">
        <ele>1012.559677</ele>
        <time>2021-11-16T15:15:41.447Z</time>
      </trkpt>
      <trkpt lat="39.4949" lon="31.61029">
        <ele>1011.834896</ele>
        <time>2021-11-16T15:15:45.307Z</time>
      </trkpt>
      <trkpt lat="39.49515" lon="31.60988">
        <ele>1010.570298</ele>
        <time>2021-11-16T15:15:52.039Z</time>
      </trkpt>
      <trkpt lat="39.49524" lon="31.6096">
        <ele>1009.820002</ele>
        <time>2021-11-16T15:15:55.877Z</time>
      </trkpt>
      <trkpt lat="39.49526" lon="31.60933">
        <ele>1008.968408</ele>
        <time>2021-11-16T15:15:59.315Z</time>
      </trkpt>
      <trkpt lat="39.49522" lon="31.60895">
        <ele>1007.764304</ele>
        <time>2021-11-16T15:16:04.087Z</time>
      </trkpt>
      <trkpt lat="39.49433" lon="31.60596">
        <ele>997.710571</ele>
        <time>2021-11-16T15:16:42.137Z</time>
      </trkpt>
      <trkpt lat="39.49277" lon="31.60292">
        <ele>988.757449</ele>
        <time>2021-11-16T15:17:27.942Z</time>
      </trkpt>
      <trkpt lat="39.49265" lon="31.60233">
        <ele>987.947471</ele>
        <time>2021-11-16T15:17:36.529Z</time>
      </trkpt>
      <trkpt lat="39.49276" lon="31.60187">
        <ele>987.299155</ele>
        <time>2021-11-16T15:17:43.438Z</time>
      </trkpt>
      <trkpt lat="39.49302" lon="31.60059">
        <ele>986.447825</ele>
        <time>2021-11-16T15:18:03.496Z</time>
      </trkpt>
      <trkpt lat="39.49277" lon="31.60058">
        <ele>986.486247</ele>
        <time>2021-11-16T15:18:08.735Z</time>
      </trkpt>
      <trkpt lat="39.4918" lon="31.60063">
        <ele>986.631252</ele>
        <time>2021-11-16T15:18:32.997Z</time>
      </trkpt>
      <trkpt lat="39.49112" lon="31.60061">
        <ele>987.748221</ele>
        <time>2021-11-16T15:18:50.694Z</time>
      </trkpt>
      <trkpt lat="39.49008" lon="31.60023">
        <ele>989.76662</ele>
        <time>2021-11-16T15:19:23.541Z</time>
      </trkpt>
      <trkpt lat="39.48611" lon="31.599">
        <ele>1002.409973</ele>
        <time>2021-11-16T15:21:48.003Z</time>
      </trkpt>
      <trkpt lat="39.48507" lon="31.59855">
        <ele>1005.220158</ele>
        <time>2021-11-16T15:22:23.818Z</time>
      </trkpt>
      <trkpt lat="39.48405" lon="31.59803">
        <ele>1007.239288</ele>
        <time>2021-11-16T15:22:55.897Z</time>
      </trkpt>
      <trkpt lat="39.48304" lon="31.5974">
        <ele>1008.955963</ele>
        <time>2021-11-16T15:23:25.935Z</time>
      </trkpt>
      <trkpt lat="39.48201" lon="31.59666">
        <ele>1011.397559</ele>
        <time>2021-11-16T15:23:59.753Z</time>
      </trkpt>
      <trkpt lat="39.47621" lon="31.59219">
        <ele>1031.616895</ele>
        <time>2021-11-16T15:27:57.501Z</time>
      </trkpt>
      <trkpt lat="39.47217" lon="31.58899">
        <ele>1040.470021</ele>
        <time>2021-11-16T15:30:14.439Z</time>
      </trkpt>
      <trkpt lat="39.47114" lon="31.58803">
        <ele>1042.5545</ele>
        <time>2021-11-16T15:30:49.952Z</time>
      </trkpt>
      <trkpt lat="39.47024" lon="31.58695">
        <ele>1045.548308</ele>
        <time>2021-11-16T15:31:27.015Z</time>
      </trkpt>
      <trkpt lat="39.46671" lon="31.58202">
        <ele>1060.974967</ele>
        <time>2021-11-16T15:34:26.351Z</time>
      </trkpt>
      <trkpt lat="39.46602" lon="31.58124">
        <ele>1064.044929</ele>
        <time>2021-11-16T15:34:59.513Z</time>
      </trkpt>
      <trkpt lat="39.46535" lon="31.58067">
        <ele>1066.661022</ele>
        <time>2021-11-16T15:35:28.700Z</time>
      </trkpt>
      <trkpt lat="39.46486" lon="31.58034">
        <ele>1068.469128</ele>
        <time>2021-11-16T15:35:49.075Z</time>
      </trkpt>
      <trkpt lat="39.46264" lon="31.57899">
        <ele>1075.12808</ele>
        <time>2021-11-16T15:37:10.812Z</time>
      </trkpt>
      <trkpt lat="39.46068" lon="31.57782">
        <ele>1077.811197</ele>
        <time>2021-11-16T15:38:06.095Z</time>
      </trkpt>
      <trkpt lat="39.45878" lon="31.57665">
        <ele>1081.99258</ele>
        <time>2021-11-16T15:39:09.856Z</time>
      </trkpt>
      <trkpt lat="39.45541" lon="31.57459">
        <ele>1091.602886</ele>
        <time>2021-11-16T15:41:13.564Z</time>
      </trkpt>
      <trkpt lat="39.45521" lon="31.57442">
        <ele>1092.171452</ele>
        <time>2021-11-16T15:41:21.294Z</time>
      </trkpt>
      <trkpt lat="39.4549" lon="31.57414">
        <ele>1093.049118</ele>
        <time>2021-11-16T15:41:32.887Z</time>
      </trkpt>
      <trkpt lat="39.45371" lon="31.57286">
        <ele>1095.891884</ele>
        <time>2021-11-16T15:42:18.450Z</time>
      </trkpt>
      <trkpt lat="39.45361" lon="31.57279">
        <ele>1096.077882</ele>
        <time>2021-11-16T15:42:21.808Z</time>
      </trkpt>
      <trkpt lat="39.45338" lon="31.57268">
        <ele>1096.485856</ele>
        <time>2021-11-16T15:42:28.424Z</time>
      </trkpt>
      <trkpt lat="39.45199" lon="31.57237">
        <ele>1098.696318</ele>
        <time>2021-11-16T15:43:07.970Z</time>
      </trkpt>
      <trkpt lat="39.45137" lon="31.5721">
        <ele>1099.7033</ele>
        <time>2021-11-16T15:43:26.571Z</time>
      </trkpt>
      <trkpt lat="39.45106" lon="31.57199">
        <ele>1100.269423</ele>
        <time>2021-11-16T15:43:36.086Z</time>
      </trkpt>
      <trkpt lat="39.44995" lon="31.57132">
        <ele>1102.471066</ele>
        <time>2021-11-16T15:44:13.237Z</time>
      </trkpt>
      <trkpt lat="39.44891" lon="31.57068">
        <ele>1102.635039</ele>
        <time>2021-11-16T15:44:44.755Z</time>
      </trkpt>
      <trkpt lat="39.44139" lon="31.56615">
        <ele>1098.02808</ele>
        <time>2021-11-16T15:47:30.238Z</time>
      </trkpt>
      <trkpt lat="39.44086" lon="31.56578">
        <ele>1097.266482</ele>
        <time>2021-11-16T15:47:41.619Z</time>
      </trkpt>
      <trkpt lat="39.44021" lon="31.56524">
        <ele>1096.300472</ele>
        <time>2021-11-16T15:47:55.838Z</time>
      </trkpt>
      <trkpt lat="39.43969" lon="31.56472">
        <ele>1095.341444</ele>
        <time>2021-11-16T15:48:07.926Z</time>
      </trkpt>
      <trkpt lat="39.43968" lon="31.56422">
        <ele>1094.712695</ele>
        <time>2021-11-16T15:48:17.669Z</time>
      </trkpt>
      <trkpt lat="39.43925" lon="31.5637">
        <ele>1093.766184</ele>
        <time>2021-11-16T15:48:32.037Z</time>
      </trkpt>
      <trkpt lat="39.4389" lon="31.56313">
        <ele>1092.954892</ele>
        <time>2021-11-16T15:48:45.854Z</time>
      </trkpt>
      <trkpt lat="39.43872" lon="31.563">
        <ele>1092.783314</ele>
        <time>2021-11-16T15:48:51.039Z</time>
      </trkpt>
      <trkpt lat="39.43832" lon="31.56285">
        <ele>1092.432362</ele>
        <time>2021-11-16T15:49:01.713Z</time>
      </trkpt>
      <trkpt lat="39.438" lon="31.56224">
        <ele>1091.952202</ele>
        <time>2021-11-16T15:49:12.966Z</time>
      </trkpt>
      <trkpt lat="39.43774" lon="31.56169">
        <ele>1091.543117</ele>
        <time>2021-11-16T15:49:23.496Z</time>
      </trkpt>
      <trkpt lat="39.43742" lon="31.56091">
        <ele>1091.70461</ele>
        <time>2021-11-16T15:49:39.444Z</time>
      </trkpt>
      <trkpt lat="39.43755" lon="31.56041">
        <ele>1091.80054</ele>
        <time>2021-11-16T15:49:51.916Z</time>
      </trkpt>
      <trkpt lat="39.43711" lon="31.55935">
        <ele>1092.044847</ele>
        <time>2021-11-16T15:50:20.705Z</time>
      </trkpt>
      <trkpt lat="39.43712" lon="31.55915">
        <ele>1092.099309</ele>
        <time>2021-11-16T15:50:25.407Z</time>
      </trkpt>
      <trkpt lat="39.43655" lon="31.55828">
        <ele>1092.397867</ele>
        <time>2021-11-16T15:50:51.680Z</time>
      </trkpt>
      <trkpt lat="39.43561" lon="31.55574">
        <ele>1093.690711</ele>
        <time>2021-11-16T15:51:59.665Z</time>
      </trkpt>
      <trkpt lat="39.43552" lon="31.55511">
        <ele>1094.499395</ele>
        <time>2021-11-16T15:52:17.016Z</time>
      </trkpt>
      <trkpt lat="39.43554" lon="31.55477">
        <ele>1095.056415</ele>
        <time>2021-11-16T15:52:26.560Z</time>
      </trkpt>
      <trkpt lat="39.43583" lon="31.55301">
        <ele>1098.149782</ele>
        <time>2021-11-16T15:53:20.875Z</time>
      </trkpt>
      <trkpt lat="39.43577" lon="31.55273">
        <ele>1098.860165</ele>
        <time>2021-11-16T15:53:30.041Z</time>
      </trkpt>
      <trkpt lat="39.43563" lon="31.55259">
        <ele>1099.394617</ele>
        <time>2021-11-16T15:53:37.517Z</time>
      </trkpt>
      <trkpt lat="39.43547" lon="31.55263">
        <ele>1099.913257</ele>
        <time>2021-11-16T15:53:44.015Z</time>
      </trkpt>
      <trkpt lat="39.43561" lon="31.55249">
        <ele>1100.463162</ele>
        <time>2021-11-16T15:53:50.821Z</time>
      </trkpt>
      <trkpt lat="39.43578" lon="31.55245">
        <ele>1100.977909</ele>
        <time>2021-11-16T15:53:55.900Z</time>
      </trkpt>
      <trkpt lat="39.43579" lon="31.55246">
        <ele>1101.037369</ele>
        <time>2021-11-16T15:53:56.790Z</time>
      </trkpt>
      <trkpt lat="39.43584" lon="31.5525">
        <ele>1101.211865</ele>
        <time>2021-11-16T15:53:59.611Z</time>
      </trkpt>
      <trkpt lat="39.43601" lon="31.55285">
        <ele>1102.192048</ele>
        <time>2021-11-16T15:54:10.261Z</time>
      </trkpt>
      <trkpt lat="39.43618" lon="31.55299">
        <ele>1102.794298</ele>
        <time>2021-11-16T15:54:17.312Z</time>
      </trkpt>
      <trkpt lat="39.43685" lon="31.55302">
        <ele>1105.040698</ele>
        <time>2021-11-16T15:54:41.869Z</time>
      </trkpt>
      <trkpt lat="39.4371" lon="31.55289">
        <ele>1105.94402</ele>
        <time>2021-11-16T15:54:51.941Z</time>
      </trkpt>
      <trkpt lat="39.43729" lon="31.5526">
        <ele>1106.929974</ele>
        <time>2021-11-16T15:55:01.839Z</time>
      </trkpt>
      <trkpt lat="39.43765" lon="31.55132">
        <ele>1110.810075</ele>
        <time>2021-11-16T15:55:39.143Z</time>
      </trkpt>
      <trkpt lat="39.43769" lon="31.55083">
        <ele>1112.402484</ele>
        <time>2021-11-16T15:55:53.494Z</time>
      </trkpt>
      <trkpt lat="39.43767" lon="31.54985">
        <ele>1115.617567</ele>
        <time>2021-11-16T15:56:24.224Z</time>
      </trkpt>
      <trkpt lat="39.43773" lon="31.54945">
        <ele>1116.923364</ele>
        <time>2021-11-16T15:56:37.427Z</time>
      </trkpt>
      <trkpt lat="39.43817" lon="31.54854">
        <ele>1119.950215</ele>
        <time>2021-11-16T15:57:13.403Z</time>
      </trkpt>
      <trkpt lat="39.43834" lon="31.54842">
        <ele>1120.655668</ele>
        <time>2021-11-16T15:57:20.084Z</time>
      </trkpt>
      <trkpt lat="39.43912" lon="31.54812">
        <ele>1123.223066</ele>
        <time>2021-11-16T15:57:46.808Z</time>
      </trkpt>
      <trkpt lat="39.43917" lon="31.54808">
        <ele>1123.155789</ele>
        <time>2021-11-16T15:57:49.269Z</time>
      </trkpt>
      <trkpt lat="39.43966" lon="31.54765">
        <ele>1122.482482</ele>
        <time>2021-11-16T15:58:01.418Z</time>
      </trkpt>
      <trkpt lat="39.44008" lon="31.54723">
        <ele>1121.880047</ele>
        <time>2021-11-16T15:58:11.319Z</time>
      </trkpt>
      <trkpt lat="39.4402" lon="31.54696">
        <ele>1121.612308</ele>
        <time>2021-11-16T15:58:15.141Z</time>
      </trkpt>
      <trkpt lat="39.44023" lon="31.54649">
        <ele>1120.991994</ele>
        <time>2021-11-16T15:58:21.131Z</time>
      </trkpt>
      <trkpt lat="39.44064" lon="31.5449">
        <ele>1115.724017</ele>
        <time>2021-11-16T15:58:41.283Z</time>
      </trkpt>
      <trkpt lat="39.44079" lon="31.54446">
        <ele>1114.241024</ele>
        <time>2021-11-16T15:58:46.924Z</time>
      </trkpt>
      <trkpt lat="39.44096" lon="31.54414">
        <ele>1113.047697</ele>
        <time>2021-11-16T15:58:51.616Z</time>
      </trkpt>
      <trkpt lat="39.44097" lon="31.54398">
        <ele>1112.557936</ele>
        <time>2021-11-16T15:58:53.546Z</time>
      </trkpt>
      <trkpt lat="39.44091" lon="31.5438">
        <ele>1111.980424</ele>
        <time>2021-11-16T15:58:55.821Z</time>
      </trkpt>
      <trkpt lat="39.44059" lon="31.54347">
        <ele>1110.372833</ele>
        <time>2021-11-16T15:59:02.181Z</time>
      </trkpt>
      <trkpt lat="39.44017" lon="31.54289">
        <ele>1107.971378</ele>
        <time>2021-11-16T15:59:11.797Z</time>
      </trkpt>
      <trkpt lat="39.43988" lon="31.5427">
        <ele>1106.849265</ele>
        <time>2021-11-16T15:59:17.107Z</time>
      </trkpt>
      <trkpt lat="39.4397" lon="31.54252">
        <ele>1106.562992</ele>
        <time>2021-11-16T15:59:20.907Z</time>
      </trkpt>
      <trkpt lat="39.43957" lon="31.54226">
        <ele>1106.265894</ele>
        <time>2021-11-16T15:59:25.136Z</time>
      </trkpt>
      <trkpt lat="39.43953" lon="31.54201">
        <ele>1106.015663</ele>
        <time>2021-11-16T15:59:29.378Z</time>
      </trkpt>
      <trkpt lat="39.43965" lon="31.54173">
        <ele>1105.709628</ele>
        <time>2021-11-16T15:59:34.150Z</time>
      </trkpt>
      <trkpt lat="39.44005" lon="31.54106">
        <ele>1104.889963</ele>
        <time>2021-11-16T15:59:47.656Z</time>
      </trkpt>
      <trkpt lat="39.4403" lon="31.5409">
        <ele>1104.572612</ele>
        <time>2021-11-16T15:59:53.516Z</time>
      </trkpt>
      <trkpt lat="39.44053" lon="31.54085">
        <ele>1104.351886</ele>
        <time>2021-11-16T15:59:59.096Z</time>
      </trkpt>
      <trkpt lat="39.44074" lon="31.54082">
        <ele>1104.159817</ele>
        <time>2021-11-16T16:00:02.952Z</time>
      </trkpt>
      <trkpt lat="39.44162" lon="31.5405">
        <ele>1103.301188</ele>
        <time>2021-11-16T16:00:20.985Z</time>
      </trkpt>
      <trkpt lat="39.44197" lon="31.5405">
        <ele>1102.962041</ele>
        <time>2021-11-16T16:00:27.599Z</time>
      </trkpt>
      <trkpt lat="39.44225" lon="31.54024">
        <ele>1102.464316</ele>
        <time>2021-11-16T16:00:33.414Z</time>
      </trkpt>
      <trkpt lat="39.44249" lon="31.53968">
        <ele>1101.758427</ele>
        <time>2021-11-16T16:00:42.019Z</time>
      </trkpt>
      <trkpt lat="39.44268" lon="31.53948">
        <ele>1101.410211</ele>
        <time>2021-11-16T16:00:46.409Z</time>
      </trkpt>
      <trkpt lat="39.44303" lon="31.53934">
        <ele>1100.882607</ele>
        <time>2021-11-16T16:00:53.366Z</time>
      </trkpt>
      <trkpt lat="39.44339" lon="31.53934">
        <ele>1100.410872</ele>
        <time>2021-11-16T16:01:00.505Z</time>
      </trkpt>
      <trkpt lat="39.44446" lon="31.53973">
        <ele>1100.437657</ele>
        <time>2021-11-16T16:01:25.939Z</time>
      </trkpt>
      <trkpt lat="39.44567" lon="31.54001">
        <ele>1100.192029</ele>
        <time>2021-11-16T16:01:54.460Z</time>
      </trkpt>
      <trkpt lat="39.44577" lon="31.54001">
        <ele>1100.145197</ele>
        <time>2021-11-16T16:01:56.556Z</time>
      </trkpt>
      <trkpt lat="39.44624" lon="31.54002">
        <ele>1099.926793</ele>
        <time>2021-11-16T16:02:06.804Z</time>
      </trkpt>
      <trkpt lat="39.4473" lon="31.53958">
        <ele>1098.392572</ele>
        <time>2021-11-16T16:02:27.727Z</time>
      </trkpt>
      <trkpt lat="39.44774" lon="31.53959">
        <ele>1097.182512</ele>
        <time>2021-11-16T16:02:35.141Z</time>
      </trkpt>
      <trkpt lat="39.4478" lon="31.53956">
        <ele>1096.994002</ele>
        <time>2021-11-16T16:02:36.276Z</time>
      </trkpt>
      <trkpt lat="39.44788" lon="31.53951">
        <ele>1096.770139</ele>
        <time>2021-11-16T16:02:37.613Z</time>
      </trkpt>
      <trkpt lat="39.44795" lon="31.53941">
        <ele>1096.470366</ele>
        <time>2021-11-16T16:02:39.384Z</time>
      </trkpt>
      <trkpt lat="39.44803" lon="31.53929">
        <ele>1096.141935</ele>
        <time>2021-11-16T16:02:41.305Z</time>
      </trkpt>
      <trkpt lat="39.44819" lon="31.53899">
        <ele>1095.347845</ele>
        <time>2021-11-16T16:02:45.937Z</time>
      </trkpt>
      <trkpt lat="39.44828" lon="31.53886">
        <ele>1094.982735</ele>
        <time>2021-11-16T16:02:48.052Z</time>
      </trkpt>
      <trkpt lat="39.44819" lon="31.53825">
        <ele>1092.76327</ele>
        <time>2021-11-16T16:02:55.452Z</time>
      </trkpt>
      <trkpt lat="39.44817" lon="31.5381">
        <ele>1092.148709</ele>
        <time>2021-11-16T16:02:57.276Z</time>
      </trkpt>
      <trkpt lat="39.44815" lon="31.53797">
        <ele>1091.599648</ele>
        <time>2021-11-16T16:02:58.867Z</time>
      </trkpt>
      <trkpt lat="39.44805" lon="31.53741">
        <ele>1089.278877</ele>
        <time>2021-11-16T16:03:05.461Z</time>
      </trkpt>
      <trkpt lat="39.44778" lon="31.53668">
        <ele>1085.994626</ele>
        <time>2021-11-16T16:03:14.680Z</time>
      </trkpt>
      <trkpt lat="39.44774" lon="31.5366">
        <ele>1085.602804</ele>
        <time>2021-11-16T16:03:15.643Z</time>
      </trkpt>
      <trkpt lat="39.44758" lon="31.53634">
        <ele>1084.205962</ele>
        <time>2021-11-16T16:03:19.669Z</time>
      </trkpt>
      <trkpt lat="39.4475" lon="31.5362">
        <ele>1083.459474</ele>
        <time>2021-11-16T16:03:21.497Z</time>
      </trkpt>
      <trkpt lat="39.44742" lon="31.53615">
        <ele>1082.96635</ele>
        <time>2021-11-16T16:03:22.955Z</time>
      </trkpt>
      <trkpt lat="39.44693" lon="31.53586">
        <ele>1079.96517</ele>
        <time>2021-11-16T16:03:31.128Z</time>
      </trkpt>
      <trkpt lat="39.44693" lon="31.53586">
        <ele>1079.96517</ele>
        <time>2021-11-16T16:03:31.202Z</time>
      </trkpt>
      <trkpt lat="39.44505" lon="31.53473">
        <ele>1069.953763</ele>
        <time>2021-11-16T16:04:02.919Z</time>
      </trkpt>
      <trkpt lat="39.44468" lon="31.53452">
        <ele>1068.232241</ele>
        <time>2021-11-16T16:04:09.303Z</time>
      </trkpt>
      <trkpt lat="39.44502" lon="31.53359">
        <ele>1065.653277</ele>
        <time>2021-11-16T16:04:22.476Z</time>
      </trkpt>
      <trkpt lat="39.44531" lon="31.53274">
        <ele>1063.515832</ele>
        <time>2021-11-16T16:04:34.710Z</time>
      </trkpt>
      <trkpt lat="39.44563" lon="31.53177">
        <ele>1062.063116</ele>
        <time>2021-11-16T16:04:49.736Z</time>
      </trkpt>
      <trkpt lat="39.44564" lon="31.53172">
        <ele>1062.057582</ele>
        <time>2021-11-16T16:04:50.412Z</time>
      </trkpt>
      <trkpt lat="39.44589" lon="31.53084">
        <ele>1061.944069</ele>
        <time>2021-11-16T16:05:06.668Z</time>
      </trkpt>
      <trkpt lat="39.4461" lon="31.53039">
        <ele>1061.880883</ele>
        <time>2021-11-16T16:05:17.866Z</time>
      </trkpt>
      <trkpt lat="39.44644" lon="31.52966">
        <ele>1061.763408</ele>
        <time>2021-11-16T16:05:37.184Z</time>
      </trkpt>
      <trkpt lat="39.44675" lon="31.529">
        <ele>1061.648297</ele>
        <time>2021-11-16T16:05:52.338Z</time>
      </trkpt>
      <trkpt lat="39.447" lon="31.52847">
        <ele>1061.555027</ele>
        <time>2021-11-16T16:06:02.563Z</time>
      </trkpt>
      <trkpt lat="39.44705" lon="31.52836">
        <ele>1061.535838</ele>
        <time>2021-11-16T16:06:04.486Z</time>
      </trkpt>
      <trkpt lat="39.44714" lon="31.52816">
        <ele>1061.499803</ele>
        <time>2021-11-16T16:06:07.984Z</time>
      </trkpt>
      <trkpt lat="39.44742" lon="31.52757">
        <ele>1059.991158</ele>
        <time>2021-11-16T16:06:17.245Z</time>
      </trkpt>
      <trkpt lat="39.44754" lon="31.52731">
        <ele>1059.241163</ele>
        <time>2021-11-16T16:06:21.120Z</time>
      </trkpt>
      <trkpt lat="39.44747" lon="31.52706">
        <ele>1058.587304</ele>
        <time>2021-11-16T16:06:24.296Z</time>
      </trkpt>
      <trkpt lat="39.44704" lon="31.52556">
        <ele>1055.278047</ele>
        <time>2021-11-16T16:06:44.115Z</time>
      </trkpt>
      <trkpt lat="39.44701" lon="31.52544">
        <ele>1055.153966</ele>
        <time>2021-11-16T16:06:45.786Z</time>
      </trkpt>
      <trkpt lat="39.44697" lon="31.52535">
        <ele>1055.046479</ele>
        <time>2021-11-16T16:06:47.233Z</time>
      </trkpt>
      <trkpt lat="39.44681" lon="31.52498">
        <ele>1054.621533</ele>
        <time>2021-11-16T16:06:53.232Z</time>
      </trkpt>
      <trkpt lat="39.44674" lon="31.52487">
        <ele>1054.486479</ele>
        <time>2021-11-16T16:06:55.227Z</time>
      </trkpt>
      <trkpt lat="39.44631" lon="31.52416">
        <ele>1053.582409</ele>
        <time>2021-11-16T16:07:09.936Z</time>
      </trkpt>
      <trkpt lat="39.44537" lon="31.52271">
        <ele>1054.21362</ele>
        <time>2021-11-16T16:07:45.545Z</time>
      </trkpt>
      <trkpt lat="39.44501" lon="31.52215">
        <ele>1054.65659</ele>
        <time>2021-11-16T16:08:00.714Z</time>
      </trkpt>
      <trkpt lat="39.44474" lon="31.52167">
        <ele>1055.397158</ele>
        <time>2021-11-16T16:08:13.591Z</time>
      </trkpt>
      <trkpt lat="39.44468" lon="31.52137">
        <ele>1055.793146</ele>
        <time>2021-11-16T16:08:20.082Z</time>
      </trkpt>
      <trkpt lat="39.4447" lon="31.52094">
        <ele>1056.323287</ele>
        <time>2021-11-16T16:08:29.206Z</time>
      </trkpt>
      <trkpt lat="39.44471" lon="31.52082">
        <ele>1056.478137</ele>
        <time>2021-11-16T16:08:32.723Z</time>
      </trkpt>
      <trkpt lat="39.44498" lon="31.51886">
        <ele>1058.497033</ele>
        <time>2021-11-16T16:09:18.773Z</time>
      </trkpt>
      <trkpt lat="39.44547" lon="31.51774">
        <ele>1059.405904</ele>
        <time>2021-11-16T16:09:42.055Z</time>
      </trkpt>
      <trkpt lat="39.44547" lon="31.51744">
        <ele>1059.348168</ele>
        <time>2021-11-16T16:09:46.964Z</time>
      </trkpt>
      <trkpt lat="39.44539" lon="31.51713">
        <ele>1059.284185</ele>
        <time>2021-11-16T16:09:52.210Z</time>
      </trkpt>
      <trkpt lat="39.44458" lon="31.51543">
        <ele>1058.971756</ele>
        <time>2021-11-16T16:10:24.392Z</time>
      </trkpt>
      <trkpt lat="39.4444" lon="31.51483">
        <ele>1058.946782</ele>
        <time>2021-11-16T16:10:36.028Z</time>
      </trkpt>
      <trkpt lat="39.44434" lon="31.5142">
        <ele>1058.92241</ele>
        <time>2021-11-16T16:10:47.220Z</time>
      </trkpt>
      <trkpt lat="39.44442" lon="31.51267">
        <ele>1058.498134</ele>
        <time>2021-11-16T16:11:12.839Z</time>
      </trkpt>
      <trkpt lat="39.44437" lon="31.51198">
        <ele>1058.211927</ele>
        <time>2021-11-16T16:11:23.562Z</time>
      </trkpt>
      <trkpt lat="39.4439" lon="31.51049">
        <ele>1057.091652</ele>
        <time>2021-11-16T16:11:47.888Z</time>
      </trkpt>
      <trkpt lat="39.44383" lon="31.50914">
        <ele>1055.874463</ele>
        <time>2021-11-16T16:12:07.666Z</time>
      </trkpt>
      <trkpt lat="39.44373" lon="31.50876">
        <ele>1055.226041</ele>
        <time>2021-11-16T16:12:13.106Z</time>
      </trkpt>
      <trkpt lat="39.44354" lon="31.50852">
        <ele>1054.6315</ele>
        <time>2021-11-16T16:12:17.780Z</time>
      </trkpt>
      <trkpt lat="39.44312" lon="31.50824">
        <ele>1053.5951</ele>
        <time>2021-11-16T16:12:25.813Z</time>
      </trkpt>
      <trkpt lat="39.44275" lon="31.50817">
        <ele>1052.772392</ele>
        <time>2021-11-16T16:12:32.167Z</time>
      </trkpt>
      <trkpt lat="39.4426" lon="31.50816">
        <ele>1052.425626</ele>
        <time>2021-11-16T16:12:34.858Z</time>
      </trkpt>
      <trkpt lat="39.44228" lon="31.50809">
        <ele>1051.692704</ele>
        <time>2021-11-16T16:12:40.667Z</time>
      </trkpt>
      <trkpt lat="39.44212" lon="31.50803">
        <ele>1051.309806</ele>
        <time>2021-11-16T16:12:43.424Z</time>
      </trkpt>
      <trkpt lat="39.442" lon="31.50798">
        <ele>1051.006535</ele>
        <time>2021-11-16T16:12:45.552Z</time>
      </trkpt>
      <trkpt lat="39.44191" lon="31.50783">
        <ele>1050.662447</ele>
        <time>2021-11-16T16:12:48.031Z</time>
      </trkpt>
      <trkpt lat="39.44214" lon="31.50744">
        <ele>1049.74953</ele>
        <time>2021-11-16T16:12:54.532Z</time>
      </trkpt>
      <trkpt lat="39.44224" lon="31.50698">
        <ele>1048.87636</ele>
        <time>2021-11-16T16:13:00.819Z</time>
      </trkpt>
      <trkpt lat="39.44218" lon="31.50674">
        <ele>1048.416297</ele>
        <time>2021-11-16T16:13:04.105Z</time>
      </trkpt>
      <trkpt lat="39.44202" lon="31.50646">
        <ele>1047.781852</ele>
        <time>2021-11-16T16:13:08.785Z</time>
      </trkpt>
      <trkpt lat="39.44169" lon="31.50613">
        <ele>1046.760641</ele>
        <time>2021-11-16T16:13:16.029Z</time>
      </trkpt>
      <trkpt lat="39.44117" lon="31.50577">
        <ele>1045.286005</ele>
        <time>2021-11-16T16:13:26.245Z</time>
      </trkpt>
      <trkpt lat="39.43933" lon="31.5042">
        <ele>1039.322992</ele>
        <time>2021-11-16T16:14:02.875Z</time>
      </trkpt>
      <trkpt lat="39.43864" lon="31.50341">
        <ele>1036.864875</ele>
        <time>2021-11-16T16:14:18.146Z</time>
      </trkpt>
      <trkpt lat="39.43795" lon="31.50198">
        <ele>1033.5726</ele>
        <time>2021-11-16T16:14:40.370Z</time>
      </trkpt>
      <trkpt lat="39.43722" lon="31.50075">
        <ele>1030.942076</ele>
        <time>2021-11-16T16:15:01.257Z</time>
      </trkpt>
      <trkpt lat="39.43316" lon="31.49503">
        <ele>1017.926721</ele>
        <time>2021-11-16T16:16:45.739Z</time>
      </trkpt>
      <trkpt lat="39.43305" lon="31.49487">
        <ele>1017.385068</ele>
        <time>2021-11-16T16:16:48.528Z</time>
      </trkpt>
      <trkpt lat="39.4329" lon="31.49464">
        <ele>1016.580039</ele>
        <time>2021-11-16T16:16:52.291Z</time>
      </trkpt>
      <trkpt lat="39.43266" lon="31.4941">
        <ele>1014.920904</ele>
        <time>2021-11-16T16:17:00.008Z</time>
      </trkpt>
      <trkpt lat="39.43249" lon="31.49346">
        <ele>1013.07956</ele>
        <time>2021-11-16T16:17:08.430Z</time>
      </trkpt>
      <trkpt lat="39.4321" lon="31.49143">
        <ele>1006.999984</ele>
        <time>2021-11-16T16:17:33.692Z</time>
      </trkpt>
      <trkpt lat="39.43208" lon="31.49118">
        <ele>1006.259408</ele>
        <time>2021-11-16T16:17:36.637Z</time>
      </trkpt>
      <trkpt lat="39.43182" lon="31.49003">
        <ele>1003.699237</ele>
        <time>2021-11-16T16:17:51.654Z</time>
      </trkpt>
      <trkpt lat="39.43178" lon="31.48963">
        <ele>1003.118601</ele>
        <time>2021-11-16T16:17:56.991Z</time>
      </trkpt>
      <trkpt lat="39.43176" lon="31.48934">
        <ele>1002.69975</ele>
        <time>2021-11-16T16:18:00.944Z</time>
      </trkpt>
      <trkpt lat="39.43169" lon="31.48909">
        <ele>1002.312595</ele>
        <time>2021-11-16T16:18:04.900Z</time>
      </trkpt>
      <trkpt lat="39.43145" lon="31.48825">
        <ele>1001.311682</ele>
        <time>2021-11-16T16:18:18.814Z</time>
      </trkpt>
      <trkpt lat="39.43139" lon="31.48771">
        <ele>1001.395322</ele>
        <time>2021-11-16T16:18:28.452Z</time>
      </trkpt>
      <trkpt lat="39.43144" lon="31.48634">
        <ele>1001.605895</ele>
        <time>2021-11-16T16:18:54.520Z</time>
      </trkpt>
      <trkpt lat="39.43141" lon="31.48589">
        <ele>1001.526866</ele>
        <time>2021-11-16T16:19:02.328Z</time>
      </trkpt>
      <trkpt lat="39.43135" lon="31.48547">
        <ele>1001.290725</ele>
        <time>2021-11-16T16:19:09.456Z</time>
      </trkpt>
      <trkpt lat="39.43116" lon="31.48459">
        <ele>1000.795728</ele>
        <time>2021-11-16T16:19:23.589Z</time>
      </trkpt>
      <trkpt lat="39.43047" lon="31.48207">
        <ele>998.400757</ele>
        <time>2021-11-16T16:20:02.036Z</time>
      </trkpt>
      <trkpt lat="39.43021" lon="31.48137">
        <ele>997.590585</ele>
        <time>2021-11-16T16:20:13.140Z</time>
      </trkpt>
      <trkpt lat="39.42909" lon="31.47904">
        <ele>994.673664</ele>
        <time>2021-11-16T16:20:52.511Z</time>
      </trkpt>
      <trkpt lat="39.42882" lon="31.47827">
        <ele>993.743295</ele>
        <time>2021-11-16T16:21:04.676Z</time>
      </trkpt>
      <trkpt lat="39.42812" lon="31.47522">
        <ele>990.136427</ele>
        <time>2021-11-16T16:21:49.732Z</time>
      </trkpt>
      <trkpt lat="39.4279" lon="31.47457">
        <ele>989.41853</ele>
        <time>2021-11-16T16:21:59.930Z</time>
      </trkpt>
      <trkpt lat="39.42736" lon="31.4736">
        <ele>988.220259</ele>
        <time>2021-11-16T16:22:17.253Z</time>
      </trkpt>
      <trkpt lat="39.42733" lon="31.47356">
        <ele>988.164595</ele>
        <time>2021-11-16T16:22:18.037Z</time>
      </trkpt>
      <trkpt lat="39.42644" lon="31.47209">
        <ele>986.433144</ele>
        <time>2021-11-16T16:22:45.344Z</time>
      </trkpt>
      <trkpt lat="39.42484" lon="31.46881">
        <ele>982.654211</ele>
        <time>2021-11-16T16:23:41.591Z</time>
      </trkpt>
      <trkpt lat="39.42402" lon="31.46728">
        <ele>980.940761</ele>
        <time>2021-11-16T16:24:08.639Z</time>
      </trkpt>
      <trkpt lat="39.42321" lon="31.46495">
        <ele>978.836132</ele>
        <time>2021-11-16T16:24:46.412Z</time>
      </trkpt>
      <trkpt lat="39.42199" lon="31.46217">
        <ele>976.436052</ele>
        <time>2021-11-16T16:25:34.281Z</time>
      </trkpt>
      <trkpt lat="39.41984" lon="31.45526">
        <ele>971.291979</ele>
        <time>2021-11-16T16:27:26.886Z</time>
      </trkpt>
      <trkpt lat="39.41919" lon="31.45346">
        <ele>969.767163</ele>
        <time>2021-11-16T16:27:56.866Z</time>
      </trkpt>
      <trkpt lat="39.41725" lon="31.44668">
        <ele>962.941155</ele>
        <time>2021-11-16T16:29:41.921Z</time>
      </trkpt>
      <trkpt lat="39.41492" lon="31.44035">
        <ele>955.428969</ele>
        <time>2021-11-16T16:31:22.203Z</time>
      </trkpt>
      <trkpt lat="39.41418" lon="31.43809">
        <ele>952.904812</ele>
        <time>2021-11-16T16:31:57.673Z</time>
      </trkpt>
      <trkpt lat="39.41296" lon="31.43434">
        <ele>948.875991</ele>
        <time>2021-11-16T16:32:56.185Z</time>
      </trkpt>
      <trkpt lat="39.40916" lon="31.41983">
        <ele>935.375738</ele>
        <time>2021-11-16T16:36:41.649Z</time>
      </trkpt>
      <trkpt lat="39.40892" lon="31.419">
        <ele>934.561399</ele>
        <time>2021-11-16T16:36:54.414Z</time>
      </trkpt>
      <trkpt lat="39.40832" lon="31.41695">
        <ele>932.649612</ele>
        <time>2021-11-16T16:37:26.292Z</time>
      </trkpt>
      <trkpt lat="39.40765" lon="31.41485">
        <ele>930.865038</ele>
        <time>2021-11-16T16:38:00.551Z</time>
      </trkpt>
      <trkpt lat="39.40747" lon="31.41432">
        <ele>930.444113</ele>
        <time>2021-11-16T16:38:09.260Z</time>
      </trkpt>
      <trkpt lat="39.40749" lon="31.41398">
        <ele>930.19434</ele>
        <time>2021-11-16T16:38:14.407Z</time>
      </trkpt>
      <trkpt lat="39.40821" lon="31.41116">
        <ele>927.989217</ele>
        <time>2021-11-16T16:38:58.538Z</time>
      </trkpt>
      <trkpt lat="39.40831" lon="31.41036">
        <ele>927.506693</ele>
        <time>2021-11-16T16:39:10.873Z</time>
      </trkpt>
      <trkpt lat="39.40833" lon="31.41023">
        <ele>927.427348</ele>
        <time>2021-11-16T16:39:12.878Z</time>
      </trkpt>
      <trkpt lat="39.40845" lon="31.40914">
        <ele>926.815903</ele>
        <time>2021-11-16T16:39:30.030Z</time>
      </trkpt>
      <trkpt lat="39.40864" lon="31.40844">
        <ele>926.720732</ele>
        <time>2021-11-16T16:39:41.998Z</time>
      </trkpt>
      <trkpt lat="39.40897" lon="31.4077">
        <ele>926.609873</ele>
        <time>2021-11-16T16:39:56.886Z</time>
      </trkpt>
      <trkpt lat="39.40993" lon="31.40596">
        <ele>926.17428</ele>
        <time>2021-11-16T16:40:32.836Z</time>
      </trkpt>
      <trkpt lat="39.41016" lon="31.40539">
        <ele>926.022402</ele>
        <time>2021-11-16T16:40:43.110Z</time>
      </trkpt>
      <trkpt lat="39.41103" lon="31.40252">
        <ele>923.941277</ele>
        <time>2021-11-16T16:41:29.566Z</time>
      </trkpt>
      <trkpt lat="39.4111" lon="31.40186">
        <ele>923.418933</ele>
        <time>2021-11-16T16:41:39.357Z</time>
      </trkpt>
      <trkpt lat="39.41131" lon="31.39838">
        <ele>920.696714</ele>
        <time>2021-11-16T16:42:31.539Z</time>
      </trkpt>
      <trkpt lat="39.41127" lon="31.39794">
        <ele>920.311305</ele>
        <time>2021-11-16T16:42:38.154Z</time>
      </trkpt>
      <trkpt lat="39.41049" lon="31.3954">
        <ele>918.007672</ele>
        <time>2021-11-16T16:43:18.107Z</time>
      </trkpt>
      <trkpt lat="39.41016" lon="31.394">
        <ele>916.838548</ele>
        <time>2021-11-16T16:43:39.971Z</time>
      </trkpt>
      <trkpt lat="39.40999" lon="31.39159">
        <ele>915.205271</ele>
        <time>2021-11-16T16:44:16.950Z</time>
      </trkpt>
      <trkpt lat="39.40933" lon="31.38767">
        <ele>911.746084</ele>
        <time>2021-11-16T16:45:15.808Z</time>
      </trkpt>
      <trkpt lat="39.40929" lon="31.38699">
        <ele>911.215704</ele>
        <time>2021-11-16T16:45:25.808Z</time>
      </trkpt>
      <trkpt lat="39.40933" lon="31.38638">
        <ele>910.879581</ele>
        <time>2021-11-16T16:45:35.090Z</time>
      </trkpt>
      <trkpt lat="39.4095" lon="31.38562">
        <ele>910.447882</ele>
        <time>2021-11-16T16:45:47.255Z</time>
      </trkpt>
      <trkpt lat="39.40982" lon="31.38464">
        <ele>909.933933</ele>
        <time>2021-11-16T16:46:04.422Z</time>
      </trkpt>
      <trkpt lat="39.41044" lon="31.38305">
        <ele>909.347859</ele>
        <time>2021-11-16T16:46:33.224Z</time>
      </trkpt>
      <trkpt lat="39.4106" lon="31.38253">
        <ele>909.105447</ele>
        <time>2021-11-16T16:46:41.968Z</time>
      </trkpt>
      <trkpt lat="39.41079" lon="31.38044">
        <ele>908.059822</ele>
        <time>2021-11-16T16:47:14.447Z</time>
      </trkpt>
      <trkpt lat="39.41073" lon="31.37738">
        <ele>906.992646</ele>
        <time>2021-11-16T16:48:02.974Z</time>
      </trkpt>
      <trkpt lat="39.411" lon="31.37557">
        <ele>906.743102</ele>
        <time>2021-11-16T16:48:34.357Z</time>
      </trkpt>
      <trkpt lat="39.41134" lon="31.37381">
        <ele>906.784423</ele>
        <time>2021-11-16T16:49:05.656Z</time>
      </trkpt>
      <trkpt lat="39.41134" lon="31.3735">
        <ele>906.792638</ele>
        <time>2021-11-16T16:49:11.170Z</time>
      </trkpt>
      <trkpt lat="39.41129" lon="31.37333">
        <ele>906.797878</ele>
        <time>2021-11-16T16:49:14.239Z</time>
      </trkpt>
      <trkpt lat="39.4112" lon="31.37329">
        <ele>906.80148</ele>
        <time>2021-11-16T16:49:16.462Z</time>
      </trkpt>
      <trkpt lat="39.41026" lon="31.37328">
        <ele>906.836872</ele>
        <time>2021-11-16T16:49:37.304Z</time>
      </trkpt>
      <trkpt lat="39.40998" lon="31.37314">
        <ele>906.848297</ele>
        <time>2021-11-16T16:49:43.951Z</time>
      </trkpt>
      <trkpt lat="39.40973" lon="31.37291">
        <ele>906.911328</ele>
        <time>2021-11-16T16:49:50.786Z</time>
      </trkpt>
      <trkpt lat="39.40951" lon="31.37257">
        <ele>907.089597</ele>
        <time>2021-11-16T16:49:58.756Z</time>
      </trkpt>
      <trkpt lat="39.40948" lon="31.37252">
        <ele>907.114286</ele>
        <time>2021-11-16T16:49:59.809Z</time>
      </trkpt>
      <trkpt lat="39.40895" lon="31.37168">
        <ele>907.549253</ele>
        <time>2021-11-16T16:50:19.973Z</time>
      </trkpt>
      <trkpt lat="39.40726" lon="31.36816">
        <ele>910.134341</ele>
        <time>2021-11-16T16:51:44.164Z</time>
      </trkpt>
      <trkpt lat="39.4067" lon="31.3671">
        <ele>910.594035</ele>
        <time>2021-11-16T16:52:07.431Z</time>
      </trkpt>
      <trkpt lat="39.40641" lon="31.36669">
        <ele>910.394329</ele>
        <time>2021-11-16T16:52:16.602Z</time>
      </trkpt>
      <trkpt lat="39.40548" lon="31.36577">
        <ele>909.847951</ele>
        <time>2021-11-16T16:52:39.939Z</time>
      </trkpt>
      <trkpt lat="39.40441" lon="31.36452">
        <ele>908.847609</ele>
        <time>2021-11-16T16:53:08.418Z</time>
      </trkpt>
      <trkpt lat="39.404" lon="31.36398">
        <ele>908.519108</ele>
        <time>2021-11-16T16:53:20.562Z</time>
      </trkpt>
      <trkpt lat="39.40378" lon="31.36354">
        <ele>908.437957</ele>
        <time>2021-11-16T16:53:29.106Z</time>
      </trkpt>
      <trkpt lat="39.40372" lon="31.36311">
        <ele>908.370225</ele>
        <time>2021-11-16T16:53:36.374Z</time>
      </trkpt>
      <trkpt lat="39.40454" lon="31.35473">
        <ele>907.056745</ele>
        <time>2021-11-16T16:55:58.423Z</time>
      </trkpt>
      <trkpt lat="39.40456" lon="31.35321">
        <ele>905.527597</ele>
        <time>2021-11-16T16:56:20.244Z</time>
      </trkpt>
      <trkpt lat="39.40452" lon="31.35251">
        <ele>904.753533</ele>
        <time>2021-11-16T16:56:29.758Z</time>
      </trkpt>
      <trkpt lat="39.4043" lon="31.35195">
        <ele>903.894042</ele>
        <time>2021-11-16T16:56:38.335Z</time>
      </trkpt>
      <trkpt lat="39.40396" lon="31.35165">
        <ele>903.172628</ele>
        <time>2021-11-16T16:56:45.580Z</time>
      </trkpt>
      <trkpt lat="39.40323" lon="31.3513">
        <ele>901.845638</ele>
        <time>2021-11-16T16:56:59.482Z</time>
      </trkpt>
      <trkpt lat="39.40131" lon="31.35021">
        <ele>900.646944</ele>
        <time>2021-11-16T16:57:41.609Z</time>
      </trkpt>
      <trkpt lat="39.40041" lon="31.34983">
        <ele>900.977742</ele>
        <time>2021-11-16T16:58:04.935Z</time>
      </trkpt>
      <trkpt lat="39.39403" lon="31.34825">
        <ele>905.719359</ele>
        <time>2021-11-16T17:00:51.900Z</time>
      </trkpt>
      <trkpt lat="39.39171" lon="31.34749">
        <ele>904.778342</ele>
        <time>2021-11-16T17:01:40.600Z</time>
      </trkpt>
      <trkpt lat="39.38852" lon="31.34656">
        <ele>901.823764</ele>
        <time>2021-11-16T17:02:43.168Z</time>
      </trkpt>
      <trkpt lat="39.38809" lon="31.3463">
        <ele>901.491895</ele>
        <time>2021-11-16T17:02:53.050Z</time>
      </trkpt>
      <trkpt lat="39.38771" lon="31.34593">
        <ele>901.169178</ele>
        <time>2021-11-16T17:03:03.074Z</time>
      </trkpt>
      <trkpt lat="39.38727" lon="31.34527">
        <ele>901.070024</ele>
        <time>2021-11-16T17:03:18.070Z</time>
      </trkpt>
      <trkpt lat="39.38679" lon="31.3444">
        <ele>900.948179</ele>
        <time>2021-11-16T17:03:36.404Z</time>
      </trkpt>
      <trkpt lat="39.38645" lon="31.34345">
        <ele>900.326707</ele>
        <time>2021-11-16T17:03:53.125Z</time>
      </trkpt>
      <trkpt lat="39.38581" lon="31.3402">
        <ele>896.534554</ele>
        <time>2021-11-16T17:04:40.793Z</time>
      </trkpt>
      <trkpt lat="39.38522" lon="31.33788">
        <ele>892.136109</ele>
        <time>2021-11-16T17:05:12.964Z</time>
      </trkpt>
      <trkpt lat="39.38488" lon="31.33589">
        <ele>887.672532</ele>
        <time>2021-11-16T17:05:39.149Z</time>
      </trkpt>
      <trkpt lat="39.38447" lon="31.33457">
        <ele>884.213083</ele>
        <time>2021-11-16T17:05:57.080Z</time>
      </trkpt>
      <trkpt lat="39.38398" lon="31.33328">
        <ele>880.378939</ele>
        <time>2021-11-16T17:06:14.891Z</time>
      </trkpt>
      <trkpt lat="39.38292" lon="31.33114">
        <ele>873.170207</ele>
        <time>2021-11-16T17:06:45.901Z</time>
      </trkpt>
      <trkpt lat="39.38275" lon="31.33049">
        <ele>871.768854</ele>
        <time>2021-11-16T17:06:54.626Z</time>
      </trkpt>
      <trkpt lat="39.38263" lon="31.33023">
        <ele>871.187708</ele>
        <time>2021-11-16T17:06:58.502Z</time>
      </trkpt>
      <trkpt lat="39.38243" lon="31.33001">
        <ele>870.526975</ele>
        <time>2021-11-16T17:07:02.973Z</time>
      </trkpt>
      <trkpt lat="39.38167" lon="31.32955">
        <ele>868.44088</ele>
        <time>2021-11-16T17:07:17.782Z</time>
      </trkpt>
      <trkpt lat="39.38081" lon="31.32875">
        <ele>866.843473</ele>
        <time>2021-11-16T17:07:37.401Z</time>
      </trkpt>
      <trkpt lat="39.38033" lon="31.32838">
        <ele>866.004978</ele>
        <time>2021-11-16T17:07:47.735Z</time>
      </trkpt>
      <trkpt lat="39.37967" lon="31.32808">
        <ele>864.933814</ele>
        <time>2021-11-16T17:08:00.509Z</time>
      </trkpt>
      <trkpt lat="39.3774" lon="31.32754">
        <ele>861.23146</ele>
        <time>2021-11-16T17:08:42.458Z</time>
      </trkpt>
      <trkpt lat="39.377" lon="31.32737">
        <ele>860.519205</ele>
        <time>2021-11-16T17:08:50.103Z</time>
      </trkpt>
      <trkpt lat="39.37676" lon="31.32719">
        <ele>860.067521</ele>
        <time>2021-11-16T17:08:54.973Z</time>
      </trkpt>
      <trkpt lat="39.37662" lon="31.32674">
        <ele>859.549192</ele>
        <time>2021-11-16T17:09:01.686Z</time>
      </trkpt>
      <trkpt lat="39.37651" lon="31.32567">
        <ele>858.424564</ele>
        <time>2021-11-16T17:09:17.132Z</time>
      </trkpt>
      <trkpt lat="39.37604" lon="31.32553">
        <ele>857.77503</ele>
        <time>2021-11-16T17:09:26.303Z</time>
      </trkpt>
      <trkpt lat="39.37549" lon="31.32518">
        <ele>857.447549</ele>
        <time>2021-11-16T17:09:38.388Z</time>
      </trkpt>
      <trkpt lat="39.37501" lon="31.32501">
        <ele>857.323962</ele>
        <time>2021-11-16T17:09:48.806Z</time>
      </trkpt>
      <trkpt lat="39.37445" lon="31.32501">
        <ele>857.184261</ele>
        <time>2021-11-16T17:10:01.441Z</time>
      </trkpt>
      <trkpt lat="39.37403" lon="31.32495">
        <ele>857.169335</ele>
        <time>2021-11-16T17:10:11.329Z</time>
      </trkpt>
      <trkpt lat="39.3728" lon="31.32441">
        <ele>857.739009</ele>
        <time>2021-11-16T17:10:42.499Z</time>
      </trkpt>
      <trkpt lat="39.37096" lon="31.32386">
        <ele>858.764551</ele>
        <time>2021-11-16T17:11:28.538Z</time>
      </trkpt>
      <trkpt lat="39.37032" lon="31.3234">
        <ele>859.318592</ele>
        <time>2021-11-16T17:11:47.053Z</time>
      </trkpt>
      <trkpt lat="39.36983" lon="31.32321">
        <ele>859.758757</ele>
        <time>2021-11-16T17:12:00.105Z</time>
      </trkpt>
      <trkpt lat="39.36865" lon="31.32262">
        <ele>860.868759</ele>
        <time>2021-11-16T17:12:33.099Z</time>
      </trkpt>
      <trkpt lat="39.36787" lon="31.32196">
        <ele>861.695137</ele>
        <time>2021-11-16T17:12:57.160Z</time>
      </trkpt>
      <trkpt lat="39.36672" lon="31.32128">
        <ele>862.731588</ele>
        <time>2021-11-16T17:13:29.716Z</time>
      </trkpt>
      <trkpt lat="39.36608" lon="31.32082">
        <ele>863.30631</ele>
        <time>2021-11-16T17:13:48.407Z</time>
      </trkpt>
      <trkpt lat="39.36456" lon="31.31928">
        <ele>863.789952</ele>
        <time>2021-11-16T17:14:34.134Z</time>
      </trkpt>
      <trkpt lat="39.36403" lon="31.31894">
        <ele>863.170645</ele>
        <time>2021-11-16T17:14:45.931Z</time>
      </trkpt>
      <trkpt lat="39.36242" lon="31.31742">
        <ele>860.007601</ele>
        <time>2021-11-16T17:15:21.870Z</time>
      </trkpt>
      <trkpt lat="39.36208" lon="31.31723">
        <ele>859.222511</ele>
        <time>2021-11-16T17:15:28.242Z</time>
      </trkpt>
      <trkpt lat="39.36122" lon="31.31721">
        <ele>857.310849</ele>
        <time>2021-11-16T17:15:42.933Z</time>
      </trkpt>
      <trkpt lat="39.36083" lon="31.31705">
        <ele>856.171943</ele>
        <time>2021-11-16T17:15:49.841Z</time>
      </trkpt>
      <trkpt lat="39.35936" lon="31.31575">
        <ele>851.276937</ele>
        <time>2021-11-16T17:16:19.366Z</time>
      </trkpt>
      <trkpt lat="39.35897" lon="31.31556">
        <ele>850.141084</ele>
        <time>2021-11-16T17:16:26.344Z</time>
      </trkpt>
      <trkpt lat="39.35866" lon="31.31558">
        <ele>849.309509</ele>
        <time>2021-11-16T17:16:31.474Z</time>
      </trkpt>
      <trkpt lat="39.35826" lon="31.31572">
        <ele>848.167993</ele>
        <time>2021-11-16T17:16:38.594Z</time>
      </trkpt>
      <trkpt lat="39.35772" lon="31.31551">
        <ele>846.951078</ele>
        <time>2021-11-16T17:16:48.114Z</time>
      </trkpt>
      <trkpt lat="39.35742" lon="31.31524">
        <ele>846.227017</ele>
        <time>2021-11-16T17:16:54.304Z</time>
      </trkpt>
      <trkpt lat="39.3567" lon="31.31438">
        <ele>844.26424</ele>
        <time>2021-11-16T17:17:11.836Z</time>
      </trkpt>
      <trkpt lat="39.35626" lon="31.31396">
        <ele>843.743961</ele>
        <time>2021-11-16T17:17:22.117Z</time>
      </trkpt>
      <trkpt lat="39.35627" lon="31.31382">
        <ele>843.650404</ele>
        <time>2021-11-16T17:17:24.300Z</time>
      </trkpt>
      <trkpt lat="39.35722" lon="31.31167">
        <ele>842.217968</ele>
        <time>2021-11-16T17:18:03.200Z</time>
      </trkpt>
      <trkpt lat="39.35724" lon="31.31146">
        <ele>842.125908</ele>
        <time>2021-11-16T17:18:06.538Z</time>
      </trkpt>
      <trkpt lat="39.35722" lon="31.31135">
        <ele>842.077455</ele>
        <time>2021-11-16T17:18:08.502Z</time>
      </trkpt>
      <trkpt lat="39.35715" lon="31.31123">
        <ele>842.01254</ele>
        <time>2021-11-16T17:18:10.938Z</time>
      </trkpt>
      <trkpt lat="39.35707" lon="31.31109">
        <ele>841.93956</ele>
        <time>2021-11-16T17:18:13.545Z</time>
      </trkpt>
      <trkpt lat="39.35613" lon="31.30971">
        <ele>841.487946</ele>
        <time>2021-11-16T17:18:42.626Z</time>
      </trkpt>
      <trkpt lat="39.35598" lon="31.30936">
        <ele>841.436223</ele>
        <time>2021-11-16T17:18:49.607Z</time>
      </trkpt>
      <trkpt lat="39.35594" lon="31.30896">
        <ele>841.384073</ele>
        <time>2021-11-16T17:18:56.761Z</time>
      </trkpt>
      <trkpt lat="39.35593" lon="31.3087">
        <ele>841.350944</ele>
        <time>2021-11-16T17:19:01.355Z</time>
      </trkpt>
      <trkpt lat="39.3559" lon="31.30799">
        <ele>841.510869</ele>
        <time>2021-11-16T17:19:14.246Z</time>
      </trkpt>
      <trkpt lat="39.35578" lon="31.30746">
        <ele>841.686337</ele>
        <time>2021-11-16T17:19:24.355Z</time>
      </trkpt>
      <trkpt lat="39.35556" lon="31.30711">
        <ele>841.830453</ele>
        <time>2021-11-16T17:19:32.789Z</time>
      </trkpt>
      <trkpt lat="39.34989" lon="31.30218">
        <ele>845.201753</ele>
        <time>2021-11-16T17:22:17.372Z</time>
      </trkpt>
      <trkpt lat="39.34963" lon="31.302">
        <ele>845.416595</ele>
        <time>2021-11-16T17:22:25.127Z</time>
      </trkpt>
      <trkpt lat="39.34986" lon="31.30111">
        <ele>845.976477</ele>
        <time>2021-11-16T17:22:44.067Z</time>
      </trkpt>
      <trkpt lat="39.34999" lon="31.30026">
        <ele>846.833133</ele>
        <time>2021-11-16T17:23:01.994Z</time>
      </trkpt>
      <trkpt lat="39.35079" lon="31.29337">
        <ele>853.497193</ele>
        <time>2021-11-16T17:25:30.871Z</time>
      </trkpt>
      <trkpt lat="39.35095" lon="31.29139">
        <ele>854.294643</ele>
        <time>2021-11-16T17:26:07.663Z</time>
      </trkpt>
      <trkpt lat="39.35136" lon="31.28836">
        <ele>854.392325</ele>
        <time>2021-11-16T17:26:57.991Z</time>
      </trkpt>
      <trkpt lat="39.35145" lon="31.28765">
        <ele>854.51663</ele>
        <time>2021-11-16T17:27:11.968Z</time>
      </trkpt>
      <trkpt lat="39.35151" lon="31.28706">
        <ele>854.808383</ele>
        <time>2021-11-16T17:27:24.301Z</time>
      </trkpt>
      <trkpt lat="39.35164" lon="31.28626">
        <ele>855.385635</ele>
        <time>2021-11-16T17:27:41.534Z</time>
      </trkpt>
      <trkpt lat="39.35187" lon="31.28544">
        <ele>856.007384</ele>
        <time>2021-11-16T17:27:59.949Z</time>
      </trkpt>
      <trkpt lat="39.35414" lon="31.27849">
        <ele>855.731855</ele>
        <time>2021-11-16T17:30:06.743Z</time>
      </trkpt>
      <trkpt lat="39.37898" lon="31.20139">
        <ele>854.006713</ele>
        <time>2021-11-16T17:53:56.017Z</time>
      </trkpt>
      <trkpt lat="39.38047" lon="31.19681">
        <ele>855.521162</ele>
        <time>2021-11-16T17:55:27.575Z</time>
      </trkpt>
      <trkpt lat="39.38127" lon="31.19434">
        <ele>856.310909</ele>
        <time>2021-11-16T17:56:17.784Z</time>
      </trkpt>
      <trkpt lat="39.38133" lon="31.19392">
        <ele>856.361287</ele>
        <time>2021-11-16T17:56:25.420Z</time>
      </trkpt>
      <trkpt lat="39.3813" lon="31.19373">
        <ele>856.384456</ele>
        <time>2021-11-16T17:56:28.898Z</time>
      </trkpt>
      <trkpt lat="39.38129" lon="31.19355">
        <ele>856.405253</ele>
        <time>2021-11-16T17:56:31.937Z</time>
      </trkpt>
      <trkpt lat="39.38009" lon="31.18962">
        <ele>856.211692</ele>
        <time>2021-11-16T17:57:42.468Z</time>
      </trkpt>
      <trkpt lat="39.37933" lon="31.18712">
        <ele>856.387306</ele>
        <time>2021-11-16T17:58:29.489Z</time>
      </trkpt>
      <trkpt lat="39.37925" lon="31.18686">
        <ele>856.424201</ele>
        <time>2021-11-16T17:58:34.445Z</time>
      </trkpt>
      <trkpt lat="39.37889" lon="31.1857">
        <ele>856.642224</ele>
        <time>2021-11-16T17:58:57.286Z</time>
      </trkpt>
      <trkpt lat="39.37775" lon="31.18205">
        <ele>857.43187</ele>
        <time>2021-11-16T18:00:07.750Z</time>
      </trkpt>
      <trkpt lat="39.36775" lon="31.14929">
        <ele>867.117049</ele>
        <time>2021-11-16T18:10:52.560Z</time>
      </trkpt>
      <trkpt lat="39.36765" lon="31.14872">
        <ele>867.139483</ele>
        <time>2021-11-16T18:11:02.820Z</time>
      </trkpt>
      <trkpt lat="39.36724" lon="31.14067">
        <ele>867.695034</ele>
        <time>2021-11-16T18:13:22.307Z</time>
      </trkpt>
      <trkpt lat="39.36658" lon="31.12576">
        <ele>877.757425</ele>
        <time>2021-11-16T18:18:19.980Z</time>
      </trkpt>
      <trkpt lat="39.36657" lon="31.12561">
        <ele>877.873469</ele>
        <time>2021-11-16T18:18:23.062Z</time>
      </trkpt>
      <trkpt lat="39.36675" lon="31.12558">
        <ele>878.056827</ele>
        <time>2021-11-16T18:18:28.132Z</time>
      </trkpt>
      <trkpt lat="39.36734" lon="31.12524">
        <ele>878.70721</ele>
        <time>2021-11-16T18:18:46.104Z</time>
      </trkpt>
      <trkpt lat="39.36727" lon="31.1231">
        <ele>879.775878</ele>
        <time>2021-11-16T18:19:30.272Z</time>
      </trkpt>
      <trkpt lat="39.36727" lon="31.12307">
        <ele>879.7848</ele>
        <time>2021-11-16T18:19:30.644Z</time>
      </trkpt>
      <trkpt lat="39.36721" lon="31.12154">
        <ele>879.614601</ele>
        <time>2021-11-16T18:19:57.582Z</time>
      </trkpt>
      <trkpt lat="39.36756" lon="31.12139">
        <ele>879.359333</ele>
        <time>2021-11-16T18:20:05.329Z</time>
      </trkpt>
      <trkpt lat="39.36765" lon="31.11933">
        <ele>878.015711</ele>
        <time>2021-11-16T18:20:36.994Z</time>
      </trkpt>
      <trkpt lat="39.36769" lon="31.11877">
        <ele>877.593724</ele>
        <time>2021-11-16T18:20:45.592Z</time>
      </trkpt>
      <trkpt lat="39.37143" lon="31.11545">
        <ele>874.4101</ele>
        <time>2021-11-16T18:22:16.775Z</time>
      </trkpt>
      <trkpt lat="39.37842" lon="31.10929">
        <ele>869.012009</ele>
        <time>2021-11-16T18:25:07.408Z</time>
      </trkpt>
      <trkpt lat="39.37873" lon="31.10905">
        <ele>868.783426</ele>
        <time>2021-11-16T18:25:14.653Z</time>
      </trkpt>
      <trkpt lat="39.37944" lon="31.10865">
        <ele>868.284591</ele>
        <time>2021-11-16T18:25:30.309Z</time>
      </trkpt>
      <trkpt lat="39.37997" lon="31.1083">
        <ele>867.902543</ele>
        <time>2021-11-16T18:25:42.300Z</time>
      </trkpt>
      <trkpt lat="39.38019" lon="31.10826">
        <ele>867.764298</ele>
        <time>2021-11-16T18:25:46.616Z</time>
      </trkpt>
      <trkpt lat="39.38177" lon="31.10789">
        <ele>866.665087</ele>
        <time>2021-11-16T18:26:18.777Z</time>
      </trkpt>
      <trkpt lat="39.38195" lon="31.10792">
        <ele>866.543203</ele>
        <time>2021-11-16T18:26:22.380Z</time>
      </trkpt>
      <trkpt lat="39.38199" lon="31.10791">
        <ele>866.529243</ele>
        <time>2021-11-16T18:26:23.131Z</time>
      </trkpt>
      <trkpt lat="39.38273" lon="31.10775">
        <ele>866.250906</ele>
        <time>2021-11-16T18:26:38.515Z</time>
      </trkpt>
      <trkpt lat="39.383" lon="31.10764">
        <ele>866.145382</ele>
        <time>2021-11-16T18:26:44.445Z</time>
      </trkpt>
      <trkpt lat="39.38323" lon="31.10744">
        <ele>866.041047</ele>
        <time>2021-11-16T18:26:50.427Z</time>
      </trkpt>
      <trkpt lat="39.38338" lon="31.10708">
        <ele>865.926558</ele>
        <time>2021-11-16T18:26:57.083Z</time>
      </trkpt>
      <trkpt lat="39.38347" lon="31.10645">
        <ele>865.972172</ele>
        <time>2021-11-16T18:27:08.143Z</time>
      </trkpt>
      <trkpt lat="39.38293" lon="31.09404">
        <ele>868.311368</ele>
        <time>2021-11-16T18:30:52.651Z</time>
      </trkpt>
      <trkpt lat="39.38158" lon="31.06659">
        <ele>865.552062</ele>
        <time>2021-11-16T18:38:33.861Z</time>
      </trkpt>
      <trkpt lat="39.3812" lon="31.0593">
        <ele>865.412294</ele>
        <time>2021-11-16T18:40:38.353Z</time>
      </trkpt>
      <trkpt lat="39.38107" lon="31.05684">
        <ele>866.224797</ele>
        <time>2021-11-16T18:41:23.880Z</time>
      </trkpt>
      <trkpt lat="39.38099" lon="31.05514">
        <ele>867.388421</ele>
        <time>2021-11-16T18:41:58.117Z</time>
      </trkpt>
      <trkpt lat="39.38096" lon="31.05428">
        <ele>868.21544</ele>
        <time>2021-11-16T18:42:16.231Z</time>
      </trkpt>
      <trkpt lat="39.38095" lon="31.05425">
        <ele>868.24336</ele>
        <time>2021-11-16T18:42:17.052Z</time>
      </trkpt>
      <trkpt lat="39.38088" lon="31.05332">
        <ele>869.090102</ele>
        <time>2021-11-16T18:42:35.599Z</time>
      </trkpt>
      <trkpt lat="39.38081" lon="31.0524">
        <ele>869.762677</ele>
        <time>2021-11-16T18:42:54.147Z</time>
      </trkpt>
      <trkpt lat="39.38074" lon="31.05148">
        <ele>870.434624</ele>
        <time>2021-11-16T18:43:12.693Z</time>
      </trkpt>
      <trkpt lat="39.38067" lon="31.05055">
        <ele>870.577811</ele>
        <time>2021-11-16T18:43:31.239Z</time>
      </trkpt>
      <trkpt lat="39.38067" lon="31.05055">
        <ele>870.577708</ele>
        <time>2021-11-16T18:43:31.250Z</time>
      </trkpt>
      <trkpt lat="39.3811" lon="31.05039">
        <ele>870.517492</ele>
        <time>2021-11-16T18:43:40.878Z</time>
      </trkpt>
      <trkpt lat="39.38222" lon="31.04981">
        <ele>870.442135</ele>
        <time>2021-11-16T18:44:06.130Z</time>
      </trkpt>
      <trkpt lat="39.38446" lon="31.04829">
        <ele>870.79252</ele>
        <time>2021-11-16T18:45:05.191Z</time>
      </trkpt>
      <trkpt lat="39.38494" lon="31.04788">
        <ele>870.895042</ele>
        <time>2021-11-16T18:45:18.115Z</time>
      </trkpt>
      <trkpt lat="39.38506" lon="31.04777">
        <ele>870.918953</ele>
        <time>2021-11-16T18:45:21.402Z</time>
      </trkpt>
      <trkpt lat="39.38509" lon="31.04773">
        <ele>870.908648</ele>
        <time>2021-11-16T18:45:22.281Z</time>
      </trkpt>
      <trkpt lat="39.38512" lon="31.04762">
        <ele>870.888055</ele>
        <time>2021-11-16T18:45:24.210Z</time>
      </trkpt>
      <trkpt lat="39.38508" lon="31.04751">
        <ele>870.867421</ele>
        <time>2021-11-16T18:45:26.305Z</time>
      </trkpt>
      <trkpt lat="39.385" lon="31.04745">
        <ele>870.847077</ele>
        <time>2021-11-16T18:45:28.263Z</time>
      </trkpt>
      <trkpt lat="39.38491" lon="31.04747">
        <ele>870.826405</ele>
        <time>2021-11-16T18:45:30.107Z</time>
      </trkpt>
      <trkpt lat="39.38488" lon="31.0475">
        <ele>870.816143</ele>
        <time>2021-11-16T18:45:30.987Z</time>
      </trkpt>
      <trkpt lat="39.38477" lon="31.04762">
        <ele>870.784071</ele>
        <time>2021-11-16T18:45:34.210Z</time>
      </trkpt>
      <trkpt lat="39.38465" lon="31.04774">
        <ele>870.748098</ele>
        <time>2021-11-16T18:45:37.524Z</time>
      </trkpt>
      <trkpt lat="39.3835" lon="31.04874">
        <ele>870.51732</ele>
        <time>2021-11-16T18:46:06.237Z</time>
      </trkpt>
      <trkpt lat="39.38247" lon="31.04946">
        <ele>870.559498</ele>
        <time>2021-11-16T18:46:33.436Z</time>
      </trkpt>
      <trkpt lat="39.38214" lon="31.04963">
        <ele>870.562495</ele>
        <time>2021-11-16T18:46:41.635Z</time>
      </trkpt>
      <trkpt lat="39.3819" lon="31.04893">
        <ele>870.482649</ele>
        <time>2021-11-16T18:46:55.445Z</time>
      </trkpt>
      <trkpt lat="39.38335" lon="31.04788">
        <ele>870.314102</ele>
        <time>2021-11-16T18:47:32.406Z</time>
      </trkpt>
      <trkpt lat="39.38394" lon="31.04745">
        <ele>870.295712</ele>
        <time>2021-11-16T18:47:47.481Z</time>
      </trkpt>
      <trkpt lat="39.38448" lon="31.04706">
        <ele>870.285854</ele>
        <time>2021-11-16T18:48:02.193Z</time>
      </trkpt>
      <trkpt lat="39.38454" lon="31.04704">
        <ele>870.338448</ele>
        <time>2021-11-16T18:48:04.021Z</time>
      </trkpt>
      <trkpt lat="39.38439" lon="31.04678">
        <ele>870.524902</ele>
        <time>2021-11-16T18:48:10.132Z</time>
      </trkpt>
      <trkpt lat="39.38409" lon="31.04625">
        <ele>870.898726</ele>
        <time>2021-11-16T18:48:22.813Z</time>
      </trkpt>
      <trkpt lat="39.38362" lon="31.04562">
        <ele>871.401857</ele>
        <time>2021-11-16T18:48:40.486Z</time>
      </trkpt>
      <trkpt lat="39.38322" lon="31.0451">
        <ele>871.923666</ele>
        <time>2021-11-16T18:48:55.251Z</time>
      </trkpt>
      <trkpt lat="39.383" lon="31.04481">
        <ele>872.268813</ele>
        <time>2021-11-16T18:49:03.468Z</time>
      </trkpt>
      <trkpt lat="39.38271" lon="31.04449">
        <ele>872.687052</ele>
        <time>2021-11-16T18:49:13.494Z</time>
      </trkpt>
      <trkpt lat="39.38263" lon="31.0444">
        <ele>872.811856</ele>
        <time>2021-11-16T18:49:16.711Z</time>
      </trkpt>
      <trkpt lat="39.38239" lon="31.04414">
        <ele>873.1522</ele>
        <time>2021-11-16T18:49:24.939Z</time>
      </trkpt>
      <trkpt lat="39.38234" lon="31.04407">
        <ele>873.238206</ele>
        <time>2021-11-16T18:49:27.200Z</time>
      </trkpt>
      <trkpt lat="39.38185" lon="31.04297">
        <ele>874.22428</ele>
        <time>2021-11-16T18:49:53.088Z</time>
      </trkpt>
      <trkpt lat="39.38178" lon="31.0428">
        <ele>874.368377</ele>
        <time>2021-11-16T18:49:57.342Z</time>
      </trkpt>
      <trkpt lat="39.38132" lon="31.04165">
        <ele>875.334374</ele>
        <time>2021-11-16T18:50:23.319Z</time>
      </trkpt>
      <trkpt lat="39.38081" lon="31.04081">
        <ele>875.8689</ele>
        <time>2021-11-16T18:50:43.428Z</time>
      </trkpt>
      <trkpt lat="39.38071" lon="31.04061">
        <ele>875.986244</ele>
        <time>2021-11-16T18:50:47.807Z</time>
      </trkpt>
      <trkpt lat="39.38055" lon="31.04025">
        <ele>876.191661</ele>
        <time>2021-11-16T18:50:55.678Z</time>
      </trkpt>
      <trkpt lat="39.3803" lon="31.03959">
        <ele>876.528282</ele>
        <time>2021-11-16T18:51:10.251Z</time>
      </trkpt>
      <trkpt lat="39.38013" lon="31.03915">
        <ele>876.649993</ele>
        <time>2021-11-16T18:51:19.481Z</time>
      </trkpt>
      <trkpt lat="39.38005" lon="31.03884">
        <ele>876.732058</ele>
        <time>2021-11-16T18:51:25.599Z</time>
      </trkpt>
      <trkpt lat="39.37986" lon="31.03809">
        <ele>876.929001</ele>
        <time>2021-11-16T18:51:40.334Z</time>
      </trkpt>
      <trkpt lat="39.37972" lon="31.03759">
        <ele>877.061557</ele>
        <time>2021-11-16T18:51:49.923Z</time>
      </trkpt>
      <trkpt lat="39.37956" lon="31.03749">
        <ele>876.950538</ele>
        <time>2021-11-16T18:51:53.756Z</time>
      </trkpt>
      <trkpt lat="39.37938" lon="31.03749">
        <ele>876.787174</ele>
        <time>2021-11-16T18:51:57.599Z</time>
      </trkpt>
      <trkpt lat="39.37904" lon="31.03749">
        <ele>876.474932</ele>
        <time>2021-11-16T18:52:04.765Z</time>
      </trkpt>
      <trkpt lat="39.37894" lon="31.03749">
        <ele>876.391005</ele>
        <time>2021-11-16T18:52:06.739Z</time>
      </trkpt>
      <trkpt lat="39.37876" lon="31.03748">
        <ele>876.222199</ele>
        <time>2021-11-16T18:52:10.432Z</time>
      </trkpt>
      <trkpt lat="39.37861" lon="31.03748">
        <ele>876.0913</ele>
        <time>2021-11-16T18:52:13.452Z</time>
      </trkpt>
      <trkpt lat="39.37843" lon="31.03755">
        <ele>875.921275</ele>
        <time>2021-11-16T18:52:17.084Z</time>
      </trkpt>
      <trkpt lat="39.37815" lon="31.03762">
        <ele>875.658204</ele>
        <time>2021-11-16T18:52:22.897Z</time>
      </trkpt>
      <trkpt lat="39.37808" lon="31.03762">
        <ele>875.597705</ele>
        <time>2021-11-16T18:52:24.101Z</time>
      </trkpt>
      <trkpt lat="39.37771" lon="31.03767">
        <ele>875.190496</ele>
        <time>2021-11-16T18:52:31.218Z</time>
      </trkpt>
      <trkpt lat="39.37768" lon="31.03744">
        <ele>874.961089</ele>
        <time>2021-11-16T18:52:34.645Z</time>
      </trkpt>
      <trkpt lat="39.37765" lon="31.03718">
        <ele>874.708164</ele>
        <time>2021-11-16T18:52:38.156Z</time>
      </trkpt>
      <trkpt lat="39.37764" lon="31.03664">
        <ele>874.168782</ele>
        <time>2021-11-16T18:52:45.919Z</time>
      </trkpt>
      <trkpt lat="39.3774" lon="31.03646">
        <ele>873.812633</ele>
        <time>2021-11-16T18:52:51.350Z</time>
      </trkpt>
      <trkpt lat="39.37727" lon="31.03633">
        <ele>873.599257</ele>
        <time>2021-11-16T18:52:54.783Z</time>
      </trkpt>
      <trkpt lat="39.37692" lon="31.03595">
        <ele>873.076762</ele>
        <time>2021-11-16T18:53:04.125Z</time>
      </trkpt>
      <trkpt lat="39.37642" lon="31.03566">
        <ele>872.681984</ele>
        <time>2021-11-16T18:53:15.483Z</time>
      </trkpt>
      <trkpt lat="39.37607" lon="31.03552">
        <ele>872.421745</ele>
        <time>2021-11-16T18:53:23.044Z</time>
      </trkpt>
      <trkpt lat="39.37551" lon="31.03522">
        <ele>871.982495</ele>
        <time>2021-11-16T18:53:35.854Z</time>
      </trkpt>
      <trkpt lat="39.37495" lon="31.03494">
        <ele>871.557327</ele>
        <time>2021-11-16T18:53:48.471Z</time>
      </trkpt>
      <trkpt lat="39.37443" lon="31.0347">
        <ele>871.170715</ele>
        <time>2021-11-16T18:54:00.099Z</time>
      </trkpt>
      <trkpt lat="39.37388" lon="31.03444">
        <ele>870.759812</ele>
        <time>2021-11-16T18:54:12.545Z</time>
      </trkpt>
      <trkpt lat="39.37266" lon="31.03411">
        <ele>870.092735</ele>
        <time>2021-11-16T18:54:37.940Z</time>
      </trkpt>
      <trkpt lat="39.37154" lon="31.03382">
        <ele>869.883761</ele>
        <time>2021-11-16T18:55:03.762Z</time>
      </trkpt>
      <trkpt lat="39.37146" lon="31.0338">
        <ele>869.923192</ele>
        <time>2021-11-16T18:55:05.602Z</time>
      </trkpt>
      <trkpt lat="39.37115" lon="31.0338">
        <ele>870.085489</ele>
        <time>2021-11-16T18:55:13.366Z</time>
      </trkpt>
      <trkpt lat="39.37107" lon="31.03381">
        <ele>870.124869</ele>
        <time>2021-11-16T18:55:15.207Z</time>
      </trkpt>
      <trkpt lat="39.37094" lon="31.03378">
        <ele>870.194863</ele>
        <time>2021-11-16T18:55:20.377Z</time>
      </trkpt>
      <trkpt lat="39.37081" lon="31.03365">
        <ele>870.277914</ele>
        <time>2021-11-16T18:55:26.944Z</time>
      </trkpt>
      <trkpt lat="39.36988" lon="31.03337">
        <ele>870.939125</ele>
        <time>2021-11-16T18:56:06.431Z</time>
      </trkpt>
      <trkpt lat="39.37018" lon="31.03087">
        <ele>872.883092</ele>
        <time>2021-11-16T18:56:59.195Z</time>
      </trkpt>
      <trkpt lat="39.37036" lon="31.0297">
        <ele>873.390619</ele>
        <time>2021-11-16T18:57:21.054Z</time>
      </trkpt>
      <trkpt lat="39.37035" lon="31.0288">
        <ele>873.666455</ele>
        <time>2021-11-16T18:57:37.090Z</time>
      </trkpt>
      <trkpt lat="39.37024" lon="31.0283">
        <ele>873.718564</ele>
        <time>2021-11-16T18:57:46.113Z</time>
      </trkpt>
      <trkpt lat="39.37006" lon="31.02775">
        <ele>873.778297</ele>
        <time>2021-11-16T18:57:56.490Z</time>
      </trkpt>
      <trkpt lat="39.36981" lon="31.02715">
        <ele>873.84749</ele>
        <time>2021-11-16T18:58:08.523Z</time>
      </trkpt>
      <trkpt lat="39.36636" lon="31.02128">
        <ele>875.1977</ele>
        <time>2021-11-16T19:00:20.298Z</time>
      </trkpt>
      <trkpt lat="39.36441" lon="31.01784">
        <ele>877.016418</ele>
        <time>2021-11-16T19:01:41.107Z</time>
      </trkpt>
      <trkpt lat="39.36366" lon="31.01653">
        <ele>877.697162</ele>
        <time>2021-11-16T19:02:12.688Z</time>
      </trkpt>
      <trkpt lat="39.36317" lon="31.01582">
        <ele>878.059997</ele>
        <time>2021-11-16T19:02:30.296Z</time>
      </trkpt>
      <trkpt lat="39.36237" lon="31.01508">
        <ele>878.020491</ele>
        <time>2021-11-16T19:02:52.350Z</time>
      </trkpt>
      <trkpt lat="39.35872" lon="31.01195">
        <ele>877.216951</ele>
        <time>2021-11-16T19:04:25.492Z</time>
      </trkpt>
      <trkpt lat="39.35743" lon="31.01088">
        <ele>878.040956</ele>
        <time>2021-11-16T19:05:03.290Z</time>
      </trkpt>
      <trkpt lat="39.3566" lon="31.01013">
        <ele>878.434175</ele>
        <time>2021-11-16T19:05:28.869Z</time>
      </trkpt>
      <trkpt lat="39.31995" lon="30.97837">
        <ele>893.590055</ele>
        <time>2021-11-16T19:22:49.017Z</time>
      </trkpt>
      <trkpt lat="39.31413" lon="30.97338">
        <ele>898.208172</ele>
        <time>2021-11-16T19:25:43.720Z</time>
      </trkpt>
      <trkpt lat="39.31372" lon="30.97312">
        <ele>898.411105</ele>
        <time>2021-11-16T19:25:54.679Z</time>
      </trkpt>
      <trkpt lat="39.31321" lon="30.97289">
        <ele>898.486981</ele>
        <time>2021-11-16T19:26:07.645Z</time>
      </trkpt>
      <trkpt lat="39.30502" lon="30.97044">
        <ele>899.784071</ele>
        <time>2021-11-16T19:29:18.114Z</time>
      </trkpt>
      <trkpt lat="39.30422" lon="30.97039">
        <ele>900.499436</ele>
        <time>2021-11-16T19:29:37.926Z</time>
      </trkpt>
      <trkpt lat="39.302" lon="30.97057">
        <ele>903.023241</ele>
        <time>2021-11-16T19:30:39.263Z</time>
      </trkpt>
      <trkpt lat="39.3007" lon="30.9707">
        <ele>904.586136</ele>
        <time>2021-11-16T19:31:14.367Z</time>
      </trkpt>
      <trkpt lat="39.3005" lon="30.97065">
        <ele>904.815031</ele>
        <time>2021-11-16T19:31:19.395Z</time>
      </trkpt>
      <trkpt lat="39.30017" lon="30.97017">
        <ele>905.391289</ele>
        <time>2021-11-16T19:31:32.966Z</time>
      </trkpt>
      <trkpt lat="39.29982" lon="30.96953">
        <ele>906.190051</ele>
        <time>2021-11-16T19:31:48.860Z</time>
      </trkpt>
      <trkpt lat="39.29875" lon="30.96764">
        <ele>908.818168</ele>
        <time>2021-11-16T19:32:40.761Z</time>
      </trkpt>
      <trkpt lat="39.29633" lon="30.96338">
        <ele>914.428286</ele>
        <time>2021-11-16T19:34:34.334Z</time>
      </trkpt>
      <trkpt lat="39.29481" lon="30.96071">
        <ele>917.634927</ele>
        <time>2021-11-16T19:35:43.778Z</time>
      </trkpt>
      <trkpt lat="39.2934" lon="30.9582">
        <ele>920.958333</ele>
        <time>2021-11-16T19:36:49.944Z</time>
      </trkpt>
      <trkpt lat="39.28235" lon="30.93805">
        <ele>952.799702</ele>
        <time>2021-11-16T19:46:01.716Z</time>
      </trkpt>
      <trkpt lat="39.25553" lon="30.90728">
        <ele>1047.421501</ele>
        <time>2021-11-16T20:05:36.307Z</time>
      </trkpt>
      <trkpt lat="39.25521" lon="30.90697">
        <ele>1048.794781</ele>
        <time>2021-11-16T20:05:52.201Z</time>
      </trkpt>
      <trkpt lat="39.25293" lon="30.90513">
        <ele>1062.133087</ele>
        <time>2021-11-16T20:07:48.735Z</time>
      </trkpt>
      <trkpt lat="39.25077" lon="30.90327">
        <ele>1073.37187</ele>
        <time>2021-11-16T20:09:30.838Z</time>
      </trkpt>
      <trkpt lat="39.24745" lon="30.90052">
        <ele>1086.806639</ele>
        <time>2021-11-16T20:11:50.339Z</time>
      </trkpt>
      <trkpt lat="39.2452" lon="30.89865">
        <ele>1096.535247</ele>
        <time>2021-11-16T20:13:32.199Z</time>
      </trkpt>
      <trkpt lat="39.24242" lon="30.89626">
        <ele>1105.160642</ele>
        <time>2021-11-16T20:15:20.846Z</time>
      </trkpt>
      <trkpt lat="39.23726" lon="30.8881">
        <ele>1117.043733</ele>
        <time>2021-11-16T20:19:07.003Z</time>
      </trkpt>
      <trkpt lat="39.23714" lon="30.88778">
        <ele>1117.480112</ele>
        <time>2021-11-16T20:19:15.402Z</time>
      </trkpt>
      <trkpt lat="39.23712" lon="30.88718">
        <ele>1118.210043</ele>
        <time>2021-11-16T20:19:29.333Z</time>
      </trkpt>
      <trkpt lat="39.23729" lon="30.88678">
        <ele>1118.76636</ele>
        <time>2021-11-16T20:19:39.857Z</time>
      </trkpt>
      <trkpt lat="39.23829" lon="30.88305">
        <ele>1122.99781</ele>
        <time>2021-11-16T20:21:02.580Z</time>
      </trkpt>
      <trkpt lat="39.23964" lon="30.87822">
        <ele>1129.022979</ele>
        <time>2021-11-16T20:22:58.883Z</time>
      </trkpt>
      <trkpt lat="39.24075" lon="30.86801">
        <ele>1131.373851</ele>
        <time>2021-11-16T20:26:04.175Z</time>
      </trkpt>
      <trkpt lat="39.24083" lon="30.86691">
        <ele>1130.246518</ele>
        <time>2021-11-16T20:26:21.116Z</time>
      </trkpt>
      <trkpt lat="39.23871" lon="30.84599">
        <ele>1109.018242</ele>
        <time>2021-11-16T20:31:24.537Z</time>
      </trkpt>
      <trkpt lat="39.23868" lon="30.8453">
        <ele>1108.501768</ele>
        <time>2021-11-16T20:31:35.434Z</time>
      </trkpt>
      <trkpt lat="39.23879" lon="30.8447">
        <ele>1108.259792</ele>
        <time>2021-11-16T20:31:45.270Z</time>
      </trkpt>
      <trkpt lat="39.24215" lon="30.83317">
        <ele>1108.154568</ele>
        <time>2021-11-16T20:35:17.406Z</time>
      </trkpt>
      <trkpt lat="39.24215" lon="30.83316">
        <ele>1108.155858</ele>
        <time>2021-11-16T20:35:17.653Z</time>
      </trkpt>
      <trkpt lat="39.24279" lon="30.83113">
        <ele>1108.634225</ele>
        <time>2021-11-16T20:35:56.909Z</time>
      </trkpt>
      <trkpt lat="39.24286" lon="30.83091">
        <ele>1108.713642</ele>
        <time>2021-11-16T20:36:01.347Z</time>
      </trkpt>
      <trkpt lat="39.24334" lon="30.82926">
        <ele>1109.40506</ele>
        <time>2021-11-16T20:36:35.151Z</time>
      </trkpt>
      <trkpt lat="39.24357" lon="30.82848">
        <ele>1109.824488</ele>
        <time>2021-11-16T20:36:51.296Z</time>
      </trkpt>
      <trkpt lat="39.24385" lon="30.82744">
        <ele>1110.350255</ele>
        <time>2021-11-16T20:37:12.552Z</time>
      </trkpt>
      <trkpt lat="39.24402" lon="30.82688">
        <ele>1110.538307</ele>
        <time>2021-11-16T20:37:23.825Z</time>
      </trkpt>
      <trkpt lat="39.24411" lon="30.82665">
        <ele>1110.620171</ele>
        <time>2021-11-16T20:37:28.696Z</time>
      </trkpt>
      <trkpt lat="39.2446" lon="30.82484">
        <ele>1111.207658</ele>
        <time>2021-11-16T20:38:03.470Z</time>
      </trkpt>
      <trkpt lat="39.24461" lon="30.82478">
        <ele>1111.226311</ele>
        <time>2021-11-16T20:38:04.623Z</time>
      </trkpt>
      <trkpt lat="39.24456" lon="30.82454">
        <ele>1111.298844</ele>
        <time>2021-11-16T20:38:08.975Z</time>
      </trkpt>
      <trkpt lat="39.24452" lon="30.82414">
        <ele>1111.416808</ele>
        <time>2021-11-16T20:38:16.177Z</time>
      </trkpt>
      <trkpt lat="39.24406" lon="30.82179">
        <ele>1112.678752</ele>
        <time>2021-11-16T20:39:02.121Z</time>
      </trkpt>
      <trkpt lat="39.24147" lon="30.80903">
        <ele>1126.818813</ele>
        <time>2021-11-16T20:43:46.860Z</time>
      </trkpt>
      <trkpt lat="39.24128" lon="30.80824">
        <ele>1127.863302</ele>
        <time>2021-11-16T20:44:05.027Z</time>
      </trkpt>
      <trkpt lat="39.24075" lon="30.8071">
        <ele>1130.004429</ele>
        <time>2021-11-16T20:44:35.244Z</time>
      </trkpt>
      <trkpt lat="39.22766" lon="30.78233">
        <ele>1195.05621</ele>
        <time>2021-11-16T20:57:34.496Z</time>
      </trkpt>
      <trkpt lat="39.22734" lon="30.78185">
        <ele>1196.212329</ele>
        <time>2021-11-16T20:57:50.774Z</time>
      </trkpt>
      <trkpt lat="39.21824" lon="30.77045">
        <ele>1225.382445</ele>
        <time>2021-11-16T21:04:30.960Z</time>
      </trkpt>
      <trkpt lat="39.21774" lon="30.76996">
        <ele>1226.38436</ele>
        <time>2021-11-16T21:04:48.428Z</time>
      </trkpt>
      <trkpt lat="39.2156" lon="30.7684">
        <ele>1226.937278</ele>
        <time>2021-11-16T21:05:46.105Z</time>
      </trkpt>
      <trkpt lat="39.21537" lon="30.76828">
        <ele>1226.574695</ele>
        <time>2021-11-16T21:05:50.607Z</time>
      </trkpt>
      <trkpt lat="39.21533" lon="30.76823">
        <ele>1226.478489</ele>
        <time>2021-11-16T21:05:51.926Z</time>
      </trkpt>
      <trkpt lat="39.21516" lon="30.768">
        <ele>1226.115329</ele>
        <time>2021-11-16T21:05:56.337Z</time>
      </trkpt>
      <trkpt lat="39.21486" lon="30.76755">
        <ele>1225.423854</ele>
        <time>2021-11-16T21:06:04.651Z</time>
      </trkpt>
      <trkpt lat="39.21483" lon="30.76749">
        <ele>1225.349802</ele>
        <time>2021-11-16T21:06:05.589Z</time>
      </trkpt>
      <trkpt lat="39.21478" lon="30.76722">
        <ele>1225.019215</ele>
        <time>2021-11-16T21:06:09.297Z</time>
      </trkpt>
      <trkpt lat="39.21371" lon="30.76205">
        <ele>1212.995037</ele>
        <time>2021-11-16T21:07:16.732Z</time>
      </trkpt>
      <trkpt lat="39.21344" lon="30.76084">
        <ele>1211.659742</ele>
        <time>2021-11-16T21:07:34.661Z</time>
      </trkpt>
      <trkpt lat="39.21296" lon="30.75879">
        <ele>1212.181366</ele>
        <time>2021-11-16T21:08:14.783Z</time>
      </trkpt>
      <trkpt lat="39.21039" lon="30.74684">
        <ele>1230.9577</ele>
        <time>2021-11-16T21:13:06.309Z</time>
      </trkpt>
      <trkpt lat="39.21" lon="30.74472">
        <ele>1234.535306</ele>
        <time>2021-11-16T21:13:56.589Z</time>
      </trkpt>
      <trkpt lat="39.20904" lon="30.74169">
        <ele>1243.291209</ele>
        <time>2021-11-16T21:15:28.598Z</time>
      </trkpt>
      <trkpt lat="39.20806" lon="30.73881">
        <ele>1253.10351</ele>
        <time>2021-11-16T21:17:03.495Z</time>
      </trkpt>
      <trkpt lat="39.20781" lon="30.73793">
        <ele>1256.104771</ele>
        <time>2021-11-16T21:17:31.115Z</time>
      </trkpt>
      <trkpt lat="39.20788" lon="30.73719">
        <ele>1258.508853</ele>
        <time>2021-11-16T21:17:53.098Z</time>
      </trkpt>
      <trkpt lat="39.20805" lon="30.7363">
        <ele>1261.4735</ele>
        <time>2021-11-16T21:18:20.786Z</time>
      </trkpt>
      <trkpt lat="39.20833" lon="30.73524">
        <ele>1265.249195</ele>
        <time>2021-11-16T21:18:56.054Z</time>
      </trkpt>
      <trkpt lat="39.2088" lon="30.73414">
        <ele>1269.575354</ele>
        <time>2021-11-16T21:19:35.279Z</time>
      </trkpt>
      <trkpt lat="39.20893" lon="30.73366">
        <ele>1271.23095</ele>
        <time>2021-11-16T21:19:50.728Z</time>
      </trkpt>
      <trkpt lat="39.20899" lon="30.73332">
        <ele>1272.225194</ele>
        <time>2021-11-16T21:20:01.109Z</time>
      </trkpt>
      <trkpt lat="39.20903" lon="30.73228">
        <ele>1275.191149</ele>
        <time>2021-11-16T21:20:31.017Z</time>
      </trkpt>
      <trkpt lat="39.20895" lon="30.73155">
        <ele>1277.312626</ele>
        <time>2021-11-16T21:20:51.381Z</time>
      </trkpt>
      <trkpt lat="39.20764" lon="30.72499">
        <ele>1292.68777</ele>
        <time>2021-11-16T21:23:51.436Z</time>
      </trkpt>
      <trkpt lat="39.20749" lon="30.72457">
        <ele>1293.293844</ele>
        <time>2021-11-16T21:24:01.940Z</time>
      </trkpt>
      <trkpt lat="39.20479" lon="30.71865">
        <ele>1297.309257</ele>
        <time>2021-11-16T21:26:14.353Z</time>
      </trkpt>
      <trkpt lat="39.20431" lon="30.71744">
        <ele>1298.216068</ele>
        <time>2021-11-16T21:26:40.292Z</time>
      </trkpt>
      <trkpt lat="39.20408" lon="30.71659">
        <ele>1298.901683</ele>
        <time>2021-11-16T21:26:59.038Z</time>
      </trkpt>
      <trkpt lat="39.20393" lon="30.71608">
        <ele>1299.809149</ele>
        <time>2021-11-16T21:27:10.951Z</time>
      </trkpt>
      <trkpt lat="39.20383" lon="30.71599">
        <ele>1300.061637</ele>
        <time>2021-11-16T21:27:14.880Z</time>
      </trkpt>
      <trkpt lat="39.2034" lon="30.71567">
        <ele>1301.142882</ele>
        <time>2021-11-16T21:27:30.263Z</time>
      </trkpt>
      <trkpt lat="39.20276" lon="30.71587">
        <ele>1302.548633</ele>
        <time>2021-11-16T21:27:52.721Z</time>
      </trkpt>
      <trkpt lat="39.20196" lon="30.71637">
        <ele>1305.448031</ele>
        <time>2021-11-16T21:28:25.042Z</time>
      </trkpt>
      <trkpt lat="39.2018" lon="30.71636">
        <ele>1305.971517</ele>
        <time>2021-11-16T21:28:30.592Z</time>
      </trkpt>
      <trkpt lat="39.20166" lon="30.71642">
        <ele>1306.445811</ele>
        <time>2021-11-16T21:28:36.138Z</time>
      </trkpt>
      <trkpt lat="39.20153" lon="30.71619">
        <ele>1307.154695</ele>
        <time>2021-11-16T21:28:43.742Z</time>
      </trkpt>
      <trkpt lat="39.20136" lon="30.71585">
        <ele>1308.19725</ele>
        <time>2021-11-16T21:28:55.498Z</time>
      </trkpt>
      <trkpt lat="39.20108" lon="30.71493">
        <ele>1311.513714</ele>
        <time>2021-11-16T21:29:24.346Z</time>
      </trkpt>
      <trkpt lat="39.20073" lon="30.7151">
        <ele>1313.164239</ele>
        <time>2021-11-16T21:29:39.196Z</time>
      </trkpt>
      <trkpt lat="39.2004" lon="30.71526">
        <ele>1314.7561</ele>
        <time>2021-11-16T21:29:53.034Z</time>
      </trkpt>
      <trkpt lat="39.20037" lon="30.71527">
        <ele>1314.909309</ele>
        <time>2021-11-16T21:29:54.358Z</time>
      </trkpt>
      <trkpt lat="39.2001" lon="30.7153">
        <ele>1316.142284</ele>
        <time>2021-11-16T21:30:06.734Z</time>
      </trkpt>
      <trkpt lat="39.19993" lon="30.7153">
        <ele>1316.890681</ele>
        <time>2021-11-16T21:30:13.998Z</time>
      </trkpt>
      <trkpt lat="39.19974" lon="30.71536">
        <ele>1317.848457</ele>
        <time>2021-11-16T21:30:24.154Z</time>
      </trkpt>
      <trkpt lat="39.19992" lon="30.71496">
        <ele>1319.55762</ele>
        <time>2021-11-16T21:30:49.143Z</time>
      </trkpt>
      <trkpt lat="39.20025" lon="30.71452">
        <ele>1321.851702</ele>
        <time>2021-11-16T21:31:19.837Z</time>
      </trkpt>
      <trkpt lat="39.20039" lon="30.71435">
        <ele>1322.801777</ele>
        <time>2021-11-16T21:31:33.493Z</time>
      </trkpt>
      <trkpt lat="39.2004" lon="30.71434">
        <ele>1322.855041</ele>
        <time>2021-11-16T21:31:34.274Z</time>
      </trkpt>
      <trkpt lat="39.20057" lon="30.7141">
        <ele>1324.054765</ele>
        <time>2021-11-16T21:31:51.518Z</time>
      </trkpt>
      <trkpt lat="39.20062" lon="30.71397">
        <ele>1324.591168</ele>
        <time>2021-11-16T21:31:59.261Z</time>
      </trkpt>
      <trkpt lat="39.20062" lon="30.71386">
        <ele>1325.021619</ele>
        <time>2021-11-16T21:32:05.447Z</time>
      </trkpt>
      <trkpt lat="39.20056" lon="30.71374">
        <ele>1325.159926</ele>
        <time>2021-11-16T21:32:12.910Z</time>
      </trkpt>
      <trkpt lat="39.20044" lon="30.71371">
        <ele>1324.842024</ele>
        <time>2021-11-16T21:32:21.448Z</time>
      </trkpt>
      <trkpt lat="39.20028" lon="30.7137">
        <ele>1324.432326</ele>
        <time>2021-11-16T21:32:32.449Z</time>
      </trkpt>
      <trkpt lat="39.20044" lon="30.71371">
        <ele>1324.022627</ele>
        <time>2021-11-16T21:32:43.451Z</time>
      </trkpt>
      <trkpt lat="39.20056" lon="30.71374">
        <ele>1323.704725</ele>
        <time>2021-11-16T21:32:51.989Z</time>
      </trkpt>
      <trkpt lat="39.20062" lon="30.71386">
        <ele>1323.42777</ele>
        <time>2021-11-16T21:32:59.451Z</time>
      </trkpt>
      <trkpt lat="39.20062" lon="30.71397">
        <ele>1323.197249</ele>
        <time>2021-11-16T21:33:05.638Z</time>
      </trkpt>
      <trkpt lat="39.20057" lon="30.7141">
        <ele>1322.909989</ele>
        <time>2021-11-16T21:33:13.381Z</time>
      </trkpt>
      <trkpt lat="39.2004" lon="30.71434">
        <ele>1322.267498</ele>
        <time>2021-11-16T21:33:30.624Z</time>
      </trkpt>
      <trkpt lat="39.20039" lon="30.71435">
        <ele>1322.238974</ele>
        <time>2021-11-16T21:33:31.405Z</time>
      </trkpt>
      <trkpt lat="39.20025" lon="30.71452">
        <ele>1321.730178</ele>
        <time>2021-11-16T21:33:45.062Z</time>
      </trkpt>
      <trkpt lat="39.19992" lon="30.71496">
        <ele>1320.323869</ele>
        <time>2021-11-16T21:33:57.450Z</time>
      </trkpt>
      <trkpt lat="39.19974" lon="30.71536">
        <ele>1318.238628</ele>
        <time>2021-11-16T21:34:06.374Z</time>
      </trkpt>
      <trkpt lat="39.19993" lon="30.7153">
        <ele>1317.070105</ele>
        <time>2021-11-16T21:34:09.334Z</time>
      </trkpt>
      <trkpt lat="39.2001" lon="30.7153">
        <ele>1316.115645</ele>
        <time>2021-11-16T21:34:11.830Z</time>
      </trkpt>
      <trkpt lat="39.20037" lon="30.71527">
        <ele>1314.501456</ele>
        <time>2021-11-16T21:34:16.092Z</time>
      </trkpt>
      <trkpt lat="39.2004" lon="30.71526">
        <ele>1314.300876</ele>
        <time>2021-11-16T21:34:16.649Z</time>
      </trkpt>
      <trkpt lat="39.20073" lon="30.7151">
        <ele>1312.216838</ele>
        <time>2021-11-16T21:34:22.231Z</time>
      </trkpt>
      <trkpt lat="39.20108" lon="30.71493">
        <ele>1310.055999</ele>
        <time>2021-11-16T21:34:28.012Z</time>
      </trkpt>
      <trkpt lat="39.20146" lon="30.71477">
        <ele>1308.294398</ele>
        <time>2021-11-16T21:34:34.449Z</time>
      </trkpt>
      <trkpt lat="39.20181" lon="30.7146">
        <ele>1306.629294</ele>
        <time>2021-11-16T21:34:40.580Z</time>
      </trkpt>
      <trkpt lat="39.20201" lon="30.71452">
        <ele>1305.730781</ele>
        <time>2021-11-16T21:34:43.898Z</time>
      </trkpt>
      <trkpt lat="39.20228" lon="30.71454">
        <ele>1304.535821</ele>
        <time>2021-11-16T21:34:48.309Z</time>
      </trkpt>
      <trkpt lat="39.20303" lon="30.71453">
        <ele>1301.5389</ele>
        <time>2021-11-16T21:35:00.579Z</time>
      </trkpt>
      <trkpt lat="39.20363" lon="30.71482">
        <ele>1299.619332</ele>
        <time>2021-11-16T21:35:11.390Z</time>
      </trkpt>
      <trkpt lat="39.20404" lon="30.71501">
        <ele>1298.300639</ele>
        <time>2021-11-16T21:35:19.224Z</time>
      </trkpt>
      <trkpt lat="39.20414" lon="30.71514">
        <ele>1297.862481</ele>
        <time>2021-11-16T21:35:21.925Z</time>
      </trkpt>
      <trkpt lat="39.20559" lon="30.71504">
        <ele>1293.737939</ele>
        <time>2021-11-16T21:35:46.533Z</time>
      </trkpt>
      <trkpt lat="39.20816" lon="30.71528">
        <ele>1285.640008</ele>
        <time>2021-11-16T21:36:28.342Z</time>
      </trkpt>
      <trkpt lat="39.20887" lon="30.7153">
        <ele>1283.557355</ele>
        <time>2021-11-16T21:36:39.955Z</time>
      </trkpt>
      <trkpt lat="39.20952" lon="30.71521">
        <ele>1281.668035</ele>
        <time>2021-11-16T21:36:50.690Z</time>
      </trkpt>
      <trkpt lat="39.21181" lon="30.71467">
        <ele>1275.988013</ele>
        <time>2021-11-16T21:37:30.712Z</time>
      </trkpt>
      <trkpt lat="39.21255" lon="30.71443">
        <ele>1274.195076</ele>
        <time>2021-11-16T21:37:43.760Z</time>
      </trkpt>
      <trkpt lat="39.21344" lon="30.71413">
        <ele>1272.046154</ele>
        <time>2021-11-16T21:37:59.448Z</time>
      </trkpt>
      <trkpt lat="39.21401" lon="30.71382">
        <ele>1270.791111</ele>
        <time>2021-11-16T21:38:10.152Z</time>
      </trkpt>
      <trkpt lat="39.21484" lon="30.71312">
        <ele>1268.787078</ele>
        <time>2021-11-16T21:38:27.676Z</time>
      </trkpt>
      <trkpt lat="39.21619" lon="30.71164">
        <ele>1266.093474</ele>
        <time>2021-11-16T21:39:00.346Z</time>
      </trkpt>
      <trkpt lat="39.21791" lon="30.71057">
        <ele>1263.203912</ele>
        <time>2021-11-16T21:39:35.524Z</time>
      </trkpt>
      <trkpt lat="39.21814" lon="30.71043">
        <ele>1262.760155</ele>
        <time>2021-11-16T21:39:40.020Z</time>
      </trkpt>
      <trkpt lat="39.21866" lon="30.7101">
        <ele>1261.679039</ele>
        <time>2021-11-16T21:39:50.194Z</time>
      </trkpt>
      <trkpt lat="39.21943" lon="30.70977">
        <ele>1260.169629</ele>
        <time>2021-11-16T21:40:04.456Z</time>
      </trkpt>
      <trkpt lat="39.21981" lon="30.70963">
        <ele>1259.522152</ele>
        <time>2021-11-16T21:40:11.440Z</time>
      </trkpt>
      <trkpt lat="39.22207" lon="30.70885">
        <ele>1256.196568</ele>
        <time>2021-11-16T21:40:55.386Z</time>
      </trkpt>
      <trkpt lat="39.22266" lon="30.70858">
        <ele>1255.23556</ele>
        <time>2021-11-16T21:41:07.084Z</time>
      </trkpt>
      <trkpt lat="39.22443" lon="30.70719">
        <ele>1251.278263</ele>
        <time>2021-11-16T21:41:43.345Z</time>
      </trkpt>
      <trkpt lat="39.22474" lon="30.70694">
        <ele>1250.544904</ele>
        <time>2021-11-16T21:41:49.663Z</time>
      </trkpt>
      <trkpt lat="39.2273" lon="30.70492">
        <ele>1244.666636</ele>
        <time>2021-11-16T21:42:42.668Z</time>
      </trkpt>
      <trkpt lat="39.22807" lon="30.70433">
        <ele>1243.176853</ele>
        <time>2021-11-16T21:42:58.685Z</time>
      </trkpt>
      <trkpt lat="39.22825" lon="30.70422">
        <ele>1242.885926</ele>
        <time>2021-11-16T21:43:02.239Z</time>
      </trkpt>
      <trkpt lat="39.22965" lon="30.70338">
        <ele>1241.177506</ele>
        <time>2021-11-16T21:43:31.168Z</time>
      </trkpt>
      <trkpt lat="39.22987" lon="30.70325">
        <ele>1241.119377</ele>
        <time>2021-11-16T21:43:36.347Z</time>
      </trkpt>
      <trkpt lat="39.23" lon="30.70324">
        <ele>1241.091011</ele>
        <time>2021-11-16T21:43:38.935Z</time>
      </trkpt>
      <trkpt lat="39.23015" lon="30.70326">
        <ele>1241.055838</ele>
        <time>2021-11-16T21:43:42.202Z</time>
      </trkpt>
      <trkpt lat="39.23028" lon="30.7033">
        <ele>1241.024659</ele>
        <time>2021-11-16T21:43:45.175Z</time>
      </trkpt>
      <trkpt lat="39.23038" lon="30.7033">
        <ele>1241.001834</ele>
        <time>2021-11-16T21:43:47.314Z</time>
      </trkpt>
      <trkpt lat="39.23049" lon="30.70326">
        <ele>1240.976697</ele>
        <time>2021-11-16T21:43:49.770Z</time>
      </trkpt>
      <trkpt lat="39.23072" lon="30.70312">
        <ele>1240.917609</ele>
        <time>2021-11-16T21:43:55.695Z</time>
      </trkpt>
      <trkpt lat="39.23093" lon="30.70307">
        <ele>1240.867666</ele>
        <time>2021-11-16T21:44:00.994Z</time>
      </trkpt>
      <trkpt lat="39.23125" lon="30.70312">
        <ele>1241.2963</ele>
        <time>2021-11-16T21:44:09.357Z</time>
      </trkpt>
      <trkpt lat="39.23153" lon="30.70313">
        <ele>1241.705536</ele>
        <time>2021-11-16T21:44:16.643Z</time>
      </trkpt>
      <trkpt lat="39.23158" lon="30.70304">
        <ele>1241.840483</ele>
        <time>2021-11-16T21:44:19.230Z</time>
      </trkpt>
      <trkpt lat="39.2318" lon="30.70289">
        <ele>1242.209029</ele>
        <time>2021-11-16T21:44:25.932Z</time>
      </trkpt>
      <trkpt lat="39.23209" lon="30.70279">
        <ele>1242.66768</ele>
        <time>2021-11-16T21:44:34.597Z</time>
      </trkpt>
      <trkpt lat="39.23229" lon="30.70207">
        <ele>1243.554759</ele>
        <time>2021-11-16T21:44:52.639Z</time>
      </trkpt>
      <trkpt lat="39.2324" lon="30.70186">
        <ele>1244.065148</ele>
        <time>2021-11-16T21:44:59.020Z</time>
      </trkpt>
      <trkpt lat="39.23388" lon="30.69997">
        <ele>1249.023197</ele>
        <time>2021-11-16T21:46:08.038Z</time>
      </trkpt>
      <trkpt lat="39.23543" lon="30.69786">
        <ele>1251.835234</ele>
        <time>2021-11-16T21:47:09.081Z</time>
      </trkpt>
      <trkpt lat="39.23603" lon="30.69675">
        <ele>1252.379012</ele>
        <time>2021-11-16T21:47:32.334Z</time>
      </trkpt>
      <trkpt lat="39.23773" lon="30.69396">
        <ele>1253.07394</ele>
        <time>2021-11-16T21:48:32.829Z</time>
      </trkpt>
      <trkpt lat="39.23868" lon="30.69249">
        <ele>1255.707339</ele>
        <time>2021-11-16T21:49:17.457Z</time>
      </trkpt>
      <trkpt lat="39.23922" lon="30.69178">
        <ele>1257.752366</ele>
        <time>2021-11-16T21:49:44.565Z</time>
      </trkpt>
      <trkpt lat="39.24207" lon="30.6903">
        <ele>1266.325604</ele>
        <time>2021-11-16T21:51:33.939Z</time>
      </trkpt>
      <trkpt lat="39.24504" lon="30.68886">
        <ele>1267.259283</ele>
        <time>2021-11-16T21:52:44.158Z</time>
      </trkpt>
      <trkpt lat="39.2455" lon="30.6886">
        <ele>1266.911963</ele>
        <time>2021-11-16T21:52:53.620Z</time>
      </trkpt>
      <trkpt lat="39.24646" lon="30.68782">
        <ele>1266.299975</ele>
        <time>2021-11-16T21:53:15.339Z</time>
      </trkpt>
      <trkpt lat="39.248" lon="30.68641">
        <ele>1266.447553</ele>
        <time>2021-11-16T21:53:56.761Z</time>
      </trkpt>
      <trkpt lat="39.24919" lon="30.68535">
        <ele>1268.150418</ele>
        <time>2021-11-16T21:54:37.265Z</time>
      </trkpt>
      <trkpt lat="39.25033" lon="30.68433">
        <ele>1271.11869</ele>
        <time>2021-11-16T21:55:20.990Z</time>
      </trkpt>
      <trkpt lat="39.251" lon="30.68391">
        <ele>1272.631681</ele>
        <time>2021-11-16T21:55:44.206Z</time>
      </trkpt>
      <trkpt lat="39.25531" lon="30.683">
        <ele>1281.677248</ele>
        <time>2021-11-16T21:57:55.393Z</time>
      </trkpt>
      <trkpt lat="39.25589" lon="30.68289">
        <ele>1283.070397</ele>
        <time>2021-11-16T21:58:15.000Z</time>
      </trkpt>
      <trkpt lat="39.26109" lon="30.68186">
        <ele>1300.206369</ele>
        <time>2021-11-16T22:01:20.518Z</time>
      </trkpt>
      <trkpt lat="39.26709" lon="30.6807">
        <ele>1323.568947</ele>
        <time>2021-11-16T22:05:15.132Z</time>
      </trkpt>
      <trkpt lat="39.2676" lon="30.68047">
        <ele>1324.677508</ele>
        <time>2021-11-16T22:05:30.653Z</time>
      </trkpt>
      <trkpt lat="39.26797" lon="30.67995">
        <ele>1325.814472</ele>
        <time>2021-11-16T22:05:44.671Z</time>
      </trkpt>
      <trkpt lat="39.26849" lon="30.67932">
        <ele>1325.385005</ele>
        <time>2021-11-16T22:05:59.625Z</time>
      </trkpt>
      <trkpt lat="39.2686" lon="30.67919">
        <ele>1325.242319</ele>
        <time>2021-11-16T22:06:02.496Z</time>
      </trkpt>
      <trkpt lat="39.26939" lon="30.67813">
        <ele>1324.028753</ele>
        <time>2021-11-16T22:06:23.448Z</time>
      </trkpt>
      <trkpt lat="39.27007" lon="30.67744">
        <ele>1322.260759</ele>
        <time>2021-11-16T22:06:38.744Z</time>
      </trkpt>
      <trkpt lat="39.27011" lon="30.67742">
        <ele>1322.176337</ele>
        <time>2021-11-16T22:06:39.409Z</time>
      </trkpt>
      <trkpt lat="39.27048" lon="30.67715">
        <ele>1321.315187</ele>
        <time>2021-11-16T22:06:46.640Z</time>
      </trkpt>
      <trkpt lat="39.27102" lon="30.67708">
        <ele>1320.234461</ele>
        <time>2021-11-16T22:06:56.016Z</time>
      </trkpt>
      <trkpt lat="39.27157" lon="30.677">
        <ele>1319.198078</ele>
        <time>2021-11-16T22:07:05.431Z</time>
      </trkpt>
      <trkpt lat="39.27166" lon="30.67699">
        <ele>1319.020871</ele>
        <time>2021-11-16T22:07:07.019Z</time>
      </trkpt>
      <trkpt lat="39.27312" lon="30.67667">
        <ele>1316.917732</ele>
        <time>2021-11-16T22:07:34.303Z</time>
      </trkpt>
      <trkpt lat="39.27379" lon="30.67657">
        <ele>1316.526288</ele>
        <time>2021-11-16T22:07:48.588Z</time>
      </trkpt>
      <trkpt lat="39.27429" lon="30.67667">
        <ele>1316.230628</ele>
        <time>2021-11-16T22:07:59.872Z</time>
      </trkpt>
      <trkpt lat="39.27471" lon="30.67684">
        <ele>1315.9697</ele>
        <time>2021-11-16T22:08:09.325Z</time>
      </trkpt>
      <trkpt lat="39.27499" lon="30.6768">
        <ele>1315.800891</ele>
        <time>2021-11-16T22:08:15.354Z</time>
      </trkpt>
      <trkpt lat="39.27522" lon="30.67681">
        <ele>1315.661348</ele>
        <time>2021-11-16T22:08:20.252Z</time>
      </trkpt>
      <trkpt lat="39.27556" lon="30.6768">
        <ele>1315.453509</ele>
        <time>2021-11-16T22:08:27.259Z</time>
      </trkpt>
      <trkpt lat="39.27558" lon="30.67679">
        <ele>1315.438648</ele>
        <time>2021-11-16T22:08:27.764Z</time>
      </trkpt>
      <trkpt lat="39.2758" lon="30.67673">
        <ele>1315.303125</ele>
        <time>2021-11-16T22:08:32.141Z</time>
      </trkpt>
      <trkpt lat="39.27639" lon="30.67662">
        <ele>1314.593206</ele>
        <time>2021-11-16T22:08:43.416Z</time>
      </trkpt>
      <trkpt lat="39.27651" lon="30.67659">
        <ele>1314.333871</ele>
        <time>2021-11-16T22:08:45.668Z</time>
      </trkpt>
      <trkpt lat="39.27735" lon="30.67579">
        <ele>1312.131387</ele>
        <time>2021-11-16T22:09:03.670Z</time>
      </trkpt>
      <trkpt lat="39.27797" lon="30.67529">
        <ele>1310.588138</ele>
        <time>2021-11-16T22:09:15.813Z</time>
      </trkpt>
      <trkpt lat="39.27868" lon="30.67483">
        <ele>1308.865717</ele>
        <time>2021-11-16T22:09:29.385Z</time>
      </trkpt>
      <trkpt lat="39.27905" lon="30.67462">
        <ele>1307.987703</ele>
        <time>2021-11-16T22:09:36.577Z</time>
      </trkpt>
      <trkpt lat="39.27922" lon="30.67448">
        <ele>1307.567673</ele>
        <time>2021-11-16T22:09:40.155Z</time>
      </trkpt>
      <trkpt lat="39.27942" lon="30.67436">
        <ele>1307.34964</ele>
        <time>2021-11-16T22:09:44.344Z</time>
      </trkpt>
      <trkpt lat="39.27967" lon="30.67427">
        <ele>1307.241254</ele>
        <time>2021-11-16T22:09:49.237Z</time>
      </trkpt>
      <trkpt lat="39.28041" lon="30.67413">
        <ele>1306.925224</ele>
        <time>2021-11-16T22:10:04.912Z</time>
      </trkpt>
      <trkpt lat="39.28104" lon="30.67409">
        <ele>1306.657826</ele>
        <time>2021-11-16T22:10:19.949Z</time>
      </trkpt>
      <trkpt lat="39.28251" lon="30.67361">
        <ele>1306.37945</ele>
        <time>2021-11-16T22:10:54.137Z</time>
      </trkpt>
      <trkpt lat="39.28282" lon="30.67356">
        <ele>1306.262822</ele>
        <time>2021-11-16T22:11:00.259Z</time>
      </trkpt>
      <trkpt lat="39.28312" lon="30.67351">
        <ele>1305.58026</ele>
        <time>2021-11-16T22:11:05.739Z</time>
      </trkpt>
      <trkpt lat="39.2836" lon="30.67366">
        <ele>1304.42811</ele>
        <time>2021-11-16T22:11:14.681Z</time>
      </trkpt>
      <trkpt lat="39.28434" lon="30.67413">
        <ele>1302.530087</ele>
        <time>2021-11-16T22:11:28.277Z</time>
      </trkpt>
      <trkpt lat="39.28491" lon="30.67443">
        <ele>1300.287115</ele>
        <time>2021-11-16T22:11:38.050Z</time>
      </trkpt>
      <trkpt lat="39.28539" lon="30.67461">
        <ele>1298.215544</ele>
        <time>2021-11-16T22:11:45.914Z</time>
      </trkpt>
      <trkpt lat="39.28606" lon="30.67463">
        <ele>1295.473287</ele>
        <time>2021-11-16T22:11:56.213Z</time>
      </trkpt>
      <trkpt lat="39.28706" lon="30.67453">
        <ele>1291.591876</ele>
        <time>2021-11-16T22:12:11.770Z</time>
      </trkpt>
      <trkpt lat="39.29049" lon="30.67436">
        <ele>1280.276145</ele>
        <time>2021-11-16T22:13:07.447Z</time>
      </trkpt>
      <trkpt lat="39.2952" lon="30.67459">
        <ele>1268.255042</ele>
        <time>2021-11-16T22:14:27.699Z</time>
      </trkpt>
      <trkpt lat="39.29582" lon="30.67434">
        <ele>1266.405608</ele>
        <time>2021-11-16T22:14:38.594Z</time>
      </trkpt>
      <trkpt lat="39.2964" lon="30.67421">
        <ele>1264.704758</ele>
        <time>2021-11-16T22:14:48.492Z</time>
      </trkpt>
      <trkpt lat="39.29692" lon="30.67433">
        <ele>1263.201449</ele>
        <time>2021-11-16T22:14:57.117Z</time>
      </trkpt>
      <trkpt lat="39.29886" lon="30.67481">
        <ele>1256.883999</ele>
        <time>2021-11-16T22:15:29.078Z</time>
      </trkpt>
      <trkpt lat="39.30016" lon="30.6751">
        <ele>1253.789676</ele>
        <time>2021-11-16T22:15:51.358Z</time>
      </trkpt>
      <trkpt lat="39.30022" lon="30.67511">
        <ele>1253.64648</ele>
        <time>2021-11-16T22:15:52.434Z</time>
      </trkpt>
      <trkpt lat="39.30152" lon="30.6754">
        <ele>1252.560786</ele>
        <time>2021-11-16T22:16:17.379Z</time>
      </trkpt>
      <trkpt lat="39.30477" lon="30.6761">
        <ele>1255.955341</ele>
        <time>2021-11-16T22:17:41.962Z</time>
      </trkpt>
      <trkpt lat="39.30492" lon="30.6761">
        <ele>1256.403837</ele>
        <time>2021-11-16T22:17:47.165Z</time>
      </trkpt>
      <trkpt lat="39.3053" lon="30.67608">
        <ele>1257.534085</ele>
        <time>2021-11-16T22:18:01.096Z</time>
      </trkpt>
      <trkpt lat="39.30564" lon="30.6759">
        <ele>1258.607893</ele>
        <time>2021-11-16T22:18:15.707Z</time>
      </trkpt>
      <trkpt lat="39.30606" lon="30.6756">
        <ele>1261.426285</ele>
        <time>2021-11-16T22:18:36.987Z</time>
      </trkpt>
      <trkpt lat="39.30659" lon="30.67521">
        <ele>1265.936379</ele>
        <time>2021-11-16T22:19:07.391Z</time>
      </trkpt>
      <trkpt lat="39.30798" lon="30.67456">
        <ele>1277.754026</ele>
        <time>2021-11-16T22:20:32.270Z</time>
      </trkpt>
      <trkpt lat="39.30903" lon="30.67429">
        <ele>1287.304665</ele>
        <time>2021-11-16T22:21:35.277Z</time>
      </trkpt>
      <trkpt lat="39.30967" lon="30.67387">
        <ele>1293.117491</ele>
        <time>2021-11-16T22:22:15.703Z</time>
      </trkpt>
      <trkpt lat="39.31041" lon="30.67351">
        <ele>1299.444729</ele>
        <time>2021-11-16T22:22:58.672Z</time>
      </trkpt>
      <trkpt lat="39.31233" lon="30.67269">
        <ele>1313.757619</ele>
        <time>2021-11-16T22:24:40.808Z</time>
      </trkpt>
      <trkpt lat="39.3129" lon="30.67254">
        <ele>1316.541995</ele>
        <time>2021-11-16T22:25:07.560Z</time>
      </trkpt>
      <trkpt lat="39.3137" lon="30.67247">
        <ele>1319.607182</ele>
        <time>2021-11-16T22:25:40.241Z</time>
      </trkpt>
      <trkpt lat="39.3138" lon="30.67247">
        <ele>1319.972881</ele>
        <time>2021-11-16T22:25:44.575Z</time>
      </trkpt>
      <trkpt lat="39.31523" lon="30.67245">
        <ele>1320.223018</ele>
        <time>2021-11-16T22:26:18.936Z</time>
      </trkpt>
      <trkpt lat="39.31589" lon="30.67244">
        <ele>1319.002561</ele>
        <time>2021-11-16T22:26:29.655Z</time>
      </trkpt>
      <trkpt lat="39.31825" lon="30.67274">
        <ele>1305.775473</ele>
        <time>2021-11-16T22:27:04.504Z</time>
      </trkpt>
      <trkpt lat="39.32113" lon="30.67299">
        <ele>1286.507934</ele>
        <time>2021-11-16T22:27:45.896Z</time>
      </trkpt>
      <trkpt lat="39.32383" lon="30.67246">
        <ele>1270.969934</ele>
        <time>2021-11-16T22:28:25.612Z</time>
      </trkpt>
      <trkpt lat="39.32439" lon="30.67235">
        <ele>1269.044249</ele>
        <time>2021-11-16T22:28:34.977Z</time>
      </trkpt>
      <trkpt lat="39.3257" lon="30.67212">
        <ele>1266.678774</ele>
        <time>2021-11-16T22:29:00.791Z</time>
      </trkpt>
      <trkpt lat="39.32843" lon="30.67237">
        <ele>1265.813693</ele>
        <time>2021-11-16T22:30:02.897Z</time>
      </trkpt>
      <trkpt lat="39.32921" lon="30.67233">
        <ele>1263.422075</ele>
        <time>2021-11-16T22:30:16.483Z</time>
      </trkpt>
      <trkpt lat="39.33273" lon="30.67136">
        <ele>1246.178764</ele>
        <time>2021-11-16T22:31:10.684Z</time>
      </trkpt>
      <trkpt lat="39.33412" lon="30.67116">
        <ele>1238.177867</ele>
        <time>2021-11-16T22:31:31.119Z</time>
      </trkpt>
      <trkpt lat="39.33495" lon="30.67138">
        <ele>1233.345052</ele>
        <time>2021-11-16T22:31:43.592Z</time>
      </trkpt>
      <trkpt lat="39.3355" lon="30.67162">
        <ele>1230.05693</ele>
        <time>2021-11-16T22:31:52.240Z</time>
      </trkpt>
      <trkpt lat="39.33606" lon="30.67197">
        <ele>1227.588039</ele>
        <time>2021-11-16T22:32:01.570Z</time>
      </trkpt>
      <trkpt lat="39.33791" lon="30.67228">
        <ele>1222.577811</ele>
        <time>2021-11-16T22:32:32.828Z</time>
      </trkpt>
      <trkpt lat="39.33906" lon="30.67252">
        <ele>1221.556178</ele>
        <time>2021-11-16T22:32:57.651Z</time>
      </trkpt>
      <trkpt lat="39.33913" lon="30.67253">
        <ele>1221.49287</ele>
        <time>2021-11-16T22:32:59.510Z</time>
      </trkpt>
      <trkpt lat="39.34064" lon="30.67284">
        <ele>1221.749301</ele>
        <time>2021-11-16T22:33:37.139Z</time>
      </trkpt>
      <trkpt lat="39.34252" lon="30.67325">
        <ele>1219.870136</ele>
        <time>2021-11-16T22:34:14.806Z</time>
      </trkpt>
      <trkpt lat="39.34736" lon="30.67436">
        <ele>1203.461542</ele>
        <time>2021-11-16T22:35:34.066Z</time>
      </trkpt>
      <trkpt lat="39.34795" lon="30.67452">
        <ele>1201.252776</ele>
        <time>2021-11-16T22:35:43.536Z</time>
      </trkpt>
      <trkpt lat="39.34966" lon="30.67497">
        <ele>1194.451202</ele>
        <time>2021-11-16T22:36:10.750Z</time>
      </trkpt>
      <trkpt lat="39.35089" lon="30.67529">
        <ele>1190.439323</ele>
        <time>2021-11-16T22:36:30.982Z</time>
      </trkpt>
      <trkpt lat="39.35224" lon="30.67561">
        <ele>1187.151844</ele>
        <time>2021-11-16T22:36:54.451Z</time>
      </trkpt>
      <trkpt lat="39.35369" lon="30.67589">
        <ele>1184.63381</ele>
        <time>2021-11-16T22:37:21.958Z</time>
      </trkpt>
      <trkpt lat="39.3547" lon="30.67621">
        <ele>1182.86686</ele>
        <time>2021-11-16T22:37:40.955Z</time>
      </trkpt>
      <trkpt lat="39.35715" lon="30.67699">
        <ele>1177.143223</ele>
        <time>2021-11-16T22:38:24.056Z</time>
      </trkpt>
      <trkpt lat="39.35874" lon="30.67749">
        <ele>1173.036492</ele>
        <time>2021-11-16T22:38:51.773Z</time>
      </trkpt>
      <trkpt lat="39.35904" lon="30.67756">
        <ele>1172.257355</ele>
        <time>2021-11-16T22:38:57.007Z</time>
      </trkpt>
      <trkpt lat="39.35978" lon="30.67766">
        <ele>1170.392516</ele>
        <time>2021-11-16T22:39:09.511Z</time>
      </trkpt>
      <trkpt lat="39.3635" lon="30.67817">
        <ele>1160.535336</ele>
        <time>2021-11-16T22:40:12.973Z</time>
      </trkpt>
      <trkpt lat="39.36459" lon="30.67834">
        <ele>1156.520475</ele>
        <time>2021-11-16T22:40:30.689Z</time>
      </trkpt>
      <trkpt lat="39.36755" lon="30.6788">
        <ele>1143.417626</ele>
        <time>2021-11-16T22:41:16.087Z</time>
      </trkpt>
      <trkpt lat="39.36839" lon="30.67894">
        <ele>1142.143743</ele>
        <time>2021-11-16T22:41:29.971Z</time>
      </trkpt>
      <trkpt lat="39.36957" lon="30.67908">
        <ele>1141.914975</ele>
        <time>2021-11-16T22:41:55.976Z</time>
      </trkpt>
      <trkpt lat="39.37648" lon="30.67995">
        <ele>1172.267299</ele>
        <time>2021-11-16T22:46:41.320Z</time>
      </trkpt>
      <trkpt lat="39.37752" lon="30.6805">
        <ele>1173.118934</ele>
        <time>2021-11-16T22:47:15.422Z</time>
      </trkpt>
      <trkpt lat="39.37785" lon="30.68082">
        <ele>1173.426053</ele>
        <time>2021-11-16T22:47:23.374Z</time>
      </trkpt>
      <trkpt lat="39.37828" lon="30.68092">
        <ele>1172.593834</ele>
        <time>2021-11-16T22:47:30.690Z</time>
      </trkpt>
      <trkpt lat="39.37882" lon="30.68083">
        <ele>1169.530324</ele>
        <time>2021-11-16T22:47:39.151Z</time>
      </trkpt>
      <trkpt lat="39.38056" lon="30.6803">
        <ele>1158.550924</ele>
        <time>2021-11-16T22:48:04.639Z</time>
      </trkpt>
      <trkpt lat="39.38088" lon="30.68033">
        <ele>1156.364004</ele>
        <time>2021-11-16T22:48:09.123Z</time>
      </trkpt>
      <trkpt lat="39.38229" lon="30.68096">
        <ele>1146.438939</ele>
        <time>2021-11-16T22:48:30.769Z</time>
      </trkpt>
      <trkpt lat="39.38253" lon="30.68096">
        <ele>1144.920814</ele>
        <time>2021-11-16T22:48:34.307Z</time>
      </trkpt>
      <trkpt lat="39.38299" lon="30.68079">
        <ele>1141.876431</ele>
        <time>2021-11-16T22:48:41.270Z</time>
      </trkpt>
      <trkpt lat="39.3834" lon="30.68056">
        <ele>1139.236127</ele>
        <time>2021-11-16T22:48:47.729Z</time>
      </trkpt>
      <trkpt lat="39.38388" lon="30.68058">
        <ele>1136.796375</ele>
        <time>2021-11-16T22:48:54.939Z</time>
      </trkpt>
      <trkpt lat="39.38398" lon="30.68062">
        <ele>1136.24275</ele>
        <time>2021-11-16T22:48:56.521Z</time>
      </trkpt>
      <trkpt lat="39.38423" lon="30.68075">
        <ele>1134.875063</ele>
        <time>2021-11-16T22:49:00.689Z</time>
      </trkpt>
      <trkpt lat="39.38497" lon="30.68122">
        <ele>1130.683687</ele>
        <time>2021-11-16T22:49:13.219Z</time>
      </trkpt>
      <trkpt lat="39.38544" lon="30.68142">
        <ele>1128.371397</ele>
        <time>2021-11-16T22:49:20.801Z</time>
      </trkpt>
      <trkpt lat="39.38596" lon="30.68136">
        <ele>1125.972134</ele>
        <time>2021-11-16T22:49:28.940Z</time>
      </trkpt>
      <trkpt lat="39.38694" lon="30.68075">
        <ele>1120.758083</ele>
        <time>2021-11-16T22:49:45.456Z</time>
      </trkpt>
      <trkpt lat="39.38787" lon="30.68062">
        <ele>1115.792238</ele>
        <time>2021-11-16T22:49:59.322Z</time>
      </trkpt>
      <trkpt lat="39.38925" lon="30.68048">
        <ele>1109.752442</ele>
        <time>2021-11-16T22:50:20.188Z</time>
      </trkpt>
      <trkpt lat="39.39179" lon="30.68022">
        <ele>1102.222656</ele>
        <time>2021-11-16T22:51:03.084Z</time>
      </trkpt>
      <trkpt lat="39.39188" lon="30.68021">
        <ele>1102.003241</ele>
        <time>2021-11-16T22:51:04.648Z</time>
      </trkpt>
      <trkpt lat="39.39575" lon="30.67981">
        <ele>1096.218805</ele>
        <time>2021-11-16T22:52:15.636Z</time>
      </trkpt>
      <trkpt lat="39.39691" lon="30.67969">
        <ele>1095.813338</ele>
        <time>2021-11-16T22:52:41.934Z</time>
      </trkpt>
      <trkpt lat="39.39693" lon="30.67969">
        <ele>1095.804952</ele>
        <time>2021-11-16T22:52:42.674Z</time>
      </trkpt>
      <trkpt lat="39.39763" lon="30.67952">
        <ele>1095.03777</ele>
        <time>2021-11-16T22:52:58.067Z</time>
      </trkpt>
      <trkpt lat="39.39808" lon="30.67935">
        <ele>1093.843115</ele>
        <time>2021-11-16T22:53:06.543Z</time>
      </trkpt>
      <trkpt lat="39.39853" lon="30.67908">
        <ele>1092.542944</ele>
        <time>2021-11-16T22:53:14.940Z</time>
      </trkpt>
      <trkpt lat="39.39871" lon="30.67897">
        <ele>1092.05128</ele>
        <time>2021-11-16T22:53:17.991Z</time>
      </trkpt>
      <trkpt lat="39.39887" lon="30.67887">
        <ele>1091.587128</ele>
        <time>2021-11-16T22:53:20.821Z</time>
      </trkpt>
      <trkpt lat="39.39947" lon="30.6785">
        <ele>1088.6272</ele>
        <time>2021-11-16T22:53:30.961Z</time>
      </trkpt>
      <trkpt lat="39.40125" lon="30.67737">
        <ele>1077.794123</ele>
        <time>2021-11-16T22:54:00.163Z</time>
      </trkpt>
      <trkpt lat="39.40182" lon="30.67701">
        <ele>1074.198082</ele>
        <time>2021-11-16T22:54:09.653Z</time>
      </trkpt>
      <trkpt lat="39.40288" lon="30.67633">
        <ele>1067.99947</ele>
        <time>2021-11-16T22:54:27.154Z</time>
      </trkpt>
      <trkpt lat="39.40352" lon="30.67592">
        <ele>1064.404311</ele>
        <time>2021-11-16T22:54:37.961Z</time>
      </trkpt>
      <trkpt lat="39.40445" lon="30.67533">
        <ele>1060.020565</ele>
        <time>2021-11-16T22:54:54.067Z</time>
      </trkpt>
      <trkpt lat="39.4049" lon="30.67505">
        <ele>1058.189095</ele>
        <time>2021-11-16T22:55:02.083Z</time>
      </trkpt>
      <trkpt lat="39.40651" lon="30.67459">
        <ele>1052.263896</ele>
        <time>2021-11-16T22:55:29.002Z</time>
      </trkpt>
      <trkpt lat="39.40753" lon="30.67344">
        <ele>1047.408455</ele>
        <time>2021-11-16T22:55:50.373Z</time>
      </trkpt>
      <trkpt lat="39.40774" lon="30.67312">
        <ele>1046.185586</ele>
        <time>2021-11-16T22:55:55.507Z</time>
      </trkpt>
      <trkpt lat="39.40798" lon="30.67237">
        <ele>1043.8426</ele>
        <time>2021-11-16T22:56:05.394Z</time>
      </trkpt>
      <trkpt lat="39.40848" lon="30.669">
        <ele>1034.515208</ele>
        <time>2021-11-16T22:56:48.116Z</time>
      </trkpt>
      <trkpt lat="39.4088" lon="30.66756">
        <ele>1030.390264</ele>
        <time>2021-11-16T22:57:06.443Z</time>
      </trkpt>
      <trkpt lat="39.40891" lon="30.66706">
        <ele>1028.970556</ele>
        <time>2021-11-16T22:57:12.898Z</time>
      </trkpt>
      <trkpt lat="39.40901" lon="30.66673">
        <ele>1027.989889</ele>
        <time>2021-11-16T22:57:17.337Z</time>
      </trkpt>
      <trkpt lat="39.40914" lon="30.66637">
        <ele>1026.911223</ele>
        <time>2021-11-16T22:57:22.244Z</time>
      </trkpt>
      <trkpt lat="39.4092" lon="30.66632">
        <ele>1026.671849</ele>
        <time>2021-11-16T22:57:23.265Z</time>
      </trkpt>
      <trkpt lat="39.40953" lon="30.66615">
        <ele>1025.399557</ele>
        <time>2021-11-16T22:57:28.997Z</time>
      </trkpt>
      <trkpt lat="39.40963" lon="30.66611">
        <ele>1025.017422</ele>
        <time>2021-11-16T22:57:30.715Z</time>
      </trkpt>
      <trkpt lat="39.40982" lon="30.66604">
        <ele>1024.347345</ele>
        <time>2021-11-16T22:57:33.805Z</time>
      </trkpt>
      <trkpt lat="39.41009" lon="30.66603">
        <ele>1023.379177</ele>
        <time>2021-11-16T22:57:38.228Z</time>
      </trkpt>
      <trkpt lat="39.41385" lon="30.66602">
        <ele>1010.207116</ele>
        <time>2021-11-16T22:58:38.846Z</time>
      </trkpt>
      <trkpt lat="39.42009" lon="30.66581">
        <ele>983.716529</ele>
        <time>2021-11-16T23:00:15.472Z</time>
      </trkpt>
      <trkpt lat="39.42023" lon="30.66581">
        <ele>983.164363</ele>
        <time>2021-11-16T23:00:17.504Z</time>
      </trkpt>
      <trkpt lat="39.42216" lon="30.66578">
        <ele>976.208582</ele>
        <time>2021-11-16T23:00:48.395Z</time>
      </trkpt>
      <trkpt lat="39.42344" lon="30.66576">
        <ele>972.490083</ele>
        <time>2021-11-16T23:01:09.829Z</time>
      </trkpt>
      <trkpt lat="39.4278" lon="30.66578">
        <ele>961.887832</ele>
        <time>2021-11-16T23:02:23.602Z</time>
      </trkpt>
      <trkpt lat="39.43012" lon="30.66963">
        <ele>960.124927</ele>
        <time>2021-11-16T23:03:43.073Z</time>
      </trkpt>
      <trkpt lat="39.43174" lon="30.67233">
        <ele>960.575276</ele>
        <time>2021-11-16T23:04:43.683Z</time>
      </trkpt>
      <trkpt lat="39.43371" lon="30.67584">
        <ele>962.145535</ele>
        <time>2021-11-16T23:06:03.251Z</time>
      </trkpt>
      <trkpt lat="39.43469" lon="30.67741">
        <ele>963.872968</ele>
        <time>2021-11-16T23:06:47.164Z</time>
      </trkpt>
      <trkpt lat="39.43556" lon="30.67877">
        <ele>965.384297</ele>
        <time>2021-11-16T23:07:24.449Z</time>
      </trkpt>
      <trkpt lat="39.43727" lon="30.68146">
        <ele>965.601594</ele>
        <time>2021-11-16T23:08:22.681Z</time>
      </trkpt>
      <trkpt lat="39.43899" lon="30.68403">
        <ele>966.692192</ele>
        <time>2021-11-16T23:09:25.977Z</time>
      </trkpt>
      <trkpt lat="39.43934" lon="30.68456">
        <ele>967.171401</ele>
        <time>2021-11-16T23:09:39.374Z</time>
      </trkpt>
      <trkpt lat="39.43935" lon="30.68457">
        <ele>967.187866</ele>
        <time>2021-11-16T23:09:39.931Z</time>
      </trkpt>
      <trkpt lat="39.44037" lon="30.68586">
        <ele>968.760249</ele>
        <time>2021-11-16T23:10:18.528Z</time>
      </trkpt>
      <trkpt lat="39.4404" lon="30.6859">
        <ele>968.813196</ele>
        <time>2021-11-16T23:10:19.933Z</time>
      </trkpt>
      <trkpt lat="39.44106" lon="30.68668">
        <ele>970.128343</ele>
        <time>2021-11-16T23:10:44.583Z</time>
      </trkpt>
      <trkpt lat="39.44221" lon="30.68803">
        <ele>973.114057</ele>
        <time>2021-11-16T23:11:28.949Z</time>
      </trkpt>
      <trkpt lat="39.44258" lon="30.68853">
        <ele>974.445956</ele>
        <time>2021-11-16T23:11:46.048Z</time>
      </trkpt>
      <trkpt lat="39.44324" lon="30.68933">
        <ele>976.636815</ele>
        <time>2021-11-16T23:12:18.860Z</time>
      </trkpt>
      <trkpt lat="39.44335" lon="30.68946">
        <ele>976.965804</ele>
        <time>2021-11-16T23:12:24.630Z</time>
      </trkpt>
      <trkpt lat="39.44355" lon="30.68983">
        <ele>977.741236</ele>
        <time>2021-11-16T23:12:36.989Z</time>
      </trkpt>
      <trkpt lat="39.44365" lon="30.69">
        <ele>978.11059</ele>
        <time>2021-11-16T23:12:42.591Z</time>
      </trkpt>
      <trkpt lat="39.4437" lon="30.69008">
        <ele>978.281722</ele>
        <time>2021-11-16T23:12:44.619Z</time>
      </trkpt>
      <trkpt lat="39.44381" lon="30.69037">
        <ele>978.831688</ele>
        <time>2021-11-16T23:12:52.187Z</time>
      </trkpt>
      <trkpt lat="39.44423" lon="30.69121">
        <ele>979.478204</ele>
        <time>2021-11-16T23:13:12.238Z</time>
      </trkpt>
      <trkpt lat="39.44426" lon="30.69126">
        <ele>979.389112</ele>
        <time>2021-11-16T23:13:13.025Z</time>
      </trkpt>
      <trkpt lat="39.44443" lon="30.6915">
        <ele>978.920105</ele>
        <time>2021-11-16T23:13:18.165Z</time>
      </trkpt>
      <trkpt lat="39.44459" lon="30.69172">
        <ele>978.479293</ele>
        <time>2021-11-16T23:13:22.237Z</time>
      </trkpt>
      <trkpt lat="39.44488" lon="30.69184">
        <ele>977.896022</ele>
        <time>2021-11-16T23:13:27.461Z</time>
      </trkpt>
      <trkpt lat="39.4451" lon="30.69203">
        <ele>977.402321</ele>
        <time>2021-11-16T23:13:31.947Z</time>
      </trkpt>
      <trkpt lat="39.44517" lon="30.69214">
        <ele>977.187675</ele>
        <time>2021-11-16T23:13:33.668Z</time>
      </trkpt>
      <trkpt lat="39.4452" lon="30.6922">
        <ele>977.088443</ele>
        <time>2021-11-16T23:13:34.608Z</time>
      </trkpt>
      <trkpt lat="39.44531" lon="30.69266">
        <ele>976.248336</ele>
        <time>2021-11-16T23:13:40.431Z</time>
      </trkpt>
      <trkpt lat="39.44553" lon="30.69259">
        <ele>975.485162</ele>
        <time>2021-11-16T23:13:44.138Z</time>
      </trkpt>
      <trkpt lat="39.44578" lon="30.69249">
        <ele>974.62467</ele>
        <time>2021-11-16T23:13:48.455Z</time>
      </trkpt>
      <trkpt lat="39.44651" lon="30.69185">
        <ele>971.675808</ele>
        <time>2021-11-16T23:14:03.525Z</time>
      </trkpt>
      <trkpt lat="39.44695" lon="30.69146">
        <ele>969.978206</ele>
        <time>2021-11-16T23:14:12.680Z</time>
      </trkpt>
      <trkpt lat="39.44684" lon="30.6913">
        <ele>969.49458</ele>
        <time>2021-11-16T23:14:15.638Z</time>
      </trkpt>
      <trkpt lat="39.44677" lon="30.69121">
        <ele>969.22748</ele>
        <time>2021-11-16T23:14:17.153Z</time>
      </trkpt>
      <trkpt lat="39.44703" lon="30.69108">
        <ele>968.421319</ele>
        <time>2021-11-16T23:14:21.989Z</time>
      </trkpt>
      <trkpt lat="39.44746" lon="30.69086">
        <ele>967.079014</ele>
        <time>2021-11-16T23:14:29.887Z</time>
      </trkpt>
      <trkpt lat="39.448" lon="30.69044">
        <ele>965.268401</ele>
        <time>2021-11-16T23:14:41.237Z</time>
      </trkpt>
      <trkpt lat="39.44807" lon="30.6904">
        <ele>965.085059</ele>
        <time>2021-11-16T23:14:42.510Z</time>
      </trkpt>
      <trkpt lat="39.44815" lon="30.69035">
        <ele>964.867106</ele>
        <time>2021-11-16T23:14:44.091Z</time>
      </trkpt>
      <trkpt lat="39.44831" lon="30.69021">
        <ele>964.411927</ele>
        <time>2021-11-16T23:14:47.618Z</time>
      </trkpt>
      <trkpt lat="39.4484" lon="30.6901">
        <ele>964.125971</ele>
        <time>2021-11-16T23:14:49.619Z</time>
      </trkpt>
      <trkpt lat="39.44882" lon="30.69055">
        <ele>962.8166</ele>
        <time>2021-11-16T23:14:59.547Z</time>
      </trkpt>
      <trkpt lat="39.44915" lon="30.69009">
        <ele>961.658822</ele>
        <time>2021-11-16T23:15:07.677Z</time>
      </trkpt>
      <trkpt lat="39.44925" lon="30.68994">
        <ele>961.288349</ele>
        <time>2021-11-16T23:15:10.267Z</time>
      </trkpt>
      <trkpt lat="39.44942" lon="30.68965">
        <ele>960.66819</ele>
        <time>2021-11-16T23:15:15.213Z</time>
      </trkpt>
      <trkpt lat="39.44987" lon="30.68884">
        <ele>959.099873</ele>
        <time>2021-11-16T23:15:28.617Z</time>
      </trkpt>
      <trkpt lat="39.45038" lon="30.68798">
        <ele>957.394544</ele>
        <time>2021-11-16T23:15:43.303Z</time>
      </trkpt>
      <trkpt lat="39.45049" lon="30.68787">
        <ele>957.193706</ele>
        <time>2021-11-16T23:15:45.881Z</time>
      </trkpt>
      <trkpt lat="39.45145" lon="30.68629">
        <ele>955.160383</ele>
        <time>2021-11-16T23:16:14.915Z</time>
      </trkpt>
      <trkpt lat="39.45246" lon="30.6849">
        <ele>954.03652</ele>
        <time>2021-11-16T23:16:44.204Z</time>
      </trkpt>
      <trkpt lat="39.45328" lon="30.684">
        <ele>953.617885</ele>
        <time>2021-11-16T23:17:06.286Z</time>
      </trkpt>
      <trkpt lat="39.45632" lon="30.68109">
        <ele>954.379475</ele>
        <time>2021-11-16T23:18:31.109Z</time>
      </trkpt>
      <trkpt lat="39.45758" lon="30.67993">
        <ele>956.221463</ele>
        <time>2021-11-16T23:19:17.633Z</time>
      </trkpt>
      <trkpt lat="39.46604" lon="30.67197">
        <ele>970.080924</ele>
        <time>2021-11-16T23:24:05.929Z</time>
      </trkpt>
      <trkpt lat="39.47095" lon="30.66743">
        <ele>970.658983</ele>
        <time>2021-11-16T23:26:21.276Z</time>
      </trkpt>
      <trkpt lat="39.47175" lon="30.66677">
        <ele>970.553771</ele>
        <time>2021-11-16T23:26:41.170Z</time>
      </trkpt>
      <trkpt lat="39.4726" lon="30.66613">
        <ele>970.99231</ele>
        <time>2021-11-16T23:27:02.819Z</time>
      </trkpt>
      <trkpt lat="39.47473" lon="30.66475">
        <ele>973.673864</ele>
        <time>2021-11-16T23:28:07.074Z</time>
      </trkpt>
      <trkpt lat="39.48409" lon="30.65891">
        <ele>1002.294971</ele>
        <time>2021-11-16T23:33:50.888Z</time>
      </trkpt>
      <trkpt lat="39.48526" lon="30.65837">
        <ele>1007.183179</ele>
        <time>2021-11-16T23:34:42.529Z</time>
      </trkpt>
      <trkpt lat="39.4863" lon="30.65802">
        <ele>1011.913624</ele>
        <time>2021-11-16T23:35:27.251Z</time>
      </trkpt>
      <trkpt lat="39.48764" lon="30.65772">
        <ele>1014.018209</ele>
        <time>2021-11-16T23:36:10.009Z</time>
      </trkpt>
      <trkpt lat="39.48905" lon="30.65753">
        <ele>1012.83085</ele>
        <time>2021-11-16T23:36:35.811Z</time>
      </trkpt>
      <trkpt lat="39.49022" lon="30.65753">
        <ele>1010.454635</ele>
        <time>2021-11-16T23:36:54.973Z</time>
      </trkpt>
      <trkpt lat="39.4916" lon="30.65774">
        <ele>1008.465119</ele>
        <time>2021-11-16T23:37:20.097Z</time>
      </trkpt>
      <trkpt lat="39.49479" lon="30.65864">
        <ele>1012.78445</ele>
        <time>2021-11-16T23:38:51.736Z</time>
      </trkpt>
      <trkpt lat="39.496" lon="30.65888">
        <ele>1015.758022</ele>
        <time>2021-11-16T23:39:32.068Z</time>
      </trkpt>
      <trkpt lat="39.49693" lon="30.65899">
        <ele>1018.39347</ele>
        <time>2021-11-16T23:40:04.253Z</time>
      </trkpt>
      <trkpt lat="39.49831" lon="30.65899">
        <ele>1022.208486</ele>
        <time>2021-11-16T23:40:50.826Z</time>
      </trkpt>
      <trkpt lat="39.49964" lon="30.65878">
        <ele>1025.611407</ele>
        <time>2021-11-16T23:41:33.613Z</time>
      </trkpt>
      <trkpt lat="39.50099" lon="30.65838">
        <ele>1028.973901</ele>
        <time>2021-11-16T23:42:16.937Z</time>
      </trkpt>
      <trkpt lat="39.50277" lon="30.65759">
        <ele>1033.9216</ele>
        <time>2021-11-16T23:43:18.999Z</time>
      </trkpt>
      <trkpt lat="39.50469" lon="30.65632">
        <ele>1038.538658</ele>
        <time>2021-11-16T23:44:31.024Z</time>
      </trkpt>
      <trkpt lat="39.50994" lon="30.65268">
        <ele>1043.88798</ele>
        <time>2021-11-16T23:47:02.310Z</time>
      </trkpt>
      <trkpt lat="39.51037" lon="30.65231">
        <ele>1043.881644</ele>
        <time>2021-11-16T23:47:12.722Z</time>
      </trkpt>
      <trkpt lat="39.51154" lon="30.65148">
        <ele>1041.785301</ele>
        <time>2021-11-16T23:47:36.787Z</time>
      </trkpt>
      <trkpt lat="39.51282" lon="30.65056">
        <ele>1039.494818</ele>
        <time>2021-11-16T23:48:02.473Z</time>
      </trkpt>
      <trkpt lat="39.52454" lon="30.64231">
        <ele>1027.315711</ele>
        <time>2021-11-16T23:52:22.908Z</time>
      </trkpt>
      <trkpt lat="39.53045" lon="30.63815">
        <ele>1028.518248</ele>
        <time>2021-11-16T23:54:53.322Z</time>
      </trkpt>
      <trkpt lat="39.5305" lon="30.63812">
        <ele>1028.565654</ele>
        <time>2021-11-16T23:54:55.929Z</time>
      </trkpt>
      <trkpt lat="39.53304" lon="30.63636">
        <ele>1034.192771</ele>
        <time>2021-11-16T23:56:33.255Z</time>
      </trkpt>
      <trkpt lat="39.53544" lon="30.63456">
        <ele>1032.533298</ele>
        <time>2021-11-16T23:57:25.111Z</time>
      </trkpt>
      <trkpt lat="39.5383" lon="30.63209">
        <ele>1030.261312</ele>
        <time>2021-11-16T23:58:32.972Z</time>
      </trkpt>
      <trkpt lat="39.5389" lon="30.63153">
        <ele>1030.78898</ele>
        <time>2021-11-16T23:58:52.500Z</time>
      </trkpt>
      <trkpt lat="39.5403" lon="30.63026">
        <ele>1033.146008</ele>
        <time>2021-11-16T23:59:42.349Z</time>
      </trkpt>
      <trkpt lat="39.54116" lon="30.62953">
        <ele>1034.363715</ele>
        <time>2021-11-17T00:00:10.131Z</time>
      </trkpt>
      <trkpt lat="39.54202" lon="30.62874">
        <ele>1035.542828</ele>
        <time>2021-11-17T00:00:36.709Z</time>
      </trkpt>
      <trkpt lat="39.54295" lon="30.62805">
        <ele>1036.699837</ele>
        <time>2021-11-17T00:01:04.941Z</time>
      </trkpt>
      <trkpt lat="39.54349" lon="30.62774">
        <ele>1037.865809</ele>
        <time>2021-11-17T00:01:22.319Z</time>
      </trkpt>
      <trkpt lat="39.5437" lon="30.62764">
        <ele>1038.355569</ele>
        <time>2021-11-17T00:01:29.568Z</time>
      </trkpt>
      <trkpt lat="39.544" lon="30.6275">
        <ele>1039.022961</ele>
        <time>2021-11-17T00:01:39.947Z</time>
      </trkpt>
      <trkpt lat="39.54494" lon="30.62709">
        <ele>1040.855074</ele>
        <time>2021-11-17T00:02:11.444Z</time>
      </trkpt>
      <trkpt lat="39.5453" lon="30.627">
        <ele>1041.179473</ele>
        <time>2021-11-17T00:02:22.499Z</time>
      </trkpt>
      <trkpt lat="39.54583" lon="30.62688">
        <ele>1041.665071</ele>
        <time>2021-11-17T00:02:36.755Z</time>
      </trkpt>
      <trkpt lat="39.54725" lon="30.62676">
        <ele>1041.958643</ele>
        <time>2021-11-17T00:03:06.244Z</time>
      </trkpt>
      <trkpt lat="39.54859" lon="30.62666">
        <ele>1041.693957</ele>
        <time>2021-11-17T00:03:33.966Z</time>
      </trkpt>
      <trkpt lat="39.5493" lon="30.62657">
        <ele>1041.984518</ele>
        <time>2021-11-17T00:03:51.364Z</time>
      </trkpt>
      <trkpt lat="39.54986" lon="30.62648">
        <ele>1042.21632</ele>
        <time>2021-11-17T00:04:05.718Z</time>
      </trkpt>
      <trkpt lat="39.55003" lon="30.62645">
        <ele>1042.285354</ele>
        <time>2021-11-17T00:04:10.735Z</time>
      </trkpt>
      <trkpt lat="39.55145" lon="30.62598">
        <ele>1041.738387</ele>
        <time>2021-11-17T00:04:45.284Z</time>
      </trkpt>
      <trkpt lat="39.55268" lon="30.62546">
        <ele>1038.687833</ele>
        <time>2021-11-17T00:05:06.602Z</time>
      </trkpt>
      <trkpt lat="39.55349" lon="30.62495">
        <ele>1035.855958</ele>
        <time>2021-11-17T00:05:20.731Z</time>
      </trkpt>
      <trkpt lat="39.5536" lon="30.62488">
        <ele>1035.613991</ele>
        <time>2021-11-17T00:05:22.738Z</time>
      </trkpt>
      <trkpt lat="39.55473" lon="30.62417">
        <ele>1033.201907</ele>
        <time>2021-11-17T00:05:43.773Z</time>
      </trkpt>
      <trkpt lat="39.55808" lon="30.62187">
        <ele>1035.996039</ele>
        <time>2021-11-17T00:07:22.623Z</time>
      </trkpt>
      <trkpt lat="39.55868" lon="30.62135">
        <ele>1037.679832</ele>
        <time>2021-11-17T00:07:47.097Z</time>
      </trkpt>
      <trkpt lat="39.55875" lon="30.62129">
        <ele>1037.908192</ele>
        <time>2021-11-17T00:07:50.054Z</time>
      </trkpt>
      <trkpt lat="39.55901" lon="30.62107">
        <ele>1038.750855</ele>
        <time>2021-11-17T00:08:00.615Z</time>
      </trkpt>
      <trkpt lat="39.55941" lon="30.62073">
        <ele>1040.046806</ele>
        <time>2021-11-17T00:08:17.114Z</time>
      </trkpt>
      <trkpt lat="39.55954" lon="30.62061">
        <ele>1040.478421</ele>
        <time>2021-11-17T00:08:22.716Z</time>
      </trkpt>
      <trkpt lat="39.56062" lon="30.61951">
        <ele>1043.413226</ele>
        <time>2021-11-17T00:09:05.727Z</time>
      </trkpt>
      <trkpt lat="39.56203" lon="30.61808">
        <ele>1046.698318</ele>
        <time>2021-11-17T00:09:56.154Z</time>
      </trkpt>
      <trkpt lat="39.56335" lon="30.61683">
        <ele>1049.925795</ele>
        <time>2021-11-17T00:10:46.049Z</time>
      </trkpt>
      <trkpt lat="39.56508" lon="30.61553">
        <ele>1053.75841</ele>
        <time>2021-11-17T00:11:48.266Z</time>
      </trkpt>
      <trkpt lat="39.56772" lon="30.61429">
        <ele>1056.428004</ele>
        <time>2021-11-17T00:13:00.954Z</time>
      </trkpt>
      <trkpt lat="39.56967" lon="30.61366">
        <ele>1055.754651</ele>
        <time>2021-11-17T00:13:43.028Z</time>
      </trkpt>
      <trkpt lat="39.5697" lon="30.61365">
        <ele>1055.725583</ele>
        <time>2021-11-17T00:13:43.601Z</time>
      </trkpt>
      <trkpt lat="39.57151" lon="30.61342">
        <ele>1053.552703</ele>
        <time>2021-11-17T00:14:17.953Z</time>
      </trkpt>
      <trkpt lat="39.57598" lon="30.61365">
        <ele>1046.212097</ele>
        <time>2021-11-17T00:15:37.938Z</time>
      </trkpt>
      <trkpt lat="39.58074" lon="30.61402">
        <ele>1043.210797</ele>
        <time>2021-11-17T00:17:14.947Z</time>
      </trkpt>
      <trkpt lat="39.58188" lon="30.61404">
        <ele>1042.773664</ele>
        <time>2021-11-17T00:17:38.729Z</time>
      </trkpt>
      <trkpt lat="39.58272" lon="30.61402">
        <ele>1042.647799</ele>
        <time>2021-11-17T00:17:57.196Z</time>
      </trkpt>
      <trkpt lat="39.58302" lon="30.61401">
        <ele>1042.602699</ele>
        <time>2021-11-17T00:18:03.919Z</time>
      </trkpt>
      <trkpt lat="39.58381" lon="30.61391">
        <ele>1042.300673</ele>
        <time>2021-11-17T00:18:21.469Z</time>
      </trkpt>
      <trkpt lat="39.58521" lon="30.61363">
        <ele>1041.344428</ele>
        <time>2021-11-17T00:18:49.599Z</time>
      </trkpt>
      <trkpt lat="39.58748" lon="30.61287">
        <ele>1039.185357</ele>
        <time>2021-11-17T00:19:32.871Z</time>
      </trkpt>
      <trkpt lat="39.58782" lon="30.61275">
        <ele>1039.335963</ele>
        <time>2021-11-17T00:19:40.341Z</time>
      </trkpt>
      <trkpt lat="39.59175" lon="30.61125">
        <ele>1041.361776</ele>
        <time>2021-11-17T00:21:25.944Z</time>
      </trkpt>
      <trkpt lat="39.59589" lon="30.60936">
        <ele>1041.369828</ele>
        <time>2021-11-17T00:23:03.273Z</time>
      </trkpt>
      <trkpt lat="39.59736" lon="30.60857">
        <ele>1040.471466</ele>
        <time>2021-11-17T00:23:35.036Z</time>
      </trkpt>
      <trkpt lat="39.6003" lon="30.60669">
        <ele>1036.706676</ele>
        <time>2021-11-17T00:24:37.893Z</time>
      </trkpt>
      <trkpt lat="39.6005" lon="30.60656">
        <ele>1036.366571</ele>
        <time>2021-11-17T00:24:41.855Z</time>
      </trkpt>
      <trkpt lat="39.60503" lon="30.60354">
        <ele>1024.707714</ele>
        <time>2021-11-17T00:26:09.477Z</time>
      </trkpt>
      <trkpt lat="39.60507" lon="30.60351">
        <ele>1024.60862</ele>
        <time>2021-11-17T00:26:10.180Z</time>
      </trkpt>
      <trkpt lat="39.60609" lon="30.60283">
        <ele>1021.630304</ele>
        <time>2021-11-17T00:26:29.400Z</time>
      </trkpt>
      <trkpt lat="39.60866" lon="30.60084">
        <ele>1013.528588</ele>
        <time>2021-11-17T00:27:19.469Z</time>
      </trkpt>
      <trkpt lat="39.61267" lon="30.59714">
        <ele>1000.697412</ele>
        <time>2021-11-17T00:28:42.154Z</time>
      </trkpt>
      <trkpt lat="39.61719" lon="30.59332">
        <ele>991.76151</ele>
        <time>2021-11-17T00:30:20.322Z</time>
      </trkpt>
      <trkpt lat="39.62061" lon="30.59025">
        <ele>984.205887</ele>
        <time>2021-11-17T00:31:35.001Z</time>
      </trkpt>
      <trkpt lat="39.62217" lon="30.58884">
        <ele>979.159954</ele>
        <time>2021-11-17T00:32:06.714Z</time>
      </trkpt>
      <trkpt lat="39.6245" lon="30.58667">
        <ele>970.606327</ele>
        <time>2021-11-17T00:32:53.574Z</time>
      </trkpt>
      <trkpt lat="39.6255" lon="30.58566">
        <ele>967.680867</ele>
        <time>2021-11-17T00:33:15.626Z</time>
      </trkpt>
      <trkpt lat="39.62575" lon="30.58535">
        <ele>966.922531</ele>
        <time>2021-11-17T00:33:21.786Z</time>
      </trkpt>
      <trkpt lat="39.62622" lon="30.58479">
        <ele>965.604936</ele>
        <time>2021-11-17T00:33:32.934Z</time>
      </trkpt>
      <trkpt lat="39.6265" lon="30.58445">
        <ele>964.883181</ele>
        <time>2021-11-17T00:33:39.653Z</time>
      </trkpt>
      <trkpt lat="39.627" lon="30.58371">
        <ele>963.456262</ele>
        <time>2021-11-17T00:33:53.167Z</time>
      </trkpt>
      <trkpt lat="39.62715" lon="30.58348">
        <ele>963.024223</ele>
        <time>2021-11-17T00:33:57.253Z</time>
      </trkpt>
      <trkpt lat="39.62787" lon="30.58227">
        <ele>961.025082</ele>
        <time>2021-11-17T00:34:18.428Z</time>
      </trkpt>
      <trkpt lat="39.62811" lon="30.58186">
        <ele>960.364817</ele>
        <time>2021-11-17T00:34:25.786Z</time>
      </trkpt>
      <trkpt lat="39.62875" lon="30.58075">
        <ele>958.796272</ele>
        <time>2021-11-17T00:34:45.039Z</time>
      </trkpt>
      <trkpt lat="39.62955" lon="30.57931">
        <ele>957.118871</ele>
        <time>2021-11-17T00:35:10.797Z</time>
      </trkpt>
      <trkpt lat="39.62982" lon="30.57902">
        <ele>956.918263</ele>
        <time>2021-11-17T00:35:17.779Z</time>
      </trkpt>
      <trkpt lat="39.63024" lon="30.57827">
        <ele>956.509203</ele>
        <time>2021-11-17T00:35:32.643Z</time>
      </trkpt>
      <trkpt lat="39.63089" lon="30.57709">
        <ele>956.013389</ele>
        <time>2021-11-17T00:35:56.379Z</time>
      </trkpt>
      <trkpt lat="39.63139" lon="30.57626">
        <ele>955.744517</ele>
        <time>2021-11-17T00:36:13.419Z</time>
      </trkpt>
      <trkpt lat="39.63156" lon="30.57592">
        <ele>955.640013</ele>
        <time>2021-11-17T00:36:19.936Z</time>
      </trkpt>
      <trkpt lat="39.63191" lon="30.57515">
        <ele>955.850065</ele>
        <time>2021-11-17T00:36:33.885Z</time>
      </trkpt>
      <trkpt lat="39.63212" lon="30.57467">
        <ele>956.008551</ele>
        <time>2021-11-17T00:36:43.420Z</time>
      </trkpt>
      <trkpt lat="39.63223" lon="30.5745">
        <ele>956.071499</ele>
        <time>2021-11-17T00:36:47.445Z</time>
      </trkpt>
      <trkpt lat="39.63241" lon="30.57429">
        <ele>956.161702</ele>
        <time>2021-11-17T00:36:54.150Z</time>
      </trkpt>
      <trkpt lat="39.63269" lon="30.57409">
        <ele>956.279452</ele>
        <time>2021-11-17T00:37:03.099Z</time>
      </trkpt>
      <trkpt lat="39.63277" lon="30.57401">
        <ele>956.471936</ele>
        <time>2021-11-17T00:37:05.697Z</time>
      </trkpt>
      <trkpt lat="39.63284" lon="30.57395">
        <ele>956.678516</ele>
        <time>2021-11-17T00:37:08.222Z</time>
      </trkpt>
      <trkpt lat="39.63311" lon="30.57366">
        <ele>957.494408</ele>
        <time>2021-11-17T00:37:18.733Z</time>
      </trkpt>
      <trkpt lat="39.63359" lon="30.5731">
        <ele>958.993229</ele>
        <time>2021-11-17T00:37:39.222Z</time>
      </trkpt>
      <trkpt lat="39.63446" lon="30.57202">
        <ele>961.63386</ele>
        <time>2021-11-17T00:38:20.380Z</time>
      </trkpt>
      <trkpt lat="39.63512" lon="30.571">
        <ele>963.696207</ele>
        <time>2021-11-17T00:38:51.102Z</time>
      </trkpt>
      <trkpt lat="39.63531" lon="30.5708">
        <ele>964.102396</ele>
        <time>2021-11-17T00:38:57.403Z</time>
      </trkpt>
      <trkpt lat="39.6357" lon="30.57053">
        <ele>964.007469</ele>
        <time>2021-11-17T00:39:08.064Z</time>
      </trkpt>
      <trkpt lat="39.63633" lon="30.57023">
        <ele>963.865587</ele>
        <time>2021-11-17T00:39:22.721Z</time>
      </trkpt>
      <trkpt lat="39.63646" lon="30.57008">
        <ele>963.82917</ele>
        <time>2021-11-17T00:39:26.295Z</time>
      </trkpt>
      <trkpt lat="39.63652" lon="30.56991">
        <ele>963.798605</ele>
        <time>2021-11-17T00:39:29.294Z</time>
      </trkpt>
      <trkpt lat="39.63657" lon="30.56947">
        <ele>963.700267</ele>
        <time>2021-11-17T00:39:35.972Z</time>
      </trkpt>
      <trkpt lat="39.63658" lon="30.56793">
        <ele>961.707645</ele>
        <time>2021-11-17T00:39:56.543Z</time>
      </trkpt>
      <trkpt lat="39.63765" lon="30.5669">
        <ele>962.044488</ele>
        <time>2021-11-17T00:40:21.194Z</time>
      </trkpt>
      <trkpt lat="39.64136" lon="30.56344">
        <ele>972.431736</ele>
        <time>2021-11-17T00:42:51.752Z</time>
      </trkpt>
      <trkpt lat="39.6422" lon="30.5626">
        <ele>976.530112</ele>
        <time>2021-11-17T00:43:35.303Z</time>
      </trkpt>
      <trkpt lat="39.64308" lon="30.56151">
        <ele>979.930466</ele>
        <time>2021-11-17T00:44:21.105Z</time>
      </trkpt>
      <trkpt lat="39.64365" lon="30.56062">
        <ele>980.108753</ele>
        <time>2021-11-17T00:44:44.279Z</time>
      </trkpt>
      <trkpt lat="39.64503" lon="30.55784">
        <ele>972.257183</ele>
        <time>2021-11-17T00:45:24.475Z</time>
      </trkpt>
      <trkpt lat="39.64519" lon="30.55757">
        <ele>970.963933</ele>
        <time>2021-11-17T00:45:28.503Z</time>
      </trkpt>
      <trkpt lat="39.64541" lon="30.55721">
        <ele>969.321897</ele>
        <time>2021-11-17T00:45:33.638Z</time>
      </trkpt>
      <trkpt lat="39.64583" lon="30.55659">
        <ele>966.27538</ele>
        <time>2021-11-17T00:45:43.216Z</time>
      </trkpt>
      <trkpt lat="39.64678" lon="30.55547">
        <ele>961.907548</ele>
        <time>2021-11-17T00:46:03.347Z</time>
      </trkpt>
      <trkpt lat="39.64812" lon="30.55442">
        <ele>959.239218</ele>
        <time>2021-11-17T00:46:31.662Z</time>
      </trkpt>
      <trkpt lat="39.64858" lon="30.55415">
        <ele>959.112273</ele>
        <time>2021-11-17T00:46:43.208Z</time>
      </trkpt>
      <trkpt lat="39.6494" lon="30.55378">
        <ele>959.748872</ele>
        <time>2021-11-17T00:47:05.920Z</time>
      </trkpt>
      <trkpt lat="39.64966" lon="30.5537">
        <ele>960.429936</ele>
        <time>2021-11-17T00:47:14.105Z</time>
      </trkpt>
      <trkpt lat="39.6499" lon="30.55362">
        <ele>961.039837</ele>
        <time>2021-11-17T00:47:21.287Z</time>
      </trkpt>
      <trkpt lat="39.65248" lon="30.55312">
        <ele>969.315093</ele>
        <time>2021-11-17T00:48:55.385Z</time>
      </trkpt>
      <trkpt lat="39.65304" lon="30.55284">
        <ele>971.417509</ele>
        <time>2021-11-17T00:49:18.737Z</time>
      </trkpt>
      <trkpt lat="39.6535" lon="30.55252">
        <ele>973.221529</ele>
        <time>2021-11-17T00:49:38.359Z</time>
      </trkpt>
      <trkpt lat="39.654" lon="30.552">
        <ele>975.48565</ele>
        <time>2021-11-17T00:50:01.783Z</time>
      </trkpt>
      <trkpt lat="39.65444" lon="30.55131">
        <ele>976.859796</ele>
        <time>2021-11-17T00:50:23.930Z</time>
      </trkpt>
      <trkpt lat="39.65571" lon="30.54833">
        <ele>979.312942</ele>
        <time>2021-11-17T00:51:30.699Z</time>
      </trkpt>
      <trkpt lat="39.65606" lon="30.54767">
        <ele>979.406564</ele>
        <time>2021-11-17T00:51:44.034Z</time>
      </trkpt>
      <trkpt lat="39.65651" lon="30.54703">
        <ele>978.552269</ele>
        <time>2021-11-17T00:51:57.825Z</time>
      </trkpt>
      <trkpt lat="39.65657" lon="30.54695">
        <ele>978.450934</ele>
        <time>2021-11-17T00:51:59.368Z</time>
      </trkpt>
      <trkpt lat="39.65668" lon="30.54685">
        <ele>978.27603</ele>
        <time>2021-11-17T00:52:02.034Z</time>
      </trkpt>
      <trkpt lat="39.65688" lon="30.54665">
        <ele>977.947686</ele>
        <time>2021-11-17T00:52:06.790Z</time>
      </trkpt>
      <trkpt lat="39.65719" lon="30.54639">
        <ele>977.488186</ele>
        <time>2021-11-17T00:52:12.933Z</time>
      </trkpt>
      <trkpt lat="39.65758" lon="30.54614">
        <ele>976.32622</ele>
        <time>2021-11-17T00:52:20.284Z</time>
      </trkpt>
      <trkpt lat="39.65808" lon="30.54594">
        <ele>974.496008</ele>
        <time>2021-11-17T00:52:28.800Z</time>
      </trkpt>
      <trkpt lat="39.65848" lon="30.54586">
        <ele>973.062522</ele>
        <time>2021-11-17T00:52:35.320Z</time>
      </trkpt>
      <trkpt lat="39.65852" lon="30.54585">
        <ele>972.920685</ele>
        <time>2021-11-17T00:52:35.873Z</time>
      </trkpt>
      <trkpt lat="39.66012" lon="30.54582">
        <ele>967.333862</ele>
        <time>2021-11-17T00:53:00.915Z</time>
      </trkpt>
      <trkpt lat="39.66139" lon="30.54577">
        <ele>963.759156</ele>
        <time>2021-11-17T00:53:22.287Z</time>
      </trkpt>
      <trkpt lat="39.66215" lon="30.54575">
        <ele>962.351453</ele>
        <time>2021-11-17T00:53:35.589Z</time>
      </trkpt>
      <trkpt lat="39.66245" lon="30.54575">
        <ele>961.812776</ele>
        <time>2021-11-17T00:53:40.882Z</time>
      </trkpt>
      <trkpt lat="39.66262" lon="30.54575">
        <ele>961.482549</ele>
        <time>2021-11-17T00:53:44.332Z</time>
      </trkpt>
      <trkpt lat="39.66353" lon="30.54573">
        <ele>962.025052</ele>
        <time>2021-11-17T00:54:04.571Z</time>
      </trkpt>
      <trkpt lat="39.66386" lon="30.54572">
        <ele>962.270334</ele>
        <time>2021-11-17T00:54:12.998Z</time>
      </trkpt>
      <trkpt lat="39.66421" lon="30.54571">
        <ele>962.534393</ele>
        <time>2021-11-17T00:54:22.775Z</time>
      </trkpt>
      <trkpt lat="39.66502" lon="30.5457">
        <ele>964.586241</ele>
        <time>2021-11-17T00:54:49.132Z</time>
      </trkpt>
      <trkpt lat="39.66637" lon="30.54578">
        <ele>969.119174</ele>
        <time>2021-11-17T00:55:40.681Z</time>
      </trkpt>
      <trkpt lat="39.66685" lon="30.54584">
        <ele>970.590611</ele>
        <time>2021-11-17T00:55:57.874Z</time>
      </trkpt>
      <trkpt lat="39.6669" lon="30.54585">
        <ele>970.764927</ele>
        <time>2021-11-17T00:55:59.873Z</time>
      </trkpt>
      <trkpt lat="39.66706" lon="30.54588">
        <ele>971.275021</ele>
        <time>2021-11-17T00:56:05.676Z</time>
      </trkpt>
      <trkpt lat="39.66784" lon="30.546">
        <ele>973.693334</ele>
        <time>2021-11-17T00:56:32.542Z</time>
      </trkpt>
      <trkpt lat="39.66875" lon="30.54612">
        <ele>975.225529</ele>
        <time>2021-11-17T00:57:00.248Z</time>
      </trkpt>
      <trkpt lat="39.66916" lon="30.54618">
        <ele>975.729444</ele>
        <time>2021-11-17T00:57:11.303Z</time>
      </trkpt>
      <trkpt lat="39.66979" lon="30.54621">
        <ele>976.491558</ele>
        <time>2021-11-17T00:57:26.621Z</time>
      </trkpt>
      <trkpt lat="39.66999" lon="30.54621">
        <ele>976.556367</ele>
        <time>2021-11-17T00:57:31.268Z</time>
      </trkpt>
      <trkpt lat="39.67046" lon="30.54621">
        <ele>976.519458</ele>
        <time>2021-11-17T00:57:41.756Z</time>
      </trkpt>
      <trkpt lat="39.67092" lon="30.54618">
        <ele>976.482961</ele>
        <time>2021-11-17T00:57:51.534Z</time>
      </trkpt>
      <trkpt lat="39.67147" lon="30.54613">
        <ele>976.440047</ele>
        <time>2021-11-17T00:58:02.952Z</time>
      </trkpt>
      <trkpt lat="39.67214" lon="30.54602">
        <ele>976.55721</ele>
        <time>2021-11-17T00:58:17.498Z</time>
      </trkpt>
      <trkpt lat="39.67608" lon="30.545">
        <ele>977.433058</ele>
        <time>2021-11-17T00:59:52.670Z</time>
      </trkpt>
      <trkpt lat="39.67888" lon="30.5443">
        <ele>976.867093</ele>
        <time>2021-11-17T01:00:53.608Z</time>
      </trkpt>
      <trkpt lat="39.68097" lon="30.54376">
        <ele>975.517381</ele>
        <time>2021-11-17T01:01:35.991Z</time>
      </trkpt>
      <trkpt lat="39.68238" lon="30.54342">
        <ele>974.578903</ele>
        <time>2021-11-17T01:02:04.899Z</time>
      </trkpt>
      <trkpt lat="39.68265" lon="30.54335">
        <ele>974.450869</ele>
        <time>2021-11-17T01:02:10.464Z</time>
      </trkpt>
      <trkpt lat="39.68441" lon="30.54291">
        <ele>973.710373</ele>
        <time>2021-11-17T01:02:47.838Z</time>
      </trkpt>
      <trkpt lat="39.68976" lon="30.54154">
        <ele>972.738365</ele>
        <time>2021-11-17T01:04:45.211Z</time>
      </trkpt>
      <trkpt lat="39.69375" lon="30.54051">
        <ele>973.076088</ele>
        <time>2021-11-17T01:06:17.482Z</time>
      </trkpt>
      <trkpt lat="39.69936" lon="30.53909">
        <ele>973.834865</ele>
        <time>2021-11-17T01:08:26.295Z</time>
      </trkpt>
      <trkpt lat="39.70339" lon="30.53797">
        <ele>976.928972</ele>
        <time>2021-11-17T01:10:12.702Z</time>
      </trkpt>
      <trkpt lat="39.70587" lon="30.53691">
        <ele>974.558367</ele>
        <time>2021-11-17T01:11:08.302Z</time>
      </trkpt>
      <trkpt lat="39.71091" lon="30.53398">
        <ele>958.079314</ele>
        <time>2021-11-17T01:12:38.588Z</time>
      </trkpt>
      <trkpt lat="39.71201" lon="30.53356">
        <ele>953.012612</ele>
        <time>2021-11-17T01:12:55.623Z</time>
      </trkpt>
      <trkpt lat="39.71334" lon="30.53325">
        <ele>946.280858</ele>
        <time>2021-11-17T01:13:15.764Z</time>
      </trkpt>
      <trkpt lat="39.71719" lon="30.53281">
        <ele>934.220284</ele>
        <time>2021-11-17T01:14:19.011Z</time>
      </trkpt>
      <trkpt lat="39.71848" lon="30.53244">
        <ele>933.378012</ele>
        <time>2021-11-17T01:14:45.203Z</time>
      </trkpt>
      <trkpt lat="39.71854" lon="30.53243">
        <ele>933.340261</ele>
        <time>2021-11-17T01:14:46.585Z</time>
      </trkpt>
      <trkpt lat="39.72036" lon="30.53191">
        <ele>935.532457</ele>
        <time>2021-11-17T01:15:38.060Z</time>
      </trkpt>
      <trkpt lat="39.72155" lon="30.53165">
        <ele>938.570328</ele>
        <time>2021-11-17T01:16:18.711Z</time>
      </trkpt>
      <trkpt lat="39.72345" lon="30.5314">
        <ele>942.458181</ele>
        <time>2021-11-17T01:17:23.422Z</time>
      </trkpt>
      <trkpt lat="39.7246" lon="30.53114">
        <ele>942.447634</ele>
        <time>2021-11-17T01:17:47.555Z</time>
      </trkpt>
      <trkpt lat="39.7251" lon="30.5309">
        <ele>941.076998</ele>
        <time>2021-11-17T01:17:56.521Z</time>
      </trkpt>
      <trkpt lat="39.72618" lon="30.53012">
        <ele>937.559889</ele>
        <time>2021-11-17T01:18:16.024Z</time>
      </trkpt>
      <trkpt lat="39.729" lon="30.5279">
        <ele>926.30692</ele>
        <time>2021-11-17T01:19:09.268Z</time>
      </trkpt>
      <trkpt lat="39.72931" lon="30.52763">
        <ele>925.105293</ele>
        <time>2021-11-17T01:19:15.319Z</time>
      </trkpt>
      <trkpt lat="39.73248" lon="30.52482">
        <ele>912.643327</ele>
        <time>2021-11-17T01:20:18.036Z</time>
      </trkpt>
      <trkpt lat="39.73288" lon="30.52447">
        <ele>910.961469</ele>
        <time>2021-11-17T01:20:25.688Z</time>
      </trkpt>
      <trkpt lat="39.73417" lon="30.52334">
        <ele>905.303526</ele>
        <time>2021-11-17T01:20:50.368Z</time>
      </trkpt>
      <trkpt lat="39.7344" lon="30.52314">
        <ele>904.279909</ele>
        <time>2021-11-17T01:20:54.743Z</time>
      </trkpt>
      <trkpt lat="39.73474" lon="30.52298">
        <ele>902.932049</ele>
        <time>2021-11-17T01:21:00.519Z</time>
      </trkpt>
      <trkpt lat="39.73511" lon="30.52296">
        <ele>901.551871</ele>
        <time>2021-11-17T01:21:06.386Z</time>
      </trkpt>
      <trkpt lat="39.73545" lon="30.52304">
        <ele>900.256761</ele>
        <time>2021-11-17T01:21:11.808Z</time>
      </trkpt>
      <trkpt lat="39.73577" lon="30.52312">
        <ele>899.032787</ele>
        <time>2021-11-17T01:21:17.019Z</time>
      </trkpt>
      <trkpt lat="39.73597" lon="30.52316">
        <ele>898.298479</ele>
        <time>2021-11-17T01:21:20.243Z</time>
      </trkpt>
      <trkpt lat="39.73668" lon="30.5233">
        <ele>895.620892</ele>
        <time>2021-11-17T01:21:31.717Z</time>
      </trkpt>
      <trkpt lat="39.73676" lon="30.52331">
        <ele>895.319913</ele>
        <time>2021-11-17T01:21:32.898Z</time>
      </trkpt>
      <trkpt lat="39.73704" lon="30.52332">
        <ele>894.210034</ele>
        <time>2021-11-17T01:21:37.472Z</time>
      </trkpt>
      <trkpt lat="39.73736" lon="30.52322">
        <ele>892.899387</ele>
        <time>2021-11-17T01:21:42.698Z</time>
      </trkpt>
      <trkpt lat="39.73746" lon="30.52315">
        <ele>892.447534</ele>
        <time>2021-11-17T01:21:44.405Z</time>
      </trkpt>
      <trkpt lat="39.73785" lon="30.52293">
        <ele>890.775463</ele>
        <time>2021-11-17T01:21:51.121Z</time>
      </trkpt>
      <trkpt lat="39.73828" lon="30.52256">
        <ele>888.725882</ele>
        <time>2021-11-17T01:21:59.449Z</time>
      </trkpt>
      <trkpt lat="39.73853" lon="30.52235">
        <ele>887.257263</ele>
        <time>2021-11-17T01:22:04.042Z</time>
      </trkpt>
      <trkpt lat="39.73916" lon="30.522">
        <ele>883.457475</ele>
        <time>2021-11-17T01:22:14.261Z</time>
      </trkpt>
      <trkpt lat="39.73921" lon="30.52198">
        <ele>883.199636</ele>
        <time>2021-11-17T01:22:14.916Z</time>
      </trkpt>
      <trkpt lat="39.73982" lon="30.52171">
        <ele>879.580667</ele>
        <time>2021-11-17T01:22:24.430Z</time>
      </trkpt>
      <trkpt lat="39.73991" lon="30.52168">
        <ele>879.086091</ele>
        <time>2021-11-17T01:22:25.678Z</time>
      </trkpt>
      <trkpt lat="39.7405" lon="30.52145">
        <ele>875.561237</ele>
        <time>2021-11-17T01:22:34.758Z</time>
      </trkpt>
      <trkpt lat="39.74109" lon="30.52116">
        <ele>871.935801</ele>
        <time>2021-11-17T01:22:43.870Z</time>
      </trkpt>
      <trkpt lat="39.74136" lon="30.5209">
        <ele>870.026832</ele>
        <time>2021-11-17T01:22:48.737Z</time>
      </trkpt>
      <trkpt lat="39.74155" lon="30.52053">
        <ele>868.042801</ele>
        <time>2021-11-17T01:22:54.015Z</time>
      </trkpt>
      <trkpt lat="39.74166" lon="30.52033">
        <ele>867.746291</ele>
        <time>2021-11-17T01:22:57.002Z</time>
      </trkpt>
      <trkpt lat="39.74179" lon="30.52005">
        <ele>867.433464</ele>
        <time>2021-11-17T01:23:01.166Z</time>
      </trkpt>
      <trkpt lat="39.74187" lon="30.51986">
        <ele>867.219776</ele>
        <time>2021-11-17T01:23:04.168Z</time>
      </trkpt>
      <trkpt lat="39.74202" lon="30.51944">
        <ele>866.770213</ele>
        <time>2021-11-17T01:23:10.931Z</time>
      </trkpt>
      <trkpt lat="39.74216" lon="30.51955">
        <ele>866.558541</ele>
        <time>2021-11-17T01:23:14.606Z</time>
      </trkpt>
      <trkpt lat="39.7425" lon="30.51976">
        <ele>866.08477</ele>
        <time>2021-11-17T01:23:22.740Z</time>
      </trkpt>
      <trkpt lat="39.74255" lon="30.51979">
        <ele>866.009176</ele>
        <time>2021-11-17T01:23:24.119Z</time>
      </trkpt>
      <trkpt lat="39.74265" lon="30.51985">
        <ele>865.872726</ele>
        <time>2021-11-17T01:23:26.756Z</time>
      </trkpt>
      <trkpt lat="39.74297" lon="30.51999">
        <ele>865.908964</ele>
        <time>2021-11-17T01:23:36.041Z</time>
      </trkpt>
      <trkpt lat="39.74306" lon="30.52001">
        <ele>866.012531</ele>
        <time>2021-11-17T01:23:39.001Z</time>
      </trkpt>
      <trkpt lat="39.7431" lon="30.51967">
        <ele>866.315765</ele>
        <time>2021-11-17T01:23:46.754Z</time>
      </trkpt>
      <trkpt lat="39.74317" lon="30.51923">
        <ele>866.70912</ele>
        <time>2021-11-17T01:23:57.711Z</time>
      </trkpt>
      <trkpt lat="39.74326" lon="30.51898">
        <ele>866.945131</ele>
        <time>2021-11-17T01:24:04.002Z</time>
      </trkpt>
      <trkpt lat="39.74343" lon="30.51875">
        <ele>867.227935</ele>
        <time>2021-11-17T01:24:11.204Z</time>
      </trkpt>
      <trkpt lat="39.74348" lon="30.51869">
        <ele>867.299816</ele>
        <time>2021-11-17T01:24:12.985Z</time>
      </trkpt>
      <trkpt lat="39.74389" lon="30.51832">
        <ele>867.597593</ele>
        <time>2021-11-17T01:24:25.651Z</time>
      </trkpt>
      <trkpt lat="39.74461" lon="30.51788">
        <ele>866.702716</ele>
        <time>2021-11-17T01:24:43.373Z</time>
      </trkpt>
      <trkpt lat="39.74457" lon="30.51783">
        <ele>866.649516</ele>
        <time>2021-11-17T01:24:44.148Z</time>
      </trkpt>
      <trkpt lat="39.74448" lon="30.51765">
        <ele>866.456521</ele>
        <time>2021-11-17T01:24:47.840Z</time>
      </trkpt>
      <trkpt lat="39.7445" lon="30.51754">
        <ele>866.35494</ele>
        <time>2021-11-17T01:24:49.456Z</time>
      </trkpt>
      <trkpt lat="39.74533" lon="30.51666">
        <ele>864.716474</ele>
        <time>2021-11-17T01:25:08.149Z</time>
      </trkpt>
      <trkpt lat="39.74544" lon="30.51666">
        <ele>864.502825</ele>
        <time>2021-11-17T01:25:09.943Z</time>
      </trkpt>
      <trkpt lat="39.74555" lon="30.5167">
        <ele>864.25358</ele>
        <time>2021-11-17T01:25:12.483Z</time>
      </trkpt>
      <trkpt lat="39.74547" lon="30.51651">
        <ele>863.910263</ele>
        <time>2021-11-17T01:25:15.192Z</time>
      </trkpt>
      <trkpt lat="39.74544" lon="30.51634">
        <ele>863.639482</ele>
        <time>2021-11-17T01:25:18.106Z</time>
      </trkpt>
      <trkpt lat="39.74543" lon="30.51605">
        <ele>863.190445</ele>
        <time>2021-11-17T01:25:21.834Z</time>
      </trkpt>
      <trkpt lat="39.7456" lon="30.51569">
        <ele>862.553092</ele>
        <time>2021-11-17T01:25:27.810Z</time>
      </trkpt>
      <trkpt lat="39.74594" lon="30.51497">
        <ele>861.555213</ele>
        <time>2021-11-17T01:25:40.743Z</time>
      </trkpt>
      <trkpt lat="39.74607" lon="30.5148">
        <ele>861.332459</ele>
        <time>2021-11-17T01:25:44.088Z</time>
      </trkpt>
      <trkpt lat="39.74628" lon="30.51465">
        <ele>861.030691</ele>
        <time>2021-11-17T01:25:48.658Z</time>
      </trkpt>
      <trkpt lat="39.74635" lon="30.51462">
        <ele>860.940579</ele>
        <time>2021-11-17T01:25:50.337Z</time>
      </trkpt>
      <trkpt lat="39.74644" lon="30.51459">
        <ele>860.823431</ele>
        <time>2021-11-17T01:25:52.521Z</time>
      </trkpt>
      <trkpt lat="39.74658" lon="30.51458">
        <ele>860.649277</ele>
        <time>2021-11-17T01:25:55.343Z</time>
      </trkpt>
      <trkpt lat="39.74694" lon="30.51462">
        <ele>860.194499</ele>
        <time>2021-11-17T01:26:02.482Z</time>
      </trkpt>
      <trkpt lat="39.74702" lon="30.51462">
        <ele>860.09566</ele>
        <time>2021-11-17T01:26:03.938Z</time>
      </trkpt>
      <trkpt lat="39.74706" lon="30.51463">
        <ele>860.03685</ele>
        <time>2021-11-17T01:26:04.917Z</time>
      </trkpt>
      <trkpt lat="39.7471" lon="30.51462">
        <ele>859.991788</ele>
        <time>2021-11-17T01:26:05.574Z</time>
      </trkpt>
      <trkpt lat="39.74717" lon="30.5146">
        <ele>859.899714</ele>
        <time>2021-11-17T01:26:06.815Z</time>
      </trkpt>
      <trkpt lat="39.7472" lon="30.51459">
        <ele>859.860462</ele>
        <time>2021-11-17T01:26:07.348Z</time>
      </trkpt>
      <trkpt lat="39.7475" lon="30.5145">
        <ele>858.472203</ele>
        <time>2021-11-17T01:26:12.636Z</time>
      </trkpt>
      <trkpt lat="39.74808" lon="30.51439">
        <ele>855.785326</ele>
        <time>2021-11-17T01:26:21.592Z</time>
      </trkpt>
      <trkpt lat="39.74816" lon="30.51439">
        <ele>855.42675</ele>
        <time>2021-11-17T01:26:22.811Z</time>
      </trkpt>
      <trkpt lat="39.74812" lon="30.51384">
        <ele>853.468117</ele>
        <time>2021-11-17T01:26:29.290Z</time>
      </trkpt>
      <trkpt lat="39.74812" lon="30.51341">
        <ele>851.974154</ele>
        <time>2021-11-17T01:26:34.364Z</time>
      </trkpt>
      <trkpt lat="39.74817" lon="30.51332">
        <ele>851.576912</ele>
        <time>2021-11-17T01:26:35.612Z</time>
      </trkpt>
      <trkpt lat="39.74823" lon="30.51316">
        <ele>850.980287</ele>
        <time>2021-11-17T01:26:37.875Z</time>
      </trkpt>
      <trkpt lat="39.74832" lon="30.51294">
        <ele>850.12875</ele>
        <time>2021-11-17T01:26:40.891Z</time>
      </trkpt>
      <trkpt lat="39.74872" lon="30.51212">
        <ele>846.840136</ele>
        <time>2021-11-17T01:26:52.778Z</time>
      </trkpt>
      <trkpt lat="39.74878" lon="30.51197">
        <ele>846.283436</ele>
        <time>2021-11-17T01:26:55.035Z</time>
      </trkpt>
      <trkpt lat="39.74898" lon="30.51172">
        <ele>845.038468</ele>
        <time>2021-11-17T01:26:59.665Z</time>
      </trkpt>
      <trkpt lat="39.74909" lon="30.51158">
        <ele>844.390837</ele>
        <time>2021-11-17T01:27:02.226Z</time>
      </trkpt>
      <trkpt lat="39.74919" lon="30.51146">
        <ele>843.780971</ele>
        <time>2021-11-17T01:27:04.579Z</time>
      </trkpt>
      <trkpt lat="39.74944" lon="30.51115">
        <ele>842.651281</ele>
        <time>2021-11-17T01:27:10.589Z</time>
      </trkpt>
      <trkpt lat="39.74966" lon="30.51088">
        <ele>841.67357</ele>
        <time>2021-11-17T01:27:15.965Z</time>
      </trkpt>
      <trkpt lat="39.74978" lon="30.51074">
        <ele>841.173862</ele>
        <time>2021-11-17T01:27:18.762Z</time>
      </trkpt>
      <trkpt lat="39.74989" lon="30.51053">
        <ele>840.549432</ele>
        <time>2021-11-17T01:27:22.271Z</time>
      </trkpt>
      <trkpt lat="39.75006" lon="30.51017">
        <ele>839.518304</ele>
        <time>2021-11-17T01:27:27.815Z</time>
      </trkpt>
      <trkpt lat="39.75022" lon="30.5099">
        <ele>838.660529</ele>
        <time>2021-11-17T01:27:32.349Z</time>
      </trkpt>
      <trkpt lat="39.75029" lon="30.50981">
        <ele>838.365867</ele>
        <time>2021-11-17T01:27:33.839Z</time>
      </trkpt>
      <trkpt lat="39.75044" lon="30.50957">
        <ele>837.569061</ele>
        <time>2021-11-17T01:27:37.725Z</time>
      </trkpt>
      <trkpt lat="39.75049" lon="30.50951">
        <ele>837.300806</ele>
        <time>2021-11-17T01:27:38.927Z</time>
      </trkpt>
      <trkpt lat="39.7507" lon="30.50929">
        <ele>836.324218</ele>
        <time>2021-11-17T01:27:43.318Z</time>
      </trkpt>
      <trkpt lat="39.75078" lon="30.5092">
        <ele>835.938403</ele>
        <time>2021-11-17T01:27:45.034Z</time>
      </trkpt>
      <trkpt lat="39.75097" lon="30.50897">
        <ele>834.971418</ele>
        <time>2021-11-17T01:27:49.385Z</time>
      </trkpt>
      <trkpt lat="39.75106" lon="30.50887">
        <ele>834.545906</ele>
        <time>2021-11-17T01:27:51.260Z</time>
      </trkpt>
      <trkpt lat="39.75163" lon="30.50815">
        <ele>831.634556</ele>
        <time>2021-11-17T01:28:04.661Z</time>
      </trkpt>
      <trkpt lat="39.75182" lon="30.50801">
        <ele>830.891883</ele>
        <time>2021-11-17T01:28:08.543Z</time>
      </trkpt>
      <trkpt lat="39.75189" lon="30.50796">
        <ele>830.65356</ele>
        <time>2021-11-17T01:28:09.794Z</time>
      </trkpt>
      <trkpt lat="39.75206" lon="30.50788">
        <ele>830.078312</ele>
        <time>2021-11-17T01:28:12.933Z</time>
      </trkpt>
      <trkpt lat="39.7523" lon="30.50777">
        <ele>829.269053</ele>
        <time>2021-11-17T01:28:17.292Z</time>
      </trkpt>
      <trkpt lat="39.75257" lon="30.50764">
        <ele>828.369665</ele>
        <time>2021-11-17T01:28:22.299Z</time>
      </trkpt>
      <trkpt lat="39.75263" lon="30.50759">
        <ele>828.135791</ele>
        <time>2021-11-17T01:28:23.535Z</time>
      </trkpt>
      <trkpt lat="39.75266" lon="30.50763">
        <ele>828.008869</ele>
        <time>2021-11-17T01:28:24.228Z</time>
      </trkpt>
      <trkpt lat="39.7527" lon="30.50765">
        <ele>827.878742</ele>
        <time>2021-11-17T01:28:24.929Z</time>
      </trkpt>
      <trkpt lat="39.75274" lon="30.50764">
        <ele>827.733035</ele>
        <time>2021-11-17T01:28:25.700Z</time>
      </trkpt>
      <trkpt lat="39.75276" lon="30.50763">
        <ele>827.681354</ele>
        <time>2021-11-17T01:28:25.953Z</time>
      </trkpt>
      <trkpt lat="39.7528" lon="30.50757">
        <ele>827.481498</ele>
        <time>2021-11-17T01:28:27.006Z</time>
      </trkpt>
      <trkpt lat="39.7528" lon="30.50752">
        <ele>827.372277</ele>
        <time>2021-11-17T01:28:27.549Z</time>
      </trkpt>
      <trkpt lat="39.75279" lon="30.50748">
        <ele>827.263707</ele>
        <time>2021-11-17T01:28:28.102Z</time>
      </trkpt>
      <trkpt lat="39.7529" lon="30.50739">
        <ele>826.827403</ele>
        <time>2021-11-17T01:28:30.342Z</time>
      </trkpt>
      <trkpt lat="39.7531" lon="30.50722">
        <ele>826.080957</ele>
        <time>2021-11-17T01:28:34.170Z</time>
      </trkpt>
      <trkpt lat="39.75351" lon="30.50683">
        <ele>824.534896</ele>
        <time>2021-11-17T01:28:42.478Z</time>
      </trkpt>
      <trkpt lat="39.7537" lon="30.50664">
        <ele>823.802868</ele>
        <time>2021-11-17T01:28:46.401Z</time>
      </trkpt>
      <trkpt lat="39.75394" lon="30.50644">
        <ele>822.916158</ele>
        <time>2021-11-17T01:28:51.201Z</time>
      </trkpt>
      <trkpt lat="39.75397" lon="30.50642">
        <ele>822.811032</ele>
        <time>2021-11-17T01:28:51.730Z</time>
      </trkpt>
      <trkpt lat="39.75403" lon="30.50638">
        <ele>822.620929</ele>
        <time>2021-11-17T01:28:52.700Z</time>
      </trkpt>
      <trkpt lat="39.75426" lon="30.50616">
        <ele>821.750259</ele>
        <time>2021-11-17T01:28:57.408Z</time>
      </trkpt>
      <trkpt lat="39.7543" lon="30.50612">
        <ele>821.596246</ele>
        <time>2021-11-17T01:28:58.176Z</time>
      </trkpt>
      <trkpt lat="39.75438" lon="30.50605">
        <ele>821.297947</ele>
        <time>2021-11-17T01:28:59.849Z</time>
      </trkpt>
      <trkpt lat="39.75479" lon="30.50567">
        <ele>819.797907</ele>
        <time>2021-11-17T01:29:08.319Z</time>
      </trkpt>
      <trkpt lat="39.75488" lon="30.50558">
        <ele>819.491933</ele>
        <time>2021-11-17T01:29:10.087Z</time>
      </trkpt>
      <trkpt lat="39.75513" lon="30.50539">
        <ele>818.698383</ele>
        <time>2021-11-17T01:29:14.994Z</time>
      </trkpt>
      <trkpt lat="39.75519" lon="30.50532">
        <ele>818.467447</ele>
        <time>2021-11-17T01:29:16.287Z</time>
      </trkpt>
      <trkpt lat="39.75556" lon="30.50509">
        <ele>817.338398</ele>
        <time>2021-11-17T01:29:23.062Z</time>
      </trkpt>
      <trkpt lat="39.75565" lon="30.50501">
        <ele>817.054564</ele>
        <time>2021-11-17T01:29:24.789Z</time>
      </trkpt>
      <trkpt lat="39.75609" lon="30.50482">
        <ele>815.759479</ele>
        <time>2021-11-17T01:29:32.754Z</time>
      </trkpt>
      <trkpt lat="39.75642" lon="30.50473">
        <ele>814.922482</ele>
        <time>2021-11-17T01:29:38.366Z</time>
      </trkpt>
      <trkpt lat="39.7571" lon="30.50455">
        <ele>813.403532</ele>
        <time>2021-11-17T01:29:50.501Z</time>
      </trkpt>
      <trkpt lat="39.75715" lon="30.50454">
        <ele>813.289131</ele>
        <time>2021-11-17T01:29:51.705Z</time>
      </trkpt>
      <trkpt lat="39.7578" lon="30.50436">
        <ele>811.856522</ele>
        <time>2021-11-17T01:30:03.119Z</time>
      </trkpt>
      <trkpt lat="39.75794" lon="30.50428">
        <ele>811.510973</ele>
        <time>2021-11-17T01:30:05.972Z</time>
      </trkpt>
      <trkpt lat="39.75798" lon="30.50425">
        <ele>811.420351</ele>
        <time>2021-11-17T01:30:06.663Z</time>
      </trkpt>
      <trkpt lat="39.75801" lon="30.50423">
        <ele>811.351654</ele>
        <time>2021-11-17T01:30:07.184Z</time>
      </trkpt>
      <trkpt lat="39.75839" lon="30.50398">
        <ele>810.396039</ele>
        <time>2021-11-17T01:30:14.519Z</time>
      </trkpt>
      <trkpt lat="39.75876" lon="30.5037">
        <ele>809.454942</ele>
        <time>2021-11-17T01:30:22.021Z</time>
      </trkpt>
      <trkpt lat="39.75915" lon="30.50342">
        <ele>808.45851</ele>
        <time>2021-11-17T01:30:29.718Z</time>
      </trkpt>
      <trkpt lat="39.75921" lon="30.50342">
        <ele>808.311906</ele>
        <time>2021-11-17T01:30:30.885Z</time>
      </trkpt>
      <trkpt lat="39.75931" lon="30.50339">
        <ele>808.102257</ele>
        <time>2021-11-17T01:30:32.444Z</time>
      </trkpt>
      <trkpt lat="39.75955" lon="30.50319">
        <ele>807.456805</ele>
        <time>2021-11-17T01:30:37.598Z</time>
      </trkpt>
      <trkpt lat="39.7597" lon="30.50308">
        <ele>807.177391</ele>
        <time>2021-11-17T01:30:40.730Z</time>
      </trkpt>
      <trkpt lat="39.75988" lon="30.50296">
        <ele>806.91941</ele>
        <time>2021-11-17T01:30:44.552Z</time>
      </trkpt>
      <trkpt lat="39.75998" lon="30.5029">
        <ele>806.780569</ele>
        <time>2021-11-17T01:30:46.556Z</time>
      </trkpt>
      <trkpt lat="39.76003" lon="30.50286">
        <ele>806.699911</ele>
        <time>2021-11-17T01:30:47.732Z</time>
      </trkpt>
      <trkpt lat="39.76017" lon="30.50278">
        <ele>806.505083</ele>
        <time>2021-11-17T01:30:51.487Z</time>
      </trkpt>
      <trkpt lat="39.76022" lon="30.50275">
        <ele>806.43632</ele>
        <time>2021-11-17T01:30:52.526Z</time>
      </trkpt>
      <trkpt lat="39.76023" lon="30.50274">
        <ele>806.416576</ele>
        <time>2021-11-17T01:30:52.788Z</time>
      </trkpt>
      <trkpt lat="39.76059" lon="30.5026">
        <ele>805.925765</ele>
        <time>2021-11-17T01:31:00.177Z</time>
      </trkpt>
      <trkpt lat="39.76079" lon="30.50252">
        <ele>805.667564</ele>
        <time>2021-11-17T01:31:04.190Z</time>
      </trkpt>
      <trkpt lat="39.76098" lon="30.50244">
        <ele>805.399503</ele>
        <time>2021-11-17T01:31:08.618Z</time>
      </trkpt>
      <trkpt lat="39.76129" lon="30.50224">
        <ele>804.972625</ele>
        <time>2021-11-17T01:31:16.348Z</time>
      </trkpt>
      <trkpt lat="39.76168" lon="30.50198">
        <ele>804.601059</ele>
        <time>2021-11-17T01:31:25.492Z</time>
      </trkpt>
      <trkpt lat="39.76183" lon="30.50185">
        <ele>804.447608</ele>
        <time>2021-11-17T01:31:29.349Z</time>
      </trkpt>
      <trkpt lat="39.76215" lon="30.50156">
        <ele>804.118885</ele>
        <time>2021-11-17T01:31:37.559Z</time>
      </trkpt>
      <trkpt lat="39.76227" lon="30.50145">
        <ele>803.994144</ele>
        <time>2021-11-17T01:31:40.617Z</time>
      </trkpt>
      <trkpt lat="39.76243" lon="30.50138">
        <ele>803.849449</ele>
        <time>2021-11-17T01:31:44.029Z</time>
      </trkpt>
      <trkpt lat="39.76242" lon="30.50134">
        <ele>803.825181</ele>
        <time>2021-11-17T01:31:44.648Z</time>
      </trkpt>
      <trkpt lat="39.76241" lon="30.5013">
        <ele>803.79363</ele>
        <time>2021-11-17T01:31:45.392Z</time>
      </trkpt>
      <trkpt lat="39.7624" lon="30.50127">
        <ele>803.775725</ele>
        <time>2021-11-17T01:31:45.932Z</time>
      </trkpt>
      <trkpt lat="39.76231" lon="30.50099">
        <ele>803.576551</ele>
        <time>2021-11-17T01:31:50.466Z</time>
      </trkpt>
      <trkpt lat="39.76228" lon="30.50088">
        <ele>803.503747</ele>
        <time>2021-11-17T01:31:52.125Z</time>
      </trkpt>
      <trkpt lat="39.76222" lon="30.50067">
        <ele>803.274122</ele>
        <time>2021-11-17T01:31:55.464Z</time>
      </trkpt>
      <trkpt lat="39.76194" lon="30.49952">
        <ele>801.939959</ele>
        <time>2021-11-17T01:32:13.427Z</time>
      </trkpt>
      <trkpt lat="39.76182" lon="30.49897">
        <ele>801.311079</ele>
        <time>2021-11-17T01:32:21.576Z</time>
      </trkpt>
      <trkpt lat="39.76174" lon="30.49861">
        <ele>800.901986</ele>
        <time>2021-11-17T01:32:27.131Z</time>
      </trkpt>
      <trkpt lat="39.76177" lon="30.4986">
        <ele>800.870902</ele>
        <time>2021-11-17T01:32:27.852Z</time>
      </trkpt>
      <trkpt lat="39.76172" lon="30.49838">
        <ele>800.73433</ele>
        <time>2021-11-17T01:32:40.280Z</time>
      </trkpt>
      <trkpt lat="39.76137" lon="30.49736">
        <ele>800.077077</ele>
        <time>2021-11-17T01:32:58.335Z</time>
      </trkpt>
      <trkpt lat="39.76113" lon="30.49657">
        <ele>799.578261</ele>
        <time>2021-11-17T01:33:12.708Z</time>
      </trkpt>
      <trkpt lat="39.76072" lon="30.49525">
        <ele>798.640217</ele>
        <time>2021-11-17T01:33:34.941Z</time>
      </trkpt>
      <trkpt lat="39.76082" lon="30.49521">
        <ele>798.552384</ele>
        <time>2021-11-17T01:33:36.964Z</time>
      </trkpt>
      <trkpt lat="39.76115" lon="30.49499">
        <ele>798.232882</ele>
        <time>2021-11-17T01:33:44.534Z</time>
      </trkpt>
      <trkpt lat="39.76138" lon="30.49488">
        <ele>798.018836</ele>
        <time>2021-11-17T01:33:49.699Z</time>
      </trkpt>
      <trkpt lat="39.76171" lon="30.49469">
        <ele>797.80522</ele>
        <time>2021-11-17T01:33:57.009Z</time>
      </trkpt>
      <trkpt lat="39.76204" lon="30.49452">
        <ele>797.608295</ele>
        <time>2021-11-17T01:34:04.256Z</time>
      </trkpt>
      <trkpt lat="39.76261" lon="30.49426">
        <ele>797.272211</ele>
        <time>2021-11-17T01:34:16.773Z</time>
      </trkpt>
      <trkpt lat="39.76331" lon="30.49397">
        <ele>797.076199</ele>
        <time>2021-11-17T01:34:33.314Z</time>
      </trkpt>
      <trkpt lat="39.76307" lon="30.493">
        <ele>797.473018</ele>
        <time>2021-11-17T01:34:53.792Z</time>
      </trkpt>
      <trkpt lat="39.76289" lon="30.49228">
        <ele>797.767008</ele>
        <time>2021-11-17T01:35:08.722Z</time>
      </trkpt>
      <trkpt lat="39.76275" lon="30.4917">
        <ele>797.984165</ele>
        <time>2021-11-17T01:35:20.634Z</time>
      </trkpt>
      <trkpt lat="39.7635" lon="30.49111">
        <ele>798.346881</ele>
        <time>2021-11-17T01:35:42.764Z</time>
      </trkpt>
      <trkpt lat="39.76406" lon="30.49066">
        <ele>798.622535</ele>
        <time>2021-11-17T01:35:59.237Z</time>
      </trkpt>
      <trkpt lat="39.7645" lon="30.49033">
        <ele>798.319896</ele>
        <time>2021-11-17T01:36:10.767Z</time>
      </trkpt>
      <trkpt lat="39.76463" lon="30.49028">
        <ele>798.233975</ele>
        <time>2021-11-17T01:36:13.514Z</time>
      </trkpt>
      <trkpt lat="39.76486" lon="30.49012">
        <ele>798.060986</ele>
        <time>2021-11-17T01:36:18.980Z</time>
      </trkpt>
      <trkpt lat="39.76519" lon="30.48991">
        <ele>797.814387</ele>
        <time>2021-11-17T01:36:26.556Z</time>
      </trkpt>
      <trkpt lat="39.76545" lon="30.48974">
        <ele>797.621673</ele>
        <time>2021-11-17T01:36:32.378Z</time>
      </trkpt>
      <trkpt lat="39.76594" lon="30.48941">
        <ele>797.11327</ele>
        <time>2021-11-17T01:36:43.195Z</time>
      </trkpt>
      <trkpt lat="39.76595" lon="30.4894">
        <ele>797.092343</ele>
        <time>2021-11-17T01:36:43.530Z</time>
      </trkpt>
      <trkpt lat="39.76605" lon="30.48932">
        <ele>796.948356</ele>
        <time>2021-11-17T01:36:45.875Z</time>
      </trkpt>
      <trkpt lat="39.76631" lon="30.48914">
        <ele>796.605821</ele>
        <time>2021-11-17T01:36:51.348Z</time>
      </trkpt>
      <trkpt lat="39.76701" lon="30.48854">
        <ele>795.603641</ele>
        <time>2021-11-17T01:37:07.615Z</time>
      </trkpt>
      <trkpt lat="39.76798" lon="30.48776">
        <ele>795.195312</ele>
        <time>2021-11-17T01:37:32.221Z</time>
      </trkpt>
      <trkpt lat="39.76857" lon="30.48724">
        <ele>795.108134</ele>
        <time>2021-11-17T01:37:49.389Z</time>
      </trkpt>
      <trkpt lat="39.76907" lon="30.48684">
        <ele>795.36217</ele>
        <time>2021-11-17T01:38:04.212Z</time>
      </trkpt>
      <trkpt lat="39.76884" lon="30.48622">
        <ele>795.743109</ele>
        <time>2021-11-17T01:38:18.479Z</time>
      </trkpt>
      <trkpt lat="39.76903" lon="30.48608">
        <ele>795.899107</ele>
        <time>2021-11-17T01:38:24.374Z</time>
      </trkpt>
      <trkpt lat="39.76908" lon="30.48604">
        <ele>795.944287</ele>
        <time>2021-11-17T01:38:26.115Z</time>
      </trkpt>
      <trkpt lat="39.7692" lon="30.48593">
        <ele>796.04614</ele>
        <time>2021-11-17T01:38:30.015Z</time>
      </trkpt>
      <trkpt lat="39.76926" lon="30.48589">
        <ele>796.096857</ele>
        <time>2021-11-17T01:38:31.851Z</time>
      </trkpt>
      <trkpt lat="39.77068" lon="30.4847">
        <ele>796.700466</ele>
        <time>2021-11-17T01:39:12.995Z</time>
      </trkpt>
      <trkpt lat="39.76974" lon="30.48353">
        <ele>796.450497</ele>
        <time>2021-11-17T01:39:39.961Z</time>
      </trkpt>
      <trkpt lat="39.76944" lon="30.4832">
        <ele>796.268058</ele>
        <time>2021-11-17T01:39:47.751Z</time>
      </trkpt>
      <trkpt lat="39.76933" lon="30.48309">
        <ele>796.203798</ele>
        <time>2021-11-17T01:39:50.517Z</time>
      </trkpt>
      <trkpt lat="39.76881" lon="30.48262">
        <ele>795.995122</ele>
        <time>2021-11-17T01:40:03.604Z</time>
      </trkpt>
      <trkpt lat="39.76866" lon="30.4824">
        <ele>796.005154</ele>
        <time>2021-11-17T01:40:08.431Z</time>
      </trkpt>
      <trkpt lat="39.76858" lon="30.48208">
        <ele>796.016633</ele>
        <time>2021-11-17T01:40:14.058Z</time>
      </trkpt>
      <trkpt lat="39.76857" lon="30.48191">
        <ele>796.022441</ele>
        <time>2021-11-17T01:40:16.952Z</time>
      </trkpt>
      <trkpt lat="39.76864" lon="30.48152">
        <ele>796.036122</ele>
        <time>2021-11-17T01:40:24.192Z</time>
      </trkpt>
      <trkpt lat="39.76885" lon="30.48096">
        <ele>796.057278</ele>
        <time>2021-11-17T01:40:35.358Z</time>
      </trkpt>
      <trkpt lat="39.76896" lon="30.48071">
        <ele>796.067314</ele>
        <time>2021-11-17T01:40:40.630Z</time>
      </trkpt>
      <trkpt lat="39.76901" lon="30.4806">
        <ele>796.09626</ele>
        <time>2021-11-17T01:40:42.706Z</time>
      </trkpt>
      <trkpt lat="39.76926" lon="30.48006">
        <ele>796.255435</ele>
        <time>2021-11-17T01:40:53.857Z</time>
      </trkpt>
      <trkpt lat="39.76931" lon="30.47999">
        <ele>796.278299</ele>
        <time>2021-11-17T01:40:55.539Z</time>
      </trkpt>
      <trkpt lat="39.77025" lon="30.47844">
        <ele>796.798871</ele>
        <time>2021-11-17T01:41:32.063Z</time>
      </trkpt>
      <trkpt lat="39.77057" lon="30.47794">
        <ele>796.992838</ele>
        <time>2021-11-17T01:41:43.975Z</time>
      </trkpt>
      <trkpt lat="39.77079" lon="30.47764">
        <ele>797.114989</ele>
        <time>2021-11-17T01:41:51.397Z</time>
      </trkpt>
      <trkpt lat="39.77092" lon="30.47752">
        <ele>797.177779</ele>
        <time>2021-11-17T01:41:55.274Z</time>
      </trkpt>
      <trkpt lat="39.7713" lon="30.47711">
        <ele>797.356666</ele>
        <time>2021-11-17T01:42:06.724Z</time>
      </trkpt>
      <trkpt lat="39.77162" lon="30.47669">
        <ele>797.391967</ele>
        <time>2021-11-17T01:42:17.312Z</time>
      </trkpt>
      <trkpt lat="39.77193" lon="30.47627">
        <ele>797.426365</ele>
        <time>2021-11-17T01:42:27.923Z</time>
      </trkpt>
      <trkpt lat="39.77219" lon="30.47591">
        <ele>797.455705</ele>
        <time>2021-11-17T01:42:36.301Z</time>
      </trkpt>
      <trkpt lat="39.77222" lon="30.47579">
        <ele>797.462787</ele>
        <time>2021-11-17T01:42:38.252Z</time>
      </trkpt>
      <trkpt lat="39.77229" lon="30.47571">
        <ele>797.470028</ele>
        <time>2021-11-17T01:42:40.252Z</time>
      </trkpt>
      <trkpt lat="39.77259" lon="30.4753">
        <ele>797.484505</ele>
        <time>2021-11-17T01:42:49.488Z</time>
      </trkpt>
      <trkpt lat="39.77271" lon="30.47514">
        <ele>797.475457</ele>
        <time>2021-11-17T01:42:53.275Z</time>
      </trkpt>
      <trkpt lat="39.7729" lon="30.47489">
        <ele>797.461911</ele>
        <time>2021-11-17T01:42:59.101Z</time>
      </trkpt>
      <trkpt lat="39.77292" lon="30.47486">
        <ele>797.46019</ele>
        <time>2021-11-17T01:42:59.846Z</time>
      </trkpt>
      <trkpt lat="39.77399" lon="30.47369">
        <ele>797.361538</ele>
        <time>2021-11-17T01:43:31.164Z</time>
      </trkpt>
      <trkpt lat="39.77449" lon="30.47319">
        <ele>797.252178</ele>
        <time>2021-11-17T01:43:44.903Z</time>
      </trkpt>
      <trkpt lat="39.7752" lon="30.47245">
        <ele>797.093802</ele>
        <time>2021-11-17T01:44:04.403Z</time>
      </trkpt>
      <trkpt lat="39.77524" lon="30.47241">
        <ele>797.084123</ele>
        <time>2021-11-17T01:44:05.319Z</time>
      </trkpt>
      <trkpt lat="39.77526" lon="30.47238">
        <ele>797.07144</ele>
        <time>2021-11-17T01:44:06.054Z</time>
      </trkpt>
      <trkpt lat="39.77539" lon="30.47222">
        <ele>797.008093</ele>
        <time>2021-11-17T01:44:09.699Z</time>
      </trkpt>
      <trkpt lat="39.77542" lon="30.47219">
        <ele>796.994219</ele>
        <time>2021-11-17T01:44:10.487Z</time>
      </trkpt>
      <trkpt lat="39.77516" lon="30.4719">
        <ele>796.869232</ele>
        <time>2021-11-17T01:44:17.592Z</time>
      </trkpt>
      <trkpt lat="39.775" lon="30.47173">
        <ele>796.793329</ele>
        <time>2021-11-17T01:44:21.965Z</time>
      </trkpt>
      <trkpt lat="39.77488" lon="30.47159">
        <ele>796.73586</ele>
        <time>2021-11-17T01:44:25.308Z</time>
      </trkpt>
      <trkpt lat="39.77477" lon="30.47148">
        <ele>796.686567</ele>
        <time>2021-11-17T01:44:28.196Z</time>
      </trkpt>
      <trkpt lat="39.77442" lon="30.4711">
        <ele>796.523709</ele>
        <time>2021-11-17T01:44:37.670Z</time>
      </trkpt>
      <trkpt lat="39.77432" lon="30.47095">
        <ele>796.465906</ele>
        <time>2021-11-17T01:44:41.112Z</time>
      </trkpt>
      <trkpt lat="39.77414" lon="30.4706">
        <ele>796.379371</ele>
        <time>2021-11-17T01:44:47.752Z</time>
      </trkpt>
      <trkpt lat="39.77413" lon="30.47057">
        <ele>796.372034</ele>
        <time>2021-11-17T01:44:48.479Z</time>
      </trkpt>
      <trkpt lat="39.77403" lon="30.47028">
        <ele>796.31391</ele>
        <time>2021-11-17T01:44:53.397Z</time>
      </trkpt>
      <trkpt lat="39.77394" lon="30.46976">
        <ele>796.216267</ele>
        <time>2021-11-17T01:45:01.780Z</time>
      </trkpt>
      <trkpt lat="39.77391" lon="30.46961">
        <ele>796.186916</ele>
        <time>2021-11-17T01:45:04.430Z</time>
      </trkpt>
      <trkpt lat="39.77382" lon="30.46905">
        <ele>796.080699</ele>
        <time>2021-11-17T01:45:14.260Z</time>
      </trkpt>
      <trkpt lat="39.77381" lon="30.46853">
        <ele>796.021251</ele>
        <time>2021-11-17T01:45:23.222Z</time>
      </trkpt>
      <trkpt lat="39.77382" lon="30.46808">
        <ele>796.0905</ele>
        <time>2021-11-17T01:45:30.704Z</time>
      </trkpt>
      <trkpt lat="39.77382" lon="30.46782">
        <ele>796.129516</ele>
        <time>2021-11-17T01:45:34.975Z</time>
      </trkpt>
      <trkpt lat="39.77385" lon="30.46757">
        <ele>796.168287</ele>
        <time>2021-11-17T01:45:39.238Z</time>
      </trkpt>
      <trkpt lat="39.77389" lon="30.4671">
        <ele>796.241381</ele>
        <time>2021-11-17T01:45:47.611Z</time>
      </trkpt>
      <trkpt lat="39.77394" lon="30.46665">
        <ele>796.311645</ele>
        <time>2021-11-17T01:45:55.972Z</time>
      </trkpt>
      <trkpt lat="39.77399" lon="30.46614">
        <ele>796.387092</ele>
        <time>2021-11-17T01:46:05.981Z</time>
      </trkpt>
      <trkpt lat="39.77402" lon="30.4658">
        <ele>796.433949</ele>
        <time>2021-11-17T01:46:12.954Z</time>
      </trkpt>
      <trkpt lat="39.77407" lon="30.46536">
        <ele>796.493981</ele>
        <time>2021-11-17T01:46:21.552Z</time>
      </trkpt>
      <trkpt lat="39.77409" lon="30.46516">
        <ele>796.520106</ele>
        <time>2021-11-17T01:46:25.015Z</time>
      </trkpt>
      <trkpt lat="39.77411" lon="30.46489">
        <ele>796.557233</ele>
        <time>2021-11-17T01:46:29.880Z</time>
      </trkpt>
      <trkpt lat="39.77414" lon="30.46446">
        <ele>796.614943</ele>
        <time>2021-11-17T01:46:37.426Z</time>
      </trkpt>
      <trkpt lat="39.77415" lon="30.46434">
        <ele>796.631272</ele>
        <time>2021-11-17T01:46:39.540Z</time>
      </trkpt>
      <trkpt lat="39.77419" lon="30.46399">
        <ele>796.677795</ele>
        <time>2021-11-17T01:46:45.810Z</time>
      </trkpt>
      <trkpt lat="39.77424" lon="30.46356">
        <ele>796.597033</ele>
        <time>2021-11-17T01:46:53.604Z</time>
      </trkpt>
      <trkpt lat="39.77428" lon="30.46312">
        <ele>796.514743</ele>
        <time>2021-11-17T01:47:01.075Z</time>
      </trkpt>
      <trkpt lat="39.77432" lon="30.46266">
        <ele>796.426077</ele>
        <time>2021-11-17T01:47:08.963Z</time>
      </trkpt>
      <trkpt lat="39.7744" lon="30.46192">
        <ele>796.28515</ele>
        <time>2021-11-17T01:47:21.303Z</time>
      </trkpt>
      <trkpt lat="39.77443" lon="30.46098">
        <ele>796.268289</ele>
        <time>2021-11-17T01:47:37.406Z</time>
      </trkpt>
      <trkpt lat="39.77445" lon="30.45948">
        <ele>796.339409</ele>
        <time>2021-11-17T01:48:05.317Z</time>
      </trkpt>
      <trkpt lat="39.77452" lon="30.4585">
        <ele>796.509302</ele>
        <time>2021-11-17T01:48:23.593Z</time>
      </trkpt>
      <trkpt lat="39.77482" lon="30.45685">
        <ele>796.845449</ele>
        <time>2021-11-17T01:48:54.953Z</time>
      </trkpt>
      <trkpt lat="39.77488" lon="30.45658">
        <ele>796.901605</ele>
        <time>2021-11-17T01:49:00.226Z</time>
      </trkpt>
      <trkpt lat="39.77492" lon="30.45608">
        <ele>797.004386</ele>
        <time>2021-11-17T01:49:09.455Z</time>
      </trkpt>
      <trkpt lat="39.77494" lon="30.4556">
        <ele>797.102848</ele>
        <time>2021-11-17T01:49:18.177Z</time>
      </trkpt>
      <trkpt lat="39.77495" lon="30.45532">
        <ele>797.158618</ele>
        <time>2021-11-17T01:49:22.942Z</time>
      </trkpt>
      <trkpt lat="39.77494" lon="30.45466">
        <ele>797.281493</ele>
        <time>2021-11-17T01:49:34.795Z</time>
      </trkpt>
      <trkpt lat="39.7749" lon="30.45423">
        <ele>797.259833</ele>
        <time>2021-11-17T01:49:42.319Z</time>
      </trkpt>
      <trkpt lat="39.77489" lon="30.45408">
        <ele>797.252148</ele>
        <time>2021-11-17T01:49:44.926Z</time>
      </trkpt>
      <trkpt lat="39.77483" lon="30.4536">
        <ele>797.227888</ele>
        <time>2021-11-17T01:49:53.251Z</time>
      </trkpt>
      <trkpt lat="39.77475" lon="30.4531">
        <ele>797.202339</ele>
        <time>2021-11-17T01:50:02.065Z</time>
      </trkpt>
      <trkpt lat="39.7747" lon="30.4527">
        <ele>797.181933</ele>
        <time>2021-11-17T01:50:08.779Z</time>
      </trkpt>
      <trkpt lat="39.77467" lon="30.45238">
        <ele>797.165311</ele>
        <time>2021-11-17T01:50:13.786Z</time>
      </trkpt>
      <trkpt lat="39.7746" lon="30.45161">
        <ele>797.090822</ele>
        <time>2021-11-17T01:50:26.069Z</time>
      </trkpt>
      <trkpt lat="39.77459" lon="30.45156">
        <ele>797.086117</ele>
        <time>2021-11-17T01:50:26.829Z</time>
      </trkpt>
      <trkpt lat="39.77454" lon="30.45125">
        <ele>797.056245</ele>
        <time>2021-11-17T01:50:31.941Z</time>
      </trkpt>
      <trkpt lat="39.7745" lon="30.4507">
        <ele>797.003528</ele>
        <time>2021-11-17T01:50:41.426Z</time>
      </trkpt>
      <trkpt lat="39.77449" lon="30.45024">
        <ele>796.958721</ele>
        <time>2021-11-17T01:50:49.807Z</time>
      </trkpt>
      <trkpt lat="39.77448" lon="30.44978">
        <ele>796.978079</ele>
        <time>2021-11-17T01:50:58.030Z</time>
      </trkpt>
      <trkpt lat="39.77447" lon="30.44934">
        <ele>797.032916</ele>
        <time>2021-11-17T01:51:05.869Z</time>
      </trkpt>
      <trkpt lat="39.77447" lon="30.44882">
        <ele>797.097357</ele>
        <time>2021-11-17T01:51:14.921Z</time>
      </trkpt>
      <trkpt lat="39.77444" lon="30.44839">
        <ele>797.150598</ele>
        <time>2021-11-17T01:51:22.520Z</time>
      </trkpt>
      <trkpt lat="39.77441" lon="30.44796">
        <ele>797.202827</ele>
        <time>2021-11-17T01:51:30.095Z</time>
      </trkpt>
      <trkpt lat="39.77435" lon="30.44723">
        <ele>797.18558</ele>
        <time>2021-11-17T01:51:43.044Z</time>
      </trkpt>
      <trkpt lat="39.77428" lon="30.4466">
        <ele>797.129093</ele>
        <time>2021-11-17T01:51:53.604Z</time>
      </trkpt>
      <trkpt lat="39.77421" lon="30.44561">
        <ele>797.039506</ele>
        <time>2021-11-17T01:52:09.491Z</time>
      </trkpt>
      <trkpt lat="39.77414" lon="30.44269">
        <ele>797.568142</ele>
        <time>2021-11-17T01:53:00.610Z</time>
      </trkpt>
      <trkpt lat="39.7742" lon="30.44245">
        <ele>797.773514</ele>
        <time>2021-11-17T01:53:05.626Z</time>
      </trkpt>
      <trkpt lat="39.77429" lon="30.44227">
        <ele>797.952224</ele>
        <time>2021-11-17T01:53:10.042Z</time>
      </trkpt>
      <trkpt lat="39.77482" lon="30.44175">
        <ele>798.653928</ele>
        <time>2021-11-17T01:53:27.751Z</time>
      </trkpt>
      <trkpt lat="39.7749" lon="30.44164">
        <ele>798.771945</ele>
        <time>2021-11-17T01:53:30.997Z</time>
      </trkpt>
      <trkpt lat="39.7751" lon="30.44126">
        <ele>799.155072</ele>
        <time>2021-11-17T01:53:41.266Z</time>
      </trkpt>
      <trkpt lat="39.77528" lon="30.44071">
        <ele>799.833782</ele>
        <time>2021-11-17T01:53:54.739Z</time>
      </trkpt>
      <trkpt lat="39.77539" lon="30.44">
        <ele>800.658305</ele>
        <time>2021-11-17T01:54:11.049Z</time>
      </trkpt>
      <trkpt lat="39.77554" lon="30.43898">
        <ele>801.854403</ele>
        <time>2021-11-17T01:54:33.407Z</time>
      </trkpt>
      <trkpt lat="39.77556" lon="30.43881">
        <ele>801.919402</ele>
        <time>2021-11-17T01:54:36.785Z</time>
      </trkpt>
      <trkpt lat="39.77563" lon="30.43839">
        <ele>802.086527</ele>
        <time>2021-11-17T01:54:45.095Z</time>
      </trkpt>
      <trkpt lat="39.77578" lon="30.43724">
        <ele>802.542518</ele>
        <time>2021-11-17T01:55:06.586Z</time>
      </trkpt>
      <trkpt lat="39.77593" lon="30.43616">
        <ele>802.977842</ele>
        <time>2021-11-17T01:55:25.353Z</time>
      </trkpt>
      <trkpt lat="39.77618" lon="30.43452">
        <ele>803.659396</ele>
        <time>2021-11-17T01:55:56.597Z</time>
      </trkpt>
      <trkpt lat="39.77641" lon="30.43289">
        <ele>805.158663</ele>
        <time>2021-11-17T01:56:31.836Z</time>
      </trkpt>
      <trkpt lat="39.77646" lon="30.43256">
        <ele>805.473888</ele>
        <time>2021-11-17T01:56:38.899Z</time>
      </trkpt>
      <trkpt lat="39.7765" lon="30.43231">
        <ele>805.72384</ele>
        <time>2021-11-17T01:56:44.613Z</time>
      </trkpt>
      <trkpt lat="39.77671" lon="30.43097">
        <ele>806.425391</ele>
        <time>2021-11-17T01:57:12.330Z</time>
      </trkpt>
      <trkpt lat="39.77702" lon="30.42834">
        <ele>806.52322</ele>
        <time>2021-11-17T01:57:58.121Z</time>
      </trkpt>
      <trkpt lat="39.77711" lon="30.42785">
        <ele>806.377203</ele>
        <time>2021-11-17T01:58:05.750Z</time>
      </trkpt>
      <trkpt lat="39.7776" lon="30.42612">
        <ele>804.971926</ele>
        <time>2021-11-17T01:58:32.290Z</time>
      </trkpt>
      <trkpt lat="39.77808" lon="30.42471">
        <ele>803.885835</ele>
        <time>2021-11-17T01:58:54.865Z</time>
      </trkpt>
      <trkpt lat="39.77901" lon="30.42076">
        <ele>802.351486</ele>
        <time>2021-11-17T02:00:01.339Z</time>
      </trkpt>
      <trkpt lat="39.77908" lon="30.42032">
        <ele>802.144907</ele>
        <time>2021-11-17T02:00:08.581Z</time>
      </trkpt>
      <trkpt lat="39.77913" lon="30.42006">
        <ele>802.025651</ele>
        <time>2021-11-17T02:00:12.714Z</time>
      </trkpt>
      <trkpt lat="39.77919" lon="30.41977">
        <ele>801.888607</ele>
        <time>2021-11-17T02:00:17.400Z</time>
      </trkpt>
      <trkpt lat="39.77936" lon="30.41932">
        <ele>801.659611</ele>
        <time>2021-11-17T02:00:25.173Z</time>
      </trkpt>
      <trkpt lat="39.77944" lon="30.41917">
        <ele>801.577278</ele>
        <time>2021-11-17T02:00:27.957Z</time>
      </trkpt>
      <trkpt lat="39.78003" lon="30.41803">
        <ele>800.919599</ele>
        <time>2021-11-17T02:00:49.164Z</time>
      </trkpt>
      <trkpt lat="39.78014" lon="30.41737">
        <ele>800.590938</ele>
        <time>2021-11-17T02:00:59.505Z</time>
      </trkpt>
      <trkpt lat="39.78027" lon="30.41627">
        <ele>800.169958</ele>
        <time>2021-11-17T02:01:16.889Z</time>
      </trkpt>
      <trkpt lat="39.78037" lon="30.4153">
        <ele>800.087112</ele>
        <time>2021-11-17T02:01:33.634Z</time>
      </trkpt>
      <trkpt lat="39.78074" lon="30.41202">
        <ele>800.249143</ele>
        <time>2021-11-17T02:02:31.568Z</time>
      </trkpt>
      <trkpt lat="39.78085" lon="30.41127">
        <ele>800.358966</ele>
        <time>2021-11-17T02:02:45.346Z</time>
      </trkpt>
      <trkpt lat="39.78125" lon="30.40902">
        <ele>800.636778</ele>
        <time>2021-11-17T02:03:26.026Z</time>
      </trkpt>
      <trkpt lat="39.78156" lon="30.40745">
        <ele>800.716514</ele>
        <time>2021-11-17T02:03:53.660Z</time>
      </trkpt>
      <trkpt lat="39.78198" lon="30.4053">
        <ele>801.588877</ele>
        <time>2021-11-17T02:04:34.328Z</time>
      </trkpt>
      <trkpt lat="39.78221" lon="30.40404">
        <ele>802.847568</ele>
        <time>2021-11-17T02:05:01.821Z</time>
      </trkpt>
      <trkpt lat="39.78238" lon="30.40328">
        <ele>803.699249</ele>
        <time>2021-11-17T02:05:18.980Z</time>
      </trkpt>
      <trkpt lat="39.7824" lon="30.40323">
        <ele>803.764768</ele>
        <time>2021-11-17T02:05:20.577Z</time>
      </trkpt>
      <trkpt lat="39.78242" lon="30.40319">
        <ele>803.816599</ele>
        <time>2021-11-17T02:05:21.817Z</time>
      </trkpt>
      <trkpt lat="39.7867" lon="30.39369">
        <ele>816.221341</ele>
        <time>2021-11-17T02:09:21.739Z</time>
      </trkpt>
      <trkpt lat="39.7872" lon="30.39252">
        <ele>816.86696</ele>
        <time>2021-11-17T02:09:46.452Z</time>
      </trkpt>
      <trkpt lat="39.78934" lon="30.38711">
        <ele>814.051236</ele>
        <time>2021-11-17T02:11:21.096Z</time>
      </trkpt>
      <trkpt lat="39.78979" lon="30.3863">
        <ele>813.173417</ele>
        <time>2021-11-17T02:11:35.292Z</time>
      </trkpt>
      <trkpt lat="39.7902" lon="30.38578">
        <ele>812.240056</ele>
        <time>2021-11-17T02:11:45.606Z</time>
      </trkpt>
      <trkpt lat="39.79147" lon="30.38441">
        <ele>809.770138</ele>
        <time>2021-11-17T02:12:15.369Z</time>
      </trkpt>
      <trkpt lat="39.79279" lon="30.38335">
        <ele>807.98934</ele>
        <time>2021-11-17T02:12:44.998Z</time>
      </trkpt>
      <trkpt lat="39.79348" lon="30.38264">
        <ele>807.349189</ele>
        <time>2021-11-17T02:13:02.523Z</time>
      </trkpt>
      <trkpt lat="39.79382" lon="30.38219">
        <ele>807.008086</ele>
        <time>2021-11-17T02:13:12.501Z</time>
      </trkpt>
      <trkpt lat="39.79409" lon="30.38173">
        <ele>806.97402</ele>
        <time>2021-11-17T02:13:21.743Z</time>
      </trkpt>
      <trkpt lat="39.79988" lon="30.37015">
        <ele>806.172618</ele>
        <time>2021-11-17T02:17:15.716Z</time>
      </trkpt>
      <trkpt lat="39.80058" lon="30.36838">
        <ele>805.983741</ele>
        <time>2021-11-17T02:17:48.579Z</time>
      </trkpt>
      <trkpt lat="39.80093" lon="30.3672">
        <ele>805.833606</ele>
        <time>2021-11-17T02:18:09.556Z</time>
      </trkpt>
      <trkpt lat="39.8012" lon="30.36602">
        <ele>805.720942</ele>
        <time>2021-11-17T02:18:30.224Z</time>
      </trkpt>
      <trkpt lat="39.80128" lon="30.36569">
        <ele>805.741854</ele>
        <time>2021-11-17T02:18:35.997Z</time>
      </trkpt>
      <trkpt lat="39.80146" lon="30.36283">
        <ele>806.135438</ele>
        <time>2021-11-17T02:19:26.663Z</time>
      </trkpt>
      <trkpt lat="39.80182" lon="30.35883">
        <ele>807.430777</ele>
        <time>2021-11-17T02:20:41.529Z</time>
      </trkpt>
      <trkpt lat="39.80192" lon="30.3582">
        <ele>807.570924</ele>
        <time>2021-11-17T02:20:53.107Z</time>
      </trkpt>
      <trkpt lat="39.80223" lon="30.35702">
        <ele>807.84696</ele>
        <time>2021-11-17T02:21:15.339Z</time>
      </trkpt>
      <trkpt lat="39.80274" lon="30.35539">
        <ele>807.883175</ele>
        <time>2021-11-17T02:21:45.431Z</time>
      </trkpt>
      <trkpt lat="39.80305" lon="30.35463">
        <ele>807.88581</ele>
        <time>2021-11-17T02:21:59.861Z</time>
      </trkpt>
      <trkpt lat="39.80519" lon="30.35012">
        <ele>808.148052</ele>
        <time>2021-11-17T02:23:29.676Z</time>
      </trkpt>
      <trkpt lat="39.8064" lon="30.34775">
        <ele>809.909178</ele>
        <time>2021-11-17T02:24:27.048Z</time>
      </trkpt>
      <trkpt lat="39.80649" lon="30.34763">
        <ele>810.037958</ele>
        <time>2021-11-17T02:24:30.389Z</time>
      </trkpt>
      <trkpt lat="39.80659" lon="30.34758">
        <ele>810.145597</ele>
        <time>2021-11-17T02:24:33.098Z</time>
      </trkpt>
      <trkpt lat="39.80662" lon="30.34758">
        <ele>810.175214</ele>
        <time>2021-11-17T02:24:34.226Z</time>
      </trkpt>
      <trkpt lat="39.80673" lon="30.34756">
        <ele>810.289668</ele>
        <time>2021-11-17T02:24:37.120Z</time>
      </trkpt>
      <trkpt lat="39.80698" lon="30.34754">
        <ele>810.546042</ele>
        <time>2021-11-17T02:24:43.961Z</time>
      </trkpt>
      <trkpt lat="39.80719" lon="30.34752">
        <ele>810.703767</ele>
        <time>2021-11-17T02:24:49.120Z</time>
      </trkpt>
      <trkpt lat="39.80738" lon="30.34729">
        <ele>810.80045</ele>
        <time>2021-11-17T02:24:56.310Z</time>
      </trkpt>
      <trkpt lat="39.80742" lon="30.34707">
        <ele>810.862914</ele>
        <time>2021-11-17T02:25:00.586Z</time>
      </trkpt>
      <trkpt lat="39.80739" lon="30.34679">
        <ele>810.942188</ele>
        <time>2021-11-17T02:25:06.242Z</time>
      </trkpt>
      <trkpt lat="39.80752" lon="30.34635">
        <ele>811.071088</ele>
        <time>2021-11-17T02:25:15.021Z</time>
      </trkpt>
      <trkpt lat="39.8077" lon="30.34585">
        <ele>811.226966</ele>
        <time>2021-11-17T02:25:24.413Z</time>
      </trkpt>
      <trkpt lat="39.80779" lon="30.34574">
        <ele>811.267868</ele>
        <time>2021-11-17T02:25:26.780Z</time>
      </trkpt>
      <trkpt lat="39.80786" lon="30.34575">
        <ele>811.294331</ele>
        <time>2021-11-17T02:25:28.304Z</time>
      </trkpt>
      <trkpt lat="39.80804" lon="30.34546">
        <ele>811.247669</ele>
        <time>2021-11-17T02:25:34.447Z</time>
      </trkpt>
      <trkpt lat="39.80804" lon="30.34544">
        <ele>811.241515</ele>
        <time>2021-11-17T02:25:34.757Z</time>
      </trkpt>
      <trkpt lat="39.8081" lon="30.34524">
        <ele>811.17501</ele>
        <time>2021-11-17T02:25:38.241Z</time>
      </trkpt>
      <trkpt lat="39.80828" lon="30.34501">
        <ele>811.075606</ele>
        <time>2021-11-17T02:25:43.713Z</time>
      </trkpt>
      <trkpt lat="39.80831" lon="30.34498">
        <ele>811.060333</ele>
        <time>2021-11-17T02:25:44.436Z</time>
      </trkpt>
      <trkpt lat="39.80848" lon="30.3447">
        <ele>810.949264</ele>
        <time>2021-11-17T02:25:50.676Z</time>
      </trkpt>
      <trkpt lat="39.80854" lon="30.3446">
        <ele>810.913297</ele>
        <time>2021-11-17T02:25:52.543Z</time>
      </trkpt>
      <trkpt lat="39.80858" lon="30.34448">
        <ele>810.873655</ele>
        <time>2021-11-17T02:25:54.782Z</time>
      </trkpt>
      <trkpt lat="39.80877" lon="30.34398">
        <ele>810.701906</ele>
        <time>2021-11-17T02:26:04.184Z</time>
      </trkpt>
      <trkpt lat="39.80946" lon="30.34303">
        <ele>810.361563</ele>
        <time>2021-11-17T02:26:26.051Z</time>
      </trkpt>
      <trkpt lat="39.81064" lon="30.34107">
        <ele>809.954795</ele>
        <time>2021-11-17T02:27:08.459Z</time>
      </trkpt>
      <trkpt lat="39.81112" lon="30.34056">
        <ele>809.901</ele>
        <time>2021-11-17T02:27:22.670Z</time>
      </trkpt>
      <trkpt lat="39.81367" lon="30.33858">
        <ele>810.84836</ele>
        <time>2021-11-17T02:28:36.114Z</time>
      </trkpt>
      <trkpt lat="39.81498" lon="30.33712">
        <ele>811.223283</ele>
        <time>2021-11-17T02:29:18.037Z</time>
      </trkpt>
      <trkpt lat="39.81699" lon="30.33453">
        <ele>811.140825</ele>
        <time>2021-11-17T02:30:22.368Z</time>
      </trkpt>
      <trkpt lat="39.81736" lon="30.33409">
        <ele>811.223095</ele>
        <time>2021-11-17T02:30:34.124Z</time>
      </trkpt>
      <trkpt lat="39.81769" lon="30.33379">
        <ele>811.288669</ele>
        <time>2021-11-17T02:30:43.637Z</time>
      </trkpt>
      <trkpt lat="39.8178" lon="30.33352">
        <ele>811.326895</ele>
        <time>2021-11-17T02:30:49.247Z</time>
      </trkpt>
      <trkpt lat="39.81804" lon="30.33325">
        <ele>811.378805</ele>
        <time>2021-11-17T02:30:56.938Z</time>
      </trkpt>
      <trkpt lat="39.81962" lon="30.33008">
        <ele>812.588998</ele>
        <time>2021-11-17T02:32:08.793Z</time>
      </trkpt>
      <trkpt lat="39.8202" lon="30.32862">
        <ele>813.436896</ele>
        <time>2021-11-17T02:32:41.899Z</time>
      </trkpt>
      <trkpt lat="39.82037" lon="30.32807">
        <ele>813.842754</ele>
        <time>2021-11-17T02:32:54.114Z</time>
      </trkpt>
      <trkpt lat="39.82053" lon="30.32758">
        <ele>814.20497</ele>
        <time>2021-11-17T02:33:05.185Z</time>
      </trkpt>
      <trkpt lat="39.82094" lon="30.32744">
        <ele>814.586582</ele>
        <time>2021-11-17T02:33:16.762Z</time>
      </trkpt>
      <trkpt lat="39.82088" lon="30.32709">
        <ele>814.822227</ele>
        <time>2021-11-17T02:33:24.002Z</time>
      </trkpt>
      <trkpt lat="39.82084" lon="30.32672">
        <ele>814.996214</ele>
        <time>2021-11-17T02:33:31.511Z</time>
      </trkpt>
      <trkpt lat="39.82087" lon="30.32619">
        <ele>815.247145</ele>
        <time>2021-11-17T02:33:42.304Z</time>
      </trkpt>
      <trkpt lat="39.82102" lon="30.32531">
        <ele>815.674968</ele>
        <time>2021-11-17T02:33:59.527Z</time>
      </trkpt>
      <trkpt lat="39.82126" lon="30.32463">
        <ele>816.056386</ele>
        <time>2021-11-17T02:34:13.928Z</time>
      </trkpt>
      <trkpt lat="39.82147" lon="30.3242">
        <ele>816.353063</ele>
        <time>2021-11-17T02:34:23.758Z</time>
      </trkpt>
      <trkpt lat="39.82167" lon="30.32387">
        <ele>816.603782</ele>
        <time>2021-11-17T02:34:32.050Z</time>
      </trkpt>
      <trkpt lat="39.82198" lon="30.32357">
        <ele>816.898386</ele>
        <time>2021-11-17T02:34:42.126Z</time>
      </trkpt>
      <trkpt lat="39.82235" lon="30.3233">
        <ele>817.225945</ele>
        <time>2021-11-17T02:34:53.691Z</time>
      </trkpt>
      <trkpt lat="39.8232" lon="30.32289">
        <ele>818.461083</ele>
        <time>2021-11-17T02:35:19.603Z</time>
      </trkpt>
      <trkpt lat="39.82358" lon="30.32281">
        <ele>819.008866</ele>
        <time>2021-11-17T02:35:30.888Z</time>
      </trkpt>
      <trkpt lat="39.82524" lon="30.32255">
        <ele>821.258206</ele>
        <time>2021-11-17T02:36:20.261Z</time>
      </trkpt>
      <trkpt lat="39.82533" lon="30.32262">
        <ele>821.39627</ele>
        <time>2021-11-17T02:36:23.037Z</time>
      </trkpt>
      <trkpt lat="39.82534" lon="30.32278">
        <ele>821.551978</ele>
        <time>2021-11-17T02:36:26.645Z</time>
      </trkpt>
      <trkpt lat="39.82631" lon="30.32233">
        <ele>822.491076</ele>
        <time>2021-11-17T02:36:53.310Z</time>
      </trkpt>
      <trkpt lat="39.82687" lon="30.32183">
        <ele>822.877796</ele>
        <time>2021-11-17T02:37:10.344Z</time>
      </trkpt>
      <trkpt lat="39.82724" lon="30.3215">
        <ele>823.136247</ele>
        <time>2021-11-17T02:37:21.343Z</time>
      </trkpt>
      <trkpt lat="39.82738" lon="30.32125">
        <ele>823.313569</ele>
        <time>2021-11-17T02:37:27.473Z</time>
      </trkpt>
      <trkpt lat="39.8275" lon="30.32122">
        <ele>823.431916</ele>
        <time>2021-11-17T02:37:30.634Z</time>
      </trkpt>
      <trkpt lat="39.82762" lon="30.3214">
        <ele>823.603462</ele>
        <time>2021-11-17T02:37:35.218Z</time>
      </trkpt>
      <trkpt lat="39.82793" lon="30.32127">
        <ele>823.921858</ele>
        <time>2021-11-17T02:37:43.961Z</time>
      </trkpt>
      <trkpt lat="39.82859" lon="30.32084">
        <ele>824.626644</ele>
        <time>2021-11-17T02:38:04.096Z</time>
      </trkpt>
      <trkpt lat="39.82868" lon="30.32077">
        <ele>824.731886</ele>
        <time>2021-11-17T02:38:07.328Z</time>
      </trkpt>
      <trkpt lat="39.82886" lon="30.32063">
        <ele>824.927773</ele>
        <time>2021-11-17T02:38:12.863Z</time>
      </trkpt>
      <trkpt lat="39.82885" lon="30.32035">
        <ele>825.359423</ele>
        <time>2021-11-17T02:38:19.027Z</time>
      </trkpt>
      <trkpt lat="39.82892" lon="30.32002">
        <ele>825.909143</ele>
        <time>2021-11-17T02:38:27.175Z</time>
      </trkpt>
      <trkpt lat="39.82891" lon="30.31965">
        <ele>826.489629</ele>
        <time>2021-11-17T02:38:35.527Z</time>
      </trkpt>
      <trkpt lat="39.82898" lon="30.3194">
        <ele>826.909973</ele>
        <time>2021-11-17T02:38:41.774Z</time>
      </trkpt>
      <trkpt lat="39.8291" lon="30.31917">
        <ele>827.353074</ele>
        <time>2021-11-17T02:38:48.498Z</time>
      </trkpt>
      <trkpt lat="39.82927" lon="30.31893">
        <ele>827.883005</ele>
        <time>2021-11-17T02:38:56.216Z</time>
      </trkpt>
      <trkpt lat="39.82946" lon="30.31877">
        <ele>828.347022</ele>
        <time>2021-11-17T02:39:04.077Z</time>
      </trkpt>
      <trkpt lat="39.82973" lon="30.31864">
        <ele>829.071794</ele>
        <time>2021-11-17T02:39:13.982Z</time>
      </trkpt>
      <trkpt lat="39.83005" lon="30.31861">
        <ele>830.048094</ele>
        <time>2021-11-17T02:39:25.083Z</time>
      </trkpt>
      <trkpt lat="39.83064" lon="30.31868">
        <ele>831.881424</ele>
        <time>2021-11-17T02:39:45.772Z</time>
      </trkpt>
      <trkpt lat="39.83074" lon="30.31875">
        <ele>832.214245</ele>
        <time>2021-11-17T02:39:49.929Z</time>
      </trkpt>
      <trkpt lat="39.83088" lon="30.31884">
        <ele>832.702958</ele>
        <time>2021-11-17T02:39:55.550Z</time>
      </trkpt>
      <trkpt lat="39.83214" lon="30.3201">
        <ele>836.403615</ele>
        <time>2021-11-17T02:40:49.268Z</time>
      </trkpt>
      <trkpt lat="39.8323" lon="30.32023">
        <ele>836.781287</ele>
        <time>2021-11-17T02:40:54.035Z</time>
      </trkpt>
      <trkpt lat="39.83251" lon="30.32034">
        <ele>837.249929</ele>
        <time>2021-11-17T02:40:59.929Z</time>
      </trkpt>
      <trkpt lat="39.8327" lon="30.32043">
        <ele>837.660216</ele>
        <time>2021-11-17T02:41:04.482Z</time>
      </trkpt>
      <trkpt lat="39.83293" lon="30.3205">
        <ele>837.947573</ele>
        <time>2021-11-17T02:41:10.360Z</time>
      </trkpt>
      <trkpt lat="39.83323" lon="30.32058">
        <ele>838.203477</ele>
        <time>2021-11-17T02:41:18.071Z</time>
      </trkpt>
      <trkpt lat="39.83326" lon="30.32058">
        <ele>838.225267</ele>
        <time>2021-11-17T02:41:18.518Z</time>
      </trkpt>
      <trkpt lat="39.83333" lon="30.32037">
        <ele>838.374013</ele>
        <time>2021-11-17T02:41:22.913Z</time>
      </trkpt>
      <trkpt lat="39.83356" lon="30.3196">
        <ele>838.900399</ele>
        <time>2021-11-17T02:41:37.887Z</time>
      </trkpt>
      <trkpt lat="39.8352" lon="30.31435">
        <ele>845.424699</ele>
        <time>2021-11-17T02:43:44.566Z</time>
      </trkpt>
      <trkpt lat="39.83527" lon="30.31376">
        <ele>845.424175</ele>
        <time>2021-11-17T02:43:58.166Z</time>
      </trkpt>
      <trkpt lat="39.83748" lon="30.30673">
        <ele>845.421449</ele>
        <time>2021-11-17T02:46:01.847Z</time>
      </trkpt>
      <trkpt lat="39.83937" lon="30.30047">
        <ele>847.460612</ele>
        <time>2021-11-17T02:48:06.953Z</time>
      </trkpt>
      <trkpt lat="39.83956" lon="30.29982">
        <ele>847.640221</ele>
        <time>2021-11-17T02:48:19.322Z</time>
      </trkpt>
      <trkpt lat="39.8425" lon="30.29006">
        <ele>849.648994</ele>
        <time>2021-11-17T02:51:23.507Z</time>
      </trkpt>
      <trkpt lat="39.8429" lon="30.28907">
        <ele>850.742307</ele>
        <time>2021-11-17T02:51:48.727Z</time>
      </trkpt>
      <trkpt lat="39.84283" lon="30.28914">
        <ele>850.853915</ele>
        <time>2021-11-17T02:51:51.193Z</time>
      </trkpt>
      <trkpt lat="39.8428" lon="30.28914">
        <ele>850.894773</ele>
        <time>2021-11-17T02:51:52.090Z</time>
      </trkpt>
      <trkpt lat="39.84278" lon="30.28908">
        <ele>850.963772</ele>
        <time>2021-11-17T02:51:53.508Z</time>
      </trkpt>
      <trkpt lat="39.84315" lon="30.2879">
        <ele>851.45954</ele>
        <time>2021-11-17T02:52:22.178Z</time>
      </trkpt>
      <trkpt lat="39.84594" lon="30.27882">
        <ele>852.20549</ele>
        <time>2021-11-17T02:55:11.968Z</time>
      </trkpt>
      <trkpt lat="39.84635" lon="30.27704">
        <ele>850.158231</ele>
        <time>2021-11-17T02:55:36.746Z</time>
      </trkpt>
      <trkpt lat="39.84645" lon="30.27661">
        <ele>849.450707</ele>
        <time>2021-11-17T02:55:42.587Z</time>
      </trkpt>
      <trkpt lat="39.84661" lon="30.27586">
        <ele>848.23349</ele>
        <time>2021-11-17T02:55:52.895Z</time>
      </trkpt>
      <trkpt lat="39.84694" lon="30.27413">
        <ele>847.000774</ele>
        <time>2021-11-17T02:56:19.133Z</time>
      </trkpt>
      <trkpt lat="39.84711" lon="30.27288">
        <ele>846.886694</ele>
        <time>2021-11-17T02:56:41.347Z</time>
      </trkpt>
      <trkpt lat="39.84733" lon="30.27106">
        <ele>848.145072</ele>
        <time>2021-11-17T02:57:18.216Z</time>
      </trkpt>
      <trkpt lat="39.84741" lon="30.27014">
        <ele>849.988201</ele>
        <time>2021-11-17T02:57:39.444Z</time>
      </trkpt>
      <trkpt lat="39.84761" lon="30.2687">
        <ele>852.997253</ele>
        <time>2021-11-17T02:58:18.223Z</time>
      </trkpt>
      <trkpt lat="39.84847" lon="30.25994">
        <ele>879.71843</ele>
        <time>2021-11-17T03:02:45.665Z</time>
      </trkpt>
      <trkpt lat="39.8504" lon="30.23977">
        <ele>860.339532</ele>
        <time>2021-11-17T03:07:33.381Z</time>
      </trkpt>
      <trkpt lat="39.85065" lon="30.23726">
        <ele>862.350189</ele>
        <time>2021-11-17T03:08:22.132Z</time>
      </trkpt>
      <trkpt lat="39.85099" lon="30.23384">
        <ele>872.184423</ele>
        <time>2021-11-17T03:10:06.888Z</time>
      </trkpt>
      <trkpt lat="39.85124" lon="30.23132">
        <ele>879.347186</ele>
        <time>2021-11-17T03:11:24.237Z</time>
      </trkpt>
      <trkpt lat="39.8514" lon="30.2301">
        <ele>879.401572</ele>
        <time>2021-11-17T03:11:47.651Z</time>
      </trkpt>
      <trkpt lat="39.8518" lon="30.22825">
        <ele>877.160511</ele>
        <time>2021-11-17T03:12:12.624Z</time>
      </trkpt>
      <trkpt lat="39.85204" lon="30.22741">
        <ele>875.183749</ele>
        <time>2021-11-17T03:12:23.651Z</time>
      </trkpt>
      <trkpt lat="39.85239" lon="30.22645">
        <ele>873.326216</ele>
        <time>2021-11-17T03:12:37.134Z</time>
      </trkpt>
      <trkpt lat="39.85288" lon="30.22519">
        <ele>871.281708</ele>
        <time>2021-11-17T03:12:56.493Z</time>
      </trkpt>
      <trkpt lat="39.85346" lon="30.22397">
        <ele>871.381684</ele>
        <time>2021-11-17T03:13:20.382Z</time>
      </trkpt>
      <trkpt lat="39.85469" lon="30.22199">
        <ele>873.343357</ele>
        <time>2021-11-17T03:14:15.659Z</time>
      </trkpt>
      <trkpt lat="39.86163" lon="30.21218">
        <ele>885.553759</ele>
        <time>2021-11-17T03:18:51.851Z</time>
      </trkpt>
      <trkpt lat="39.86429" lon="30.20838">
        <ele>889.963008</ele>
        <time>2021-11-17T03:20:36.777Z</time>
      </trkpt>
      <trkpt lat="39.86515" lon="30.20714">
        <ele>891.74432</ele>
        <time>2021-11-17T03:21:12.420Z</time>
      </trkpt>
      <trkpt lat="39.86573" lon="30.20631">
        <ele>893.29294</ele>
        <time>2021-11-17T03:21:37.268Z</time>
      </trkpt>
      <trkpt lat="39.8662" lon="30.20543">
        <ele>895.023262</ele>
        <time>2021-11-17T03:22:02.643Z</time>
      </trkpt>
      <trkpt lat="39.86632" lon="30.2052">
        <ele>895.656694</ele>
        <time>2021-11-17T03:22:09.332Z</time>
      </trkpt>
      <trkpt lat="39.86656" lon="30.20498">
        <ele>896.542347</ele>
        <time>2021-11-17T03:22:18.800Z</time>
      </trkpt>
      <trkpt lat="39.86676" lon="30.20485">
        <ele>897.211645</ele>
        <time>2021-11-17T03:22:26.656Z</time>
      </trkpt>
      <trkpt lat="39.86688" lon="30.20486">
        <ele>897.576306</ele>
        <time>2021-11-17T03:22:30.759Z</time>
      </trkpt>
      <trkpt lat="39.86701" lon="30.2049">
        <ele>897.981671</ele>
        <time>2021-11-17T03:22:35.287Z</time>
      </trkpt>
      <trkpt lat="39.86716" lon="30.20497">
        <ele>898.467395</ele>
        <time>2021-11-17T03:22:41.525Z</time>
      </trkpt>
      <trkpt lat="39.86736" lon="30.20519">
        <ele>899.249097</ele>
        <time>2021-11-17T03:22:50.635Z</time>
      </trkpt>
      <trkpt lat="39.86741" lon="30.20535">
        <ele>899.640907</ele>
        <time>2021-11-17T03:22:55.765Z</time>
      </trkpt>
      <trkpt lat="39.86741" lon="30.20548">
        <ele>900.007735</ele>
        <time>2021-11-17T03:22:59.474Z</time>
      </trkpt>
      <trkpt lat="39.86737" lon="30.20558">
        <ele>900.327166</ele>
        <time>2021-11-17T03:23:02.339Z</time>
      </trkpt>
      <trkpt lat="39.86734" lon="30.20565">
        <ele>900.590241</ele>
        <time>2021-11-17T03:23:05.213Z</time>
      </trkpt>
      <trkpt lat="39.86749" lon="30.2056">
        <ele>901.199567</ele>
        <time>2021-11-17T03:23:10.959Z</time>
      </trkpt>
      <trkpt lat="39.86762" lon="30.20552">
        <ele>901.766018</ele>
        <time>2021-11-17T03:23:15.941Z</time>
      </trkpt>
      <trkpt lat="39.86769" lon="30.20548">
        <ele>902.075208</ele>
        <time>2021-11-17T03:23:19.351Z</time>
      </trkpt>
      <trkpt lat="39.86975" lon="30.20377">
        <ele>912.078577</ele>
        <time>2021-11-17T03:24:53.262Z</time>
      </trkpt>
      <trkpt lat="39.87021" lon="30.20336">
        <ele>914.441367</ele>
        <time>2021-11-17T03:25:15.198Z</time>
      </trkpt>
      <trkpt lat="39.87028" lon="30.2033">
        <ele>914.821081</ele>
        <time>2021-11-17T03:25:19.179Z</time>
      </trkpt>
      <trkpt lat="39.87173" lon="30.2023">
        <ele>922.658299</ele>
        <time>2021-11-17T03:26:28.018Z</time>
      </trkpt>
      <trkpt lat="39.87213" lon="30.20204">
        <ele>924.591467</ele>
        <time>2021-11-17T03:26:45.749Z</time>
      </trkpt>
      <trkpt lat="39.87347" lon="30.1992">
        <ele>934.441373</ele>
        <time>2021-11-17T03:28:23.958Z</time>
      </trkpt>
      <trkpt lat="39.87367" lon="30.19883">
        <ele>935.653247</ele>
        <time>2021-11-17T03:28:36.434Z</time>
      </trkpt>
      <trkpt lat="39.87442" lon="30.19803">
        <ele>937.089558</ele>
        <time>2021-11-17T03:29:05.640Z</time>
      </trkpt>
      <trkpt lat="39.87457" lon="30.19769">
        <ele>937.226434</ele>
        <time>2021-11-17T03:29:13.634Z</time>
      </trkpt>
      <trkpt lat="39.87472" lon="30.19728">
        <ele>937.382699</ele>
        <time>2021-11-17T03:29:21.781Z</time>
      </trkpt>
      <trkpt lat="39.87501" lon="30.1961">
        <ele>935.941022</ele>
        <time>2021-11-17T03:29:39.194Z</time>
      </trkpt>
      <trkpt lat="39.87501" lon="30.19569">
        <ele>934.711725</ele>
        <time>2021-11-17T03:29:44.194Z</time>
      </trkpt>
      <trkpt lat="39.87487" lon="30.19524">
        <ele>933.254227</ele>
        <time>2021-11-17T03:29:49.964Z</time>
      </trkpt>
      <trkpt lat="39.87482" lon="30.19506">
        <ele>932.685642</ele>
        <time>2021-11-17T03:29:52.204Z</time>
      </trkpt>
      <trkpt lat="39.8745" lon="30.1941">
        <ele>928.933234</ele>
        <time>2021-11-17T03:30:04.131Z</time>
      </trkpt>
      <trkpt lat="39.87425" lon="30.1933">
        <ele>924.801358</ele>
        <time>2021-11-17T03:30:13.762Z</time>
      </trkpt>
      <trkpt lat="39.87421" lon="30.19265">
        <ele>921.731684</ele>
        <time>2021-11-17T03:30:20.867Z</time>
      </trkpt>
      <trkpt lat="39.87456" lon="30.19194">
        <ele>918.016428</ele>
        <time>2021-11-17T03:30:30.446Z</time>
      </trkpt>
      <trkpt lat="39.87482" lon="30.19156">
        <ele>916.052331</ele>
        <time>2021-11-17T03:30:36.256Z</time>
      </trkpt>
      <trkpt lat="39.87652" lon="30.19022">
        <ele>906.759587</ele>
        <time>2021-11-17T03:31:06.775Z</time>
      </trkpt>
      <trkpt lat="39.87696" lon="30.18979">
        <ele>904.420701</ele>
        <time>2021-11-17T03:31:15.466Z</time>
      </trkpt>
      <trkpt lat="39.87729" lon="30.18938">
        <ele>902.513827</ele>
        <time>2021-11-17T03:31:22.635Z</time>
      </trkpt>
      <trkpt lat="39.87834" lon="30.1876">
        <ele>895.761672</ele>
        <time>2021-11-17T03:31:49.738Z</time>
      </trkpt>
      <trkpt lat="39.8787" lon="30.18684">
        <ele>893.072713</ele>
        <time>2021-11-17T03:32:00.430Z</time>
      </trkpt>
      <trkpt lat="39.87886" lon="30.18641">
        <ele>891.623464</ele>
        <time>2021-11-17T03:32:06.284Z</time>
      </trkpt>
      <trkpt lat="39.87891" lon="30.18612">
        <ele>890.723478</ele>
        <time>2021-11-17T03:32:09.911Z</time>
      </trkpt>
      <trkpt lat="39.87912" lon="30.18553">
        <ele>888.777326</ele>
        <time>2021-11-17T03:32:17.830Z</time>
      </trkpt>
      <trkpt lat="39.87952" lon="30.18431">
        <ele>884.593848</ele>
        <time>2021-11-17T03:32:33.670Z</time>
      </trkpt>
      <trkpt lat="39.87974" lon="30.18364">
        <ele>882.299647</ele>
        <time>2021-11-17T03:32:42.436Z</time>
      </trkpt>
      <trkpt lat="39.87989" lon="30.18309">
        <ele>880.437334</ele>
        <time>2021-11-17T03:32:49.385Z</time>
      </trkpt>
      <trkpt lat="39.8803" lon="30.18157">
        <ele>875.165528</ele>
        <time>2021-11-17T03:33:08.381Z</time>
      </trkpt>
      <trkpt lat="39.8807" lon="30.17975">
        <ele>869.731275</ele>
        <time>2021-11-17T03:33:31.284Z</time>
      </trkpt>
      <trkpt lat="39.88082" lon="30.17934">
        <ele>868.535494</ele>
        <time>2021-11-17T03:33:36.699Z</time>
      </trkpt>
      <trkpt lat="39.88164" lon="30.17732">
        <ele>863.583367</ele>
        <time>2021-11-17T03:34:06.020Z</time>
      </trkpt>
      <trkpt lat="39.8825" lon="30.17539">
        <ele>859.866154</ele>
        <time>2021-11-17T03:34:35.984Z</time>
      </trkpt>
      <trkpt lat="39.88256" lon="30.175">
        <ele>859.244184</ele>
        <time>2021-11-17T03:34:41.404Z</time>
      </trkpt>
      <trkpt lat="39.88251" lon="30.17478">
        <ele>858.8831</ele>
        <time>2021-11-17T03:34:44.566Z</time>
      </trkpt>
      <trkpt lat="39.88242" lon="30.17456">
        <ele>858.508153</ele>
        <time>2021-11-17T03:34:47.970Z</time>
      </trkpt>
      <trkpt lat="39.88235" lon="30.17446">
        <ele>858.308708</ele>
        <time>2021-11-17T03:34:49.814Z</time>
      </trkpt>
      <trkpt lat="39.88245" lon="30.17406">
        <ele>857.686622</ele>
        <time>2021-11-17T03:34:55.480Z</time>
      </trkpt>
      <trkpt lat="39.88295" lon="30.17147">
        <ele>854.065879</ele>
        <time>2021-11-17T03:35:31.746Z</time>
      </trkpt>
      <trkpt lat="39.88312" lon="30.17048">
        <ele>852.883204</ele>
        <time>2021-11-17T03:35:46.419Z</time>
      </trkpt>
      <trkpt lat="39.88361" lon="30.1688">
        <ele>851.211244</ele>
        <time>2021-11-17T03:36:12.828Z</time>
      </trkpt>
      <trkpt lat="39.88378" lon="30.16819">
        <ele>850.631817</ele>
        <time>2021-11-17T03:36:22.275Z</time>
      </trkpt>
      <trkpt lat="39.88405" lon="30.16723">
        <ele>849.132516</ele>
        <time>2021-11-17T03:36:36.537Z</time>
      </trkpt>
      <trkpt lat="39.88436" lon="30.16521">
        <ele>845.834116</ele>
        <time>2021-11-17T03:37:03.639Z</time>
      </trkpt>
      <trkpt lat="39.88469" lon="30.16015">
        <ele>837.344136</ele>
        <time>2021-11-17T03:38:10.901Z</time>
      </trkpt>
      <trkpt lat="39.88493" lon="30.15735">
        <ele>833.906644</ele>
        <time>2021-11-17T03:38:50.630Z</time>
      </trkpt>
      <trkpt lat="39.88565" lon="30.14766">
        <ele>824.857213</ele>
        <time>2021-11-17T03:41:11.470Z</time>
      </trkpt>
      <trkpt lat="39.8859" lon="30.1444">
        <ele>823.507424</ele>
        <time>2021-11-17T03:42:02.729Z</time>
      </trkpt>
      <trkpt lat="39.88602" lon="30.14293">
        <ele>823.45108</ele>
        <time>2021-11-17T03:42:28.371Z</time>
      </trkpt>
      <trkpt lat="39.88606" lon="30.1425">
        <ele>823.434445</ele>
        <time>2021-11-17T03:42:36.188Z</time>
      </trkpt>
      <trkpt lat="39.88621" lon="30.14084">
        <ele>823.012521</ele>
        <time>2021-11-17T03:43:04.621Z</time>
      </trkpt>
      <trkpt lat="39.88651" lon="30.13709">
        <ele>820.449541</ele>
        <time>2021-11-17T03:44:00.290Z</time>
      </trkpt>
      <trkpt lat="39.8874" lon="30.12369">
        <ele>809.305108</ele>
        <time>2021-11-17T03:47:17.327Z</time>
      </trkpt>
      <trkpt lat="39.88754" lon="30.12244">
        <ele>808.436387</ele>
        <time>2021-11-17T03:47:36.908Z</time>
      </trkpt>
      <trkpt lat="39.88803" lon="30.12006">
        <ele>806.324163</ele>
        <time>2021-11-17T03:48:12.924Z</time>
      </trkpt>
      <trkpt lat="39.88826" lon="30.11902">
        <ele>805.317646</ele>
        <time>2021-11-17T03:48:28.221Z</time>
      </trkpt>
      <trkpt lat="39.88837" lon="30.11904">
        <ele>805.211833</ele>
        <time>2021-11-17T03:48:30.127Z</time>
      </trkpt>
      <trkpt lat="39.88842" lon="30.11903">
        <ele>805.160936</ele>
        <time>2021-11-17T03:48:31.077Z</time>
      </trkpt>
      <trkpt lat="39.88852" lon="30.11873">
        <ele>804.902948</ele>
        <time>2021-11-17T03:48:35.758Z</time>
      </trkpt>
      <trkpt lat="39.88872" lon="30.11786">
        <ele>804.199695</ele>
        <time>2021-11-17T03:48:48.873Z</time>
      </trkpt>
      <trkpt lat="39.88895" lon="30.11714">
        <ele>803.678561</ele>
        <time>2021-11-17T03:49:01.158Z</time>
      </trkpt>
      <trkpt lat="39.8892" lon="30.11647">
        <ele>803.592286</ele>
        <time>2021-11-17T03:49:14.201Z</time>
      </trkpt>
      <trkpt lat="39.88984" lon="30.115">
        <ele>803.395413</ele>
        <time>2021-11-17T03:49:42.163Z</time>
      </trkpt>
      <trkpt lat="39.88987" lon="30.1149">
        <ele>803.383777</ele>
        <time>2021-11-17T03:49:44.619Z</time>
      </trkpt>
      <trkpt lat="39.88957" lon="30.11481">
        <ele>803.337204</ele>
        <time>2021-11-17T03:49:51.079Z</time>
      </trkpt>
      <trkpt lat="39.88961" lon="30.11466">
        <ele>803.317917</ele>
        <time>2021-11-17T03:49:54.583Z</time>
      </trkpt>
      <trkpt lat="39.89" lon="30.11221">
        <ele>802.346534</ele>
        <time>2021-11-17T03:50:34.955Z</time>
      </trkpt>
      <trkpt lat="39.8901" lon="30.11161">
        <ele>801.875301</ele>
        <time>2021-11-17T03:50:44.121Z</time>
      </trkpt>
      <trkpt lat="39.89104" lon="30.10877">
        <ele>797.340341</ele>
        <time>2021-11-17T03:51:25.675Z</time>
      </trkpt>
      <trkpt lat="39.89218" lon="30.10517">
        <ele>789.665951</ele>
        <time>2021-11-17T03:52:15.593Z</time>
      </trkpt>
      <trkpt lat="39.89395" lon="30.10003">
        <ele>781.445941</ele>
        <time>2021-11-17T03:53:32.603Z</time>
      </trkpt>
      <trkpt lat="39.89566" lon="30.09477">
        <ele>775.5758</ele>
        <time>2021-11-17T03:54:53.798Z</time>
      </trkpt>
      <trkpt lat="39.89593" lon="30.09361">
        <ele>774.640277</ele>
        <time>2021-11-17T03:55:12.235Z</time>
      </trkpt>
      <trkpt lat="39.89614" lon="30.09303">
        <ele>774.504157</ele>
        <time>2021-11-17T03:55:22.399Z</time>
      </trkpt>
      <trkpt lat="39.89666" lon="30.09203">
        <ele>774.248738</ele>
        <time>2021-11-17T03:55:42.249Z</time>
      </trkpt>
      <trkpt lat="39.89704" lon="30.09097">
        <ele>774.251049</ele>
        <time>2021-11-17T03:56:02.334Z</time>
      </trkpt>
      <trkpt lat="39.89751" lon="30.08979">
        <ele>774.390859</ele>
        <time>2021-11-17T03:56:25.925Z</time>
      </trkpt>
      <trkpt lat="39.89777" lon="30.08916">
        <ele>774.400884</ele>
        <time>2021-11-17T03:56:38.406Z</time>
      </trkpt>
      <trkpt lat="39.8979" lon="30.08879">
        <ele>774.389469</ele>
        <time>2021-11-17T03:56:45.471Z</time>
      </trkpt>
      <trkpt lat="39.89843" lon="30.08751">
        <ele>774.347328</ele>
        <time>2021-11-17T03:57:10.142Z</time>
      </trkpt>
      <trkpt lat="39.89888" lon="30.08645">
        <ele>773.989367</ele>
        <time>2021-11-17T03:57:29.701Z</time>
      </trkpt>
      <trkpt lat="39.89931" lon="30.08524">
        <ele>773.553122</ele>
        <time>2021-11-17T03:57:50.796Z</time>
      </trkpt>
      <trkpt lat="39.89981" lon="30.08368">
        <ele>772.701865</ele>
        <time>2021-11-17T03:58:16.811Z</time>
      </trkpt>
      <trkpt lat="39.90012" lon="30.0815">
        <ele>771.329089</ele>
        <time>2021-11-17T03:58:50.394Z</time>
      </trkpt>
      <trkpt lat="39.90053" lon="30.07822">
        <ele>769.299203</ele>
        <time>2021-11-17T03:59:40.575Z</time>
      </trkpt>
      <trkpt lat="39.90082" lon="30.07588">
        <ele>767.740484</ele>
        <time>2021-11-17T04:00:16.626Z</time>
      </trkpt>
      <trkpt lat="39.90155" lon="30.07004">
        <ele>762.406576</ele>
        <time>2021-11-17T04:01:42.520Z</time>
      </trkpt>
      <trkpt lat="39.90168" lon="30.06898">
        <ele>761.344901</ele>
        <time>2021-11-17T04:01:57.854Z</time>
      </trkpt>
      <trkpt lat="39.90181" lon="30.06797">
        <ele>760.305377</ele>
        <time>2021-11-17T04:02:12.411Z</time>
      </trkpt>
      <trkpt lat="39.9016" lon="30.06787">
        <ele>760.020119</ele>
        <time>2021-11-17T04:02:16.402Z</time>
      </trkpt>
      <trkpt lat="39.90144" lon="30.06773">
        <ele>759.754701</ele>
        <time>2021-11-17T04:02:20.191Z</time>
      </trkpt>
      <trkpt lat="39.90136" lon="30.06767">
        <ele>759.637295</ele>
        <time>2021-11-17T04:02:21.804Z</time>
      </trkpt>
      <trkpt lat="39.90101" lon="30.06741">
        <ele>759.060778</ele>
        <time>2021-11-17T04:02:29.406Z</time>
      </trkpt>
      <trkpt lat="39.90042" lon="30.06716">
        <ele>758.091358</ele>
        <time>2021-11-17T04:02:41.020Z</time>
      </trkpt>
      <trkpt lat="39.89931" lon="30.06697">
        <ele>756.344676</ele>
        <time>2021-11-17T04:03:01.112Z</time>
      </trkpt>
      <trkpt lat="39.89925" lon="30.06696">
        <ele>756.242346</ele>
        <time>2021-11-17T04:03:02.098Z</time>
      </trkpt>
      <trkpt lat="39.8993" lon="30.06646">
        <ele>755.585561</ele>
        <time>2021-11-17T04:03:09.317Z</time>
      </trkpt>
      <trkpt lat="39.89943" lon="30.06529">
        <ele>754.027786</ele>
        <time>2021-11-17T04:03:26.463Z</time>
      </trkpt>
      <trkpt lat="39.89971" lon="30.06395">
        <ele>752.588625</ele>
        <time>2021-11-17T04:03:47.033Z</time>
      </trkpt>
      <trkpt lat="39.89993" lon="30.0632">
        <ele>751.84907</ele>
        <time>2021-11-17T04:03:59.273Z</time>
      </trkpt>
      <trkpt lat="39.90042" lon="30.06112">
        <ele>750.2707</ele>
        <time>2021-11-17T04:04:33.447Z</time>
      </trkpt>
      <trkpt lat="39.90103" lon="30.0582">
        <ele>748.525359</ele>
        <time>2021-11-17T04:05:21.720Z</time>
      </trkpt>
      <trkpt lat="39.9018" lon="30.05503">
        <ele>747.061718</ele>
        <time>2021-11-17T04:06:15.624Z</time>
      </trkpt>
      <trkpt lat="39.90201" lon="30.05373">
        <ele>746.648584</ele>
        <time>2021-11-17T04:06:38.048Z</time>
      </trkpt>
      <trkpt lat="39.90222" lon="30.05182">
        <ele>746.320972</ele>
        <time>2021-11-17T04:07:11.513Z</time>
      </trkpt>
      <trkpt lat="39.90234" lon="30.05042">
        <ele>745.938272</ele>
        <time>2021-11-17T04:07:35.000Z</time>
      </trkpt>
      <trkpt lat="39.90237" lon="30.04981">
        <ele>745.731974</ele>
        <time>2021-11-17T04:07:45.265Z</time>
      </trkpt>
      <trkpt lat="39.90255" lon="30.04835">
        <ele>745.12557</ele>
        <time>2021-11-17T04:08:09.422Z</time>
      </trkpt>
      <trkpt lat="39.90263" lon="30.04754">
        <ele>744.704115</ele>
        <time>2021-11-17T04:08:22.741Z</time>
      </trkpt>
      <trkpt lat="39.90269" lon="30.04699">
        <ele>744.420012</ele>
        <time>2021-11-17T04:08:31.607Z</time>
      </trkpt>
      <trkpt lat="39.90276" lon="30.04629">
        <ele>744.009531</ele>
        <time>2021-11-17T04:08:42.792Z</time>
      </trkpt>
      <trkpt lat="39.90295" lon="30.04523">
        <ele>743.320447</ele>
        <time>2021-11-17T04:08:59.820Z</time>
      </trkpt>
      <trkpt lat="39.90312" lon="30.04452">
        <ele>742.847736</ele>
        <time>2021-11-17T04:09:11.594Z</time>
      </trkpt>
      <trkpt lat="39.90324" lon="30.04361">
        <ele>742.470596</ele>
        <time>2021-11-17T04:09:26.463Z</time>
      </trkpt>
      <trkpt lat="39.90368" lon="30.04238">
        <ele>741.963808</ele>
        <time>2021-11-17T04:09:49.069Z</time>
      </trkpt>
      <trkpt lat="39.90422" lon="30.0402">
        <ele>741.569487</ele>
        <time>2021-11-17T04:10:28.305Z</time>
      </trkpt>
      <trkpt lat="39.90463" lon="30.03822">
        <ele>741.611571</ele>
        <time>2021-11-17T04:11:04.617Z</time>
      </trkpt>
      <trkpt lat="39.90479" lon="30.03743">
        <ele>741.744585</ele>
        <time>2021-11-17T04:11:19.540Z</time>
      </trkpt>
      <trkpt lat="39.90549" lon="30.0339">
        <ele>743.406921</ele>
        <time>2021-11-17T04:12:31.119Z</time>
      </trkpt>
      <trkpt lat="39.90567" lon="30.03401">
        <ele>743.54717</ele>
        <time>2021-11-17T04:12:36.328Z</time>
      </trkpt>
      <trkpt lat="39.90583" lon="30.03346">
        <ele>743.901258</ele>
        <time>2021-11-17T04:12:48.300Z</time>
      </trkpt>
      <trkpt lat="39.90621" lon="30.03366">
        <ele>744.404224</ele>
        <time>2021-11-17T04:12:59.105Z</time>
      </trkpt>
      <trkpt lat="39.9063" lon="30.03367">
        <ele>744.519744</ele>
        <time>2021-11-17T04:13:01.762Z</time>
      </trkpt>
      <trkpt lat="39.90669" lon="30.03319">
        <ele>745.180703</ele>
        <time>2021-11-17T04:13:17.022Z</time>
      </trkpt>
      <trkpt lat="39.90681" lon="30.03306">
        <ele>745.372288</ele>
        <time>2021-11-17T04:13:21.681Z</time>
      </trkpt>
      <trkpt lat="39.90688" lon="30.03303">
        <ele>745.459947</ele>
        <time>2021-11-17T04:13:23.653Z</time>
      </trkpt>
      <trkpt lat="39.90695" lon="30.03251">
        <ele>745.961734</ele>
        <time>2021-11-17T04:13:34.888Z</time>
      </trkpt>
      <trkpt lat="39.9074" lon="30.03258">
        <ele>746.525409</ele>
        <time>2021-11-17T04:13:48.043Z</time>
      </trkpt>
      <trkpt lat="39.90751" lon="30.03253">
        <ele>746.662443</ele>
        <time>2021-11-17T04:13:51.478Z</time>
      </trkpt>
      <trkpt lat="39.90764" lon="30.03205">
        <ele>747.143828</ele>
        <time>2021-11-17T04:14:02.893Z</time>
      </trkpt>
      <trkpt lat="39.90783" lon="30.03159">
        <ele>747.638998</ele>
        <time>2021-11-17T04:14:14.200Z</time>
      </trkpt>
      <trkpt lat="39.90797" lon="30.0311">
        <ele>748.123483</ele>
        <time>2021-11-17T04:14:25.399Z</time>
      </trkpt>
      <trkpt lat="39.90805" lon="30.03084">
        <ele>748.192031</ele>
        <time>2021-11-17T04:14:31.046Z</time>
      </trkpt>
      <trkpt lat="39.90808" lon="30.03076">
        <ele>748.16112</ele>
        <time>2021-11-17T04:14:32.796Z</time>
      </trkpt>
      <trkpt lat="39.9082" lon="30.03055">
        <ele>748.058178</ele>
        <time>2021-11-17T04:14:37.506Z</time>
      </trkpt>
      <trkpt lat="39.90845" lon="30.03013">
        <ele>747.857157</ele>
        <time>2021-11-17T04:14:46.678Z</time>
      </trkpt>
      <trkpt lat="39.90862" lon="30.02989">
        <ele>747.730338</ele>
        <time>2021-11-17T04:14:52.097Z</time>
      </trkpt>
      <trkpt lat="39.90883" lon="30.02959">
        <ele>747.573335</ele>
        <time>2021-11-17T04:14:58.761Z</time>
      </trkpt>
      <trkpt lat="39.9088" lon="30.02954">
        <ele>747.547022</ele>
        <time>2021-11-17T04:14:59.705Z</time>
      </trkpt>
      <trkpt lat="39.90901" lon="30.02924">
        <ele>747.391142</ele>
        <time>2021-11-17T04:15:05.993Z</time>
      </trkpt>
      <trkpt lat="39.90911" lon="30.02913">
        <ele>747.211939</ele>
        <time>2021-11-17T04:15:08.355Z</time>
      </trkpt>
      <trkpt lat="39.90963" lon="30.02854">
        <ele>745.321386</ele>
        <time>2021-11-17T04:15:20.793Z</time>
      </trkpt>
      <trkpt lat="39.9106" lon="30.02748">
        <ele>742.013759</ele>
        <time>2021-11-17T04:15:42.211Z</time>
      </trkpt>
      <trkpt lat="39.91018" lon="30.02691">
        <ele>740.771306</ele>
        <time>2021-11-17T04:15:52.741Z</time>
      </trkpt>
      <trkpt lat="39.91051" lon="30.02663">
        <ele>739.985244</ele>
        <time>2021-11-17T04:15:59.361Z</time>
      </trkpt>
      <trkpt lat="39.91324" lon="30.02427">
        <ele>736.844334</ele>
        <time>2021-11-17T04:17:05.596Z</time>
      </trkpt>
      <trkpt lat="39.91446" lon="30.0231">
        <ele>735.576934</ele>
        <time>2021-11-17T04:17:34.957Z</time>
      </trkpt>
      <trkpt lat="39.91498" lon="30.02251">
        <ele>734.994893</ele>
        <time>2021-11-17T04:17:48.018Z</time>
      </trkpt>
      <trkpt lat="39.91829" lon="30.01831">
        <ele>732.372445</ele>
        <time>2021-11-17T04:19:22.636Z</time>
      </trkpt>
      <trkpt lat="39.9195" lon="30.01674">
        <ele>731.358974</ele>
        <time>2021-11-17T04:19:57.354Z</time>
      </trkpt>
      <trkpt lat="39.92033" lon="30.01565">
        <ele>730.571764</ele>
        <time>2021-11-17T04:20:21.089Z</time>
      </trkpt>
      <trkpt lat="39.92035" lon="30.01561">
        <ele>730.547332</ele>
        <time>2021-11-17T04:20:21.709Z</time>
      </trkpt>
      <trkpt lat="39.92094" lon="30.0146">
        <ele>729.905251</ele>
        <time>2021-11-17T04:20:41.362Z</time>
      </trkpt>
      <trkpt lat="39.92143" lon="30.01346">
        <ele>729.246445</ele>
        <time>2021-11-17T04:21:01.329Z</time>
      </trkpt>
      <trkpt lat="39.92171" lon="30.0122">
        <ele>728.721988</ele>
        <time>2021-11-17T04:21:21.981Z</time>
      </trkpt>
      <trkpt lat="39.92178" lon="30.01171">
        <ele>728.523216</ele>
        <time>2021-11-17T04:21:29.908Z</time>
      </trkpt>
      <trkpt lat="39.92184" lon="30.0112">
        <ele>728.319433</ele>
        <time>2021-11-17T04:21:38.007Z</time>
      </trkpt>
      <trkpt lat="39.92188" lon="30.01053">
        <ele>728.102804</ele>
        <time>2021-11-17T04:21:48.568Z</time>
      </trkpt>
      <trkpt lat="39.92191" lon="30.00989">
        <ele>727.896115</ele>
        <time>2021-11-17T04:21:58.765Z</time>
      </trkpt>
      <trkpt lat="39.92197" lon="30.00887">
        <ele>727.565463</ele>
        <time>2021-11-17T04:22:15.190Z</time>
      </trkpt>
      <trkpt lat="39.92212" lon="30.00623">
        <ele>727.446945</ele>
        <time>2021-11-17T04:22:59.458Z</time>
      </trkpt>
      <trkpt lat="39.92226" lon="30.00533">
        <ele>727.635936</ele>
        <time>2021-11-17T04:23:16.157Z</time>
      </trkpt>
      <trkpt lat="39.92244" lon="30.00443">
        <ele>727.82663</ele>
        <time>2021-11-17T04:23:33.343Z</time>
      </trkpt>
      <trkpt lat="39.92269" lon="30.00352">
        <ele>727.757631</ele>
        <time>2021-11-17T04:23:50.425Z</time>
      </trkpt>
      <trkpt lat="39.92287" lon="30.00281">
        <ele>727.646461</ele>
        <time>2021-11-17T04:24:02.678Z</time>
      </trkpt>
      <trkpt lat="39.92306" lon="30.00213">
        <ele>727.537954</ele>
        <time>2021-11-17T04:24:14.153Z</time>
      </trkpt>
      <trkpt lat="39.92317" lon="30.00166">
        <ele>727.313297</ele>
        <time>2021-11-17T04:24:21.696Z</time>
      </trkpt>
      <trkpt lat="39.92369" lon="29.99944">
        <ele>726.000116</ele>
        <time>2021-11-17T04:24:56.841Z</time>
      </trkpt>
      <trkpt lat="39.92405" lon="29.99815">
        <ele>725.11751</ele>
        <time>2021-11-17T04:25:17.938Z</time>
      </trkpt>
      <trkpt lat="39.92458" lon="29.9958">
        <ele>723.012781</ele>
        <time>2021-11-17T04:25:53.726Z</time>
      </trkpt>
      <trkpt lat="39.92508" lon="29.99345">
        <ele>720.735224</ele>
        <time>2021-11-17T04:26:28.256Z</time>
      </trkpt>
      <trkpt lat="39.92531" lon="29.99249">
        <ele>720.156536</ele>
        <time>2021-11-17T04:26:43.673Z</time>
      </trkpt>
      <trkpt lat="39.92608" lon="29.98952">
        <ele>719.496613</ele>
        <time>2021-11-17T04:27:35.231Z</time>
      </trkpt>
      <trkpt lat="39.92622" lon="29.98857">
        <ele>719.410474</ele>
        <time>2021-11-17T04:27:51.246Z</time>
      </trkpt>
      <trkpt lat="39.92628" lon="29.98791">
        <ele>720.069504</ele>
        <time>2021-11-17T04:28:02.523Z</time>
      </trkpt>
      <trkpt lat="39.92627" lon="29.98579">
        <ele>722.810735</ele>
        <time>2021-11-17T04:28:50.350Z</time>
      </trkpt>
      <trkpt lat="39.92635" lon="29.9852">
        <ele>724.226663</ele>
        <time>2021-11-17T04:29:07.526Z</time>
      </trkpt>
      <trkpt lat="39.92648" lon="29.98459">
        <ele>725.739043</ele>
        <time>2021-11-17T04:29:26.096Z</time>
      </trkpt>
      <trkpt lat="39.92701" lon="29.98346">
        <ele>727.514391</ele>
        <time>2021-11-17T04:30:01.906Z</time>
      </trkpt>
      <trkpt lat="39.92742" lon="29.98284">
        <ele>727.70922</ele>
        <time>2021-11-17T04:30:17.760Z</time>
      </trkpt>
      <trkpt lat="39.92778" lon="29.98244">
        <ele>727.853687</ele>
        <time>2021-11-17T04:30:26.437Z</time>
      </trkpt>
      <trkpt lat="39.92833" lon="29.98205">
        <ele>726.296295</ele>
        <time>2021-11-17T04:30:36.509Z</time>
      </trkpt>
      <trkpt lat="39.93002" lon="29.98107">
        <ele>720.114204</ele>
        <time>2021-11-17T04:31:05.039Z</time>
      </trkpt>
      <trkpt lat="39.9313" lon="29.98033">
        <ele>718.059435</ele>
        <time>2021-11-17T04:31:32.302Z</time>
      </trkpt>
      <trkpt lat="39.93213" lon="29.97995">
        <ele>719.597115</ele>
        <time>2021-11-17T04:31:59.000Z</time>
      </trkpt>
      <trkpt lat="39.93288" lon="29.97972">
        <ele>720.962985</ele>
        <time>2021-11-17T04:32:23.890Z</time>
      </trkpt>
      <trkpt lat="39.93342" lon="29.97964">
        <ele>721.852186</ele>
        <time>2021-11-17T04:32:40.523Z</time>
      </trkpt>
      <trkpt lat="39.93411" lon="29.97962">
        <ele>722.986083</ele>
        <time>2021-11-17T04:33:00.372Z</time>
      </trkpt>
      <trkpt lat="39.9349" lon="29.97969">
        <ele>724.346728</ele>
        <time>2021-11-17T04:33:21.694Z</time>
      </trkpt>
      <trkpt lat="39.93566" lon="29.9799">
        <ele>725.945127</ele>
        <time>2021-11-17T04:33:42.856Z</time>
      </trkpt>
      <trkpt lat="39.93737" lon="29.9806">
        <ele>729.599174</ele>
        <time>2021-11-17T04:34:43.647Z</time>
      </trkpt>
      <trkpt lat="39.93785" lon="29.98095">
        <ele>730.706283</ele>
        <time>2021-11-17T04:35:01.098Z</time>
      </trkpt>
      <trkpt lat="39.93884" lon="29.98167">
        <ele>729.474515</ele>
        <time>2021-11-17T04:35:25.182Z</time>
      </trkpt>
      <trkpt lat="39.93895" lon="29.9817">
        <ele>729.209094</ele>
        <time>2021-11-17T04:35:27.466Z</time>
      </trkpt>
      <trkpt lat="39.93904" lon="29.98168">
        <ele>728.985809</ele>
        <time>2021-11-17T04:35:29.045Z</time>
      </trkpt>
      <trkpt lat="39.93913" lon="29.98177">
        <ele>728.716437</ele>
        <time>2021-11-17T04:35:30.690Z</time>
      </trkpt>
      <trkpt lat="39.9404" lon="29.98197">
        <ele>724.338755</ele>
        <time>2021-11-17T04:35:50.173Z</time>
      </trkpt>
      <trkpt lat="39.94076" lon="29.98202">
        <ele>722.669443</ele>
        <time>2021-11-17T04:35:55.550Z</time>
      </trkpt>
      <trkpt lat="39.94144" lon="29.9823">
        <ele>719.412042</ele>
        <time>2021-11-17T04:36:06.709Z</time>
      </trkpt>
      <trkpt lat="39.94496" lon="29.98372">
        <ele>705.670271</ele>
        <time>2021-11-17T04:37:05.664Z</time>
      </trkpt>
      <trkpt lat="39.94659" lon="29.98441">
        <ele>697.692353</ele>
        <time>2021-11-17T04:37:31.254Z</time>
      </trkpt>
      <trkpt lat="39.94683" lon="29.9845">
        <ele>696.910324</ele>
        <time>2021-11-17T04:37:35.139Z</time>
      </trkpt>
      <trkpt lat="39.94859" lon="29.98521">
        <ele>693.786052</ele>
        <time>2021-11-17T04:38:09.462Z</time>
      </trkpt>
      <trkpt lat="39.9496" lon="29.98552">
        <ele>693.071707</ele>
        <time>2021-11-17T04:38:31.898Z</time>
      </trkpt>
      <trkpt lat="39.95229" lon="29.98569">
        <ele>690.045299</ele>
        <time>2021-11-17T04:39:23.515Z</time>
      </trkpt>
      <trkpt lat="39.95313" lon="29.98594">
        <ele>688.171317</ele>
        <time>2021-11-17T04:39:38.514Z</time>
      </trkpt>
      <trkpt lat="39.95521" lon="29.98698">
        <ele>682.41396</ele>
        <time>2021-11-17T04:40:15.644Z</time>
      </trkpt>
      <trkpt lat="39.95579" lon="29.98713">
        <ele>681.171332</ele>
        <time>2021-11-17T04:40:25.718Z</time>
      </trkpt>
      <trkpt lat="39.95643" lon="29.9872">
        <ele>680.028658</ele>
        <time>2021-11-17T04:40:36.883Z</time>
      </trkpt>
      <trkpt lat="39.95904" lon="29.98711">
        <ele>676.77624</ele>
        <time>2021-11-17T04:41:26.700Z</time>
      </trkpt>
      <trkpt lat="39.95975" lon="29.98725">
        <ele>676.492721</ele>
        <time>2021-11-17T04:41:41.741Z</time>
      </trkpt>
      <trkpt lat="39.96035" lon="29.98747">
        <ele>676.244366</ele>
        <time>2021-11-17T04:41:55.344Z</time>
      </trkpt>
      <trkpt lat="39.96172" lon="29.98834">
        <ele>675.084588</ele>
        <time>2021-11-17T04:42:26.728Z</time>
      </trkpt>
      <trkpt lat="39.96208" lon="29.98852">
        <ele>674.741537</ele>
        <time>2021-11-17T04:42:33.828Z</time>
      </trkpt>
      <trkpt lat="39.96245" lon="29.98862">
        <ele>674.347863</ele>
        <time>2021-11-17T04:42:40.757Z</time>
      </trkpt>
      <trkpt lat="39.9629" lon="29.9887">
        <ele>673.611603</ele>
        <time>2021-11-17T04:42:48.971Z</time>
      </trkpt>
      <trkpt lat="39.96345" lon="29.98869">
        <ele>672.733939</ele>
        <time>2021-11-17T04:42:58.644Z</time>
      </trkpt>
      <trkpt lat="39.96471" lon="29.98843">
        <ele>671.3152</ele>
        <time>2021-11-17T04:43:22.220Z</time>
      </trkpt>
      <trkpt lat="39.96539" lon="29.98848">
        <ele>671.002661</ele>
        <time>2021-11-17T04:43:36.459Z</time>
      </trkpt>
      <trkpt lat="39.96628" lon="29.98872">
        <ele>670.914566</ele>
        <time>2021-11-17T04:43:58.148Z</time>
      </trkpt>
      <trkpt lat="39.96743" lon="29.98913">
        <ele>671.483707</ele>
        <time>2021-11-17T04:44:28.416Z</time>
      </trkpt>
      <trkpt lat="39.9707" lon="29.99051">
        <ele>669.904409</ele>
        <time>2021-11-17T04:45:41.379Z</time>
      </trkpt>
      <trkpt lat="39.97146" lon="29.99092">
        <ele>668.078078</ele>
        <time>2021-11-17T04:45:55.202Z</time>
      </trkpt>
      <trkpt lat="39.97225" lon="29.99149">
        <ele>664.8978</ele>
        <time>2021-11-17T04:46:09.496Z</time>
      </trkpt>
      <trkpt lat="39.97264" lon="29.99184">
        <ele>663.232447</ele>
        <time>2021-11-17T04:46:16.882Z</time>
      </trkpt>
      <trkpt lat="39.97309" lon="29.99231">
        <ele>661.764222</ele>
        <time>2021-11-17T04:46:26.040Z</time>
      </trkpt>
      <trkpt lat="39.97348" lon="29.99286">
        <ele>660.326082</ele>
        <time>2021-11-17T04:46:35.611Z</time>
      </trkpt>
      <trkpt lat="39.97364" lon="29.99314">
        <ele>659.645355</ele>
        <time>2021-11-17T04:46:40.344Z</time>
      </trkpt>
      <trkpt lat="39.97383" lon="29.99355">
        <ele>658.716823</ele>
        <time>2021-11-17T04:46:47.189Z</time>
      </trkpt>
      <trkpt lat="39.97395" lon="29.99385">
        <ele>658.571491</ele>
        <time>2021-11-17T04:46:52.323Z</time>
      </trkpt>
      <trkpt lat="39.97445" lon="29.99568">
        <ele>658.077645</ele>
        <time>2021-11-17T04:47:25.474Z</time>
      </trkpt>
      <trkpt lat="39.97472" lon="29.99646">
        <ele>657.410308</ele>
        <time>2021-11-17T04:47:39.108Z</time>
      </trkpt>
      <trkpt lat="39.97509" lon="29.99716">
        <ele>656.684512</ele>
        <time>2021-11-17T04:47:51.215Z</time>
      </trkpt>
      <trkpt lat="39.9754" lon="29.99761">
        <ele>656.168942</ele>
        <time>2021-11-17T04:47:59.584Z</time>
      </trkpt>
      <trkpt lat="39.97567" lon="29.99793">
        <ele>655.709187</ele>
        <time>2021-11-17T04:48:06.045Z</time>
      </trkpt>
      <trkpt lat="39.9761" lon="29.9985">
        <ele>654.883391</ele>
        <time>2021-11-17T04:48:17.103Z</time>
      </trkpt>
      <trkpt lat="39.97664" lon="29.99891">
        <ele>654.047493</ele>
        <time>2021-11-17T04:48:28.470Z</time>
      </trkpt>
      <trkpt lat="39.97753" lon="29.99935">
        <ele>653.74227</ele>
        <time>2021-11-17T04:48:48.429Z</time>
      </trkpt>
      <trkpt lat="39.97756" lon="29.99917">
        <ele>653.765197</ele>
        <time>2021-11-17T04:48:51.367Z</time>
      </trkpt>
      <trkpt lat="39.97762" lon="29.99883">
        <ele>653.810857</ele>
        <time>2021-11-17T04:48:57.876Z</time>
      </trkpt>
      <trkpt lat="39.97768" lon="29.99859">
        <ele>653.842523</ele>
        <time>2021-11-17T04:49:03.339Z</time>
      </trkpt>
      <trkpt lat="39.97771" lon="29.99846">
        <ele>653.86124</ele>
        <time>2021-11-17T04:49:05.706Z</time>
      </trkpt>
      <trkpt lat="39.97781" lon="29.99833">
        <ele>653.884119</ele>
        <time>2021-11-17T04:49:08.641Z</time>
      </trkpt>
      <trkpt lat="39.97803" lon="29.99835">
        <ele>653.921016</ele>
        <time>2021-11-17T04:49:14.540Z</time>
      </trkpt>
      <trkpt lat="39.97825" lon="29.99853">
        <ele>654.281283</ele>
        <time>2021-11-17T04:49:21.391Z</time>
      </trkpt>
      <trkpt lat="39.97847" lon="29.99857">
        <ele>654.728014</ele>
        <time>2021-11-17T04:49:25.916Z</time>
      </trkpt>
      <trkpt lat="39.97864" lon="29.9984">
        <ele>655.183514</ele>
        <time>2021-11-17T04:49:32.180Z</time>
      </trkpt>
      <trkpt lat="39.97927" lon="29.99735">
        <ele>657.295466</ele>
        <time>2021-11-17T04:50:04.315Z</time>
      </trkpt>
      <trkpt lat="39.97956" lon="29.99717">
        <ele>658.282297</ele>
        <time>2021-11-17T04:50:16.161Z</time>
      </trkpt>
      <trkpt lat="39.97969" lon="29.99695">
        <ele>659.189694</ele>
        <time>2021-11-17T04:50:24.596Z</time>
      </trkpt>
      <trkpt lat="39.97992" lon="29.99643">
        <ele>661.134575</ele>
        <time>2021-11-17T04:50:42.680Z</time>
      </trkpt>
      <trkpt lat="39.98006" lon="29.99624">
        <ele>661.994982</ele>
        <time>2021-11-17T04:50:51.333Z</time>
      </trkpt>
      <trkpt lat="39.98034" lon="29.9961">
        <ele>663.276513</ele>
        <time>2021-11-17T04:51:03.607Z</time>
      </trkpt>
      <trkpt lat="39.9805" lon="29.99592">
        <ele>664.142397</ele>
        <time>2021-11-17T04:51:11.663Z</time>
      </trkpt>
      <trkpt lat="39.98056" lon="29.99578">
        <ele>664.686022</ele>
        <time>2021-11-17T04:51:17.187Z</time>
      </trkpt>
      <trkpt lat="39.98068" lon="29.99497">
        <ele>666.099898</ele>
        <time>2021-11-17T04:51:42.392Z</time>
      </trkpt>
      <trkpt lat="39.98078" lon="29.99466">
        <ele>666.536414</ele>
        <time>2021-11-17T04:51:51.702Z</time>
      </trkpt>
      <trkpt lat="39.98146" lon="29.99367">
        <ele>668.205468</ele>
        <time>2021-11-17T04:52:15.909Z</time>
      </trkpt>
      <trkpt lat="39.98158" lon="29.99359">
        <ele>668.085439</ele>
        <time>2021-11-17T04:52:18.532Z</time>
      </trkpt>
      <trkpt lat="39.98298" lon="29.99332">
        <ele>665.51037</ele>
        <time>2021-11-17T04:52:42.958Z</time>
      </trkpt>
      <trkpt lat="39.98323" lon="29.99316">
        <ele>664.991613</ele>
        <time>2021-11-17T04:52:47.629Z</time>
      </trkpt>
      <trkpt lat="39.98439" lon="29.99205">
        <ele>664.07225</ele>
        <time>2021-11-17T04:53:14.501Z</time>
      </trkpt>
      <trkpt lat="39.98455" lon="29.99185">
        <ele>663.927703</ele>
        <time>2021-11-17T04:53:20.201Z</time>
      </trkpt>
      <trkpt lat="39.98442" lon="29.9904">
        <ele>666.933896</ele>
        <time>2021-11-17T04:53:55.710Z</time>
      </trkpt>
      <trkpt lat="39.98419" lon="29.98779">
        <ele>675.639473</ele>
        <time>2021-11-17T04:55:18.065Z</time>
      </trkpt>
      <trkpt lat="39.98405" lon="29.98636">
        <ele>682.13683</ele>
        <time>2021-11-17T04:56:08.698Z</time>
      </trkpt>
      <trkpt lat="39.98397" lon="29.98571">
        <ele>685.569444</ele>
        <time>2021-11-17T04:56:34.305Z</time>
      </trkpt>
      <trkpt lat="39.9839" lon="29.98495">
        <ele>689.524588</ele>
        <time>2021-11-17T04:57:03.974Z</time>
      </trkpt>
      <trkpt lat="39.9839" lon="29.98441">
        <ele>692.383415</ele>
        <time>2021-11-17T04:57:25.413Z</time>
      </trkpt>
      <trkpt lat="39.9839" lon="29.98417">
        <ele>693.684705</ele>
        <time>2021-11-17T04:57:35.151Z</time>
      </trkpt>
      <trkpt lat="39.98392" lon="29.98367">
        <ele>696.338312</ele>
        <time>2021-11-17T04:57:54.641Z</time>
      </trkpt>
      <trkpt lat="39.98397" lon="29.98312">
        <ele>699.339397</ele>
        <time>2021-11-17T04:58:16.238Z</time>
      </trkpt>
      <trkpt lat="39.98407" lon="29.98238">
        <ele>703.333927</ele>
        <time>2021-11-17T04:58:44.662Z</time>
      </trkpt>
      <trkpt lat="39.98422" lon="29.9817">
        <ele>706.889044</ele>
        <time>2021-11-17T04:59:10.071Z</time>
      </trkpt>
      <trkpt lat="39.98662" lon="29.97297">
        <ele>752.895227</ele>
        <time>2021-11-17T05:04:54.504Z</time>
      </trkpt>
      <trkpt lat="39.98673" lon="29.97252">
        <ele>754.865542</ele>
        <time>2021-11-17T05:05:11.316Z</time>
      </trkpt>
      <trkpt lat="39.98676" lon="29.97212">
        <ele>756.575501</ele>
        <time>2021-11-17T05:05:25.307Z</time>
      </trkpt>
      <trkpt lat="39.98675" lon="29.97168">
        <ele>758.410754</ele>
        <time>2021-11-17T05:05:39.749Z</time>
      </trkpt>
      <trkpt lat="39.98663" lon="29.97117">
        <ele>760.577049</ele>
        <time>2021-11-17T05:05:56.657Z</time>
      </trkpt>
      <trkpt lat="39.9854" lon="29.9679">
        <ele>770.86495</ele>
        <time>2021-11-17T05:07:34.456Z</time>
      </trkpt>
      <trkpt lat="39.98523" lon="29.96727">
        <ele>772.96474</ele>
        <time>2021-11-17T05:07:55.361Z</time>
      </trkpt>
      <trkpt lat="39.98517" lon="29.96668">
        <ele>775.349607</ele>
        <time>2021-11-17T05:08:15.869Z</time>
      </trkpt>
      <trkpt lat="39.98516" lon="29.96597">
        <ele>779.017776</ele>
        <time>2021-11-17T05:08:42.477Z</time>
      </trkpt>
      <trkpt lat="39.98525" lon="29.96511">
        <ele>783.525344</ele>
        <time>2021-11-17T05:09:17.410Z</time>
      </trkpt>
      <trkpt lat="39.98555" lon="29.96364">
        <ele>790.101949</ele>
        <time>2021-11-17T05:10:15.806Z</time>
      </trkpt>
      <trkpt lat="39.986" lon="29.9613">
        <ele>794.620531</ele>
        <time>2021-11-17T05:11:23.751Z</time>
      </trkpt>
      <trkpt lat="39.98867" lon="29.94545">
        <ele>783.106232</ele>
        <time>2021-11-17T05:15:18.986Z</time>
      </trkpt>
      <trkpt lat="39.98926" lon="29.94287">
        <ele>778.634268</ele>
        <time>2021-11-17T05:15:54.334Z</time>
      </trkpt>
      <trkpt lat="39.98985" lon="29.94116">
        <ele>774.945448</ele>
        <time>2021-11-17T05:16:18.544Z</time>
      </trkpt>
      <trkpt lat="39.99084" lon="29.93918">
        <ele>770.401717</ele>
        <time>2021-11-17T05:16:48.965Z</time>
      </trkpt>
      <trkpt lat="39.99163" lon="29.93695">
        <ele>766.542591</ele>
        <time>2021-11-17T05:17:21.745Z</time>
      </trkpt>
      <trkpt lat="39.99261" lon="29.93386">
        <ele>762.943789</ele>
        <time>2021-11-17T05:18:09.552Z</time>
      </trkpt>
      <trkpt lat="39.99342" lon="29.93107">
        <ele>760.819422</ele>
        <time>2021-11-17T05:18:54.008Z</time>
      </trkpt>
      <trkpt lat="39.99348" lon="29.93085">
        <ele>760.748795</ele>
        <time>2021-11-17T05:18:57.566Z</time>
      </trkpt>
      <trkpt lat="39.99414" lon="29.92818">
        <ele>760.590964</ele>
        <time>2021-11-17T05:19:43.356Z</time>
      </trkpt>
      <trkpt lat="39.99539" lon="29.92304">
        <ele>764.940948</ele>
        <time>2021-11-17T05:21:29.522Z</time>
      </trkpt>
      <trkpt lat="39.99556" lon="29.92234">
        <ele>766.101965</ele>
        <time>2021-11-17T05:21:49.634Z</time>
      </trkpt>
      <trkpt lat="39.99729" lon="29.91535">
        <ele>797.154701</ele>
        <time>2021-11-17T05:26:02.036Z</time>
      </trkpt>
      <trkpt lat="39.99742" lon="29.9148">
        <ele>799.442641</ele>
        <time>2021-11-17T05:26:22.903Z</time>
      </trkpt>
      <trkpt lat="39.99752" lon="29.9144">
        <ele>801.077676</ele>
        <time>2021-11-17T05:26:37.144Z</time>
      </trkpt>
      <trkpt lat="39.99756" lon="29.91424">
        <ele>801.732749</ele>
        <time>2021-11-17T05:26:42.640Z</time>
      </trkpt>
      <trkpt lat="39.99765" lon="29.91388">
        <ele>803.200516</ele>
        <time>2021-11-17T05:26:54.718Z</time>
      </trkpt>
      <trkpt lat="39.99771" lon="29.91361">
        <ele>804.308811</ele>
        <time>2021-11-17T05:27:03.493Z</time>
      </trkpt>
      <trkpt lat="39.99774" lon="29.91351">
        <ele>804.759901</ele>
        <time>2021-11-17T05:27:07.056Z</time>
      </trkpt>
      <trkpt lat="39.99775" lon="29.91341">
        <ele>805.124499</ele>
        <time>2021-11-17T05:27:09.847Z</time>
      </trkpt>
      <trkpt lat="39.99779" lon="29.91305">
        <ele>805.728199</ele>
        <time>2021-11-17T05:27:20.588Z</time>
      </trkpt>
      <trkpt lat="39.99786" lon="29.91235">
        <ele>806.415247</ele>
        <time>2021-11-17T05:27:38.306Z</time>
      </trkpt>
      <trkpt lat="39.99786" lon="29.91169">
        <ele>807.063646</ele>
        <time>2021-11-17T05:27:51.643Z</time>
      </trkpt>
      <trkpt lat="39.99775" lon="29.91122">
        <ele>807.530814</ele>
        <time>2021-11-17T05:27:58.983Z</time>
      </trkpt>
      <trkpt lat="39.99846" lon="29.9108">
        <ele>806.173954</ele>
        <time>2021-11-17T05:28:13.592Z</time>
      </trkpt>
      <trkpt lat="39.99852" lon="29.9107">
        <ele>805.944256</ele>
        <time>2021-11-17T05:28:15.155Z</time>
      </trkpt>
      <trkpt lat="39.99861" lon="29.91057">
        <ele>805.593902</ele>
        <time>2021-11-17T05:28:17.634Z</time>
      </trkpt>
      <trkpt lat="39.99872" lon="29.91037">
        <ele>805.123843</ele>
        <time>2021-11-17T05:28:20.908Z</time>
      </trkpt>
      <trkpt lat="39.99863" lon="29.91007">
        <ele>804.499271</ele>
        <time>2021-11-17T05:28:25.074Z</time>
      </trkpt>
      <trkpt lat="39.99859" lon="29.90963">
        <ele>803.631403</ele>
        <time>2021-11-17T05:28:30.824Z</time>
      </trkpt>
      <trkpt lat="39.99859" lon="29.90856">
        <ele>801.777008</ele>
        <time>2021-11-17T05:28:44.854Z</time>
      </trkpt>
      <trkpt lat="39.9986" lon="29.90833">
        <ele>801.397835</ele>
        <time>2021-11-17T05:28:47.824Z</time>
      </trkpt>
      <trkpt lat="39.99861" lon="29.90804">
        <ele>800.901304</ele>
        <time>2021-11-17T05:28:52.028Z</time>
      </trkpt>
      <trkpt lat="39.99867" lon="29.90777">
        <ele>800.43188</ele>
        <time>2021-11-17T05:28:56.047Z</time>
      </trkpt>
      <trkpt lat="39.99878" lon="29.90727">
        <ele>799.55866</ele>
        <time>2021-11-17T05:29:03.796Z</time>
      </trkpt>
      <trkpt lat="39.9988" lon="29.90715">
        <ele>799.350294</ele>
        <time>2021-11-17T05:29:05.661Z</time>
      </trkpt>
      <trkpt lat="39.99908" lon="29.90564">
        <ele>799.256525</ele>
        <time>2021-11-17T05:29:31.935Z</time>
      </trkpt>
      <trkpt lat="39.99929" lon="29.90445">
        <ele>799.577766</ele>
        <time>2021-11-17T05:29:56.515Z</time>
      </trkpt>
      <trkpt lat="39.99891" lon="29.90425">
        <ele>800.048377</ele>
        <time>2021-11-17T05:30:08.081Z</time>
      </trkpt>
      <trkpt lat="39.99886" lon="29.90422">
        <ele>800.106664</ele>
        <time>2021-11-17T05:30:09.535Z</time>
      </trkpt>
      <trkpt lat="39.99786" lon="29.90368">
        <ele>801.362013</ele>
        <time>2021-11-17T05:30:39.339Z</time>
      </trkpt>
      <trkpt lat="39.99777" lon="29.90364">
        <ele>801.577734</ele>
        <time>2021-11-17T05:30:42.232Z</time>
      </trkpt>
      <trkpt lat="39.99766" lon="29.9036">
        <ele>801.822598</ele>
        <time>2021-11-17T05:30:45.338Z</time>
      </trkpt>
      <trkpt lat="39.99784" lon="29.90235">
        <ele>803.91746</ele>
        <time>2021-11-17T05:31:16.108Z</time>
      </trkpt>
      <trkpt lat="39.99791" lon="29.90158">
        <ele>805.197399</ele>
        <time>2021-11-17T05:31:36.592Z</time>
      </trkpt>
      <trkpt lat="39.99807" lon="29.90047">
        <ele>806.977329</ele>
        <time>2021-11-17T05:32:06.319Z</time>
      </trkpt>
      <trkpt lat="39.99817" lon="29.89944">
        <ele>808.603481</ele>
        <time>2021-11-17T05:32:30.388Z</time>
      </trkpt>
      <trkpt lat="39.99824" lon="29.89867">
        <ele>808.653098</ele>
        <time>2021-11-17T05:32:46.031Z</time>
      </trkpt>
      <trkpt lat="39.99838" lon="29.89755">
        <ele>808.224675</ele>
        <time>2021-11-17T05:33:04.281Z</time>
      </trkpt>
      <trkpt lat="39.9977" lon="29.89729">
        <ele>807.487926</ele>
        <time>2021-11-17T05:33:17.544Z</time>
      </trkpt>
      <trkpt lat="39.99781" lon="29.89665">
        <ele>806.410428</ele>
        <time>2021-11-17T05:33:26.368Z</time>
      </trkpt>
      <trkpt lat="39.99794" lon="29.89603">
        <ele>805.364159</ele>
        <time>2021-11-17T05:33:34.949Z</time>
      </trkpt>
      <trkpt lat="39.99818" lon="29.89484">
        <ele>803.457848</ele>
        <time>2021-11-17T05:33:50.851Z</time>
      </trkpt>
      <trkpt lat="39.99821" lon="29.89469">
        <ele>803.236617</ele>
        <time>2021-11-17T05:33:52.829Z</time>
      </trkpt>
      <trkpt lat="39.99847" lon="29.8934">
        <ele>801.31185</ele>
        <time>2021-11-17T05:34:10.677Z</time>
      </trkpt>
      <trkpt lat="39.99855" lon="29.893">
        <ele>800.789205</ele>
        <time>2021-11-17T05:34:16.660Z</time>
      </trkpt>
      <trkpt lat="39.99942" lon="29.88865">
        <ele>801.677515</ele>
        <time>2021-11-17T05:35:38.758Z</time>
      </trkpt>
      <trkpt lat="39.99946" lon="29.88855">
        <ele>801.711156</ele>
        <time>2021-11-17T05:35:41.374Z</time>
      </trkpt>
      <trkpt lat="39.9996" lon="29.88805">
        <ele>801.419497</ele>
        <time>2021-11-17T05:35:51.099Z</time>
      </trkpt>
      <trkpt lat="40.00023" lon="29.88667">
        <ele>800.424995</ele>
        <time>2021-11-17T05:36:15.627Z</time>
      </trkpt>
      <trkpt lat="40.00259" lon="29.88231">
        <ele>790.841911</ele>
        <time>2021-11-17T05:37:23.758Z</time>
      </trkpt>
      <trkpt lat="40.00743" lon="29.8734">
        <ele>793.338396</ele>
        <time>2021-11-17T05:40:43.833Z</time>
      </trkpt>
      <trkpt lat="40.00804" lon="29.8717">
        <ele>794.293543</ele>
        <time>2021-11-17T05:41:22.217Z</time>
      </trkpt>
      <trkpt lat="40.00855" lon="29.87003">
        <ele>793.961719</ele>
        <time>2021-11-17T05:41:53.588Z</time>
      </trkpt>
      <trkpt lat="40.00853" lon="29.86983">
        <ele>793.782221</ele>
        <time>2021-11-17T05:41:56.504Z</time>
      </trkpt>
      <trkpt lat="40.0084" lon="29.8694">
        <ele>793.362091</ele>
        <time>2021-11-17T05:42:03.016Z</time>
      </trkpt>
      <trkpt lat="40.00811" lon="29.86863">
        <ele>792.466699</ele>
        <time>2021-11-17T05:42:14.415Z</time>
      </trkpt>
      <trkpt lat="40.0079" lon="29.86824">
        <ele>791.297953</ele>
        <time>2021-11-17T05:42:20.402Z</time>
      </trkpt>
      <trkpt lat="40.00787" lon="29.86786">
        <ele>790.348315</ele>
        <time>2021-11-17T05:42:25.161Z</time>
      </trkpt>
      <trkpt lat="40.00791" lon="29.86764">
        <ele>789.805325</ele>
        <time>2021-11-17T05:42:27.861Z</time>
      </trkpt>
      <trkpt lat="40.0104" lon="29.85976">
        <ele>769.417876</ele>
        <time>2021-11-17T05:44:13.778Z</time>
      </trkpt>
      <trkpt lat="40.01071" lon="29.85879">
        <ele>768.74953</ele>
        <time>2021-11-17T05:44:29.312Z</time>
      </trkpt>
      <trkpt lat="40.01091" lon="29.8585">
        <ele>768.502727</ele>
        <time>2021-11-17T05:44:35.921Z</time>
      </trkpt>
      <trkpt lat="40.01157" lon="29.85811">
        <ele>768.330608</ele>
        <time>2021-11-17T05:44:53.813Z</time>
      </trkpt>
      <trkpt lat="40.01171" lon="29.85781">
        <ele>768.567897</ele>
        <time>2021-11-17T05:45:00.801Z</time>
      </trkpt>
      <trkpt lat="40.01175" lon="29.85739">
        <ele>768.85375</ele>
        <time>2021-11-17T05:45:09.267Z</time>
      </trkpt>
      <trkpt lat="40.01175" lon="29.85609">
        <ele>769.729424</ele>
        <time>2021-11-17T05:45:35.415Z</time>
      </trkpt>
      <trkpt lat="40.01181" lon="29.85582">
        <ele>769.87156</ele>
        <time>2021-11-17T05:45:41.071Z</time>
      </trkpt>
      <trkpt lat="40.01285" lon="29.85291">
        <ele>771.542605</ele>
        <time>2021-11-17T05:46:41.617Z</time>
      </trkpt>
      <trkpt lat="40.0138" lon="29.84991">
        <ele>773.175301</ele>
        <time>2021-11-17T05:47:45.380Z</time>
      </trkpt>
      <trkpt lat="40.01392" lon="29.84927">
        <ele>773.114351</ele>
        <time>2021-11-17T05:47:56.126Z</time>
      </trkpt>
      <trkpt lat="40.01437" lon="29.84696">
        <ele>772.325297</ele>
        <time>2021-11-17T05:48:31.862Z</time>
      </trkpt>
      <trkpt lat="40.01644" lon="29.83661">
        <ele>775.390828</ele>
        <time>2021-11-17T05:51:47.941Z</time>
      </trkpt>
      <trkpt lat="40.01664" lon="29.83579">
        <ele>775.766536</ele>
        <time>2021-11-17T05:52:04.129Z</time>
      </trkpt>
      <trkpt lat="40.01781" lon="29.8324">
        <ele>778.193264</ele>
        <time>2021-11-17T05:53:16.833Z</time>
      </trkpt>
      <trkpt lat="40.01814" lon="29.83146">
        <ele>779.04857</ele>
        <time>2021-11-17T05:53:38.098Z</time>
      </trkpt>
      <trkpt lat="40.01817" lon="29.83135">
        <ele>779.178683</ele>
        <time>2021-11-17T05:53:40.670Z</time>
      </trkpt>
      <trkpt lat="40.01834" lon="29.83094">
        <ele>779.683561</ele>
        <time>2021-11-17T05:53:50.589Z</time>
      </trkpt>
      <trkpt lat="40.01965" lon="29.82694">
        <ele>785.181287</ele>
        <time>2021-11-17T05:55:24.309Z</time>
      </trkpt>
      <trkpt lat="40.01974" lon="29.82666">
        <ele>785.848695</ele>
        <time>2021-11-17T05:55:31.673Z</time>
      </trkpt>
      <trkpt lat="40.02056" lon="29.82412">
        <ele>792.994585</ele>
        <time>2021-11-17T05:56:48.751Z</time>
      </trkpt>
      <trkpt lat="40.02064" lon="29.82376">
        <ele>794.117</ele>
        <time>2021-11-17T05:57:00.214Z</time>
      </trkpt>
      <trkpt lat="40.02077" lon="29.8218">
        <ele>800.013383</ele>
        <time>2021-11-17T05:58:00.805Z</time>
      </trkpt>
      <trkpt lat="40.0206" lon="29.82073">
        <ele>803.267219</ele>
        <time>2021-11-17T05:58:31.006Z</time>
      </trkpt>
      <trkpt lat="40.02059" lon="29.8204">
        <ele>803.900436</ele>
        <time>2021-11-17T05:58:39.268Z</time>
      </trkpt>
      <trkpt lat="40.02066" lon="29.82011">
        <ele>804.496242</ele>
        <time>2021-11-17T05:58:46.773Z</time>
      </trkpt>
      <trkpt lat="40.02107" lon="29.81824">
        <ele>808.325062</ele>
        <time>2021-11-17T05:59:33.102Z</time>
      </trkpt>
      <trkpt lat="40.02156" lon="29.81594">
        <ele>814.131407</ele>
        <time>2021-11-17T06:00:38.110Z</time>
      </trkpt>
      <trkpt lat="40.02167" lon="29.81519">
        <ele>816.071873</ele>
        <time>2021-11-17T06:00:59.503Z</time>
      </trkpt>
      <trkpt lat="40.02189" lon="29.81436">
        <ele>818.306403</ele>
        <time>2021-11-17T06:01:23.337Z</time>
      </trkpt>
      <trkpt lat="40.02207" lon="29.81381">
        <ele>819.789219</ele>
        <time>2021-11-17T06:01:39.286Z</time>
      </trkpt>
      <trkpt lat="40.02211" lon="29.81302">
        <ele>821.623499</ele>
        <time>2021-11-17T06:01:59.853Z</time>
      </trkpt>
      <trkpt lat="40.02256" lon="29.81193">
        <ele>824.46929</ele>
        <time>2021-11-17T06:02:31.905Z</time>
      </trkpt>
      <trkpt lat="40.02295" lon="29.81002">
        <ele>829.155804</ele>
        <time>2021-11-17T06:03:25.368Z</time>
      </trkpt>
      <trkpt lat="40.02335" lon="29.80878">
        <ele>831.954616</ele>
        <time>2021-11-17T06:03:59.816Z</time>
      </trkpt>
      <trkpt lat="40.02341" lon="29.80826">
        <ele>832.950912</ele>
        <time>2021-11-17T06:04:12.688Z</time>
      </trkpt>
      <trkpt lat="40.0235" lon="29.80795">
        <ele>833.596634</ele>
        <time>2021-11-17T06:04:20.863Z</time>
      </trkpt>
      <trkpt lat="40.02454" lon="29.80641">
        <ele>837.421663</ele>
        <time>2021-11-17T06:05:08.870Z</time>
      </trkpt>
      <trkpt lat="40.02627" lon="29.80406">
        <ele>844.606218</ele>
        <time>2021-11-17T06:06:32.686Z</time>
      </trkpt>
      <trkpt lat="40.02696" lon="29.80303">
        <ele>849.697155</ele>
        <time>2021-11-17T06:07:14.907Z</time>
      </trkpt>
      <trkpt lat="40.02711" lon="29.80265">
        <ele>851.337315</ele>
        <time>2021-11-17T06:07:29.435Z</time>
      </trkpt>
      <trkpt lat="40.02728" lon="29.80189">
        <ele>854.575103</ele>
        <time>2021-11-17T06:07:57.432Z</time>
      </trkpt>
      <trkpt lat="40.0286" lon="29.79933">
        <ele>870.490726</ele>
        <time>2021-11-17T06:09:54.989Z</time>
      </trkpt>
      <trkpt lat="40.02879" lon="29.79869">
        <ele>874.026511</ele>
        <time>2021-11-17T06:10:21.346Z</time>
      </trkpt>
      <trkpt lat="40.02886" lon="29.79779">
        <ele>878.65759</ele>
        <time>2021-11-17T06:10:55.337Z</time>
      </trkpt>
      <trkpt lat="40.029" lon="29.79741">
        <ele>880.580404</ele>
        <time>2021-11-17T06:11:10.931Z</time>
      </trkpt>
      <trkpt lat="40.02958" lon="29.79651">
        <ele>885.880327</ele>
        <time>2021-11-17T06:11:51.620Z</time>
      </trkpt>
      <trkpt lat="40.02972" lon="29.79624">
        <ele>887.363967</ele>
        <time>2021-11-17T06:12:02.725Z</time>
      </trkpt>
      <trkpt lat="40.02977" lon="29.79595">
        <ele>888.680877</ele>
        <time>2021-11-17T06:12:12.504Z</time>
      </trkpt>
      <trkpt lat="40.02986" lon="29.79576">
        <ele>889.725351</ele>
        <time>2021-11-17T06:12:20.033Z</time>
      </trkpt>
      <trkpt lat="40.03021" lon="29.79545">
        <ele>892.260043</ele>
        <time>2021-11-17T06:12:38.663Z</time>
      </trkpt>
      <trkpt lat="40.03036" lon="29.79516">
        <ele>893.893229</ele>
        <time>2021-11-17T06:12:51.050Z</time>
      </trkpt>
      <trkpt lat="40.03045" lon="29.79489">
        <ele>895.275608</ele>
        <time>2021-11-17T06:13:01.821Z</time>
      </trkpt>
      <trkpt lat="40.03048" lon="29.79441">
        <ele>897.475551</ele>
        <time>2021-11-17T06:13:19.102Z</time>
      </trkpt>
      <trkpt lat="40.03055" lon="29.79421">
        <ele>898.509284</ele>
        <time>2021-11-17T06:13:27.228Z</time>
      </trkpt>
      <trkpt lat="40.03108" lon="29.79381">
        <ele>902.91072</ele>
        <time>2021-11-17T06:13:57.180Z</time>
      </trkpt>
      <trkpt lat="40.03121" lon="29.79352">
        <ele>904.865249</ele>
        <time>2021-11-17T06:14:10.517Z</time>
      </trkpt>
      <trkpt lat="40.03127" lon="29.79321">
        <ele>906.73396</ele>
        <time>2021-11-17T06:14:23.480Z</time>
      </trkpt>
      <trkpt lat="40.03152" lon="29.79289">
        <ele>909.362832</ele>
        <time>2021-11-17T06:14:42.142Z</time>
      </trkpt>
      <trkpt lat="40.03187" lon="29.79229">
        <ele>913.934615</ele>
        <time>2021-11-17T06:15:14.451Z</time>
      </trkpt>
      <trkpt lat="40.03251" lon="29.79164">
        <ele>921.581779</ele>
        <time>2021-11-17T06:16:01.570Z</time>
      </trkpt>
      <trkpt lat="40.03275" lon="29.79119">
        <ele>925.53324</ele>
        <time>2021-11-17T06:16:27.454Z</time>
      </trkpt>
      <trkpt lat="40.03295" lon="29.7907">
        <ele>929.529474</ele>
        <time>2021-11-17T06:16:54.275Z</time>
      </trkpt>
      <trkpt lat="40.03317" lon="29.78982">
        <ele>936.254044</ele>
        <time>2021-11-17T06:17:38.868Z</time>
      </trkpt>
      <trkpt lat="40.0334" lon="29.78938">
        <ele>940.172009</ele>
        <time>2021-11-17T06:18:04.294Z</time>
      </trkpt>
      <trkpt lat="40.03376" lon="29.78852">
        <ele>947.275395</ele>
        <time>2021-11-17T06:18:48.439Z</time>
      </trkpt>
      <trkpt lat="40.03382" lon="29.78817">
        <ele>949.147957</ele>
        <time>2021-11-17T06:19:03.780Z</time>
      </trkpt>
      <trkpt lat="40.03379" lon="29.78763">
        <ele>951.957818</ele>
        <time>2021-11-17T06:19:25.561Z</time>
      </trkpt>
      <trkpt lat="40.03398" lon="29.78685">
        <ele>956.177825</ele>
        <time>2021-11-17T06:19:54.256Z</time>
      </trkpt>
      <trkpt lat="40.03382" lon="29.78607">
        <ele>960.108736</ele>
        <time>2021-11-17T06:20:22.802Z</time>
      </trkpt>
      <trkpt lat="40.03408" lon="29.7853">
        <ele>963.231825</ele>
        <time>2021-11-17T06:20:50.204Z</time>
      </trkpt>
      <trkpt lat="40.0341" lon="29.78501">
        <ele>964.328109</ele>
        <time>2021-11-17T06:20:59.486Z</time>
      </trkpt>
      <trkpt lat="40.03404" lon="29.78454">
        <ele>966.078479</ele>
        <time>2021-11-17T06:21:14.090Z</time>
      </trkpt>
      <trkpt lat="40.03393" lon="29.78442">
        <ele>966.764986</ele>
        <time>2021-11-17T06:21:19.750Z</time>
      </trkpt>
      <trkpt lat="40.03368" lon="29.78432">
        <ele>968.031885</ele>
        <time>2021-11-17T06:21:30.061Z</time>
      </trkpt>
      <trkpt lat="40.03338" lon="29.78433">
        <ele>969.01</ele>
        <time>2021-11-17T06:21:41.667Z</time>
      </trkpt>
      <trkpt lat="40.03313" lon="29.78413">
        <ele>969.93938</ele>
        <time>2021-11-17T06:21:53.139Z</time>
      </trkpt>
      <trkpt lat="40.03309" lon="29.78402">
        <ele>970.208488</ele>
        <time>2021-11-17T06:21:56.472Z</time>
      </trkpt>
      <trkpt lat="40.03308" lon="29.78379">
        <ele>970.774553</ele>
        <time>2021-11-17T06:22:03.251Z</time>
      </trkpt>
      <trkpt lat="40.03315" lon="29.78354">
        <ele>971.398462</ele>
        <time>2021-11-17T06:22:10.464Z</time>
      </trkpt>
      <trkpt lat="40.03349" lon="29.78318">
        <ele>972.750879</ele>
        <time>2021-11-17T06:22:23.781Z</time>
      </trkpt>
      <trkpt lat="40.03362" lon="29.78282">
        <ele>973.698981</ele>
        <time>2021-11-17T06:22:32.912Z</time>
      </trkpt>
      <trkpt lat="40.03366" lon="29.78246">
        <ele>974.199889</ele>
        <time>2021-11-17T06:22:40.989Z</time>
      </trkpt>
      <trkpt lat="40.03345" lon="29.78193">
        <ele>975.004097</ele>
        <time>2021-11-17T06:22:54.077Z</time>
      </trkpt>
      <trkpt lat="40.03314" lon="29.78133">
        <ele>975.962804</ele>
        <time>2021-11-17T06:23:09.215Z</time>
      </trkpt>
      <trkpt lat="40.03294" lon="29.78067">
        <ele>976.94677</ele>
        <time>2021-11-17T06:23:25.043Z</time>
      </trkpt>
      <trkpt lat="40.03304" lon="29.78037">
        <ele>977.881921</ele>
        <time>2021-11-17T06:23:33.081Z</time>
      </trkpt>
      <trkpt lat="40.03314" lon="29.78027">
        <ele>978.372751</ele>
        <time>2021-11-17T06:23:37.410Z</time>
      </trkpt>
      <trkpt lat="40.03381" lon="29.78004">
        <ele>980.994623</ele>
        <time>2021-11-17T06:24:03.147Z</time>
      </trkpt>
      <trkpt lat="40.03405" lon="29.77966">
        <ele>982.42092</ele>
        <time>2021-11-17T06:24:18.445Z</time>
      </trkpt>
      <trkpt lat="40.03414" lon="29.77924">
        <ele>983.670459</ele>
        <time>2021-11-17T06:24:32.229Z</time>
      </trkpt>
      <trkpt lat="40.03402" lon="29.77775">
        <ele>989.217256</ele>
        <time>2021-11-17T06:25:21.578Z</time>
      </trkpt>
      <trkpt lat="40.03394" lon="29.77737">
        <ele>990.681857</ele>
        <time>2021-11-17T06:25:34.422Z</time>
      </trkpt>
      <trkpt lat="40.0338" lon="29.77701">
        <ele>992.163139</ele>
        <time>2021-11-17T06:25:46.760Z</time>
      </trkpt>
      <trkpt lat="40.03378" lon="29.77674">
        <ele>992.967349</ele>
        <time>2021-11-17T06:25:54.689Z</time>
      </trkpt>
      <trkpt lat="40.03383" lon="29.7765">
        <ele>993.64517</ele>
        <time>2021-11-17T06:26:01.771Z</time>
      </trkpt>
      <trkpt lat="40.03397" lon="29.77613">
        <ele>994.797113</ele>
        <time>2021-11-17T06:26:13.278Z</time>
      </trkpt>
      <trkpt lat="40.03428" lon="29.77563">
        <ele>996.579456</ele>
        <time>2021-11-17T06:26:30.534Z</time>
      </trkpt>
      <trkpt lat="40.03453" lon="29.77498">
        <ele>998.601654</ele>
        <time>2021-11-17T06:26:50.374Z</time>
      </trkpt>
      <trkpt lat="40.0346" lon="29.77438">
        <ele>1000.579235</ele>
        <time>2021-11-17T06:27:07.492Z</time>
      </trkpt>
      <trkpt lat="40.03468" lon="29.77414">
        <ele>1001.470388</ele>
        <time>2021-11-17T06:27:15.128Z</time>
      </trkpt>
      <trkpt lat="40.0348" lon="29.77396">
        <ele>1002.284557</ele>
        <time>2021-11-17T06:27:22.339Z</time>
      </trkpt>
      <trkpt lat="40.03531" lon="29.77369">
        <ele>1004.73377</ele>
        <time>2021-11-17T06:27:44.736Z</time>
      </trkpt>
      <trkpt lat="40.03548" lon="29.77331">
        <ele>1006.209679</ele>
        <time>2021-11-17T06:27:58.951Z</time>
      </trkpt>
      <trkpt lat="40.03553" lon="29.77305">
        <ele>1007.111936</ele>
        <time>2021-11-17T06:28:07.926Z</time>
      </trkpt>
      <trkpt lat="40.03551" lon="29.77275">
        <ele>1008.085946</ele>
        <time>2021-11-17T06:28:18.001Z</time>
      </trkpt>
      <trkpt lat="40.0354" lon="29.77246">
        <ele>1009.161955</ele>
        <time>2021-11-17T06:28:28.971Z</time>
      </trkpt>
      <trkpt lat="40.03533" lon="29.77203">
        <ele>1010.592045</ele>
        <time>2021-11-17T06:28:43.153Z</time>
      </trkpt>
      <trkpt lat="40.03544" lon="29.77098">
        <ele>1014.047362</ele>
        <time>2021-11-17T06:29:14.256Z</time>
      </trkpt>
      <trkpt lat="40.03527" lon="29.77002">
        <ele>1015.077265</ele>
        <time>2021-11-17T06:29:37.531Z</time>
      </trkpt>
      <trkpt lat="40.03525" lon="29.76952">
        <ele>1015.395954</ele>
        <time>2021-11-17T06:29:47.363Z</time>
      </trkpt>
      <trkpt lat="40.03533" lon="29.76624">
        <ele>1014.872543</ele>
        <time>2021-11-17T06:30:37.394Z</time>
      </trkpt>
      <trkpt lat="40.03541" lon="29.76537">
        <ele>1014.801386</ele>
        <time>2021-11-17T06:30:51.449Z</time>
      </trkpt>
      <trkpt lat="40.03538" lon="29.76478">
        <ele>1014.780761</ele>
        <time>2021-11-17T06:31:01.040Z</time>
      </trkpt>
      <trkpt lat="40.03518" lon="29.76365">
        <ele>1014.917375</ele>
        <time>2021-11-17T06:31:22.034Z</time>
      </trkpt>
      <trkpt lat="40.03523" lon="29.76316">
        <ele>1015.340549</ele>
        <time>2021-11-17T06:31:31.878Z</time>
      </trkpt>
      <trkpt lat="40.03539" lon="29.76286">
        <ele>1015.654258</ele>
        <time>2021-11-17T06:31:39.481Z</time>
      </trkpt>
      <trkpt lat="40.03571" lon="29.76252">
        <ele>1016.110749</ele>
        <time>2021-11-17T06:31:50.561Z</time>
      </trkpt>
      <trkpt lat="40.03634" lon="29.76194">
        <ele>1016.877952</ele>
        <time>2021-11-17T06:32:12.055Z</time>
      </trkpt>
      <trkpt lat="40.03714" lon="29.7612">
        <ele>1017.459607</ele>
        <time>2021-11-17T06:32:40.497Z</time>
      </trkpt>
      <trkpt lat="40.03752" lon="29.76074">
        <ele>1017.769203</ele>
        <time>2021-11-17T06:32:52.694Z</time>
      </trkpt>
      <trkpt lat="40.03796" lon="29.76019">
        <ele>1015.908683</ele>
        <time>2021-11-17T06:33:02.781Z</time>
      </trkpt>
      <trkpt lat="40.03826" lon="29.75986">
        <ele>1014.369641</ele>
        <time>2021-11-17T06:33:09.155Z</time>
      </trkpt>
      <trkpt lat="40.03851" lon="29.75943">
        <ele>1012.78907</ele>
        <time>2021-11-17T06:33:15.487Z</time>
      </trkpt>
      <trkpt lat="40.03858" lon="29.75923">
        <ele>1012.154313</ele>
        <time>2021-11-17T06:33:17.828Z</time>
      </trkpt>
      <trkpt lat="40.03868" lon="29.75904">
        <ele>1011.463869</ele>
        <time>2021-11-17T06:33:20.731Z</time>
      </trkpt>
      <trkpt lat="40.03874" lon="29.75879">
        <ele>1010.639191</ele>
        <time>2021-11-17T06:33:23.637Z</time>
      </trkpt>
      <trkpt lat="40.03872" lon="29.75781">
        <ele>1007.135224</ele>
        <time>2021-11-17T06:33:34.748Z</time>
      </trkpt>
      <trkpt lat="40.03875" lon="29.75754">
        <ele>1006.16091</ele>
        <time>2021-11-17T06:33:37.921Z</time>
      </trkpt>
      <trkpt lat="40.03886" lon="29.75727">
        <ele>1005.073997</ele>
        <time>2021-11-17T06:33:41.403Z</time>
      </trkpt>
      <trkpt lat="40.03901" lon="29.75712">
        <ele>1004.203532</ele>
        <time>2021-11-17T06:33:44.414Z</time>
      </trkpt>
      <trkpt lat="40.03931" lon="29.75698">
        <ele>1002.708321</ele>
        <time>2021-11-17T06:33:49.668Z</time>
      </trkpt>
      <trkpt lat="40.03976" lon="29.75699">
        <ele>1001.010331</ele>
        <time>2021-11-17T06:33:57.036Z</time>
      </trkpt>
      <trkpt lat="40.0399" lon="29.75704">
        <ele>1000.481843</ele>
        <time>2021-11-17T06:33:59.409Z</time>
      </trkpt>
      <trkpt lat="40.04056" lon="29.75751">
        <ele>997.740123</ele>
        <time>2021-11-17T06:34:11.418Z</time>
      </trkpt>
      <trkpt lat="40.04068" lon="29.75747">
        <ele>997.269722</ele>
        <time>2021-11-17T06:34:13.439Z</time>
      </trkpt>
      <trkpt lat="40.04074" lon="29.75732">
        <ele>996.803562</ele>
        <time>2021-11-17T06:34:15.423Z</time>
      </trkpt>
      <trkpt lat="40.04073" lon="29.75711">
        <ele>996.21023</ele>
        <time>2021-11-17T06:34:17.950Z</time>
      </trkpt>
      <trkpt lat="40.04048" lon="29.75664">
        <ele>994.605154</ele>
        <time>2021-11-17T06:34:24.706Z</time>
      </trkpt>
      <trkpt lat="40.04045" lon="29.75602">
        <ele>992.824468</ele>
        <time>2021-11-17T06:34:32.162Z</time>
      </trkpt>
      <trkpt lat="40.04046" lon="29.7557">
        <ele>991.92319</ele>
        <time>2021-11-17T06:34:35.940Z</time>
      </trkpt>
      <trkpt lat="40.04063" lon="29.75544">
        <ele>990.958539</ele>
        <time>2021-11-17T06:34:40.038Z</time>
      </trkpt>
      <trkpt lat="40.04085" lon="29.75526">
        <ele>990.000308</ele>
        <time>2021-11-17T06:34:44.205Z</time>
      </trkpt>
      <trkpt lat="40.04155" lon="29.75499">
        <ele>988.660944</ele>
        <time>2021-11-17T06:34:56.704Z</time>
      </trkpt>
      <trkpt lat="40.04188" lon="29.75496">
        <ele>988.298346</ele>
        <time>2021-11-17T06:35:02.889Z</time>
      </trkpt>
      <trkpt lat="40.04229" lon="29.75503">
        <ele>987.836212</ele>
        <time>2021-11-17T06:35:11.496Z</time>
      </trkpt>
      <trkpt lat="40.04244" lon="29.75499">
        <ele>987.669238</ele>
        <time>2021-11-17T06:35:14.820Z</time>
      </trkpt>
      <trkpt lat="40.04279" lon="29.75454">
        <ele>987.186552</ele>
        <time>2021-11-17T06:35:25.884Z</time>
      </trkpt>
      <trkpt lat="40.04314" lon="29.7542">
        <ele>986.947166</ele>
        <time>2021-11-17T06:35:35.937Z</time>
      </trkpt>
      <trkpt lat="40.04327" lon="29.75397">
        <ele>986.828416</ele>
        <time>2021-11-17T06:35:40.794Z</time>
      </trkpt>
      <trkpt lat="40.04328" lon="29.75344">
        <ele>986.60356</ele>
        <time>2021-11-17T06:35:49.518Z</time>
      </trkpt>
      <trkpt lat="40.04298" lon="29.75295">
        <ele>986.340695</ele>
        <time>2021-11-17T06:35:58.887Z</time>
      </trkpt>
      <trkpt lat="40.0423" lon="29.75231">
        <ele>983.905407</ele>
        <time>2021-11-17T06:36:13.637Z</time>
      </trkpt>
      <trkpt lat="40.04198" lon="29.75183">
        <ele>982.271277</ele>
        <time>2021-11-17T06:36:21.468Z</time>
      </trkpt>
      <trkpt lat="40.04166" lon="29.75114">
        <ele>980.18755</ele>
        <time>2021-11-17T06:36:30.791Z</time>
      </trkpt>
      <trkpt lat="40.04111" lon="29.75016">
        <ele>974.492874</ele>
        <time>2021-11-17T06:36:44.602Z</time>
      </trkpt>
      <trkpt lat="40.04098" lon="29.74987">
        <ele>972.94634</ele>
        <time>2021-11-17T06:36:48.263Z</time>
      </trkpt>
      <trkpt lat="40.04087" lon="29.74917">
        <ele>969.612368</ele>
        <time>2021-11-17T06:36:56.206Z</time>
      </trkpt>
      <trkpt lat="40.04082" lon="29.74858">
        <ele>966.385367</ele>
        <time>2021-11-17T06:37:02.749Z</time>
      </trkpt>
      <trkpt lat="40.04082" lon="29.74797">
        <ele>963.016329</ele>
        <time>2021-11-17T06:37:09.385Z</time>
      </trkpt>
      <trkpt lat="40.04085" lon="29.74773">
        <ele>961.709685</ele>
        <time>2021-11-17T06:37:11.998Z</time>
      </trkpt>
      <trkpt lat="40.041" lon="29.74723">
        <ele>958.697571</ele>
        <time>2021-11-17T06:37:17.961Z</time>
      </trkpt>
      <trkpt lat="40.04102" lon="29.74686">
        <ele>956.685983</ele>
        <time>2021-11-17T06:37:21.904Z</time>
      </trkpt>
      <trkpt lat="40.04109" lon="29.74669">
        <ele>955.514738</ele>
        <time>2021-11-17T06:37:24.007Z</time>
      </trkpt>
      <trkpt lat="40.04137" lon="29.74647">
        <ele>952.798322</ele>
        <time>2021-11-17T06:37:28.608Z</time>
      </trkpt>
      <trkpt lat="40.04145" lon="29.74633">
        <ele>951.667255</ele>
        <time>2021-11-17T06:37:30.506Z</time>
      </trkpt>
      <trkpt lat="40.04157" lon="29.74592">
        <ele>948.897725</ele>
        <time>2021-11-17T06:37:35.169Z</time>
      </trkpt>
      <trkpt lat="40.04164" lon="29.74545">
        <ele>945.862132</ele>
        <time>2021-11-17T06:37:40.264Z</time>
      </trkpt>
      <trkpt lat="40.04163" lon="29.74511">
        <ele>943.715056</ele>
        <time>2021-11-17T06:37:43.865Z</time>
      </trkpt>
      <trkpt lat="40.041" lon="29.74349">
        <ele>932.681262</ele>
        <time>2021-11-17T06:38:03.339Z</time>
      </trkpt>
      <trkpt lat="40.041" lon="29.74315">
        <ele>930.628129</ele>
        <time>2021-11-17T06:38:07.047Z</time>
      </trkpt>
      <trkpt lat="40.04109" lon="29.74293">
        <ele>929.166515</ele>
        <time>2021-11-17T06:38:09.696Z</time>
      </trkpt>
      <trkpt lat="40.04149" lon="29.74228">
        <ele>924.29266</ele>
        <time>2021-11-17T06:38:18.839Z</time>
      </trkpt>
      <trkpt lat="40.04163" lon="29.74217">
        <ele>923.10325</ele>
        <time>2021-11-17T06:38:21.116Z</time>
      </trkpt>
      <trkpt lat="40.04184" lon="29.74213">
        <ele>921.532293</ele>
        <time>2021-11-17T06:38:24.133Z</time>
      </trkpt>
      <trkpt lat="40.04245" lon="29.74232">
        <ele>916.853975</ele>
        <time>2021-11-17T06:38:33.083Z</time>
      </trkpt>
      <trkpt lat="40.04259" lon="29.74232">
        <ele>915.782892</ele>
        <time>2021-11-17T06:38:35.124Z</time>
      </trkpt>
      <trkpt lat="40.04273" lon="29.74223">
        <ele>914.624932</ele>
        <time>2021-11-17T06:38:37.309Z</time>
      </trkpt>
      <trkpt lat="40.04283" lon="29.74211">
        <ele>913.603751</ele>
        <time>2021-11-17T06:38:39.181Z</time>
      </trkpt>
      <trkpt lat="40.04298" lon="29.74133">
        <ele>908.311843</ele>
        <time>2021-11-17T06:38:47.790Z</time>
      </trkpt>
      <trkpt lat="40.04339" lon="29.74042">
        <ele>901.358575</ele>
        <time>2021-11-17T06:38:59.006Z</time>
      </trkpt>
      <trkpt lat="40.0437" lon="29.74013">
        <ele>898.055298</ele>
        <time>2021-11-17T06:39:04.238Z</time>
      </trkpt>
      <trkpt lat="40.04396" lon="29.74002">
        <ele>895.43322</ele>
        <time>2021-11-17T06:39:08.015Z</time>
      </trkpt>
      <trkpt lat="40.04445" lon="29.74005">
        <ele>890.688449</ele>
        <time>2021-11-17T06:39:14.820Z</time>
      </trkpt>
      <trkpt lat="40.0446" lon="29.73998">
        <ele>889.183531</ele>
        <time>2021-11-17T06:39:16.977Z</time>
      </trkpt>
      <trkpt lat="40.04475" lon="29.73977">
        <ele>887.110494</ele>
        <time>2021-11-17T06:39:19.944Z</time>
      </trkpt>
      <trkpt lat="40.04496" lon="29.73886">
        <ele>880.25008</ele>
        <time>2021-11-17T06:39:29.906Z</time>
      </trkpt>
      <trkpt lat="40.04539" lon="29.738">
        <ele>873.474649</ele>
        <time>2021-11-17T06:39:40.654Z</time>
      </trkpt>
      <trkpt lat="40.04546" lon="29.73772">
        <ele>871.501076</ele>
        <time>2021-11-17T06:39:43.808Z</time>
      </trkpt>
      <trkpt lat="40.04546" lon="29.73753">
        <ele>870.287076</ele>
        <time>2021-11-17T06:39:45.755Z</time>
      </trkpt>
      <trkpt lat="40.04536" lon="29.73723">
        <ele>868.078199</ele>
        <time>2021-11-17T06:39:49.316Z</time>
      </trkpt>
      <trkpt lat="40.04461" lon="29.73595">
        <ele>859.275159</ele>
        <time>2021-11-17T06:40:06.898Z</time>
      </trkpt>
      <trkpt lat="40.04418" lon="29.73589">
        <ele>856.335943</ele>
        <time>2021-11-17T06:40:13.298Z</time>
      </trkpt>
      <trkpt lat="40.04384" lon="29.73575">
        <ele>853.979554</ele>
        <time>2021-11-17T06:40:18.425Z</time>
      </trkpt>
      <trkpt lat="40.04327" lon="29.73541">
        <ele>849.795256</ele>
        <time>2021-11-17T06:40:27.560Z</time>
      </trkpt>
      <trkpt lat="40.04318" lon="29.73528">
        <ele>848.881666</ele>
        <time>2021-11-17T06:40:29.544Z</time>
      </trkpt>
      <trkpt lat="40.04297" lon="29.73361">
        <ele>840.09268</ele>
        <time>2021-11-17T06:40:48.054Z</time>
      </trkpt>
      <trkpt lat="40.04298" lon="29.73336">
        <ele>838.608904</ele>
        <time>2021-11-17T06:40:50.857Z</time>
      </trkpt>
      <trkpt lat="40.04305" lon="29.7331">
        <ele>837.041604</ele>
        <time>2021-11-17T06:40:53.805Z</time>
      </trkpt>
      <trkpt lat="40.04352" lon="29.73268">
        <ele>832.775663</ele>
        <time>2021-11-17T06:41:01.820Z</time>
      </trkpt>
      <trkpt lat="40.04359" lon="29.73249">
        <ele>831.575231</ele>
        <time>2021-11-17T06:41:04.062Z</time>
      </trkpt>
      <trkpt lat="40.04362" lon="29.73224">
        <ele>830.104343</ele>
        <time>2021-11-17T06:41:06.815Z</time>
      </trkpt>
      <trkpt lat="40.04356" lon="29.73157">
        <ele>825.945761</ele>
        <time>2021-11-17T06:41:14.039Z</time>
      </trkpt>
      <trkpt lat="40.04335" lon="29.73098">
        <ele>821.55173</ele>
        <time>2021-11-17T06:41:21.073Z</time>
      </trkpt>
      <trkpt lat="40.04317" lon="29.73072">
        <ele>819.171829</ele>
        <time>2021-11-17T06:41:24.862Z</time>
      </trkpt>
      <trkpt lat="40.04267" lon="29.73063">
        <ele>814.737958</ele>
        <time>2021-11-17T06:41:31.867Z</time>
      </trkpt>
      <trkpt lat="40.04254" lon="29.73039">
        <ele>812.826506</ele>
        <time>2021-11-17T06:41:34.843Z</time>
      </trkpt>
      <trkpt lat="40.04237" lon="29.73022">
        <ele>810.487137</ele>
        <time>2021-11-17T06:41:37.749Z</time>
      </trkpt>
      <trkpt lat="40.04176" lon="29.72978">
        <ele>802.339447</ele>
        <time>2021-11-17T06:41:47.099Z</time>
      </trkpt>
      <trkpt lat="40.04152" lon="29.72954">
        <ele>798.796301</ele>
        <time>2021-11-17T06:41:51.133Z</time>
      </trkpt>
      <trkpt lat="40.04136" lon="29.72921">
        <ele>795.329221</ele>
        <time>2021-11-17T06:41:55.066Z</time>
      </trkpt>
      <trkpt lat="40.04122" lon="29.72845">
        <ele>788.579294</ele>
        <time>2021-11-17T06:42:02.955Z</time>
      </trkpt>
      <trkpt lat="40.04114" lon="29.72834">
        <ele>787.29623</ele>
        <time>2021-11-17T06:42:04.523Z</time>
      </trkpt>
      <trkpt lat="40.04008" lon="29.72786">
        <ele>775.176566</ele>
        <time>2021-11-17T06:42:19.526Z</time>
      </trkpt>
      <trkpt lat="40.03999" lon="29.72779">
        <ele>774.02077</ele>
        <time>2021-11-17T06:42:21.005Z</time>
      </trkpt>
      <trkpt lat="40.03993" lon="29.72764">
        <ele>772.659712</ele>
        <time>2021-11-17T06:42:22.762Z</time>
      </trkpt>
      <trkpt lat="40.03994" lon="29.72738">
        <ele>771.031869</ele>
        <time>2021-11-17T06:42:25.551Z</time>
      </trkpt>
      <trkpt lat="40.04007" lon="29.72704">
        <ele>769.054684</ele>
        <time>2021-11-17T06:42:29.733Z</time>
      </trkpt>
      <trkpt lat="40.04056" lon="29.72662">
        <ele>765.075386</ele>
        <time>2021-11-17T06:42:38.319Z</time>
      </trkpt>
      <trkpt lat="40.04069" lon="29.72639">
        <ele>763.61008</ele>
        <time>2021-11-17T06:42:41.525Z</time>
      </trkpt>
      <trkpt lat="40.04073" lon="29.72618">
        <ele>762.511395</ele>
        <time>2021-11-17T06:42:43.987Z</time>
      </trkpt>
      <trkpt lat="40.04045" lon="29.72429">
        <ele>752.515544</ele>
        <time>2021-11-17T06:43:05.603Z</time>
      </trkpt>
      <trkpt lat="40.04033" lon="29.72414">
        <ele>751.388081</ele>
        <time>2021-11-17T06:43:07.949Z</time>
      </trkpt>
      <trkpt lat="40.03971" lon="29.72379">
        <ele>746.620338</ele>
        <time>2021-11-17T06:43:17.507Z</time>
      </trkpt>
      <trkpt lat="40.03959" lon="29.72338">
        <ele>743.921986</ele>
        <time>2021-11-17T06:43:22.177Z</time>
      </trkpt>
      <trkpt lat="40.03959" lon="29.72316">
        <ele>742.557258</ele>
        <time>2021-11-17T06:43:24.537Z</time>
      </trkpt>
      <trkpt lat="40.03964" lon="29.72297">
        <ele>741.306645</ele>
        <time>2021-11-17T06:43:26.694Z</time>
      </trkpt>
      <trkpt lat="40.04003" lon="29.72228">
        <ele>735.974872</ele>
        <time>2021-11-17T06:43:35.909Z</time>
      </trkpt>
      <trkpt lat="40.04056" lon="29.72151">
        <ele>729.221989</ele>
        <time>2021-11-17T06:43:47.008Z</time>
      </trkpt>
      <trkpt lat="40.04092" lon="29.72116">
        <ele>725.253563</ele>
        <time>2021-11-17T06:43:53.286Z</time>
      </trkpt>
      <trkpt lat="40.04232" lon="29.72009">
        <ele>709.271608</ele>
        <time>2021-11-17T06:44:15.510Z</time>
      </trkpt>
      <trkpt lat="40.04249" lon="29.71972">
        <ele>705.647492</ele>
        <time>2021-11-17T06:44:19.870Z</time>
      </trkpt>
      <trkpt lat="40.0429" lon="29.71841">
        <ele>692.907215</ele>
        <time>2021-11-17T06:44:34.299Z</time>
      </trkpt>
      <trkpt lat="40.04294" lon="29.71806">
        <ele>689.314665</ele>
        <time>2021-11-17T06:44:37.895Z</time>
      </trkpt>
      <trkpt lat="40.04286" lon="29.71763">
        <ele>684.92777</ele>
        <time>2021-11-17T06:44:42.292Z</time>
      </trkpt>
      <trkpt lat="40.04257" lon="29.71718">
        <ele>678.975407</ele>
        <time>2021-11-17T06:44:48.242Z</time>
      </trkpt>
      <trkpt lat="40.04008" lon="29.71422">
        <ele>632.948736</ele>
        <time>2021-11-17T06:45:32.338Z</time>
      </trkpt>
      <trkpt lat="40.0395" lon="29.71318">
        <ele>619.416065</ele>
        <time>2021-11-17T06:45:45.161Z</time>
      </trkpt>
      <trkpt lat="40.03922" lon="29.71242">
        <ele>610.872043</ele>
        <time>2021-11-17T06:45:53.678Z</time>
      </trkpt>
      <trkpt lat="40.03906" lon="29.7116">
        <ele>602.395424</ele>
        <time>2021-11-17T06:46:02.207Z</time>
      </trkpt>
      <trkpt lat="40.03891" lon="29.71009">
        <ele>589.274753</ele>
        <time>2021-11-17T06:46:17.928Z</time>
      </trkpt>
      <trkpt lat="40.03892" lon="29.70891">
        <ele>579.407665</ele>
        <time>2021-11-17T06:46:30.095Z</time>
      </trkpt>
      <trkpt lat="40.03882" lon="29.70844">
        <ele>574.917473</ele>
        <time>2021-11-17T06:46:35.150Z</time>
      </trkpt>
      <trkpt lat="40.03864" lon="29.70781">
        <ele>568.858613</ele>
        <time>2021-11-17T06:46:41.927Z</time>
      </trkpt>
      <trkpt lat="40.03808" lon="29.70662">
        <ele>556.32259</ele>
        <time>2021-11-17T06:46:56.088Z</time>
      </trkpt>
      <trkpt lat="40.03776" lon="29.70573">
        <ele>547.828628</ele>
        <time>2021-11-17T06:47:06.135Z</time>
      </trkpt>
      <trkpt lat="40.03711" lon="29.70278">
        <ele>522.960235</ele>
        <time>2021-11-17T06:47:37.940Z</time>
      </trkpt>
      <trkpt lat="40.03701" lon="29.70244">
        <ele>520.172646</ele>
        <time>2021-11-17T06:47:41.754Z</time>
      </trkpt>
      <trkpt lat="40.03679" lon="29.70204">
        <ele>517.201041</ele>
        <time>2021-11-17T06:47:46.801Z</time>
      </trkpt>
      <trkpt lat="40.0363" lon="29.70139">
        <ele>511.593566</ele>
        <time>2021-11-17T06:47:56.548Z</time>
      </trkpt>
      <trkpt lat="40.03618" lon="29.7013">
        <ele>510.476267</ele>
        <time>2021-11-17T06:47:58.492Z</time>
      </trkpt>
      <trkpt lat="40.036" lon="29.70106">
        <ele>508.366355</ele>
        <time>2021-11-17T06:48:02.314Z</time>
      </trkpt>
      <trkpt lat="40.03582" lon="29.7006">
        <ele>505.715866</ele>
        <time>2021-11-17T06:48:08.067Z</time>
      </trkpt>
      <trkpt lat="40.03544" lon="29.7">
        <ele>503.598451</ele>
        <time>2021-11-17T06:48:17.278Z</time>
      </trkpt>
      <trkpt lat="40.03524" lon="29.69948">
        <ele>502.004018</ele>
        <time>2021-11-17T06:48:25.016Z</time>
      </trkpt>
      <trkpt lat="40.03522" lon="29.69891">
        <ele>500.454215</ele>
        <time>2021-11-17T06:48:32.778Z</time>
      </trkpt>
      <trkpt lat="40.03543" lon="29.69781">
        <ele>496.319611</ele>
        <time>2021-11-17T06:48:47.104Z</time>
      </trkpt>
      <trkpt lat="40.03598" lon="29.6965">
        <ele>490.358979</ele>
        <time>2021-11-17T06:49:03.898Z</time>
      </trkpt>
      <trkpt lat="40.03601" lon="29.69634">
        <ele>489.165964</ele>
        <time>2021-11-17T06:49:05.579Z</time>
      </trkpt>
      <trkpt lat="40.03597" lon="29.6962">
        <ele>488.056143</ele>
        <time>2021-11-17T06:49:07.139Z</time>
      </trkpt>
      <trkpt lat="40.03568" lon="29.69575">
        <ele>483.545157</ele>
        <time>2021-11-17T06:49:13.387Z</time>
      </trkpt>
      <trkpt lat="40.03522" lon="29.69532">
        <ele>477.965978</ele>
        <time>2021-11-17T06:49:21.011Z</time>
      </trkpt>
      <trkpt lat="40.03482" lon="29.69513">
        <ele>473.789909</ele>
        <time>2021-11-17T06:49:26.672Z</time>
      </trkpt>
      <trkpt lat="40.03382" lon="29.6949">
        <ele>464.385335</ele>
        <time>2021-11-17T06:49:40.358Z</time>
      </trkpt>
      <trkpt lat="40.03351" lon="29.69466">
        <ele>461.133995</ele>
        <time>2021-11-17T06:49:45.207Z</time>
      </trkpt>
      <trkpt lat="40.0315" lon="29.69179">
        <ele>441.818911</ele>
        <time>2021-11-17T06:50:28.523Z</time>
      </trkpt>
      <trkpt lat="40.03135" lon="29.69135">
        <ele>440.19967</ele>
        <time>2021-11-17T06:50:34.389Z</time>
      </trkpt>
      <trkpt lat="40.03132" lon="29.69113">
        <ele>439.43154</ele>
        <time>2021-11-17T06:50:37.231Z</time>
      </trkpt>
      <trkpt lat="40.03135" lon="29.6909">
        <ele>438.643519</ele>
        <time>2021-11-17T06:50:40.136Z</time>
      </trkpt>
      <trkpt lat="40.0315" lon="29.69051">
        <ele>437.160256</ele>
        <time>2021-11-17T06:50:45.739Z</time>
      </trkpt>
      <trkpt lat="40.03171" lon="29.6902">
        <ele>435.807678</ele>
        <time>2021-11-17T06:50:51.033Z</time>
      </trkpt>
      <trkpt lat="40.03294" lon="29.68994">
        <ele>430.570652</ele>
        <time>2021-11-17T06:51:10.704Z</time>
      </trkpt>
      <trkpt lat="40.03328" lon="29.6898">
        <ele>428.945005</ele>
        <time>2021-11-17T06:51:16.046Z</time>
      </trkpt>
      <trkpt lat="40.03354" lon="29.68947">
        <ele>425.872941</ele>
        <time>2021-11-17T06:51:21.218Z</time>
      </trkpt>
      <trkpt lat="40.03369" lon="29.68911">
        <ele>423.23499</ele>
        <time>2021-11-17T06:51:25.590Z</time>
      </trkpt>
      <trkpt lat="40.03382" lon="29.68856">
        <ele>419.455825</ele>
        <time>2021-11-17T06:51:31.752Z</time>
      </trkpt>
      <trkpt lat="40.03388" lon="29.6871">
        <ele>409.47354</ele>
        <time>2021-11-17T06:51:46.903Z</time>
      </trkpt>
      <trkpt lat="40.03397" lon="29.6865">
        <ele>404.928061</ele>
        <time>2021-11-17T06:51:53.302Z</time>
      </trkpt>
      <trkpt lat="40.03394" lon="29.68587">
        <ele>400.278659</ele>
        <time>2021-11-17T06:51:59.889Z</time>
      </trkpt>
      <trkpt lat="40.03385" lon="29.68544">
        <ele>397.007674</ele>
        <time>2021-11-17T06:52:04.551Z</time>
      </trkpt>
      <trkpt lat="40.03366" lon="29.68496">
        <ele>393.672567</ele>
        <time>2021-11-17T06:52:10.356Z</time>
      </trkpt>
      <trkpt lat="40.03343" lon="29.68457">
        <ele>390.78764</ele>
        <time>2021-11-17T06:52:15.567Z</time>
      </trkpt>
      <trkpt lat="40.03305" lon="29.68415">
        <ele>386.885224</ele>
        <time>2021-11-17T06:52:22.694Z</time>
      </trkpt>
      <trkpt lat="40.03262" lon="29.68392">
        <ele>383.31512</ele>
        <time>2021-11-17T06:52:29.272Z</time>
      </trkpt>
      <trkpt lat="40.03139" lon="29.6835">
        <ele>375.597967</ele>
        <time>2021-11-17T06:52:47.797Z</time>
      </trkpt>
      <trkpt lat="40.03104" lon="29.68318">
        <ele>373.023417</ele>
        <time>2021-11-17T06:52:54.197Z</time>
      </trkpt>
      <trkpt lat="40.03061" lon="29.68246">
        <ele>369.830364</ele>
        <time>2021-11-17T06:53:04.690Z</time>
      </trkpt>
      <trkpt lat="40.03044" lon="29.68196">
        <ele>368.113083</ele>
        <time>2021-11-17T06:53:11.214Z</time>
      </trkpt>
      <trkpt lat="40.03046" lon="29.68144">
        <ele>366.500097</ele>
        <time>2021-11-17T06:53:17.486Z</time>
      </trkpt>
      <trkpt lat="40.03064" lon="29.68061">
        <ele>364.186014</ele>
        <time>2021-11-17T06:53:28.213Z</time>
      </trkpt>
      <trkpt lat="40.0318" lon="29.67695">
        <ele>358.54468</ele>
        <time>2021-11-17T06:54:22.722Z</time>
      </trkpt>
      <trkpt lat="40.03206" lon="29.67715">
        <ele>358.052113</ele>
        <time>2021-11-17T06:54:28.606Z</time>
      </trkpt>
      <trkpt lat="40.03228" lon="29.6773">
        <ele>357.644909</ele>
        <time>2021-11-17T06:54:33.603Z</time>
      </trkpt>
      <trkpt lat="40.03244" lon="29.67711">
        <ele>357.305139</ele>
        <time>2021-11-17T06:54:37.803Z</time>
      </trkpt>
      <trkpt lat="40.03307" lon="29.67522">
        <ele>354.75611</ele>
        <time>2021-11-17T06:55:07.849Z</time>
      </trkpt>
      <trkpt lat="40.03366" lon="29.67319">
        <ele>351.474377</ele>
        <time>2021-11-17T06:55:38.401Z</time>
      </trkpt>
      <trkpt lat="40.03374" lon="29.67301">
        <ele>351.207487</ele>
        <time>2021-11-17T06:55:41.216Z</time>
      </trkpt>
      <trkpt lat="40.03418" lon="29.67165">
        <ele>349.261321</ele>
        <time>2021-11-17T06:56:02.569Z</time>
      </trkpt>
      <trkpt lat="40.03449" lon="29.67116">
        <ele>348.433946</ele>
        <time>2021-11-17T06:56:11.948Z</time>
      </trkpt>
      <trkpt lat="40.03459" lon="29.67092">
        <ele>348.136424</ele>
        <time>2021-11-17T06:56:16.072Z</time>
      </trkpt>
      <trkpt lat="40.03501" lon="29.66954">
        <ele>346.520076</ele>
        <time>2021-11-17T06:56:38.392Z</time>
      </trkpt>
      <trkpt lat="40.03545" lon="29.66736">
        <ele>343.795287</ele>
        <time>2021-11-17T06:57:11.191Z</time>
      </trkpt>
      <trkpt lat="40.03557" lon="29.66729">
        <ele>343.585398</ele>
        <time>2021-11-17T06:57:13.518Z</time>
      </trkpt>
      <trkpt lat="40.03568" lon="29.66716">
        <ele>343.334717</ele>
        <time>2021-11-17T06:57:16.478Z</time>
      </trkpt>
      <trkpt lat="40.03579" lon="29.66684">
        <ele>342.873052</ele>
        <time>2021-11-17T06:57:21.573Z</time>
      </trkpt>
      <trkpt lat="40.03588" lon="29.66611">
        <ele>341.717943</ele>
        <time>2021-11-17T06:57:32.150Z</time>
      </trkpt>
      <trkpt lat="40.03623" lon="29.6647">
        <ele>339.413031</ele>
        <time>2021-11-17T06:57:52.637Z</time>
      </trkpt>
      <trkpt lat="40.03644" lon="29.66395">
        <ele>338.063422</ele>
        <time>2021-11-17T06:58:03.874Z</time>
      </trkpt>
      <trkpt lat="40.03657" lon="29.66351">
        <ele>337.263994</ele>
        <time>2021-11-17T06:58:10.505Z</time>
      </trkpt>
      <trkpt lat="40.03701" lon="29.66197">
        <ele>334.640742</ele>
        <time>2021-11-17T06:58:33.249Z</time>
      </trkpt>
      <trkpt lat="40.03714" lon="29.66099">
        <ele>333.295042</ele>
        <time>2021-11-17T06:58:47.409Z</time>
      </trkpt>
      <trkpt lat="40.03738" lon="29.66037">
        <ele>332.334205</ele>
        <time>2021-11-17T06:58:57.203Z</time>
      </trkpt>
      <trkpt lat="40.03744" lon="29.66024">
        <ele>332.134633</ele>
        <time>2021-11-17T06:58:59.298Z</time>
      </trkpt>
      <trkpt lat="40.03767" lon="29.65968">
        <ele>331.560937</ele>
        <time>2021-11-17T06:59:08.328Z</time>
      </trkpt>
      <trkpt lat="40.03834" lon="29.65804">
        <ele>329.93294</ele>
        <time>2021-11-17T06:59:35.710Z</time>
      </trkpt>
      <trkpt lat="40.03911" lon="29.65618">
        <ele>328.390107</ele>
        <time>2021-11-17T07:00:07.104Z</time>
      </trkpt>
      <trkpt lat="40.04124" lon="29.65082">
        <ele>323.862569</ele>
        <time>2021-11-17T07:01:36.689Z</time>
      </trkpt>
      <trkpt lat="40.04249" lon="29.64749">
        <ele>320.940913</ele>
        <time>2021-11-17T07:02:31.039Z</time>
      </trkpt>
      <trkpt lat="40.04399" lon="29.6426">
        <ele>317.377943</ele>
        <time>2021-11-17T07:03:49.667Z</time>
      </trkpt>
      <trkpt lat="40.04403" lon="29.64247">
        <ele>317.310608</ele>
        <time>2021-11-17T07:03:51.797Z</time>
      </trkpt>
      <trkpt lat="40.0445" lon="29.64095">
        <ele>316.498123</ele>
        <time>2021-11-17T07:04:17.698Z</time>
      </trkpt>
      <trkpt lat="40.04749" lon="29.63098">
        <ele>310.788045</ele>
        <time>2021-11-17T07:07:01.414Z</time>
      </trkpt>
      <trkpt lat="40.04922" lon="29.62551">
        <ele>308.28651</ele>
        <time>2021-11-17T07:08:34.277Z</time>
      </trkpt>
      <trkpt lat="40.04975" lon="29.62385">
        <ele>307.243484</ele>
        <time>2021-11-17T07:09:01.348Z</time>
      </trkpt>
      <trkpt lat="40.05294" lon="29.61296">
        <ele>301.252937</ele>
        <time>2021-11-17T07:12:00.628Z</time>
      </trkpt>
      <trkpt lat="40.05476" lon="29.60756">
        <ele>299.024566</ele>
        <time>2021-11-17T07:13:33.350Z</time>
      </trkpt>
      <trkpt lat="40.05476" lon="29.60737">
        <ele>298.957961</ele>
        <time>2021-11-17T07:13:36.309Z</time>
      </trkpt>
      <trkpt lat="40.05468" lon="29.60717">
        <ele>298.87835</ele>
        <time>2021-11-17T07:13:39.884Z</time>
      </trkpt>
      <trkpt lat="40.05447" lon="29.60685">
        <ele>298.733377</ele>
        <time>2021-11-17T07:13:46.470Z</time>
      </trkpt>
      <trkpt lat="40.05391" lon="29.60599">
        <ele>298.558917</ele>
        <time>2021-11-17T07:14:04.943Z</time>
      </trkpt>
      <trkpt lat="40.05336" lon="29.60474">
        <ele>298.579439</ele>
        <time>2021-11-17T07:14:29.628Z</time>
      </trkpt>
      <trkpt lat="40.05332" lon="29.6043">
        <ele>298.594018</ele>
        <time>2021-11-17T07:14:37.648Z</time>
      </trkpt>
      <trkpt lat="40.05336" lon="29.604">
        <ele>298.6161</ele>
        <time>2021-11-17T07:14:43.117Z</time>
      </trkpt>
      <trkpt lat="40.05425" lon="29.60088">
        <ele>298.740962</ele>
        <time>2021-11-17T07:15:40.511Z</time>
      </trkpt>
      <trkpt lat="40.05457" lon="29.60003">
        <ele>298.730755</ele>
        <time>2021-11-17T07:15:56.341Z</time>
      </trkpt>
      <trkpt lat="40.05494" lon="29.59867">
        <ele>298.770125</ele>
        <time>2021-11-17T07:16:20.783Z</time>
      </trkpt>
      <trkpt lat="40.05606" lon="29.59511">
        <ele>299.091007</ele>
        <time>2021-11-17T07:17:27.782Z</time>
      </trkpt>
      <trkpt lat="40.05659" lon="29.59343">
        <ele>299.242186</ele>
        <time>2021-11-17T07:17:59.616Z</time>
      </trkpt>
      <trkpt lat="40.05782" lon="29.58949">
        <ele>298.93827</ele>
        <time>2021-11-17T07:19:10.944Z</time>
      </trkpt>
      <trkpt lat="40.05861" lon="29.58689">
        <ele>298.52973</ele>
        <time>2021-11-17T07:19:56.248Z</time>
      </trkpt>
      <trkpt lat="40.05888" lon="29.58599">
        <ele>298.601224</ele>
        <time>2021-11-17T07:20:13.339Z</time>
      </trkpt>
      <trkpt lat="40.05941" lon="29.58421">
        <ele>298.52674</ele>
        <time>2021-11-17T07:20:46.745Z</time>
      </trkpt>
      <trkpt lat="40.05947" lon="29.58402">
        <ele>298.467184</ele>
        <time>2021-11-17T07:20:50.067Z</time>
      </trkpt>
      <trkpt lat="40.05987" lon="29.58269">
        <ele>298.062627</ele>
        <time>2021-11-17T07:21:12.377Z</time>
      </trkpt>
      <trkpt lat="40.06002" lon="29.58219">
        <ele>297.872051</ele>
        <time>2021-11-17T07:21:20.569Z</time>
      </trkpt>
      <trkpt lat="40.06045" lon="29.58117">
        <ele>297.441093</ele>
        <time>2021-11-17T07:21:38.938Z</time>
      </trkpt>
      <trkpt lat="40.06066" lon="29.58064">
        <ele>297.221912</ele>
        <time>2021-11-17T07:21:48.422Z</time>
      </trkpt>
      <trkpt lat="40.06089" lon="29.57996">
        <ele>296.923482</ele>
        <time>2021-11-17T07:22:00.446Z</time>
      </trkpt>
      <trkpt lat="40.06132" lon="29.57861">
        <ele>296.331842</ele>
        <time>2021-11-17T07:22:23.204Z</time>
      </trkpt>
      <trkpt lat="40.06151" lon="29.57801">
        <ele>296.108733</ele>
        <time>2021-11-17T07:22:33.199Z</time>
      </trkpt>
      <trkpt lat="40.06192" lon="29.5767">
        <ele>295.70565</ele>
        <time>2021-11-17T07:22:55.270Z</time>
      </trkpt>
      <trkpt lat="40.06263" lon="29.57439">
        <ele>295.616466</ele>
        <time>2021-11-17T07:23:39.029Z</time>
      </trkpt>
      <trkpt lat="40.06286" lon="29.57365">
        <ele>295.448936</ele>
        <time>2021-11-17T07:23:52.394Z</time>
      </trkpt>
      <trkpt lat="40.06352" lon="29.57149">
        <ele>294.098849</ele>
        <time>2021-11-17T07:24:27.115Z</time>
      </trkpt>
      <trkpt lat="40.06439" lon="29.56845">
        <ele>291.469986</ele>
        <time>2021-11-17T07:25:14.366Z</time>
      </trkpt>
      <trkpt lat="40.06453" lon="29.56797">
        <ele>291.086446</ele>
        <time>2021-11-17T07:25:21.971Z</time>
      </trkpt>
      <trkpt lat="40.0646" lon="29.56773">
        <ele>290.892309</ele>
        <time>2021-11-17T07:25:25.871Z</time>
      </trkpt>
      <trkpt lat="40.06479" lon="29.56714">
        <ele>290.491193</ele>
        <time>2021-11-17T07:25:35.552Z</time>
      </trkpt>
      <trkpt lat="40.06586" lon="29.5638">
        <ele>289.094564</ele>
        <time>2021-11-17T07:26:32.318Z</time>
      </trkpt>
      <trkpt lat="40.07024" lon="29.54953">
        <ele>287.995426</ele>
        <time>2021-11-17T07:30:50.487Z</time>
      </trkpt>
      <trkpt lat="40.07149" lon="29.54546">
        <ele>287.751624</ele>
        <time>2021-11-17T07:32:03.797Z</time>
      </trkpt>
      <trkpt lat="40.0721" lon="29.54344">
        <ele>287.827314</ele>
        <time>2021-11-17T07:32:41.614Z</time>
      </trkpt>
      <trkpt lat="40.07471" lon="29.53476">
        <ele>286.758918</ele>
        <time>2021-11-17T07:35:15.142Z</time>
      </trkpt>
      <trkpt lat="40.07476" lon="29.5346">
        <ele>286.793788</ele>
        <time>2021-11-17T07:35:18.277Z</time>
      </trkpt>
      <trkpt lat="40.07551" lon="29.532">
        <ele>288.18331</ele>
        <time>2021-11-17T07:36:13.037Z</time>
      </trkpt>
      <trkpt lat="40.076" lon="29.53045">
        <ele>288.674358</ele>
        <time>2021-11-17T07:36:42.932Z</time>
      </trkpt>
      <trkpt lat="40.07617" lon="29.53005">
        <ele>288.648134</ele>
        <time>2021-11-17T07:36:50.824Z</time>
      </trkpt>
      <trkpt lat="40.07638" lon="29.52941">
        <ele>288.459759</ele>
        <time>2021-11-17T07:37:02.310Z</time>
      </trkpt>
      <trkpt lat="40.07648" lon="29.52909">
        <ele>288.365707</ele>
        <time>2021-11-17T07:37:07.983Z</time>
      </trkpt>
      <trkpt lat="40.07677" lon="29.52842">
        <ele>288.156765</ele>
        <time>2021-11-17T07:37:19.786Z</time>
      </trkpt>
      <trkpt lat="40.07707" lon="29.5278">
        <ele>287.913769</ele>
        <time>2021-11-17T07:37:30.705Z</time>
      </trkpt>
      <trkpt lat="40.07734" lon="29.52727">
        <ele>287.681069</ele>
        <time>2021-11-17T07:37:40.817Z</time>
      </trkpt>
      <trkpt lat="40.0774" lon="29.52715">
        <ele>287.630249</ele>
        <time>2021-11-17T07:37:42.841Z</time>
      </trkpt>
      <trkpt lat="40.0777" lon="29.52665">
        <ele>287.401837</ele>
        <time>2021-11-17T07:37:53.396Z</time>
      </trkpt>
      <trkpt lat="40.07784" lon="29.52632">
        <ele>287.264374</ele>
        <time>2021-11-17T07:37:59.484Z</time>
      </trkpt>
      <trkpt lat="40.07791" lon="29.52627">
        <ele>287.233689</ele>
        <time>2021-11-17T07:38:01.462Z</time>
      </trkpt>
      <trkpt lat="40.07797" lon="29.52619">
        <ele>287.228375</ele>
        <time>2021-11-17T07:38:03.201Z</time>
      </trkpt>
      <trkpt lat="40.078" lon="29.5261">
        <ele>287.223152</ele>
        <time>2021-11-17T07:38:04.782Z</time>
      </trkpt>
      <trkpt lat="40.07823" lon="29.52576">
        <ele>287.199504</ele>
        <time>2021-11-17T07:38:12.193Z</time>
      </trkpt>
      <trkpt lat="40.07869" lon="29.52504">
        <ele>287.151324</ele>
        <time>2021-11-17T07:38:27.852Z</time>
      </trkpt>
      <trkpt lat="40.07934" lon="29.52429">
        <ele>287.006131</ele>
        <time>2021-11-17T07:38:47.733Z</time>
      </trkpt>
      <trkpt lat="40.07987" lon="29.52377">
        <ele>286.772663</ele>
        <time>2021-11-17T07:39:01.617Z</time>
      </trkpt>
      <trkpt lat="40.0804" lon="29.52331">
        <ele>286.553693</ele>
        <time>2021-11-17T07:39:14.286Z</time>
      </trkpt>
      <trkpt lat="40.08065" lon="29.5231">
        <ele>286.457128</ele>
        <time>2021-11-17T07:39:20.360Z</time>
      </trkpt>
      <trkpt lat="40.0816" lon="29.52243">
        <ele>286.13973</ele>
        <time>2021-11-17T07:39:43.434Z</time>
      </trkpt>
      <trkpt lat="40.08194" lon="29.52213">
        <ele>286.019795</ele>
        <time>2021-11-17T07:39:52.274Z</time>
      </trkpt>
      <trkpt lat="40.08243" lon="29.52179">
        <ele>285.847054</ele>
        <time>2021-11-17T07:40:04.955Z</time>
      </trkpt>
      <trkpt lat="40.0832" lon="29.5212">
        <ele>285.563995</ele>
        <time>2021-11-17T07:40:24.531Z</time>
      </trkpt>
      <trkpt lat="40.08351" lon="29.52095">
        <ele>285.449162</ele>
        <time>2021-11-17T07:40:32.377Z</time>
      </trkpt>
      <trkpt lat="40.08365" lon="29.52077">
        <ele>285.386884</ele>
        <time>2021-11-17T07:40:36.577Z</time>
      </trkpt>
      <trkpt lat="40.0842" lon="29.52022">
        <ele>285.088989</ele>
        <time>2021-11-17T07:40:51.458Z</time>
      </trkpt>
      <trkpt lat="40.08452" lon="29.51985">
        <ele>284.902456</ele>
        <time>2021-11-17T07:41:00.776Z</time>
      </trkpt>
      <trkpt lat="40.08497" lon="29.51941">
        <ele>284.66225</ele>
        <time>2021-11-17T07:41:12.795Z</time>
      </trkpt>
      <trkpt lat="40.08564" lon="29.51827">
        <ele>284.210567</ele>
        <time>2021-11-17T07:41:37.213Z</time>
      </trkpt>
      <trkpt lat="40.08597" lon="29.51753">
        <ele>283.945699</ele>
        <time>2021-11-17T07:41:51.299Z</time>
      </trkpt>
      <trkpt lat="40.08626" lon="29.51677">
        <ele>283.556811</ele>
        <time>2021-11-17T07:42:05.213Z</time>
      </trkpt>
      <trkpt lat="40.08645" lon="29.51678">
        <ele>283.433362</ele>
        <time>2021-11-17T07:42:09.005Z</time>
      </trkpt>
      <trkpt lat="40.08697" lon="29.51686">
        <ele>283.096026</ele>
        <time>2021-11-17T07:42:19.352Z</time>
      </trkpt>
      <trkpt lat="40.08755" lon="29.51715">
        <ele>282.693134</ele>
        <time>2021-11-17T07:42:31.918Z</time>
      </trkpt>
      <trkpt lat="40.08792" lon="29.51731">
        <ele>282.487749</ele>
        <time>2021-11-17T07:42:39.531Z</time>
      </trkpt>
      <trkpt lat="40.08876" lon="29.5177">
        <ele>282.011808</ele>
        <time>2021-11-17T07:42:57.778Z</time>
      </trkpt>
      <trkpt lat="40.08905" lon="29.51784">
        <ele>281.849429</ele>
        <time>2021-11-17T07:43:04.271Z</time>
      </trkpt>
      <trkpt lat="40.08918" lon="29.51793">
        <ele>281.771002</ele>
        <time>2021-11-17T07:43:07.354Z</time>
      </trkpt>
      <trkpt lat="40.08938" lon="29.51804">
        <ele>281.683912</ele>
        <time>2021-11-17T07:43:12.016Z</time>
      </trkpt>
      <trkpt lat="40.08948" lon="29.51807">
        <ele>281.642652</ele>
        <time>2021-11-17T07:43:14.264Z</time>
      </trkpt>
      <trkpt lat="40.08951" lon="29.51812">
        <ele>281.625503</ele>
        <time>2021-11-17T07:43:15.252Z</time>
      </trkpt>
      <trkpt lat="40.08955" lon="29.51814">
        <ele>281.608216</ele>
        <time>2021-11-17T07:43:16.168Z</time>
      </trkpt>
      <trkpt lat="40.0896" lon="29.51815">
        <ele>281.590825</ele>
        <time>2021-11-17T07:43:17.066Z</time>
      </trkpt>
      <trkpt lat="40.08976" lon="29.5182">
        <ele>281.528958</ele>
        <time>2021-11-17T07:43:20.422Z</time>
      </trkpt>
      <trkpt lat="40.08989" lon="29.51825">
        <ele>281.474552</ele>
        <time>2021-11-17T07:43:23.390Z</time>
      </trkpt>
      <trkpt lat="40.09012" lon="29.51829">
        <ele>281.387165</ele>
        <time>2021-11-17T07:43:28.046Z</time>
      </trkpt>
      <trkpt lat="40.09022" lon="29.51832">
        <ele>281.35073</ele>
        <time>2021-11-17T07:43:30.093Z</time>
      </trkpt>
      <trkpt lat="40.09092" lon="29.51853">
        <ele>281.07549</ele>
        <time>2021-11-17T07:43:45.377Z</time>
      </trkpt>
      <trkpt lat="40.09109" lon="29.51859">
        <ele>281.015553</ele>
        <time>2021-11-17T07:43:49.113Z</time>
      </trkpt>
      <trkpt lat="40.09132" lon="29.51867">
        <ele>280.938692</ele>
        <time>2021-11-17T07:43:54.222Z</time>
      </trkpt>
      <trkpt lat="40.09139" lon="29.51871">
        <ele>280.913597</ele>
        <time>2021-11-17T07:43:55.720Z</time>
      </trkpt>
      <trkpt lat="40.09193" lon="29.51894">
        <ele>280.724042</ele>
        <time>2021-11-17T07:44:07.629Z</time>
      </trkpt>
      <trkpt lat="40.09215" lon="29.51903">
        <ele>280.647104</ele>
        <time>2021-11-17T07:44:12.386Z</time>
      </trkpt>
      <trkpt lat="40.0922" lon="29.51905">
        <ele>280.631042</ele>
        <time>2021-11-17T07:44:13.405Z</time>
      </trkpt>
      <trkpt lat="40.09239" lon="29.51913">
        <ele>280.565498</ele>
        <time>2021-11-17T07:44:17.512Z</time>
      </trkpt>
      <trkpt lat="40.09291" lon="29.51931">
        <ele>280.398626</ele>
        <time>2021-11-17T07:44:29.189Z</time>
      </trkpt>
      <trkpt lat="40.09345" lon="29.5195">
        <ele>280.235691</ele>
        <time>2021-11-17T07:44:41.398Z</time>
      </trkpt>
      <trkpt lat="40.09421" lon="29.51975">
        <ele>280.008501</ele>
        <time>2021-11-17T07:44:57.620Z</time>
      </trkpt>
      <trkpt lat="40.09453" lon="29.51985">
        <ele>279.9121</ele>
        <time>2021-11-17T07:45:04.689Z</time>
      </trkpt>
      <trkpt lat="40.09489" lon="29.51997">
        <ele>279.808796</ele>
        <time>2021-11-17T07:45:12.510Z</time>
      </trkpt>
      <trkpt lat="40.09504" lon="29.52001">
        <ele>279.767083</ele>
        <time>2021-11-17T07:45:15.679Z</time>
      </trkpt>
      <trkpt lat="40.09518" lon="29.52005">
        <ele>279.726782</ele>
        <time>2021-11-17T07:45:18.730Z</time>
      </trkpt>
      <trkpt lat="40.09554" lon="29.52021">
        <ele>279.620628</ele>
        <time>2021-11-17T07:45:26.839Z</time>
      </trkpt>
      <trkpt lat="40.0959" lon="29.5191">
        <ele>279.322332</ele>
        <time>2021-11-17T07:45:47.429Z</time>
      </trkpt>
      <trkpt lat="40.09622" lon="29.51791">
        <ele>278.928159</ele>
        <time>2021-11-17T07:46:08.535Z</time>
      </trkpt>
      <trkpt lat="40.09632" lon="29.51752">
        <ele>278.799387</ele>
        <time>2021-11-17T07:46:15.430Z</time>
      </trkpt>
      <trkpt lat="40.09635" lon="29.51752">
        <ele>278.785909</ele>
        <time>2021-11-17T07:46:16.035Z</time>
      </trkpt>
      <trkpt lat="40.09645" lon="29.5175">
        <ele>278.747078</ele>
        <time>2021-11-17T07:46:18.067Z</time>
      </trkpt>
      <trkpt lat="40.09675" lon="29.51681">
        <ele>278.488544</ele>
        <time>2021-11-17T07:46:30.891Z</time>
      </trkpt>
      <trkpt lat="40.09689" lon="29.51663">
        <ele>278.405212</ele>
        <time>2021-11-17T07:46:34.905Z</time>
      </trkpt>
      <trkpt lat="40.09706" lon="29.51656">
        <ele>278.329463</ele>
        <time>2021-11-17T07:46:38.607Z</time>
      </trkpt>
      <trkpt lat="40.0984" lon="29.51651">
        <ele>278.091031</ele>
        <time>2021-11-17T07:47:08.459Z</time>
      </trkpt>
      <trkpt lat="40.09839" lon="29.51668">
        <ele>278.133322</ele>
        <time>2021-11-17T07:47:11.632Z</time>
      </trkpt>
      <trkpt lat="40.09884" lon="29.51676">
        <ele>278.280345</ele>
        <time>2021-11-17T07:47:22.975Z</time>
      </trkpt>
      <trkpt lat="40.09892" lon="29.51677">
        <ele>278.307825</ele>
        <time>2021-11-17T07:47:25.257Z</time>
      </trkpt>
      <trkpt lat="40.09915" lon="29.51678">
        <ele>278.381261</ele>
        <time>2021-11-17T07:47:30.842Z</time>
      </trkpt>
      <trkpt lat="40.09937" lon="29.51686">
        <ele>278.455719</ele>
        <time>2021-11-17T07:47:36.714Z</time>
      </trkpt>
      <trkpt lat="40.09941" lon="29.51687">
        <ele>278.470869</ele>
        <time>2021-11-17T07:47:37.874Z</time>
      </trkpt>
      <trkpt lat="40.09963" lon="29.51695">
        <ele>278.565179</ele>
        <time>2021-11-17T07:47:43.677Z</time>
      </trkpt>
      <trkpt lat="40.09991" lon="29.51701">
        <ele>278.805096</ele>
        <time>2021-11-17T07:47:50.666Z</time>
      </trkpt>
      <trkpt lat="40.10023" lon="29.51711">
        <ele>279.096192</ele>
        <time>2021-11-17T07:47:59.481Z</time>
      </trkpt>
      <trkpt lat="40.10036" lon="29.51714">
        <ele>279.20326</ele>
        <time>2021-11-17T07:48:02.963Z</time>
      </trkpt>
      <trkpt lat="40.10048" lon="29.51718">
        <ele>279.311254</ele>
        <time>2021-11-17T07:48:06.275Z</time>
      </trkpt>
      <trkpt lat="40.1008" lon="29.51727">
        <ele>279.600409</ele>
        <time>2021-11-17T07:48:15.285Z</time>
      </trkpt>
      <trkpt lat="40.10107" lon="29.51735">
        <ele>279.834805</ele>
        <time>2021-11-17T07:48:22.636Z</time>
      </trkpt>
      <trkpt lat="40.1013" lon="29.51741">
        <ele>280.037404</ele>
        <time>2021-11-17T07:48:28.889Z</time>
      </trkpt>
      <trkpt lat="40.10134" lon="29.51742">
        <ele>280.076237</ele>
        <time>2021-11-17T07:48:30.075Z</time>
      </trkpt>
      <trkpt lat="40.10164" lon="29.51751">
        <ele>280.783795</ele>
        <time>2021-11-17T07:48:38.434Z</time>
      </trkpt>
      <trkpt lat="40.10175" lon="29.51754">
        <ele>281.027343</ele>
        <time>2021-11-17T07:48:41.192Z</time>
      </trkpt>
      <trkpt lat="40.10187" lon="29.51757">
        <ele>281.319721</ele>
        <time>2021-11-17T07:48:45.016Z</time>
      </trkpt>
      <trkpt lat="40.1021" lon="29.51763">
        <ele>281.884646</ele>
        <time>2021-11-17T07:48:52.066Z</time>
      </trkpt>
      <trkpt lat="40.10257" lon="29.51779">
        <ele>283.006281</ele>
        <time>2021-11-17T07:49:08.014Z</time>
      </trkpt>
      <trkpt lat="40.10258" lon="29.51771">
        <ele>283.161802</ele>
        <time>2021-11-17T07:49:10.288Z</time>
      </trkpt>
      <trkpt lat="40.10271" lon="29.51722">
        <ele>284.092215</ele>
        <time>2021-11-17T07:49:24.917Z</time>
      </trkpt>
      <trkpt lat="40.10276" lon="29.51704">
        <ele>284.497245</ele>
        <time>2021-11-17T07:49:30.129Z</time>
      </trkpt>
      <trkpt lat="40.10363" lon="29.51705">
        <ele>287.649988</ele>
        <time>2021-11-17T07:50:03.894Z</time>
      </trkpt>
      <trkpt lat="40.10399" lon="29.51708">
        <ele>288.973903</ele>
        <time>2021-11-17T07:50:17.564Z</time>
      </trkpt>
      <trkpt lat="40.10441" lon="29.51702">
        <ele>290.520116</ele>
        <time>2021-11-17T07:50:33.814Z</time>
      </trkpt>
      <trkpt lat="40.1058" lon="29.51669">
        <ele>295.401868</ele>
        <time>2021-11-17T07:51:23.679Z</time>
      </trkpt>
      <trkpt lat="40.10606" lon="29.5166">
        <ele>296.319582</ele>
        <time>2021-11-17T07:51:33.641Z</time>
      </trkpt>
      <trkpt lat="40.10627" lon="29.51641">
        <ele>297.266176</ele>
        <time>2021-11-17T07:51:44.513Z</time>
      </trkpt>
      <trkpt lat="40.10665" lon="29.51613">
        <ele>299.073587</ele>
        <time>2021-11-17T07:52:01.412Z</time>
      </trkpt>
      <trkpt lat="40.10668" lon="29.51618">
        <ele>299.269211</ele>
        <time>2021-11-17T07:52:02.937Z</time>
      </trkpt>
      <trkpt lat="40.10701" lon="29.51643">
        <ele>300.892449</ele>
        <time>2021-11-17T07:52:17.696Z</time>
      </trkpt>
      <trkpt lat="40.10708" lon="29.51652">
        <ele>301.323527</ele>
        <time>2021-11-17T07:52:21.424Z</time>
      </trkpt>
      <trkpt lat="40.10716" lon="29.5167">
        <ele>301.98659</ele>
        <time>2021-11-17T07:52:28.313Z</time>
      </trkpt>
      <trkpt lat="40.10727" lon="29.51689">
        <ele>302.76531</ele>
        <time>2021-11-17T07:52:34.601Z</time>
      </trkpt>
      <trkpt lat="40.1073" lon="29.51698">
        <ele>303.069928</ele>
        <time>2021-11-17T07:52:38.142Z</time>
      </trkpt>
      <trkpt lat="40.10729" lon="29.51703">
        <ele>303.242534</ele>
        <time>2021-11-17T07:52:39.827Z</time>
      </trkpt>
      <trkpt lat="40.10729" lon="29.51708">
        <ele>303.417418</ele>
        <time>2021-11-17T07:52:41.266Z</time>
      </trkpt>
      <trkpt lat="40.10731" lon="29.51713">
        <ele>303.588148</ele>
        <time>2021-11-17T07:52:42.838Z</time>
      </trkpt>
      <trkpt lat="40.10734" lon="29.51717">
        <ele>303.760433</ele>
        <time>2021-11-17T07:52:44.176Z</time>
      </trkpt>
      <trkpt lat="40.10737" lon="29.5172">
        <ele>303.933973</ele>
        <time>2021-11-17T07:52:45.650Z</time>
      </trkpt>
      <trkpt lat="40.10741" lon="29.51721">
        <ele>304.10685</ele>
        <time>2021-11-17T07:52:47.191Z</time>
      </trkpt>
      <trkpt lat="40.10745" lon="29.5172">
        <ele>304.281338</ele>
        <time>2021-11-17T07:52:48.584Z</time>
      </trkpt>
      <trkpt lat="40.10749" lon="29.51718">
        <ele>304.454612</ele>
        <time>2021-11-17T07:52:50.630Z</time>
      </trkpt>
      <trkpt lat="40.10752" lon="29.51714">
        <ele>304.625985</ele>
        <time>2021-11-17T07:52:52.698Z</time>
      </trkpt>
      <trkpt lat="40.10754" lon="29.51709">
        <ele>304.805973</ele>
        <time>2021-11-17T07:52:54.365Z</time>
      </trkpt>
      <trkpt lat="40.1076" lon="29.51697">
        <ele>305.288236</ele>
        <time>2021-11-17T07:52:58.454Z</time>
      </trkpt>
      <trkpt lat="40.10769" lon="29.51689">
        <ele>305.758062</ele>
        <time>2021-11-17T07:53:02.654Z</time>
      </trkpt>
      <trkpt lat="40.10776" lon="29.51682">
        <ele>306.136303</ele>
        <time>2021-11-17T07:53:07.102Z</time>
      </trkpt>
      <trkpt lat="40.10822" lon="29.51645">
        <ele>308.465261</ele>
        <time>2021-11-17T07:53:29.933Z</time>
      </trkpt>
      <trkpt lat="40.10871" lon="29.51609">
        <ele>310.894516</ele>
        <time>2021-11-17T07:53:51.136Z</time>
      </trkpt>
      <trkpt lat="40.10873" lon="29.5162">
        <ele>311.266053</ele>
        <time>2021-11-17T07:53:54.087Z</time>
      </trkpt>
      <trkpt lat="40.10876" lon="29.5163">
        <ele>311.610916</ele>
        <time>2021-11-17T07:53:56.793Z</time>
      </trkpt>
      <trkpt lat="40.10933" lon="29.51585">
        <ele>315.05213</ele>
        <time>2021-11-17T07:54:24.337Z</time>
      </trkpt>
      <trkpt lat="40.10969" lon="29.51557">
        <ele>317.349833</ele>
        <time>2021-11-17T07:54:43.293Z</time>
      </trkpt>
      <trkpt lat="40.11" lon="29.51529">
        <ele>319.450762</ele>
        <time>2021-11-17T07:55:01.335Z</time>
      </trkpt>
      <trkpt lat="40.1101" lon="29.51522">
        <ele>320.053402</ele>
        <time>2021-11-17T07:55:06.865Z</time>
      </trkpt>
      <trkpt lat="40.11031" lon="29.51519">
        <ele>321.212366</ele>
        <time>2021-11-17T07:55:17.030Z</time>
      </trkpt>
      <trkpt lat="40.1107" lon="29.51515">
        <ele>323.312407</ele>
        <time>2021-11-17T07:55:36.351Z</time>
      </trkpt>
      <trkpt lat="40.11084" lon="29.51515">
        <ele>323.978183</ele>
        <time>2021-11-17T07:55:42.816Z</time>
      </trkpt>
      <trkpt lat="40.11115" lon="29.51514">
        <ele>325.570118</ele>
        <time>2021-11-17T07:55:58.180Z</time>
      </trkpt>
      <trkpt lat="40.11191" lon="29.5151">
        <ele>329.425699</ele>
        <time>2021-11-17T07:56:32.492Z</time>
      </trkpt>
      <trkpt lat="40.11207" lon="29.51507">
        <ele>330.253439</ele>
        <time>2021-11-17T07:56:38.668Z</time>
      </trkpt>
      <trkpt lat="40.11217" lon="29.51506">
        <ele>330.759105</ele>
        <time>2021-11-17T07:56:42.075Z</time>
      </trkpt>
      <trkpt lat="40.11241" lon="29.51503">
        <ele>331.585918</ele>
        <time>2021-11-17T07:56:51.024Z</time>
      </trkpt>
      <trkpt lat="40.11254" lon="29.51501">
        <ele>331.737962</ele>
        <time>2021-11-17T07:56:54.690Z</time>
      </trkpt>
      <trkpt lat="40.11299" lon="29.51493">
        <ele>332.297926</ele>
        <time>2021-11-17T07:57:07.491Z</time>
      </trkpt>
      <trkpt lat="40.11303" lon="29.51491">
        <ele>332.357666</ele>
        <time>2021-11-17T07:57:09.255Z</time>
      </trkpt>
      <trkpt lat="40.11334" lon="29.51482">
        <ele>332.743026</ele>
        <time>2021-11-17T07:57:17.618Z</time>
      </trkpt>
      <trkpt lat="40.11378" lon="29.5146">
        <ele>333.320984</ele>
        <time>2021-11-17T07:57:29.890Z</time>
      </trkpt>
      <trkpt lat="40.11391" lon="29.51444">
        <ele>333.545736</ele>
        <time>2021-11-17T07:57:33.855Z</time>
      </trkpt>
      <trkpt lat="40.11416" lon="29.51427">
        <ele>333.718849</ele>
        <time>2021-11-17T07:57:40.200Z</time>
      </trkpt>
      <trkpt lat="40.11435" lon="29.51419">
        <ele>333.778815</ele>
        <time>2021-11-17T07:57:44.569Z</time>
      </trkpt>
      <trkpt lat="40.11443" lon="29.51414">
        <ele>333.806451</ele>
        <time>2021-11-17T07:57:46.476Z</time>
      </trkpt>
      <trkpt lat="40.11534" lon="29.51399">
        <ele>334.086745</ele>
        <time>2021-11-17T07:58:07.860Z</time>
      </trkpt>
      <trkpt lat="40.11582" lon="29.51394">
        <ele>334.172584</ele>
        <time>2021-11-17T07:58:22.082Z</time>
      </trkpt>
      <trkpt lat="40.11581" lon="29.51385">
        <ele>334.131676</ele>
        <time>2021-11-17T07:58:23.899Z</time>
      </trkpt>
      <trkpt lat="40.11609" lon="29.51389">
        <ele>333.962577</ele>
        <time>2021-11-17T07:58:31.080Z</time>
      </trkpt>
      <trkpt lat="40.11636" lon="29.51382">
        <ele>333.801945</ele>
        <time>2021-11-17T07:58:37.108Z</time>
      </trkpt>
      <trkpt lat="40.11675" lon="29.51352">
        <ele>333.529946</ele>
        <time>2021-11-17T07:58:46.692Z</time>
      </trkpt>
      <trkpt lat="40.11683" lon="29.51345">
        <ele>333.470866</ele>
        <time>2021-11-17T07:58:48.616Z</time>
      </trkpt>
      <trkpt lat="40.1171" lon="29.51319">
        <ele>333.271334</ele>
        <time>2021-11-17T07:58:54.928Z</time>
      </trkpt>
      <trkpt lat="40.11715" lon="29.51306">
        <ele>333.202191</ele>
        <time>2021-11-17T07:58:57.098Z</time>
      </trkpt>
      <trkpt lat="40.11729" lon="29.51245">
        <ele>332.091275</ele>
        <time>2021-11-17T07:59:06.004Z</time>
      </trkpt>
      <trkpt lat="40.1174" lon="29.51179">
        <ele>330.630302</ele>
        <time>2021-11-17T07:59:15.174Z</time>
      </trkpt>
      <trkpt lat="40.11752" lon="29.51161">
        <ele>330.113511</ele>
        <time>2021-11-17T07:59:18.342Z</time>
      </trkpt>
      <trkpt lat="40.11762" lon="29.51164">
        <ele>329.813738</ele>
        <time>2021-11-17T07:59:20.006Z</time>
      </trkpt>
      <trkpt lat="40.11889" lon="29.51247">
        <ele>324.948978</ele>
        <time>2021-11-17T07:59:42.657Z</time>
      </trkpt>
      <trkpt lat="40.12283" lon="29.51503">
        <ele>307.129122</ele>
        <time>2021-11-17T08:00:51.702Z</time>
      </trkpt>
      <trkpt lat="40.1254" lon="29.51671">
        <ele>291.878703</ele>
        <time>2021-11-17T08:01:34.341Z</time>
      </trkpt>
      <trkpt lat="40.1267" lon="29.51776">
        <ele>284.275705</ele>
        <time>2021-11-17T08:01:57.503Z</time>
      </trkpt>
      <trkpt lat="40.12788" lon="29.51896">
        <ele>277.739167</ele>
        <time>2021-11-17T08:02:20.645Z</time>
      </trkpt>
      <trkpt lat="40.12884" lon="29.51986">
        <ele>273.33226</ele>
        <time>2021-11-17T08:02:39.336Z</time>
      </trkpt>
      <trkpt lat="40.12926" lon="29.52023">
        <ele>271.750043</ele>
        <time>2021-11-17T08:02:47.560Z</time>
      </trkpt>
      <trkpt lat="40.12992" lon="29.52083">
        <ele>270.033416</ele>
        <time>2021-11-17T08:03:01.206Z</time>
      </trkpt>
      <trkpt lat="40.1303" lon="29.52107">
        <ele>269.133951</ele>
        <time>2021-11-17T08:03:08.731Z</time>
      </trkpt>
      <trkpt lat="40.13069" lon="29.52122">
        <ele>268.289706</ele>
        <time>2021-11-17T08:03:16.456Z</time>
      </trkpt>
      <trkpt lat="40.13116" lon="29.52127">
        <ele>268.013313</ele>
        <time>2021-11-17T08:03:25.668Z</time>
      </trkpt>
      <trkpt lat="40.13348" lon="29.5211">
        <ele>266.920764</ele>
        <time>2021-11-17T08:04:14.487Z</time>
      </trkpt>
      <trkpt lat="40.13394" lon="29.52098">
        <ele>266.767055</ele>
        <time>2021-11-17T08:04:24.505Z</time>
      </trkpt>
      <trkpt lat="40.13438" lon="29.52065">
        <ele>266.602082</ele>
        <time>2021-11-17T08:04:35.078Z</time>
      </trkpt>
      <trkpt lat="40.13629" lon="29.519">
        <ele>267.217532</ele>
        <time>2021-11-17T08:05:23.013Z</time>
      </trkpt>
      <trkpt lat="40.1369" lon="29.5185">
        <ele>268.407036</ele>
        <time>2021-11-17T08:05:45.579Z</time>
      </trkpt>
      <trkpt lat="40.13708" lon="29.51833">
        <ele>268.785494</ele>
        <time>2021-11-17T08:05:53.861Z</time>
      </trkpt>
      <trkpt lat="40.13826" lon="29.51723">
        <ele>273.571065</ele>
        <time>2021-11-17T08:06:49.382Z</time>
      </trkpt>
      <trkpt lat="40.13873" lon="29.5167">
        <ele>275.624033</ele>
        <time>2021-11-17T08:07:10.994Z</time>
      </trkpt>
      <trkpt lat="40.13899" lon="29.51615">
        <ele>276.520345</ele>
        <time>2021-11-17T08:07:26.141Z</time>
      </trkpt>
      <trkpt lat="40.13902" lon="29.51602">
        <ele>276.714605</ele>
        <time>2021-11-17T08:07:28.124Z</time>
      </trkpt>
      <trkpt lat="40.13908" lon="29.51573">
        <ele>277.136979</ele>
        <time>2021-11-17T08:07:35.487Z</time>
      </trkpt>
      <trkpt lat="40.13912" lon="29.51554">
        <ele>277.400633</ele>
        <time>2021-11-17T08:07:38.354Z</time>
      </trkpt>
      <trkpt lat="40.13916" lon="29.51512">
        <ele>277.997934</ele>
        <time>2021-11-17T08:07:47.152Z</time>
      </trkpt>
      <trkpt lat="40.13902" lon="29.51423">
        <ele>279.921314</ele>
        <time>2021-11-17T08:08:07.402Z</time>
      </trkpt>
      <trkpt lat="40.13841" lon="29.51257">
        <ele>285.520163</ele>
        <time>2021-11-17T08:09:04.076Z</time>
      </trkpt>
      <trkpt lat="40.13837" lon="29.51203">
        <ele>287.100341</ele>
        <time>2021-11-17T08:09:22.284Z</time>
      </trkpt>
      <trkpt lat="40.13839" lon="29.51148">
        <ele>288.703876</ele>
        <time>2021-11-17T08:09:39.850Z</time>
      </trkpt>
      <trkpt lat="40.13855" lon="29.51098">
        <ele>290.272979</ele>
        <time>2021-11-17T08:09:55.646Z</time>
      </trkpt>
      <trkpt lat="40.13887" lon="29.51041">
        <ele>292.305556</ele>
        <time>2021-11-17T08:10:14.003Z</time>
      </trkpt>
      <trkpt lat="40.13926" lon="29.51001">
        <ele>293.098646</ele>
        <time>2021-11-17T08:10:28.645Z</time>
      </trkpt>
      <trkpt lat="40.14051" lon="29.50913">
        <ele>294.595737</ele>
        <time>2021-11-17T08:11:04.085Z</time>
      </trkpt>
      <trkpt lat="40.14083" lon="29.509">
        <ele>294.63296</ele>
        <time>2021-11-17T08:11:11.973Z</time>
      </trkpt>
      <trkpt lat="40.14177" lon="29.50901">
        <ele>294.736884</ele>
        <time>2021-11-17T08:11:33.725Z</time>
      </trkpt>
      <trkpt lat="40.14226" lon="29.50891">
        <ele>294.791017</ele>
        <time>2021-11-17T08:11:44.491Z</time>
      </trkpt>
      <trkpt lat="40.14271" lon="29.5087">
        <ele>294.385831</ele>
        <time>2021-11-17T08:11:54.198Z</time>
      </trkpt>
      <trkpt lat="40.14513" lon="29.50717">
        <ele>292.347541</ele>
        <time>2021-11-17T08:12:45.439Z</time>
      </trkpt>
      <trkpt lat="40.14551" lon="29.50711">
        <ele>292.101152</ele>
        <time>2021-11-17T08:12:54.338Z</time>
      </trkpt>
      <trkpt lat="40.14611" lon="29.50719">
        <ele>292.97535</ele>
        <time>2021-11-17T08:13:09.845Z</time>
      </trkpt>
      <trkpt lat="40.14823" lon="29.50796">
        <ele>296.494566</ele>
        <time>2021-11-17T08:14:18.573Z</time>
      </trkpt>
      <trkpt lat="40.14858" lon="29.50827">
        <ele>297.122562</ele>
        <time>2021-11-17T08:14:30.861Z</time>
      </trkpt>
      <trkpt lat="40.15125" lon="29.51169">
        <ele>297.682382</ele>
        <time>2021-11-17T08:15:52.794Z</time>
      </trkpt>
      <trkpt lat="40.15161" lon="29.51192">
        <ele>297.786813</ele>
        <time>2021-11-17T08:16:01.609Z</time>
      </trkpt>
      <trkpt lat="40.15205" lon="29.51211">
        <ele>298.252871</ele>
        <time>2021-11-17T08:16:12.256Z</time>
      </trkpt>
      <trkpt lat="40.15585" lon="29.51349">
        <ele>301.276125</ele>
        <time>2021-11-17T08:17:58.812Z</time>
      </trkpt>
      <trkpt lat="40.15795" lon="29.5144">
        <ele>299.558372</ele>
        <time>2021-11-17T08:18:40.187Z</time>
      </trkpt>
      <trkpt lat="40.15929" lon="29.5149">
        <ele>298.776168</ele>
        <time>2021-11-17T08:19:06.560Z</time>
      </trkpt>
      <trkpt lat="40.16048" lon="29.51526">
        <ele>299.448969</ele>
        <time>2021-11-17T08:19:36.679Z</time>
      </trkpt>
      <trkpt lat="40.16178" lon="29.51555">
        <ele>302.701093</ele>
        <time>2021-11-17T08:20:20.684Z</time>
      </trkpt>
      <trkpt lat="40.16238" lon="29.5155">
        <ele>304.705831</ele>
        <time>2021-11-17T08:20:43.657Z</time>
      </trkpt>
      <trkpt lat="40.16323" lon="29.51523">
        <ele>307.891298</ele>
        <time>2021-11-17T08:21:17.025Z</time>
      </trkpt>
      <trkpt lat="40.16379" lon="29.51523">
        <ele>309.692098</ele>
        <time>2021-11-17T08:21:37.206Z</time>
      </trkpt>
      <trkpt lat="40.16434" lon="29.51547">
        <ele>310.600451</ele>
        <time>2021-11-17T08:21:55.707Z</time>
      </trkpt>
      <trkpt lat="40.16482" lon="29.51594">
        <ele>311.55166</ele>
        <time>2021-11-17T08:22:12.757Z</time>
      </trkpt>
      <trkpt lat="40.16538" lon="29.51667">
        <ele>312.085409</ele>
        <time>2021-11-17T08:22:31.493Z</time>
      </trkpt>
      <trkpt lat="40.16723" lon="29.51944">
        <ele>307.515788</ele>
        <time>2021-11-17T08:23:23.666Z</time>
      </trkpt>
      <trkpt lat="40.16748" lon="29.52016">
        <ele>305.789229</ele>
        <time>2021-11-17T08:23:33.061Z</time>
      </trkpt>
      <trkpt lat="40.16814" lon="29.52289">
        <ele>294.037782</ele>
        <time>2021-11-17T08:24:05.169Z</time>
      </trkpt>
      <trkpt lat="40.16824" lon="29.52367">
        <ele>291.177126</ele>
        <time>2021-11-17T08:24:14.277Z</time>
      </trkpt>
      <trkpt lat="40.16832" lon="29.52549">
        <ele>286.86177</ele>
        <time>2021-11-17T08:24:36.936Z</time>
      </trkpt>
      <trkpt lat="40.1687" lon="29.52755">
        <ele>284.704263</ele>
        <time>2021-11-17T08:25:10.681Z</time>
      </trkpt>
      <trkpt lat="40.16872" lon="29.52795">
        <ele>284.39339</ele>
        <time>2021-11-17T08:25:18.008Z</time>
      </trkpt>
      <trkpt lat="40.16881" lon="29.52989">
        <ele>281.298263</ele>
        <time>2021-11-17T08:25:45.094Z</time>
      </trkpt>
      <trkpt lat="40.16978" lon="29.53329">
        <ele>267.934073</ele>
        <time>2021-11-17T08:26:26.490Z</time>
      </trkpt>
      <trkpt lat="40.17019" lon="29.53396">
        <ele>265.012118</ele>
        <time>2021-11-17T08:26:36.225Z</time>
      </trkpt>
      <trkpt lat="40.17147" lon="29.53523">
        <ele>259.911923</ele>
        <time>2021-11-17T08:27:01.944Z</time>
      </trkpt>
      <trkpt lat="40.17515" lon="29.5391">
        <ele>263.858943</ele>
        <time>2021-11-17T08:29:08.688Z</time>
      </trkpt>
      <trkpt lat="40.17629" lon="29.54013">
        <ele>264.142832</ele>
        <time>2021-11-17T08:29:43.873Z</time>
      </trkpt>
      <trkpt lat="40.17768" lon="29.54221">
        <ele>261.580257</ele>
        <time>2021-11-17T08:30:23.279Z</time>
      </trkpt>
      <trkpt lat="40.17963" lon="29.5448">
        <ele>254.647455</ele>
        <time>2021-11-17T08:31:08.972Z</time>
      </trkpt>
      <trkpt lat="40.18361" lon="29.55001">
        <ele>248.475202</ele>
        <time>2021-11-17T08:32:56.528Z</time>
      </trkpt>
      <trkpt lat="40.18524" lon="29.55214">
        <ele>250.031055</ele>
        <time>2021-11-17T08:33:54.548Z</time>
      </trkpt>
      <trkpt lat="40.18673" lon="29.55408">
        <ele>253.759223</ele>
        <time>2021-11-17T08:34:58.121Z</time>
      </trkpt>
      <trkpt lat="40.18703" lon="29.55446">
        <ele>254.614238</ele>
        <time>2021-11-17T08:35:11.562Z</time>
      </trkpt>
      <trkpt lat="40.18744" lon="29.55485">
        <ele>255.158293</ele>
        <time>2021-11-17T08:35:26.675Z</time>
      </trkpt>
      <trkpt lat="40.18776" lon="29.55515">
        <ele>255.588942</ele>
        <time>2021-11-17T08:35:37.997Z</time>
      </trkpt>
      <trkpt lat="40.18818" lon="29.55555">
        <ele>256.146624</ele>
        <time>2021-11-17T08:35:51.692Z</time>
      </trkpt>
      <trkpt lat="40.18925" lon="29.55713">
        <ele>255.654474</ele>
        <time>2021-11-17T08:36:25.410Z</time>
      </trkpt>
      <trkpt lat="40.1896" lon="29.5575">
        <ele>255.325344</ele>
        <time>2021-11-17T08:36:33.564Z</time>
      </trkpt>
      <trkpt lat="40.19014" lon="29.55776">
        <ele>254.496048</ele>
        <time>2021-11-17T08:36:43.983Z</time>
      </trkpt>
      <trkpt lat="40.19142" lon="29.55794">
        <ele>252.444945</ele>
        <time>2021-11-17T08:37:07.159Z</time>
      </trkpt>
      <trkpt lat="40.19185" lon="29.55819">
        <ele>251.852163</ele>
        <time>2021-11-17T08:37:15.899Z</time>
      </trkpt>
      <trkpt lat="40.19194" lon="29.5583">
        <ele>251.700057</ele>
        <time>2021-11-17T08:37:18.242Z</time>
      </trkpt>
      <trkpt lat="40.19605" lon="29.56517">
        <ele>243.978864</ele>
        <time>2021-11-17T08:39:24.378Z</time>
      </trkpt>
      <trkpt lat="40.19628" lon="29.56603">
        <ele>244.172634</ele>
        <time>2021-11-17T08:39:39.857Z</time>
      </trkpt>
      <trkpt lat="40.1964" lon="29.56757">
        <ele>244.528191</ele>
        <time>2021-11-17T08:40:09.391Z</time>
      </trkpt>
      <trkpt lat="40.19662" lon="29.56823">
        <ele>244.839843</ele>
        <time>2021-11-17T08:40:23.557Z</time>
      </trkpt>
      <trkpt lat="40.19691" lon="29.5686">
        <ele>245.068716</ele>
        <time>2021-11-17T08:40:33.797Z</time>
      </trkpt>
      <trkpt lat="40.19922" lon="29.57042">
        <ele>245.909887</ele>
        <time>2021-11-17T08:41:36.405Z</time>
      </trkpt>
      <trkpt lat="40.20023" lon="29.57101">
        <ele>245.935027</ele>
        <time>2021-11-17T08:42:00.816Z</time>
      </trkpt>
      <trkpt lat="40.20137" lon="29.57155">
        <ele>245.902139</ele>
        <time>2021-11-17T08:42:28.040Z</time>
      </trkpt>
      <trkpt lat="40.20389" lon="29.57232">
        <ele>245.094336</ele>
        <time>2021-11-17T08:43:24.232Z</time>
      </trkpt>
      <trkpt lat="40.20439" lon="29.57259">
        <ele>244.580222</ele>
        <time>2021-11-17T08:43:34.073Z</time>
      </trkpt>
      <trkpt lat="40.20451" lon="29.57232">
        <ele>244.16124</ele>
        <time>2021-11-17T08:43:38.396Z</time>
      </trkpt>
      <trkpt lat="40.20469" lon="29.57182">
        <ele>243.43155</ele>
        <time>2021-11-17T08:43:45.970Z</time>
      </trkpt>
      <trkpt lat="40.20479" lon="29.57158">
        <ele>243.069872</ele>
        <time>2021-11-17T08:43:49.705Z</time>
      </trkpt>
      <trkpt lat="40.20484" lon="29.57151">
        <ele>242.94697</ele>
        <time>2021-11-17T08:43:50.902Z</time>
      </trkpt>
      <trkpt lat="40.20494" lon="29.57146">
        <ele>242.759044</ele>
        <time>2021-11-17T08:43:52.834Z</time>
      </trkpt>
      <trkpt lat="40.20522" lon="29.57149">
        <ele>242.27016</ele>
        <time>2021-11-17T08:43:57.772Z</time>
      </trkpt>
      <trkpt lat="40.20542" lon="29.5715">
        <ele>241.930401</ele>
        <time>2021-11-17T08:44:01.275Z</time>
      </trkpt>
      <trkpt lat="40.2061" lon="29.5719">
        <ele>241.10442</ele>
        <time>2021-11-17T08:44:14.734Z</time>
      </trkpt>
      <trkpt lat="40.20624" lon="29.572">
        <ele>240.940126</ele>
        <time>2021-11-17T08:44:17.658Z</time>
      </trkpt>
      <trkpt lat="40.20765" lon="29.57308">
        <ele>239.708977</ele>
        <time>2021-11-17T08:44:51.327Z</time>
      </trkpt>
      <trkpt lat="40.20804" lon="29.57309">
        <ele>239.579538</ele>
        <time>2021-11-17T08:44:59.586Z</time>
      </trkpt>
      <trkpt lat="40.20925" lon="29.57255">
        <ele>239.273218</ele>
        <time>2021-11-17T08:45:26.791Z</time>
      </trkpt>
      <trkpt lat="40.20971" lon="29.5725">
        <ele>239.219596</ele>
        <time>2021-11-17T08:45:36.851Z</time>
      </trkpt>
      <trkpt lat="40.21077" lon="29.57261">
        <ele>239.099117</ele>
        <time>2021-11-17T08:46:00.563Z</time>
      </trkpt>
      <trkpt lat="40.21212" lon="29.57264">
        <ele>238.959882</ele>
        <time>2021-11-17T08:46:30.141Z</time>
      </trkpt>
      <trkpt lat="40.21306" lon="29.57255">
        <ele>238.708221</ele>
        <time>2021-11-17T08:46:50.259Z</time>
      </trkpt>
      <trkpt lat="40.21476" lon="29.57188">
        <ele>238.239041</ele>
        <time>2021-11-17T08:47:27.307Z</time>
      </trkpt>
      <trkpt lat="40.21565" lon="29.57172">
        <ele>238.050789</ele>
        <time>2021-11-17T08:47:46.875Z</time>
      </trkpt>
      <trkpt lat="40.21663" lon="29.57154">
        <ele>237.921345</ele>
        <time>2021-11-17T08:48:09.032Z</time>
      </trkpt>
      <trkpt lat="40.21727" lon="29.57143">
        <ele>237.847987</ele>
        <time>2021-11-17T08:48:22.927Z</time>
      </trkpt>
      <trkpt lat="40.21792" lon="29.57148">
        <ele>237.67674</ele>
        <time>2021-11-17T08:48:36.758Z</time>
      </trkpt>
      <trkpt lat="40.2182" lon="29.57155">
        <ele>237.558331</ele>
        <time>2021-11-17T08:48:42.751Z</time>
      </trkpt>
      <trkpt lat="40.2186" lon="29.57165">
        <ele>237.390044</ele>
        <time>2021-11-17T08:48:51.194Z</time>
      </trkpt>
      <trkpt lat="40.21926" lon="29.57169">
        <ele>237.119386</ele>
        <time>2021-11-17T08:49:04.671Z</time>
      </trkpt>
      <trkpt lat="40.22013" lon="29.57168">
        <ele>236.805774</ele>
        <time>2021-11-17T08:49:22.555Z</time>
      </trkpt>
      <trkpt lat="40.22125" lon="29.57164">
        <ele>236.440386</ele>
        <time>2021-11-17T08:49:46.446Z</time>
      </trkpt>
      <trkpt lat="40.22239" lon="29.57171">
        <ele>236.48477</ele>
        <time>2021-11-17T08:50:11.144Z</time>
      </trkpt>
      <trkpt lat="40.22313" lon="29.57176">
        <ele>236.571883</ele>
        <time>2021-11-17T08:50:29.040Z</time>
      </trkpt>
      <trkpt lat="40.22372" lon="29.57165">
        <ele>236.818085</ele>
        <time>2021-11-17T08:50:43.410Z</time>
      </trkpt>
      <trkpt lat="40.22381" lon="29.57163">
        <ele>236.852629</ele>
        <time>2021-11-17T08:50:45.430Z</time>
      </trkpt>
      <trkpt lat="40.22402" lon="29.57159">
        <ele>236.940938</ele>
        <time>2021-11-17T08:50:50.389Z</time>
      </trkpt>
      <trkpt lat="40.22426" lon="29.57155">
        <ele>237.043027</ele>
        <time>2021-11-17T08:50:56.192Z</time>
      </trkpt>
      <trkpt lat="40.22462" lon="29.5714">
        <ele>237.195461</ele>
        <time>2021-11-17T08:51:04.960Z</time>
      </trkpt>
      <trkpt lat="40.22502" lon="29.57124">
        <ele>237.374218</ele>
        <time>2021-11-17T08:51:15.366Z</time>
      </trkpt>
      <trkpt lat="40.22513" lon="29.57119">
        <ele>237.422689</ele>
        <time>2021-11-17T08:51:18.091Z</time>
      </trkpt>
      <trkpt lat="40.22544" lon="29.57108">
        <ele>237.560066</ele>
        <time>2021-11-17T08:51:26.352Z</time>
      </trkpt>
      <trkpt lat="40.22569" lon="29.57099">
        <ele>237.66921</ele>
        <time>2021-11-17T08:51:32.908Z</time>
      </trkpt>
      <trkpt lat="40.22598" lon="29.57057">
        <ele>237.85068</ele>
        <time>2021-11-17T08:51:42.767Z</time>
      </trkpt>
      <trkpt lat="40.22614" lon="29.57026">
        <ele>237.970776</ele>
        <time>2021-11-17T08:51:49.172Z</time>
      </trkpt>
      <trkpt lat="40.22645" lon="29.56986">
        <ele>238.0409</ele>
        <time>2021-11-17T08:51:59.081Z</time>
      </trkpt>
      <trkpt lat="40.22661" lon="29.56966">
        <ele>238.059482</ele>
        <time>2021-11-17T08:52:04.306Z</time>
      </trkpt>
      <trkpt lat="40.22665" lon="29.56966">
        <ele>238.063048</ele>
        <time>2021-11-17T08:52:05.272Z</time>
      </trkpt>
      <trkpt lat="40.22674" lon="29.56965">
        <ele>238.07103</ele>
        <time>2021-11-17T08:52:07.401Z</time>
      </trkpt>
      <trkpt lat="40.22693" lon="29.5697">
        <ele>238.087499</ele>
        <time>2021-11-17T08:52:12.075Z</time>
      </trkpt>
      <trkpt lat="40.22726" lon="29.56973">
        <ele>238.115006</ele>
        <time>2021-11-17T08:52:19.553Z</time>
      </trkpt>
      <trkpt lat="40.22788" lon="29.5692">
        <ele>238.119274</ele>
        <time>2021-11-17T08:52:35.647Z</time>
      </trkpt>
      <trkpt lat="40.2285" lon="29.56879">
        <ele>237.925959</ele>
        <time>2021-11-17T08:52:50.029Z</time>
      </trkpt>
      <trkpt lat="40.22892" lon="29.56851">
        <ele>237.79557</ele>
        <time>2021-11-17T08:52:59.835Z</time>
      </trkpt>
      <trkpt lat="40.22909" lon="29.56768">
        <ele>237.66182</ele>
        <time>2021-11-17T08:53:13.936Z</time>
      </trkpt>
      <trkpt lat="40.22917" lon="29.56717">
        <ele>237.658781</ele>
        <time>2021-11-17T08:53:22.736Z</time>
      </trkpt>
      <trkpt lat="40.22906" lon="29.56645">
        <ele>237.654489</ele>
        <time>2021-11-17T08:53:35.190Z</time>
      </trkpt>
      <trkpt lat="40.22887" lon="29.56585">
        <ele>237.650682</ele>
        <time>2021-11-17T08:53:46.353Z</time>
      </trkpt>
      <trkpt lat="40.22874" lon="29.56541">
        <ele>237.652718</ele>
        <time>2021-11-17T08:53:54.527Z</time>
      </trkpt>
      <trkpt lat="40.22888" lon="29.56518">
        <ele>237.656723</ele>
        <time>2021-11-17T08:53:59.709Z</time>
      </trkpt>
      <trkpt lat="40.22953" lon="29.56483">
        <ele>237.668891</ele>
        <time>2021-11-17T08:54:15.395Z</time>
      </trkpt>
      <trkpt lat="40.22984" lon="29.56455">
        <ele>237.675336</ele>
        <time>2021-11-17T08:54:23.647Z</time>
      </trkpt>
      <trkpt lat="40.23114" lon="29.56245">
        <ele>237.619812</ele>
        <time>2021-11-17T08:55:09.184Z</time>
      </trkpt>
      <trkpt lat="40.23164" lon="29.56201">
        <ele>237.742096</ele>
        <time>2021-11-17T08:55:22.752Z</time>
      </trkpt>
      <trkpt lat="40.23189" lon="29.56167">
        <ele>237.819428</ele>
        <time>2021-11-17T08:55:30.934Z</time>
      </trkpt>
      <trkpt lat="40.23216" lon="29.56081">
        <ele>237.974159</ele>
        <time>2021-11-17T08:55:47.699Z</time>
      </trkpt>
      <trkpt lat="40.23241" lon="29.56065">
        <ele>238.060741</ele>
        <time>2021-11-17T08:55:54.453Z</time>
      </trkpt>
      <trkpt lat="40.2326" lon="29.56036">
        <ele>238.183541</ele>
        <time>2021-11-17T08:56:01.349Z</time>
      </trkpt>
      <trkpt lat="40.23277" lon="29.55862">
        <ele>238.757729</ele>
        <time>2021-11-17T08:56:33.632Z</time>
      </trkpt>
      <trkpt lat="40.23294" lon="29.55823">
        <ele>238.773072</ele>
        <time>2021-11-17T08:56:41.757Z</time>
      </trkpt>
      <trkpt lat="40.23317" lon="29.55795">
        <ele>238.768437</ele>
        <time>2021-11-17T08:56:49.061Z</time>
      </trkpt>
      <trkpt lat="40.23327" lon="29.55752">
        <ele>238.763343</ele>
        <time>2021-11-17T08:56:56.789Z</time>
      </trkpt>
      <trkpt lat="40.2333" lon="29.5574">
        <ele>238.761898</ele>
        <time>2021-11-17T08:56:58.878Z</time>
      </trkpt>
      <trkpt lat="40.23367" lon="29.55687">
        <ele>238.753779</ele>
        <time>2021-11-17T08:57:10.694Z</time>
      </trkpt>
      <trkpt lat="40.23366" lon="29.55674">
        <ele>238.752314</ele>
        <time>2021-11-17T08:57:12.776Z</time>
      </trkpt>
      <trkpt lat="40.23364" lon="29.55628">
        <ele>238.543548</ele>
        <time>2021-11-17T08:57:20.020Z</time>
      </trkpt>
      <trkpt lat="40.23363" lon="29.55607">
        <ele>238.408655</ele>
        <time>2021-11-17T08:57:23.226Z</time>
      </trkpt>
      <trkpt lat="40.23381" lon="29.55558">
        <ele>238.055379</ele>
        <time>2021-11-17T08:57:31.667Z</time>
      </trkpt>
      <trkpt lat="40.23416" lon="29.55543">
        <ele>237.744807</ele>
        <time>2021-11-17T08:57:38.775Z</time>
      </trkpt>
      <trkpt lat="40.23528" lon="29.55536">
        <ele>236.705396</ele>
        <time>2021-11-17T08:57:59.912Z</time>
      </trkpt>
      <trkpt lat="40.23541" lon="29.55533">
        <ele>236.565018</ele>
        <time>2021-11-17T08:58:02.401Z</time>
      </trkpt>
      <trkpt lat="40.23563" lon="29.55528">
        <ele>236.343655</ele>
        <time>2021-11-17T08:58:06.659Z</time>
      </trkpt>
      <trkpt lat="40.23585" lon="29.5551">
        <ele>236.077528</ele>
        <time>2021-11-17T08:58:11.605Z</time>
      </trkpt>
      <trkpt lat="40.23638" lon="29.55464">
        <ele>235.426786</ele>
        <time>2021-11-17T08:58:24.017Z</time>
      </trkpt>
      <trkpt lat="40.23763" lon="29.55297">
        <ele>234.502579</ele>
        <time>2021-11-17T08:59:00.877Z</time>
      </trkpt>
      <trkpt lat="40.23879" lon="29.55119">
        <ele>233.843115</ele>
        <time>2021-11-17T08:59:37.933Z</time>
      </trkpt>
      <trkpt lat="40.23949" lon="29.54938">
        <ele>233.947598</ele>
        <time>2021-11-17T09:00:12.924Z</time>
      </trkpt>
      <trkpt lat="40.23994" lon="29.54834">
        <ele>234.053686</ele>
        <time>2021-11-17T09:00:34.212Z</time>
      </trkpt>
      <trkpt lat="40.24042" lon="29.54747">
        <ele>234.161398</ele>
        <time>2021-11-17T09:00:52.727Z</time>
      </trkpt>
      <trkpt lat="40.24088" lon="29.54699">
        <ele>234.24032</ele>
        <time>2021-11-17T09:01:05.808Z</time>
      </trkpt>
      <trkpt lat="40.24145" lon="29.54655">
        <ele>234.334332</ele>
        <time>2021-11-17T09:01:20.719Z</time>
      </trkpt>
      <trkpt lat="40.24228" lon="29.54595">
        <ele>234.47354</ele>
        <time>2021-11-17T09:01:42.653Z</time>
      </trkpt>
      <trkpt lat="40.24263" lon="29.54563">
        <ele>234.598692</ele>
        <time>2021-11-17T09:01:52.605Z</time>
      </trkpt>
      <trkpt lat="40.24317" lon="29.54518">
        <ele>234.786614</ele>
        <time>2021-11-17T09:02:07.664Z</time>
      </trkpt>
      <trkpt lat="40.2438" lon="29.54448">
        <ele>235.018982</ele>
        <time>2021-11-17T09:02:27.064Z</time>
      </trkpt>
      <trkpt lat="40.2442" lon="29.54359">
        <ele>235.183464</ele>
        <time>2021-11-17T09:02:45.426Z</time>
      </trkpt>
      <trkpt lat="40.24427" lon="29.54322">
        <ele>235.24551</ele>
        <time>2021-11-17T09:02:52.268Z</time>
      </trkpt>
      <trkpt lat="40.24421" lon="29.5409">
        <ele>235.492944</ele>
        <time>2021-11-17T09:03:32.380Z</time>
      </trkpt>
      <trkpt lat="40.24427" lon="29.53969">
        <ele>235.605114</ele>
        <time>2021-11-17T09:03:53.342Z</time>
      </trkpt>
      <trkpt lat="40.2443" lon="29.53913">
        <ele>235.671395</ele>
        <time>2021-11-17T09:04:03.063Z</time>
      </trkpt>
      <trkpt lat="40.24449" lon="29.53856">
        <ele>235.745448</ele>
        <time>2021-11-17T09:04:13.997Z</time>
      </trkpt>
      <trkpt lat="40.2449" lon="29.53818">
        <ele>235.822907</ele>
        <time>2021-11-17T09:04:25.533Z</time>
      </trkpt>
      <trkpt lat="40.24565" lon="29.53815">
        <ele>236.029187</ele>
        <time>2021-11-17T09:04:42.931Z</time>
      </trkpt>
      <trkpt lat="40.24622" lon="29.53771">
        <ele>236.221613</ele>
        <time>2021-11-17T09:04:58.371Z</time>
      </trkpt>
      <trkpt lat="40.24669" lon="29.53714">
        <ele>236.407785</ele>
        <time>2021-11-17T09:05:13.625Z</time>
      </trkpt>
      <trkpt lat="40.24708" lon="29.5359">
        <ele>236.696711</ele>
        <time>2021-11-17T09:05:37.763Z</time>
      </trkpt>
      <trkpt lat="40.24745" lon="29.53503">
        <ele>236.881989</ele>
        <time>2021-11-17T09:05:55.190Z</time>
      </trkpt>
      <trkpt lat="40.24805" lon="29.53399">
        <ele>236.962586</ele>
        <time>2021-11-17T09:06:17.787Z</time>
      </trkpt>
      <trkpt lat="40.24845" lon="29.53338">
        <ele>237.011871</ele>
        <time>2021-11-17T09:06:31.442Z</time>
      </trkpt>
      <trkpt lat="40.24871" lon="29.53307">
        <ele>237.001906</ele>
        <time>2021-11-17T09:06:39.237Z</time>
      </trkpt>
      <trkpt lat="40.24919" lon="29.53268">
        <ele>236.975681</ele>
        <time>2021-11-17T09:06:51.929Z</time>
      </trkpt>
      <trkpt lat="40.25032" lon="29.53226">
        <ele>236.874554</ele>
        <time>2021-11-17T09:07:17.518Z</time>
      </trkpt>
      <trkpt lat="40.25309" lon="29.5317">
        <ele>236.591799</ele>
        <time>2021-11-17T09:08:17.177Z</time>
      </trkpt>
      <trkpt lat="40.25473" lon="29.53069">
        <ele>237.657457</ele>
        <time>2021-11-17T09:09:02.811Z</time>
      </trkpt>
      <trkpt lat="40.25491" lon="29.52939">
        <ele>238.485939</ele>
        <time>2021-11-17T09:09:29.451Z</time>
      </trkpt>
      <trkpt lat="40.25509" lon="29.52891">
        <ele>238.82685</ele>
        <time>2021-11-17T09:09:40.093Z</time>
      </trkpt>
      <trkpt lat="40.25501" lon="29.52857">
        <ele>239.052816</ele>
        <time>2021-11-17T09:09:47.070Z</time>
      </trkpt>
      <trkpt lat="40.25484" lon="29.52826">
        <ele>239.295548</ele>
        <time>2021-11-17T09:09:54.413Z</time>
      </trkpt>
      <trkpt lat="40.25471" lon="29.52777">
        <ele>239.605341</ele>
        <time>2021-11-17T09:10:04.360Z</time>
      </trkpt>
      <trkpt lat="40.25468" lon="29.52745">
        <ele>239.678469</ele>
        <time>2021-11-17T09:10:10.233Z</time>
      </trkpt>
      <trkpt lat="40.25477" lon="29.52705">
        <ele>239.776317</ele>
        <time>2021-11-17T09:10:17.959Z</time>
      </trkpt>
      <trkpt lat="40.25498" lon="29.52677">
        <ele>239.866988</ele>
        <time>2021-11-17T09:10:25.010Z</time>
      </trkpt>
      <trkpt lat="40.25665" lon="29.52541">
        <ele>240.275062</ele>
        <time>2021-11-17T09:11:09.662Z</time>
      </trkpt>
      <trkpt lat="40.25762" lon="29.52469">
        <ele>240.419345</ele>
        <time>2021-11-17T09:11:34.865Z</time>
      </trkpt>
      <trkpt lat="40.25942" lon="29.52331">
        <ele>240.714363</ele>
        <time>2021-11-17T09:12:22.299Z</time>
      </trkpt>
      <trkpt lat="40.26055" lon="29.52245">
        <ele>240.960671</ele>
        <time>2021-11-17T09:12:52.303Z</time>
      </trkpt>
      <trkpt lat="40.26272" lon="29.52079">
        <ele>241.850106</ele>
        <time>2021-11-17T09:13:51.808Z</time>
      </trkpt>
      <trkpt lat="40.26473" lon="29.51871">
        <ele>242.983816</ele>
        <time>2021-11-17T09:14:53.809Z</time>
      </trkpt>
      <trkpt lat="40.2664" lon="29.51684">
        <ele>243.839921</ele>
        <time>2021-11-17T09:15:46.202Z</time>
      </trkpt>
      <trkpt lat="40.26819" lon="29.51507">
        <ele>244.43789</ele>
        <time>2021-11-17T09:16:38.015Z</time>
      </trkpt>
      <trkpt lat="40.26928" lon="29.5141">
        <ele>244.811297</ele>
        <time>2021-11-17T09:17:08.923Z</time>
      </trkpt>
      <trkpt lat="40.2705" lon="29.51314">
        <ele>245.276293</ele>
        <time>2021-11-17T09:17:42.619Z</time>
      </trkpt>
      <trkpt lat="40.27097" lon="29.51299">
        <ele>245.411047</ele>
        <time>2021-11-17T09:17:53.853Z</time>
      </trkpt>
      <trkpt lat="40.27145" lon="29.5128">
        <ele>245.542774</ele>
        <time>2021-11-17T09:18:05.550Z</time>
      </trkpt>
      <trkpt lat="40.27165" lon="29.51268">
        <ele>245.599965</ele>
        <time>2021-11-17T09:18:10.642Z</time>
      </trkpt>
      <trkpt lat="40.27181" lon="29.51255">
        <ele>245.647551</ele>
        <time>2021-11-17T09:18:14.879Z</time>
      </trkpt>
      <trkpt lat="40.27213" lon="29.51234">
        <ele>245.740267</ele>
        <time>2021-11-17T09:18:23.136Z</time>
      </trkpt>
      <trkpt lat="40.27247" lon="29.51213">
        <ele>245.868828</ele>
        <time>2021-11-17T09:18:31.936Z</time>
      </trkpt>
      <trkpt lat="40.27363" lon="29.5116">
        <ele>246.402134</ele>
        <time>2021-11-17T09:19:01.451Z</time>
      </trkpt>
      <trkpt lat="40.27468" lon="29.51107">
        <ele>246.869572</ele>
        <time>2021-11-17T09:19:28.630Z</time>
      </trkpt>
      <trkpt lat="40.2753" lon="29.51059">
        <ele>247.166124</ele>
        <time>2021-11-17T09:19:45.911Z</time>
      </trkpt>
      <trkpt lat="40.27557" lon="29.51026">
        <ele>247.314134</ele>
        <time>2021-11-17T09:19:54.568Z</time>
      </trkpt>
      <trkpt lat="40.27567" lon="29.50999">
        <ele>247.389792</ele>
        <time>2021-11-17T09:19:59.791Z</time>
      </trkpt>
      <trkpt lat="40.27584" lon="29.50974">
        <ele>247.477534</ele>
        <time>2021-11-17T09:20:05.853Z</time>
      </trkpt>
      <trkpt lat="40.27655" lon="29.5094">
        <ele>247.734044</ele>
        <time>2021-11-17T09:20:23.653Z</time>
      </trkpt>
      <trkpt lat="40.277" lon="29.50895">
        <ele>247.930011</ele>
        <time>2021-11-17T09:20:37.048Z</time>
      </trkpt>
      <trkpt lat="40.27754" lon="29.50806">
        <ele>248.344517</ele>
        <time>2021-11-17T09:20:57.774Z</time>
      </trkpt>
      <trkpt lat="40.27809" lon="29.50752">
        <ele>248.672918</ele>
        <time>2021-11-17T09:21:14.291Z</time>
      </trkpt>
      <trkpt lat="40.27839" lon="29.50735">
        <ele>248.85836</ele>
        <time>2021-11-17T09:21:22.322Z</time>
      </trkpt>
      <trkpt lat="40.2792" lon="29.50724">
        <ele>249.460419</ele>
        <time>2021-11-17T09:21:42.932Z</time>
      </trkpt>
      <trkpt lat="40.27941" lon="29.50718">
        <ele>249.616433</ele>
        <time>2021-11-17T09:21:48.247Z</time>
      </trkpt>
      <trkpt lat="40.27951" lon="29.50601">
        <ele>250.29389</ele>
        <time>2021-11-17T09:22:11.130Z</time>
      </trkpt>
      <trkpt lat="40.27962" lon="29.50563">
        <ele>250.540892</ele>
        <time>2021-11-17T09:22:19.060Z</time>
      </trkpt>
      <trkpt lat="40.2801" lon="29.50482">
        <ele>251.164207</ele>
        <time>2021-11-17T09:22:39.143Z</time>
      </trkpt>
      <trkpt lat="40.28259" lon="29.5013">
        <ele>253.983684</ele>
        <time>2021-11-17T09:24:11.183Z</time>
      </trkpt>
      <trkpt lat="40.28276" lon="29.5011">
        <ele>254.164349</ele>
        <time>2021-11-17T09:24:17.150Z</time>
      </trkpt>
      <trkpt lat="40.28299" lon="29.50089">
        <ele>254.408717</ele>
        <time>2021-11-17T09:24:24.534Z</time>
      </trkpt>
      <trkpt lat="40.28323" lon="29.50075">
        <ele>254.665209</ele>
        <time>2021-11-17T09:24:31.389Z</time>
      </trkpt>
      <trkpt lat="40.28363" lon="29.50062">
        <ele>255.067595</ele>
        <time>2021-11-17T09:24:42.308Z</time>
      </trkpt>
      <trkpt lat="40.28749" lon="29.49959">
        <ele>258.891585</ele>
        <time>2021-11-17T09:26:25.393Z</time>
      </trkpt>
      <trkpt lat="40.29205" lon="29.49837">
        <ele>263.236107</ele>
        <time>2021-11-17T09:28:26.283Z</time>
      </trkpt>
      <trkpt lat="40.29258" lon="29.49812">
        <ele>263.681022</ele>
        <time>2021-11-17T09:28:40.680Z</time>
      </trkpt>
      <trkpt lat="40.29559" lon="29.49532">
        <ele>266.098505</ele>
        <time>2021-11-17T09:30:12.419Z</time>
      </trkpt>
      <trkpt lat="40.29662" lon="29.49446">
        <ele>266.822507</ele>
        <time>2021-11-17T09:30:41.715Z</time>
      </trkpt>
      <trkpt lat="40.29685" lon="29.49411">
        <ele>267.054579</ele>
        <time>2021-11-17T09:30:50.299Z</time>
      </trkpt>
      <trkpt lat="40.29702" lon="29.49373">
        <ele>267.275876</ele>
        <time>2021-11-17T09:30:58.565Z</time>
      </trkpt>
      <trkpt lat="40.29714" lon="29.4916">
        <ele>269.036849</ele>
        <time>2021-11-17T09:31:40.875Z</time>
      </trkpt>
      <trkpt lat="40.29718" lon="29.49081">
        <ele>269.861126</ele>
        <time>2021-11-17T09:31:59.028Z</time>
      </trkpt>
      <trkpt lat="40.29752" lon="29.49071">
        <ele>270.45651</ele>
        <time>2021-11-17T09:32:09.699Z</time>
      </trkpt>
      <trkpt lat="40.29768" lon="29.49055">
        <ele>270.912571</ele>
        <time>2021-11-17T09:32:15.556Z</time>
      </trkpt>
      <trkpt lat="40.29791" lon="29.49013">
        <ele>271.776082</ele>
        <time>2021-11-17T09:32:27.788Z</time>
      </trkpt>
      <trkpt lat="40.29801" lon="29.49003">
        <ele>272.060372</ele>
        <time>2021-11-17T09:32:32.129Z</time>
      </trkpt>
      <trkpt lat="40.29798" lon="29.48963">
        <ele>272.731424</ele>
        <time>2021-11-17T09:32:41.676Z</time>
      </trkpt>
      <trkpt lat="40.29795" lon="29.48877">
        <ele>274.194329</ele>
        <time>2021-11-17T09:33:04.374Z</time>
      </trkpt>
      <trkpt lat="40.29791" lon="29.48861">
        <ele>274.39346</ele>
        <time>2021-11-17T09:33:08.550Z</time>
      </trkpt>
      <trkpt lat="40.29791" lon="29.48835">
        <ele>274.722433</ele>
        <time>2021-11-17T09:33:15.017Z</time>
      </trkpt>
      <trkpt lat="40.29789" lon="29.48799">
        <ele>275.169171</ele>
        <time>2021-11-17T09:33:23.848Z</time>
      </trkpt>
      <trkpt lat="40.29794" lon="29.48771">
        <ele>275.525907</ele>
        <time>2021-11-17T09:33:29.736Z</time>
      </trkpt>
      <trkpt lat="40.29795" lon="29.48743">
        <ele>275.878581</ele>
        <time>2021-11-17T09:33:35.826Z</time>
      </trkpt>
      <trkpt lat="40.29795" lon="29.48732">
        <ele>276.010627</ele>
        <time>2021-11-17T09:33:38.029Z</time>
      </trkpt>
      <trkpt lat="40.29794" lon="29.48707">
        <ele>276.323297</ele>
        <time>2021-11-17T09:33:43.349Z</time>
      </trkpt>
      <trkpt lat="40.29794" lon="29.48615">
        <ele>277.390284</ele>
        <time>2021-11-17T09:34:03.108Z</time>
      </trkpt>
      <trkpt lat="40.2979" lon="29.48597">
        <ele>277.575115</ele>
        <time>2021-11-17T09:34:07.197Z</time>
      </trkpt>
      <trkpt lat="40.29783" lon="29.48581">
        <ele>277.749043</ele>
        <time>2021-11-17T09:34:10.800Z</time>
      </trkpt>
      <trkpt lat="40.29786" lon="29.48559">
        <ele>277.963833</ele>
        <time>2021-11-17T09:34:15.556Z</time>
      </trkpt>
      <trkpt lat="40.29795" lon="29.48502">
        <ele>278.534655</ele>
        <time>2021-11-17T09:34:27.559Z</time>
      </trkpt>
      <trkpt lat="40.298" lon="29.48446">
        <ele>279.086836</ele>
        <time>2021-11-17T09:34:39.163Z</time>
      </trkpt>
      <trkpt lat="40.29791" lon="29.48331">
        <ele>280.591588</ele>
        <time>2021-11-17T09:35:04.622Z</time>
      </trkpt>
      <trkpt lat="40.2979" lon="29.48306">
        <ele>280.951688</ele>
        <time>2021-11-17T09:35:10.696Z</time>
      </trkpt>
      <trkpt lat="40.29786" lon="29.48217">
        <ele>282.241086</ele>
        <time>2021-11-17T09:35:31.673Z</time>
      </trkpt>
      <trkpt lat="40.29788" lon="29.48159">
        <ele>282.980556</ele>
        <time>2021-11-17T09:35:44.672Z</time>
      </trkpt>
      <trkpt lat="40.29802" lon="29.48102">
        <ele>283.605112</ele>
        <time>2021-11-17T09:35:57.844Z</time>
      </trkpt>
      <trkpt lat="40.29997" lon="29.47581">
        <ele>289.703911</ele>
        <time>2021-11-17T09:37:58.640Z</time>
      </trkpt>
      <trkpt lat="40.30023" lon="29.47532">
        <ele>290.465031</ele>
        <time>2021-11-17T09:38:11.858Z</time>
      </trkpt>
      <trkpt lat="40.30043" lon="29.47511">
        <ele>291.136097</ele>
        <time>2021-11-17T09:38:19.513Z</time>
      </trkpt>
      <trkpt lat="40.30104" lon="29.47481">
        <ele>292.842401</ele>
        <time>2021-11-17T09:38:40.102Z</time>
      </trkpt>
      <trkpt lat="40.3011" lon="29.47468">
        <ele>293.145915</ele>
        <time>2021-11-17T09:38:43.934Z</time>
      </trkpt>
      <trkpt lat="40.30113" lon="29.474">
        <ele>294.506441</ele>
        <time>2021-11-17T09:39:01.938Z</time>
      </trkpt>
      <trkpt lat="40.30135" lon="29.47362">
        <ele>295.994851</ele>
        <time>2021-11-17T09:39:15.281Z</time>
      </trkpt>
      <trkpt lat="40.30175" lon="29.47322">
        <ele>298.607233</ele>
        <time>2021-11-17T09:39:34.588Z</time>
      </trkpt>
      <trkpt lat="40.30281" lon="29.47251">
        <ele>304.868092</ele>
        <time>2021-11-17T09:40:30.208Z</time>
      </trkpt>
      <trkpt lat="40.30328" lon="29.47228">
        <ele>307.861971</ele>
        <time>2021-11-17T09:40:54.703Z</time>
      </trkpt>
      <trkpt lat="40.30344" lon="29.4723">
        <ele>308.821163</ele>
        <time>2021-11-17T09:41:02.533Z</time>
      </trkpt>
      <trkpt lat="40.30361" lon="29.47241">
        <ele>309.952506</ele>
        <time>2021-11-17T09:41:11.798Z</time>
      </trkpt>
      <trkpt lat="40.30377" lon="29.4726">
        <ele>311.240738</ele>
        <time>2021-11-17T09:41:22.150Z</time>
      </trkpt>
      <trkpt lat="40.30511" lon="29.47513">
        <ele>323.545094</ele>
        <time>2021-11-17T09:43:02.386Z</time>
      </trkpt>
      <trkpt lat="40.30535" lon="29.47529">
        <ele>324.799545</ele>
        <time>2021-11-17T09:43:12.622Z</time>
      </trkpt>
      <trkpt lat="40.3055" lon="29.47525">
        <ele>325.49338</ele>
        <time>2021-11-17T09:43:18.504Z</time>
      </trkpt>
      <trkpt lat="40.30567" lon="29.47505">
        <ele>326.52863</ele>
        <time>2021-11-17T09:43:27.392Z</time>
      </trkpt>
      <trkpt lat="40.3057" lon="29.47488">
        <ele>327.131802</ele>
        <time>2021-11-17T09:43:32.588Z</time>
      </trkpt>
      <trkpt lat="40.30568" lon="29.47465">
        <ele>327.932</ele>
        <time>2021-11-17T09:43:39.576Z</time>
      </trkpt>
      <trkpt lat="40.3054" lon="29.47372">
        <ele>331.388226</ele>
        <time>2021-11-17T09:44:10.500Z</time>
      </trkpt>
      <trkpt lat="40.30541" lon="29.47354">
        <ele>332.012088</ele>
        <time>2021-11-17T09:44:16.189Z</time>
      </trkpt>
      <trkpt lat="40.30558" lon="29.47334">
        <ele>333.002903</ele>
        <time>2021-11-17T09:44:25.778Z</time>
      </trkpt>
      <trkpt lat="40.3058" lon="29.47328">
        <ele>333.974476</ele>
        <time>2021-11-17T09:44:35.327Z</time>
      </trkpt>
      <trkpt lat="40.3065" lon="29.47327">
        <ele>337.001259</ele>
        <time>2021-11-17T09:45:04.237Z</time>
      </trkpt>
      <trkpt lat="40.30732" lon="29.4734">
        <ele>340.193364</ele>
        <time>2021-11-17T09:45:35.452Z</time>
      </trkpt>
      <trkpt lat="40.30772" lon="29.47363">
        <ele>341.075832</ele>
        <time>2021-11-17T09:45:49.963Z</time>
      </trkpt>
      <trkpt lat="40.30797" lon="29.47357">
        <ele>341.589339</ele>
        <time>2021-11-17T09:45:57.666Z</time>
      </trkpt>
      <trkpt lat="40.30806" lon="29.47342">
        <ele>341.883414</ele>
        <time>2021-11-17T09:46:01.792Z</time>
      </trkpt>
      <trkpt lat="40.30811" lon="29.4732">
        <ele>342.237116</ele>
        <time>2021-11-17T09:46:06.651Z</time>
      </trkpt>
      <trkpt lat="40.30817" lon="29.47247">
        <ele>343.368385</ele>
        <time>2021-11-17T09:46:21.413Z</time>
      </trkpt>
      <trkpt lat="40.30824" lon="29.47224">
        <ele>343.64288</ele>
        <time>2021-11-17T09:46:26.177Z</time>
      </trkpt>
      <trkpt lat="40.30846" lon="29.47202">
        <ele>343.967266</ele>
        <time>2021-11-17T09:46:33.278Z</time>
      </trkpt>
      <trkpt lat="40.30861" lon="29.47198">
        <ele>344.146736</ele>
        <time>2021-11-17T09:46:37.247Z</time>
      </trkpt>
      <trkpt lat="40.30893" lon="29.47207">
        <ele>344.530459</ele>
        <time>2021-11-17T09:46:45.907Z</time>
      </trkpt>
      <trkpt lat="40.30904" lon="29.47205">
        <ele>344.660665</ele>
        <time>2021-11-17T09:46:48.902Z</time>
      </trkpt>
      <trkpt lat="40.3092" lon="29.47186">
        <ele>344.913746</ele>
        <time>2021-11-17T09:46:54.630Z</time>
      </trkpt>
      <trkpt lat="40.30931" lon="29.47133">
        <ele>345.404848</ele>
        <time>2021-11-17T09:47:06.073Z</time>
      </trkpt>
      <trkpt lat="40.30939" lon="29.47115">
        <ele>345.591123</ele>
        <time>2021-11-17T09:47:10.504Z</time>
      </trkpt>
      <trkpt lat="40.30948" lon="29.47105">
        <ele>345.758951</ele>
        <time>2021-11-17T09:47:13.870Z</time>
      </trkpt>
      <trkpt lat="40.30996" lon="29.471">
        <ele>346.456082</ele>
        <time>2021-11-17T09:47:28.168Z</time>
      </trkpt>
      <trkpt lat="40.31007" lon="29.4709">
        <ele>346.649864</ele>
        <time>2021-11-17T09:47:32.080Z</time>
      </trkpt>
      <trkpt lat="40.31037" lon="29.47">
        <ele>347.734266</ele>
        <time>2021-11-17T09:47:53.132Z</time>
      </trkpt>
      <trkpt lat="40.31064" lon="29.46958">
        <ele>348.306516</ele>
        <time>2021-11-17T09:48:04.333Z</time>
      </trkpt>
      <trkpt lat="40.31082" lon="29.46903">
        <ele>348.797201</ele>
        <time>2021-11-17T09:48:16.086Z</time>
      </trkpt>
      <trkpt lat="40.31097" lon="29.4688">
        <ele>349.04532</ele>
        <time>2021-11-17T09:48:22.105Z</time>
      </trkpt>
      <trkpt lat="40.31126" lon="29.46861">
        <ele>349.393853</ele>
        <time>2021-11-17T09:48:30.647Z</time>
      </trkpt>
      <trkpt lat="40.31134" lon="29.46847">
        <ele>349.53728</ele>
        <time>2021-11-17T09:48:34.162Z</time>
      </trkpt>
      <trkpt lat="40.31138" lon="29.46832">
        <ele>349.667557</ele>
        <time>2021-11-17T09:48:37.358Z</time>
      </trkpt>
      <trkpt lat="40.31107" lon="29.46765">
        <ele>350.437468</ele>
        <time>2021-11-17T09:48:53.223Z</time>
      </trkpt>
      <trkpt lat="40.31129" lon="29.46686">
        <ele>351.648373</ele>
        <time>2021-11-17T09:49:11.728Z</time>
      </trkpt>
      <trkpt lat="40.3114" lon="29.46666">
        <ele>352.003416</ele>
        <time>2021-11-17T09:49:17.550Z</time>
      </trkpt>
      <trkpt lat="40.31217" lon="29.46609">
        <ele>353.661666</ele>
        <time>2021-11-17T09:49:45.620Z</time>
      </trkpt>
      <trkpt lat="40.31243" lon="29.46576">
        <ele>354.285571</ele>
        <time>2021-11-17T09:49:56.534Z</time>
      </trkpt>
      <trkpt lat="40.31255" lon="29.46519">
        <ele>355.067088</ele>
        <time>2021-11-17T09:50:09.632Z</time>
      </trkpt>
      <trkpt lat="40.31272" lon="29.46483">
        <ele>355.626059</ele>
        <time>2021-11-17T09:50:18.795Z</time>
      </trkpt>
      <trkpt lat="40.31335" lon="29.46384">
        <ele>357.445416</ele>
        <time>2021-11-17T09:50:46.333Z</time>
      </trkpt>
      <trkpt lat="40.31385" lon="29.46333">
        <ele>358.729673</ele>
        <time>2021-11-17T09:51:04.390Z</time>
      </trkpt>
      <trkpt lat="40.31386" lon="29.46312">
        <ele>359.064788</ele>
        <time>2021-11-17T09:51:09.345Z</time>
      </trkpt>
      <trkpt lat="40.31377" lon="29.4625">
        <ele>360.040681</ele>
        <time>2021-11-17T09:51:24.635Z</time>
      </trkpt>
      <trkpt lat="40.31359" lon="29.46195">
        <ele>361.563328</ele>
        <time>2021-11-17T09:51:40.511Z</time>
      </trkpt>
      <trkpt lat="40.31358" lon="29.46082">
        <ele>364.919697</ele>
        <time>2021-11-17T09:52:13.542Z</time>
      </trkpt>
      <trkpt lat="40.31375" lon="29.4601">
        <ele>367.156212</ele>
        <time>2021-11-17T09:52:36.240Z</time>
      </trkpt>
      <trkpt lat="40.31412" lon="29.45944">
        <ele>369.946017</ele>
        <time>2021-11-17T09:53:01.867Z</time>
      </trkpt>
      <trkpt lat="40.31461" lon="29.45907">
        <ele>372.492319</ele>
        <time>2021-11-17T09:53:24.760Z</time>
      </trkpt>
      <trkpt lat="40.31496" lon="29.45869">
        <ele>374.541679</ele>
        <time>2021-11-17T09:53:43.036Z</time>
      </trkpt>
      <trkpt lat="40.31533" lon="29.45886">
        <ele>376.035354</ele>
        <time>2021-11-17T09:53:59.442Z</time>
      </trkpt>
      <trkpt lat="40.31592" lon="29.45893">
        <ele>377.861098</ele>
        <time>2021-11-17T09:54:22.805Z</time>
      </trkpt>
      <trkpt lat="40.31613" lon="29.45886">
        <ele>378.540064</ele>
        <time>2021-11-17T09:54:30.899Z</time>
      </trkpt>
      <trkpt lat="40.3167" lon="29.4583">
        <ele>380.755984</ele>
        <time>2021-11-17T09:54:54.117Z</time>
      </trkpt>
      <trkpt lat="40.3169" lon="29.45818">
        <ele>380.981926</ele>
        <time>2021-11-17T09:55:00.295Z</time>
      </trkpt>
      <trkpt lat="40.31703" lon="29.45801">
        <ele>380.966211</ele>
        <time>2021-11-17T09:55:04.496Z</time>
      </trkpt>
      <trkpt lat="40.31712" lon="29.4579">
        <ele>380.955056</ele>
        <time>2021-11-17T09:55:07.793Z</time>
      </trkpt>
      <trkpt lat="40.31721" lon="29.45748">
        <ele>380.925842</ele>
        <time>2021-11-17T09:55:15.532Z</time>
      </trkpt>
      <trkpt lat="40.3173" lon="29.45696">
        <ele>380.890172</ele>
        <time>2021-11-17T09:55:24.340Z</time>
      </trkpt>
      <trkpt lat="40.31758" lon="29.45595">
        <ele>380.977059</ele>
        <time>2021-11-17T09:55:39.822Z</time>
      </trkpt>
      <trkpt lat="40.31771" lon="29.45564">
        <ele>381.161035</ele>
        <time>2021-11-17T09:55:45.279Z</time>
      </trkpt>
      <trkpt lat="40.31799" lon="29.45518">
        <ele>381.467116</ele>
        <time>2021-11-17T09:55:55.223Z</time>
      </trkpt>
      <trkpt lat="40.31819" lon="29.45433">
        <ele>381.92969</ele>
        <time>2021-11-17T09:56:14.044Z</time>
      </trkpt>
      <trkpt lat="40.31914" lon="29.45272">
        <ele>385.738843</ele>
        <time>2021-11-17T09:57:06.720Z</time>
      </trkpt>
      <trkpt lat="40.31931" lon="29.45224">
        <ele>386.832067</ele>
        <time>2021-11-17T09:57:20.879Z</time>
      </trkpt>
      <trkpt lat="40.31941" lon="29.45177">
        <ele>387.202772</ele>
        <time>2021-11-17T09:57:32.849Z</time>
      </trkpt>
      <trkpt lat="40.31958" lon="29.45045">
        <ele>388.017003</ele>
        <time>2021-11-17T09:58:00.264Z</time>
      </trkpt>
      <trkpt lat="40.32022" lon="29.44529">
        <ele>383.542725</ele>
        <time>2021-11-17T09:59:13.308Z</time>
      </trkpt>
      <trkpt lat="40.32026" lon="29.44454">
        <ele>383.635698</ele>
        <time>2021-11-17T09:59:25.670Z</time>
      </trkpt>
      <trkpt lat="40.32039" lon="29.44401">
        <ele>383.771477</ele>
        <time>2021-11-17T09:59:35.736Z</time>
      </trkpt>
      <trkpt lat="40.32068" lon="29.44296">
        <ele>384.043832</ele>
        <time>2021-11-17T09:59:57.957Z</time>
      </trkpt>
      <trkpt lat="40.32094" lon="29.44239">
        <ele>384.509179</ele>
        <time>2021-11-17T10:00:11.430Z</time>
      </trkpt>
      <trkpt lat="40.32112" lon="29.44218">
        <ele>384.731983</ele>
        <time>2021-11-17T10:00:17.795Z</time>
      </trkpt>
      <trkpt lat="40.32291" lon="29.44076">
        <ele>386.850294</ele>
        <time>2021-11-17T10:01:11.237Z</time>
      </trkpt>
      <trkpt lat="40.32487" lon="29.43867">
        <ele>390.299754</ele>
        <time>2021-11-17T10:02:22.044Z</time>
      </trkpt>
      <trkpt lat="40.32567" lon="29.43808">
        <ele>391.757434</ele>
        <time>2021-11-17T10:02:49.299Z</time>
      </trkpt>
      <trkpt lat="40.32684" lon="29.43717">
        <ele>393.613799</ele>
        <time>2021-11-17T10:03:27.375Z</time>
      </trkpt>
      <trkpt lat="40.32839" lon="29.43601">
        <ele>395.106897</ele>
        <time>2021-11-17T10:04:12.366Z</time>
      </trkpt>
      <trkpt lat="40.3314" lon="29.43484">
        <ele>396.498325</ele>
        <time>2021-11-17T10:05:28.105Z</time>
      </trkpt>
      <trkpt lat="40.3371" lon="29.43206">
        <ele>394.266961</ele>
        <time>2021-11-17T10:07:35.299Z</time>
      </trkpt>
      <trkpt lat="40.33872" lon="29.43167">
        <ele>393.052861</ele>
        <time>2021-11-17T10:08:08.294Z</time>
      </trkpt>
      <trkpt lat="40.34019" lon="29.43121">
        <ele>391.263769</ele>
        <time>2021-11-17T10:08:36.738Z</time>
      </trkpt>
      <trkpt lat="40.34151" lon="29.43113">
        <ele>389.094611</ele>
        <time>2021-11-17T10:09:00.553Z</time>
      </trkpt>
      <trkpt lat="40.34196" lon="29.43098">
        <ele>388.282314</ele>
        <time>2021-11-17T10:09:08.799Z</time>
      </trkpt>
      <trkpt lat="40.3433" lon="29.43006">
        <ele>385.428951</ele>
        <time>2021-11-17T10:09:35.514Z</time>
      </trkpt>
      <trkpt lat="40.34358" lon="29.42977">
        <ele>384.92092</ele>
        <time>2021-11-17T10:09:41.911Z</time>
      </trkpt>
      <trkpt lat="40.34404" lon="29.42907">
        <ele>384.014546</ele>
        <time>2021-11-17T10:09:54.748Z</time>
      </trkpt>
      <trkpt lat="40.34597" lon="29.42776">
        <ele>382.403808</ele>
        <time>2021-11-17T10:10:37.715Z</time>
      </trkpt>
      <trkpt lat="40.34622" lon="29.42744">
        <ele>382.260183</ele>
        <time>2021-11-17T10:10:45.663Z</time>
      </trkpt>
      <trkpt lat="40.34688" lon="29.42613">
        <ele>383.531666</ele>
        <time>2021-11-17T10:11:16.767Z</time>
      </trkpt>
      <trkpt lat="40.34699" lon="29.42581">
        <ele>383.850136</ele>
        <time>2021-11-17T10:11:24.490Z</time>
      </trkpt>
      <trkpt lat="40.3471" lon="29.42508">
        <ele>384.529713</ele>
        <time>2021-11-17T10:11:41.350Z</time>
      </trkpt>
      <trkpt lat="40.34734" lon="29.42425">
        <ele>385.357228</ele>
        <time>2021-11-17T10:12:01.708Z</time>
      </trkpt>
      <trkpt lat="40.34756" lon="29.42284">
        <ele>386.339772</ele>
        <time>2021-11-17T10:12:30.560Z</time>
      </trkpt>
      <trkpt lat="40.34752" lon="29.4222">
        <ele>385.370064</ele>
        <time>2021-11-17T10:12:40.423Z</time>
      </trkpt>
      <trkpt lat="40.34767" lon="29.42087">
        <ele>383.339761</ele>
        <time>2021-11-17T10:12:57.787Z</time>
      </trkpt>
      <trkpt lat="40.34765" lon="29.41959">
        <ele>379.038951</ele>
        <time>2021-11-17T10:13:12.754Z</time>
      </trkpt>
      <trkpt lat="40.34798" lon="29.41896">
        <ele>376.167307</ele>
        <time>2021-11-17T10:13:21.428Z</time>
      </trkpt>
      <trkpt lat="40.34805" lon="29.41819">
        <ele>373.130227</ele>
        <time>2021-11-17T10:13:30.182Z</time>
      </trkpt>
      <trkpt lat="40.3484" lon="29.41755">
        <ele>369.753062</ele>
        <time>2021-11-17T10:13:39.086Z</time>
      </trkpt>
      <trkpt lat="40.3492" lon="29.41661">
        <ele>363.73148</ele>
        <time>2021-11-17T10:13:54.951Z</time>
      </trkpt>
      <trkpt lat="40.35092" lon="29.41479">
        <ele>353.115264</ele>
        <time>2021-11-17T10:14:28.088Z</time>
      </trkpt>
      <trkpt lat="40.35124" lon="29.41429">
        <ele>351.582783</ele>
        <time>2021-11-17T10:14:36.160Z</time>
      </trkpt>
      <trkpt lat="40.35142" lon="29.41379">
        <ele>350.284892</ele>
        <time>2021-11-17T10:14:43.393Z</time>
      </trkpt>
      <trkpt lat="40.35142" lon="29.41352">
        <ele>349.65118</ele>
        <time>2021-11-17T10:14:47.049Z</time>
      </trkpt>
      <trkpt lat="40.35123" lon="29.4127">
        <ele>348.990068</ele>
        <time>2021-11-17T10:14:59.643Z</time>
      </trkpt>
      <trkpt lat="40.35128" lon="29.41247">
        <ele>348.983136</ele>
        <time>2021-11-17T10:15:03.384Z</time>
      </trkpt>
      <trkpt lat="40.35136" lon="29.41238">
        <ele>348.979129</ele>
        <time>2021-11-17T10:15:05.726Z</time>
      </trkpt>
      <trkpt lat="40.35227" lon="29.41232">
        <ele>348.944477</ele>
        <time>2021-11-17T10:15:26.919Z</time>
      </trkpt>
      <trkpt lat="40.35301" lon="29.41213">
        <ele>350.118548</ele>
        <time>2021-11-17T10:15:48.003Z</time>
      </trkpt>
      <trkpt lat="40.35361" lon="29.4123">
        <ele>351.329437</ele>
        <time>2021-11-17T10:16:07.325Z</time>
      </trkpt>
      <trkpt lat="40.35414" lon="29.41291">
        <ele>352.537965</ele>
        <time>2021-11-17T10:16:30.332Z</time>
      </trkpt>
      <trkpt lat="40.35424" lon="29.41319">
        <ele>352.640034</ele>
        <time>2021-11-17T10:16:37.898Z</time>
      </trkpt>
      <trkpt lat="40.35423" lon="29.41354">
        <ele>352.755644</ele>
        <time>2021-11-17T10:16:46.091Z</time>
      </trkpt>
      <trkpt lat="40.35413" lon="29.414">
        <ele>352.913539</ele>
        <time>2021-11-17T10:16:56.025Z</time>
      </trkpt>
      <trkpt lat="40.35387" lon="29.41468">
        <ele>353.164663</ele>
        <time>2021-11-17T10:17:08.459Z</time>
      </trkpt>
      <trkpt lat="40.35386" lon="29.41516">
        <ele>352.627045</ele>
        <time>2021-11-17T10:17:14.897Z</time>
      </trkpt>
      <trkpt lat="40.35394" lon="29.41539">
        <ele>351.697983</ele>
        <time>2021-11-17T10:17:18.020Z</time>
      </trkpt>
      <trkpt lat="40.3546" lon="29.41633">
        <ele>347.001124</ele>
        <time>2021-11-17T10:17:32.640Z</time>
      </trkpt>
      <trkpt lat="40.35485" lon="29.41643">
        <ele>345.740838</ele>
        <time>2021-11-17T10:17:36.442Z</time>
      </trkpt>
      <trkpt lat="40.35535" lon="29.41623">
        <ele>342.907907</ele>
        <time>2021-11-17T10:17:43.983Z</time>
      </trkpt>
      <trkpt lat="40.3556" lon="29.41623">
        <ele>341.427982</ele>
        <time>2021-11-17T10:17:47.612Z</time>
      </trkpt>
      <trkpt lat="40.35598" lon="29.41631">
        <ele>339.149732</ele>
        <time>2021-11-17T10:17:53.151Z</time>
      </trkpt>
      <trkpt lat="40.35659" lon="29.41656">
        <ele>335.366709</ele>
        <time>2021-11-17T10:18:02.528Z</time>
      </trkpt>
      <trkpt lat="40.35704" lon="29.41662">
        <ele>333.199733</ele>
        <time>2021-11-17T10:18:09.522Z</time>
      </trkpt>
      <trkpt lat="40.35715" lon="29.4167">
        <ele>332.778462</ele>
        <time>2021-11-17T10:18:11.274Z</time>
      </trkpt>
      <trkpt lat="40.35737" lon="29.41686">
        <ele>331.874257</ele>
        <time>2021-11-17T10:18:15.594Z</time>
      </trkpt>
      <trkpt lat="40.35756" lon="29.41718">
        <ele>330.788238</ele>
        <time>2021-11-17T10:18:20.658Z</time>
      </trkpt>
      <trkpt lat="40.35761" lon="29.4175">
        <ele>329.913746</ele>
        <time>2021-11-17T10:18:24.690Z</time>
      </trkpt>
      <trkpt lat="40.35775" lon="29.41774">
        <ele>329.104602</ele>
        <time>2021-11-17T10:18:28.461Z</time>
      </trkpt>
      <trkpt lat="40.35861" lon="29.41835">
        <ele>325.931781</ele>
        <time>2021-11-17T10:18:44.649Z</time>
      </trkpt>
      <trkpt lat="40.35887" lon="29.41845">
        <ele>325.107226</ele>
        <time>2021-11-17T10:18:49.103Z</time>
      </trkpt>
      <trkpt lat="40.35912" lon="29.41893">
        <ele>323.752004</ele>
        <time>2021-11-17T10:18:56.478Z</time>
      </trkpt>
      <trkpt lat="40.35922" lon="29.41911">
        <ele>323.242492</ele>
        <time>2021-11-17T10:18:59.104Z</time>
      </trkpt>
      <trkpt lat="40.3596" lon="29.41933">
        <ele>322.040236</ele>
        <time>2021-11-17T10:19:05.903Z</time>
      </trkpt>
      <trkpt lat="40.36041" lon="29.41921">
        <ele>320.440757</ele>
        <time>2021-11-17T10:19:19.340Z</time>
      </trkpt>
      <trkpt lat="40.36116" lon="29.41945">
        <ele>318.925989</ele>
        <time>2021-11-17T10:19:33.574Z</time>
      </trkpt>
      <trkpt lat="40.36149" lon="29.41945">
        <ele>318.798985</ele>
        <time>2021-11-17T10:19:40.524Z</time>
      </trkpt>
      <trkpt lat="40.36201" lon="29.4191">
        <ele>319.384645</ele>
        <time>2021-11-17T10:19:54.300Z</time>
      </trkpt>
      <trkpt lat="40.36213" lon="29.4191">
        <ele>319.504904</ele>
        <time>2021-11-17T10:19:57.411Z</time>
      </trkpt>
      <trkpt lat="40.36325" lon="29.41953">
        <ele>320.819261</ele>
        <time>2021-11-17T10:20:32.812Z</time>
      </trkpt>
      <trkpt lat="40.36406" lon="29.41957">
        <ele>322.104628</ele>
        <time>2021-11-17T10:20:57.431Z</time>
      </trkpt>
      <trkpt lat="40.36475" lon="29.41982">
        <ele>323.239724</ele>
        <time>2021-11-17T10:21:17.110Z</time>
      </trkpt>
      <trkpt lat="40.36548" lon="29.41972">
        <ele>322.851133</ele>
        <time>2021-11-17T10:21:34.183Z</time>
      </trkpt>
      <trkpt lat="40.36583" lon="29.41929">
        <ele>322.563077</ele>
        <time>2021-11-17T10:21:43.425Z</time>
      </trkpt>
      <trkpt lat="40.36602" lon="29.41915">
        <ele>322.432155</ele>
        <time>2021-11-17T10:21:47.502Z</time>
      </trkpt>
      <trkpt lat="40.36618" lon="29.41892">
        <ele>322.289576</ele>
        <time>2021-11-17T10:21:51.737Z</time>
      </trkpt>
      <trkpt lat="40.36646" lon="29.41815">
        <ele>321.913321</ele>
        <time>2021-11-17T10:22:03.355Z</time>
      </trkpt>
      <trkpt lat="40.36657" lon="29.418">
        <ele>321.822597</ele>
        <time>2021-11-17T10:22:06.259Z</time>
      </trkpt>
      <trkpt lat="40.36731" lon="29.41738">
        <ele>321.320474</ele>
        <time>2021-11-17T10:22:23.944Z</time>
      </trkpt>
      <trkpt lat="40.36755" lon="29.41672">
        <ele>322.003823</ele>
        <time>2021-11-17T10:22:38.603Z</time>
      </trkpt>
      <trkpt lat="40.368" lon="29.4158">
        <ele>324.394366</ele>
        <time>2021-11-17T10:23:06.628Z</time>
      </trkpt>
      <trkpt lat="40.36838" lon="29.41543">
        <ele>325.752261</ele>
        <time>2021-11-17T10:23:25.326Z</time>
      </trkpt>
      <trkpt lat="40.36867" lon="29.41531">
        <ele>326.51724</ele>
        <time>2021-11-17T10:23:37.447Z</time>
      </trkpt>
      <trkpt lat="40.36894" lon="29.41546">
        <ele>327.051186</ele>
        <time>2021-11-17T10:23:48.837Z</time>
      </trkpt>
      <trkpt lat="40.3693" lon="29.41584">
        <ele>327.892513</ele>
        <time>2021-11-17T10:24:05.425Z</time>
      </trkpt>
      <trkpt lat="40.36953" lon="29.41619">
        <ele>328.533827</ele>
        <time>2021-11-17T10:24:15.950Z</time>
      </trkpt>
      <trkpt lat="40.36965" lon="29.41621">
        <ele>328.754121</ele>
        <time>2021-11-17T10:24:18.970Z</time>
      </trkpt>
      <trkpt lat="40.37024" lon="29.41603">
        <ele>329.099416</ele>
        <time>2021-11-17T10:24:31.257Z</time>
      </trkpt>
      <trkpt lat="40.37057" lon="29.41585">
        <ele>327.788229</ele>
        <time>2021-11-17T10:24:37.277Z</time>
      </trkpt>
      <trkpt lat="40.37113" lon="29.41528">
        <ele>325.188129</ele>
        <time>2021-11-17T10:24:48.301Z</time>
      </trkpt>
      <trkpt lat="40.37193" lon="29.4149">
        <ele>322.003696</ele>
        <time>2021-11-17T10:25:01.062Z</time>
      </trkpt>
      <trkpt lat="40.37245" lon="29.41484">
        <ele>319.960294</ele>
        <time>2021-11-17T10:25:08.939Z</time>
      </trkpt>
      <trkpt lat="40.37324" lon="29.41464">
        <ele>316.810826</ele>
        <time>2021-11-17T10:25:21.666Z</time>
      </trkpt>
      <trkpt lat="40.37356" lon="29.41469">
        <ele>315.937494</ele>
        <time>2021-11-17T10:25:27.292Z</time>
      </trkpt>
      <trkpt lat="40.37392" lon="29.4149">
        <ele>315.833158</ele>
        <time>2021-11-17T10:25:34.869Z</time>
      </trkpt>
      <trkpt lat="40.37402" lon="29.41491">
        <ele>315.806596</ele>
        <time>2021-11-17T10:25:36.934Z</time>
      </trkpt>
      <trkpt lat="40.37451" lon="29.41468">
        <ele>315.668774</ele>
        <time>2021-11-17T10:25:48.583Z</time>
      </trkpt>
      <trkpt lat="40.37476" lon="29.41465">
        <ele>315.602286</ele>
        <time>2021-11-17T10:25:54.870Z</time>
      </trkpt>
      <trkpt lat="40.37536" lon="29.41477">
        <ele>315.247828</ele>
        <time>2021-11-17T10:26:11.193Z</time>
      </trkpt>
      <trkpt lat="40.37587" lon="29.41513">
        <ele>314.472322</ele>
        <time>2021-11-17T10:26:26.055Z</time>
      </trkpt>
      <trkpt lat="40.37635" lon="29.41565">
        <ele>313.638837</ele>
        <time>2021-11-17T10:26:37.914Z</time>
      </trkpt>
      <trkpt lat="40.37666" lon="29.41585">
        <ele>313.176239</ele>
        <time>2021-11-17T10:26:43.376Z</time>
      </trkpt>
      <trkpt lat="40.37687" lon="29.41606">
        <ele>311.573416</ele>
        <time>2021-11-17T10:26:47.306Z</time>
      </trkpt>
      <trkpt lat="40.37706" lon="29.41638">
        <ele>309.153609</ele>
        <time>2021-11-17T10:26:51.747Z</time>
      </trkpt>
      <trkpt lat="40.37715" lon="29.41643">
        <ele>308.388472</ele>
        <time>2021-11-17T10:26:53.133Z</time>
      </trkpt>
      <trkpt lat="40.37762" lon="29.41629">
        <ele>304.615189</ele>
        <time>2021-11-17T10:26:59.819Z</time>
      </trkpt>
      <trkpt lat="40.37834" lon="29.41629">
        <ele>298.981825</ele>
        <time>2021-11-17T10:27:09.676Z</time>
      </trkpt>
      <trkpt lat="40.37867" lon="29.41602">
        <ele>296.487155</ele>
        <time>2021-11-17T10:27:14.992Z</time>
      </trkpt>
      <trkpt lat="40.37884" lon="29.41577">
        <ele>294.84939</ele>
        <time>2021-11-17T10:27:18.520Z</time>
      </trkpt>
      <trkpt lat="40.37909" lon="29.41566">
        <ele>293.157818</ele>
        <time>2021-11-17T10:27:22.268Z</time>
      </trkpt>
      <trkpt lat="40.37944" lon="29.41564">
        <ele>290.910267</ele>
        <time>2021-11-17T10:27:27.458Z</time>
      </trkpt>
      <trkpt lat="40.37978" lon="29.41555">
        <ele>288.685094</ele>
        <time>2021-11-17T10:27:32.934Z</time>
      </trkpt>
      <trkpt lat="40.38016" lon="29.41574">
        <ele>286.839307</ele>
        <time>2021-11-17T10:27:39.785Z</time>
      </trkpt>
      <trkpt lat="40.38036" lon="29.41578">
        <ele>286.257433</ele>
        <time>2021-11-17T10:27:43.317Z</time>
      </trkpt>
      <trkpt lat="40.38096" lon="29.41551">
        <ele>284.43315</ele>
        <time>2021-11-17T10:27:54.089Z</time>
      </trkpt>
      <trkpt lat="40.38135" lon="29.41545">
        <ele>283.303762</ele>
        <time>2021-11-17T10:28:00.711Z</time>
      </trkpt>
      <trkpt lat="40.38143" lon="29.41548">
        <ele>283.064464</ele>
        <time>2021-11-17T10:28:02.125Z</time>
      </trkpt>
      <trkpt lat="40.38215" lon="29.41639">
        <ele>278.68137</ele>
        <time>2021-11-17T10:28:18.079Z</time>
      </trkpt>
      <trkpt lat="40.38228" lon="29.41649">
        <ele>277.936151</ele>
        <time>2021-11-17T10:28:20.323Z</time>
      </trkpt>
      <trkpt lat="40.3826" lon="29.41652">
        <ele>276.349423</ele>
        <time>2021-11-17T10:28:25.027Z</time>
      </trkpt>
      <trkpt lat="40.38289" lon="29.41642">
        <ele>274.86645</ele>
        <time>2021-11-17T10:28:29.348Z</time>
      </trkpt>
      <trkpt lat="40.38326" lon="29.41582">
        <ele>272.055455</ele>
        <time>2021-11-17T10:28:37.961Z</time>
      </trkpt>
      <trkpt lat="40.38398" lon="29.41519">
        <ele>268.066897</ele>
        <time>2021-11-17T10:28:51.127Z</time>
      </trkpt>
      <trkpt lat="40.38418" lon="29.41495">
        <ele>266.817867</ele>
        <time>2021-11-17T10:28:55.372Z</time>
      </trkpt>
      <trkpt lat="40.38438" lon="29.41493">
        <ele>265.893273</ele>
        <time>2021-11-17T10:28:58.598Z</time>
      </trkpt>
      <trkpt lat="40.38503" lon="29.41551">
        <ele>262.96871</ele>
        <time>2021-11-17T10:29:11.546Z</time>
      </trkpt>
      <trkpt lat="40.38561" lon="29.41551">
        <ele>260.955117</ele>
        <time>2021-11-17T10:29:21.064Z</time>
      </trkpt>
      <trkpt lat="40.38598" lon="29.41567">
        <ele>259.602696</ele>
        <time>2021-11-17T10:29:27.306Z</time>
      </trkpt>
      <trkpt lat="40.38614" lon="29.41582">
        <ele>258.920135</ele>
        <time>2021-11-17T10:29:30.388Z</time>
      </trkpt>
      <trkpt lat="40.38632" lon="29.41626">
        <ele>256.68815</ele>
        <time>2021-11-17T10:29:36.255Z</time>
      </trkpt>
      <trkpt lat="40.38656" lon="29.4173">
        <ele>251.728498</ele>
        <time>2021-11-17T10:29:48.498Z</time>
      </trkpt>
      <trkpt lat="40.38686" lon="29.41773">
        <ele>249.06714</ele>
        <time>2021-11-17T10:29:54.832Z</time>
      </trkpt>
      <trkpt lat="40.38691" lon="29.41804">
        <ele>247.352878</ele>
        <time>2021-11-17T10:29:58.240Z</time>
      </trkpt>
      <trkpt lat="40.38713" lon="29.41852">
        <ele>243.294425</ele>
        <time>2021-11-17T10:30:04.188Z</time>
      </trkpt>
      <trkpt lat="40.38758" lon="29.41906">
        <ele>237.49583</ele>
        <time>2021-11-17T10:30:12.573Z</time>
      </trkpt>
      <trkpt lat="40.38805" lon="29.41933">
        <ele>232.616292</ele>
        <time>2021-11-17T10:30:19.562Z</time>
      </trkpt>
      <trkpt lat="40.38816" lon="29.41962">
        <ele>230.085026</ele>
        <time>2021-11-17T10:30:22.830Z</time>
      </trkpt>
      <trkpt lat="40.38819" lon="29.42024">
        <ele>224.400586</ele>
        <time>2021-11-17T10:30:29.074Z</time>
      </trkpt>
      <trkpt lat="40.38827" lon="29.4205">
        <ele>221.834803</ele>
        <time>2021-11-17T10:30:31.920Z</time>
      </trkpt>
      <trkpt lat="40.38834" lon="29.42057">
        <ele>220.777743</ele>
        <time>2021-11-17T10:30:33.068Z</time>
      </trkpt>
      <trkpt lat="40.38888" lon="29.42076">
        <ele>214.061782</ele>
        <time>2021-11-17T10:30:40.535Z</time>
      </trkpt>
      <trkpt lat="40.38899" lon="29.42084">
        <ele>212.551151</ele>
        <time>2021-11-17T10:30:42.167Z</time>
      </trkpt>
      <trkpt lat="40.38908" lon="29.42094">
        <ele>211.134767</ele>
        <time>2021-11-17T10:30:43.741Z</time>
      </trkpt>
      <trkpt lat="40.38945" lon="29.42166">
        <ele>203.95841</ele>
        <time>2021-11-17T10:30:52.576Z</time>
      </trkpt>
      <trkpt lat="40.3895" lon="29.42184">
        <ele>202.424153</ele>
        <time>2021-11-17T10:30:54.587Z</time>
      </trkpt>
      <trkpt lat="40.38951" lon="29.42227">
        <ele>198.979228</ele>
        <time>2021-11-17T10:30:58.969Z</time>
      </trkpt>
      <trkpt lat="40.38961" lon="29.42294">
        <ele>193.512018</ele>
        <time>2021-11-17T10:31:06.020Z</time>
      </trkpt>
      <trkpt lat="40.38975" lon="29.42336">
        <ele>189.932924</ele>
        <time>2021-11-17T10:31:10.885Z</time>
      </trkpt>
      <trkpt lat="40.39002" lon="29.42457">
        <ele>181.356992</ele>
        <time>2021-11-17T10:31:24.142Z</time>
      </trkpt>
      <trkpt lat="40.39014" lon="29.42472">
        <ele>179.877376</ele>
        <time>2021-11-17T10:31:26.425Z</time>
      </trkpt>
      <trkpt lat="40.39028" lon="29.42461">
        <ele>178.420387</ele>
        <time>2021-11-17T10:31:28.675Z</time>
      </trkpt>
      <trkpt lat="40.39049" lon="29.424">
        <ele>173.934823</ele>
        <time>2021-11-17T10:31:35.724Z</time>
      </trkpt>
      <trkpt lat="40.39061" lon="29.42378">
        <ele>172.332027</ele>
        <time>2021-11-17T10:31:38.583Z</time>
      </trkpt>
      <trkpt lat="40.3908" lon="29.42353">
        <ele>170.240134</ele>
        <time>2021-11-17T10:31:42.325Z</time>
      </trkpt>
      <trkpt lat="40.39094" lon="29.42345">
        <ele>169.052735</ele>
        <time>2021-11-17T10:31:44.459Z</time>
      </trkpt>
      <trkpt lat="40.39114" lon="29.42346">
        <ele>167.496246</ele>
        <time>2021-11-17T10:31:47.259Z</time>
      </trkpt>
      <trkpt lat="40.39157" lon="29.4239">
        <ele>163.256601</ele>
        <time>2021-11-17T10:31:54.969Z</time>
      </trkpt>
      <trkpt lat="40.39177" lon="29.42399">
        <ele>161.612424</ele>
        <time>2021-11-17T10:31:57.995Z</time>
      </trkpt>
      <trkpt lat="40.39226" lon="29.42412">
        <ele>158.478588</ele>
        <time>2021-11-17T10:32:05.239Z</time>
      </trkpt>
      <trkpt lat="40.3925" lon="29.42413">
        <ele>157.136876</ele>
        <time>2021-11-17T10:32:08.772Z</time>
      </trkpt>
      <trkpt lat="40.39266" lon="29.42407">
        <ele>156.207102</ele>
        <time>2021-11-17T10:32:11.242Z</time>
      </trkpt>
      <trkpt lat="40.39277" lon="29.42396">
        <ele>155.434492</ele>
        <time>2021-11-17T10:32:13.300Z</time>
      </trkpt>
      <trkpt lat="40.39287" lon="29.42362">
        <ele>153.883422</ele>
        <time>2021-11-17T10:32:17.460Z</time>
      </trkpt>
      <trkpt lat="40.3926" lon="29.42278">
        <ele>150.045917</ele>
        <time>2021-11-17T10:32:27.963Z</time>
      </trkpt>
      <trkpt lat="40.39255" lon="29.4224">
        <ele>148.604941</ele>
        <time>2021-11-17T10:32:32.419Z</time>
      </trkpt>
      <trkpt lat="40.39259" lon="29.42225">
        <ele>148.011075</ele>
        <time>2021-11-17T10:32:34.251Z</time>
      </trkpt>
      <trkpt lat="40.3927" lon="29.42206">
        <ele>147.11927</ele>
        <time>2021-11-17T10:32:37.001Z</time>
      </trkpt>
      <trkpt lat="40.39304" lon="29.42169">
        <ele>144.952683</ele>
        <time>2021-11-17T10:32:43.693Z</time>
      </trkpt>
      <trkpt lat="40.39394" lon="29.42123">
        <ele>140.158816</ele>
        <time>2021-11-17T10:32:58.395Z</time>
      </trkpt>
      <trkpt lat="40.39403" lon="29.42094">
        <ele>138.939235</ele>
        <time>2021-11-17T10:33:01.993Z</time>
      </trkpt>
      <trkpt lat="40.39402" lon="29.42073">
        <ele>138.119787</ele>
        <time>2021-11-17T10:33:04.387Z</time>
      </trkpt>
      <trkpt lat="40.39391" lon="29.42028">
        <ele>136.279191</ele>
        <time>2021-11-17T10:33:09.783Z</time>
      </trkpt>
      <trkpt lat="40.39359" lon="29.41933">
        <ele>132.240042</ele>
        <time>2021-11-17T10:33:21.718Z</time>
      </trkpt>
      <trkpt lat="40.39332" lon="29.41912">
        <ele>130.741057</ele>
        <time>2021-11-17T10:33:26.390Z</time>
      </trkpt>
      <trkpt lat="40.39323" lon="29.41898">
        <ele>130.074564</ele>
        <time>2021-11-17T10:33:28.477Z</time>
      </trkpt>
      <trkpt lat="40.39318" lon="29.41876">
        <ele>129.239338</ele>
        <time>2021-11-17T10:33:31.076Z</time>
      </trkpt>
      <trkpt lat="40.39326" lon="29.41799">
        <ele>126.414683</ele>
        <time>2021-11-17T10:33:39.994Z</time>
      </trkpt>
      <trkpt lat="40.39337" lon="29.41703">
        <ele>123.448339</ele>
        <time>2021-11-17T10:33:51.444Z</time>
      </trkpt>
      <trkpt lat="40.39359" lon="29.41709">
        <ele>123.073989</ele>
        <time>2021-11-17T10:33:55.381Z</time>
      </trkpt>
      <trkpt lat="40.39374" lon="29.41709">
        <ele>122.838864</ele>
        <time>2021-11-17T10:33:57.883Z</time>
      </trkpt>
      <trkpt lat="40.39398" lon="29.41698">
        <ele>122.418106</ele>
        <time>2021-11-17T10:34:02.427Z</time>
      </trkpt>
      <trkpt lat="40.39414" lon="29.41695">
        <ele>122.162946</ele>
        <time>2021-11-17T10:34:05.178Z</time>
      </trkpt>
      <trkpt lat="40.39436" lon="29.41693">
        <ele>121.796557</ele>
        <time>2021-11-17T10:34:09.276Z</time>
      </trkpt>
      <trkpt lat="40.39455" lon="29.41679">
        <ele>121.447152</ele>
        <time>2021-11-17T10:34:14.174Z</time>
      </trkpt>
      <trkpt lat="40.39472" lon="29.41652">
        <ele>121.004521</ele>
        <time>2021-11-17T10:34:21.564Z</time>
      </trkpt>
      <trkpt lat="40.39471" lon="29.41648">
        <ele>120.958325</ele>
        <time>2021-11-17T10:34:22.461Z</time>
      </trkpt>
      <trkpt lat="40.39482" lon="29.41637">
        <ele>120.934782</ele>
        <time>2021-11-17T10:34:26.391Z</time>
      </trkpt>
      <trkpt lat="40.39497" lon="29.41625">
        <ele>121.415804</ele>
        <time>2021-11-17T10:34:31.946Z</time>
      </trkpt>
      <trkpt lat="40.39534" lon="29.41603">
        <ele>122.572618</ele>
        <time>2021-11-17T10:34:44.874Z</time>
      </trkpt>
      <trkpt lat="40.39553" lon="29.41592">
        <ele>123.140317</ele>
        <time>2021-11-17T10:34:51.400Z</time>
      </trkpt>
      <trkpt lat="40.39538" lon="29.41537">
        <ele>124.398402</ele>
        <time>2021-11-17T10:35:09.415Z</time>
      </trkpt>
      <trkpt lat="40.39613" lon="29.41464">
        <ele>126.645792</ele>
        <time>2021-11-17T10:35:43.851Z</time>
      </trkpt>
      <trkpt lat="40.3958" lon="29.41436">
        <ele>127.409246</ele>
        <time>2021-11-17T10:35:58.430Z</time>
      </trkpt>
      <trkpt lat="40.39613" lon="29.41393">
        <ele>128.304195</ele>
        <time>2021-11-17T10:36:11.353Z</time>
      </trkpt>
      <trkpt lat="40.39647" lon="29.41354">
        <ele>129.175218</ele>
        <time>2021-11-17T10:36:22.617Z</time>
      </trkpt>
      <trkpt lat="40.39775" lon="29.41188">
        <ele>128.406304</ele>
        <time>2021-11-17T10:36:58.768Z</time>
      </trkpt>
      <trkpt lat="40.39788" lon="29.41166">
        <ele>128.233319</ele>
        <time>2021-11-17T10:37:02.979Z</time>
      </trkpt>
      <trkpt lat="40.3981" lon="29.41101">
        <ele>127.710703</ele>
        <time>2021-11-17T10:37:13.747Z</time>
      </trkpt>
      <trkpt lat="40.3983" lon="29.41003">
        <ele>126.967593</ele>
        <time>2021-11-17T10:37:28.814Z</time>
      </trkpt>
      <trkpt lat="40.39841" lon="29.40969">
        <ele>126.689365</ele>
        <time>2021-11-17T10:37:34.320Z</time>
      </trkpt>
      <trkpt lat="40.39914" lon="29.4084">
        <ele>124.342093</ele>
        <time>2021-11-17T10:37:56.120Z</time>
      </trkpt>
      <trkpt lat="40.3995" lon="29.40796">
        <ele>123.378367</ele>
        <time>2021-11-17T10:38:04.393Z</time>
      </trkpt>
      <trkpt lat="40.4005" lon="29.40711">
        <ele>121.029984</ele>
        <time>2021-11-17T10:38:24.832Z</time>
      </trkpt>
      <trkpt lat="40.40091" lon="29.40686">
        <ele>120.142007</ele>
        <time>2021-11-17T10:38:32.937Z</time>
      </trkpt>
      <trkpt lat="40.40131" lon="29.4067">
        <ele>119.518199</ele>
        <time>2021-11-17T10:38:40.835Z</time>
      </trkpt>
      <trkpt lat="40.40174" lon="29.40641">
        <ele>119.379145</ele>
        <time>2021-11-17T10:38:50.353Z</time>
      </trkpt>
      <trkpt lat="40.40206" lon="29.4061">
        <ele>119.260894</ele>
        <time>2021-11-17T10:38:59.029Z</time>
      </trkpt>
      <trkpt lat="40.40244" lon="29.40562">
        <ele>119.107228</ele>
        <time>2021-11-17T10:39:11.038Z</time>
      </trkpt>
      <trkpt lat="40.40264" lon="29.4051">
        <ele>119.07877</ele>
        <time>2021-11-17T10:39:21.673Z</time>
      </trkpt>
      <trkpt lat="40.40341" lon="29.40257">
        <ele>119.590313</ele>
        <time>2021-11-17T10:40:10.563Z</time>
      </trkpt>
      <trkpt lat="40.40369" lon="29.40165">
        <ele>119.651681</ele>
        <time>2021-11-17T10:40:27.267Z</time>
      </trkpt>
      <trkpt lat="40.4038" lon="29.40119">
        <ele>119.68123</ele>
        <time>2021-11-17T10:40:35.264Z</time>
      </trkpt>
      <trkpt lat="40.40389" lon="29.40001">
        <ele>119.776547</ele>
        <time>2021-11-17T10:40:55.188Z</time>
      </trkpt>
      <trkpt lat="40.40397" lon="29.39964">
        <ele>119.80984</ele>
        <time>2021-11-17T10:41:01.842Z</time>
      </trkpt>
      <trkpt lat="40.40518" lon="29.39509">
        <ele>120.749519</ele>
        <time>2021-11-17T10:42:27.157Z</time>
      </trkpt>
      <trkpt lat="40.40576" lon="29.3932">
        <ele>121.767292</ele>
        <time>2021-11-17T10:43:05.294Z</time>
      </trkpt>
      <trkpt lat="40.40585" lon="29.39276">
        <ele>122.083458</ele>
        <time>2021-11-17T10:43:14.316Z</time>
      </trkpt>
      <trkpt lat="40.40591" lon="29.39202">
        <ele>122.602199</ele>
        <time>2021-11-17T10:43:29.564Z</time>
      </trkpt>
      <trkpt lat="40.40604" lon="29.38909">
        <ele>126.221607</ele>
        <time>2021-11-17T10:44:33.695Z</time>
      </trkpt>
      <trkpt lat="40.40601" lon="29.3881">
        <ele>128.410647</ele>
        <time>2021-11-17T10:44:58.589Z</time>
      </trkpt>
      <trkpt lat="40.40604" lon="29.38759">
        <ele>129.555175</ele>
        <time>2021-11-17T10:45:12.944Z</time>
      </trkpt>
      <trkpt lat="40.40642" lon="29.38598">
        <ele>133.958034</ele>
        <time>2021-11-17T10:46:07.330Z</time>
      </trkpt>
      <trkpt lat="40.40642" lon="29.38487">
        <ele>136.926978</ele>
        <time>2021-11-17T10:46:37.053Z</time>
      </trkpt>
      <trkpt lat="40.40623" lon="29.38431">
        <ele>136.549863</ele>
        <time>2021-11-17T10:46:49.907Z</time>
      </trkpt>
      <trkpt lat="40.40625" lon="29.38412">
        <ele>136.432034</ele>
        <time>2021-11-17T10:46:52.966Z</time>
      </trkpt>
      <trkpt lat="40.40635" lon="29.38402">
        <ele>136.330245</ele>
        <time>2021-11-17T10:46:55.585Z</time>
      </trkpt>
      <trkpt lat="40.40705" lon="29.38427">
        <ele>135.741606</ele>
        <time>2021-11-17T10:47:09.608Z</time>
      </trkpt>
      <trkpt lat="40.40726" lon="29.38428">
        <ele>135.572029</ele>
        <time>2021-11-17T10:47:13.371Z</time>
      </trkpt>
      <trkpt lat="40.40744" lon="29.3842">
        <ele>135.221405</ele>
        <time>2021-11-17T10:47:16.575Z</time>
      </trkpt>
      <trkpt lat="40.40757" lon="29.38397">
        <ele>134.509927</ele>
        <time>2021-11-17T10:47:20.100Z</time>
      </trkpt>
      <trkpt lat="40.40785" lon="29.3831">
        <ele>132.165158</ele>
        <time>2021-11-17T10:47:32.009Z</time>
      </trkpt>
      <trkpt lat="40.40824" lon="29.38225">
        <ele>129.706849</ele>
        <time>2021-11-17T10:47:45.242Z</time>
      </trkpt>
      <trkpt lat="40.4084" lon="29.38176">
        <ele>128.51389</ele>
        <time>2021-11-17T10:47:52.292Z</time>
      </trkpt>
      <trkpt lat="40.40852" lon="29.38154">
        <ele>127.894883</ele>
        <time>2021-11-17T10:47:55.944Z</time>
      </trkpt>
      <trkpt lat="40.40884" lon="29.38117">
        <ele>126.65802</ele>
        <time>2021-11-17T10:48:03.170Z</time>
      </trkpt>
      <trkpt lat="40.4091" lon="29.38066">
        <ele>125.291963</ele>
        <time>2021-11-17T10:48:11.101Z</time>
      </trkpt>
      <trkpt lat="40.40936" lon="29.37997">
        <ele>123.83954</ele>
        <time>2021-11-17T10:48:21.407Z</time>
      </trkpt>
      <trkpt lat="40.40964" lon="29.37914">
        <ele>122.511917</ele>
        <time>2021-11-17T10:48:34.041Z</time>
      </trkpt>
      <trkpt lat="40.40982" lon="29.37803">
        <ele>120.849</ele>
        <time>2021-11-17T10:48:50.103Z</time>
      </trkpt>
      <trkpt lat="40.40986" lon="29.37771">
        <ele>120.296386</ele>
        <time>2021-11-17T10:48:54.728Z</time>
      </trkpt>
      <trkpt lat="40.40999" lon="29.37737">
        <ele>119.656802</ele>
        <time>2021-11-17T10:49:00.037Z</time>
      </trkpt>
      <trkpt lat="40.4104" lon="29.37663">
        <ele>118.140555</ele>
        <time>2021-11-17T10:49:12.362Z</time>
      </trkpt>
      <trkpt lat="40.4105" lon="29.37629">
        <ele>117.525113</ele>
        <time>2021-11-17T10:49:17.107Z</time>
      </trkpt>
      <trkpt lat="40.41053" lon="29.3759">
        <ele>116.783814</ele>
        <time>2021-11-17T10:49:21.942Z</time>
      </trkpt>
      <trkpt lat="40.41055" lon="29.37551">
        <ele>115.507108</ele>
        <time>2021-11-17T10:49:26.626Z</time>
      </trkpt>
      <trkpt lat="40.41059" lon="29.37517">
        <ele>114.341638</ele>
        <time>2021-11-17T10:49:30.780Z</time>
      </trkpt>
      <trkpt lat="40.41117" lon="29.37376">
        <ele>109.026031</ele>
        <time>2021-11-17T10:49:49.189Z</time>
      </trkpt>
      <trkpt lat="40.41137" lon="29.37328">
        <ele>107.385291</ele>
        <time>2021-11-17T10:49:55.616Z</time>
      </trkpt>
      <trkpt lat="40.41206" lon="29.37209">
        <ele>102.919399</ele>
        <time>2021-11-17T10:50:13.383Z</time>
      </trkpt>
      <trkpt lat="40.41398" lon="29.36819">
        <ele>94.927761</ele>
        <time>2021-11-17T10:51:14.500Z</time>
      </trkpt>
      <trkpt lat="40.41411" lon="29.36754">
        <ele>94.338703</ele>
        <time>2021-11-17T10:51:24.486Z</time>
      </trkpt>
      <trkpt lat="40.41405" lon="29.36432">
        <ele>94.445362</ele>
        <time>2021-11-17T10:52:19.530Z</time>
      </trkpt>
      <trkpt lat="40.41404" lon="29.36377">
        <ele>94.645653</ele>
        <time>2021-11-17T10:52:30.070Z</time>
      </trkpt>
      <trkpt lat="40.41408" lon="29.36341">
        <ele>94.776074</ele>
        <time>2021-11-17T10:52:36.868Z</time>
      </trkpt>
      <trkpt lat="40.41386" lon="29.36338">
        <ele>94.879942</ele>
        <time>2021-11-17T10:52:42.857Z</time>
      </trkpt>
      <trkpt lat="40.41399" lon="29.36266">
        <ele>95.384462</ele>
        <time>2021-11-17T10:52:58.431Z</time>
      </trkpt>
      <trkpt lat="40.41419" lon="29.36172">
        <ele>96.048296</ele>
        <time>2021-11-17T10:53:20.167Z</time>
      </trkpt>
      <trkpt lat="40.41436" lon="29.36117">
        <ele>96.456783</ele>
        <time>2021-11-17T10:53:31.576Z</time>
      </trkpt>
      <trkpt lat="40.41467" lon="29.36019">
        <ele>95.799516</ele>
        <time>2021-11-17T10:53:48.650Z</time>
      </trkpt>
      <trkpt lat="40.41529" lon="29.35961">
        <ele>95.094292</ele>
        <time>2021-11-17T10:54:03.762Z</time>
      </trkpt>
      <trkpt lat="40.41542" lon="29.35974">
        <ele>94.942642</ele>
        <time>2021-11-17T10:54:06.744Z</time>
      </trkpt>
      <trkpt lat="40.41631" lon="29.35758">
        <ele>91.878281</ele>
        <time>2021-11-17T10:54:40.190Z</time>
      </trkpt>
      <trkpt lat="40.41664" lon="29.35668">
        <ele>90.700516</ele>
        <time>2021-11-17T10:54:54.207Z</time>
      </trkpt>
      <trkpt lat="40.41673" lon="29.35621">
        <ele>90.131129</ele>
        <time>2021-11-17T10:55:01.000Z</time>
      </trkpt>
      <trkpt lat="40.41681" lon="29.3562">
        <ele>89.999886</ele>
        <time>2021-11-17T10:55:02.521Z</time>
      </trkpt>
      <trkpt lat="40.41703" lon="29.35624">
        <ele>89.667535</ele>
        <time>2021-11-17T10:55:06.826Z</time>
      </trkpt>
      <trkpt lat="40.41718" lon="29.35633">
        <ele>89.403424</ele>
        <time>2021-11-17T10:55:09.986Z</time>
      </trkpt>
      <trkpt lat="40.41733" lon="29.35638">
        <ele>89.171211</ele>
        <time>2021-11-17T10:55:13.046Z</time>
      </trkpt>
      <trkpt lat="40.41755" lon="29.35621">
        <ele>88.819115</ele>
        <time>2021-11-17T10:55:17.819Z</time>
      </trkpt>
      <trkpt lat="40.41817" lon="29.35527">
        <ele>87.587805</ele>
        <time>2021-11-17T10:55:35.834Z</time>
      </trkpt>
      <trkpt lat="40.4194" lon="29.35368">
        <ele>86.098973</ele>
        <time>2021-11-17T10:56:11.696Z</time>
      </trkpt>
      <trkpt lat="40.42081" lon="29.35197">
        <ele>85.399506</ele>
        <time>2021-11-17T10:56:53.756Z</time>
      </trkpt>
      <trkpt lat="40.42274" lon="29.34999">
        <ele>85.159005</ele>
        <time>2021-11-17T10:57:49.737Z</time>
      </trkpt>
      <trkpt lat="40.42409" lon="29.34871">
        <ele>85.355078</ele>
        <time>2021-11-17T10:58:29.523Z</time>
      </trkpt>
      <trkpt lat="40.42542" lon="29.34754">
        <ele>85.321466</ele>
        <time>2021-11-17T10:59:06.722Z</time>
      </trkpt>
      <trkpt lat="40.42784" lon="29.34567">
        <ele>84.832757</ele>
        <time>2021-11-17T11:00:09.602Z</time>
      </trkpt>
      <trkpt lat="40.42976" lon="29.34433">
        <ele>84.707361</ele>
        <time>2021-11-17T11:00:58.568Z</time>
      </trkpt>
      <trkpt lat="40.43088" lon="29.34353">
        <ele>85.03397</ele>
        <time>2021-11-17T11:01:30.129Z</time>
      </trkpt>
      <trkpt lat="40.43212" lon="29.34272">
        <ele>85.726226</ele>
        <time>2021-11-17T11:02:05.956Z</time>
      </trkpt>
      <trkpt lat="40.43448" lon="29.3415">
        <ele>85.826689</ele>
        <time>2021-11-17T11:03:05.347Z</time>
      </trkpt>
      <trkpt lat="40.43715" lon="29.34027">
        <ele>84.722477</ele>
        <time>2021-11-17T11:04:06.019Z</time>
      </trkpt>
      <trkpt lat="40.44071" lon="29.33888">
        <ele>84.561953</ele>
        <time>2021-11-17T11:05:31.014Z</time>
      </trkpt>
      <trkpt lat="40.44218" lon="29.3384">
        <ele>85.17376</ele>
        <time>2021-11-17T11:06:09.049Z</time>
      </trkpt>
      <trkpt lat="40.44313" lon="29.33811">
        <ele>85.627108</ele>
        <time>2021-11-17T11:06:34.483Z</time>
      </trkpt>
      <trkpt lat="40.44331" lon="29.33806">
        <ele>85.718101</ele>
        <time>2021-11-17T11:06:39.307Z</time>
      </trkpt>
      <trkpt lat="40.44381" lon="29.33793">
        <ele>85.956566</ele>
        <time>2021-11-17T11:06:52.116Z</time>
      </trkpt>
      <trkpt lat="40.44392" lon="29.33782">
        <ele>86.024149</ele>
        <time>2021-11-17T11:06:55.132Z</time>
      </trkpt>
      <trkpt lat="40.44408" lon="29.33763">
        <ele>85.995236</ele>
        <time>2021-11-17T11:07:00.574Z</time>
      </trkpt>
      <trkpt lat="40.44451" lon="29.33625">
        <ele>85.522074</ele>
        <time>2021-11-17T11:07:25.246Z</time>
      </trkpt>
      <trkpt lat="40.44454" lon="29.33617">
        <ele>85.49251</ele>
        <time>2021-11-17T11:07:26.520Z</time>
      </trkpt>
      <trkpt lat="40.44488" lon="29.33537">
        <ele>85.160737</ele>
        <time>2021-11-17T11:07:40.942Z</time>
      </trkpt>
      <trkpt lat="40.44547" lon="29.33446">
        <ele>84.631114</ele>
        <time>2021-11-17T11:08:00.066Z</time>
      </trkpt>
      <trkpt lat="40.44584" lon="29.33399">
        <ele>84.333209</ele>
        <time>2021-11-17T11:08:11.280Z</time>
      </trkpt>
      <trkpt lat="40.44652" lon="29.33346">
        <ele>84.062379</ele>
        <time>2021-11-17T11:08:28.653Z</time>
      </trkpt>
      <trkpt lat="40.44709" lon="29.33313">
        <ele>83.877178</ele>
        <time>2021-11-17T11:08:42.383Z</time>
      </trkpt>
      <trkpt lat="40.44829" lon="29.33285">
        <ele>83.7636</ele>
        <time>2021-11-17T11:09:09.603Z</time>
      </trkpt>
      <trkpt lat="40.45584" lon="29.33257">
        <ele>84.271226</ele>
        <time>2021-11-17T11:12:07.247Z</time>
      </trkpt>
      <trkpt lat="40.45832" lon="29.33243">
        <ele>84.875809</ele>
        <time>2021-11-17T11:13:07.236Z</time>
      </trkpt>
      <trkpt lat="40.45903" lon="29.33231">
        <ele>85.223535</ele>
        <time>2021-11-17T11:13:25.195Z</time>
      </trkpt>
      <trkpt lat="40.45965" lon="29.33209">
        <ele>85.54496</ele>
        <time>2021-11-17T11:13:41.423Z</time>
      </trkpt>
      <trkpt lat="40.45978" lon="29.33203">
        <ele>85.613908</ele>
        <time>2021-11-17T11:13:45.044Z</time>
      </trkpt>
      <trkpt lat="40.46465" lon="29.32998">
        <ele>88.279747</ele>
        <time>2021-11-17T11:15:54.400Z</time>
      </trkpt>
      <trkpt lat="40.46507" lon="29.3298">
        <ele>88.477199</ele>
        <time>2021-11-17T11:16:05.317Z</time>
      </trkpt>
      <trkpt lat="40.46904" lon="29.32998">
        <ele>89.737527</ele>
        <time>2021-11-17T11:17:42.219Z</time>
      </trkpt>
      <trkpt lat="40.47022" lon="29.33009">
        <ele>90.302739</ele>
        <time>2021-11-17T11:18:11.145Z</time>
      </trkpt>
      <trkpt lat="40.4704" lon="29.33015">
        <ele>90.392352</ele>
        <time>2021-11-17T11:18:16.276Z</time>
      </trkpt>
      <trkpt lat="40.47066" lon="29.33025">
        <ele>90.526907</ele>
        <time>2021-11-17T11:18:23.369Z</time>
      </trkpt>
      <trkpt lat="40.47076" lon="29.33027">
        <ele>90.594319</ele>
        <time>2021-11-17T11:18:26.212Z</time>
      </trkpt>
      <trkpt lat="40.47084" lon="29.33025">
        <ele>90.641493</ele>
        <time>2021-11-17T11:18:28.025Z</time>
      </trkpt>
      <trkpt lat="40.47086" lon="29.33014">
        <ele>90.696965</ele>
        <time>2021-11-17T11:18:30.089Z</time>
      </trkpt>
      <trkpt lat="40.4709" lon="29.32998">
        <ele>90.78079</ele>
        <time>2021-11-17T11:18:33.715Z</time>
      </trkpt>
      <trkpt lat="40.47105" lon="29.32922">
        <ele>91.172399</ele>
        <time>2021-11-17T11:18:48.880Z</time>
      </trkpt>
      <trkpt lat="40.47123" lon="29.32843">
        <ele>91.580354</ele>
        <time>2021-11-17T11:19:04.736Z</time>
      </trkpt>
      <trkpt lat="40.47144" lon="29.3277">
        <ele>91.997879</ele>
        <time>2021-11-17T11:19:23.793Z</time>
      </trkpt>
      <trkpt lat="40.47182" lon="29.32661">
        <ele>92.657294</ele>
        <time>2021-11-17T11:19:53.700Z</time>
      </trkpt>
      <trkpt lat="40.47206" lon="29.32615">
        <ele>92.963364</ele>
        <time>2021-11-17T11:20:07.015Z</time>
      </trkpt>
      <trkpt lat="40.47218" lon="29.32595">
        <ele>93.084927</ele>
        <time>2021-11-17T11:20:13.190Z</time>
      </trkpt>
      <trkpt lat="40.47239" lon="29.3256">
        <ele>93.294089</ele>
        <time>2021-11-17T11:20:24.019Z</time>
      </trkpt>
      <trkpt lat="40.47438" lon="29.32221">
        <ele>95.373357</ele>
        <time>2021-11-17T11:22:07.202Z</time>
      </trkpt>
      <trkpt lat="40.47557" lon="29.3202">
        <ele>96.860252</ele>
        <time>2021-11-17T11:23:10.873Z</time>
      </trkpt>
      <trkpt lat="40.47563" lon="29.3201">
        <ele>96.910045</ele>
        <time>2021-11-17T11:23:13.242Z</time>
      </trkpt>
      <trkpt lat="40.47577" lon="29.31987">
        <ele>97.024989</ele>
        <time>2021-11-17T11:23:18.853Z</time>
      </trkpt>
      <trkpt lat="40.47726" lon="29.32096">
        <ele>97.889623</ele>
        <time>2021-11-17T11:24:00.615Z</time>
      </trkpt>
      <trkpt lat="40.47734" lon="29.32097">
        <ele>97.927533</ele>
        <time>2021-11-17T11:24:02.577Z</time>
      </trkpt>
      <trkpt lat="40.47742" lon="29.32076">
        <ele>98.017872</ele>
        <time>2021-11-17T11:24:07.048Z</time>
      </trkpt>
      <trkpt lat="40.47763" lon="29.32024">
        <ele>98.247171</ele>
        <time>2021-11-17T11:24:18.535Z</time>
      </trkpt>
      <trkpt lat="40.47772" lon="29.3201">
        <ele>98.316776</ele>
        <time>2021-11-17T11:24:22.181Z</time>
      </trkpt>
      <trkpt lat="40.47787" lon="29.32001">
        <ele>98.400582</ele>
        <time>2021-11-17T11:24:26.313Z</time>
      </trkpt>
      <trkpt lat="40.47804" lon="29.31999">
        <ele>98.48848</ele>
        <time>2021-11-17T11:24:30.809Z</time>
      </trkpt>
      <trkpt lat="40.47895" lon="29.32008">
        <ele>98.863046</ele>
        <time>2021-11-17T11:24:54.059Z</time>
      </trkpt>
      <trkpt lat="40.48035" lon="29.32053">
        <ele>99.241545</ele>
        <time>2021-11-17T11:25:28.750Z</time>
      </trkpt>
      <trkpt lat="40.48115" lon="29.32075">
        <ele>99.229353</ele>
        <time>2021-11-17T11:25:47.402Z</time>
      </trkpt>
      <trkpt lat="40.48183" lon="29.32078">
        <ele>99.210279</ele>
        <time>2021-11-17T11:26:02.972Z</time>
      </trkpt>
      <trkpt lat="40.48241" lon="29.32092">
        <ele>99.172163</ele>
        <time>2021-11-17T11:26:16.136Z</time>
      </trkpt>
      <trkpt lat="40.48304" lon="29.32092">
        <ele>99.130497</ele>
        <time>2021-11-17T11:26:30.624Z</time>
      </trkpt>
      <trkpt lat="40.48401" lon="29.32118">
        <ele>99.18793</ele>
        <time>2021-11-17T11:26:53.416Z</time>
      </trkpt>
      <trkpt lat="40.48472" lon="29.32144">
        <ele>99.296282</ele>
        <time>2021-11-17T11:27:11.187Z</time>
      </trkpt>
      <trkpt lat="40.48504" lon="29.32063">
        <ele>99.485601</ele>
        <time>2021-11-17T11:27:28.141Z</time>
      </trkpt>
      <trkpt lat="40.48526" lon="29.32007">
        <ele>99.751675</ele>
        <time>2021-11-17T11:27:40.111Z</time>
      </trkpt>
      <trkpt lat="40.48559" lon="29.31973">
        <ele>99.98385</ele>
        <time>2021-11-17T11:27:50.719Z</time>
      </trkpt>
      <trkpt lat="40.48602" lon="29.31946">
        <ele>100.249467</ele>
        <time>2021-11-17T11:28:03.011Z</time>
      </trkpt>
      <trkpt lat="40.48645" lon="29.31899">
        <ele>100.648157</ele>
        <time>2021-11-17T11:28:17.487Z</time>
      </trkpt>
      <trkpt lat="40.48737" lon="29.31756">
        <ele>101.804865</ele>
        <time>2021-11-17T11:28:55.047Z</time>
      </trkpt>
      <trkpt lat="40.48823" lon="29.31674">
        <ele>103.146253</ele>
        <time>2021-11-17T11:29:25.044Z</time>
      </trkpt>
      <trkpt lat="40.48866" lon="29.31648">
        <ele>103.740793</ele>
        <time>2021-11-17T11:29:38.445Z</time>
      </trkpt>
      <trkpt lat="40.48866" lon="29.31644">
        <ele>103.778892</ele>
        <time>2021-11-17T11:29:39.610Z</time>
      </trkpt>
      <trkpt lat="40.4898" lon="29.31375">
        <ele>106.592601</ele>
        <time>2021-11-17T11:30:43.940Z</time>
      </trkpt>
      <trkpt lat="40.48991" lon="29.31384">
        <ele>106.667318</ele>
        <time>2021-11-17T11:30:47.307Z</time>
      </trkpt>
      <trkpt lat="40.4901" lon="29.31392">
        <ele>106.776617</ele>
        <time>2021-11-17T11:30:52.539Z</time>
      </trkpt>
      <trkpt lat="40.49022" lon="29.31392">
        <ele>106.840074</ele>
        <time>2021-11-17T11:30:55.331Z</time>
      </trkpt>
      <trkpt lat="40.49046" lon="29.31393">
        <ele>106.976399</ele>
        <time>2021-11-17T11:31:01.614Z</time>
      </trkpt>
      <trkpt lat="40.49062" lon="29.31393">
        <ele>107.067106</ele>
        <time>2021-11-17T11:31:05.498Z</time>
      </trkpt>
      <trkpt lat="40.49084" lon="29.31403">
        <ele>107.193598</ele>
        <time>2021-11-17T11:31:11.176Z</time>
      </trkpt>
      <trkpt lat="40.49089" lon="29.31405">
        <ele>107.221353</ele>
        <time>2021-11-17T11:31:12.304Z</time>
      </trkpt>
      <trkpt lat="40.49113" lon="29.31423">
        <ele>107.377076</ele>
        <time>2021-11-17T11:31:18.981Z</time>
      </trkpt>
      <trkpt lat="40.49176" lon="29.31461">
        <ele>107.277754</ele>
        <time>2021-11-17T11:31:35.068Z</time>
      </trkpt>
      <trkpt lat="40.49217" lon="29.31485">
        <ele>107.155944</ele>
        <time>2021-11-17T11:31:45.079Z</time>
      </trkpt>
      <trkpt lat="40.49237" lon="29.3149">
        <ele>107.099349</ele>
        <time>2021-11-17T11:31:49.550Z</time>
      </trkpt>
      <trkpt lat="40.49275" lon="29.31478">
        <ele>106.994047</ele>
        <time>2021-11-17T11:31:57.701Z</time>
      </trkpt>
      <trkpt lat="40.49281" lon="29.31446">
        <ele>106.91547</ele>
        <time>2021-11-17T11:32:03.070Z</time>
      </trkpt>
      <trkpt lat="40.49336" lon="29.31484">
        <ele>106.672349</ele>
        <time>2021-11-17T11:32:15.336Z</time>
      </trkpt>
      <trkpt lat="40.49418" lon="29.31541">
        <ele>106.305967</ele>
        <time>2021-11-17T11:32:34.297Z</time>
      </trkpt>
      <trkpt lat="40.49454" lon="29.31546">
        <ele>106.545078</ele>
        <time>2021-11-17T11:32:42.615Z</time>
      </trkpt>
      <trkpt lat="40.49463" lon="29.31548">
        <ele>106.689494</ele>
        <time>2021-11-17T11:32:44.852Z</time>
      </trkpt>
      <trkpt lat="40.4949" lon="29.31555">
        <ele>107.140855</ele>
        <time>2021-11-17T11:32:52.455Z</time>
      </trkpt>
      <trkpt lat="40.49511" lon="29.31558">
        <ele>107.490738</ele>
        <time>2021-11-17T11:32:59.279Z</time>
      </trkpt>
      <trkpt lat="40.49527" lon="29.3156">
        <ele>107.743786</ele>
        <time>2021-11-17T11:33:03.779Z</time>
      </trkpt>
      <trkpt lat="40.49566" lon="29.3155">
        <ele>108.396862</ele>
        <time>2021-11-17T11:33:16.257Z</time>
      </trkpt>
      <trkpt lat="40.49576" lon="29.31499">
        <ele>109.052375</ele>
        <time>2021-11-17T11:33:29.438Z</time>
      </trkpt>
      <trkpt lat="40.49586" lon="29.31452">
        <ele>109.530532</ele>
        <time>2021-11-17T11:33:41.286Z</time>
      </trkpt>
      <trkpt lat="40.49593" lon="29.31443">
        <ele>109.643192</ele>
        <time>2021-11-17T11:33:44.585Z</time>
      </trkpt>
      <trkpt lat="40.49603" lon="29.31424">
        <ele>109.859033</ele>
        <time>2021-11-17T11:33:49.775Z</time>
      </trkpt>
      <trkpt lat="40.49631" lon="29.31344">
        <ele>110.658481</ele>
        <time>2021-11-17T11:34:09.436Z</time>
      </trkpt>
      <trkpt lat="40.49642" lon="29.31371">
        <ele>110.932066</ele>
        <time>2021-11-17T11:34:15.407Z</time>
      </trkpt>
      <trkpt lat="40.49669" lon="29.3134">
        <ele>111.296153</ele>
        <time>2021-11-17T11:34:23.649Z</time>
      </trkpt>
      <trkpt lat="40.49706" lon="29.31278">
        <ele>110.710254</ele>
        <time>2021-11-17T11:34:35.595Z</time>
      </trkpt>
      <trkpt lat="40.49736" lon="29.31303">
        <ele>110.361847</ele>
        <time>2021-11-17T11:34:42.161Z</time>
      </trkpt>
      <trkpt lat="40.49749" lon="29.31313">
        <ele>110.21667</ele>
        <time>2021-11-17T11:34:44.807Z</time>
      </trkpt>
      <trkpt lat="40.49788" lon="29.3135">
        <ele>109.742477</ele>
        <time>2021-11-17T11:34:53.724Z</time>
      </trkpt>
      <trkpt lat="40.49813" lon="29.31375">
        <ele>109.672355</ele>
        <time>2021-11-17T11:34:59.744Z</time>
      </trkpt>
      <trkpt lat="40.49843" lon="29.31412">
        <ele>110.040259</ele>
        <time>2021-11-17T11:35:08.617Z</time>
      </trkpt>
      <trkpt lat="40.49861" lon="29.31432">
        <ele>110.248632</ele>
        <time>2021-11-17T11:35:13.998Z</time>
      </trkpt>
      <trkpt lat="40.49882" lon="29.3146">
        <ele>110.515767</ele>
        <time>2021-11-17T11:35:21.834Z</time>
      </trkpt>
      <trkpt lat="40.49915" lon="29.31498">
        <ele>110.901973</ele>
        <time>2021-11-17T11:35:34.255Z</time>
      </trkpt>
      <trkpt lat="40.4993" lon="29.31519">
        <ele>111.101786</ele>
        <time>2021-11-17T11:35:41.758Z</time>
      </trkpt>
      <trkpt lat="40.49943" lon="29.31541">
        <ele>111.649349</ele>
        <time>2021-11-17T11:35:48.402Z</time>
      </trkpt>
      <trkpt lat="40.49948" lon="29.31562">
        <ele>112.19589</ele>
        <time>2021-11-17T11:35:54.073Z</time>
      </trkpt>
      <trkpt lat="40.49951" lon="29.31573">
        <ele>112.513915</ele>
        <time>2021-11-17T11:35:56.966Z</time>
      </trkpt>
      <trkpt lat="40.49957" lon="29.31581">
        <ele>112.805391</ele>
        <time>2021-11-17T11:35:59.859Z</time>
      </trkpt>
      <trkpt lat="40.49963" lon="29.31584">
        <ele>113.020094</ele>
        <time>2021-11-17T11:36:02.485Z</time>
      </trkpt>
      <trkpt lat="40.49968" lon="29.31586">
        <ele>113.214658</ele>
        <time>2021-11-17T11:36:05.213Z</time>
      </trkpt>
      <trkpt lat="40.49984" lon="29.31591">
        <ele>113.748972</ele>
        <time>2021-11-17T11:36:10.474Z</time>
      </trkpt>
      <trkpt lat="40.50002" lon="29.31597">
        <ele>114.381212</ele>
        <time>2021-11-17T11:36:18.178Z</time>
      </trkpt>
      <trkpt lat="40.50059" lon="29.31621">
        <ele>116.414451</ele>
        <time>2021-11-17T11:36:40.705Z</time>
      </trkpt>
      <trkpt lat="40.50097" lon="29.31629">
        <ele>117.60146</ele>
        <time>2021-11-17T11:36:54.939Z</time>
      </trkpt>
      <trkpt lat="40.50109" lon="29.3163">
        <ele>117.920519</ele>
        <time>2021-11-17T11:37:00.318Z</time>
      </trkpt>
      <trkpt lat="40.50142" lon="29.31633">
        <ele>118.785651</ele>
        <time>2021-11-17T11:37:11.740Z</time>
      </trkpt>
      <trkpt lat="40.50159" lon="29.31634">
        <ele>119.249928</ele>
        <time>2021-11-17T11:37:17.682Z</time>
      </trkpt>
      <trkpt lat="40.50184" lon="29.31634">
        <ele>119.907992</ele>
        <time>2021-11-17T11:37:26.228Z</time>
      </trkpt>
      <trkpt lat="40.50222" lon="29.31633">
        <ele>120.913446</ele>
        <time>2021-11-17T11:37:38.504Z</time>
      </trkpt>
      <trkpt lat="40.50377" lon="29.3163">
        <ele>123.671373</ele>
        <time>2021-11-17T11:38:24.902Z</time>
      </trkpt>
      <trkpt lat="40.50422" lon="29.31633">
        <ele>124.333707</ele>
        <time>2021-11-17T11:38:37.243Z</time>
      </trkpt>
      <trkpt lat="40.50443" lon="29.3163">
        <ele>124.641432</ele>
        <time>2021-11-17T11:38:43.149Z</time>
      </trkpt>
      <trkpt lat="40.50454" lon="29.3161">
        <ele>124.796081</ele>
        <time>2021-11-17T11:38:47.990Z</time>
      </trkpt>
      <trkpt lat="40.50526" lon="29.3161">
        <ele>125.393569</ele>
        <time>2021-11-17T11:39:06.210Z</time>
      </trkpt>
      <trkpt lat="40.50744" lon="29.31611">
        <ele>127.867956</ele>
        <time>2021-11-17T11:40:01.993Z</time>
      </trkpt>
      <trkpt lat="40.5097" lon="29.31613">
        <ele>133.166793</ele>
        <time>2021-11-17T11:41:14.903Z</time>
      </trkpt>
      <trkpt lat="40.51236" lon="29.31614">
        <ele>142.961788</ele>
        <time>2021-11-17T11:42:52.321Z</time>
      </trkpt>
      <trkpt lat="40.51444" lon="29.31613">
        <ele>152.033897</ele>
        <time>2021-11-17T11:44:17.700Z</time>
      </trkpt>
      <trkpt lat="40.51756" lon="29.31616">
        <ele>165.34014</ele>
        <time>2021-11-17T11:46:20.204Z</time>
      </trkpt>
      <trkpt lat="40.51856" lon="29.31605">
        <ele>169.387501</ele>
        <time>2021-11-17T11:46:58.699Z</time>
      </trkpt>
      <trkpt lat="40.51897" lon="29.31598">
        <ele>170.923525</ele>
        <time>2021-11-17T11:47:14.237Z</time>
      </trkpt>
      <trkpt lat="40.52089" lon="29.31554">
        <ele>177.493359</ele>
        <time>2021-11-17T11:48:23.719Z</time>
      </trkpt>
      <trkpt lat="40.52173" lon="29.3153">
        <ele>180.148279</ele>
        <time>2021-11-17T11:48:52.885Z</time>
      </trkpt>
      <trkpt lat="40.52225" lon="29.31512">
        <ele>181.840519</ele>
        <time>2021-11-17T11:49:11.298Z</time>
      </trkpt>
      <trkpt lat="40.52425" lon="29.3143">
        <ele>188.632399</ele>
        <time>2021-11-17T11:50:24.485Z</time>
      </trkpt>
      <trkpt lat="40.52434" lon="29.31427">
        <ele>188.97863</ele>
        <time>2021-11-17T11:50:28.279Z</time>
      </trkpt>
      <trkpt lat="40.52505" lon="29.31397">
        <ele>191.712251</ele>
        <time>2021-11-17T11:50:55.626Z</time>
      </trkpt>
      <trkpt lat="40.52617" lon="29.31334">
        <ele>196.238974</ele>
        <time>2021-11-17T11:51:41.936Z</time>
      </trkpt>
      <trkpt lat="40.5298" lon="29.31037">
        <ele>212.610746</ele>
        <time>2021-11-17T11:54:20.709Z</time>
      </trkpt>
      <trkpt lat="40.53175" lon="29.30915">
        <ele>222.676043</ele>
        <time>2021-11-17T11:55:48.942Z</time>
      </trkpt>
      <trkpt lat="40.53199" lon="29.30899">
        <ele>224.056691</ele>
        <time>2021-11-17T11:56:01.349Z</time>
      </trkpt>
      <trkpt lat="40.53321" lon="29.30823">
        <ele>231.789839</ele>
        <time>2021-11-17T11:57:03.608Z</time>
      </trkpt>
      <trkpt lat="40.53399" lon="29.30773">
        <ele>236.361567</ele>
        <time>2021-11-17T11:57:42.475Z</time>
      </trkpt>
      <trkpt lat="40.53621" lon="29.30631">
        <ele>247.556341</ele>
        <time>2021-11-17T11:59:22.083Z</time>
      </trkpt>
      <trkpt lat="40.53626" lon="29.30631">
        <ele>247.784963</ele>
        <time>2021-11-17T11:59:24.131Z</time>
      </trkpt>
      <trkpt lat="40.53636" lon="29.30626">
        <ele>248.235618</ele>
        <time>2021-11-17T11:59:27.989Z</time>
      </trkpt>
      <trkpt lat="40.5364" lon="29.30621">
        <ele>248.464088</ele>
        <time>2021-11-17T11:59:30.025Z</time>
      </trkpt>
      <trkpt lat="40.53778" lon="29.30534">
        <ele>254.437296</ele>
        <time>2021-11-17T12:00:25.542Z</time>
      </trkpt>
      <trkpt lat="40.53894" lon="29.30472">
        <ele>259.481739</ele>
        <time>2021-11-17T12:01:14.301Z</time>
      </trkpt>
      <trkpt lat="40.54061" lon="29.30412">
        <ele>266.315877</ele>
        <time>2021-11-17T12:02:24.127Z</time>
      </trkpt>
      <trkpt lat="40.54154" lon="29.30396">
        <ele>268.935254</ele>
        <time>2021-11-17T12:02:55.379Z</time>
      </trkpt>
      <trkpt lat="40.54292" lon="29.30398">
        <ele>270.838586</ele>
        <time>2021-11-17T12:03:31.353Z</time>
      </trkpt>
      <trkpt lat="40.54425" lon="29.30418">
        <ele>272.304194</ele>
        <time>2021-11-17T12:04:03.267Z</time>
      </trkpt>
      <trkpt lat="40.54505" lon="29.30441">
        <ele>273.560022</ele>
        <time>2021-11-17T12:04:25.923Z</time>
      </trkpt>
      <trkpt lat="40.54816" lon="29.30567">
        <ele>282.922023</ele>
        <time>2021-11-17T12:06:17.691Z</time>
      </trkpt>
      <trkpt lat="40.54934" lon="29.30626">
        <ele>287.063094</ele>
        <time>2021-11-17T12:07:04.740Z</time>
      </trkpt>
      <trkpt lat="40.54976" lon="29.30652">
        <ele>288.546073</ele>
        <time>2021-11-17T12:07:21.721Z</time>
      </trkpt>
      <trkpt lat="40.55051" lon="29.30705">
        <ele>291.285619</ele>
        <time>2021-11-17T12:07:51.795Z</time>
      </trkpt>
      <trkpt lat="40.55155" lon="29.3078">
        <ele>291.989687</ele>
        <time>2021-11-17T12:08:23.249Z</time>
      </trkpt>
      <trkpt lat="40.55213" lon="29.3082">
        <ele>292.331329</ele>
        <time>2021-11-17T12:08:36.543Z</time>
      </trkpt>
      <trkpt lat="40.55224" lon="29.30828">
        <ele>292.307302</ele>
        <time>2021-11-17T12:08:38.473Z</time>
      </trkpt>
      <trkpt lat="40.55264" lon="29.30849">
        <ele>292.222141</ele>
        <time>2021-11-17T12:08:46.363Z</time>
      </trkpt>
      <trkpt lat="40.55336" lon="29.30867">
        <ele>292.077937</ele>
        <time>2021-11-17T12:08:59.706Z</time>
      </trkpt>
      <trkpt lat="40.55399" lon="29.30867">
        <ele>292.903563</ele>
        <time>2021-11-17T12:09:18.890Z</time>
      </trkpt>
      <trkpt lat="40.55462" lon="29.30853">
        <ele>296.823228</ele>
        <time>2021-11-17T12:09:45.294Z</time>
      </trkpt>
      <trkpt lat="40.55478" lon="29.30846">
        <ele>297.856024</ele>
        <time>2021-11-17T12:09:53.074Z</time>
      </trkpt>
      <trkpt lat="40.55498" lon="29.30839">
        <ele>299.119641</ele>
        <time>2021-11-17T12:10:03.683Z</time>
      </trkpt>
      <trkpt lat="40.55553" lon="29.30805">
        <ele>302.850041</ele>
        <time>2021-11-17T12:10:37.398Z</time>
      </trkpt>
      <trkpt lat="40.55604" lon="29.30765">
        <ele>307.932337</ele>
        <time>2021-11-17T12:11:15.722Z</time>
      </trkpt>
      <trkpt lat="40.55662" lon="29.30705">
        <ele>314.340086</ele>
        <time>2021-11-17T12:11:59.691Z</time>
      </trkpt>
      <trkpt lat="40.5571" lon="29.30656">
        <ele>319.20952</ele>
        <time>2021-11-17T12:12:31.500Z</time>
      </trkpt>
      <trkpt lat="40.55726" lon="29.30638">
        <ele>320.209467</ele>
        <time>2021-11-17T12:12:41.751Z</time>
      </trkpt>
      <trkpt lat="40.55936" lon="29.30415">
        <ele>331.590365</ele>
        <time>2021-11-17T12:14:24.610Z</time>
      </trkpt>
      <trkpt lat="40.55978" lon="29.30382">
        <ele>333.326855</ele>
        <time>2021-11-17T12:14:41.334Z</time>
      </trkpt>
      <trkpt lat="40.56019" lon="29.30361">
        <ele>334.188043</ele>
        <time>2021-11-17T12:14:55.901Z</time>
      </trkpt>
      <trkpt lat="40.56068" lon="29.30349">
        <ele>334.967826</ele>
        <time>2021-11-17T12:15:11.476Z</time>
      </trkpt>
      <trkpt lat="40.56117" lon="29.30347">
        <ele>335.719323</ele>
        <time>2021-11-17T12:15:24.798Z</time>
      </trkpt>
      <trkpt lat="40.56175" lon="29.30356">
        <ele>336.272005</ele>
        <time>2021-11-17T12:15:39.061Z</time>
      </trkpt>
      <trkpt lat="40.5621" lon="29.3036">
        <ele>335.811878</ele>
        <time>2021-11-17T12:15:46.109Z</time>
      </trkpt>
      <trkpt lat="40.56267" lon="29.30366">
        <ele>335.067516</ele>
        <time>2021-11-17T12:15:56.599Z</time>
      </trkpt>
      <trkpt lat="40.56338" lon="29.30347">
        <ele>334.108755</ele>
        <time>2021-11-17T12:16:09.455Z</time>
      </trkpt>
      <trkpt lat="40.56348" lon="29.30341">
        <ele>333.876929</ele>
        <time>2021-11-17T12:16:11.373Z</time>
      </trkpt>
      <trkpt lat="40.56361" lon="29.30333">
        <ele>333.570495</ele>
        <time>2021-11-17T12:16:13.620Z</time>
      </trkpt>
      <trkpt lat="40.56409" lon="29.30291">
        <ele>332.290502</ele>
        <time>2021-11-17T12:16:23.296Z</time>
      </trkpt>
      <trkpt lat="40.56439" lon="29.30254">
        <ele>331.390323</ele>
        <time>2021-11-17T12:16:30.241Z</time>
      </trkpt>
      <trkpt lat="40.5645" lon="29.30231">
        <ele>330.921543</ele>
        <time>2021-11-17T12:16:33.916Z</time>
      </trkpt>
      <trkpt lat="40.56459" lon="29.30212">
        <ele>330.543421</ele>
        <time>2021-11-17T12:16:36.832Z</time>
      </trkpt>
      <trkpt lat="40.56468" lon="29.30187">
        <ele>330.082535</ele>
        <time>2021-11-17T12:16:40.520Z</time>
      </trkpt>
      <trkpt lat="40.56573" lon="29.29872">
        <ele>328.367185</ele>
        <time>2021-11-17T12:17:34.023Z</time>
      </trkpt>
      <trkpt lat="40.56602" lon="29.29808">
        <ele>328.110191</ele>
        <time>2021-11-17T12:17:46.697Z</time>
      </trkpt>
      <trkpt lat="40.56641" lon="29.29743">
        <ele>327.361934</ele>
        <time>2021-11-17T12:17:59.273Z</time>
      </trkpt>
      <trkpt lat="40.56676" lon="29.297">
        <ele>326.089835</ele>
        <time>2021-11-17T12:18:08.199Z</time>
      </trkpt>
      <trkpt lat="40.56776" lon="29.29609">
        <ele>322.62484</ele>
        <time>2021-11-17T12:18:27.795Z</time>
      </trkpt>
      <trkpt lat="40.56858" lon="29.29545">
        <ele>317.911122</ele>
        <time>2021-11-17T12:18:42.063Z</time>
      </trkpt>
      <trkpt lat="40.56915" lon="29.29514">
        <ele>314.877872</ele>
        <time>2021-11-17T12:18:51.200Z</time>
      </trkpt>
      <trkpt lat="40.57012" lon="29.29479">
        <ele>311.40169</ele>
        <time>2021-11-17T12:19:06.583Z</time>
      </trkpt>
      <trkpt lat="40.57141" lon="29.29457">
        <ele>308.316775</ele>
        <time>2021-11-17T12:19:29.570Z</time>
      </trkpt>
      <trkpt lat="40.57214" lon="29.29458">
        <ele>308.095106</ele>
        <time>2021-11-17T12:19:47.532Z</time>
      </trkpt>
      <trkpt lat="40.57312" lon="29.29478">
        <ele>307.051565</ele>
        <time>2021-11-17T12:20:10.807Z</time>
      </trkpt>
      <trkpt lat="40.57434" lon="29.29509">
        <ele>303.766359</ele>
        <time>2021-11-17T12:20:31.962Z</time>
      </trkpt>
      <trkpt lat="40.57651" lon="29.2956">
        <ele>290.510897</ele>
        <time>2021-11-17T12:21:03.704Z</time>
      </trkpt>
      <trkpt lat="40.57717" lon="29.29559">
        <ele>286.471811</ele>
        <time>2021-11-17T12:21:13.177Z</time>
      </trkpt>
      <trkpt lat="40.57786" lon="29.29541">
        <ele>282.143735</ele>
        <time>2021-11-17T12:21:23.547Z</time>
      </trkpt>
      <trkpt lat="40.57823" lon="29.29526">
        <ele>279.825142</ele>
        <time>2021-11-17T12:21:29.359Z</time>
      </trkpt>
      <trkpt lat="40.57874" lon="29.2949">
        <ele>276.647163</ele>
        <time>2021-11-17T12:21:38.052Z</time>
      </trkpt>
      <trkpt lat="40.58055" lon="29.29305">
        <ele>262.330204</ele>
        <time>2021-11-17T12:22:11.889Z</time>
      </trkpt>
      <trkpt lat="40.58081" lon="29.29286">
        <ele>260.276758</ele>
        <time>2021-11-17T12:22:16.041Z</time>
      </trkpt>
      <trkpt lat="40.58103" lon="29.29278">
        <ele>258.683691</ele>
        <time>2021-11-17T12:22:19.222Z</time>
      </trkpt>
      <trkpt lat="40.58137" lon="29.29274">
        <ele>255.734346</ele>
        <time>2021-11-17T12:22:23.904Z</time>
      </trkpt>
      <trkpt lat="40.58278" lon="29.29314">
        <ele>242.321096</ele>
        <time>2021-11-17T12:22:43.577Z</time>
      </trkpt>
      <trkpt lat="40.58328" lon="29.29308">
        <ele>238.926472</ele>
        <time>2021-11-17T12:22:50.601Z</time>
      </trkpt>
      <trkpt lat="40.58425" lon="29.29271">
        <ele>232.66157</ele>
        <time>2021-11-17T12:23:05.350Z</time>
      </trkpt>
      <trkpt lat="40.58565" lon="29.29185">
        <ele>224.813655</ele>
        <time>2021-11-17T12:23:29.540Z</time>
      </trkpt>
      <trkpt lat="40.58598" lon="29.29157">
        <ele>223.004007</ele>
        <time>2021-11-17T12:23:35.408Z</time>
      </trkpt>
      <trkpt lat="40.58657" lon="29.29106">
        <ele>219.032675</ele>
        <time>2021-11-17T12:23:46.011Z</time>
      </trkpt>
      <trkpt lat="40.58677" lon="29.29091">
        <ele>217.650194</ele>
        <time>2021-11-17T12:23:49.271Z</time>
      </trkpt>
      <trkpt lat="40.58738" lon="29.29078">
        <ele>213.914461</ele>
        <time>2021-11-17T12:23:58.250Z</time>
      </trkpt>
      <trkpt lat="40.58809" lon="29.29094">
        <ele>210.225138</ele>
        <time>2021-11-17T12:24:08.654Z</time>
      </trkpt>
      <trkpt lat="40.58859" lon="29.29083">
        <ele>208.659599</ele>
        <time>2021-11-17T12:24:16.371Z</time>
      </trkpt>
      <trkpt lat="40.58895" lon="29.29056">
        <ele>207.357188</ele>
        <time>2021-11-17T12:24:23.441Z</time>
      </trkpt>
      <trkpt lat="40.58949" lon="29.28985">
        <ele>205.232472</ele>
        <time>2021-11-17T12:24:38.154Z</time>
      </trkpt>
      <trkpt lat="40.58971" lon="29.28951">
        <ele>204.887218</ele>
        <time>2021-11-17T12:24:45.400Z</time>
      </trkpt>
      <trkpt lat="40.58989" lon="29.28908">
        <ele>204.511173</ele>
        <time>2021-11-17T12:24:53.507Z</time>
      </trkpt>
      <trkpt lat="40.58997" lon="29.28874">
        <ele>204.235917</ele>
        <time>2021-11-17T12:24:59.460Z</time>
      </trkpt>
      <trkpt lat="40.58999" lon="29.28815">
        <ele>203.781894</ele>
        <time>2021-11-17T12:25:08.264Z</time>
      </trkpt>
      <trkpt lat="40.58988" lon="29.28688">
        <ele>199.978257</ele>
        <time>2021-11-17T12:25:24.331Z</time>
      </trkpt>
      <trkpt lat="40.58997" lon="29.28634">
        <ele>197.878547</ele>
        <time>2021-11-17T12:25:30.531Z</time>
      </trkpt>
      <trkpt lat="40.59006" lon="29.28606">
        <ele>196.727489</ele>
        <time>2021-11-17T12:25:33.844Z</time>
      </trkpt>
      <trkpt lat="40.59036" lon="29.2855">
        <ele>193.930755</ele>
        <time>2021-11-17T12:25:41.283Z</time>
      </trkpt>
      <trkpt lat="40.591" lon="29.28473">
        <ele>187.525571</ele>
        <time>2021-11-17T12:25:53.486Z</time>
      </trkpt>
      <trkpt lat="40.59191" lon="29.28421">
        <ele>180.363934</ele>
        <time>2021-11-17T12:26:12.821Z</time>
      </trkpt>
      <trkpt lat="40.59208" lon="29.28345">
        <ele>176.732943</ele>
        <time>2021-11-17T12:26:24.862Z</time>
      </trkpt>
      <trkpt lat="40.59308" lon="29.28221">
        <ele>168.670226</ele>
        <time>2021-11-17T12:26:45.312Z</time>
      </trkpt>
      <trkpt lat="40.5937" lon="29.28149">
        <ele>164.215795</ele>
        <time>2021-11-17T12:26:57.818Z</time>
      </trkpt>
      <trkpt lat="40.59495" lon="29.28">
        <ele>154.421</ele>
        <time>2021-11-17T12:27:22.751Z</time>
      </trkpt>
      <trkpt lat="40.59582" lon="29.27899">
        <ele>147.425789</ele>
        <time>2021-11-17T12:27:39.502Z</time>
      </trkpt>
      <trkpt lat="40.59755" lon="29.27708">
        <ele>134.208267</ele>
        <time>2021-11-17T12:28:12.740Z</time>
      </trkpt>
      <trkpt lat="40.59777" lon="29.27674">
        <ele>132.325162</ele>
        <time>2021-11-17T12:28:17.811Z</time>
      </trkpt>
      <trkpt lat="40.59795" lon="29.27636">
        <ele>130.40851</ele>
        <time>2021-11-17T12:28:22.964Z</time>
      </trkpt>
      <trkpt lat="40.59814" lon="29.27577">
        <ele>127.476485</ele>
        <time>2021-11-17T12:28:30.221Z</time>
      </trkpt>
      <trkpt lat="40.59867" lon="29.2736">
        <ele>115.653017</ele>
        <time>2021-11-17T12:28:55.179Z</time>
      </trkpt>
      <trkpt lat="40.59893" lon="29.27305">
        <ele>111.540593</ele>
        <time>2021-11-17T12:29:01.972Z</time>
      </trkpt>
      <trkpt lat="40.5993" lon="29.27257">
        <ele>107.171344</ele>
        <time>2021-11-17T12:29:09.169Z</time>
      </trkpt>
      <trkpt lat="40.60039" lon="29.27195">
        <ele>98.102646</ele>
        <time>2021-11-17T12:29:25.549Z</time>
      </trkpt>
      <trkpt lat="40.60265" lon="29.27093">
        <ele>83.310282</ele>
        <time>2021-11-17T12:30:00.591Z</time>
      </trkpt>
      <trkpt lat="40.60312" lon="29.27081">
        <ele>80.706425</ele>
        <time>2021-11-17T12:30:07.915Z</time>
      </trkpt>
      <trkpt lat="40.6036" lon="29.27077">
        <ele>79.804961</ele>
        <time>2021-11-17T12:30:15.164Z</time>
      </trkpt>
      <trkpt lat="40.60443" lon="29.27081">
        <ele>79.935284</ele>
        <time>2021-11-17T12:30:31.376Z</time>
      </trkpt>
      <trkpt lat="40.60496" lon="29.27093">
        <ele>80.019081</ele>
        <time>2021-11-17T12:30:48.378Z</time>
      </trkpt>
      <trkpt lat="40.60498" lon="29.27078">
        <ele>80.038028</ele>
        <time>2021-11-17T12:30:52.624Z</time>
      </trkpt>
      <trkpt lat="40.60503" lon="29.27045">
        <ele>82.194622</ele>
        <time>2021-11-17T12:31:03.357Z</time>
      </trkpt>
      <trkpt lat="40.60549" lon="29.26855">
        <ele>95.675642</ele>
        <time>2021-11-17T12:32:36.356Z</time>
      </trkpt>
      <trkpt lat="40.60572" lon="29.26786">
        <ele>102.456188</ele>
        <time>2021-11-17T12:33:18.247Z</time>
      </trkpt>
      <trkpt lat="40.60595" lon="29.2673">
        <ele>108.303799</ele>
        <time>2021-11-17T12:33:54.225Z</time>
      </trkpt>
      <trkpt lat="40.60681" lon="29.26592">
        <ele>122.364249</ele>
        <time>2021-11-17T12:35:29.753Z</time>
      </trkpt>
      <trkpt lat="40.60712" lon="29.26516">
        <ele>127.589842</ele>
        <time>2021-11-17T12:36:02.575Z</time>
      </trkpt>
      <trkpt lat="40.60713" lon="29.26509">
        <ele>128.034134</ele>
        <time>2021-11-17T12:36:06.888Z</time>
      </trkpt>
      <trkpt lat="40.60769" lon="29.26547">
        <ele>132.566281</ele>
        <time>2021-11-17T12:36:33.082Z</time>
      </trkpt>
      <trkpt lat="40.60808" lon="29.2658">
        <ele>134.045577</ele>
        <time>2021-11-17T12:36:51.344Z</time>
      </trkpt>
      <trkpt lat="40.60839" lon="29.266">
        <ele>135.160313</ele>
        <time>2021-11-17T12:37:04.501Z</time>
      </trkpt>
      <trkpt lat="40.60958" lon="29.26641">
        <ele>138.679031</ele>
        <time>2021-11-17T12:37:42.760Z</time>
      </trkpt>
      <trkpt lat="40.60967" lon="29.26643">
        <ele>138.886485</ele>
        <time>2021-11-17T12:37:46.864Z</time>
      </trkpt>
      <trkpt lat="40.60985" lon="29.26642">
        <ele>139.259547</ele>
        <time>2021-11-17T12:37:52.313Z</time>
      </trkpt>
      <trkpt lat="40.6103" lon="29.26642">
        <ele>140.193643</ele>
        <time>2021-11-17T12:38:06.403Z</time>
      </trkpt>
      <trkpt lat="40.61097" lon="29.2666">
        <ele>141.627139</ele>
        <time>2021-11-17T12:38:28.117Z</time>
      </trkpt>
      <trkpt lat="40.61218" lon="29.26598">
        <ele>144.559095</ele>
        <time>2021-11-17T12:39:05.852Z</time>
      </trkpt>
      <trkpt lat="40.61254" lon="29.26595">
        <ele>145.384649</ele>
        <time>2021-11-17T12:39:17.189Z</time>
      </trkpt>
      <trkpt lat="40.61337" lon="29.26572">
        <ele>148.79399</ele>
        <time>2021-11-17T12:39:53.899Z</time>
      </trkpt>
      <trkpt lat="40.61364" lon="29.26576">
        <ele>149.997191</ele>
        <time>2021-11-17T12:40:06.399Z</time>
      </trkpt>
      <trkpt lat="40.61394" lon="29.26594">
        <ele>151.50687</ele>
        <time>2021-11-17T12:40:20.486Z</time>
      </trkpt>
      <trkpt lat="40.61411" lon="29.26595">
        <ele>152.262746</ele>
        <time>2021-11-17T12:40:27.816Z</time>
      </trkpt>
      <trkpt lat="40.6143" lon="29.26594">
        <ele>153.103566</ele>
        <time>2021-11-17T12:40:35.526Z</time>
      </trkpt>
      <trkpt lat="40.61434" lon="29.26594">
        <ele>153.296871</ele>
        <time>2021-11-17T12:40:39.193Z</time>
      </trkpt>
      <trkpt lat="40.61528" lon="29.26613">
        <ele>153.317221</ele>
        <time>2021-11-17T12:41:09.659Z</time>
      </trkpt>
      <trkpt lat="40.61583" lon="29.26616">
        <ele>152.956387</ele>
        <time>2021-11-17T12:41:22.019Z</time>
      </trkpt>
      <trkpt lat="40.61651" lon="29.26653">
        <ele>149.755825</ele>
        <time>2021-11-17T12:41:33.108Z</time>
      </trkpt>
      <trkpt lat="40.61657" lon="29.26654">
        <ele>149.139263</ele>
        <time>2021-11-17T12:41:34.048Z</time>
      </trkpt>
      <trkpt lat="40.61669" lon="29.26657">
        <ele>148.001317</ele>
        <time>2021-11-17T12:41:35.780Z</time>
      </trkpt>
      <trkpt lat="40.61694" lon="29.26648">
        <ele>145.553998</ele>
        <time>2021-11-17T12:41:39.468Z</time>
      </trkpt>
      <trkpt lat="40.61705" lon="29.26637">
        <ele>144.252092</ele>
        <time>2021-11-17T12:41:41.415Z</time>
      </trkpt>
      <trkpt lat="40.61779" lon="29.26481">
        <ele>130.36235</ele>
        <time>2021-11-17T12:42:01.022Z</time>
      </trkpt>
      <trkpt lat="40.61819" lon="29.26415">
        <ele>123.350591</ele>
        <time>2021-11-17T12:42:10.167Z</time>
      </trkpt>
      <trkpt lat="40.61913" lon="29.26224">
        <ele>105.16878</ele>
        <time>2021-11-17T12:42:34.654Z</time>
      </trkpt>
      <trkpt lat="40.61945" lon="29.26166">
        <ele>99.508531</ele>
        <time>2021-11-17T12:42:42.362Z</time>
      </trkpt>
      <trkpt lat="40.61989" lon="29.25965">
        <ele>82.876041</ele>
        <time>2021-11-17T12:43:04.803Z</time>
      </trkpt>
      <trkpt lat="40.61984" lon="29.25939">
        <ele>80.696159</ele>
        <time>2021-11-17T12:43:07.748Z</time>
      </trkpt>
      <trkpt lat="40.61955" lon="29.25916">
        <ele>77.349283</ele>
        <time>2021-11-17T12:43:12.514Z</time>
      </trkpt>
      <trkpt lat="40.61974" lon="29.25819">
        <ele>70.27073</ele>
        <time>2021-11-17T12:43:23.458Z</time>
      </trkpt>
      <trkpt lat="40.62017" lon="29.25739">
        <ele>63.430773</ele>
        <time>2021-11-17T12:43:34.122Z</time>
      </trkpt>
      <trkpt lat="40.62032" lon="29.25727">
        <ele>61.791011</ele>
        <time>2021-11-17T12:43:36.686Z</time>
      </trkpt>
      <trkpt lat="40.62049" lon="29.25731">
        <ele>60.168443</ele>
        <time>2021-11-17T12:43:39.269Z</time>
      </trkpt>
      <trkpt lat="40.62078" lon="29.25761">
        <ele>56.830773</ele>
        <time>2021-11-17T12:43:44.537Z</time>
      </trkpt>
      <trkpt lat="40.62092" lon="29.25759">
        <ele>55.461169</ele>
        <time>2021-11-17T12:43:46.679Z</time>
      </trkpt>
      <trkpt lat="40.62098" lon="29.25741">
        <ele>54.075794</ele>
        <time>2021-11-17T12:43:48.832Z</time>
      </trkpt>
      <trkpt lat="40.62098" lon="29.25685">
        <ele>50.186883</ele>
        <time>2021-11-17T12:43:54.893Z</time>
      </trkpt>
      <trkpt lat="40.62108" lon="29.25618">
        <ele>45.402859</ele>
        <time>2021-11-17T12:44:02.440Z</time>
      </trkpt>
      <trkpt lat="40.62128" lon="29.25538">
        <ele>40.782034</ele>
        <time>2021-11-17T12:44:11.693Z</time>
      </trkpt>
      <trkpt lat="40.62028" lon="29.2548">
        <ele>32.83024</ele>
        <time>2021-11-17T12:44:27.225Z</time>
      </trkpt>
      <trkpt lat="40.62001" lon="29.25467">
        <ele>31.631616</ele>
        <time>2021-11-17T12:44:31.671Z</time>
      </trkpt>
      <trkpt lat="40.61993" lon="29.25465">
        <ele>31.361637</ele>
        <time>2021-11-17T12:44:32.953Z</time>
      </trkpt>
      <trkpt lat="40.62004" lon="29.25413">
        <ele>30.083554</ele>
        <time>2021-11-17T12:44:40.043Z</time>
      </trkpt>
      <trkpt lat="40.62101" lon="29.25197">
        <ele>25.588158</ele>
        <time>2021-11-17T12:45:15.062Z</time>
      </trkpt>
      <trkpt lat="40.6214" lon="29.25092">
        <ele>24.338753</ele>
        <time>2021-11-17T12:45:33.366Z</time>
      </trkpt>
      <trkpt lat="40.62155" lon="29.25056">
        <ele>23.953002</ele>
        <time>2021-11-17T12:45:39.809Z</time>
      </trkpt>
      <trkpt lat="40.62383" lon="29.25229">
        <ele>20.835732</ele>
        <time>2021-11-17T12:46:29.235Z</time>
      </trkpt>
      <trkpt lat="40.62453" lon="29.25277">
        <ele>19.893914</ele>
        <time>2021-11-17T12:46:44.120Z</time>
      </trkpt>
      <trkpt lat="40.62536" lon="29.25312">
        <ele>19.203057</ele>
        <time>2021-11-17T12:47:01.138Z</time>
      </trkpt>
      <trkpt lat="40.62694" lon="29.25424">
        <ele>18.060653</ele>
        <time>2021-11-17T12:47:37.683Z</time>
      </trkpt>
      <trkpt lat="40.62711" lon="29.25433">
        <ele>17.97029</ele>
        <time>2021-11-17T12:47:41.385Z</time>
      </trkpt>
      <trkpt lat="40.62729" lon="29.25444">
        <ele>17.872255</ele>
        <time>2021-11-17T12:47:45.673Z</time>
      </trkpt>
      <trkpt lat="40.62785" lon="29.25475">
        <ele>17.583343</ele>
        <time>2021-11-17T12:47:58.192Z</time>
      </trkpt>
      <trkpt lat="40.62919" lon="29.25535">
        <ele>17.002304</ele>
        <time>2021-11-17T12:48:27.625Z</time>
      </trkpt>
      <trkpt lat="40.62983" lon="29.25554">
        <ele>16.740612</ele>
        <time>2021-11-17T12:48:41.420Z</time>
      </trkpt>
      <trkpt lat="40.6303" lon="29.25567">
        <ele>16.557227</ele>
        <time>2021-11-17T12:48:51.420Z</time>
      </trkpt>
      <trkpt lat="40.6305" lon="29.25575">
        <ele>16.47278</ele>
        <time>2021-11-17T12:48:56.036Z</time>
      </trkpt>
      <trkpt lat="40.63129" lon="29.256">
        <ele>16.151729</ele>
        <time>2021-11-17T12:49:12.700Z</time>
      </trkpt>
      <trkpt lat="40.63176" lon="29.2562">
        <ele>15.894899</ele>
        <time>2021-11-17T12:49:23.013Z</time>
      </trkpt>
      <trkpt lat="40.63194" lon="29.25627">
        <ele>15.79935</ele>
        <time>2021-11-17T12:49:26.775Z</time>
      </trkpt>
      <trkpt lat="40.63204" lon="29.25632">
        <ele>15.747602</ele>
        <time>2021-11-17T12:49:28.880Z</time>
      </trkpt>
      <trkpt lat="40.63224" lon="29.25641">
        <ele>15.638401</ele>
        <time>2021-11-17T12:49:33.179Z</time>
      </trkpt>
      <trkpt lat="40.63245" lon="29.25646">
        <ele>15.527376</ele>
        <time>2021-11-17T12:49:37.681Z</time>
      </trkpt>
      <trkpt lat="40.63263" lon="29.25649">
        <ele>15.432918</ele>
        <time>2021-11-17T12:49:41.395Z</time>
      </trkpt>
      <trkpt lat="40.63326" lon="29.25653">
        <ele>15.1598</ele>
        <time>2021-11-17T12:49:54.477Z</time>
      </trkpt>
      <trkpt lat="40.63387" lon="29.25657">
        <ele>14.949107</ele>
        <time>2021-11-17T12:50:07.163Z</time>
      </trkpt>
      <trkpt lat="40.63423" lon="29.2567">
        <ele>14.817431</ele>
        <time>2021-11-17T12:50:15.134Z</time>
      </trkpt>
      <trkpt lat="40.63454" lon="29.2567">
        <ele>14.710315</ele>
        <time>2021-11-17T12:50:21.717Z</time>
      </trkpt>
      <trkpt lat="40.63518" lon="29.2567">
        <ele>14.300175</ele>
        <time>2021-11-17T12:50:35.147Z</time>
      </trkpt>
      <trkpt lat="40.63586" lon="29.25673">
        <ele>13.786709</ele>
        <time>2021-11-17T12:50:48.550Z</time>
      </trkpt>
      <trkpt lat="40.63598" lon="29.25674">
        <ele>13.691743</ele>
        <time>2021-11-17T12:50:51.006Z</time>
      </trkpt>
      <trkpt lat="40.63631" lon="29.25678">
        <ele>13.442414</ele>
        <time>2021-11-17T12:50:57.372Z</time>
      </trkpt>
      <trkpt lat="40.63672" lon="29.25683">
        <ele>13.053411</ele>
        <time>2021-11-17T12:51:05.145Z</time>
      </trkpt>
      <trkpt lat="40.63696" lon="29.25687">
        <ele>12.758266</ele>
        <time>2021-11-17T12:51:09.780Z</time>
      </trkpt>
      <trkpt lat="40.63746" lon="29.25696">
        <ele>12.153175</ele>
        <time>2021-11-17T12:51:19.193Z</time>
      </trkpt>
      <trkpt lat="40.63779" lon="29.25703">
        <ele>11.754545</ele>
        <time>2021-11-17T12:51:25.372Z</time>
      </trkpt>
      <trkpt lat="40.63805" lon="29.2571">
        <ele>11.438658</ele>
        <time>2021-11-17T12:51:30.303Z</time>
      </trkpt>
      <trkpt lat="40.63826" lon="29.25715">
        <ele>11.184668</ele>
        <time>2021-11-17T12:51:34.279Z</time>
      </trkpt>
      <trkpt lat="40.639" lon="29.25737">
        <ele>10.805959</ele>
        <time>2021-11-17T12:51:49.605Z</time>
      </trkpt>
      <trkpt lat="40.63915" lon="29.25743">
        <ele>10.739585</ele>
        <time>2021-11-17T12:51:52.760Z</time>
      </trkpt>
      <trkpt lat="40.63973" lon="29.25759">
        <ele>10.473131</ele>
        <time>2021-11-17T12:52:05.292Z</time>
      </trkpt>
      <trkpt lat="40.64011" lon="29.2577">
        <ele>10.328862</ele>
        <time>2021-11-17T12:52:13.741Z</time>
      </trkpt>
      <trkpt lat="40.64046" lon="29.25785">
        <ele>10.379615</ele>
        <time>2021-11-17T12:52:22.066Z</time>
      </trkpt>
      <trkpt lat="40.6409" lon="29.25808">
        <ele>10.445874</ele>
        <time>2021-11-17T12:52:33.276Z</time>
      </trkpt>
      <trkpt lat="40.6411" lon="29.25819">
        <ele>10.476033</ele>
        <time>2021-11-17T12:52:38.382Z</time>
      </trkpt>
      <trkpt lat="40.64146" lon="29.25839">
        <ele>10.530375</ele>
        <time>2021-11-17T12:52:47.658Z</time>
      </trkpt>
      <trkpt lat="40.64208" lon="29.25873">
        <ele>10.512333</ele>
        <time>2021-11-17T12:53:02.692Z</time>
      </trkpt>
      <trkpt lat="40.64248" lon="29.25893">
        <ele>10.444145</ele>
        <time>2021-11-17T12:53:12.085Z</time>
      </trkpt>
      <trkpt lat="40.64269" lon="29.25904">
        <ele>10.408736</ele>
        <time>2021-11-17T12:53:16.837Z</time>
      </trkpt>
      <trkpt lat="40.64326" lon="29.25939">
        <ele>10.307787</ele>
        <time>2021-11-17T12:53:30.005Z</time>
      </trkpt>
      <trkpt lat="40.64345" lon="29.25946">
        <ele>10.262578</ele>
        <time>2021-11-17T12:53:34.105Z</time>
      </trkpt>
      <trkpt lat="40.64372" lon="29.25956">
        <ele>10.144869</ele>
        <time>2021-11-17T12:53:40.118Z</time>
      </trkpt>
      <trkpt lat="40.6439" lon="29.25961">
        <ele>10.067595</ele>
        <time>2021-11-17T12:53:44.102Z</time>
      </trkpt>
      <trkpt lat="40.64431" lon="29.25972">
        <ele>9.896499</ele>
        <time>2021-11-17T12:53:52.904Z</time>
      </trkpt>
      <trkpt lat="40.64453" lon="29.25977">
        <ele>9.799949</ele>
        <time>2021-11-17T12:53:57.772Z</time>
      </trkpt>
      <trkpt lat="40.64519" lon="29.25988">
        <ele>9.512818</ele>
        <time>2021-11-17T12:54:11.338Z</time>
      </trkpt>
      <trkpt lat="40.64541" lon="29.25992">
        <ele>9.347435</ele>
        <time>2021-11-17T12:54:15.542Z</time>
      </trkpt>
      <trkpt lat="40.64592" lon="29.26007">
        <ele>8.943571</ele>
        <time>2021-11-17T12:54:25.649Z</time>
      </trkpt>
      <trkpt lat="40.64621" lon="29.26011">
        <ele>8.71429</ele>
        <time>2021-11-17T12:54:31.592Z</time>
      </trkpt>
      <trkpt lat="40.64653" lon="29.26013">
        <ele>8.468667</ele>
        <time>2021-11-17T12:54:37.964Z</time>
      </trkpt>
      <trkpt lat="40.64661" lon="29.26016">
        <ele>8.402261</ele>
        <time>2021-11-17T12:54:39.701Z</time>
      </trkpt>
      <trkpt lat="40.64715" lon="29.26032">
        <ele>8.040269</ele>
        <time>2021-11-17T12:54:50.438Z</time>
      </trkpt>
      <trkpt lat="40.6476" lon="29.26049">
        <ele>7.809543</ele>
        <time>2021-11-17T12:54:59.931Z</time>
      </trkpt>
      <trkpt lat="40.64794" lon="29.26064">
        <ele>7.629607</ele>
        <time>2021-11-17T12:55:07.342Z</time>
      </trkpt>
      <trkpt lat="40.64852" lon="29.26096">
        <ele>7.320987</ele>
        <time>2021-11-17T12:55:20.394Z</time>
      </trkpt>
      <trkpt lat="40.64892" lon="29.26121">
        <ele>7.18155</ele>
        <time>2021-11-17T12:55:30.208Z</time>
      </trkpt>
      <trkpt lat="40.64926" lon="29.26142">
        <ele>7.090709</ele>
        <time>2021-11-17T12:55:38.389Z</time>
      </trkpt>
      <trkpt lat="40.64955" lon="29.26154">
        <ele>7.017012</ele>
        <time>2021-11-17T12:55:44.927Z</time>
      </trkpt>
      <trkpt lat="40.64967" lon="29.26157">
        <ele>6.989899</ele>
        <time>2021-11-17T12:55:47.213Z</time>
      </trkpt>
      <trkpt lat="40.64975" lon="29.26159">
        <ele>6.970121</ele>
        <time>2021-11-17T12:55:48.963Z</time>
      </trkpt>
      <trkpt lat="40.64985" lon="29.26161">
        <ele>6.945206</ele>
        <time>2021-11-17T12:55:51.215Z</time>
      </trkpt>
      <trkpt lat="40.65008" lon="29.26166">
        <ele>6.888783</ele>
        <time>2021-11-17T12:55:56.173Z</time>
      </trkpt>
      <trkpt lat="40.65033" lon="29.26172">
        <ele>6.82777</ele>
        <time>2021-11-17T12:56:01.619Z</time>
      </trkpt>
      <trkpt lat="40.65087" lon="29.26186">
        <ele>6.705366</ele>
        <time>2021-11-17T12:56:13.057Z</time>
      </trkpt>
      <trkpt lat="40.65187" lon="29.26207">
        <ele>6.483117</ele>
        <time>2021-11-17T12:56:34.760Z</time>
      </trkpt>
      <trkpt lat="40.65187" lon="29.26207">
        <ele>6.483117</ele>
        <time>2021-11-17T12:56:34.765Z</time>
      </trkpt>
      <trkpt lat="40.65219" lon="29.26317">
        <ele>6.598595</ele>
        <time>2021-11-17T12:56:54.913Z</time>
      </trkpt>
      <trkpt lat="40.65243" lon="29.26397">
        <ele>6.770345</ele>
        <time>2021-11-17T12:57:10.170Z</time>
      </trkpt>
      <trkpt lat="40.65252" lon="29.26427">
        <ele>6.835157</ele>
        <time>2021-11-17T12:57:16.208Z</time>
      </trkpt>
      <trkpt lat="40.65255" lon="29.26441">
        <ele>6.863988</ele>
        <time>2021-11-17T12:57:18.823Z</time>
      </trkpt>
      <trkpt lat="40.65257" lon="29.2646">
        <ele>6.903611</ele>
        <time>2021-11-17T12:57:22.420Z</time>
      </trkpt>
      <trkpt lat="40.65259" lon="29.2649">
        <ele>7.070516</ele>
        <time>2021-11-17T12:57:28.041Z</time>
      </trkpt>
      <trkpt lat="40.65258" lon="29.26642">
        <ele>7.902959</ele>
        <time>2021-11-17T12:57:56.688Z</time>
      </trkpt>
      <trkpt lat="40.65266" lon="29.26651">
        <ele>7.978473</ele>
        <time>2021-11-17T12:57:59.409Z</time>
      </trkpt>
      <trkpt lat="40.65304" lon="29.26798">
        <ele>9.059568</ele>
        <time>2021-11-17T12:58:31.272Z</time>
      </trkpt>
      <trkpt lat="40.65319" lon="29.2685">
        <ele>9.475609</ele>
        <time>2021-11-17T12:58:42.872Z</time>
      </trkpt>
      <trkpt lat="40.65336" lon="29.2691">
        <ele>9.953681</ele>
        <time>2021-11-17T12:58:56.222Z</time>
      </trkpt>
      <trkpt lat="40.65359" lon="29.26988">
        <ele>10.28565</ele>
        <time>2021-11-17T12:59:13.557Z</time>
      </trkpt>
      <trkpt lat="40.65386" lon="29.26976">
        <ele>10.428237</ele>
        <time>2021-11-17T12:59:20.748Z</time>
      </trkpt>
      <trkpt lat="40.65402" lon="29.27054">
        <ele>10.74246</ele>
        <time>2021-11-17T12:59:36.036Z</time>
      </trkpt>
      <trkpt lat="40.6541" lon="29.27115">
        <ele>10.746216</ele>
        <time>2021-11-17T12:59:46.456Z</time>
      </trkpt>
      <trkpt lat="40.65424" lon="29.27192">
        <ele>10.251197</ele>
        <time>2021-11-17T12:59:58.854Z</time>
      </trkpt>
      <trkpt lat="40.65426" lon="29.27206">
        <ele>10.162699</ele>
        <time>2021-11-17T13:00:01.013Z</time>
      </trkpt>
      <trkpt lat="40.65433" lon="29.2726">
        <ele>9.821763</ele>
        <time>2021-11-17T13:00:09.349Z</time>
      </trkpt>
      <trkpt lat="40.65434" lon="29.27264">
        <ele>9.796404</ele>
        <time>2021-11-17T13:00:09.912Z</time>
      </trkpt>
      <trkpt lat="40.65501" lon="29.27258">
        <ele>9.409378</ele>
        <time>2021-11-17T13:00:23.330Z</time>
      </trkpt>
      <trkpt lat="40.65533" lon="29.27258">
        <ele>9.409378</ele>
        <time>2021-11-17T13:00:29.659Z</time>
      </trkpt>
      <trkpt lat="40.65578" lon="29.27257">
        <ele>9.409378</ele>
        <time>2021-11-17T13:00:38.764Z</time>
      </trkpt>
      <trkpt lat="40.65578" lon="29.27264">
        <ele>9.409378</ele>
        <time>2021-11-17T13:00:39.833Z</time>
      </trkpt>
      <trkpt lat="40.65578" lon="29.2729">
        <ele>9.409378</ele>
        <time>2021-11-17T13:00:43.833Z</time>
      </trkpt>
    </trkseg>
  </trk>
</gpx>